<?xml version="1.0" encoding="UTF-8" standalone="no" ?>
<gpx xmlns="http://www.topografix.com/GPX/1/1" xmlns:xsi="http://www.w3.org/2001/XMLSchema-instance" xsi:schemaLocation="http://www.topografix.com/GPX/1/1 http://www.topografix.com/GPX/1/1/gpx.xsd" version="1.1" creator="VisuGPX - https://www.visugpx.com">
  <metadata>
    <name>Tour des Pérics - Bouillouses-lhospitalet-août2021</name>
    <desc><![CDATA[Le tour des Pérics avec une dernière étape tronquée par le risque d'orage et un retour en train + bus aux Bouillouses ! ]]></desc>
  </metadata>
  <trk>
    <name><![CDATA[Bouillouses-lhospitalet-août2021]]></name>
    <extensions>
      <line xmlns="http://www.topografix.com/GPX/gpx_style/0/2">
        <width>4</width>
      </line>
    </extensions>
    <trkseg>
      <trkpt lat="42.55922" lon="2.00316">
        <ele>1996.8</ele>
        <time>2021-08-01T09:41:03.000Z</time>
      </trkpt>
      <trkpt lat="42.55922" lon="2.00316">
        <ele>1996.8</ele>
        <time>2021-08-01T09:41:03.000Z</time>
      </trkpt>
      <trkpt lat="42.55922" lon="2.00317">
        <ele>2026.8</ele>
        <time>2021-08-01T09:41:04.000Z</time>
      </trkpt>
      <trkpt lat="42.5593" lon="2.00323">
        <ele>2036.8</ele>
        <time>2021-08-01T09:41:12.000Z</time>
      </trkpt>
      <trkpt lat="42.55938" lon="2.00332">
        <ele>2036.3</ele>
        <time>2021-08-01T09:41:20.000Z</time>
      </trkpt>
      <trkpt lat="42.55945" lon="2.0034">
        <ele>2037.1</ele>
        <time>2021-08-01T09:41:27.000Z</time>
      </trkpt>
      <trkpt lat="42.55951" lon="2.00349">
        <ele>2037.4</ele>
        <time>2021-08-01T09:41:35.000Z</time>
      </trkpt>
      <trkpt lat="42.55958" lon="2.00359">
        <ele>2038</ele>
        <time>2021-08-01T09:41:44.000Z</time>
      </trkpt>
      <trkpt lat="42.55965" lon="2.00368">
        <ele>2038.8</ele>
        <time>2021-08-01T09:41:52.000Z</time>
      </trkpt>
      <trkpt lat="42.55974" lon="2.00372">
        <ele>2038.8</ele>
        <time>2021-08-01T09:42:01.000Z</time>
      </trkpt>
      <trkpt lat="42.55984" lon="2.00374">
        <ele>2040</ele>
        <time>2021-08-01T09:42:10.000Z</time>
      </trkpt>
      <trkpt lat="42.55993" lon="2.00374">
        <ele>2040.4</ele>
        <time>2021-08-01T09:42:18.000Z</time>
      </trkpt>
      <trkpt lat="42.56002" lon="2.0037">
        <ele>2041.6</ele>
        <time>2021-08-01T09:42:27.000Z</time>
      </trkpt>
      <trkpt lat="42.56009" lon="2.00362">
        <ele>2042.3</ele>
        <time>2021-08-01T09:42:36.000Z</time>
      </trkpt>
      <trkpt lat="42.56014" lon="2.0035">
        <ele>2042.1</ele>
        <time>2021-08-01T09:42:45.000Z</time>
      </trkpt>
      <trkpt lat="42.56018" lon="2.00339">
        <ele>2041.8</ele>
        <time>2021-08-01T09:42:54.000Z</time>
      </trkpt>
      <trkpt lat="42.56027" lon="2.00335">
        <ele>2041.9</ele>
        <time>2021-08-01T09:43:03.000Z</time>
      </trkpt>
      <trkpt lat="42.56036" lon="2.00334">
        <ele>2042.5</ele>
        <time>2021-08-01T09:43:12.000Z</time>
      </trkpt>
      <trkpt lat="42.56044" lon="2.00326">
        <ele>2043.8</ele>
        <time>2021-08-01T09:43:22.000Z</time>
      </trkpt>
      <trkpt lat="42.56043" lon="2.00313">
        <ele>2045.2</ele>
        <time>2021-08-01T09:43:32.000Z</time>
      </trkpt>
      <trkpt lat="42.56042" lon="2.003">
        <ele>2045</ele>
        <time>2021-08-01T09:43:41.000Z</time>
      </trkpt>
      <trkpt lat="42.5604" lon="2.00288">
        <ele>2045.4</ele>
        <time>2021-08-01T09:43:50.000Z</time>
      </trkpt>
      <trkpt lat="42.56037" lon="2.00275">
        <ele>2045.4</ele>
        <time>2021-08-01T09:43:59.000Z</time>
      </trkpt>
      <trkpt lat="42.56035" lon="2.00262">
        <ele>2045.5</ele>
        <time>2021-08-01T09:44:08.000Z</time>
      </trkpt>
      <trkpt lat="42.56034" lon="2.00257">
        <ele>2045.2</ele>
        <time>2021-08-01T09:44:14.000Z</time>
      </trkpt>
      <trkpt lat="42.56034" lon="2.00257">
        <ele>2045.4</ele>
        <time>2021-08-01T09:44:16.000Z</time>
      </trkpt>
      <trkpt lat="42.56032" lon="2.00244">
        <ele>2045.4</ele>
        <time>2021-08-01T09:44:25.000Z</time>
      </trkpt>
      <trkpt lat="42.5603" lon="2.00232">
        <ele>2045.6</ele>
        <time>2021-08-01T09:44:33.000Z</time>
      </trkpt>
      <trkpt lat="42.56028" lon="2.0022">
        <ele>2045.7</ele>
        <time>2021-08-01T09:44:41.000Z</time>
      </trkpt>
      <trkpt lat="42.56026" lon="2.00208">
        <ele>2046</ele>
        <time>2021-08-01T09:44:49.000Z</time>
      </trkpt>
      <trkpt lat="42.56023" lon="2.00195">
        <ele>2045.8</ele>
        <time>2021-08-01T09:44:57.000Z</time>
      </trkpt>
      <trkpt lat="42.56021" lon="2.00183">
        <ele>2046.2</ele>
        <time>2021-08-01T09:45:05.000Z</time>
      </trkpt>
      <trkpt lat="42.56019" lon="2.0017">
        <ele>2047.3</ele>
        <time>2021-08-01T09:45:13.000Z</time>
      </trkpt>
      <trkpt lat="42.56017" lon="2.00157">
        <ele>2046.6</ele>
        <time>2021-08-01T09:45:22.000Z</time>
      </trkpt>
      <trkpt lat="42.56015" lon="2.00145">
        <ele>2046.5</ele>
        <time>2021-08-01T09:45:30.000Z</time>
      </trkpt>
      <trkpt lat="42.56013" lon="2.00133">
        <ele>2046.2</ele>
        <time>2021-08-01T09:45:38.000Z</time>
      </trkpt>
      <trkpt lat="42.5601" lon="2.00121">
        <ele>2046.2</ele>
        <time>2021-08-01T09:45:47.000Z</time>
      </trkpt>
      <trkpt lat="42.56008" lon="2.00109">
        <ele>2046.4</ele>
        <time>2021-08-01T09:45:56.000Z</time>
      </trkpt>
      <trkpt lat="42.56006" lon="2.00096">
        <ele>2045.9</ele>
        <time>2021-08-01T09:46:04.000Z</time>
      </trkpt>
      <trkpt lat="42.56004" lon="2.00084">
        <ele>2046.5</ele>
        <time>2021-08-01T09:46:12.000Z</time>
      </trkpt>
      <trkpt lat="42.56002" lon="2.00072">
        <ele>2045.7</ele>
        <time>2021-08-01T09:46:20.000Z</time>
      </trkpt>
      <trkpt lat="42.56" lon="2.00059">
        <ele>2045.7</ele>
        <time>2021-08-01T09:46:28.000Z</time>
      </trkpt>
      <trkpt lat="42.55998" lon="2.00046">
        <ele>2045.7</ele>
        <time>2021-08-01T09:46:36.000Z</time>
      </trkpt>
      <trkpt lat="42.55996" lon="2.00034">
        <ele>2045.8</ele>
        <time>2021-08-01T09:46:44.000Z</time>
      </trkpt>
      <trkpt lat="42.55994" lon="2.00021">
        <ele>2045.7</ele>
        <time>2021-08-01T09:46:52.000Z</time>
      </trkpt>
      <trkpt lat="42.55992" lon="2.00008">
        <ele>2045.7</ele>
        <time>2021-08-01T09:47:01.000Z</time>
      </trkpt>
      <trkpt lat="42.5599" lon="1.99996">
        <ele>2045.5</ele>
        <time>2021-08-01T09:47:09.000Z</time>
      </trkpt>
      <trkpt lat="42.55988" lon="1.99984">
        <ele>2045.1</ele>
        <time>2021-08-01T09:47:17.000Z</time>
      </trkpt>
      <trkpt lat="42.55986" lon="1.99971">
        <ele>2045.8</ele>
        <time>2021-08-01T09:47:26.000Z</time>
      </trkpt>
      <trkpt lat="42.55984" lon="1.99958">
        <ele>2045.8</ele>
        <time>2021-08-01T09:47:34.000Z</time>
      </trkpt>
      <trkpt lat="42.55982" lon="1.99946">
        <ele>2045.5</ele>
        <time>2021-08-01T09:47:42.000Z</time>
      </trkpt>
      <trkpt lat="42.55979" lon="1.99934">
        <ele>2045.3</ele>
        <time>2021-08-01T09:47:50.000Z</time>
      </trkpt>
      <trkpt lat="42.55977" lon="1.99921">
        <ele>2044.8</ele>
        <time>2021-08-01T09:47:58.000Z</time>
      </trkpt>
      <trkpt lat="42.55975" lon="1.99909">
        <ele>2044.7</ele>
        <time>2021-08-01T09:48:06.000Z</time>
      </trkpt>
      <trkpt lat="42.55972" lon="1.99898">
        <ele>2045</ele>
        <time>2021-08-01T09:48:14.000Z</time>
      </trkpt>
      <trkpt lat="42.55971" lon="1.99885">
        <ele>2045.5</ele>
        <time>2021-08-01T09:48:23.000Z</time>
      </trkpt>
      <trkpt lat="42.55969" lon="1.99872">
        <ele>2046</ele>
        <time>2021-08-01T09:48:32.000Z</time>
      </trkpt>
      <trkpt lat="42.55976" lon="1.99864">
        <ele>2046.3</ele>
        <time>2021-08-01T09:48:42.000Z</time>
      </trkpt>
      <trkpt lat="42.55985" lon="1.99859">
        <ele>2046.3</ele>
        <time>2021-08-01T09:48:51.000Z</time>
      </trkpt>
      <trkpt lat="42.55994" lon="1.99855">
        <ele>2046.4</ele>
        <time>2021-08-01T09:49:00.000Z</time>
      </trkpt>
      <trkpt lat="42.56002" lon="1.99847">
        <ele>2045.8</ele>
        <time>2021-08-01T09:49:09.000Z</time>
      </trkpt>
      <trkpt lat="42.56011" lon="1.99841">
        <ele>2045.6</ele>
        <time>2021-08-01T09:49:19.000Z</time>
      </trkpt>
      <trkpt lat="42.56017" lon="1.99831">
        <ele>2045.7</ele>
        <time>2021-08-01T09:49:30.000Z</time>
      </trkpt>
      <trkpt lat="42.56025" lon="1.99824">
        <ele>2045.1</ele>
        <time>2021-08-01T09:49:39.000Z</time>
      </trkpt>
      <trkpt lat="42.56033" lon="1.99815">
        <ele>2044.9</ele>
        <time>2021-08-01T09:49:48.000Z</time>
      </trkpt>
      <trkpt lat="42.56039" lon="1.99806">
        <ele>2045.3</ele>
        <time>2021-08-01T09:49:57.000Z</time>
      </trkpt>
      <trkpt lat="42.56048" lon="1.998">
        <ele>2045.5</ele>
        <time>2021-08-01T09:50:08.000Z</time>
      </trkpt>
      <trkpt lat="42.56057" lon="1.99795">
        <ele>2044.7</ele>
        <time>2021-08-01T09:50:16.000Z</time>
      </trkpt>
      <trkpt lat="42.56066" lon="1.9979">
        <ele>2044.9</ele>
        <time>2021-08-01T09:50:24.000Z</time>
      </trkpt>
      <trkpt lat="42.56075" lon="1.99786">
        <ele>2044.9</ele>
        <time>2021-08-01T09:50:32.000Z</time>
      </trkpt>
      <trkpt lat="42.56081" lon="1.99775">
        <ele>2045.7</ele>
        <time>2021-08-01T09:50:41.000Z</time>
      </trkpt>
      <trkpt lat="42.56084" lon="1.99763">
        <ele>2047.5</ele>
        <time>2021-08-01T09:50:52.000Z</time>
      </trkpt>
      <trkpt lat="42.56092" lon="1.99758">
        <ele>2048.6</ele>
        <time>2021-08-01T09:51:03.000Z</time>
      </trkpt>
      <trkpt lat="42.56102" lon="1.99761">
        <ele>2048.9</ele>
        <time>2021-08-01T09:51:14.000Z</time>
      </trkpt>
      <trkpt lat="42.56107" lon="1.99756">
        <ele>2048.4</ele>
        <time>2021-08-01T09:51:24.000Z</time>
      </trkpt>
      <trkpt lat="42.56108" lon="1.99756">
        <ele>2048.4</ele>
        <time>2021-08-01T09:51:25.000Z</time>
      </trkpt>
      <trkpt lat="42.56117" lon="1.99753">
        <ele>2046.5</ele>
        <time>2021-08-01T09:51:37.000Z</time>
      </trkpt>
      <trkpt lat="42.56127" lon="1.99751">
        <ele>2045.7</ele>
        <time>2021-08-01T09:51:46.000Z</time>
      </trkpt>
      <trkpt lat="42.56135" lon="1.99744">
        <ele>2045.7</ele>
        <time>2021-08-01T09:51:54.000Z</time>
      </trkpt>
      <trkpt lat="42.56143" lon="1.99738">
        <ele>2046.6</ele>
        <time>2021-08-01T09:52:04.000Z</time>
      </trkpt>
      <trkpt lat="42.56152" lon="1.99731">
        <ele>2047</ele>
        <time>2021-08-01T09:52:14.000Z</time>
      </trkpt>
      <trkpt lat="42.56162" lon="1.9973">
        <ele>2045.1</ele>
        <time>2021-08-01T09:52:24.000Z</time>
      </trkpt>
      <trkpt lat="42.5617" lon="1.99725">
        <ele>2044.1</ele>
        <time>2021-08-01T09:52:32.000Z</time>
      </trkpt>
      <trkpt lat="42.56178" lon="1.99717">
        <ele>2044.7</ele>
        <time>2021-08-01T09:52:41.000Z</time>
      </trkpt>
      <trkpt lat="42.56186" lon="1.99711">
        <ele>2046.4</ele>
        <time>2021-08-01T09:52:55.000Z</time>
      </trkpt>
      <trkpt lat="42.56194" lon="1.99717">
        <ele>2045.4</ele>
        <time>2021-08-01T09:53:10.000Z</time>
      </trkpt>
      <trkpt lat="42.56193" lon="1.99716">
        <ele>2045.6</ele>
        <time>2021-08-01T09:53:36.000Z</time>
      </trkpt>
      <trkpt lat="42.5619" lon="1.99704">
        <ele>2047.1</ele>
        <time>2021-08-01T09:53:54.000Z</time>
      </trkpt>
      <trkpt lat="42.56198" lon="1.99697">
        <ele>2049.6</ele>
        <time>2021-08-01T09:54:09.000Z</time>
      </trkpt>
      <trkpt lat="42.56205" lon="1.9969">
        <ele>2049.7</ele>
        <time>2021-08-01T09:54:19.000Z</time>
      </trkpt>
      <trkpt lat="42.56214" lon="1.99684">
        <ele>2048.3</ele>
        <time>2021-08-01T09:54:33.000Z</time>
      </trkpt>
      <trkpt lat="42.5622" lon="1.99687">
        <ele>2047</ele>
        <time>2021-08-01T09:54:47.000Z</time>
      </trkpt>
      <trkpt lat="42.56221" lon="1.99686">
        <ele>2046.5</ele>
        <time>2021-08-01T09:54:49.000Z</time>
      </trkpt>
      <trkpt lat="42.5623" lon="1.9969">
        <ele>2045.1</ele>
        <time>2021-08-01T09:55:00.000Z</time>
      </trkpt>
      <trkpt lat="42.56239" lon="1.99692">
        <ele>2043.4</ele>
        <time>2021-08-01T09:55:12.000Z</time>
      </trkpt>
      <trkpt lat="42.56248" lon="1.99686">
        <ele>2042.2</ele>
        <time>2021-08-01T09:55:23.000Z</time>
      </trkpt>
      <trkpt lat="42.56255" lon="1.99679">
        <ele>2041.6</ele>
        <time>2021-08-01T09:55:32.000Z</time>
      </trkpt>
      <trkpt lat="42.56264" lon="1.99677">
        <ele>2041</ele>
        <time>2021-08-01T09:55:40.000Z</time>
      </trkpt>
      <trkpt lat="42.56273" lon="1.99674">
        <ele>2042.2</ele>
        <time>2021-08-01T09:55:51.000Z</time>
      </trkpt>
      <trkpt lat="42.56281" lon="1.99667">
        <ele>2045.2</ele>
        <time>2021-08-01T09:56:04.000Z</time>
      </trkpt>
      <trkpt lat="42.56288" lon="1.99659">
        <ele>2045.2</ele>
        <time>2021-08-01T09:56:15.000Z</time>
      </trkpt>
      <trkpt lat="42.56297" lon="1.99657">
        <ele>2045.8</ele>
        <time>2021-08-01T09:56:26.000Z</time>
      </trkpt>
      <trkpt lat="42.56306" lon="1.99654">
        <ele>2045.9</ele>
        <time>2021-08-01T09:56:41.000Z</time>
      </trkpt>
      <trkpt lat="42.56315" lon="1.99652">
        <ele>2046.2</ele>
        <time>2021-08-01T09:56:50.000Z</time>
      </trkpt>
      <trkpt lat="42.56324" lon="1.99647">
        <ele>2046.4</ele>
        <time>2021-08-01T09:56:59.000Z</time>
      </trkpt>
      <trkpt lat="42.56333" lon="1.99641">
        <ele>2045.8</ele>
        <time>2021-08-01T09:57:08.000Z</time>
      </trkpt>
      <trkpt lat="42.56341" lon="1.99634">
        <ele>2046.2</ele>
        <time>2021-08-01T09:57:17.000Z</time>
      </trkpt>
      <trkpt lat="42.56351" lon="1.99634">
        <ele>2046.1</ele>
        <time>2021-08-01T09:57:26.000Z</time>
      </trkpt>
      <trkpt lat="42.5636" lon="1.99632">
        <ele>2046.4</ele>
        <time>2021-08-01T09:57:37.000Z</time>
      </trkpt>
      <trkpt lat="42.56367" lon="1.99623">
        <ele>2047.8</ele>
        <time>2021-08-01T09:57:50.000Z</time>
      </trkpt>
      <trkpt lat="42.56373" lon="1.99613">
        <ele>2049.5</ele>
        <time>2021-08-01T09:58:02.000Z</time>
      </trkpt>
      <trkpt lat="42.5638" lon="1.99606">
        <ele>2051.5</ele>
        <time>2021-08-01T09:58:15.000Z</time>
      </trkpt>
      <trkpt lat="42.56387" lon="1.99598">
        <ele>2053.1</ele>
        <time>2021-08-01T09:58:29.000Z</time>
      </trkpt>
      <trkpt lat="42.56396" lon="1.99591">
        <ele>2053</ele>
        <time>2021-08-01T09:58:40.000Z</time>
      </trkpt>
      <trkpt lat="42.56401" lon="1.99581">
        <ele>2053.9</ele>
        <time>2021-08-01T09:58:51.000Z</time>
      </trkpt>
      <trkpt lat="42.56406" lon="1.9957">
        <ele>2054.9</ele>
        <time>2021-08-01T09:59:01.000Z</time>
      </trkpt>
      <trkpt lat="42.5641" lon="1.99559">
        <ele>2055.5</ele>
        <time>2021-08-01T09:59:13.000Z</time>
      </trkpt>
      <trkpt lat="42.56416" lon="1.99549">
        <ele>2054.7</ele>
        <time>2021-08-01T09:59:24.000Z</time>
      </trkpt>
      <trkpt lat="42.5642" lon="1.99538">
        <ele>2052.5</ele>
        <time>2021-08-01T09:59:40.000Z</time>
      </trkpt>
      <trkpt lat="42.56428" lon="1.99532">
        <ele>2049.9</ele>
        <time>2021-08-01T09:59:57.000Z</time>
      </trkpt>
      <trkpt lat="42.56437" lon="1.99528">
        <ele>2046.8</ele>
        <time>2021-08-01T10:00:15.000Z</time>
      </trkpt>
      <trkpt lat="42.56445" lon="1.99535">
        <ele>2043.7</ele>
        <time>2021-08-01T10:00:31.000Z</time>
      </trkpt>
      <trkpt lat="42.56449" lon="1.99536">
        <ele>2043.1</ele>
        <time>2021-08-01T10:00:38.000Z</time>
      </trkpt>
      <trkpt lat="42.56449" lon="1.99536">
        <ele>2043.2</ele>
        <time>2021-08-01T10:00:42.000Z</time>
      </trkpt>
      <trkpt lat="42.56457" lon="1.99543">
        <ele>2041.9</ele>
        <time>2021-08-01T10:00:54.000Z</time>
      </trkpt>
      <trkpt lat="42.56462" lon="1.99554">
        <ele>2041.5</ele>
        <time>2021-08-01T10:01:04.000Z</time>
      </trkpt>
      <trkpt lat="42.56472" lon="1.99557">
        <ele>2043.2</ele>
        <time>2021-08-01T10:01:17.000Z</time>
      </trkpt>
      <trkpt lat="42.56481" lon="1.99558">
        <ele>2043.6</ele>
        <time>2021-08-01T10:01:27.000Z</time>
      </trkpt>
      <trkpt lat="42.56491" lon="1.99561">
        <ele>2043.1</ele>
        <time>2021-08-01T10:01:37.000Z</time>
      </trkpt>
      <trkpt lat="42.565" lon="1.99561">
        <ele>2042.4</ele>
        <time>2021-08-01T10:01:49.000Z</time>
      </trkpt>
      <trkpt lat="42.56503" lon="1.99561">
        <ele>2041.3</ele>
        <time>2021-08-01T10:01:56.000Z</time>
      </trkpt>
      <trkpt lat="42.56503" lon="1.99561">
        <ele>2041.5</ele>
        <time>2021-08-01T10:01:58.000Z</time>
      </trkpt>
      <trkpt lat="42.56513" lon="1.99559">
        <ele>2039.7</ele>
        <time>2021-08-01T10:02:13.000Z</time>
      </trkpt>
      <trkpt lat="42.56522" lon="1.99557">
        <ele>2038.5</ele>
        <time>2021-08-01T10:02:24.000Z</time>
      </trkpt>
      <trkpt lat="42.56531" lon="1.99557">
        <ele>2037.5</ele>
        <time>2021-08-01T10:02:34.000Z</time>
      </trkpt>
      <trkpt lat="42.5654" lon="1.9956">
        <ele>2037.4</ele>
        <time>2021-08-01T10:02:47.000Z</time>
      </trkpt>
      <trkpt lat="42.56542" lon="1.9956">
        <ele>2037.9</ele>
        <time>2021-08-01T10:02:52.000Z</time>
      </trkpt>
      <trkpt lat="42.56542" lon="1.99559">
        <ele>2037.8</ele>
        <time>2021-08-01T10:02:55.000Z</time>
      </trkpt>
      <trkpt lat="42.56546" lon="1.99563">
        <ele>2038.7</ele>
        <time>2021-08-01T10:03:04.000Z</time>
      </trkpt>
      <trkpt lat="42.56546" lon="1.99563">
        <ele>2038.7</ele>
        <time>2021-08-01T10:03:28.000Z</time>
      </trkpt>
      <trkpt lat="42.56546" lon="1.99563">
        <ele>2038.8</ele>
        <time>2021-08-01T10:03:29.000Z</time>
      </trkpt>
      <trkpt lat="42.56546" lon="1.99564">
        <ele>2038.7</ele>
        <time>2021-08-01T10:03:31.000Z</time>
      </trkpt>
      <trkpt lat="42.56546" lon="1.99564">
        <ele>2038.7</ele>
        <time>2021-08-01T10:03:33.000Z</time>
      </trkpt>
      <trkpt lat="42.56546" lon="1.99564">
        <ele>2038.2</ele>
        <time>2021-08-01T10:03:42.000Z</time>
      </trkpt>
      <trkpt lat="42.56548" lon="1.99564">
        <ele>2038</ele>
        <time>2021-08-01T10:03:48.000Z</time>
      </trkpt>
      <trkpt lat="42.56548" lon="1.99565">
        <ele>2038.1</ele>
        <time>2021-08-01T10:03:54.000Z</time>
      </trkpt>
      <trkpt lat="42.56557" lon="1.99565">
        <ele>2039.8</ele>
        <time>2021-08-01T10:04:10.000Z</time>
      </trkpt>
      <trkpt lat="42.56566" lon="1.99563">
        <ele>2041.4</ele>
        <time>2021-08-01T10:04:23.000Z</time>
      </trkpt>
      <trkpt lat="42.56575" lon="1.9956">
        <ele>2042.7</ele>
        <time>2021-08-01T10:04:35.000Z</time>
      </trkpt>
      <trkpt lat="42.56584" lon="1.99557">
        <ele>2044.4</ele>
        <time>2021-08-01T10:04:45.000Z</time>
      </trkpt>
      <trkpt lat="42.56593" lon="1.99555">
        <ele>2043.7</ele>
        <time>2021-08-01T10:04:55.000Z</time>
      </trkpt>
      <trkpt lat="42.56602" lon="1.99551">
        <ele>2043.3</ele>
        <time>2021-08-01T10:05:06.000Z</time>
      </trkpt>
      <trkpt lat="42.56611" lon="1.99551">
        <ele>2042.7</ele>
        <time>2021-08-01T10:05:15.000Z</time>
      </trkpt>
      <trkpt lat="42.5662" lon="1.99547">
        <ele>2042.6</ele>
        <time>2021-08-01T10:05:26.000Z</time>
      </trkpt>
      <trkpt lat="42.5663" lon="1.99547">
        <ele>2041.7</ele>
        <time>2021-08-01T10:05:37.000Z</time>
      </trkpt>
      <trkpt lat="42.56639" lon="1.99543">
        <ele>2040.9</ele>
        <time>2021-08-01T10:05:46.000Z</time>
      </trkpt>
      <trkpt lat="42.56647" lon="1.99536">
        <ele>2040.2</ele>
        <time>2021-08-01T10:05:56.000Z</time>
      </trkpt>
      <trkpt lat="42.56655" lon="1.99528">
        <ele>2039.6</ele>
        <time>2021-08-01T10:06:05.000Z</time>
      </trkpt>
      <trkpt lat="42.56661" lon="1.99518">
        <ele>2039.8</ele>
        <time>2021-08-01T10:06:14.000Z</time>
      </trkpt>
      <trkpt lat="42.56665" lon="1.99507">
        <ele>2041</ele>
        <time>2021-08-01T10:06:24.000Z</time>
      </trkpt>
      <trkpt lat="42.56667" lon="1.99494">
        <ele>2041.3</ele>
        <time>2021-08-01T10:06:34.000Z</time>
      </trkpt>
      <trkpt lat="42.56672" lon="1.99484">
        <ele>2041.6</ele>
        <time>2021-08-01T10:06:46.000Z</time>
      </trkpt>
      <trkpt lat="42.56678" lon="1.99473">
        <ele>2041.8</ele>
        <time>2021-08-01T10:06:56.000Z</time>
      </trkpt>
      <trkpt lat="42.56678" lon="1.99472">
        <ele>2041.9</ele>
        <time>2021-08-01T10:06:58.000Z</time>
      </trkpt>
      <trkpt lat="42.56679" lon="1.99472">
        <ele>2041.9</ele>
        <time>2021-08-01T10:06:59.000Z</time>
      </trkpt>
      <trkpt lat="42.56685" lon="1.99467">
        <ele>2041</ele>
        <time>2021-08-01T10:07:15.000Z</time>
      </trkpt>
      <trkpt lat="42.56686" lon="1.99467">
        <ele>2041.1</ele>
        <time>2021-08-01T10:07:27.000Z</time>
      </trkpt>
      <trkpt lat="42.56689" lon="1.99464">
        <ele>2040.7</ele>
        <time>2021-08-01T10:07:36.000Z</time>
      </trkpt>
      <trkpt lat="42.56689" lon="1.99464">
        <ele>2040.6</ele>
        <time>2021-08-01T10:07:46.000Z</time>
      </trkpt>
      <trkpt lat="42.56691" lon="1.99464">
        <ele>2040.5</ele>
        <time>2021-08-01T10:07:50.000Z</time>
      </trkpt>
      <trkpt lat="42.56691" lon="1.99463">
        <ele>2040.6</ele>
        <time>2021-08-01T10:07:52.000Z</time>
      </trkpt>
      <trkpt lat="42.56692" lon="1.99463">
        <ele>2040.5</ele>
        <time>2021-08-01T10:07:56.000Z</time>
      </trkpt>
      <trkpt lat="42.56692" lon="1.99463">
        <ele>2040.6</ele>
        <time>2021-08-01T10:07:57.000Z</time>
      </trkpt>
      <trkpt lat="42.56692" lon="1.99462">
        <ele>2040.2</ele>
        <time>2021-08-01T10:08:01.000Z</time>
      </trkpt>
      <trkpt lat="42.56693" lon="1.99462">
        <ele>2039.9</ele>
        <time>2021-08-01T10:08:04.000Z</time>
      </trkpt>
      <trkpt lat="42.56702" lon="1.99461">
        <ele>2040.6</ele>
        <time>2021-08-01T10:08:18.000Z</time>
      </trkpt>
      <trkpt lat="42.56711" lon="1.99463">
        <ele>2042.5</ele>
        <time>2021-08-01T10:08:34.000Z</time>
      </trkpt>
      <trkpt lat="42.5672" lon="1.99464">
        <ele>2041.7</ele>
        <time>2021-08-01T10:08:48.000Z</time>
      </trkpt>
      <trkpt lat="42.56728" lon="1.99469">
        <ele>2040.1</ele>
        <time>2021-08-01T10:09:15.000Z</time>
      </trkpt>
      <trkpt lat="42.56728" lon="1.99469">
        <ele>2040</ele>
        <time>2021-08-01T10:09:17.000Z</time>
      </trkpt>
      <trkpt lat="42.56737" lon="1.99464">
        <ele>2038.4</ele>
        <time>2021-08-01T10:09:30.000Z</time>
      </trkpt>
      <trkpt lat="42.56745" lon="1.99456">
        <ele>2038.2</ele>
        <time>2021-08-01T10:09:39.000Z</time>
      </trkpt>
      <trkpt lat="42.56752" lon="1.99447">
        <ele>2038.3</ele>
        <time>2021-08-01T10:09:51.000Z</time>
      </trkpt>
      <trkpt lat="42.56756" lon="1.99436">
        <ele>2038.4</ele>
        <time>2021-08-01T10:10:02.000Z</time>
      </trkpt>
      <trkpt lat="42.56763" lon="1.99428">
        <ele>2038.7</ele>
        <time>2021-08-01T10:10:14.000Z</time>
      </trkpt>
      <trkpt lat="42.56772" lon="1.99428">
        <ele>2038.5</ele>
        <time>2021-08-01T10:10:23.000Z</time>
      </trkpt>
      <trkpt lat="42.56781" lon="1.99429">
        <ele>2038.2</ele>
        <time>2021-08-01T10:10:32.000Z</time>
      </trkpt>
      <trkpt lat="42.5679" lon="1.99426">
        <ele>2038.7</ele>
        <time>2021-08-01T10:10:41.000Z</time>
      </trkpt>
      <trkpt lat="42.56799" lon="1.99427">
        <ele>2038.1</ele>
        <time>2021-08-01T10:10:52.000Z</time>
      </trkpt>
      <trkpt lat="42.56808" lon="1.99431">
        <ele>2038.3</ele>
        <time>2021-08-01T10:11:02.000Z</time>
      </trkpt>
      <trkpt lat="42.56817" lon="1.99435">
        <ele>2039.5</ele>
        <time>2021-08-01T10:11:17.000Z</time>
      </trkpt>
      <trkpt lat="42.56821" lon="1.99439">
        <ele>2041</ele>
        <time>2021-08-01T10:11:30.000Z</time>
      </trkpt>
      <trkpt lat="42.56821" lon="1.9944">
        <ele>2041</ele>
        <time>2021-08-01T10:11:31.000Z</time>
      </trkpt>
      <trkpt lat="42.56829" lon="1.99445">
        <ele>2042.9</ele>
        <time>2021-08-01T10:11:47.000Z</time>
      </trkpt>
      <trkpt lat="42.56838" lon="1.99447">
        <ele>2043.3</ele>
        <time>2021-08-01T10:11:57.000Z</time>
      </trkpt>
      <trkpt lat="42.56847" lon="1.99451">
        <ele>2043.8</ele>
        <time>2021-08-01T10:12:07.000Z</time>
      </trkpt>
      <trkpt lat="42.56856" lon="1.9945">
        <ele>2045.2</ele>
        <time>2021-08-01T10:12:21.000Z</time>
      </trkpt>
      <trkpt lat="42.56865" lon="1.99446">
        <ele>2045.6</ele>
        <time>2021-08-01T10:12:35.000Z</time>
      </trkpt>
      <trkpt lat="42.56874" lon="1.99441">
        <ele>2045.6</ele>
        <time>2021-08-01T10:12:47.000Z</time>
      </trkpt>
      <trkpt lat="42.56883" lon="1.99438">
        <ele>2044.3</ele>
        <time>2021-08-01T10:12:59.000Z</time>
      </trkpt>
      <trkpt lat="42.56892" lon="1.99432">
        <ele>2044.8</ele>
        <time>2021-08-01T10:13:10.000Z</time>
      </trkpt>
      <trkpt lat="42.56898" lon="1.99423">
        <ele>2043</ele>
        <time>2021-08-01T10:13:28.000Z</time>
      </trkpt>
      <trkpt lat="42.56906" lon="1.99416">
        <ele>2040.6</ele>
        <time>2021-08-01T10:13:40.000Z</time>
      </trkpt>
      <trkpt lat="42.56914" lon="1.99409">
        <ele>2039</ele>
        <time>2021-08-01T10:13:50.000Z</time>
      </trkpt>
      <trkpt lat="42.56922" lon="1.99402">
        <ele>2038</ele>
        <time>2021-08-01T10:14:01.000Z</time>
      </trkpt>
      <trkpt lat="42.56932" lon="1.99401">
        <ele>2038.1</ele>
        <time>2021-08-01T10:14:11.000Z</time>
      </trkpt>
      <trkpt lat="42.56941" lon="1.99403">
        <ele>2038.7</ele>
        <time>2021-08-01T10:14:20.000Z</time>
      </trkpt>
      <trkpt lat="42.5695" lon="1.99398">
        <ele>2039.8</ele>
        <time>2021-08-01T10:14:31.000Z</time>
      </trkpt>
      <trkpt lat="42.56959" lon="1.99393">
        <ele>2041</ele>
        <time>2021-08-01T10:14:45.000Z</time>
      </trkpt>
      <trkpt lat="42.56967" lon="1.99387">
        <ele>2042.9</ele>
        <time>2021-08-01T10:15:03.000Z</time>
      </trkpt>
      <trkpt lat="42.56974" lon="1.99379">
        <ele>2043.2</ele>
        <time>2021-08-01T10:15:15.000Z</time>
      </trkpt>
      <trkpt lat="42.5698" lon="1.99369">
        <ele>2041.7</ele>
        <time>2021-08-01T10:15:31.000Z</time>
      </trkpt>
      <trkpt lat="42.56987" lon="1.99361">
        <ele>2040.6</ele>
        <time>2021-08-01T10:15:41.000Z</time>
      </trkpt>
      <trkpt lat="42.56994" lon="1.99353">
        <ele>2039.5</ele>
        <time>2021-08-01T10:15:51.000Z</time>
      </trkpt>
      <trkpt lat="42.57003" lon="1.9935">
        <ele>2038.8</ele>
        <time>2021-08-01T10:16:00.000Z</time>
      </trkpt>
      <trkpt lat="42.57012" lon="1.99345">
        <ele>2038</ele>
        <time>2021-08-01T10:16:11.000Z</time>
      </trkpt>
      <trkpt lat="42.5702" lon="1.99339">
        <ele>2038.4</ele>
        <time>2021-08-01T10:16:21.000Z</time>
      </trkpt>
      <trkpt lat="42.57026" lon="1.9933">
        <ele>2038.5</ele>
        <time>2021-08-01T10:16:30.000Z</time>
      </trkpt>
      <trkpt lat="42.57033" lon="1.99321">
        <ele>2037.7</ele>
        <time>2021-08-01T10:16:41.000Z</time>
      </trkpt>
      <trkpt lat="42.57039" lon="1.99311">
        <ele>2037.5</ele>
        <time>2021-08-01T10:16:50.000Z</time>
      </trkpt>
      <trkpt lat="42.57047" lon="1.99303">
        <ele>2036.8</ele>
        <time>2021-08-01T10:17:00.000Z</time>
      </trkpt>
      <trkpt lat="42.57056" lon="1.99298">
        <ele>2036.2</ele>
        <time>2021-08-01T10:17:10.000Z</time>
      </trkpt>
      <trkpt lat="42.57064" lon="1.99291">
        <ele>2036.1</ele>
        <time>2021-08-01T10:17:20.000Z</time>
      </trkpt>
      <trkpt lat="42.57073" lon="1.99285">
        <ele>2036.1</ele>
        <time>2021-08-01T10:17:30.000Z</time>
      </trkpt>
      <trkpt lat="42.5708" lon="1.99276">
        <ele>2036.4</ele>
        <time>2021-08-01T10:17:40.000Z</time>
      </trkpt>
      <trkpt lat="42.57088" lon="1.9927">
        <ele>2035.2</ele>
        <time>2021-08-01T10:17:49.000Z</time>
      </trkpt>
      <trkpt lat="42.57096" lon="1.99262">
        <ele>2035.2</ele>
        <time>2021-08-01T10:17:59.000Z</time>
      </trkpt>
      <trkpt lat="42.57104" lon="1.99255">
        <ele>2036.2</ele>
        <time>2021-08-01T10:18:08.000Z</time>
      </trkpt>
      <trkpt lat="42.57111" lon="1.99247">
        <ele>2037.8</ele>
        <time>2021-08-01T10:18:25.000Z</time>
      </trkpt>
      <trkpt lat="42.5712" lon="1.99245">
        <ele>2040.3</ele>
        <time>2021-08-01T10:18:41.000Z</time>
      </trkpt>
      <trkpt lat="42.57127" lon="1.99253">
        <ele>2041.3</ele>
        <time>2021-08-01T10:18:53.000Z</time>
      </trkpt>
      <trkpt lat="42.57136" lon="1.99257">
        <ele>2042.8</ele>
        <time>2021-08-01T10:19:05.000Z</time>
      </trkpt>
      <trkpt lat="42.57145" lon="1.99262">
        <ele>2043.4</ele>
        <time>2021-08-01T10:19:16.000Z</time>
      </trkpt>
      <trkpt lat="42.57154" lon="1.99266">
        <ele>2044.7</ele>
        <time>2021-08-01T10:19:29.000Z</time>
      </trkpt>
      <trkpt lat="42.57162" lon="1.99272">
        <ele>2046.5</ele>
        <time>2021-08-01T10:19:43.000Z</time>
      </trkpt>
      <trkpt lat="42.5717" lon="1.99278">
        <ele>2048.1</ele>
        <time>2021-08-01T10:19:55.000Z</time>
      </trkpt>
      <trkpt lat="42.57178" lon="1.99286">
        <ele>2049</ele>
        <time>2021-08-01T10:20:06.000Z</time>
      </trkpt>
      <trkpt lat="42.57183" lon="1.99296">
        <ele>2050.2</ele>
        <time>2021-08-01T10:20:18.000Z</time>
      </trkpt>
      <trkpt lat="42.5719" lon="1.99305">
        <ele>2050.9</ele>
        <time>2021-08-01T10:20:31.000Z</time>
      </trkpt>
      <trkpt lat="42.57194" lon="1.99316">
        <ele>2049.6</ele>
        <time>2021-08-01T10:20:44.000Z</time>
      </trkpt>
      <trkpt lat="42.57202" lon="1.99323">
        <ele>2048.6</ele>
        <time>2021-08-01T10:20:56.000Z</time>
      </trkpt>
      <trkpt lat="42.57212" lon="1.99327">
        <ele>2048.1</ele>
        <time>2021-08-01T10:21:07.000Z</time>
      </trkpt>
      <trkpt lat="42.5722" lon="1.9933">
        <ele>2048.5</ele>
        <time>2021-08-01T10:21:19.000Z</time>
      </trkpt>
      <trkpt lat="42.57224" lon="1.99329">
        <ele>2049.3</ele>
        <time>2021-08-01T10:21:29.000Z</time>
      </trkpt>
      <trkpt lat="42.57224" lon="1.99329">
        <ele>2049.2</ele>
        <time>2021-08-01T10:21:36.000Z</time>
      </trkpt>
      <trkpt lat="42.5723" lon="1.9932">
        <ele>2051.8</ele>
        <time>2021-08-01T10:21:52.000Z</time>
      </trkpt>
      <trkpt lat="42.57238" lon="1.99312">
        <ele>2053.5</ele>
        <time>2021-08-01T10:22:07.000Z</time>
      </trkpt>
      <trkpt lat="42.57243" lon="1.99302">
        <ele>2053.5</ele>
        <time>2021-08-01T10:22:20.000Z</time>
      </trkpt>
      <trkpt lat="42.5725" lon="1.99294">
        <ele>2052.8</ele>
        <time>2021-08-01T10:22:30.000Z</time>
      </trkpt>
      <trkpt lat="42.5725" lon="1.99293">
        <ele>2053.1</ele>
        <time>2021-08-01T10:22:33.000Z</time>
      </trkpt>
      <trkpt lat="42.57251" lon="1.99292">
        <ele>2053</ele>
        <time>2021-08-01T10:22:34.000Z</time>
      </trkpt>
      <trkpt lat="42.57258" lon="1.99284">
        <ele>2053.7</ele>
        <time>2021-08-01T10:22:44.000Z</time>
      </trkpt>
      <trkpt lat="42.57261" lon="1.99281">
        <ele>2053.9</ele>
        <time>2021-08-01T10:22:53.000Z</time>
      </trkpt>
      <trkpt lat="42.57261" lon="1.99281">
        <ele>2053.7</ele>
        <time>2021-08-01T10:23:22.000Z</time>
      </trkpt>
      <trkpt lat="42.57261" lon="1.99281">
        <ele>2053.7</ele>
        <time>2021-08-01T10:23:23.000Z</time>
      </trkpt>
      <trkpt lat="42.57262" lon="1.99281">
        <ele>2053.7</ele>
        <time>2021-08-01T10:23:24.000Z</time>
      </trkpt>
      <trkpt lat="42.5727" lon="1.99276">
        <ele>2052.5</ele>
        <time>2021-08-01T10:23:40.000Z</time>
      </trkpt>
      <trkpt lat="42.5728" lon="1.99274">
        <ele>2052.7</ele>
        <time>2021-08-01T10:23:55.000Z</time>
      </trkpt>
      <trkpt lat="42.57289" lon="1.9927">
        <ele>2052</ele>
        <time>2021-08-01T10:24:05.000Z</time>
      </trkpt>
      <trkpt lat="42.57298" lon="1.99268">
        <ele>2051</ele>
        <time>2021-08-01T10:24:14.000Z</time>
      </trkpt>
      <trkpt lat="42.57308" lon="1.99266">
        <ele>2050.7</ele>
        <time>2021-08-01T10:24:23.000Z</time>
      </trkpt>
      <trkpt lat="42.57317" lon="1.99267">
        <ele>2050.5</ele>
        <time>2021-08-01T10:24:32.000Z</time>
      </trkpt>
      <trkpt lat="42.57326" lon="1.99267">
        <ele>2051.5</ele>
        <time>2021-08-01T10:24:43.000Z</time>
      </trkpt>
      <trkpt lat="42.57335" lon="1.99271">
        <ele>2052.6</ele>
        <time>2021-08-01T10:24:57.000Z</time>
      </trkpt>
      <trkpt lat="42.57343" lon="1.99278">
        <ele>2051.6</ele>
        <time>2021-08-01T10:25:11.000Z</time>
      </trkpt>
      <trkpt lat="42.57351" lon="1.99284">
        <ele>2050.5</ele>
        <time>2021-08-01T10:25:26.000Z</time>
      </trkpt>
      <trkpt lat="42.57361" lon="1.99285">
        <ele>2048.9</ele>
        <time>2021-08-01T10:25:38.000Z</time>
      </trkpt>
      <trkpt lat="42.5737" lon="1.99287">
        <ele>2048.1</ele>
        <time>2021-08-01T10:25:48.000Z</time>
      </trkpt>
      <trkpt lat="42.5738" lon="1.99287">
        <ele>2047.9</ele>
        <time>2021-08-01T10:25:58.000Z</time>
      </trkpt>
      <trkpt lat="42.57389" lon="1.99288">
        <ele>2048.8</ele>
        <time>2021-08-01T10:26:08.000Z</time>
      </trkpt>
      <trkpt lat="42.57399" lon="1.99292">
        <ele>2048.5</ele>
        <time>2021-08-01T10:26:18.000Z</time>
      </trkpt>
      <trkpt lat="42.57408" lon="1.99294">
        <ele>2047.6</ele>
        <time>2021-08-01T10:26:28.000Z</time>
      </trkpt>
      <trkpt lat="42.57417" lon="1.99299">
        <ele>2046.3</ele>
        <time>2021-08-01T10:26:39.000Z</time>
      </trkpt>
      <trkpt lat="42.57424" lon="1.99308">
        <ele>2045</ele>
        <time>2021-08-01T10:26:48.000Z</time>
      </trkpt>
      <trkpt lat="42.57431" lon="1.99316">
        <ele>2043.2</ele>
        <time>2021-08-01T10:27:03.000Z</time>
      </trkpt>
      <trkpt lat="42.57441" lon="1.99317">
        <ele>2043</ele>
        <time>2021-08-01T10:27:12.000Z</time>
      </trkpt>
      <trkpt lat="42.57447" lon="1.99327">
        <ele>2043.5</ele>
        <time>2021-08-01T10:27:24.000Z</time>
      </trkpt>
      <trkpt lat="42.57453" lon="1.99336">
        <ele>2043</ele>
        <time>2021-08-01T10:27:33.000Z</time>
      </trkpt>
      <trkpt lat="42.57461" lon="1.99343">
        <ele>2041.8</ele>
        <time>2021-08-01T10:27:43.000Z</time>
      </trkpt>
      <trkpt lat="42.5747" lon="1.99349">
        <ele>2040.8</ele>
        <time>2021-08-01T10:27:53.000Z</time>
      </trkpt>
      <trkpt lat="42.57478" lon="1.99355">
        <ele>2040.8</ele>
        <time>2021-08-01T10:28:02.000Z</time>
      </trkpt>
      <trkpt lat="42.57487" lon="1.99359">
        <ele>2040.3</ele>
        <time>2021-08-01T10:28:12.000Z</time>
      </trkpt>
      <trkpt lat="42.57497" lon="1.99361">
        <ele>2040.2</ele>
        <time>2021-08-01T10:28:21.000Z</time>
      </trkpt>
      <trkpt lat="42.57507" lon="1.99362">
        <ele>2039.9</ele>
        <time>2021-08-01T10:28:32.000Z</time>
      </trkpt>
      <trkpt lat="42.57514" lon="1.99369">
        <ele>2040.1</ele>
        <time>2021-08-01T10:28:42.000Z</time>
      </trkpt>
      <trkpt lat="42.57524" lon="1.99368">
        <ele>2040.3</ele>
        <time>2021-08-01T10:28:52.000Z</time>
      </trkpt>
      <trkpt lat="42.57533" lon="1.99369">
        <ele>2040.7</ele>
        <time>2021-08-01T10:29:01.000Z</time>
      </trkpt>
      <trkpt lat="42.57541" lon="1.99377">
        <ele>2040.7</ele>
        <time>2021-08-01T10:29:11.000Z</time>
      </trkpt>
      <trkpt lat="42.57549" lon="1.99385">
        <ele>2040.7</ele>
        <time>2021-08-01T10:29:21.000Z</time>
      </trkpt>
      <trkpt lat="42.57553" lon="1.99386">
        <ele>2041.3</ele>
        <time>2021-08-01T10:29:27.000Z</time>
      </trkpt>
      <trkpt lat="42.57552" lon="1.99386">
        <ele>2041.3</ele>
        <time>2021-08-01T10:29:28.000Z</time>
      </trkpt>
      <trkpt lat="42.57552" lon="1.99386">
        <ele>2041.3</ele>
        <time>2021-08-01T10:29:29.000Z</time>
      </trkpt>
      <trkpt lat="42.57553" lon="1.99386">
        <ele>2041.2</ele>
        <time>2021-08-01T10:29:31.000Z</time>
      </trkpt>
      <trkpt lat="42.57552" lon="1.99386">
        <ele>2041.6</ele>
        <time>2021-08-01T10:29:33.000Z</time>
      </trkpt>
      <trkpt lat="42.57553" lon="1.99387">
        <ele>2041.5</ele>
        <time>2021-08-01T10:29:52.000Z</time>
      </trkpt>
      <trkpt lat="42.57561" lon="1.99392">
        <ele>2041.5</ele>
        <time>2021-08-01T10:30:01.000Z</time>
      </trkpt>
      <trkpt lat="42.5757" lon="1.99397">
        <ele>2040.4</ele>
        <time>2021-08-01T10:30:11.000Z</time>
      </trkpt>
      <trkpt lat="42.57571" lon="1.99398">
        <ele>2040.5</ele>
        <time>2021-08-01T10:30:14.000Z</time>
      </trkpt>
      <trkpt lat="42.57571" lon="1.99398">
        <ele>2040.5</ele>
        <time>2021-08-01T10:30:15.000Z</time>
      </trkpt>
      <trkpt lat="42.5758" lon="1.99398">
        <ele>2040.3</ele>
        <time>2021-08-01T10:30:25.000Z</time>
      </trkpt>
      <trkpt lat="42.57589" lon="1.99402">
        <ele>2039.5</ele>
        <time>2021-08-01T10:30:37.000Z</time>
      </trkpt>
      <trkpt lat="42.57598" lon="1.99405">
        <ele>2039.1</ele>
        <time>2021-08-01T10:30:47.000Z</time>
      </trkpt>
      <trkpt lat="42.57608" lon="1.99406">
        <ele>2039.2</ele>
        <time>2021-08-01T10:30:57.000Z</time>
      </trkpt>
      <trkpt lat="42.57617" lon="1.99405">
        <ele>2038.7</ele>
        <time>2021-08-01T10:31:08.000Z</time>
      </trkpt>
      <trkpt lat="42.57626" lon="1.99405">
        <ele>2037.4</ele>
        <time>2021-08-01T10:31:21.000Z</time>
      </trkpt>
      <trkpt lat="42.57634" lon="1.99403">
        <ele>2038.1</ele>
        <time>2021-08-01T10:31:31.000Z</time>
      </trkpt>
      <trkpt lat="42.57634" lon="1.99403">
        <ele>2038.2</ele>
        <time>2021-08-01T10:31:32.000Z</time>
      </trkpt>
      <trkpt lat="42.57634" lon="1.99404">
        <ele>2038.4</ele>
        <time>2021-08-01T10:31:34.000Z</time>
      </trkpt>
      <trkpt lat="42.57634" lon="1.99403">
        <ele>2038.3</ele>
        <time>2021-08-01T10:31:35.000Z</time>
      </trkpt>
      <trkpt lat="42.57634" lon="1.99403">
        <ele>2038.2</ele>
        <time>2021-08-01T10:31:36.000Z</time>
      </trkpt>
      <trkpt lat="42.57634" lon="1.99403">
        <ele>2038.2</ele>
        <time>2021-08-01T10:31:37.000Z</time>
      </trkpt>
      <trkpt lat="42.57634" lon="1.99403">
        <ele>2038.3</ele>
        <time>2021-08-01T10:31:38.000Z</time>
      </trkpt>
      <trkpt lat="42.57635" lon="1.99404">
        <ele>2037.8</ele>
        <time>2021-08-01T10:31:43.000Z</time>
      </trkpt>
      <trkpt lat="42.57642" lon="1.99413">
        <ele>2038.7</ele>
        <time>2021-08-01T10:31:53.000Z</time>
      </trkpt>
      <trkpt lat="42.57648" lon="1.99423">
        <ele>2039.6</ele>
        <time>2021-08-01T10:32:03.000Z</time>
      </trkpt>
      <trkpt lat="42.57658" lon="1.99424">
        <ele>2040</ele>
        <time>2021-08-01T10:32:13.000Z</time>
      </trkpt>
      <trkpt lat="42.57667" lon="1.99421">
        <ele>2040.1</ele>
        <time>2021-08-01T10:32:23.000Z</time>
      </trkpt>
      <trkpt lat="42.57674" lon="1.99412">
        <ele>2040</ele>
        <time>2021-08-01T10:32:33.000Z</time>
      </trkpt>
      <trkpt lat="42.57678" lon="1.994">
        <ele>2040.1</ele>
        <time>2021-08-01T10:32:45.000Z</time>
      </trkpt>
      <trkpt lat="42.57684" lon="1.99391">
        <ele>2039.3</ele>
        <time>2021-08-01T10:32:57.000Z</time>
      </trkpt>
      <trkpt lat="42.57693" lon="1.99388">
        <ele>2039.8</ele>
        <time>2021-08-01T10:33:08.000Z</time>
      </trkpt>
      <trkpt lat="42.57702" lon="1.99392">
        <ele>2039.8</ele>
        <time>2021-08-01T10:33:19.000Z</time>
      </trkpt>
      <trkpt lat="42.57711" lon="1.99389">
        <ele>2039.9</ele>
        <time>2021-08-01T10:33:29.000Z</time>
      </trkpt>
      <trkpt lat="42.5772" lon="1.99388">
        <ele>2039.7</ele>
        <time>2021-08-01T10:33:40.000Z</time>
      </trkpt>
      <trkpt lat="42.57729" lon="1.99384">
        <ele>2040.2</ele>
        <time>2021-08-01T10:33:51.000Z</time>
      </trkpt>
      <trkpt lat="42.57739" lon="1.99384">
        <ele>2041.2</ele>
        <time>2021-08-01T10:34:01.000Z</time>
      </trkpt>
      <trkpt lat="42.57749" lon="1.99384">
        <ele>2042.2</ele>
        <time>2021-08-01T10:34:13.000Z</time>
      </trkpt>
      <trkpt lat="42.57758" lon="1.99381">
        <ele>2041.8</ele>
        <time>2021-08-01T10:34:24.000Z</time>
      </trkpt>
      <trkpt lat="42.57767" lon="1.99383">
        <ele>2042.2</ele>
        <time>2021-08-01T10:34:35.000Z</time>
      </trkpt>
      <trkpt lat="42.57769" lon="1.99383">
        <ele>2042.5</ele>
        <time>2021-08-01T10:34:39.000Z</time>
      </trkpt>
      <trkpt lat="42.57769" lon="1.99383">
        <ele>2042.6</ele>
        <time>2021-08-01T10:34:42.000Z</time>
      </trkpt>
      <trkpt lat="42.57769" lon="1.99383">
        <ele>2042.3</ele>
        <time>2021-08-01T10:34:43.000Z</time>
      </trkpt>
      <trkpt lat="42.57769" lon="1.99383">
        <ele>2042.6</ele>
        <time>2021-08-01T10:35:58.000Z</time>
      </trkpt>
      <trkpt lat="42.57769" lon="1.99383">
        <ele>2042.5</ele>
        <time>2021-08-01T10:36:00.000Z</time>
      </trkpt>
      <trkpt lat="42.57769" lon="1.99383">
        <ele>2042.7</ele>
        <time>2021-08-01T10:36:14.000Z</time>
      </trkpt>
      <trkpt lat="42.57769" lon="1.99383">
        <ele>2042.6</ele>
        <time>2021-08-01T10:36:15.000Z</time>
      </trkpt>
      <trkpt lat="42.57769" lon="1.99382">
        <ele>2042.8</ele>
        <time>2021-08-01T10:36:35.000Z</time>
      </trkpt>
      <trkpt lat="42.57778" lon="1.99385">
        <ele>2043.2</ele>
        <time>2021-08-01T10:36:46.000Z</time>
      </trkpt>
      <trkpt lat="42.57787" lon="1.99388">
        <ele>2043.6</ele>
        <time>2021-08-01T10:36:55.000Z</time>
      </trkpt>
      <trkpt lat="42.57796" lon="1.99392">
        <ele>2044.1</ele>
        <time>2021-08-01T10:37:05.000Z</time>
      </trkpt>
      <trkpt lat="42.57806" lon="1.99396">
        <ele>2044.6</ele>
        <time>2021-08-01T10:37:15.000Z</time>
      </trkpt>
      <trkpt lat="42.57815" lon="1.99399">
        <ele>2044.3</ele>
        <time>2021-08-01T10:37:24.000Z</time>
      </trkpt>
      <trkpt lat="42.57822" lon="1.99407">
        <ele>2044.4</ele>
        <time>2021-08-01T10:37:33.000Z</time>
      </trkpt>
      <trkpt lat="42.5783" lon="1.99414">
        <ele>2043.7</ele>
        <time>2021-08-01T10:37:43.000Z</time>
      </trkpt>
      <trkpt lat="42.57838" lon="1.99423">
        <ele>2043.9</ele>
        <time>2021-08-01T10:37:58.000Z</time>
      </trkpt>
      <trkpt lat="42.57843" lon="1.99432">
        <ele>2043.3</ele>
        <time>2021-08-01T10:38:17.000Z</time>
      </trkpt>
      <trkpt lat="42.57848" lon="1.99444">
        <ele>2043.1</ele>
        <time>2021-08-01T10:38:27.000Z</time>
      </trkpt>
      <trkpt lat="42.5785" lon="1.99456">
        <ele>2043.2</ele>
        <time>2021-08-01T10:38:37.000Z</time>
      </trkpt>
      <trkpt lat="42.57855" lon="1.99466">
        <ele>2043.1</ele>
        <time>2021-08-01T10:38:47.000Z</time>
      </trkpt>
      <trkpt lat="42.57859" lon="1.99477">
        <ele>2043.1</ele>
        <time>2021-08-01T10:38:57.000Z</time>
      </trkpt>
      <trkpt lat="42.57863" lon="1.99488">
        <ele>2043</ele>
        <time>2021-08-01T10:39:07.000Z</time>
      </trkpt>
      <trkpt lat="42.57868" lon="1.99496">
        <ele>2043.1</ele>
        <time>2021-08-01T10:39:18.000Z</time>
      </trkpt>
      <trkpt lat="42.57868" lon="1.99496">
        <ele>2042.9</ele>
        <time>2021-08-01T10:39:29.000Z</time>
      </trkpt>
      <trkpt lat="42.57871" lon="1.99509">
        <ele>2042.9</ele>
        <time>2021-08-01T10:39:40.000Z</time>
      </trkpt>
      <trkpt lat="42.57876" lon="1.9952">
        <ele>2043</ele>
        <time>2021-08-01T10:39:51.000Z</time>
      </trkpt>
      <trkpt lat="42.57876" lon="1.99533">
        <ele>2043.2</ele>
        <time>2021-08-01T10:40:01.000Z</time>
      </trkpt>
      <trkpt lat="42.5788" lon="1.99545">
        <ele>2042.8</ele>
        <time>2021-08-01T10:40:11.000Z</time>
      </trkpt>
      <trkpt lat="42.57885" lon="1.99555">
        <ele>2043.1</ele>
        <time>2021-08-01T10:40:21.000Z</time>
      </trkpt>
      <trkpt lat="42.57889" lon="1.99568">
        <ele>2043.1</ele>
        <time>2021-08-01T10:40:32.000Z</time>
      </trkpt>
      <trkpt lat="42.57893" lon="1.99578">
        <ele>2043.8</ele>
        <time>2021-08-01T10:40:42.000Z</time>
      </trkpt>
      <trkpt lat="42.57899" lon="1.99588">
        <ele>2044.6</ele>
        <time>2021-08-01T10:40:52.000Z</time>
      </trkpt>
      <trkpt lat="42.57904" lon="1.99599">
        <ele>2045.5</ele>
        <time>2021-08-01T10:41:03.000Z</time>
      </trkpt>
      <trkpt lat="42.57911" lon="1.99609">
        <ele>2046.4</ele>
        <time>2021-08-01T10:41:14.000Z</time>
      </trkpt>
      <trkpt lat="42.57917" lon="1.99619">
        <ele>2046.6</ele>
        <time>2021-08-01T10:41:24.000Z</time>
      </trkpt>
      <trkpt lat="42.57922" lon="1.9963">
        <ele>2047.6</ele>
        <time>2021-08-01T10:41:35.000Z</time>
      </trkpt>
      <trkpt lat="42.57924" lon="1.99642">
        <ele>2046.8</ele>
        <time>2021-08-01T10:41:46.000Z</time>
      </trkpt>
      <trkpt lat="42.57926" lon="1.99655">
        <ele>2045.6</ele>
        <time>2021-08-01T10:41:57.000Z</time>
      </trkpt>
      <trkpt lat="42.57931" lon="1.99667">
        <ele>2045.2</ele>
        <time>2021-08-01T10:42:07.000Z</time>
      </trkpt>
      <trkpt lat="42.57933" lon="1.99679">
        <ele>2043.8</ele>
        <time>2021-08-01T10:42:17.000Z</time>
      </trkpt>
      <trkpt lat="42.57937" lon="1.99691">
        <ele>2043.1</ele>
        <time>2021-08-01T10:42:26.000Z</time>
      </trkpt>
      <trkpt lat="42.57939" lon="1.99703">
        <ele>2042.6</ele>
        <time>2021-08-01T10:42:37.000Z</time>
      </trkpt>
      <trkpt lat="42.5794" lon="1.99715">
        <ele>2042.2</ele>
        <time>2021-08-01T10:42:47.000Z</time>
      </trkpt>
      <trkpt lat="42.57938" lon="1.99727">
        <ele>2042.2</ele>
        <time>2021-08-01T10:42:57.000Z</time>
      </trkpt>
      <trkpt lat="42.57931" lon="1.99736">
        <ele>2042.1</ele>
        <time>2021-08-01T10:43:06.000Z</time>
      </trkpt>
      <trkpt lat="42.57929" lon="1.99748">
        <ele>2042.8</ele>
        <time>2021-08-01T10:43:16.000Z</time>
      </trkpt>
      <trkpt lat="42.57929" lon="1.99761">
        <ele>2042.1</ele>
        <time>2021-08-01T10:43:29.000Z</time>
      </trkpt>
      <trkpt lat="42.57932" lon="1.99773">
        <ele>2041.9</ele>
        <time>2021-08-01T10:43:39.000Z</time>
      </trkpt>
      <trkpt lat="42.57933" lon="1.99787">
        <ele>2041.3</ele>
        <time>2021-08-01T10:43:49.000Z</time>
      </trkpt>
      <trkpt lat="42.57936" lon="1.99799">
        <ele>2040.7</ele>
        <time>2021-08-01T10:43:58.000Z</time>
      </trkpt>
      <trkpt lat="42.5794" lon="1.99811">
        <ele>2039.8</ele>
        <time>2021-08-01T10:44:08.000Z</time>
      </trkpt>
      <trkpt lat="42.57945" lon="1.99821">
        <ele>2039.1</ele>
        <time>2021-08-01T10:44:17.000Z</time>
      </trkpt>
      <trkpt lat="42.57952" lon="1.9983">
        <ele>2038.1</ele>
        <time>2021-08-01T10:44:26.000Z</time>
      </trkpt>
      <trkpt lat="42.57957" lon="1.99841">
        <ele>2037.3</ele>
        <time>2021-08-01T10:44:35.000Z</time>
      </trkpt>
      <trkpt lat="42.57963" lon="1.99851">
        <ele>2036.4</ele>
        <time>2021-08-01T10:44:44.000Z</time>
      </trkpt>
      <trkpt lat="42.57969" lon="1.9986">
        <ele>2036.1</ele>
        <time>2021-08-01T10:44:53.000Z</time>
      </trkpt>
      <trkpt lat="42.57974" lon="1.9987">
        <ele>2035.5</ele>
        <time>2021-08-01T10:45:02.000Z</time>
      </trkpt>
      <trkpt lat="42.57982" lon="1.99879">
        <ele>2034.7</ele>
        <time>2021-08-01T10:45:12.000Z</time>
      </trkpt>
      <trkpt lat="42.57989" lon="1.99889">
        <ele>2034.5</ele>
        <time>2021-08-01T10:45:22.000Z</time>
      </trkpt>
      <trkpt lat="42.57995" lon="1.99899">
        <ele>2034.3</ele>
        <time>2021-08-01T10:45:32.000Z</time>
      </trkpt>
      <trkpt lat="42.57999" lon="1.9991">
        <ele>2034.5</ele>
        <time>2021-08-01T10:45:42.000Z</time>
      </trkpt>
      <trkpt lat="42.58001" lon="1.99922">
        <ele>2034.4</ele>
        <time>2021-08-01T10:45:52.000Z</time>
      </trkpt>
      <trkpt lat="42.58002" lon="1.99929">
        <ele>2034.6</ele>
        <time>2021-08-01T10:45:59.000Z</time>
      </trkpt>
      <trkpt lat="42.58002" lon="1.9993">
        <ele>2034.4</ele>
        <time>2021-08-01T10:46:30.000Z</time>
      </trkpt>
      <trkpt lat="42.58005" lon="1.99942">
        <ele>2034.8</ele>
        <time>2021-08-01T10:46:40.000Z</time>
      </trkpt>
      <trkpt lat="42.58009" lon="1.99953">
        <ele>2035.7</ele>
        <time>2021-08-01T10:46:50.000Z</time>
      </trkpt>
      <trkpt lat="42.58017" lon="1.9996">
        <ele>2036.5</ele>
        <time>2021-08-01T10:47:02.000Z</time>
      </trkpt>
      <trkpt lat="42.58021" lon="1.99972">
        <ele>2036.1</ele>
        <time>2021-08-01T10:47:13.000Z</time>
      </trkpt>
      <trkpt lat="42.58027" lon="1.99982">
        <ele>2037.3</ele>
        <time>2021-08-01T10:47:24.000Z</time>
      </trkpt>
      <trkpt lat="42.58031" lon="1.99992">
        <ele>2038.4</ele>
        <time>2021-08-01T10:47:37.000Z</time>
      </trkpt>
      <trkpt lat="42.5804" lon="1.99997">
        <ele>2041.7</ele>
        <time>2021-08-01T10:47:58.000Z</time>
      </trkpt>
      <trkpt lat="42.58047" lon="2.00005">
        <ele>2044.1</ele>
        <time>2021-08-01T10:48:18.000Z</time>
      </trkpt>
      <trkpt lat="42.58056" lon="2.00011">
        <ele>2045.2</ele>
        <time>2021-08-01T10:48:32.000Z</time>
      </trkpt>
      <trkpt lat="42.58065" lon="2.00014">
        <ele>2045.6</ele>
        <time>2021-08-01T10:48:44.000Z</time>
      </trkpt>
      <trkpt lat="42.58074" lon="2.00018">
        <ele>2045.2</ele>
        <time>2021-08-01T10:48:57.000Z</time>
      </trkpt>
      <trkpt lat="42.58074" lon="2.00018">
        <ele>2044.8</ele>
        <time>2021-08-01T10:48:59.000Z</time>
      </trkpt>
      <trkpt lat="42.58074" lon="2.00018">
        <ele>2044.6</ele>
        <time>2021-08-01T10:49:05.000Z</time>
      </trkpt>
      <trkpt lat="42.58083" lon="2.00019">
        <ele>2044.5</ele>
        <time>2021-08-01T10:49:14.000Z</time>
      </trkpt>
      <trkpt lat="42.58092" lon="2.00018">
        <ele>2044.6</ele>
        <time>2021-08-01T10:49:24.000Z</time>
      </trkpt>
      <trkpt lat="42.58092" lon="2.00018">
        <ele>2044.4</ele>
        <time>2021-08-01T10:49:26.000Z</time>
      </trkpt>
      <trkpt lat="42.58092" lon="2.00018">
        <ele>2044.5</ele>
        <time>2021-08-01T10:49:29.000Z</time>
      </trkpt>
      <trkpt lat="42.58095" lon="2.00006">
        <ele>2045.4</ele>
        <time>2021-08-01T10:49:39.000Z</time>
      </trkpt>
      <trkpt lat="42.58097" lon="1.99993">
        <ele>2046.5</ele>
        <time>2021-08-01T10:49:50.000Z</time>
      </trkpt>
      <trkpt lat="42.58097" lon="1.9998">
        <ele>2048</ele>
        <time>2021-08-01T10:50:03.000Z</time>
      </trkpt>
      <trkpt lat="42.58101" lon="1.99969">
        <ele>2049.9</ele>
        <time>2021-08-01T10:50:15.000Z</time>
      </trkpt>
      <trkpt lat="42.58106" lon="1.99958">
        <ele>2051.7</ele>
        <time>2021-08-01T10:50:26.000Z</time>
      </trkpt>
      <trkpt lat="42.58113" lon="1.9995">
        <ele>2051.1</ele>
        <time>2021-08-01T10:50:38.000Z</time>
      </trkpt>
      <trkpt lat="42.58117" lon="1.99948">
        <ele>2050.2</ele>
        <time>2021-08-01T10:50:46.000Z</time>
      </trkpt>
      <trkpt lat="42.58118" lon="1.99948">
        <ele>2050</ele>
        <time>2021-08-01T10:50:47.000Z</time>
      </trkpt>
      <trkpt lat="42.58124" lon="1.99938">
        <ele>2048.6</ele>
        <time>2021-08-01T10:50:59.000Z</time>
      </trkpt>
      <trkpt lat="42.58129" lon="1.99928">
        <ele>2047.4</ele>
        <time>2021-08-01T10:51:10.000Z</time>
      </trkpt>
      <trkpt lat="42.58134" lon="1.99916">
        <ele>2047.4</ele>
        <time>2021-08-01T10:51:20.000Z</time>
      </trkpt>
      <trkpt lat="42.5814" lon="1.99906">
        <ele>2048.1</ele>
        <time>2021-08-01T10:51:31.000Z</time>
      </trkpt>
      <trkpt lat="42.58147" lon="1.99898">
        <ele>2048.2</ele>
        <time>2021-08-01T10:51:41.000Z</time>
      </trkpt>
      <trkpt lat="42.58157" lon="1.99895">
        <ele>2048.6</ele>
        <time>2021-08-01T10:51:51.000Z</time>
      </trkpt>
      <trkpt lat="42.58166" lon="1.99892">
        <ele>2048</ele>
        <time>2021-08-01T10:52:01.000Z</time>
      </trkpt>
      <trkpt lat="42.58175" lon="1.99887">
        <ele>2047.9</ele>
        <time>2021-08-01T10:52:11.000Z</time>
      </trkpt>
      <trkpt lat="42.58184" lon="1.99886">
        <ele>2047.7</ele>
        <time>2021-08-01T10:52:21.000Z</time>
      </trkpt>
      <trkpt lat="42.58193" lon="1.99884">
        <ele>2048</ele>
        <time>2021-08-01T10:52:32.000Z</time>
      </trkpt>
      <trkpt lat="42.58192" lon="1.99896">
        <ele>2047</ele>
        <time>2021-08-01T10:52:47.000Z</time>
      </trkpt>
      <trkpt lat="42.58193" lon="1.99908">
        <ele>2046.4</ele>
        <time>2021-08-01T10:53:03.000Z</time>
      </trkpt>
      <trkpt lat="42.58193" lon="1.99908">
        <ele>2046.5</ele>
        <time>2021-08-01T10:53:21.000Z</time>
      </trkpt>
      <trkpt lat="42.58193" lon="1.99908">
        <ele>2046.5</ele>
        <time>2021-08-01T10:53:22.000Z</time>
      </trkpt>
      <trkpt lat="42.58193" lon="1.99908">
        <ele>2046.5</ele>
        <time>2021-08-01T10:53:23.000Z</time>
      </trkpt>
      <trkpt lat="42.58193" lon="1.99908">
        <ele>2046.6</ele>
        <time>2021-08-01T10:53:24.000Z</time>
      </trkpt>
      <trkpt lat="42.58193" lon="1.99908">
        <ele>2046.5</ele>
        <time>2021-08-01T10:53:25.000Z</time>
      </trkpt>
      <trkpt lat="42.58194" lon="1.99921">
        <ele>2045.9</ele>
        <time>2021-08-01T10:53:42.000Z</time>
      </trkpt>
      <trkpt lat="42.58191" lon="1.99933">
        <ele>2044.9</ele>
        <time>2021-08-01T10:53:53.000Z</time>
      </trkpt>
      <trkpt lat="42.58182" lon="1.99933">
        <ele>2043.2</ele>
        <time>2021-08-01T10:54:04.000Z</time>
      </trkpt>
      <trkpt lat="42.58172" lon="1.99936">
        <ele>2041.2</ele>
        <time>2021-08-01T10:54:19.000Z</time>
      </trkpt>
      <trkpt lat="42.58165" lon="1.99943">
        <ele>2040.8</ele>
        <time>2021-08-01T10:54:33.000Z</time>
      </trkpt>
      <trkpt lat="42.58164" lon="1.99944">
        <ele>2040.9</ele>
        <time>2021-08-01T10:54:37.000Z</time>
      </trkpt>
      <trkpt lat="42.58164" lon="1.99944">
        <ele>2041</ele>
        <time>2021-08-01T10:54:39.000Z</time>
      </trkpt>
      <trkpt lat="42.58163" lon="1.99945">
        <ele>2040.3</ele>
        <time>2021-08-01T10:54:43.000Z</time>
      </trkpt>
      <trkpt lat="42.58163" lon="1.99945">
        <ele>2041.7</ele>
        <time>2021-08-01T10:54:48.000Z</time>
      </trkpt>
      <trkpt lat="42.58163" lon="1.99945">
        <ele>2040.8</ele>
        <time>2021-08-01T10:54:49.000Z</time>
      </trkpt>
      <trkpt lat="42.58163" lon="1.99945">
        <ele>2037.5</ele>
        <time>2021-08-01T10:56:03.000Z</time>
      </trkpt>
      <trkpt lat="42.58163" lon="1.99945">
        <ele>2036.4</ele>
        <time>2021-08-01T10:56:04.000Z</time>
      </trkpt>
      <trkpt lat="42.58163" lon="1.99945">
        <ele>2036.6</ele>
        <time>2021-08-01T10:56:05.000Z</time>
      </trkpt>
      <trkpt lat="42.58163" lon="1.99944">
        <ele>2038.7</ele>
        <time>2021-08-01T10:56:06.000Z</time>
      </trkpt>
      <trkpt lat="42.58163" lon="1.99944">
        <ele>2038.9</ele>
        <time>2021-08-01T10:56:07.000Z</time>
      </trkpt>
      <trkpt lat="42.58161" lon="1.99945">
        <ele>2042.5</ele>
        <time>2021-08-01T10:56:15.000Z</time>
      </trkpt>
      <trkpt lat="42.58161" lon="1.99944">
        <ele>2040.1</ele>
        <time>2021-08-01T10:56:33.000Z</time>
      </trkpt>
      <trkpt lat="42.58161" lon="1.99944">
        <ele>2040.1</ele>
        <time>2021-08-01T10:56:34.000Z</time>
      </trkpt>
      <trkpt lat="42.58161" lon="1.99944">
        <ele>2040.3</ele>
        <time>2021-08-01T10:56:37.000Z</time>
      </trkpt>
      <trkpt lat="42.58161" lon="1.99943">
        <ele>2040.1</ele>
        <time>2021-08-01T10:56:40.000Z</time>
      </trkpt>
      <trkpt lat="42.5816" lon="1.99943">
        <ele>2039.9</ele>
        <time>2021-08-01T10:56:42.000Z</time>
      </trkpt>
      <trkpt lat="42.5816" lon="1.99943">
        <ele>2039.8</ele>
        <time>2021-08-01T10:56:43.000Z</time>
      </trkpt>
      <trkpt lat="42.58161" lon="1.99943">
        <ele>2040.3</ele>
        <time>2021-08-01T10:59:56.000Z</time>
      </trkpt>
      <trkpt lat="42.58161" lon="1.99943">
        <ele>2040.4</ele>
        <time>2021-08-01T10:59:57.000Z</time>
      </trkpt>
      <trkpt lat="42.58161" lon="1.99943">
        <ele>2040.5</ele>
        <time>2021-08-01T11:01:22.000Z</time>
      </trkpt>
      <trkpt lat="42.58161" lon="1.99943">
        <ele>2040.4</ele>
        <time>2021-08-01T11:01:23.000Z</time>
      </trkpt>
      <trkpt lat="42.58161" lon="1.99943">
        <ele>2040.2</ele>
        <time>2021-08-01T11:02:00.000Z</time>
      </trkpt>
      <trkpt lat="42.58161" lon="1.99943">
        <ele>2040.2</ele>
        <time>2021-08-01T11:02:01.000Z</time>
      </trkpt>
      <trkpt lat="42.58161" lon="1.99943">
        <ele>2040.4</ele>
        <time>2021-08-01T11:03:29.000Z</time>
      </trkpt>
      <trkpt lat="42.58161" lon="1.99943">
        <ele>2040.5</ele>
        <time>2021-08-01T11:03:30.000Z</time>
      </trkpt>
      <trkpt lat="42.58161" lon="1.99944">
        <ele>2040.9</ele>
        <time>2021-08-01T11:04:55.000Z</time>
      </trkpt>
      <trkpt lat="42.58161" lon="1.99944">
        <ele>2041.1</ele>
        <time>2021-08-01T11:04:56.000Z</time>
      </trkpt>
      <trkpt lat="42.58161" lon="1.99944">
        <ele>2040.5</ele>
        <time>2021-08-01T11:06:32.000Z</time>
      </trkpt>
      <trkpt lat="42.58161" lon="1.99944">
        <ele>2040.5</ele>
        <time>2021-08-01T11:06:33.000Z</time>
      </trkpt>
      <trkpt lat="42.58162" lon="1.99944">
        <ele>2040.9</ele>
        <time>2021-08-01T11:08:47.000Z</time>
      </trkpt>
      <trkpt lat="42.58162" lon="1.99944">
        <ele>2040.9</ele>
        <time>2021-08-01T11:08:48.000Z</time>
      </trkpt>
      <trkpt lat="42.58162" lon="1.99944">
        <ele>2040.8</ele>
        <time>2021-08-01T11:11:13.000Z</time>
      </trkpt>
      <trkpt lat="42.58162" lon="1.99944">
        <ele>2040.8</ele>
        <time>2021-08-01T11:11:14.000Z</time>
      </trkpt>
      <trkpt lat="42.58162" lon="1.99944">
        <ele>2040.7</ele>
        <time>2021-08-01T11:13:26.000Z</time>
      </trkpt>
      <trkpt lat="42.58162" lon="1.99944">
        <ele>2040.7</ele>
        <time>2021-08-01T11:13:27.000Z</time>
      </trkpt>
      <trkpt lat="42.58162" lon="1.99944">
        <ele>2041</ele>
        <time>2021-08-01T11:14:38.000Z</time>
      </trkpt>
      <trkpt lat="42.58162" lon="1.99944">
        <ele>2041</ele>
        <time>2021-08-01T11:14:39.000Z</time>
      </trkpt>
      <trkpt lat="42.58162" lon="1.99944">
        <ele>2040.9</ele>
        <time>2021-08-01T11:15:53.000Z</time>
      </trkpt>
      <trkpt lat="42.58162" lon="1.99944">
        <ele>2040.9</ele>
        <time>2021-08-01T11:15:54.000Z</time>
      </trkpt>
      <trkpt lat="42.58162" lon="1.99944">
        <ele>2041.1</ele>
        <time>2021-08-01T11:17:46.000Z</time>
      </trkpt>
      <trkpt lat="42.58162" lon="1.99944">
        <ele>2041.1</ele>
        <time>2021-08-01T11:17:47.000Z</time>
      </trkpt>
      <trkpt lat="42.58163" lon="1.99944">
        <ele>2041.3</ele>
        <time>2021-08-01T11:20:11.000Z</time>
      </trkpt>
      <trkpt lat="42.58163" lon="1.99944">
        <ele>2041.4</ele>
        <time>2021-08-01T11:20:12.000Z</time>
      </trkpt>
      <trkpt lat="42.58163" lon="1.99944">
        <ele>2040.6</ele>
        <time>2021-08-01T11:22:32.000Z</time>
      </trkpt>
      <trkpt lat="42.58163" lon="1.99944">
        <ele>2040.6</ele>
        <time>2021-08-01T11:22:33.000Z</time>
      </trkpt>
      <trkpt lat="42.58163" lon="1.99944">
        <ele>2039.5</ele>
        <time>2021-08-01T11:30:53.000Z</time>
      </trkpt>
      <trkpt lat="42.58163" lon="1.99944">
        <ele>2038.8</ele>
        <time>2021-08-01T11:30:54.000Z</time>
      </trkpt>
      <trkpt lat="42.58163" lon="1.99944">
        <ele>2039.1</ele>
        <time>2021-08-01T11:30:55.000Z</time>
      </trkpt>
      <trkpt lat="42.58163" lon="1.99944">
        <ele>2041</ele>
        <time>2021-08-01T11:30:57.000Z</time>
      </trkpt>
      <trkpt lat="42.58163" lon="1.99943">
        <ele>2040.6</ele>
        <time>2021-08-01T11:30:59.000Z</time>
      </trkpt>
      <trkpt lat="42.58162" lon="1.99943">
        <ele>2041.7</ele>
        <time>2021-08-01T11:31:02.000Z</time>
      </trkpt>
      <trkpt lat="42.58163" lon="1.99943">
        <ele>2040.8</ele>
        <time>2021-08-01T11:31:09.000Z</time>
      </trkpt>
      <trkpt lat="42.58163" lon="1.99943">
        <ele>2041.7</ele>
        <time>2021-08-01T11:31:14.000Z</time>
      </trkpt>
      <trkpt lat="42.58164" lon="1.99943">
        <ele>2042</ele>
        <time>2021-08-01T11:31:15.000Z</time>
      </trkpt>
      <trkpt lat="42.58164" lon="1.99943">
        <ele>2042.5</ele>
        <time>2021-08-01T11:31:18.000Z</time>
      </trkpt>
      <trkpt lat="42.58164" lon="1.99943">
        <ele>2042.4</ele>
        <time>2021-08-01T11:31:42.000Z</time>
      </trkpt>
      <trkpt lat="42.58164" lon="1.99943">
        <ele>2042.1</ele>
        <time>2021-08-01T11:31:43.000Z</time>
      </trkpt>
      <trkpt lat="42.58164" lon="1.99942">
        <ele>2041.9</ele>
        <time>2021-08-01T11:32:53.000Z</time>
      </trkpt>
      <trkpt lat="42.58165" lon="1.99941">
        <ele>2041.7</ele>
        <time>2021-08-01T11:32:56.000Z</time>
      </trkpt>
      <trkpt lat="42.58165" lon="1.99941">
        <ele>2042.1</ele>
        <time>2021-08-01T11:33:18.000Z</time>
      </trkpt>
      <trkpt lat="42.58165" lon="1.9994">
        <ele>2042.2</ele>
        <time>2021-08-01T11:33:21.000Z</time>
      </trkpt>
      <trkpt lat="42.58166" lon="1.9994">
        <ele>2042.3</ele>
        <time>2021-08-01T11:33:22.000Z</time>
      </trkpt>
      <trkpt lat="42.58166" lon="1.9994">
        <ele>2042.3</ele>
        <time>2021-08-01T11:33:23.000Z</time>
      </trkpt>
      <trkpt lat="42.58166" lon="1.9994">
        <ele>2042.3</ele>
        <time>2021-08-01T11:33:24.000Z</time>
      </trkpt>
      <trkpt lat="42.58175" lon="1.99935">
        <ele>2043.1</ele>
        <time>2021-08-01T11:33:43.000Z</time>
      </trkpt>
      <trkpt lat="42.58184" lon="1.99935">
        <ele>2045.2</ele>
        <time>2021-08-01T11:33:55.000Z</time>
      </trkpt>
      <trkpt lat="42.58192" lon="1.99929">
        <ele>2047.1</ele>
        <time>2021-08-01T11:34:09.000Z</time>
      </trkpt>
      <trkpt lat="42.582" lon="1.99923">
        <ele>2048.6</ele>
        <time>2021-08-01T11:34:23.000Z</time>
      </trkpt>
      <trkpt lat="42.58209" lon="1.99927">
        <ele>2049</ele>
        <time>2021-08-01T11:34:33.000Z</time>
      </trkpt>
      <trkpt lat="42.58218" lon="1.99928">
        <ele>2050.4</ele>
        <time>2021-08-01T11:34:46.000Z</time>
      </trkpt>
      <trkpt lat="42.58222" lon="1.99927">
        <ele>2051.1</ele>
        <time>2021-08-01T11:34:54.000Z</time>
      </trkpt>
      <trkpt lat="42.58223" lon="1.99927">
        <ele>2051.2</ele>
        <time>2021-08-01T11:34:58.000Z</time>
      </trkpt>
      <trkpt lat="42.58231" lon="1.99923">
        <ele>2052</ele>
        <time>2021-08-01T11:35:10.000Z</time>
      </trkpt>
      <trkpt lat="42.58237" lon="1.99922">
        <ele>2052.8</ele>
        <time>2021-08-01T11:35:19.000Z</time>
      </trkpt>
      <trkpt lat="42.58237" lon="1.99922">
        <ele>2052.7</ele>
        <time>2021-08-01T11:35:20.000Z</time>
      </trkpt>
      <trkpt lat="42.58246" lon="1.9992">
        <ele>2053.8</ele>
        <time>2021-08-01T11:35:31.000Z</time>
      </trkpt>
      <trkpt lat="42.58255" lon="1.99922">
        <ele>2055.3</ele>
        <time>2021-08-01T11:35:41.000Z</time>
      </trkpt>
      <trkpt lat="42.58265" lon="1.99922">
        <ele>2055.8</ele>
        <time>2021-08-01T11:35:51.000Z</time>
      </trkpt>
      <trkpt lat="42.58274" lon="1.99922">
        <ele>2057.3</ele>
        <time>2021-08-01T11:36:01.000Z</time>
      </trkpt>
      <trkpt lat="42.58284" lon="1.99923">
        <ele>2058</ele>
        <time>2021-08-01T11:36:12.000Z</time>
      </trkpt>
      <trkpt lat="42.58294" lon="1.99923">
        <ele>2059.2</ele>
        <time>2021-08-01T11:36:22.000Z</time>
      </trkpt>
      <trkpt lat="42.58303" lon="1.99924">
        <ele>2060.4</ele>
        <time>2021-08-01T11:36:32.000Z</time>
      </trkpt>
      <trkpt lat="42.58312" lon="1.99925">
        <ele>2061.8</ele>
        <time>2021-08-01T11:36:43.000Z</time>
      </trkpt>
      <trkpt lat="42.58322" lon="1.99927">
        <ele>2063.4</ele>
        <time>2021-08-01T11:36:54.000Z</time>
      </trkpt>
      <trkpt lat="42.58332" lon="1.99927">
        <ele>2065.9</ele>
        <time>2021-08-01T11:37:05.000Z</time>
      </trkpt>
      <trkpt lat="42.58341" lon="1.99928">
        <ele>2066.6</ele>
        <time>2021-08-01T11:37:16.000Z</time>
      </trkpt>
      <trkpt lat="42.5835" lon="1.99927">
        <ele>2068.5</ele>
        <time>2021-08-01T11:37:27.000Z</time>
      </trkpt>
      <trkpt lat="42.58358" lon="1.99932">
        <ele>2069.6</ele>
        <time>2021-08-01T11:37:37.000Z</time>
      </trkpt>
      <trkpt lat="42.58367" lon="1.99936">
        <ele>2069.3</ele>
        <time>2021-08-01T11:37:47.000Z</time>
      </trkpt>
      <trkpt lat="42.58375" lon="1.99941">
        <ele>2069.2</ele>
        <time>2021-08-01T11:37:56.000Z</time>
      </trkpt>
      <trkpt lat="42.58382" lon="1.9995">
        <ele>2068.7</ele>
        <time>2021-08-01T11:38:05.000Z</time>
      </trkpt>
      <trkpt lat="42.58388" lon="1.9996">
        <ele>2068.4</ele>
        <time>2021-08-01T11:38:14.000Z</time>
      </trkpt>
      <trkpt lat="42.58394" lon="1.9997">
        <ele>2068.3</ele>
        <time>2021-08-01T11:38:24.000Z</time>
      </trkpt>
      <trkpt lat="42.58401" lon="1.99979">
        <ele>2069.4</ele>
        <time>2021-08-01T11:38:34.000Z</time>
      </trkpt>
      <trkpt lat="42.58407" lon="1.99988">
        <ele>2069.9</ele>
        <time>2021-08-01T11:38:43.000Z</time>
      </trkpt>
      <trkpt lat="42.58412" lon="1.99999">
        <ele>2070.4</ele>
        <time>2021-08-01T11:38:52.000Z</time>
      </trkpt>
      <trkpt lat="42.58415" lon="2.0001">
        <ele>2070.6</ele>
        <time>2021-08-01T11:39:01.000Z</time>
      </trkpt>
      <trkpt lat="42.58419" lon="2.00022">
        <ele>2070.7</ele>
        <time>2021-08-01T11:39:11.000Z</time>
      </trkpt>
      <trkpt lat="42.5842" lon="2.00034">
        <ele>2072.1</ele>
        <time>2021-08-01T11:39:21.000Z</time>
      </trkpt>
      <trkpt lat="42.58422" lon="2.00047">
        <ele>2073.4</ele>
        <time>2021-08-01T11:39:31.000Z</time>
      </trkpt>
      <trkpt lat="42.58426" lon="2.00059">
        <ele>2073.6</ele>
        <time>2021-08-01T11:39:41.000Z</time>
      </trkpt>
      <trkpt lat="42.58429" lon="2.0007">
        <ele>2073.6</ele>
        <time>2021-08-01T11:39:50.000Z</time>
      </trkpt>
      <trkpt lat="42.58435" lon="2.0008">
        <ele>2073.4</ele>
        <time>2021-08-01T11:39:59.000Z</time>
      </trkpt>
      <trkpt lat="42.58441" lon="2.00089">
        <ele>2073.4</ele>
        <time>2021-08-01T11:40:08.000Z</time>
      </trkpt>
      <trkpt lat="42.58447" lon="2.00098">
        <ele>2073.7</ele>
        <time>2021-08-01T11:40:17.000Z</time>
      </trkpt>
      <trkpt lat="42.58454" lon="2.00107">
        <ele>2074</ele>
        <time>2021-08-01T11:40:26.000Z</time>
      </trkpt>
      <trkpt lat="42.5846" lon="2.00117">
        <ele>2074.9</ele>
        <time>2021-08-01T11:40:35.000Z</time>
      </trkpt>
      <trkpt lat="42.58467" lon="2.00126">
        <ele>2075</ele>
        <time>2021-08-01T11:40:44.000Z</time>
      </trkpt>
      <trkpt lat="42.58473" lon="2.00135">
        <ele>2075.8</ele>
        <time>2021-08-01T11:40:53.000Z</time>
      </trkpt>
      <trkpt lat="42.5848" lon="2.00143">
        <ele>2077</ele>
        <time>2021-08-01T11:41:02.000Z</time>
      </trkpt>
      <trkpt lat="42.58486" lon="2.00152">
        <ele>2077.7</ele>
        <time>2021-08-01T11:41:11.000Z</time>
      </trkpt>
      <trkpt lat="42.58493" lon="2.00161">
        <ele>2078.4</ele>
        <time>2021-08-01T11:41:20.000Z</time>
      </trkpt>
      <trkpt lat="42.585" lon="2.0017">
        <ele>2078.7</ele>
        <time>2021-08-01T11:41:29.000Z</time>
      </trkpt>
      <trkpt lat="42.58507" lon="2.00178">
        <ele>2079.2</ele>
        <time>2021-08-01T11:41:38.000Z</time>
      </trkpt>
      <trkpt lat="42.58514" lon="2.00188">
        <ele>2078.8</ele>
        <time>2021-08-01T11:41:48.000Z</time>
      </trkpt>
      <trkpt lat="42.58517" lon="2.00199">
        <ele>2079</ele>
        <time>2021-08-01T11:41:57.000Z</time>
      </trkpt>
      <trkpt lat="42.58518" lon="2.00212">
        <ele>2079.8</ele>
        <time>2021-08-01T11:42:06.000Z</time>
      </trkpt>
      <trkpt lat="42.5852" lon="2.00224">
        <ele>2079.3</ele>
        <time>2021-08-01T11:42:15.000Z</time>
      </trkpt>
      <trkpt lat="42.58521" lon="2.00236">
        <ele>2079.2</ele>
        <time>2021-08-01T11:42:24.000Z</time>
      </trkpt>
      <trkpt lat="42.58521" lon="2.00249">
        <ele>2079.6</ele>
        <time>2021-08-01T11:42:33.000Z</time>
      </trkpt>
      <trkpt lat="42.58521" lon="2.00262">
        <ele>2080.5</ele>
        <time>2021-08-01T11:42:42.000Z</time>
      </trkpt>
      <trkpt lat="42.58521" lon="2.00275">
        <ele>2080.4</ele>
        <time>2021-08-01T11:42:51.000Z</time>
      </trkpt>
      <trkpt lat="42.58519" lon="2.00288">
        <ele>2080.7</ele>
        <time>2021-08-01T11:43:00.000Z</time>
      </trkpt>
      <trkpt lat="42.58519" lon="2.00302">
        <ele>2081.4</ele>
        <time>2021-08-01T11:43:09.000Z</time>
      </trkpt>
      <trkpt lat="42.58519" lon="2.00315">
        <ele>2081.9</ele>
        <time>2021-08-01T11:43:18.000Z</time>
      </trkpt>
      <trkpt lat="42.5852" lon="2.00328">
        <ele>2081.4</ele>
        <time>2021-08-01T11:43:27.000Z</time>
      </trkpt>
      <trkpt lat="42.58523" lon="2.00339">
        <ele>2080</ele>
        <time>2021-08-01T11:43:37.000Z</time>
      </trkpt>
      <trkpt lat="42.58523" lon="2.00352">
        <ele>2078.9</ele>
        <time>2021-08-01T11:43:46.000Z</time>
      </trkpt>
      <trkpt lat="42.58524" lon="2.00364">
        <ele>2077.6</ele>
        <time>2021-08-01T11:43:55.000Z</time>
      </trkpt>
      <trkpt lat="42.58524" lon="2.00377">
        <ele>2077.4</ele>
        <time>2021-08-01T11:44:04.000Z</time>
      </trkpt>
      <trkpt lat="42.58524" lon="2.0039">
        <ele>2077.5</ele>
        <time>2021-08-01T11:44:13.000Z</time>
      </trkpt>
      <trkpt lat="42.58524" lon="2.00404">
        <ele>2077.2</ele>
        <time>2021-08-01T11:44:22.000Z</time>
      </trkpt>
      <trkpt lat="42.58523" lon="2.00416">
        <ele>2076.6</ele>
        <time>2021-08-01T11:44:31.000Z</time>
      </trkpt>
      <trkpt lat="42.58524" lon="2.00429">
        <ele>2075.6</ele>
        <time>2021-08-01T11:44:40.000Z</time>
      </trkpt>
      <trkpt lat="42.58524" lon="2.00442">
        <ele>2075.3</ele>
        <time>2021-08-01T11:44:49.000Z</time>
      </trkpt>
      <trkpt lat="42.58522" lon="2.00454">
        <ele>2075.6</ele>
        <time>2021-08-01T11:44:58.000Z</time>
      </trkpt>
      <trkpt lat="42.58517" lon="2.00454">
        <ele>2075.6</ele>
        <time>2021-08-01T11:45:07.000Z</time>
      </trkpt>
      <trkpt lat="42.58517" lon="2.00454">
        <ele>2076.2</ele>
        <time>2021-08-01T11:45:33.000Z</time>
      </trkpt>
      <trkpt lat="42.58515" lon="2.00467">
        <ele>2077.7</ele>
        <time>2021-08-01T11:45:46.000Z</time>
      </trkpt>
      <trkpt lat="42.58518" lon="2.00479">
        <ele>2080.6</ele>
        <time>2021-08-01T11:46:04.000Z</time>
      </trkpt>
      <trkpt lat="42.58518" lon="2.00491">
        <ele>2081.5</ele>
        <time>2021-08-01T11:46:20.000Z</time>
      </trkpt>
      <trkpt lat="42.58517" lon="2.00503">
        <ele>2080</ele>
        <time>2021-08-01T11:46:34.000Z</time>
      </trkpt>
      <trkpt lat="42.58516" lon="2.00516">
        <ele>2082.2</ele>
        <time>2021-08-01T11:46:52.000Z</time>
      </trkpt>
      <trkpt lat="42.58516" lon="2.00529">
        <ele>2086.1</ele>
        <time>2021-08-01T11:47:20.000Z</time>
      </trkpt>
      <trkpt lat="42.58521" lon="2.00539">
        <ele>2089.1</ele>
        <time>2021-08-01T11:47:39.000Z</time>
      </trkpt>
      <trkpt lat="42.5852" lon="2.00549">
        <ele>2091.4</ele>
        <time>2021-08-01T11:47:53.000Z</time>
      </trkpt>
      <trkpt lat="42.5852" lon="2.00549">
        <ele>2091.7</ele>
        <time>2021-08-01T11:48:01.000Z</time>
      </trkpt>
      <trkpt lat="42.58515" lon="2.0056">
        <ele>2092.7</ele>
        <time>2021-08-01T11:48:13.000Z</time>
      </trkpt>
      <trkpt lat="42.5851" lon="2.00571">
        <ele>2094.3</ele>
        <time>2021-08-01T11:48:26.000Z</time>
      </trkpt>
      <trkpt lat="42.58506" lon="2.00582">
        <ele>2096.5</ele>
        <time>2021-08-01T11:48:39.000Z</time>
      </trkpt>
      <trkpt lat="42.58505" lon="2.00595">
        <ele>2098.1</ele>
        <time>2021-08-01T11:48:51.000Z</time>
      </trkpt>
      <trkpt lat="42.58503" lon="2.00608">
        <ele>2100.8</ele>
        <time>2021-08-01T11:49:07.000Z</time>
      </trkpt>
      <trkpt lat="42.58502" lon="2.0062">
        <ele>2102.6</ele>
        <time>2021-08-01T11:49:23.000Z</time>
      </trkpt>
      <trkpt lat="42.58497" lon="2.00631">
        <ele>2103.9</ele>
        <time>2021-08-01T11:49:39.000Z</time>
      </trkpt>
      <trkpt lat="42.58493" lon="2.00634">
        <ele>2103.6</ele>
        <time>2021-08-01T11:49:45.000Z</time>
      </trkpt>
      <trkpt lat="42.58493" lon="2.00634">
        <ele>2103.8</ele>
        <time>2021-08-01T11:49:52.000Z</time>
      </trkpt>
      <trkpt lat="42.58486" lon="2.00642">
        <ele>2104.2</ele>
        <time>2021-08-01T11:50:02.000Z</time>
      </trkpt>
      <trkpt lat="42.58482" lon="2.00654">
        <ele>2105.5</ele>
        <time>2021-08-01T11:50:15.000Z</time>
      </trkpt>
      <trkpt lat="42.5849" lon="2.0066">
        <ele>2107.2</ele>
        <time>2021-08-01T11:50:27.000Z</time>
      </trkpt>
      <trkpt lat="42.58499" lon="2.00663">
        <ele>2109.6</ele>
        <time>2021-08-01T11:50:42.000Z</time>
      </trkpt>
      <trkpt lat="42.58509" lon="2.00663">
        <ele>2112</ele>
        <time>2021-08-01T11:50:58.000Z</time>
      </trkpt>
      <trkpt lat="42.58518" lon="2.0066">
        <ele>2114.3</ele>
        <time>2021-08-01T11:51:13.000Z</time>
      </trkpt>
      <trkpt lat="42.58527" lon="2.00657">
        <ele>2115.5</ele>
        <time>2021-08-01T11:51:27.000Z</time>
      </trkpt>
      <trkpt lat="42.58536" lon="2.00654">
        <ele>2117.5</ele>
        <time>2021-08-01T11:51:40.000Z</time>
      </trkpt>
      <trkpt lat="42.58545" lon="2.00655">
        <ele>2119.5</ele>
        <time>2021-08-01T11:51:55.000Z</time>
      </trkpt>
      <trkpt lat="42.58553" lon="2.00661">
        <ele>2121.8</ele>
        <time>2021-08-01T11:52:09.000Z</time>
      </trkpt>
      <trkpt lat="42.58562" lon="2.00665">
        <ele>2123.6</ele>
        <time>2021-08-01T11:52:23.000Z</time>
      </trkpt>
      <trkpt lat="42.58567" lon="2.00663">
        <ele>2124</ele>
        <time>2021-08-01T11:52:33.000Z</time>
      </trkpt>
      <trkpt lat="42.58567" lon="2.00664">
        <ele>2124.5</ele>
        <time>2021-08-01T11:54:11.000Z</time>
      </trkpt>
      <trkpt lat="42.58567" lon="2.00664">
        <ele>2124.5</ele>
        <time>2021-08-01T11:54:12.000Z</time>
      </trkpt>
      <trkpt lat="42.58567" lon="2.00664">
        <ele>2124.2</ele>
        <time>2021-08-01T11:55:07.000Z</time>
      </trkpt>
      <trkpt lat="42.58572" lon="2.00653">
        <ele>2124.4</ele>
        <time>2021-08-01T11:55:20.000Z</time>
      </trkpt>
      <trkpt lat="42.5858" lon="2.00646">
        <ele>2123.8</ele>
        <time>2021-08-01T11:55:34.000Z</time>
      </trkpt>
      <trkpt lat="42.58589" lon="2.00643">
        <ele>2122.2</ele>
        <time>2021-08-01T11:55:45.000Z</time>
      </trkpt>
      <trkpt lat="42.58598" lon="2.00647">
        <ele>2120.7</ele>
        <time>2021-08-01T11:55:56.000Z</time>
      </trkpt>
      <trkpt lat="42.58605" lon="2.00656">
        <ele>2121.1</ele>
        <time>2021-08-01T11:56:05.000Z</time>
      </trkpt>
      <trkpt lat="42.58611" lon="2.00665">
        <ele>2121.5</ele>
        <time>2021-08-01T11:56:14.000Z</time>
      </trkpt>
      <trkpt lat="42.58619" lon="2.00672">
        <ele>2122.6</ele>
        <time>2021-08-01T11:56:25.000Z</time>
      </trkpt>
      <trkpt lat="42.58628" lon="2.00672">
        <ele>2124.3</ele>
        <time>2021-08-01T11:56:37.000Z</time>
      </trkpt>
      <trkpt lat="42.58637" lon="2.00669">
        <ele>2125.1</ele>
        <time>2021-08-01T11:56:48.000Z</time>
      </trkpt>
      <trkpt lat="42.58645" lon="2.00661">
        <ele>2123.3</ele>
        <time>2021-08-01T11:56:59.000Z</time>
      </trkpt>
      <trkpt lat="42.58653" lon="2.00655">
        <ele>2122.2</ele>
        <time>2021-08-01T11:57:09.000Z</time>
      </trkpt>
      <trkpt lat="42.58663" lon="2.00653">
        <ele>2121.6</ele>
        <time>2021-08-01T11:57:19.000Z</time>
      </trkpt>
      <trkpt lat="42.58669" lon="2.00662">
        <ele>2124.1</ele>
        <time>2021-08-01T11:57:32.000Z</time>
      </trkpt>
      <trkpt lat="42.58676" lon="2.00671">
        <ele>2125</ele>
        <time>2021-08-01T11:57:43.000Z</time>
      </trkpt>
      <trkpt lat="42.58683" lon="2.00681">
        <ele>2125.4</ele>
        <time>2021-08-01T11:57:53.000Z</time>
      </trkpt>
      <trkpt lat="42.58687" lon="2.00693">
        <ele>2125.7</ele>
        <time>2021-08-01T11:58:03.000Z</time>
      </trkpt>
      <trkpt lat="42.5869" lon="2.00705">
        <ele>2125.1</ele>
        <time>2021-08-01T11:58:13.000Z</time>
      </trkpt>
      <trkpt lat="42.58695" lon="2.00715">
        <ele>2124.3</ele>
        <time>2021-08-01T11:58:23.000Z</time>
      </trkpt>
      <trkpt lat="42.58696" lon="2.00728">
        <ele>2123.6</ele>
        <time>2021-08-01T11:58:33.000Z</time>
      </trkpt>
      <trkpt lat="42.58702" lon="2.00737">
        <ele>2122.4</ele>
        <time>2021-08-01T11:58:45.000Z</time>
      </trkpt>
      <trkpt lat="42.58709" lon="2.00746">
        <ele>2120.4</ele>
        <time>2021-08-01T11:58:55.000Z</time>
      </trkpt>
      <trkpt lat="42.58715" lon="2.00754">
        <ele>2120</ele>
        <time>2021-08-01T11:59:04.000Z</time>
      </trkpt>
      <trkpt lat="42.58722" lon="2.00763">
        <ele>2119.5</ele>
        <time>2021-08-01T11:59:13.000Z</time>
      </trkpt>
      <trkpt lat="42.58729" lon="2.00772">
        <ele>2119.1</ele>
        <time>2021-08-01T11:59:22.000Z</time>
      </trkpt>
      <trkpt lat="42.58734" lon="2.00783">
        <ele>2119.7</ele>
        <time>2021-08-01T11:59:31.000Z</time>
      </trkpt>
      <trkpt lat="42.58736" lon="2.00795">
        <ele>2121.4</ele>
        <time>2021-08-01T11:59:41.000Z</time>
      </trkpt>
      <trkpt lat="42.58744" lon="2.00803">
        <ele>2121.5</ele>
        <time>2021-08-01T11:59:52.000Z</time>
      </trkpt>
      <trkpt lat="42.58752" lon="2.00807">
        <ele>2121</ele>
        <time>2021-08-01T12:00:01.000Z</time>
      </trkpt>
      <trkpt lat="42.58761" lon="2.00813">
        <ele>2121.2</ele>
        <time>2021-08-01T12:00:11.000Z</time>
      </trkpt>
      <trkpt lat="42.58769" lon="2.0082">
        <ele>2121.7</ele>
        <time>2021-08-01T12:00:21.000Z</time>
      </trkpt>
      <trkpt lat="42.58778" lon="2.00825">
        <ele>2122.4</ele>
        <time>2021-08-01T12:00:32.000Z</time>
      </trkpt>
      <trkpt lat="42.58786" lon="2.0083">
        <ele>2120.9</ele>
        <time>2021-08-01T12:00:44.000Z</time>
      </trkpt>
      <trkpt lat="42.58796" lon="2.00833">
        <ele>2119.3</ele>
        <time>2021-08-01T12:00:54.000Z</time>
      </trkpt>
      <trkpt lat="42.58804" lon="2.00837">
        <ele>2119.3</ele>
        <time>2021-08-01T12:01:03.000Z</time>
      </trkpt>
      <trkpt lat="42.58814" lon="2.00841">
        <ele>2119.4</ele>
        <time>2021-08-01T12:01:13.000Z</time>
      </trkpt>
      <trkpt lat="42.58823" lon="2.00844">
        <ele>2119.5</ele>
        <time>2021-08-01T12:01:22.000Z</time>
      </trkpt>
      <trkpt lat="42.58831" lon="2.00849">
        <ele>2119.9</ele>
        <time>2021-08-01T12:01:31.000Z</time>
      </trkpt>
      <trkpt lat="42.58838" lon="2.00857">
        <ele>2121.5</ele>
        <time>2021-08-01T12:01:42.000Z</time>
      </trkpt>
      <trkpt lat="42.5884" lon="2.00869">
        <ele>2123.2</ele>
        <time>2021-08-01T12:01:55.000Z</time>
      </trkpt>
      <trkpt lat="42.58843" lon="2.00882">
        <ele>2124.3</ele>
        <time>2021-08-01T12:02:06.000Z</time>
      </trkpt>
      <trkpt lat="42.58847" lon="2.00893">
        <ele>2125.6</ele>
        <time>2021-08-01T12:02:17.000Z</time>
      </trkpt>
      <trkpt lat="42.58854" lon="2.00902">
        <ele>2126.7</ele>
        <time>2021-08-01T12:02:28.000Z</time>
      </trkpt>
      <trkpt lat="42.5886" lon="2.0091">
        <ele>2126.6</ele>
        <time>2021-08-01T12:02:38.000Z</time>
      </trkpt>
      <trkpt lat="42.58868" lon="2.00917">
        <ele>2126.7</ele>
        <time>2021-08-01T12:02:48.000Z</time>
      </trkpt>
      <trkpt lat="42.58876" lon="2.00924">
        <ele>2127.3</ele>
        <time>2021-08-01T12:02:58.000Z</time>
      </trkpt>
      <trkpt lat="42.58881" lon="2.00928">
        <ele>2127.5</ele>
        <time>2021-08-01T12:03:06.000Z</time>
      </trkpt>
      <trkpt lat="42.58881" lon="2.00928">
        <ele>2127.4</ele>
        <time>2021-08-01T12:03:07.000Z</time>
      </trkpt>
      <trkpt lat="42.58881" lon="2.00928">
        <ele>2127.5</ele>
        <time>2021-08-01T12:03:08.000Z</time>
      </trkpt>
      <trkpt lat="42.58881" lon="2.00928">
        <ele>2127.7</ele>
        <time>2021-08-01T12:03:13.000Z</time>
      </trkpt>
      <trkpt lat="42.5889" lon="2.00933">
        <ele>2127.9</ele>
        <time>2021-08-01T12:03:22.000Z</time>
      </trkpt>
      <trkpt lat="42.58898" lon="2.00938">
        <ele>2128.4</ele>
        <time>2021-08-01T12:03:31.000Z</time>
      </trkpt>
      <trkpt lat="42.58906" lon="2.00944">
        <ele>2128.6</ele>
        <time>2021-08-01T12:03:40.000Z</time>
      </trkpt>
      <trkpt lat="42.58913" lon="2.00952">
        <ele>2128.7</ele>
        <time>2021-08-01T12:03:49.000Z</time>
      </trkpt>
      <trkpt lat="42.58918" lon="2.00964">
        <ele>2128.6</ele>
        <time>2021-08-01T12:03:59.000Z</time>
      </trkpt>
      <trkpt lat="42.58924" lon="2.00974">
        <ele>2128.1</ele>
        <time>2021-08-01T12:04:09.000Z</time>
      </trkpt>
      <trkpt lat="42.58928" lon="2.00986">
        <ele>2127.6</ele>
        <time>2021-08-01T12:04:19.000Z</time>
      </trkpt>
      <trkpt lat="42.58931" lon="2.00999">
        <ele>2127.7</ele>
        <time>2021-08-01T12:04:29.000Z</time>
      </trkpt>
      <trkpt lat="42.58932" lon="2.01011">
        <ele>2127</ele>
        <time>2021-08-01T12:04:38.000Z</time>
      </trkpt>
      <trkpt lat="42.58932" lon="2.01024">
        <ele>2126.6</ele>
        <time>2021-08-01T12:04:47.000Z</time>
      </trkpt>
      <trkpt lat="42.58932" lon="2.01037">
        <ele>2125.6</ele>
        <time>2021-08-01T12:04:57.000Z</time>
      </trkpt>
      <trkpt lat="42.58932" lon="2.0105">
        <ele>2126</ele>
        <time>2021-08-01T12:05:06.000Z</time>
      </trkpt>
      <trkpt lat="42.58933" lon="2.01062">
        <ele>2126.4</ele>
        <time>2021-08-01T12:05:15.000Z</time>
      </trkpt>
      <trkpt lat="42.58933" lon="2.01076">
        <ele>2126.9</ele>
        <time>2021-08-01T12:05:25.000Z</time>
      </trkpt>
      <trkpt lat="42.58937" lon="2.01087">
        <ele>2128.3</ele>
        <time>2021-08-01T12:05:35.000Z</time>
      </trkpt>
      <trkpt lat="42.58944" lon="2.01096">
        <ele>2128.4</ele>
        <time>2021-08-01T12:05:45.000Z</time>
      </trkpt>
      <trkpt lat="42.58952" lon="2.01102">
        <ele>2128.5</ele>
        <time>2021-08-01T12:05:55.000Z</time>
      </trkpt>
      <trkpt lat="42.5896" lon="2.01111">
        <ele>2128.7</ele>
        <time>2021-08-01T12:06:05.000Z</time>
      </trkpt>
      <trkpt lat="42.58967" lon="2.01119">
        <ele>2128.9</ele>
        <time>2021-08-01T12:06:15.000Z</time>
      </trkpt>
      <trkpt lat="42.58973" lon="2.01129">
        <ele>2128.9</ele>
        <time>2021-08-01T12:06:25.000Z</time>
      </trkpt>
      <trkpt lat="42.5898" lon="2.01138">
        <ele>2129.5</ele>
        <time>2021-08-01T12:06:36.000Z</time>
      </trkpt>
      <trkpt lat="42.58987" lon="2.01147">
        <ele>2129.6</ele>
        <time>2021-08-01T12:06:48.000Z</time>
      </trkpt>
      <trkpt lat="42.58988" lon="2.01148">
        <ele>2129.8</ele>
        <time>2021-08-01T12:06:51.000Z</time>
      </trkpt>
      <trkpt lat="42.58988" lon="2.01148">
        <ele>2129.8</ele>
        <time>2021-08-01T12:07:06.000Z</time>
      </trkpt>
      <trkpt lat="42.58988" lon="2.01148">
        <ele>2130.1</ele>
        <time>2021-08-01T12:07:07.000Z</time>
      </trkpt>
      <trkpt lat="42.58988" lon="2.01148">
        <ele>2129.5</ele>
        <time>2021-08-01T12:08:01.000Z</time>
      </trkpt>
      <trkpt lat="42.58996" lon="2.01145">
        <ele>2129.6</ele>
        <time>2021-08-01T12:08:11.000Z</time>
      </trkpt>
      <trkpt lat="42.58996" lon="2.01146">
        <ele>2129.6</ele>
        <time>2021-08-01T12:08:15.000Z</time>
      </trkpt>
      <trkpt lat="42.59005" lon="2.01141">
        <ele>2129</ele>
        <time>2021-08-01T12:08:26.000Z</time>
      </trkpt>
      <trkpt lat="42.59014" lon="2.01137">
        <ele>2129.4</ele>
        <time>2021-08-01T12:08:36.000Z</time>
      </trkpt>
      <trkpt lat="42.59023" lon="2.01133">
        <ele>2129.9</ele>
        <time>2021-08-01T12:08:46.000Z</time>
      </trkpt>
      <trkpt lat="42.59033" lon="2.01129">
        <ele>2129.7</ele>
        <time>2021-08-01T12:08:56.000Z</time>
      </trkpt>
      <trkpt lat="42.59039" lon="2.01126">
        <ele>2129.9</ele>
        <time>2021-08-01T12:09:04.000Z</time>
      </trkpt>
      <trkpt lat="42.59039" lon="2.01126">
        <ele>2129.9</ele>
        <time>2021-08-01T12:09:05.000Z</time>
      </trkpt>
      <trkpt lat="42.59039" lon="2.01126">
        <ele>2130</ele>
        <time>2021-08-01T12:09:06.000Z</time>
      </trkpt>
      <trkpt lat="42.59039" lon="2.01125">
        <ele>2129.9</ele>
        <time>2021-08-01T12:09:07.000Z</time>
      </trkpt>
      <trkpt lat="42.59047" lon="2.0112">
        <ele>2130.4</ele>
        <time>2021-08-01T12:09:16.000Z</time>
      </trkpt>
      <trkpt lat="42.59055" lon="2.01112">
        <ele>2131</ele>
        <time>2021-08-01T12:09:26.000Z</time>
      </trkpt>
      <trkpt lat="42.59063" lon="2.01108">
        <ele>2131.5</ele>
        <time>2021-08-01T12:09:36.000Z</time>
      </trkpt>
      <trkpt lat="42.59073" lon="2.01104">
        <ele>2131.9</ele>
        <time>2021-08-01T12:09:46.000Z</time>
      </trkpt>
      <trkpt lat="42.59082" lon="2.011">
        <ele>2132.1</ele>
        <time>2021-08-01T12:09:55.000Z</time>
      </trkpt>
      <trkpt lat="42.59091" lon="2.01097">
        <ele>2132.6</ele>
        <time>2021-08-01T12:10:05.000Z</time>
      </trkpt>
      <trkpt lat="42.591" lon="2.01094">
        <ele>2133</ele>
        <time>2021-08-01T12:10:15.000Z</time>
      </trkpt>
      <trkpt lat="42.59109" lon="2.01097">
        <ele>2132.4</ele>
        <time>2021-08-01T12:10:26.000Z</time>
      </trkpt>
      <trkpt lat="42.59118" lon="2.01092">
        <ele>2132</ele>
        <time>2021-08-01T12:10:36.000Z</time>
      </trkpt>
      <trkpt lat="42.5912" lon="2.01092">
        <ele>2132.3</ele>
        <time>2021-08-01T12:10:39.000Z</time>
      </trkpt>
      <trkpt lat="42.5912" lon="2.01092">
        <ele>2132.3</ele>
        <time>2021-08-01T12:10:40.000Z</time>
      </trkpt>
      <trkpt lat="42.5912" lon="2.01092">
        <ele>2132.2</ele>
        <time>2021-08-01T12:10:41.000Z</time>
      </trkpt>
      <trkpt lat="42.5912" lon="2.01092">
        <ele>2131.9</ele>
        <time>2021-08-01T12:10:44.000Z</time>
      </trkpt>
      <trkpt lat="42.59124" lon="2.01092">
        <ele>2132.1</ele>
        <time>2021-08-01T12:10:51.000Z</time>
      </trkpt>
      <trkpt lat="42.59124" lon="2.01091">
        <ele>2132</ele>
        <time>2021-08-01T12:10:52.000Z</time>
      </trkpt>
      <trkpt lat="42.59123" lon="2.0109">
        <ele>2132.1</ele>
        <time>2021-08-01T12:10:55.000Z</time>
      </trkpt>
      <trkpt lat="42.59123" lon="2.0109">
        <ele>2132.2</ele>
        <time>2021-08-01T12:10:56.000Z</time>
      </trkpt>
      <trkpt lat="42.59123" lon="2.0109">
        <ele>2132.2</ele>
        <time>2021-08-01T12:10:57.000Z</time>
      </trkpt>
      <trkpt lat="42.59123" lon="2.01089">
        <ele>2132.2</ele>
        <time>2021-08-01T12:10:58.000Z</time>
      </trkpt>
      <trkpt lat="42.59121" lon="2.01085">
        <ele>2131.9</ele>
        <time>2021-08-01T12:11:06.000Z</time>
      </trkpt>
      <trkpt lat="42.59121" lon="2.01085">
        <ele>2131.9</ele>
        <time>2021-08-01T12:11:07.000Z</time>
      </trkpt>
      <trkpt lat="42.59121" lon="2.01085">
        <ele>2131.7</ele>
        <time>2021-08-01T12:11:08.000Z</time>
      </trkpt>
      <trkpt lat="42.59121" lon="2.01085">
        <ele>2132</ele>
        <time>2021-08-01T12:11:34.000Z</time>
      </trkpt>
      <trkpt lat="42.59121" lon="2.01084">
        <ele>2131.2</ele>
        <time>2021-08-01T12:11:36.000Z</time>
      </trkpt>
      <trkpt lat="42.5912" lon="2.01084">
        <ele>2132.3</ele>
        <time>2021-08-01T12:11:42.000Z</time>
      </trkpt>
      <trkpt lat="42.5912" lon="2.01084">
        <ele>2132.2</ele>
        <time>2021-08-01T12:11:45.000Z</time>
      </trkpt>
      <trkpt lat="42.5912" lon="2.01084">
        <ele>2132.4</ele>
        <time>2021-08-01T12:11:53.000Z</time>
      </trkpt>
      <trkpt lat="42.59119" lon="2.01084">
        <ele>2132.3</ele>
        <time>2021-08-01T12:11:55.000Z</time>
      </trkpt>
      <trkpt lat="42.59119" lon="2.01084">
        <ele>2132.2</ele>
        <time>2021-08-01T12:12:01.000Z</time>
      </trkpt>
      <trkpt lat="42.59119" lon="2.01084">
        <ele>2132.3</ele>
        <time>2021-08-01T12:12:02.000Z</time>
      </trkpt>
      <trkpt lat="42.59119" lon="2.01084">
        <ele>2132.2</ele>
        <time>2021-08-01T12:12:54.000Z</time>
      </trkpt>
      <trkpt lat="42.59109" lon="2.01085">
        <ele>2132</ele>
        <time>2021-08-01T12:13:07.000Z</time>
      </trkpt>
      <trkpt lat="42.59108" lon="2.01084">
        <ele>2131.6</ele>
        <time>2021-08-01T12:13:11.000Z</time>
      </trkpt>
      <trkpt lat="42.59108" lon="2.01084">
        <ele>2131.5</ele>
        <time>2021-08-01T12:13:12.000Z</time>
      </trkpt>
      <trkpt lat="42.59118" lon="2.01085">
        <ele>2132.2</ele>
        <time>2021-08-01T12:13:23.000Z</time>
      </trkpt>
      <trkpt lat="42.59125" lon="2.01093">
        <ele>2132</ele>
        <time>2021-08-01T12:13:42.000Z</time>
      </trkpt>
      <trkpt lat="42.59125" lon="2.01093">
        <ele>2132</ele>
        <time>2021-08-01T12:13:44.000Z</time>
      </trkpt>
      <trkpt lat="42.59124" lon="2.01094">
        <ele>2131.8</ele>
        <time>2021-08-01T12:14:07.000Z</time>
      </trkpt>
      <trkpt lat="42.5912" lon="2.01105">
        <ele>2132.1</ele>
        <time>2021-08-01T12:14:16.000Z</time>
      </trkpt>
      <trkpt lat="42.59116" lon="2.01115">
        <ele>2134.2</ele>
        <time>2021-08-01T12:14:27.000Z</time>
      </trkpt>
      <trkpt lat="42.5911" lon="2.01126">
        <ele>2135.4</ele>
        <time>2021-08-01T12:14:38.000Z</time>
      </trkpt>
      <trkpt lat="42.59102" lon="2.01134">
        <ele>2135.6</ele>
        <time>2021-08-01T12:14:47.000Z</time>
      </trkpt>
      <trkpt lat="42.59095" lon="2.01143">
        <ele>2135.9</ele>
        <time>2021-08-01T12:14:56.000Z</time>
      </trkpt>
      <trkpt lat="42.5909" lon="2.01154">
        <ele>2135.2</ele>
        <time>2021-08-01T12:15:07.000Z</time>
      </trkpt>
      <trkpt lat="42.59092" lon="2.01165">
        <ele>2134.5</ele>
        <time>2021-08-01T12:15:19.000Z</time>
      </trkpt>
      <trkpt lat="42.59092" lon="2.01165">
        <ele>2134.2</ele>
        <time>2021-08-01T12:16:22.000Z</time>
      </trkpt>
      <trkpt lat="42.59099" lon="2.01173">
        <ele>2134.2</ele>
        <time>2021-08-01T12:16:32.000Z</time>
      </trkpt>
      <trkpt lat="42.59109" lon="2.01174">
        <ele>2134.4</ele>
        <time>2021-08-01T12:16:42.000Z</time>
      </trkpt>
      <trkpt lat="42.59118" lon="2.01175">
        <ele>2136.1</ele>
        <time>2021-08-01T12:16:52.000Z</time>
      </trkpt>
      <trkpt lat="42.59127" lon="2.01176">
        <ele>2137.5</ele>
        <time>2021-08-01T12:17:03.000Z</time>
      </trkpt>
      <trkpt lat="42.59136" lon="2.01178">
        <ele>2138.6</ele>
        <time>2021-08-01T12:17:14.000Z</time>
      </trkpt>
      <trkpt lat="42.59145" lon="2.01182">
        <ele>2139.7</ele>
        <time>2021-08-01T12:17:24.000Z</time>
      </trkpt>
      <trkpt lat="42.59154" lon="2.01187">
        <ele>2139.9</ele>
        <time>2021-08-01T12:17:34.000Z</time>
      </trkpt>
      <trkpt lat="42.59162" lon="2.01193">
        <ele>2140.1</ele>
        <time>2021-08-01T12:17:45.000Z</time>
      </trkpt>
      <trkpt lat="42.59171" lon="2.01198">
        <ele>2140.5</ele>
        <time>2021-08-01T12:17:55.000Z</time>
      </trkpt>
      <trkpt lat="42.5918" lon="2.01199">
        <ele>2141.1</ele>
        <time>2021-08-01T12:18:04.000Z</time>
      </trkpt>
      <trkpt lat="42.59189" lon="2.01201">
        <ele>2141.3</ele>
        <time>2021-08-01T12:18:14.000Z</time>
      </trkpt>
      <trkpt lat="42.59198" lon="2.01206">
        <ele>2142</ele>
        <time>2021-08-01T12:18:24.000Z</time>
      </trkpt>
      <trkpt lat="42.59207" lon="2.01209">
        <ele>2143.1</ele>
        <time>2021-08-01T12:18:34.000Z</time>
      </trkpt>
      <trkpt lat="42.59216" lon="2.01212">
        <ele>2144.5</ele>
        <time>2021-08-01T12:18:45.000Z</time>
      </trkpt>
      <trkpt lat="42.59225" lon="2.01215">
        <ele>2146.3</ele>
        <time>2021-08-01T12:18:57.000Z</time>
      </trkpt>
      <trkpt lat="42.59235" lon="2.01216">
        <ele>2148.2</ele>
        <time>2021-08-01T12:19:10.000Z</time>
      </trkpt>
      <trkpt lat="42.59244" lon="2.01213">
        <ele>2149.9</ele>
        <time>2021-08-01T12:19:25.000Z</time>
      </trkpt>
      <trkpt lat="42.59253" lon="2.01209">
        <ele>2152.5</ele>
        <time>2021-08-01T12:19:41.000Z</time>
      </trkpt>
      <trkpt lat="42.59262" lon="2.01207">
        <ele>2155.3</ele>
        <time>2021-08-01T12:20:00.000Z</time>
      </trkpt>
      <trkpt lat="42.59271" lon="2.01205">
        <ele>2157.9</ele>
        <time>2021-08-01T12:20:17.000Z</time>
      </trkpt>
      <trkpt lat="42.59279" lon="2.01199">
        <ele>2160.3</ele>
        <time>2021-08-01T12:20:34.000Z</time>
      </trkpt>
      <trkpt lat="42.59286" lon="2.01191">
        <ele>2162.4</ele>
        <time>2021-08-01T12:20:54.000Z</time>
      </trkpt>
      <trkpt lat="42.59295" lon="2.01189">
        <ele>2164.4</ele>
        <time>2021-08-01T12:21:10.000Z</time>
      </trkpt>
      <trkpt lat="42.59304" lon="2.01191">
        <ele>2166.6</ele>
        <time>2021-08-01T12:21:26.000Z</time>
      </trkpt>
      <trkpt lat="42.59313" lon="2.01192">
        <ele>2168.9</ele>
        <time>2021-08-01T12:21:42.000Z</time>
      </trkpt>
      <trkpt lat="42.59323" lon="2.01193">
        <ele>2170.5</ele>
        <time>2021-08-01T12:21:56.000Z</time>
      </trkpt>
      <trkpt lat="42.59332" lon="2.01192">
        <ele>2172.5</ele>
        <time>2021-08-01T12:22:10.000Z</time>
      </trkpt>
      <trkpt lat="42.59341" lon="2.0119">
        <ele>2173.6</ele>
        <time>2021-08-01T12:22:22.000Z</time>
      </trkpt>
      <trkpt lat="42.5935" lon="2.01188">
        <ele>2174.5</ele>
        <time>2021-08-01T12:22:33.000Z</time>
      </trkpt>
      <trkpt lat="42.59359" lon="2.01185">
        <ele>2175.2</ele>
        <time>2021-08-01T12:22:44.000Z</time>
      </trkpt>
      <trkpt lat="42.59368" lon="2.01181">
        <ele>2176.6</ele>
        <time>2021-08-01T12:22:56.000Z</time>
      </trkpt>
      <trkpt lat="42.59377" lon="2.01182">
        <ele>2177.8</ele>
        <time>2021-08-01T12:23:08.000Z</time>
      </trkpt>
      <trkpt lat="42.59387" lon="2.0118">
        <ele>2179</ele>
        <time>2021-08-01T12:23:20.000Z</time>
      </trkpt>
      <trkpt lat="42.59395" lon="2.01174">
        <ele>2180</ele>
        <time>2021-08-01T12:23:32.000Z</time>
      </trkpt>
      <trkpt lat="42.59404" lon="2.01174">
        <ele>2181.9</ele>
        <time>2021-08-01T12:23:49.000Z</time>
      </trkpt>
      <trkpt lat="42.59413" lon="2.01178">
        <ele>2184.5</ele>
        <time>2021-08-01T12:24:05.000Z</time>
      </trkpt>
      <trkpt lat="42.59422" lon="2.01181">
        <ele>2187.6</ele>
        <time>2021-08-01T12:24:27.000Z</time>
      </trkpt>
      <trkpt lat="42.59423" lon="2.01178">
        <ele>2188.6</ele>
        <time>2021-08-01T12:24:33.000Z</time>
      </trkpt>
      <trkpt lat="42.59423" lon="2.01178">
        <ele>2188.4</ele>
        <time>2021-08-01T12:26:54.000Z</time>
      </trkpt>
      <trkpt lat="42.59427" lon="2.01167">
        <ele>2189.5</ele>
        <time>2021-08-01T12:27:06.000Z</time>
      </trkpt>
      <trkpt lat="42.5943" lon="2.01154">
        <ele>2191.1</ele>
        <time>2021-08-01T12:27:20.000Z</time>
      </trkpt>
      <trkpt lat="42.59431" lon="2.01142">
        <ele>2192.9</ele>
        <time>2021-08-01T12:27:33.000Z</time>
      </trkpt>
      <trkpt lat="42.59436" lon="2.01131">
        <ele>2194.9</ele>
        <time>2021-08-01T12:27:47.000Z</time>
      </trkpt>
      <trkpt lat="42.59441" lon="2.0112">
        <ele>2196.7</ele>
        <time>2021-08-01T12:28:02.000Z</time>
      </trkpt>
      <trkpt lat="42.59446" lon="2.01111">
        <ele>2198.5</ele>
        <time>2021-08-01T12:28:16.000Z</time>
      </trkpt>
      <trkpt lat="42.59451" lon="2.011">
        <ele>2200.2</ele>
        <time>2021-08-01T12:28:31.000Z</time>
      </trkpt>
      <trkpt lat="42.59455" lon="2.01088">
        <ele>2201.9</ele>
        <time>2021-08-01T12:28:44.000Z</time>
      </trkpt>
      <trkpt lat="42.59461" lon="2.01078">
        <ele>2203.2</ele>
        <time>2021-08-01T12:28:58.000Z</time>
      </trkpt>
      <trkpt lat="42.59465" lon="2.01067">
        <ele>2204.9</ele>
        <time>2021-08-01T12:29:11.000Z</time>
      </trkpt>
      <trkpt lat="42.59472" lon="2.01057">
        <ele>2206.2</ele>
        <time>2021-08-01T12:29:23.000Z</time>
      </trkpt>
      <trkpt lat="42.59478" lon="2.01048">
        <ele>2208</ele>
        <time>2021-08-01T12:29:35.000Z</time>
      </trkpt>
      <trkpt lat="42.59485" lon="2.01039">
        <ele>2209.4</ele>
        <time>2021-08-01T12:29:47.000Z</time>
      </trkpt>
      <trkpt lat="42.59491" lon="2.0103">
        <ele>2210.4</ele>
        <time>2021-08-01T12:29:59.000Z</time>
      </trkpt>
      <trkpt lat="42.59497" lon="2.01019">
        <ele>2211.5</ele>
        <time>2021-08-01T12:30:11.000Z</time>
      </trkpt>
      <trkpt lat="42.59504" lon="2.01011">
        <ele>2213.2</ele>
        <time>2021-08-01T12:30:23.000Z</time>
      </trkpt>
      <trkpt lat="42.59512" lon="2.01005">
        <ele>2214.5</ele>
        <time>2021-08-01T12:30:34.000Z</time>
      </trkpt>
      <trkpt lat="42.5952" lon="2.01">
        <ele>2215.9</ele>
        <time>2021-08-01T12:30:45.000Z</time>
      </trkpt>
      <trkpt lat="42.59529" lon="2.00996">
        <ele>2216.8</ele>
        <time>2021-08-01T12:30:56.000Z</time>
      </trkpt>
      <trkpt lat="42.59538" lon="2.00992">
        <ele>2218</ele>
        <time>2021-08-01T12:31:07.000Z</time>
      </trkpt>
      <trkpt lat="42.59548" lon="2.00991">
        <ele>2219.2</ele>
        <time>2021-08-01T12:31:19.000Z</time>
      </trkpt>
      <trkpt lat="42.59557" lon="2.00989">
        <ele>2220.8</ele>
        <time>2021-08-01T12:31:31.000Z</time>
      </trkpt>
      <trkpt lat="42.59565" lon="2.00983">
        <ele>2221.3</ele>
        <time>2021-08-01T12:31:42.000Z</time>
      </trkpt>
      <trkpt lat="42.59572" lon="2.00974">
        <ele>2221.6</ele>
        <time>2021-08-01T12:31:52.000Z</time>
      </trkpt>
      <trkpt lat="42.59578" lon="2.00968">
        <ele>2221.9</ele>
        <time>2021-08-01T12:32:01.000Z</time>
      </trkpt>
      <trkpt lat="42.59577" lon="2.00969">
        <ele>2221.6</ele>
        <time>2021-08-01T12:33:29.000Z</time>
      </trkpt>
      <trkpt lat="42.59578" lon="2.00969">
        <ele>2221.5</ele>
        <time>2021-08-01T12:33:31.000Z</time>
      </trkpt>
      <trkpt lat="42.59578" lon="2.00968">
        <ele>2221.6</ele>
        <time>2021-08-01T12:33:38.000Z</time>
      </trkpt>
      <trkpt lat="42.59585" lon="2.00959">
        <ele>2221.8</ele>
        <time>2021-08-01T12:33:48.000Z</time>
      </trkpt>
      <trkpt lat="42.59593" lon="2.00952">
        <ele>2222.1</ele>
        <time>2021-08-01T12:33:57.000Z</time>
      </trkpt>
      <trkpt lat="42.59601" lon="2.00944">
        <ele>2223</ele>
        <time>2021-08-01T12:34:07.000Z</time>
      </trkpt>
      <trkpt lat="42.5961" lon="2.0094">
        <ele>2223.9</ele>
        <time>2021-08-01T12:34:17.000Z</time>
      </trkpt>
      <trkpt lat="42.59619" lon="2.00937">
        <ele>2224.7</ele>
        <time>2021-08-01T12:34:27.000Z</time>
      </trkpt>
      <trkpt lat="42.59628" lon="2.00932">
        <ele>2225</ele>
        <time>2021-08-01T12:34:37.000Z</time>
      </trkpt>
      <trkpt lat="42.59637" lon="2.00927">
        <ele>2225.6</ele>
        <time>2021-08-01T12:34:47.000Z</time>
      </trkpt>
      <trkpt lat="42.59644" lon="2.0092">
        <ele>2226.8</ele>
        <time>2021-08-01T12:34:57.000Z</time>
      </trkpt>
      <trkpt lat="42.59651" lon="2.00911">
        <ele>2227.8</ele>
        <time>2021-08-01T12:35:08.000Z</time>
      </trkpt>
      <trkpt lat="42.59659" lon="2.00904">
        <ele>2228.6</ele>
        <time>2021-08-01T12:35:19.000Z</time>
      </trkpt>
      <trkpt lat="42.59667" lon="2.00896">
        <ele>2229.1</ele>
        <time>2021-08-01T12:35:29.000Z</time>
      </trkpt>
      <trkpt lat="42.59675" lon="2.00889">
        <ele>2229.7</ele>
        <time>2021-08-01T12:35:39.000Z</time>
      </trkpt>
      <trkpt lat="42.59683" lon="2.00881">
        <ele>2229.8</ele>
        <time>2021-08-01T12:35:49.000Z</time>
      </trkpt>
      <trkpt lat="42.59691" lon="2.00875">
        <ele>2230.6</ele>
        <time>2021-08-01T12:35:58.000Z</time>
      </trkpt>
      <trkpt lat="42.59699" lon="2.00868">
        <ele>2230.9</ele>
        <time>2021-08-01T12:36:08.000Z</time>
      </trkpt>
      <trkpt lat="42.59707" lon="2.00862">
        <ele>2231.3</ele>
        <time>2021-08-01T12:36:17.000Z</time>
      </trkpt>
      <trkpt lat="42.59715" lon="2.00857">
        <ele>2231.9</ele>
        <time>2021-08-01T12:36:26.000Z</time>
      </trkpt>
      <trkpt lat="42.59724" lon="2.00853">
        <ele>2232.2</ele>
        <time>2021-08-01T12:36:35.000Z</time>
      </trkpt>
      <trkpt lat="42.59733" lon="2.00849">
        <ele>2233.1</ele>
        <time>2021-08-01T12:36:45.000Z</time>
      </trkpt>
      <trkpt lat="42.59743" lon="2.00844">
        <ele>2233.5</ele>
        <time>2021-08-01T12:36:55.000Z</time>
      </trkpt>
      <trkpt lat="42.59752" lon="2.0084">
        <ele>2233.8</ele>
        <time>2021-08-01T12:37:05.000Z</time>
      </trkpt>
      <trkpt lat="42.5976" lon="2.00835">
        <ele>2234</ele>
        <time>2021-08-01T12:37:14.000Z</time>
      </trkpt>
      <trkpt lat="42.5977" lon="2.0083">
        <ele>2234.2</ele>
        <time>2021-08-01T12:37:24.000Z</time>
      </trkpt>
      <trkpt lat="42.59778" lon="2.00827">
        <ele>2234.3</ele>
        <time>2021-08-01T12:37:33.000Z</time>
      </trkpt>
      <trkpt lat="42.59787" lon="2.00823">
        <ele>2234.1</ele>
        <time>2021-08-01T12:37:42.000Z</time>
      </trkpt>
      <trkpt lat="42.59796" lon="2.00819">
        <ele>2234.7</ele>
        <time>2021-08-01T12:37:51.000Z</time>
      </trkpt>
      <trkpt lat="42.59804" lon="2.00814">
        <ele>2234.8</ele>
        <time>2021-08-01T12:38:00.000Z</time>
      </trkpt>
      <trkpt lat="42.59813" lon="2.00808">
        <ele>2235.4</ele>
        <time>2021-08-01T12:38:10.000Z</time>
      </trkpt>
      <trkpt lat="42.59821" lon="2.00802">
        <ele>2235.5</ele>
        <time>2021-08-01T12:38:19.000Z</time>
      </trkpt>
      <trkpt lat="42.59829" lon="2.00797">
        <ele>2236.1</ele>
        <time>2021-08-01T12:38:28.000Z</time>
      </trkpt>
      <trkpt lat="42.59838" lon="2.0079">
        <ele>2237</ele>
        <time>2021-08-01T12:38:38.000Z</time>
      </trkpt>
      <trkpt lat="42.59846" lon="2.00783">
        <ele>2237.5</ele>
        <time>2021-08-01T12:38:48.000Z</time>
      </trkpt>
      <trkpt lat="42.59853" lon="2.00776">
        <ele>2238.1</ele>
        <time>2021-08-01T12:38:57.000Z</time>
      </trkpt>
      <trkpt lat="42.59862" lon="2.0077">
        <ele>2238.8</ele>
        <time>2021-08-01T12:39:07.000Z</time>
      </trkpt>
      <trkpt lat="42.5987" lon="2.00763">
        <ele>2239.1</ele>
        <time>2021-08-01T12:39:17.000Z</time>
      </trkpt>
      <trkpt lat="42.59878" lon="2.00757">
        <ele>2239.6</ele>
        <time>2021-08-01T12:39:26.000Z</time>
      </trkpt>
      <trkpt lat="42.59887" lon="2.00751">
        <ele>2240.1</ele>
        <time>2021-08-01T12:39:36.000Z</time>
      </trkpt>
      <trkpt lat="42.59896" lon="2.00748">
        <ele>2240.4</ele>
        <time>2021-08-01T12:39:46.000Z</time>
      </trkpt>
      <trkpt lat="42.59905" lon="2.00744">
        <ele>2240.2</ele>
        <time>2021-08-01T12:39:55.000Z</time>
      </trkpt>
      <trkpt lat="42.59914" lon="2.0074">
        <ele>2240.8</ele>
        <time>2021-08-01T12:40:05.000Z</time>
      </trkpt>
      <trkpt lat="42.59923" lon="2.00736">
        <ele>2240.7</ele>
        <time>2021-08-01T12:40:14.000Z</time>
      </trkpt>
      <trkpt lat="42.59933" lon="2.00733">
        <ele>2240.6</ele>
        <time>2021-08-01T12:40:24.000Z</time>
      </trkpt>
      <trkpt lat="42.59941" lon="2.00727">
        <ele>2240.5</ele>
        <time>2021-08-01T12:40:33.000Z</time>
      </trkpt>
      <trkpt lat="42.5995" lon="2.00722">
        <ele>2240.9</ele>
        <time>2021-08-01T12:40:42.000Z</time>
      </trkpt>
      <trkpt lat="42.59958" lon="2.00717">
        <ele>2241.3</ele>
        <time>2021-08-01T12:40:51.000Z</time>
      </trkpt>
      <trkpt lat="42.59967" lon="2.00712">
        <ele>2241.3</ele>
        <time>2021-08-01T12:41:00.000Z</time>
      </trkpt>
      <trkpt lat="42.59976" lon="2.00708">
        <ele>2241.4</ele>
        <time>2021-08-01T12:41:09.000Z</time>
      </trkpt>
      <trkpt lat="42.59984" lon="2.00703">
        <ele>2241.3</ele>
        <time>2021-08-01T12:41:18.000Z</time>
      </trkpt>
      <trkpt lat="42.59993" lon="2.00699">
        <ele>2241.4</ele>
        <time>2021-08-01T12:41:27.000Z</time>
      </trkpt>
      <trkpt lat="42.60001" lon="2.00693">
        <ele>2240.9</ele>
        <time>2021-08-01T12:41:36.000Z</time>
      </trkpt>
      <trkpt lat="42.6001" lon="2.00687">
        <ele>2240.9</ele>
        <time>2021-08-01T12:41:46.000Z</time>
      </trkpt>
      <trkpt lat="42.60018" lon="2.00682">
        <ele>2240.7</ele>
        <time>2021-08-01T12:41:55.000Z</time>
      </trkpt>
      <trkpt lat="42.60026" lon="2.00675">
        <ele>2240.9</ele>
        <time>2021-08-01T12:42:04.000Z</time>
      </trkpt>
      <trkpt lat="42.60035" lon="2.00669">
        <ele>2240.5</ele>
        <time>2021-08-01T12:42:13.000Z</time>
      </trkpt>
      <trkpt lat="42.60044" lon="2.00665">
        <ele>2240.2</ele>
        <time>2021-08-01T12:42:22.000Z</time>
      </trkpt>
      <trkpt lat="42.60053" lon="2.00661">
        <ele>2239.9</ele>
        <time>2021-08-01T12:42:31.000Z</time>
      </trkpt>
      <trkpt lat="42.60061" lon="2.00654">
        <ele>2239.3</ele>
        <time>2021-08-01T12:42:40.000Z</time>
      </trkpt>
      <trkpt lat="42.60069" lon="2.0065">
        <ele>2239.1</ele>
        <time>2021-08-01T12:42:50.000Z</time>
      </trkpt>
      <trkpt lat="42.6007" lon="2.00649">
        <ele>2239.4</ele>
        <time>2021-08-01T12:42:53.000Z</time>
      </trkpt>
      <trkpt lat="42.6007" lon="2.00649">
        <ele>2239.1</ele>
        <time>2021-08-01T12:43:36.000Z</time>
      </trkpt>
      <trkpt lat="42.6007" lon="2.00649">
        <ele>2239.1</ele>
        <time>2021-08-01T12:43:37.000Z</time>
      </trkpt>
      <trkpt lat="42.6007" lon="2.00649">
        <ele>2239.2</ele>
        <time>2021-08-01T12:43:57.000Z</time>
      </trkpt>
      <trkpt lat="42.6007" lon="2.00649">
        <ele>2239.3</ele>
        <time>2021-08-01T12:43:58.000Z</time>
      </trkpt>
      <trkpt lat="42.6007" lon="2.00649">
        <ele>2239.4</ele>
        <time>2021-08-01T12:44:01.000Z</time>
      </trkpt>
      <trkpt lat="42.60079" lon="2.00648">
        <ele>2238.9</ele>
        <time>2021-08-01T12:44:11.000Z</time>
      </trkpt>
      <trkpt lat="42.60088" lon="2.00644">
        <ele>2239</ele>
        <time>2021-08-01T12:44:20.000Z</time>
      </trkpt>
      <trkpt lat="42.60097" lon="2.00641">
        <ele>2238.7</ele>
        <time>2021-08-01T12:44:31.000Z</time>
      </trkpt>
      <trkpt lat="42.60105" lon="2.00635">
        <ele>2238.9</ele>
        <time>2021-08-01T12:44:42.000Z</time>
      </trkpt>
      <trkpt lat="42.60114" lon="2.00629">
        <ele>2239.2</ele>
        <time>2021-08-01T12:44:52.000Z</time>
      </trkpt>
      <trkpt lat="42.60123" lon="2.00626">
        <ele>2239.4</ele>
        <time>2021-08-01T12:45:01.000Z</time>
      </trkpt>
      <trkpt lat="42.60133" lon="2.00625">
        <ele>2239.1</ele>
        <time>2021-08-01T12:45:10.000Z</time>
      </trkpt>
      <trkpt lat="42.60142" lon="2.00626">
        <ele>2239</ele>
        <time>2021-08-01T12:45:19.000Z</time>
      </trkpt>
      <trkpt lat="42.60152" lon="2.00625">
        <ele>2239.4</ele>
        <time>2021-08-01T12:45:28.000Z</time>
      </trkpt>
      <trkpt lat="42.60161" lon="2.00624">
        <ele>2239.3</ele>
        <time>2021-08-01T12:45:37.000Z</time>
      </trkpt>
      <trkpt lat="42.60171" lon="2.0062">
        <ele>2239.2</ele>
        <time>2021-08-01T12:45:46.000Z</time>
      </trkpt>
      <trkpt lat="42.6018" lon="2.00616">
        <ele>2238.8</ele>
        <time>2021-08-01T12:45:55.000Z</time>
      </trkpt>
      <trkpt lat="42.60189" lon="2.00613">
        <ele>2237.5</ele>
        <time>2021-08-01T12:46:08.000Z</time>
      </trkpt>
      <trkpt lat="42.60192" lon="2.00614">
        <ele>2237.1</ele>
        <time>2021-08-01T12:46:13.000Z</time>
      </trkpt>
      <trkpt lat="42.60192" lon="2.00614">
        <ele>2237.1</ele>
        <time>2021-08-01T12:46:34.000Z</time>
      </trkpt>
      <trkpt lat="42.602" lon="2.0062">
        <ele>2238</ele>
        <time>2021-08-01T12:46:47.000Z</time>
      </trkpt>
      <trkpt lat="42.60207" lon="2.00629">
        <ele>2238.6</ele>
        <time>2021-08-01T12:46:57.000Z</time>
      </trkpt>
      <trkpt lat="42.60214" lon="2.00638">
        <ele>2239.4</ele>
        <time>2021-08-01T12:47:07.000Z</time>
      </trkpt>
      <trkpt lat="42.60222" lon="2.00646">
        <ele>2239.5</ele>
        <time>2021-08-01T12:47:17.000Z</time>
      </trkpt>
      <trkpt lat="42.6023" lon="2.00652">
        <ele>2239.8</ele>
        <time>2021-08-01T12:47:26.000Z</time>
      </trkpt>
      <trkpt lat="42.60238" lon="2.00658">
        <ele>2240.1</ele>
        <time>2021-08-01T12:47:36.000Z</time>
      </trkpt>
      <trkpt lat="42.60247" lon="2.00664">
        <ele>2240.9</ele>
        <time>2021-08-01T12:47:46.000Z</time>
      </trkpt>
      <trkpt lat="42.60255" lon="2.00671">
        <ele>2240.8</ele>
        <time>2021-08-01T12:47:56.000Z</time>
      </trkpt>
      <trkpt lat="42.60262" lon="2.00679">
        <ele>2241.2</ele>
        <time>2021-08-01T12:48:05.000Z</time>
      </trkpt>
      <trkpt lat="42.60271" lon="2.00684">
        <ele>2241</ele>
        <time>2021-08-01T12:48:14.000Z</time>
      </trkpt>
      <trkpt lat="42.60279" lon="2.00689">
        <ele>2241.4</ele>
        <time>2021-08-01T12:48:23.000Z</time>
      </trkpt>
      <trkpt lat="42.60288" lon="2.00695">
        <ele>2241.4</ele>
        <time>2021-08-01T12:48:32.000Z</time>
      </trkpt>
      <trkpt lat="42.60297" lon="2.00698">
        <ele>2241.4</ele>
        <time>2021-08-01T12:48:42.000Z</time>
      </trkpt>
      <trkpt lat="42.60306" lon="2.00696">
        <ele>2242.2</ele>
        <time>2021-08-01T12:48:52.000Z</time>
      </trkpt>
      <trkpt lat="42.60315" lon="2.00692">
        <ele>2241.2</ele>
        <time>2021-08-01T12:49:01.000Z</time>
      </trkpt>
      <trkpt lat="42.60324" lon="2.0069">
        <ele>2241.1</ele>
        <time>2021-08-01T12:49:09.000Z</time>
      </trkpt>
      <trkpt lat="42.60333" lon="2.00693">
        <ele>2241.6</ele>
        <time>2021-08-01T12:49:18.000Z</time>
      </trkpt>
      <trkpt lat="42.60342" lon="2.00698">
        <ele>2242</ele>
        <time>2021-08-01T12:49:27.000Z</time>
      </trkpt>
      <trkpt lat="42.6035" lon="2.00704">
        <ele>2242.5</ele>
        <time>2021-08-01T12:49:36.000Z</time>
      </trkpt>
      <trkpt lat="42.60359" lon="2.00707">
        <ele>2242.3</ele>
        <time>2021-08-01T12:49:45.000Z</time>
      </trkpt>
      <trkpt lat="42.60369" lon="2.00709">
        <ele>2242.1</ele>
        <time>2021-08-01T12:49:54.000Z</time>
      </trkpt>
      <trkpt lat="42.60378" lon="2.00707">
        <ele>2241.9</ele>
        <time>2021-08-01T12:50:03.000Z</time>
      </trkpt>
      <trkpt lat="42.60387" lon="2.0071">
        <ele>2241.7</ele>
        <time>2021-08-01T12:50:12.000Z</time>
      </trkpt>
      <trkpt lat="42.60397" lon="2.0071">
        <ele>2241.6</ele>
        <time>2021-08-01T12:50:21.000Z</time>
      </trkpt>
      <trkpt lat="42.60406" lon="2.00708">
        <ele>2241.3</ele>
        <time>2021-08-01T12:50:31.000Z</time>
      </trkpt>
      <trkpt lat="42.60416" lon="2.00707">
        <ele>2241.2</ele>
        <time>2021-08-01T12:50:41.000Z</time>
      </trkpt>
      <trkpt lat="42.60425" lon="2.00702">
        <ele>2240.5</ele>
        <time>2021-08-01T12:50:50.000Z</time>
      </trkpt>
      <trkpt lat="42.60434" lon="2.00697">
        <ele>2240.5</ele>
        <time>2021-08-01T12:50:59.000Z</time>
      </trkpt>
      <trkpt lat="42.60444" lon="2.00694">
        <ele>2240</ele>
        <time>2021-08-01T12:51:08.000Z</time>
      </trkpt>
      <trkpt lat="42.60453" lon="2.0069">
        <ele>2239.6</ele>
        <time>2021-08-01T12:51:18.000Z</time>
      </trkpt>
      <trkpt lat="42.60462" lon="2.00686">
        <ele>2239</ele>
        <time>2021-08-01T12:51:27.000Z</time>
      </trkpt>
      <trkpt lat="42.60469" lon="2.00676">
        <ele>2238.9</ele>
        <time>2021-08-01T12:51:36.000Z</time>
      </trkpt>
      <trkpt lat="42.60475" lon="2.00666">
        <ele>2238.7</ele>
        <time>2021-08-01T12:51:45.000Z</time>
      </trkpt>
      <trkpt lat="42.60483" lon="2.00658">
        <ele>2239.1</ele>
        <time>2021-08-01T12:51:55.000Z</time>
      </trkpt>
      <trkpt lat="42.60492" lon="2.00653">
        <ele>2239.5</ele>
        <time>2021-08-01T12:52:04.000Z</time>
      </trkpt>
      <trkpt lat="42.60501" lon="2.00652">
        <ele>2239.9</ele>
        <time>2021-08-01T12:52:13.000Z</time>
      </trkpt>
      <trkpt lat="42.6051" lon="2.00649">
        <ele>2240.4</ele>
        <time>2021-08-01T12:52:23.000Z</time>
      </trkpt>
      <trkpt lat="42.60518" lon="2.00641">
        <ele>2239.7</ele>
        <time>2021-08-01T12:52:33.000Z</time>
      </trkpt>
      <trkpt lat="42.60528" lon="2.00637">
        <ele>2239.5</ele>
        <time>2021-08-01T12:52:44.000Z</time>
      </trkpt>
      <trkpt lat="42.60537" lon="2.00635">
        <ele>2239.7</ele>
        <time>2021-08-01T12:52:53.000Z</time>
      </trkpt>
      <trkpt lat="42.60547" lon="2.00635">
        <ele>2239.2</ele>
        <time>2021-08-01T12:53:02.000Z</time>
      </trkpt>
      <trkpt lat="42.60556" lon="2.00641">
        <ele>2239</ele>
        <time>2021-08-01T12:53:11.000Z</time>
      </trkpt>
      <trkpt lat="42.60564" lon="2.00648">
        <ele>2238.5</ele>
        <time>2021-08-01T12:53:20.000Z</time>
      </trkpt>
      <trkpt lat="42.60573" lon="2.00653">
        <ele>2238.4</ele>
        <time>2021-08-01T12:53:28.000Z</time>
      </trkpt>
      <trkpt lat="42.6058" lon="2.00663">
        <ele>2238.2</ele>
        <time>2021-08-01T12:53:37.000Z</time>
      </trkpt>
      <trkpt lat="42.60586" lon="2.00673">
        <ele>2238.6</ele>
        <time>2021-08-01T12:53:45.000Z</time>
      </trkpt>
      <trkpt lat="42.60593" lon="2.00682">
        <ele>2238.6</ele>
        <time>2021-08-01T12:53:53.000Z</time>
      </trkpt>
      <trkpt lat="42.606" lon="2.0069">
        <ele>2238.8</ele>
        <time>2021-08-01T12:54:01.000Z</time>
      </trkpt>
      <trkpt lat="42.60606" lon="2.007">
        <ele>2238</ele>
        <time>2021-08-01T12:54:10.000Z</time>
      </trkpt>
      <trkpt lat="42.60612" lon="2.0071">
        <ele>2238.9</ele>
        <time>2021-08-01T12:54:20.000Z</time>
      </trkpt>
      <trkpt lat="42.60617" lon="2.00721">
        <ele>2239.1</ele>
        <time>2021-08-01T12:54:29.000Z</time>
      </trkpt>
      <trkpt lat="42.60625" lon="2.0073">
        <ele>2239.7</ele>
        <time>2021-08-01T12:54:38.000Z</time>
      </trkpt>
      <trkpt lat="42.60631" lon="2.00739">
        <ele>2239.9</ele>
        <time>2021-08-01T12:54:46.000Z</time>
      </trkpt>
      <trkpt lat="42.60637" lon="2.00749">
        <ele>2239.8</ele>
        <time>2021-08-01T12:54:55.000Z</time>
      </trkpt>
      <trkpt lat="42.60644" lon="2.00757">
        <ele>2239.2</ele>
        <time>2021-08-01T12:55:04.000Z</time>
      </trkpt>
      <trkpt lat="42.60653" lon="2.00762">
        <ele>2240.2</ele>
        <time>2021-08-01T12:55:13.000Z</time>
      </trkpt>
      <trkpt lat="42.60662" lon="2.00768">
        <ele>2240.4</ele>
        <time>2021-08-01T12:55:22.000Z</time>
      </trkpt>
      <trkpt lat="42.60669" lon="2.00777">
        <ele>2240.4</ele>
        <time>2021-08-01T12:55:31.000Z</time>
      </trkpt>
      <trkpt lat="42.60677" lon="2.00784">
        <ele>2240.5</ele>
        <time>2021-08-01T12:55:40.000Z</time>
      </trkpt>
      <trkpt lat="42.6068" lon="2.00786">
        <ele>2240.4</ele>
        <time>2021-08-01T12:55:45.000Z</time>
      </trkpt>
      <trkpt lat="42.6068" lon="2.00786">
        <ele>2240.4</ele>
        <time>2021-08-01T12:55:46.000Z</time>
      </trkpt>
      <trkpt lat="42.6068" lon="2.00786">
        <ele>2240.5</ele>
        <time>2021-08-01T12:55:47.000Z</time>
      </trkpt>
      <trkpt lat="42.6068" lon="2.00786">
        <ele>2240.7</ele>
        <time>2021-08-01T12:55:52.000Z</time>
      </trkpt>
      <trkpt lat="42.60688" lon="2.00794">
        <ele>2240.4</ele>
        <time>2021-08-01T12:56:03.000Z</time>
      </trkpt>
      <trkpt lat="42.60696" lon="2.00801">
        <ele>2240.6</ele>
        <time>2021-08-01T12:56:11.000Z</time>
      </trkpt>
      <trkpt lat="42.60704" lon="2.00808">
        <ele>2240.3</ele>
        <time>2021-08-01T12:56:19.000Z</time>
      </trkpt>
      <trkpt lat="42.60711" lon="2.00815">
        <ele>2240.2</ele>
        <time>2021-08-01T12:56:28.000Z</time>
      </trkpt>
      <trkpt lat="42.60716" lon="2.00825">
        <ele>2240.6</ele>
        <time>2021-08-01T12:56:37.000Z</time>
      </trkpt>
      <trkpt lat="42.60723" lon="2.00833">
        <ele>2240.9</ele>
        <time>2021-08-01T12:56:46.000Z</time>
      </trkpt>
      <trkpt lat="42.60731" lon="2.0084">
        <ele>2241.5</ele>
        <time>2021-08-01T12:56:56.000Z</time>
      </trkpt>
      <trkpt lat="42.60738" lon="2.00848">
        <ele>2241.8</ele>
        <time>2021-08-01T12:57:04.000Z</time>
      </trkpt>
      <trkpt lat="42.60745" lon="2.00857">
        <ele>2242.3</ele>
        <time>2021-08-01T12:57:15.000Z</time>
      </trkpt>
      <trkpt lat="42.60754" lon="2.00861">
        <ele>2242.2</ele>
        <time>2021-08-01T12:57:25.000Z</time>
      </trkpt>
      <trkpt lat="42.60759" lon="2.00864">
        <ele>2242.3</ele>
        <time>2021-08-01T12:57:42.000Z</time>
      </trkpt>
      <trkpt lat="42.60759" lon="2.00864">
        <ele>2241.9</ele>
        <time>2021-08-01T12:57:58.000Z</time>
      </trkpt>
      <trkpt lat="42.60759" lon="2.00864">
        <ele>2242</ele>
        <time>2021-08-01T12:57:59.000Z</time>
      </trkpt>
      <trkpt lat="42.60759" lon="2.00864">
        <ele>2241.8</ele>
        <time>2021-08-01T12:58:44.000Z</time>
      </trkpt>
      <trkpt lat="42.60759" lon="2.00864">
        <ele>2241.9</ele>
        <time>2021-08-01T12:58:45.000Z</time>
      </trkpt>
      <trkpt lat="42.60759" lon="2.00864">
        <ele>2241.8</ele>
        <time>2021-08-01T12:59:52.000Z</time>
      </trkpt>
      <trkpt lat="42.60759" lon="2.00864">
        <ele>2242.2</ele>
        <time>2021-08-01T12:59:55.000Z</time>
      </trkpt>
      <trkpt lat="42.60759" lon="2.00864">
        <ele>2242.3</ele>
        <time>2021-08-01T13:00:13.000Z</time>
      </trkpt>
      <trkpt lat="42.60767" lon="2.0087">
        <ele>2242</ele>
        <time>2021-08-01T13:00:24.000Z</time>
      </trkpt>
      <trkpt lat="42.60776" lon="2.00873">
        <ele>2241.6</ele>
        <time>2021-08-01T13:00:33.000Z</time>
      </trkpt>
      <trkpt lat="42.60785" lon="2.00869">
        <ele>2241.7</ele>
        <time>2021-08-01T13:00:42.000Z</time>
      </trkpt>
      <trkpt lat="42.60794" lon="2.00872">
        <ele>2241.3</ele>
        <time>2021-08-01T13:00:51.000Z</time>
      </trkpt>
      <trkpt lat="42.60804" lon="2.00874">
        <ele>2240.7</ele>
        <time>2021-08-01T13:00:59.000Z</time>
      </trkpt>
      <trkpt lat="42.60813" lon="2.00872">
        <ele>2240.2</ele>
        <time>2021-08-01T13:01:10.000Z</time>
      </trkpt>
      <trkpt lat="42.60823" lon="2.0087">
        <ele>2240.5</ele>
        <time>2021-08-01T13:01:19.000Z</time>
      </trkpt>
      <trkpt lat="42.60832" lon="2.0087">
        <ele>2240.5</ele>
        <time>2021-08-01T13:01:28.000Z</time>
      </trkpt>
      <trkpt lat="42.60842" lon="2.00871">
        <ele>2240.6</ele>
        <time>2021-08-01T13:01:37.000Z</time>
      </trkpt>
      <trkpt lat="42.60851" lon="2.00865">
        <ele>2241.6</ele>
        <time>2021-08-01T13:01:48.000Z</time>
      </trkpt>
      <trkpt lat="42.6086" lon="2.00862">
        <ele>2241</ele>
        <time>2021-08-01T13:01:58.000Z</time>
      </trkpt>
      <trkpt lat="42.60869" lon="2.00856">
        <ele>2241</ele>
        <time>2021-08-01T13:02:07.000Z</time>
      </trkpt>
      <trkpt lat="42.60878" lon="2.0085">
        <ele>2240.9</ele>
        <time>2021-08-01T13:02:17.000Z</time>
      </trkpt>
      <trkpt lat="42.60886" lon="2.00845">
        <ele>2240.3</ele>
        <time>2021-08-01T13:02:26.000Z</time>
      </trkpt>
      <trkpt lat="42.60892" lon="2.00836">
        <ele>2240.2</ele>
        <time>2021-08-01T13:02:35.000Z</time>
      </trkpt>
      <trkpt lat="42.609" lon="2.00827">
        <ele>2240.1</ele>
        <time>2021-08-01T13:02:45.000Z</time>
      </trkpt>
      <trkpt lat="42.60905" lon="2.00816">
        <ele>2240.1</ele>
        <time>2021-08-01T13:02:54.000Z</time>
      </trkpt>
      <trkpt lat="42.60907" lon="2.00804">
        <ele>2239.7</ele>
        <time>2021-08-01T13:03:04.000Z</time>
      </trkpt>
      <trkpt lat="42.60912" lon="2.00792">
        <ele>2239.7</ele>
        <time>2021-08-01T13:03:14.000Z</time>
      </trkpt>
      <trkpt lat="42.60918" lon="2.00782">
        <ele>2238.7</ele>
        <time>2021-08-01T13:03:23.000Z</time>
      </trkpt>
      <trkpt lat="42.60925" lon="2.00774">
        <ele>2237.8</ele>
        <time>2021-08-01T13:03:33.000Z</time>
      </trkpt>
      <trkpt lat="42.6093" lon="2.00767">
        <ele>2237.1</ele>
        <time>2021-08-01T13:03:42.000Z</time>
      </trkpt>
      <trkpt lat="42.6093" lon="2.00766">
        <ele>2237.2</ele>
        <time>2021-08-01T13:03:44.000Z</time>
      </trkpt>
      <trkpt lat="42.60937" lon="2.00758">
        <ele>2236.8</ele>
        <time>2021-08-01T13:03:55.000Z</time>
      </trkpt>
      <trkpt lat="42.60942" lon="2.00747">
        <ele>2236.4</ele>
        <time>2021-08-01T13:04:03.000Z</time>
      </trkpt>
      <trkpt lat="42.60947" lon="2.00737">
        <ele>2236.1</ele>
        <time>2021-08-01T13:04:11.000Z</time>
      </trkpt>
      <trkpt lat="42.60953" lon="2.00728">
        <ele>2236.3</ele>
        <time>2021-08-01T13:04:21.000Z</time>
      </trkpt>
      <trkpt lat="42.60959" lon="2.00722">
        <ele>2236.2</ele>
        <time>2021-08-01T13:04:31.000Z</time>
      </trkpt>
      <trkpt lat="42.60959" lon="2.00721">
        <ele>2235.9</ele>
        <time>2021-08-01T13:04:34.000Z</time>
      </trkpt>
      <trkpt lat="42.60964" lon="2.00711">
        <ele>2235.7</ele>
        <time>2021-08-01T13:04:44.000Z</time>
      </trkpt>
      <trkpt lat="42.60972" lon="2.00703">
        <ele>2235.7</ele>
        <time>2021-08-01T13:04:53.000Z</time>
      </trkpt>
      <trkpt lat="42.60979" lon="2.00697">
        <ele>2236.8</ele>
        <time>2021-08-01T13:05:04.000Z</time>
      </trkpt>
      <trkpt lat="42.60988" lon="2.00694">
        <ele>2237.2</ele>
        <time>2021-08-01T13:05:15.000Z</time>
      </trkpt>
      <trkpt lat="42.60992" lon="2.00694">
        <ele>2236.6</ele>
        <time>2021-08-01T13:05:22.000Z</time>
      </trkpt>
      <trkpt lat="42.60992" lon="2.00694">
        <ele>2236.7</ele>
        <time>2021-08-01T13:05:26.000Z</time>
      </trkpt>
      <trkpt lat="42.61001" lon="2.00698">
        <ele>2234.9</ele>
        <time>2021-08-01T13:05:38.000Z</time>
      </trkpt>
      <trkpt lat="42.61009" lon="2.00706">
        <ele>2232.7</ele>
        <time>2021-08-01T13:05:51.000Z</time>
      </trkpt>
      <trkpt lat="42.61015" lon="2.00715">
        <ele>2231.5</ele>
        <time>2021-08-01T13:06:02.000Z</time>
      </trkpt>
      <trkpt lat="42.61023" lon="2.00721">
        <ele>2229.9</ele>
        <time>2021-08-01T13:06:14.000Z</time>
      </trkpt>
      <trkpt lat="42.61033" lon="2.00724">
        <ele>2228.4</ele>
        <time>2021-08-01T13:06:25.000Z</time>
      </trkpt>
      <trkpt lat="42.61042" lon="2.00728">
        <ele>2226.8</ele>
        <time>2021-08-01T13:06:35.000Z</time>
      </trkpt>
      <trkpt lat="42.61051" lon="2.00734">
        <ele>2226.1</ele>
        <time>2021-08-01T13:06:44.000Z</time>
      </trkpt>
      <trkpt lat="42.61059" lon="2.0074">
        <ele>2225.4</ele>
        <time>2021-08-01T13:06:54.000Z</time>
      </trkpt>
      <trkpt lat="42.61065" lon="2.00749">
        <ele>2224.5</ele>
        <time>2021-08-01T13:07:04.000Z</time>
      </trkpt>
      <trkpt lat="42.61072" lon="2.00758">
        <ele>2223.6</ele>
        <time>2021-08-01T13:07:19.000Z</time>
      </trkpt>
      <trkpt lat="42.61079" lon="2.00765">
        <ele>2223.3</ele>
        <time>2021-08-01T13:07:29.000Z</time>
      </trkpt>
      <trkpt lat="42.61085" lon="2.00776">
        <ele>2223.4</ele>
        <time>2021-08-01T13:07:39.000Z</time>
      </trkpt>
      <trkpt lat="42.61089" lon="2.00787">
        <ele>2223.3</ele>
        <time>2021-08-01T13:07:49.000Z</time>
      </trkpt>
      <trkpt lat="42.61097" lon="2.00795">
        <ele>2221.9</ele>
        <time>2021-08-01T13:08:00.000Z</time>
      </trkpt>
      <trkpt lat="42.61104" lon="2.00805">
        <ele>2221.8</ele>
        <time>2021-08-01T13:08:10.000Z</time>
      </trkpt>
      <trkpt lat="42.61108" lon="2.00816">
        <ele>2221.5</ele>
        <time>2021-08-01T13:08:19.000Z</time>
      </trkpt>
      <trkpt lat="42.61114" lon="2.00825">
        <ele>2221</ele>
        <time>2021-08-01T13:08:30.000Z</time>
      </trkpt>
      <trkpt lat="42.61123" lon="2.0083">
        <ele>2220.6</ele>
        <time>2021-08-01T13:08:39.000Z</time>
      </trkpt>
      <trkpt lat="42.61132" lon="2.00834">
        <ele>2220.9</ele>
        <time>2021-08-01T13:08:48.000Z</time>
      </trkpt>
      <trkpt lat="42.61139" lon="2.00842">
        <ele>2220</ele>
        <time>2021-08-01T13:08:57.000Z</time>
      </trkpt>
      <trkpt lat="42.61144" lon="2.00853">
        <ele>2219.7</ele>
        <time>2021-08-01T13:09:06.000Z</time>
      </trkpt>
      <trkpt lat="42.6115" lon="2.00863">
        <ele>2219.1</ele>
        <time>2021-08-01T13:09:15.000Z</time>
      </trkpt>
      <trkpt lat="42.61156" lon="2.00873">
        <ele>2218.3</ele>
        <time>2021-08-01T13:09:25.000Z</time>
      </trkpt>
      <trkpt lat="42.61162" lon="2.00883">
        <ele>2217.1</ele>
        <time>2021-08-01T13:09:35.000Z</time>
      </trkpt>
      <trkpt lat="42.61169" lon="2.00893">
        <ele>2215.9</ele>
        <time>2021-08-01T13:09:44.000Z</time>
      </trkpt>
      <trkpt lat="42.61178" lon="2.00897">
        <ele>2214.8</ele>
        <time>2021-08-01T13:09:54.000Z</time>
      </trkpt>
      <trkpt lat="42.61186" lon="2.00903">
        <ele>2214.1</ele>
        <time>2021-08-01T13:10:03.000Z</time>
      </trkpt>
      <trkpt lat="42.61194" lon="2.00909">
        <ele>2214.1</ele>
        <time>2021-08-01T13:10:12.000Z</time>
      </trkpt>
      <trkpt lat="42.61203" lon="2.00914">
        <ele>2214.2</ele>
        <time>2021-08-01T13:10:21.000Z</time>
      </trkpt>
      <trkpt lat="42.61212" lon="2.00918">
        <ele>2214.5</ele>
        <time>2021-08-01T13:10:30.000Z</time>
      </trkpt>
      <trkpt lat="42.6122" lon="2.00926">
        <ele>2215.2</ele>
        <time>2021-08-01T13:10:39.000Z</time>
      </trkpt>
      <trkpt lat="42.61228" lon="2.00933">
        <ele>2215</ele>
        <time>2021-08-01T13:10:48.000Z</time>
      </trkpt>
      <trkpt lat="42.61235" lon="2.00941">
        <ele>2215.6</ele>
        <time>2021-08-01T13:10:57.000Z</time>
      </trkpt>
      <trkpt lat="42.61242" lon="2.00949">
        <ele>2215.4</ele>
        <time>2021-08-01T13:11:06.000Z</time>
      </trkpt>
      <trkpt lat="42.6125" lon="2.00956">
        <ele>2216.1</ele>
        <time>2021-08-01T13:11:16.000Z</time>
      </trkpt>
      <trkpt lat="42.61258" lon="2.00964">
        <ele>2216.4</ele>
        <time>2021-08-01T13:11:25.000Z</time>
      </trkpt>
      <trkpt lat="42.61265" lon="2.00972">
        <ele>2217.1</ele>
        <time>2021-08-01T13:11:35.000Z</time>
      </trkpt>
      <trkpt lat="42.61272" lon="2.00979">
        <ele>2217.8</ele>
        <time>2021-08-01T13:11:45.000Z</time>
      </trkpt>
      <trkpt lat="42.61281" lon="2.00986">
        <ele>2218.9</ele>
        <time>2021-08-01T13:11:56.000Z</time>
      </trkpt>
      <trkpt lat="42.61289" lon="2.00992">
        <ele>2219.6</ele>
        <time>2021-08-01T13:12:06.000Z</time>
      </trkpt>
      <trkpt lat="42.61299" lon="2.00994">
        <ele>2219.9</ele>
        <time>2021-08-01T13:12:16.000Z</time>
      </trkpt>
      <trkpt lat="42.61309" lon="2.00994">
        <ele>2220.2</ele>
        <time>2021-08-01T13:12:26.000Z</time>
      </trkpt>
      <trkpt lat="42.61318" lon="2.00992">
        <ele>2220.1</ele>
        <time>2021-08-01T13:12:35.000Z</time>
      </trkpt>
      <trkpt lat="42.61328" lon="2.0099">
        <ele>2219.9</ele>
        <time>2021-08-01T13:12:45.000Z</time>
      </trkpt>
      <trkpt lat="42.61337" lon="2.0099">
        <ele>2219.6</ele>
        <time>2021-08-01T13:12:55.000Z</time>
      </trkpt>
      <trkpt lat="42.61346" lon="2.00991">
        <ele>2219.7</ele>
        <time>2021-08-01T13:13:04.000Z</time>
      </trkpt>
      <trkpt lat="42.61356" lon="2.0099">
        <ele>2219.8</ele>
        <time>2021-08-01T13:13:14.000Z</time>
      </trkpt>
      <trkpt lat="42.61365" lon="2.00991">
        <ele>2219.7</ele>
        <time>2021-08-01T13:13:23.000Z</time>
      </trkpt>
      <trkpt lat="42.61374" lon="2.00991">
        <ele>2219.7</ele>
        <time>2021-08-01T13:13:32.000Z</time>
      </trkpt>
      <trkpt lat="42.61383" lon="2.00992">
        <ele>2219.3</ele>
        <time>2021-08-01T13:13:41.000Z</time>
      </trkpt>
      <trkpt lat="42.61393" lon="2.00994">
        <ele>2219.5</ele>
        <time>2021-08-01T13:13:50.000Z</time>
      </trkpt>
      <trkpt lat="42.61402" lon="2.00996">
        <ele>2220.6</ele>
        <time>2021-08-01T13:14:00.000Z</time>
      </trkpt>
      <trkpt lat="42.61411" lon="2.00994">
        <ele>2221</ele>
        <time>2021-08-01T13:14:10.000Z</time>
      </trkpt>
      <trkpt lat="42.6142" lon="2.0099">
        <ele>2221.7</ele>
        <time>2021-08-01T13:14:20.000Z</time>
      </trkpt>
      <trkpt lat="42.61424" lon="2.00986">
        <ele>2222.8</ele>
        <time>2021-08-01T13:14:29.000Z</time>
      </trkpt>
      <trkpt lat="42.61424" lon="2.00986">
        <ele>2222.8</ele>
        <time>2021-08-01T13:14:30.000Z</time>
      </trkpt>
      <trkpt lat="42.61434" lon="2.00984">
        <ele>2222.8</ele>
        <time>2021-08-01T13:14:41.000Z</time>
      </trkpt>
      <trkpt lat="42.61443" lon="2.00979">
        <ele>2222.3</ele>
        <time>2021-08-01T13:14:51.000Z</time>
      </trkpt>
      <trkpt lat="42.61452" lon="2.00978">
        <ele>2222.6</ele>
        <time>2021-08-01T13:15:01.000Z</time>
      </trkpt>
      <trkpt lat="42.6146" lon="2.00972">
        <ele>2224.2</ele>
        <time>2021-08-01T13:15:13.000Z</time>
      </trkpt>
      <trkpt lat="42.61466" lon="2.00962">
        <ele>2226.8</ele>
        <time>2021-08-01T13:15:28.000Z</time>
      </trkpt>
      <trkpt lat="42.61472" lon="2.00951">
        <ele>2226.5</ele>
        <time>2021-08-01T13:15:39.000Z</time>
      </trkpt>
      <trkpt lat="42.61479" lon="2.00941">
        <ele>2224.8</ele>
        <time>2021-08-01T13:15:51.000Z</time>
      </trkpt>
      <trkpt lat="42.61484" lon="2.0093">
        <ele>2224.4</ele>
        <time>2021-08-01T13:16:01.000Z</time>
      </trkpt>
      <trkpt lat="42.61492" lon="2.00922">
        <ele>2224.4</ele>
        <time>2021-08-01T13:16:11.000Z</time>
      </trkpt>
      <trkpt lat="42.615" lon="2.00916">
        <ele>2224.4</ele>
        <time>2021-08-01T13:16:21.000Z</time>
      </trkpt>
      <trkpt lat="42.61503" lon="2.0091">
        <ele>2224.6</ele>
        <time>2021-08-01T13:16:28.000Z</time>
      </trkpt>
      <trkpt lat="42.61503" lon="2.0091">
        <ele>2224.7</ele>
        <time>2021-08-01T13:16:30.000Z</time>
      </trkpt>
      <trkpt lat="42.61512" lon="2.0091">
        <ele>2224.7</ele>
        <time>2021-08-01T13:16:42.000Z</time>
      </trkpt>
      <trkpt lat="42.61517" lon="2.00914">
        <ele>2224.3</ele>
        <time>2021-08-01T13:16:54.000Z</time>
      </trkpt>
      <trkpt lat="42.61517" lon="2.00914">
        <ele>2224.1</ele>
        <time>2021-08-01T13:17:02.000Z</time>
      </trkpt>
      <trkpt lat="42.61526" lon="2.00913">
        <ele>2225.2</ele>
        <time>2021-08-01T13:17:15.000Z</time>
      </trkpt>
      <trkpt lat="42.61536" lon="2.00917">
        <ele>2226.4</ele>
        <time>2021-08-01T13:17:30.000Z</time>
      </trkpt>
      <trkpt lat="42.61544" lon="2.00924">
        <ele>2226.4</ele>
        <time>2021-08-01T13:17:42.000Z</time>
      </trkpt>
      <trkpt lat="42.61549" lon="2.00934">
        <ele>2226.1</ele>
        <time>2021-08-01T13:17:52.000Z</time>
      </trkpt>
      <trkpt lat="42.61555" lon="2.00943">
        <ele>2226.9</ele>
        <time>2021-08-01T13:18:03.000Z</time>
      </trkpt>
      <trkpt lat="42.61564" lon="2.00949">
        <ele>2227.5</ele>
        <time>2021-08-01T13:18:12.000Z</time>
      </trkpt>
      <trkpt lat="42.61571" lon="2.00955">
        <ele>2227.8</ele>
        <time>2021-08-01T13:18:23.000Z</time>
      </trkpt>
      <trkpt lat="42.61578" lon="2.00964">
        <ele>2228</ele>
        <time>2021-08-01T13:18:34.000Z</time>
      </trkpt>
      <trkpt lat="42.61582" lon="2.00975">
        <ele>2228.2</ele>
        <time>2021-08-01T13:18:44.000Z</time>
      </trkpt>
      <trkpt lat="42.6159" lon="2.00982">
        <ele>2228.7</ele>
        <time>2021-08-01T13:18:54.000Z</time>
      </trkpt>
      <trkpt lat="42.61594" lon="2.00994">
        <ele>2229.1</ele>
        <time>2021-08-01T13:19:05.000Z</time>
      </trkpt>
      <trkpt lat="42.616" lon="2.01002">
        <ele>2229.9</ele>
        <time>2021-08-01T13:19:17.000Z</time>
      </trkpt>
      <trkpt lat="42.616" lon="2.01002">
        <ele>2229.7</ele>
        <time>2021-08-01T13:19:20.000Z</time>
      </trkpt>
      <trkpt lat="42.61605" lon="2.01013">
        <ele>2229.8</ele>
        <time>2021-08-01T13:19:34.000Z</time>
      </trkpt>
      <trkpt lat="42.61609" lon="2.01025">
        <ele>2230.2</ele>
        <time>2021-08-01T13:19:48.000Z</time>
      </trkpt>
      <trkpt lat="42.6161" lon="2.01037">
        <ele>2229.6</ele>
        <time>2021-08-01T13:20:03.000Z</time>
      </trkpt>
      <trkpt lat="42.61615" lon="2.01049">
        <ele>2229.4</ele>
        <time>2021-08-01T13:20:15.000Z</time>
      </trkpt>
      <trkpt lat="42.61618" lon="2.01061">
        <ele>2229.2</ele>
        <time>2021-08-01T13:20:27.000Z</time>
      </trkpt>
      <trkpt lat="42.61619" lon="2.01063">
        <ele>2229.1</ele>
        <time>2021-08-01T13:20:33.000Z</time>
      </trkpt>
      <trkpt lat="42.61619" lon="2.01063">
        <ele>2229.2</ele>
        <time>2021-08-01T13:20:43.000Z</time>
      </trkpt>
      <trkpt lat="42.61619" lon="2.01063">
        <ele>2229.2</ele>
        <time>2021-08-01T13:20:45.000Z</time>
      </trkpt>
      <trkpt lat="42.61619" lon="2.01063">
        <ele>2229.1</ele>
        <time>2021-08-01T13:20:51.000Z</time>
      </trkpt>
      <trkpt lat="42.61619" lon="2.01063">
        <ele>2229.1</ele>
        <time>2021-08-01T13:20:52.000Z</time>
      </trkpt>
      <trkpt lat="42.61619" lon="2.01063">
        <ele>2229.3</ele>
        <time>2021-08-01T13:21:16.000Z</time>
      </trkpt>
      <trkpt lat="42.61619" lon="2.01063">
        <ele>2229.4</ele>
        <time>2021-08-01T13:21:17.000Z</time>
      </trkpt>
      <trkpt lat="42.61619" lon="2.01063">
        <ele>2229.4</ele>
        <time>2021-08-01T13:21:23.000Z</time>
      </trkpt>
      <trkpt lat="42.61619" lon="2.01063">
        <ele>2229.4</ele>
        <time>2021-08-01T13:21:24.000Z</time>
      </trkpt>
      <trkpt lat="42.61619" lon="2.01063">
        <ele>2229.4</ele>
        <time>2021-08-01T13:21:33.000Z</time>
      </trkpt>
      <trkpt lat="42.61619" lon="2.01064">
        <ele>2229.5</ele>
        <time>2021-08-01T13:21:34.000Z</time>
      </trkpt>
      <trkpt lat="42.61619" lon="2.01064">
        <ele>2228.7</ele>
        <time>2021-08-01T13:22:29.000Z</time>
      </trkpt>
      <trkpt lat="42.61621" lon="2.01071">
        <ele>2229.1</ele>
        <time>2021-08-01T13:22:40.000Z</time>
      </trkpt>
      <trkpt lat="42.61622" lon="2.01071">
        <ele>2229.3</ele>
        <time>2021-08-01T13:22:45.000Z</time>
      </trkpt>
      <trkpt lat="42.61627" lon="2.01082">
        <ele>2229.2</ele>
        <time>2021-08-01T13:22:55.000Z</time>
      </trkpt>
      <trkpt lat="42.61634" lon="2.0109">
        <ele>2230.7</ele>
        <time>2021-08-01T13:23:06.000Z</time>
      </trkpt>
      <trkpt lat="42.61642" lon="2.01096">
        <ele>2232.2</ele>
        <time>2021-08-01T13:23:18.000Z</time>
      </trkpt>
      <trkpt lat="42.61652" lon="2.01097">
        <ele>2233.1</ele>
        <time>2021-08-01T13:23:33.000Z</time>
      </trkpt>
      <trkpt lat="42.61661" lon="2.01096">
        <ele>2232.9</ele>
        <time>2021-08-01T13:23:44.000Z</time>
      </trkpt>
      <trkpt lat="42.6167" lon="2.01099">
        <ele>2232.8</ele>
        <time>2021-08-01T13:23:59.000Z</time>
      </trkpt>
      <trkpt lat="42.61673" lon="2.01093">
        <ele>2231.7</ele>
        <time>2021-08-01T13:24:07.000Z</time>
      </trkpt>
      <trkpt lat="42.61674" lon="2.01093">
        <ele>2231.8</ele>
        <time>2021-08-01T13:24:13.000Z</time>
      </trkpt>
      <trkpt lat="42.61683" lon="2.01094">
        <ele>2232.7</ele>
        <time>2021-08-01T13:24:25.000Z</time>
      </trkpt>
      <trkpt lat="42.61688" lon="2.01106">
        <ele>2233.2</ele>
        <time>2021-08-01T13:24:37.000Z</time>
      </trkpt>
      <trkpt lat="42.61695" lon="2.01115">
        <ele>2232</ele>
        <time>2021-08-01T13:24:49.000Z</time>
      </trkpt>
      <trkpt lat="42.61703" lon="2.01121">
        <ele>2232.3</ele>
        <time>2021-08-01T13:25:00.000Z</time>
      </trkpt>
      <trkpt lat="42.61712" lon="2.01124">
        <ele>2233.4</ele>
        <time>2021-08-01T13:25:12.000Z</time>
      </trkpt>
      <trkpt lat="42.61721" lon="2.01129">
        <ele>2234</ele>
        <time>2021-08-01T13:25:24.000Z</time>
      </trkpt>
      <trkpt lat="42.6173" lon="2.01125">
        <ele>2234</ele>
        <time>2021-08-01T13:25:38.000Z</time>
      </trkpt>
      <trkpt lat="42.61739" lon="2.01123">
        <ele>2231.9</ele>
        <time>2021-08-01T13:25:53.000Z</time>
      </trkpt>
      <trkpt lat="42.61748" lon="2.01123">
        <ele>2232.3</ele>
        <time>2021-08-01T13:26:03.000Z</time>
      </trkpt>
      <trkpt lat="42.61757" lon="2.01122">
        <ele>2232.6</ele>
        <time>2021-08-01T13:26:16.000Z</time>
      </trkpt>
      <trkpt lat="42.61767" lon="2.01121">
        <ele>2230.8</ele>
        <time>2021-08-01T13:26:29.000Z</time>
      </trkpt>
      <trkpt lat="42.61776" lon="2.0112">
        <ele>2230.5</ele>
        <time>2021-08-01T13:26:38.000Z</time>
      </trkpt>
      <trkpt lat="42.61783" lon="2.01112">
        <ele>2231</ele>
        <time>2021-08-01T13:26:49.000Z</time>
      </trkpt>
      <trkpt lat="42.61783" lon="2.01098">
        <ele>2231.1</ele>
        <time>2021-08-01T13:27:00.000Z</time>
      </trkpt>
      <trkpt lat="42.6178" lon="2.01086">
        <ele>2231.5</ele>
        <time>2021-08-01T13:27:11.000Z</time>
      </trkpt>
      <trkpt lat="42.61782" lon="2.01073">
        <ele>2232.4</ele>
        <time>2021-08-01T13:27:22.000Z</time>
      </trkpt>
      <trkpt lat="42.61781" lon="2.0106">
        <ele>2232.7</ele>
        <time>2021-08-01T13:27:31.000Z</time>
      </trkpt>
      <trkpt lat="42.61784" lon="2.01048">
        <ele>2232.7</ele>
        <time>2021-08-01T13:27:43.000Z</time>
      </trkpt>
      <trkpt lat="42.61783" lon="2.01034">
        <ele>2232.2</ele>
        <time>2021-08-01T13:27:54.000Z</time>
      </trkpt>
      <trkpt lat="42.61788" lon="2.01023">
        <ele>2232.8</ele>
        <time>2021-08-01T13:28:03.000Z</time>
      </trkpt>
      <trkpt lat="42.61793" lon="2.01012">
        <ele>2232.7</ele>
        <time>2021-08-01T13:28:13.000Z</time>
      </trkpt>
      <trkpt lat="42.61795" lon="2.01">
        <ele>2233</ele>
        <time>2021-08-01T13:28:23.000Z</time>
      </trkpt>
      <trkpt lat="42.61797" lon="2.00988">
        <ele>2234</ele>
        <time>2021-08-01T13:28:33.000Z</time>
      </trkpt>
      <trkpt lat="42.618" lon="2.00975">
        <ele>2235.7</ele>
        <time>2021-08-01T13:28:47.000Z</time>
      </trkpt>
      <trkpt lat="42.61802" lon="2.00962">
        <ele>2236.7</ele>
        <time>2021-08-01T13:28:58.000Z</time>
      </trkpt>
      <trkpt lat="42.61806" lon="2.00951">
        <ele>2237.7</ele>
        <time>2021-08-01T13:29:09.000Z</time>
      </trkpt>
      <trkpt lat="42.61813" lon="2.00943">
        <ele>2237.9</ele>
        <time>2021-08-01T13:29:20.000Z</time>
      </trkpt>
      <trkpt lat="42.61823" lon="2.00947">
        <ele>2236.7</ele>
        <time>2021-08-01T13:29:31.000Z</time>
      </trkpt>
      <trkpt lat="42.61831" lon="2.00952">
        <ele>2236</ele>
        <time>2021-08-01T13:29:41.000Z</time>
      </trkpt>
      <trkpt lat="42.61841" lon="2.00954">
        <ele>2235.3</ele>
        <time>2021-08-01T13:29:50.000Z</time>
      </trkpt>
      <trkpt lat="42.6185" lon="2.00956">
        <ele>2235.1</ele>
        <time>2021-08-01T13:29:59.000Z</time>
      </trkpt>
      <trkpt lat="42.61859" lon="2.00956">
        <ele>2235.5</ele>
        <time>2021-08-01T13:30:09.000Z</time>
      </trkpt>
      <trkpt lat="42.61863" lon="2.00957">
        <ele>2236.7</ele>
        <time>2021-08-01T13:30:18.000Z</time>
      </trkpt>
      <trkpt lat="42.61863" lon="2.00957">
        <ele>2236.7</ele>
        <time>2021-08-01T13:30:22.000Z</time>
      </trkpt>
      <trkpt lat="42.6187" lon="2.00959">
        <ele>2239.6</ele>
        <time>2021-08-01T13:30:39.000Z</time>
      </trkpt>
      <trkpt lat="42.61871" lon="2.00958">
        <ele>2239.6</ele>
        <time>2021-08-01T13:30:42.000Z</time>
      </trkpt>
      <trkpt lat="42.61871" lon="2.00958">
        <ele>2240</ele>
        <time>2021-08-01T13:30:44.000Z</time>
      </trkpt>
      <trkpt lat="42.61871" lon="2.00957">
        <ele>2240.2</ele>
        <time>2021-08-01T13:30:45.000Z</time>
      </trkpt>
      <trkpt lat="42.61875" lon="2.00963">
        <ele>2243</ele>
        <time>2021-08-01T13:31:03.000Z</time>
      </trkpt>
      <trkpt lat="42.61875" lon="2.00963">
        <ele>2243.2</ele>
        <time>2021-08-01T13:31:10.000Z</time>
      </trkpt>
      <trkpt lat="42.61875" lon="2.00963">
        <ele>2243.1</ele>
        <time>2021-08-01T13:31:13.000Z</time>
      </trkpt>
      <trkpt lat="42.61875" lon="2.00963">
        <ele>2243.1</ele>
        <time>2021-08-01T13:31:16.000Z</time>
      </trkpt>
      <trkpt lat="42.61875" lon="2.00964">
        <ele>2242.7</ele>
        <time>2021-08-01T13:31:19.000Z</time>
      </trkpt>
      <trkpt lat="42.61875" lon="2.00964">
        <ele>2242.3</ele>
        <time>2021-08-01T13:33:38.000Z</time>
      </trkpt>
      <trkpt lat="42.61875" lon="2.00964">
        <ele>2242.3</ele>
        <time>2021-08-01T13:33:39.000Z</time>
      </trkpt>
      <trkpt lat="42.61875" lon="2.00964">
        <ele>2242</ele>
        <time>2021-08-01T13:34:45.000Z</time>
      </trkpt>
      <trkpt lat="42.61875" lon="2.00964">
        <ele>2242.2</ele>
        <time>2021-08-01T13:34:47.000Z</time>
      </trkpt>
      <trkpt lat="42.61875" lon="2.00964">
        <ele>2242.2</ele>
        <time>2021-08-01T13:34:48.000Z</time>
      </trkpt>
      <trkpt lat="42.61876" lon="2.00968">
        <ele>2243</ele>
        <time>2021-08-01T13:34:58.000Z</time>
      </trkpt>
      <trkpt lat="42.61877" lon="2.00968">
        <ele>2242.8</ele>
        <time>2021-08-01T13:35:06.000Z</time>
      </trkpt>
      <trkpt lat="42.61878" lon="2.00969">
        <ele>2243</ele>
        <time>2021-08-01T13:35:10.000Z</time>
      </trkpt>
      <trkpt lat="42.61878" lon="2.00969">
        <ele>2243.1</ele>
        <time>2021-08-01T13:35:18.000Z</time>
      </trkpt>
      <trkpt lat="42.61887" lon="2.00969">
        <ele>2244.7</ele>
        <time>2021-08-01T13:35:34.000Z</time>
      </trkpt>
      <trkpt lat="42.61889" lon="2.00957">
        <ele>2247.4</ele>
        <time>2021-08-01T13:35:55.000Z</time>
      </trkpt>
      <trkpt lat="42.61898" lon="2.00958">
        <ele>2249.3</ele>
        <time>2021-08-01T13:36:16.000Z</time>
      </trkpt>
      <trkpt lat="42.61903" lon="2.00969">
        <ele>2248.5</ele>
        <time>2021-08-01T13:36:27.000Z</time>
      </trkpt>
      <trkpt lat="42.61912" lon="2.00975">
        <ele>2246.5</ele>
        <time>2021-08-01T13:36:41.000Z</time>
      </trkpt>
      <trkpt lat="42.61919" lon="2.00983">
        <ele>2245.5</ele>
        <time>2021-08-01T13:36:51.000Z</time>
      </trkpt>
      <trkpt lat="42.61926" lon="2.00992">
        <ele>2245.1</ele>
        <time>2021-08-01T13:37:01.000Z</time>
      </trkpt>
      <trkpt lat="42.61934" lon="2.01001">
        <ele>2244.8</ele>
        <time>2021-08-01T13:37:10.000Z</time>
      </trkpt>
      <trkpt lat="42.61938" lon="2.01013">
        <ele>2244.5</ele>
        <time>2021-08-01T13:37:19.000Z</time>
      </trkpt>
      <trkpt lat="42.61943" lon="2.01025">
        <ele>2244.7</ele>
        <time>2021-08-01T13:37:28.000Z</time>
      </trkpt>
      <trkpt lat="42.6195" lon="2.01034">
        <ele>2244.7</ele>
        <time>2021-08-01T13:37:38.000Z</time>
      </trkpt>
      <trkpt lat="42.61956" lon="2.01044">
        <ele>2243.6</ele>
        <time>2021-08-01T13:37:48.000Z</time>
      </trkpt>
      <trkpt lat="42.6196" lon="2.01055">
        <ele>2243</ele>
        <time>2021-08-01T13:37:58.000Z</time>
      </trkpt>
      <trkpt lat="42.61964" lon="2.01067">
        <ele>2241.5</ele>
        <time>2021-08-01T13:38:11.000Z</time>
      </trkpt>
      <trkpt lat="42.61971" lon="2.01075">
        <ele>2240.5</ele>
        <time>2021-08-01T13:38:25.000Z</time>
      </trkpt>
      <trkpt lat="42.61975" lon="2.01087">
        <ele>2242.5</ele>
        <time>2021-08-01T13:38:39.000Z</time>
      </trkpt>
      <trkpt lat="42.61983" lon="2.01093">
        <ele>2243.6</ele>
        <time>2021-08-01T13:38:49.000Z</time>
      </trkpt>
      <trkpt lat="42.61989" lon="2.01103">
        <ele>2244</ele>
        <time>2021-08-01T13:39:00.000Z</time>
      </trkpt>
      <trkpt lat="42.61998" lon="2.01108">
        <ele>2244.9</ele>
        <time>2021-08-01T13:39:11.000Z</time>
      </trkpt>
      <trkpt lat="42.62007" lon="2.01111">
        <ele>2245.9</ele>
        <time>2021-08-01T13:39:21.000Z</time>
      </trkpt>
      <trkpt lat="42.62016" lon="2.01115">
        <ele>2247</ele>
        <time>2021-08-01T13:39:33.000Z</time>
      </trkpt>
      <trkpt lat="42.62025" lon="2.01117">
        <ele>2247.2</ele>
        <time>2021-08-01T13:39:44.000Z</time>
      </trkpt>
      <trkpt lat="42.62034" lon="2.0112">
        <ele>2246.9</ele>
        <time>2021-08-01T13:39:53.000Z</time>
      </trkpt>
      <trkpt lat="42.62042" lon="2.01125">
        <ele>2246.6</ele>
        <time>2021-08-01T13:40:02.000Z</time>
      </trkpt>
      <trkpt lat="42.62051" lon="2.01131">
        <ele>2246.4</ele>
        <time>2021-08-01T13:40:13.000Z</time>
      </trkpt>
      <trkpt lat="42.6206" lon="2.01133">
        <ele>2246.6</ele>
        <time>2021-08-01T13:40:25.000Z</time>
      </trkpt>
      <trkpt lat="42.62065" lon="2.01132">
        <ele>2245.6</ele>
        <time>2021-08-01T13:40:34.000Z</time>
      </trkpt>
      <trkpt lat="42.62066" lon="2.01132">
        <ele>2245.4</ele>
        <time>2021-08-01T13:40:35.000Z</time>
      </trkpt>
      <trkpt lat="42.62075" lon="2.01137">
        <ele>2245.7</ele>
        <time>2021-08-01T13:40:45.000Z</time>
      </trkpt>
      <trkpt lat="42.62084" lon="2.01135">
        <ele>2246.4</ele>
        <time>2021-08-01T13:40:55.000Z</time>
      </trkpt>
      <trkpt lat="42.62093" lon="2.01138">
        <ele>2246.7</ele>
        <time>2021-08-01T13:41:07.000Z</time>
      </trkpt>
      <trkpt lat="42.62102" lon="2.01144">
        <ele>2247.5</ele>
        <time>2021-08-01T13:41:17.000Z</time>
      </trkpt>
      <trkpt lat="42.62111" lon="2.01143">
        <ele>2247.2</ele>
        <time>2021-08-01T13:41:35.000Z</time>
      </trkpt>
      <trkpt lat="42.62119" lon="2.01138">
        <ele>2245.8</ele>
        <time>2021-08-01T13:41:45.000Z</time>
      </trkpt>
      <trkpt lat="42.62129" lon="2.01139">
        <ele>2245.2</ele>
        <time>2021-08-01T13:41:54.000Z</time>
      </trkpt>
      <trkpt lat="42.62138" lon="2.01141">
        <ele>2245.7</ele>
        <time>2021-08-01T13:42:03.000Z</time>
      </trkpt>
      <trkpt lat="42.62147" lon="2.01139">
        <ele>2245.6</ele>
        <time>2021-08-01T13:42:14.000Z</time>
      </trkpt>
      <trkpt lat="42.62155" lon="2.01132">
        <ele>2246.1</ele>
        <time>2021-08-01T13:42:24.000Z</time>
      </trkpt>
      <trkpt lat="42.62165" lon="2.01132">
        <ele>2246.7</ele>
        <time>2021-08-01T13:42:33.000Z</time>
      </trkpt>
      <trkpt lat="42.62174" lon="2.01128">
        <ele>2248.4</ele>
        <time>2021-08-01T13:42:43.000Z</time>
      </trkpt>
      <trkpt lat="42.62182" lon="2.01121">
        <ele>2249.9</ele>
        <time>2021-08-01T13:42:54.000Z</time>
      </trkpt>
      <trkpt lat="42.62184" lon="2.01116">
        <ele>2249.8</ele>
        <time>2021-08-01T13:43:00.000Z</time>
      </trkpt>
      <trkpt lat="42.62184" lon="2.01116">
        <ele>2249.7</ele>
        <time>2021-08-01T13:43:01.000Z</time>
      </trkpt>
      <trkpt lat="42.62191" lon="2.01106">
        <ele>2250.3</ele>
        <time>2021-08-01T13:43:12.000Z</time>
      </trkpt>
      <trkpt lat="42.62194" lon="2.01107">
        <ele>2249.7</ele>
        <time>2021-08-01T13:43:21.000Z</time>
      </trkpt>
      <trkpt lat="42.62194" lon="2.01107">
        <ele>2249.8</ele>
        <time>2021-08-01T13:43:22.000Z</time>
      </trkpt>
      <trkpt lat="42.62194" lon="2.01107">
        <ele>2249.9</ele>
        <time>2021-08-01T13:43:23.000Z</time>
      </trkpt>
      <trkpt lat="42.62194" lon="2.01107">
        <ele>2249.4</ele>
        <time>2021-08-01T13:49:40.000Z</time>
      </trkpt>
      <trkpt lat="42.62194" lon="2.01107">
        <ele>2249.5</ele>
        <time>2021-08-01T13:49:41.000Z</time>
      </trkpt>
      <trkpt lat="42.62194" lon="2.01107">
        <ele>2249.1</ele>
        <time>2021-08-01T13:50:18.000Z</time>
      </trkpt>
      <trkpt lat="42.62194" lon="2.01107">
        <ele>2249.1</ele>
        <time>2021-08-01T13:50:19.000Z</time>
      </trkpt>
      <trkpt lat="42.62194" lon="2.01107">
        <ele>2249.2</ele>
        <time>2021-08-01T13:50:33.000Z</time>
      </trkpt>
      <trkpt lat="42.62194" lon="2.01107">
        <ele>2249.1</ele>
        <time>2021-08-01T13:50:34.000Z</time>
      </trkpt>
      <trkpt lat="42.62194" lon="2.01107">
        <ele>2248.9</ele>
        <time>2021-08-01T13:51:18.000Z</time>
      </trkpt>
      <trkpt lat="42.62194" lon="2.01107">
        <ele>2249</ele>
        <time>2021-08-01T13:51:19.000Z</time>
      </trkpt>
      <trkpt lat="42.62194" lon="2.01107">
        <ele>2248.5</ele>
        <time>2021-08-01T13:59:09.000Z</time>
      </trkpt>
      <trkpt lat="42.62194" lon="2.01107">
        <ele>2248.5</ele>
        <time>2021-08-01T13:59:10.000Z</time>
      </trkpt>
      <trkpt lat="42.62194" lon="2.01107">
        <ele>2248.8</ele>
        <time>2021-08-01T14:07:53.000Z</time>
      </trkpt>
      <trkpt lat="42.62194" lon="2.01107">
        <ele>2248.7</ele>
        <time>2021-08-01T14:07:54.000Z</time>
      </trkpt>
      <trkpt lat="42.62194" lon="2.01107">
        <ele>2248.6</ele>
        <time>2021-08-01T14:09:46.000Z</time>
      </trkpt>
      <trkpt lat="42.62195" lon="2.01106">
        <ele>2249</ele>
        <time>2021-08-01T14:09:49.000Z</time>
      </trkpt>
      <trkpt lat="42.62195" lon="2.01106">
        <ele>2249.1</ele>
        <time>2021-08-01T14:09:50.000Z</time>
      </trkpt>
      <trkpt lat="42.62195" lon="2.01106">
        <ele>2249.1</ele>
        <time>2021-08-01T14:09:51.000Z</time>
      </trkpt>
      <trkpt lat="42.62195" lon="2.01106">
        <ele>2249.2</ele>
        <time>2021-08-01T14:09:53.000Z</time>
      </trkpt>
      <trkpt lat="42.62195" lon="2.01106">
        <ele>2249.3</ele>
        <time>2021-08-01T14:09:54.000Z</time>
      </trkpt>
      <trkpt lat="42.62195" lon="2.01105">
        <ele>2249.1</ele>
        <time>2021-08-01T14:09:56.000Z</time>
      </trkpt>
      <trkpt lat="42.62195" lon="2.01104">
        <ele>2249.1</ele>
        <time>2021-08-01T14:09:58.000Z</time>
      </trkpt>
      <trkpt lat="42.62194" lon="2.01105">
        <ele>2249.1</ele>
        <time>2021-08-01T14:10:21.000Z</time>
      </trkpt>
      <trkpt lat="42.62188" lon="2.01114">
        <ele>2249.5</ele>
        <time>2021-08-01T14:10:30.000Z</time>
      </trkpt>
      <trkpt lat="42.62184" lon="2.01126">
        <ele>2249.2</ele>
        <time>2021-08-01T14:10:38.000Z</time>
      </trkpt>
      <trkpt lat="42.62176" lon="2.01134">
        <ele>2248.4</ele>
        <time>2021-08-01T14:10:47.000Z</time>
      </trkpt>
      <trkpt lat="42.6217" lon="2.01143">
        <ele>2247.9</ele>
        <time>2021-08-01T14:10:56.000Z</time>
      </trkpt>
      <trkpt lat="42.62162" lon="2.01151">
        <ele>2247.8</ele>
        <time>2021-08-01T14:11:05.000Z</time>
      </trkpt>
      <trkpt lat="42.62153" lon="2.01157">
        <ele>2247.3</ele>
        <time>2021-08-01T14:11:14.000Z</time>
      </trkpt>
      <trkpt lat="42.62144" lon="2.01161">
        <ele>2246.8</ele>
        <time>2021-08-01T14:11:22.000Z</time>
      </trkpt>
      <trkpt lat="42.62135" lon="2.01164">
        <ele>2246.7</ele>
        <time>2021-08-01T14:11:31.000Z</time>
      </trkpt>
      <trkpt lat="42.62127" lon="2.01169">
        <ele>2248.7</ele>
        <time>2021-08-01T14:11:41.000Z</time>
      </trkpt>
      <trkpt lat="42.62122" lon="2.01179">
        <ele>2250.9</ele>
        <time>2021-08-01T14:11:53.000Z</time>
      </trkpt>
      <trkpt lat="42.62123" lon="2.01185">
        <ele>2251.7</ele>
        <time>2021-08-01T14:12:01.000Z</time>
      </trkpt>
      <trkpt lat="42.62122" lon="2.01184">
        <ele>2251.6</ele>
        <time>2021-08-01T14:12:02.000Z</time>
      </trkpt>
      <trkpt lat="42.62114" lon="2.01177">
        <ele>2250.3</ele>
        <time>2021-08-01T14:12:13.000Z</time>
      </trkpt>
      <trkpt lat="42.62105" lon="2.01175">
        <ele>2250.6</ele>
        <time>2021-08-01T14:12:21.000Z</time>
      </trkpt>
      <trkpt lat="42.62096" lon="2.01173">
        <ele>2251.5</ele>
        <time>2021-08-01T14:12:32.000Z</time>
      </trkpt>
      <trkpt lat="42.62089" lon="2.01183">
        <ele>2252.5</ele>
        <time>2021-08-01T14:12:46.000Z</time>
      </trkpt>
      <trkpt lat="42.62081" lon="2.0119">
        <ele>2253.8</ele>
        <time>2021-08-01T14:12:56.000Z</time>
      </trkpt>
      <trkpt lat="42.62072" lon="2.01194">
        <ele>2255</ele>
        <time>2021-08-01T14:13:06.000Z</time>
      </trkpt>
      <trkpt lat="42.62069" lon="2.01206">
        <ele>2255.6</ele>
        <time>2021-08-01T14:13:17.000Z</time>
      </trkpt>
      <trkpt lat="42.62072" lon="2.01218">
        <ele>2256.3</ele>
        <time>2021-08-01T14:13:29.000Z</time>
      </trkpt>
      <trkpt lat="42.62077" lon="2.01228">
        <ele>2254.7</ele>
        <time>2021-08-01T14:13:46.000Z</time>
      </trkpt>
      <trkpt lat="42.62077" lon="2.01228">
        <ele>2254.7</ele>
        <time>2021-08-01T14:13:47.000Z</time>
      </trkpt>
      <trkpt lat="42.62077" lon="2.01228">
        <ele>2254.7</ele>
        <time>2021-08-01T14:13:49.000Z</time>
      </trkpt>
      <trkpt lat="42.62077" lon="2.01228">
        <ele>2254.6</ele>
        <time>2021-08-01T14:13:50.000Z</time>
      </trkpt>
      <trkpt lat="42.62077" lon="2.01228">
        <ele>2254.1</ele>
        <time>2021-08-01T14:13:55.000Z</time>
      </trkpt>
      <trkpt lat="42.62076" lon="2.01227">
        <ele>2253.5</ele>
        <time>2021-08-01T14:13:58.000Z</time>
      </trkpt>
      <trkpt lat="42.62076" lon="2.01227">
        <ele>2254.2</ele>
        <time>2021-08-01T14:14:43.000Z</time>
      </trkpt>
      <trkpt lat="42.62076" lon="2.01227">
        <ele>2254.4</ele>
        <time>2021-08-01T14:14:45.000Z</time>
      </trkpt>
      <trkpt lat="42.62075" lon="2.01227">
        <ele>2254.3</ele>
        <time>2021-08-01T14:14:46.000Z</time>
      </trkpt>
      <trkpt lat="42.62076" lon="2.01228">
        <ele>2252.4</ele>
        <time>2021-08-01T14:14:50.000Z</time>
      </trkpt>
      <trkpt lat="42.62076" lon="2.01228">
        <ele>2256.2</ele>
        <time>2021-08-01T14:14:53.000Z</time>
      </trkpt>
      <trkpt lat="42.62075" lon="2.01227">
        <ele>2254.1</ele>
        <time>2021-08-01T14:15:00.000Z</time>
      </trkpt>
      <trkpt lat="42.62075" lon="2.01227">
        <ele>2253.4</ele>
        <time>2021-08-01T14:15:28.000Z</time>
      </trkpt>
      <trkpt lat="42.62075" lon="2.01226">
        <ele>2253.5</ele>
        <time>2021-08-01T14:15:29.000Z</time>
      </trkpt>
      <trkpt lat="42.62075" lon="2.01228">
        <ele>2253.6</ele>
        <time>2021-08-01T14:31:38.000Z</time>
      </trkpt>
      <trkpt lat="42.62075" lon="2.01228">
        <ele>2253.5</ele>
        <time>2021-08-01T14:31:39.000Z</time>
      </trkpt>
      <trkpt lat="42.62076" lon="2.01229">
        <ele>2253.6</ele>
        <time>2021-08-01T14:41:23.000Z</time>
      </trkpt>
      <trkpt lat="42.62075" lon="2.01229">
        <ele>2253.4</ele>
        <time>2021-08-01T14:41:25.000Z</time>
      </trkpt>
      <trkpt lat="42.62076" lon="2.01229">
        <ele>2252.7</ele>
        <time>2021-08-01T14:41:29.000Z</time>
      </trkpt>
      <trkpt lat="42.62076" lon="2.01229">
        <ele>2252.7</ele>
        <time>2021-08-01T14:41:30.000Z</time>
      </trkpt>
      <trkpt lat="42.62075" lon="2.01228">
        <ele>2252.8</ele>
        <time>2021-08-01T14:46:39.000Z</time>
      </trkpt>
      <trkpt lat="42.62075" lon="2.01228">
        <ele>2252.8</ele>
        <time>2021-08-01T14:46:40.000Z</time>
      </trkpt>
      <trkpt lat="42.62076" lon="2.01228">
        <ele>2252.2</ele>
        <time>2021-08-01T14:49:31.000Z</time>
      </trkpt>
      <trkpt lat="42.62075" lon="2.01228">
        <ele>2252.5</ele>
        <time>2021-08-01T14:49:33.000Z</time>
      </trkpt>
      <trkpt lat="42.62076" lon="2.01228">
        <ele>2252.1</ele>
        <time>2021-08-01T14:50:56.000Z</time>
      </trkpt>
      <trkpt lat="42.62076" lon="2.01228">
        <ele>2252.1</ele>
        <time>2021-08-01T14:50:57.000Z</time>
      </trkpt>
      <trkpt lat="42.62075" lon="2.01228">
        <ele>2252.4</ele>
        <time>2021-08-01T14:51:43.000Z</time>
      </trkpt>
      <trkpt lat="42.62075" lon="2.01228">
        <ele>2252.4</ele>
        <time>2021-08-01T14:51:44.000Z</time>
      </trkpt>
      <trkpt lat="42.62075" lon="2.01228">
        <ele>2252.1</ele>
        <time>2021-08-01T14:53:51.000Z</time>
      </trkpt>
      <trkpt lat="42.62075" lon="2.01228">
        <ele>2252.1</ele>
        <time>2021-08-01T14:53:53.000Z</time>
      </trkpt>
      <trkpt lat="42.62075" lon="2.01228">
        <ele>2252.1</ele>
        <time>2021-08-01T14:54:14.000Z</time>
      </trkpt>
      <trkpt lat="42.62075" lon="2.01228">
        <ele>2252.1</ele>
        <time>2021-08-01T14:54:15.000Z</time>
      </trkpt>
      <trkpt lat="42.62075" lon="2.01228">
        <ele>2251.1</ele>
        <time>2021-08-01T14:56:09.000Z</time>
      </trkpt>
      <trkpt lat="42.62075" lon="2.01228">
        <ele>2251.3</ele>
        <time>2021-08-01T14:56:10.000Z</time>
      </trkpt>
      <trkpt lat="42.62076" lon="2.01228">
        <ele>2251.7</ele>
        <time>2021-08-01T14:56:11.000Z</time>
      </trkpt>
      <trkpt lat="42.62076" lon="2.01228">
        <ele>2251.8</ele>
        <time>2021-08-01T14:56:12.000Z</time>
      </trkpt>
      <trkpt lat="42.62076" lon="2.01227">
        <ele>2252.1</ele>
        <time>2021-08-01T14:56:18.000Z</time>
      </trkpt>
      <trkpt lat="42.62076" lon="2.01227">
        <ele>2252.2</ele>
        <time>2021-08-01T14:56:19.000Z</time>
      </trkpt>
      <trkpt lat="42.62076" lon="2.01228">
        <ele>2252.2</ele>
        <time>2021-08-01T14:56:35.000Z</time>
      </trkpt>
      <trkpt lat="42.62076" lon="2.01228">
        <ele>2252.2</ele>
        <time>2021-08-01T14:56:37.000Z</time>
      </trkpt>
      <trkpt lat="42.62075" lon="2.01228">
        <ele>2251.2</ele>
        <time>2021-08-01T14:56:59.000Z</time>
      </trkpt>
      <trkpt lat="42.62076" lon="2.01229">
        <ele>2249.3</ele>
        <time>2021-08-01T14:57:03.000Z</time>
      </trkpt>
      <trkpt lat="42.62076" lon="2.01229">
        <ele>2253.4</ele>
        <time>2021-08-01T14:57:20.000Z</time>
      </trkpt>
      <trkpt lat="42.62076" lon="2.01229">
        <ele>2254.6</ele>
        <time>2021-08-01T14:57:22.000Z</time>
      </trkpt>
      <trkpt lat="42.62076" lon="2.0123">
        <ele>2251.4</ele>
        <time>2021-08-01T14:57:26.000Z</time>
      </trkpt>
      <trkpt lat="42.62076" lon="2.0123">
        <ele>2250.7</ele>
        <time>2021-08-01T14:57:28.000Z</time>
      </trkpt>
      <trkpt lat="42.62076" lon="2.0123">
        <ele>2252.9</ele>
        <time>2021-08-01T14:57:29.000Z</time>
      </trkpt>
      <trkpt lat="42.62074" lon="2.01231">
        <ele>2252.5</ele>
        <time>2021-08-01T14:57:38.000Z</time>
      </trkpt>
      <trkpt lat="42.62074" lon="2.01231">
        <ele>2251.5</ele>
        <time>2021-08-01T14:58:41.000Z</time>
      </trkpt>
      <trkpt lat="42.62074" lon="2.01231">
        <ele>2251.6</ele>
        <time>2021-08-01T14:58:42.000Z</time>
      </trkpt>
      <trkpt lat="42.62074" lon="2.01231">
        <ele>2251.7</ele>
        <time>2021-08-01T14:59:13.000Z</time>
      </trkpt>
      <trkpt lat="42.62074" lon="2.01231">
        <ele>2251.6</ele>
        <time>2021-08-01T14:59:14.000Z</time>
      </trkpt>
      <trkpt lat="42.62074" lon="2.01231">
        <ele>2251.8</ele>
        <time>2021-08-01T14:59:36.000Z</time>
      </trkpt>
      <trkpt lat="42.62074" lon="2.01231">
        <ele>2251.9</ele>
        <time>2021-08-01T14:59:37.000Z</time>
      </trkpt>
      <trkpt lat="42.62074" lon="2.01231">
        <ele>2248.3</ele>
        <time>2021-08-01T15:00:57.000Z</time>
      </trkpt>
      <trkpt lat="42.62075" lon="2.0123">
        <ele>2251.5</ele>
        <time>2021-08-01T15:01:01.000Z</time>
      </trkpt>
      <trkpt lat="42.62075" lon="2.0123">
        <ele>2251.3</ele>
        <time>2021-08-01T15:01:02.000Z</time>
      </trkpt>
      <trkpt lat="42.62075" lon="2.0123">
        <ele>2251.8</ele>
        <time>2021-08-01T15:01:03.000Z</time>
      </trkpt>
      <trkpt lat="42.62075" lon="2.01229">
        <ele>2249.4</ele>
        <time>2021-08-01T15:01:14.000Z</time>
      </trkpt>
      <trkpt lat="42.62075" lon="2.01229">
        <ele>2249.5</ele>
        <time>2021-08-01T15:01:15.000Z</time>
      </trkpt>
      <trkpt lat="42.62075" lon="2.01229">
        <ele>2249.4</ele>
        <time>2021-08-01T15:01:21.000Z</time>
      </trkpt>
      <trkpt lat="42.62075" lon="2.01229">
        <ele>2249.4</ele>
        <time>2021-08-01T15:01:21.000Z</time>
      </trkpt>
      <trkpt lat="42.62185" lon="2.01115">
        <ele>2259.8</ele>
        <time>2021-08-02T06:45:10.000Z</time>
      </trkpt>
      <trkpt lat="42.62185" lon="2.01115">
        <ele>2259.5</ele>
        <time>2021-08-02T06:45:11.000Z</time>
      </trkpt>
      <trkpt lat="42.62185" lon="2.01115">
        <ele>2258</ele>
        <time>2021-08-02T06:45:14.000Z</time>
      </trkpt>
      <trkpt lat="42.62185" lon="2.01115">
        <ele>2257.8</ele>
        <time>2021-08-02T06:45:15.000Z</time>
      </trkpt>
      <trkpt lat="42.62185" lon="2.01115">
        <ele>2257.6</ele>
        <time>2021-08-02T06:45:16.000Z</time>
      </trkpt>
      <trkpt lat="42.62185" lon="2.01115">
        <ele>2256.9</ele>
        <time>2021-08-02T06:45:19.000Z</time>
      </trkpt>
      <trkpt lat="42.62185" lon="2.01115">
        <ele>2258.4</ele>
        <time>2021-08-02T06:45:31.000Z</time>
      </trkpt>
      <trkpt lat="42.62185" lon="2.01115">
        <ele>2256.8</ele>
        <time>2021-08-02T06:45:32.000Z</time>
      </trkpt>
      <trkpt lat="42.62185" lon="2.01115">
        <ele>2256.8</ele>
        <time>2021-08-02T06:45:35.000Z</time>
      </trkpt>
      <trkpt lat="42.62185" lon="2.01115">
        <ele>2256.7</ele>
        <time>2021-08-02T06:45:36.000Z</time>
      </trkpt>
      <trkpt lat="42.62185" lon="2.01115">
        <ele>2259.8</ele>
        <time>2021-08-02T06:45:53.000Z</time>
      </trkpt>
      <trkpt lat="42.62185" lon="2.01115">
        <ele>2259.1</ele>
        <time>2021-08-02T06:45:55.000Z</time>
      </trkpt>
      <trkpt lat="42.62185" lon="2.01115">
        <ele>2259.6</ele>
        <time>2021-08-02T06:46:00.000Z</time>
      </trkpt>
      <trkpt lat="42.62185" lon="2.01114">
        <ele>2260.4</ele>
        <time>2021-08-02T06:46:05.000Z</time>
      </trkpt>
      <trkpt lat="42.62185" lon="2.01114">
        <ele>2260.4</ele>
        <time>2021-08-02T06:46:05.000Z</time>
      </trkpt>
      <trkpt lat="42.62185" lon="2.01114">
        <ele>2260.4</ele>
        <time>2021-08-02T06:46:06.000Z</time>
      </trkpt>
      <trkpt lat="42.62185" lon="2.01114">
        <ele>2260.6</ele>
        <time>2021-08-02T06:46:07.000Z</time>
      </trkpt>
      <trkpt lat="42.62185" lon="2.01114">
        <ele>2261.4</ele>
        <time>2021-08-02T06:46:18.000Z</time>
      </trkpt>
      <trkpt lat="42.62185" lon="2.01114">
        <ele>2261.5</ele>
        <time>2021-08-02T06:46:19.000Z</time>
      </trkpt>
      <trkpt lat="42.62185" lon="2.01115">
        <ele>2261.5</ele>
        <time>2021-08-02T06:46:32.000Z</time>
      </trkpt>
      <trkpt lat="42.62185" lon="2.01115">
        <ele>2261.6</ele>
        <time>2021-08-02T06:46:33.000Z</time>
      </trkpt>
      <trkpt lat="42.62185" lon="2.01115">
        <ele>2261.4</ele>
        <time>2021-08-02T06:47:04.000Z</time>
      </trkpt>
      <trkpt lat="42.62185" lon="2.01115">
        <ele>2261.4</ele>
        <time>2021-08-02T06:47:05.000Z</time>
      </trkpt>
      <trkpt lat="42.62185" lon="2.01115">
        <ele>2261.4</ele>
        <time>2021-08-02T06:47:09.000Z</time>
      </trkpt>
      <trkpt lat="42.62185" lon="2.01115">
        <ele>2261.5</ele>
        <time>2021-08-02T06:47:10.000Z</time>
      </trkpt>
      <trkpt lat="42.62185" lon="2.01115">
        <ele>2261.4</ele>
        <time>2021-08-02T06:47:24.000Z</time>
      </trkpt>
      <trkpt lat="42.62186" lon="2.01114">
        <ele>2261.2</ele>
        <time>2021-08-02T06:47:28.000Z</time>
      </trkpt>
      <trkpt lat="42.62186" lon="2.01114">
        <ele>2261.3</ele>
        <time>2021-08-02T06:47:51.000Z</time>
      </trkpt>
      <trkpt lat="42.62187" lon="2.01114">
        <ele>2261.5</ele>
        <time>2021-08-02T06:47:55.000Z</time>
      </trkpt>
      <trkpt lat="42.62187" lon="2.01114">
        <ele>2261.6</ele>
        <time>2021-08-02T06:47:58.000Z</time>
      </trkpt>
      <trkpt lat="42.62187" lon="2.01114">
        <ele>2261.3</ele>
        <time>2021-08-02T06:48:02.000Z</time>
      </trkpt>
      <trkpt lat="42.62187" lon="2.01114">
        <ele>2261.4</ele>
        <time>2021-08-02T06:48:03.000Z</time>
      </trkpt>
      <trkpt lat="42.62187" lon="2.01114">
        <ele>2261.4</ele>
        <time>2021-08-02T06:48:04.000Z</time>
      </trkpt>
      <trkpt lat="42.62187" lon="2.01114">
        <ele>2261.6</ele>
        <time>2021-08-02T06:48:08.000Z</time>
      </trkpt>
      <trkpt lat="42.62193" lon="2.01104">
        <ele>2261.5</ele>
        <time>2021-08-02T06:48:19.000Z</time>
      </trkpt>
      <trkpt lat="42.62201" lon="2.01096">
        <ele>2261.9</ele>
        <time>2021-08-02T06:48:28.000Z</time>
      </trkpt>
      <trkpt lat="42.6221" lon="2.01094">
        <ele>2262.2</ele>
        <time>2021-08-02T06:48:38.000Z</time>
      </trkpt>
      <trkpt lat="42.6222" lon="2.01094">
        <ele>2261.8</ele>
        <time>2021-08-02T06:48:48.000Z</time>
      </trkpt>
      <trkpt lat="42.62229" lon="2.01092">
        <ele>2260.7</ele>
        <time>2021-08-02T06:48:58.000Z</time>
      </trkpt>
      <trkpt lat="42.62238" lon="2.01091">
        <ele>2259.4</ele>
        <time>2021-08-02T06:49:06.000Z</time>
      </trkpt>
      <trkpt lat="42.62247" lon="2.01091">
        <ele>2258.6</ele>
        <time>2021-08-02T06:49:14.000Z</time>
      </trkpt>
      <trkpt lat="42.62256" lon="2.01094">
        <ele>2258.7</ele>
        <time>2021-08-02T06:49:23.000Z</time>
      </trkpt>
      <trkpt lat="42.62265" lon="2.01094">
        <ele>2258.7</ele>
        <time>2021-08-02T06:49:34.000Z</time>
      </trkpt>
      <trkpt lat="42.62274" lon="2.01093">
        <ele>2261.1</ele>
        <time>2021-08-02T06:49:56.000Z</time>
      </trkpt>
      <trkpt lat="42.62283" lon="2.01091">
        <ele>2262.4</ele>
        <time>2021-08-02T06:50:09.000Z</time>
      </trkpt>
      <trkpt lat="42.62292" lon="2.01087">
        <ele>2262.3</ele>
        <time>2021-08-02T06:50:20.000Z</time>
      </trkpt>
      <trkpt lat="42.62302" lon="2.01087">
        <ele>2262.1</ele>
        <time>2021-08-02T06:50:31.000Z</time>
      </trkpt>
      <trkpt lat="42.6231" lon="2.01083">
        <ele>2261.5</ele>
        <time>2021-08-02T06:50:47.000Z</time>
      </trkpt>
      <trkpt lat="42.62313" lon="2.01084">
        <ele>2262</ele>
        <time>2021-08-02T06:51:00.000Z</time>
      </trkpt>
      <trkpt lat="42.62314" lon="2.01084">
        <ele>2262.4</ele>
        <time>2021-08-02T06:51:07.000Z</time>
      </trkpt>
      <trkpt lat="42.62322" lon="2.01079">
        <ele>2263</ele>
        <time>2021-08-02T06:51:22.000Z</time>
      </trkpt>
      <trkpt lat="42.6233" lon="2.01073">
        <ele>2264.9</ele>
        <time>2021-08-02T06:51:34.000Z</time>
      </trkpt>
      <trkpt lat="42.62339" lon="2.01071">
        <ele>2267.1</ele>
        <time>2021-08-02T06:51:49.000Z</time>
      </trkpt>
      <trkpt lat="42.62347" lon="2.01078">
        <ele>2269.7</ele>
        <time>2021-08-02T06:52:04.000Z</time>
      </trkpt>
      <trkpt lat="42.62356" lon="2.01081">
        <ele>2271.2</ele>
        <time>2021-08-02T06:52:15.000Z</time>
      </trkpt>
      <trkpt lat="42.62365" lon="2.01084">
        <ele>2272.9</ele>
        <time>2021-08-02T06:52:28.000Z</time>
      </trkpt>
      <trkpt lat="42.6237" lon="2.01095">
        <ele>2273.4</ele>
        <time>2021-08-02T06:52:39.000Z</time>
      </trkpt>
      <trkpt lat="42.62377" lon="2.01104">
        <ele>2274.2</ele>
        <time>2021-08-02T06:52:50.000Z</time>
      </trkpt>
      <trkpt lat="42.62386" lon="2.0111">
        <ele>2275</ele>
        <time>2021-08-02T06:53:00.000Z</time>
      </trkpt>
      <trkpt lat="42.62395" lon="2.01111">
        <ele>2275.4</ele>
        <time>2021-08-02T06:53:10.000Z</time>
      </trkpt>
      <trkpt lat="42.62404" lon="2.01116">
        <ele>2276.3</ele>
        <time>2021-08-02T06:53:23.000Z</time>
      </trkpt>
      <trkpt lat="42.62413" lon="2.01116">
        <ele>2276.9</ele>
        <time>2021-08-02T06:53:35.000Z</time>
      </trkpt>
      <trkpt lat="42.62422" lon="2.01111">
        <ele>2277.6</ele>
        <time>2021-08-02T06:53:45.000Z</time>
      </trkpt>
      <trkpt lat="42.62431" lon="2.01107">
        <ele>2278.2</ele>
        <time>2021-08-02T06:53:57.000Z</time>
      </trkpt>
      <trkpt lat="42.6244" lon="2.01104">
        <ele>2278.1</ele>
        <time>2021-08-02T06:54:08.000Z</time>
      </trkpt>
      <trkpt lat="42.62449" lon="2.01102">
        <ele>2277.6</ele>
        <time>2021-08-02T06:54:18.000Z</time>
      </trkpt>
      <trkpt lat="42.62459" lon="2.01103">
        <ele>2277.4</ele>
        <time>2021-08-02T06:54:31.000Z</time>
      </trkpt>
      <trkpt lat="42.62467" lon="2.0111">
        <ele>2276.9</ele>
        <time>2021-08-02T06:54:41.000Z</time>
      </trkpt>
      <trkpt lat="42.62476" lon="2.01107">
        <ele>2276.6</ele>
        <time>2021-08-02T06:54:52.000Z</time>
      </trkpt>
      <trkpt lat="42.62486" lon="2.01104">
        <ele>2276.7</ele>
        <time>2021-08-02T06:55:02.000Z</time>
      </trkpt>
      <trkpt lat="42.62494" lon="2.01098">
        <ele>2276.8</ele>
        <time>2021-08-02T06:55:11.000Z</time>
      </trkpt>
      <trkpt lat="42.62496" lon="2.01086">
        <ele>2276.7</ele>
        <time>2021-08-02T06:55:22.000Z</time>
      </trkpt>
      <trkpt lat="42.62503" lon="2.01077">
        <ele>2275.6</ele>
        <time>2021-08-02T06:55:37.000Z</time>
      </trkpt>
      <trkpt lat="42.6251" lon="2.01071">
        <ele>2275</ele>
        <time>2021-08-02T06:55:49.000Z</time>
      </trkpt>
      <trkpt lat="42.62518" lon="2.01062">
        <ele>2274.8</ele>
        <time>2021-08-02T06:56:00.000Z</time>
      </trkpt>
      <trkpt lat="42.62526" lon="2.01055">
        <ele>2274.6</ele>
        <time>2021-08-02T06:56:09.000Z</time>
      </trkpt>
      <trkpt lat="42.62532" lon="2.01046">
        <ele>2274.6</ele>
        <time>2021-08-02T06:56:19.000Z</time>
      </trkpt>
      <trkpt lat="42.62532" lon="2.01045">
        <ele>2274.7</ele>
        <time>2021-08-02T06:56:23.000Z</time>
      </trkpt>
      <trkpt lat="42.62533" lon="2.01045">
        <ele>2274.7</ele>
        <time>2021-08-02T06:56:30.000Z</time>
      </trkpt>
      <trkpt lat="42.62539" lon="2.01036">
        <ele>2274.9</ele>
        <time>2021-08-02T06:56:41.000Z</time>
      </trkpt>
      <trkpt lat="42.62547" lon="2.01028">
        <ele>2275.7</ele>
        <time>2021-08-02T06:56:51.000Z</time>
      </trkpt>
      <trkpt lat="42.62554" lon="2.01019">
        <ele>2276.5</ele>
        <time>2021-08-02T06:57:01.000Z</time>
      </trkpt>
      <trkpt lat="42.62563" lon="2.01015">
        <ele>2277.3</ele>
        <time>2021-08-02T06:57:11.000Z</time>
      </trkpt>
      <trkpt lat="42.62572" lon="2.01018">
        <ele>2278.1</ele>
        <time>2021-08-02T06:57:21.000Z</time>
      </trkpt>
      <trkpt lat="42.62581" lon="2.01023">
        <ele>2279</ele>
        <time>2021-08-02T06:57:30.000Z</time>
      </trkpt>
      <trkpt lat="42.6259" lon="2.01028">
        <ele>2279.9</ele>
        <time>2021-08-02T06:57:40.000Z</time>
      </trkpt>
      <trkpt lat="42.62599" lon="2.01029">
        <ele>2280.9</ele>
        <time>2021-08-02T06:57:49.000Z</time>
      </trkpt>
      <trkpt lat="42.62608" lon="2.01034">
        <ele>2281.3</ele>
        <time>2021-08-02T06:57:59.000Z</time>
      </trkpt>
      <trkpt lat="42.62616" lon="2.01039">
        <ele>2282.2</ele>
        <time>2021-08-02T06:58:09.000Z</time>
      </trkpt>
      <trkpt lat="42.62624" lon="2.01046">
        <ele>2283.4</ele>
        <time>2021-08-02T06:58:19.000Z</time>
      </trkpt>
      <trkpt lat="42.62633" lon="2.01047">
        <ele>2284.7</ele>
        <time>2021-08-02T06:58:30.000Z</time>
      </trkpt>
      <trkpt lat="42.62643" lon="2.01048">
        <ele>2286.2</ele>
        <time>2021-08-02T06:58:41.000Z</time>
      </trkpt>
      <trkpt lat="42.62652" lon="2.0105">
        <ele>2287</ele>
        <time>2021-08-02T06:58:50.000Z</time>
      </trkpt>
      <trkpt lat="42.62661" lon="2.01048">
        <ele>2288.3</ele>
        <time>2021-08-02T06:59:02.000Z</time>
      </trkpt>
      <trkpt lat="42.62667" lon="2.01058">
        <ele>2290.8</ele>
        <time>2021-08-02T06:59:16.000Z</time>
      </trkpt>
      <trkpt lat="42.62675" lon="2.01065">
        <ele>2293.1</ele>
        <time>2021-08-02T06:59:29.000Z</time>
      </trkpt>
      <trkpt lat="42.62684" lon="2.01065">
        <ele>2295.3</ele>
        <time>2021-08-02T06:59:42.000Z</time>
      </trkpt>
      <trkpt lat="42.62693" lon="2.01062">
        <ele>2297.8</ele>
        <time>2021-08-02T06:59:57.000Z</time>
      </trkpt>
      <trkpt lat="42.62701" lon="2.01056">
        <ele>2298.5</ele>
        <time>2021-08-02T07:00:07.000Z</time>
      </trkpt>
      <trkpt lat="42.62709" lon="2.0105">
        <ele>2298.6</ele>
        <time>2021-08-02T07:00:16.000Z</time>
      </trkpt>
      <trkpt lat="42.62718" lon="2.01045">
        <ele>2299.1</ele>
        <time>2021-08-02T07:00:26.000Z</time>
      </trkpt>
      <trkpt lat="42.62727" lon="2.01038">
        <ele>2299.9</ele>
        <time>2021-08-02T07:00:37.000Z</time>
      </trkpt>
      <trkpt lat="42.62736" lon="2.01033">
        <ele>2300.6</ele>
        <time>2021-08-02T07:00:49.000Z</time>
      </trkpt>
      <trkpt lat="42.62744" lon="2.01025">
        <ele>2302.1</ele>
        <time>2021-08-02T07:01:00.000Z</time>
      </trkpt>
      <trkpt lat="42.62748" lon="2.01014">
        <ele>2302.7</ele>
        <time>2021-08-02T07:01:10.000Z</time>
      </trkpt>
      <trkpt lat="42.62753" lon="2.01003">
        <ele>2303.9</ele>
        <time>2021-08-02T07:01:20.000Z</time>
      </trkpt>
      <trkpt lat="42.62756" lon="2.00991">
        <ele>2304.5</ele>
        <time>2021-08-02T07:01:29.000Z</time>
      </trkpt>
      <trkpt lat="42.6276" lon="2.00979">
        <ele>2305.1</ele>
        <time>2021-08-02T07:01:38.000Z</time>
      </trkpt>
      <trkpt lat="42.62764" lon="2.00966">
        <ele>2305.3</ele>
        <time>2021-08-02T07:01:47.000Z</time>
      </trkpt>
      <trkpt lat="42.62769" lon="2.00955">
        <ele>2305</ele>
        <time>2021-08-02T07:01:56.000Z</time>
      </trkpt>
      <trkpt lat="42.62775" lon="2.00944">
        <ele>2304.6</ele>
        <time>2021-08-02T07:02:05.000Z</time>
      </trkpt>
      <trkpt lat="42.62783" lon="2.00935">
        <ele>2304.8</ele>
        <time>2021-08-02T07:02:14.000Z</time>
      </trkpt>
      <trkpt lat="42.62789" lon="2.00926">
        <ele>2304.7</ele>
        <time>2021-08-02T07:02:23.000Z</time>
      </trkpt>
      <trkpt lat="42.62798" lon="2.00921">
        <ele>2305.8</ele>
        <time>2021-08-02T07:02:33.000Z</time>
      </trkpt>
      <trkpt lat="42.62807" lon="2.0092">
        <ele>2306</ele>
        <time>2021-08-02T07:02:41.000Z</time>
      </trkpt>
      <trkpt lat="42.62817" lon="2.00916">
        <ele>2306.3</ele>
        <time>2021-08-02T07:02:51.000Z</time>
      </trkpt>
      <trkpt lat="42.62823" lon="2.00908">
        <ele>2307.1</ele>
        <time>2021-08-02T07:03:01.000Z</time>
      </trkpt>
      <trkpt lat="42.62829" lon="2.00897">
        <ele>2308.7</ele>
        <time>2021-08-02T07:03:11.000Z</time>
      </trkpt>
      <trkpt lat="42.62833" lon="2.00886">
        <ele>2309.9</ele>
        <time>2021-08-02T07:03:20.000Z</time>
      </trkpt>
      <trkpt lat="42.62838" lon="2.00875">
        <ele>2310.1</ele>
        <time>2021-08-02T07:03:29.000Z</time>
      </trkpt>
      <trkpt lat="42.62842" lon="2.00863">
        <ele>2310.1</ele>
        <time>2021-08-02T07:03:38.000Z</time>
      </trkpt>
      <trkpt lat="42.62846" lon="2.00852">
        <ele>2310.3</ele>
        <time>2021-08-02T07:03:46.000Z</time>
      </trkpt>
      <trkpt lat="42.62851" lon="2.00842">
        <ele>2310.7</ele>
        <time>2021-08-02T07:03:54.000Z</time>
      </trkpt>
      <trkpt lat="42.62859" lon="2.00833">
        <ele>2311.5</ele>
        <time>2021-08-02T07:04:03.000Z</time>
      </trkpt>
      <trkpt lat="42.62863" lon="2.00821">
        <ele>2312.2</ele>
        <time>2021-08-02T07:04:12.000Z</time>
      </trkpt>
      <trkpt lat="42.62869" lon="2.00811">
        <ele>2312.4</ele>
        <time>2021-08-02T07:04:22.000Z</time>
      </trkpt>
      <trkpt lat="42.62875" lon="2.00801">
        <ele>2312.6</ele>
        <time>2021-08-02T07:04:30.000Z</time>
      </trkpt>
      <trkpt lat="42.62881" lon="2.00791">
        <ele>2312.2</ele>
        <time>2021-08-02T07:04:38.000Z</time>
      </trkpt>
      <trkpt lat="42.62888" lon="2.00783">
        <ele>2311.9</ele>
        <time>2021-08-02T07:04:48.000Z</time>
      </trkpt>
      <trkpt lat="42.62896" lon="2.00774">
        <ele>2311.9</ele>
        <time>2021-08-02T07:04:57.000Z</time>
      </trkpt>
      <trkpt lat="42.62901" lon="2.00763">
        <ele>2312.1</ele>
        <time>2021-08-02T07:05:05.000Z</time>
      </trkpt>
      <trkpt lat="42.62904" lon="2.00758">
        <ele>2312.5</ele>
        <time>2021-08-02T07:05:13.000Z</time>
      </trkpt>
      <trkpt lat="42.62904" lon="2.00757">
        <ele>2312.6</ele>
        <time>2021-08-02T07:05:32.000Z</time>
      </trkpt>
      <trkpt lat="42.6291" lon="2.00746">
        <ele>2313</ele>
        <time>2021-08-02T07:05:45.000Z</time>
      </trkpt>
      <trkpt lat="42.62917" lon="2.00738">
        <ele>2313.3</ele>
        <time>2021-08-02T07:05:53.000Z</time>
      </trkpt>
      <trkpt lat="42.62922" lon="2.00726">
        <ele>2313.2</ele>
        <time>2021-08-02T07:06:01.000Z</time>
      </trkpt>
      <trkpt lat="42.62926" lon="2.00715">
        <ele>2313.4</ele>
        <time>2021-08-02T07:06:09.000Z</time>
      </trkpt>
      <trkpt lat="42.62931" lon="2.00703">
        <ele>2313.6</ele>
        <time>2021-08-02T07:06:17.000Z</time>
      </trkpt>
      <trkpt lat="42.62936" lon="2.00693">
        <ele>2313.7</ele>
        <time>2021-08-02T07:06:25.000Z</time>
      </trkpt>
      <trkpt lat="42.6294" lon="2.00681">
        <ele>2313.6</ele>
        <time>2021-08-02T07:06:33.000Z</time>
      </trkpt>
      <trkpt lat="42.62946" lon="2.0067">
        <ele>2314</ele>
        <time>2021-08-02T07:06:41.000Z</time>
      </trkpt>
      <trkpt lat="42.62951" lon="2.00658">
        <ele>2314.6</ele>
        <time>2021-08-02T07:06:49.000Z</time>
      </trkpt>
      <trkpt lat="42.62956" lon="2.00647">
        <ele>2315</ele>
        <time>2021-08-02T07:06:57.000Z</time>
      </trkpt>
      <trkpt lat="42.62961" lon="2.00637">
        <ele>2315.2</ele>
        <time>2021-08-02T07:07:05.000Z</time>
      </trkpt>
      <trkpt lat="42.62966" lon="2.00626">
        <ele>2315.3</ele>
        <time>2021-08-02T07:07:13.000Z</time>
      </trkpt>
      <trkpt lat="42.62971" lon="2.00615">
        <ele>2315.4</ele>
        <time>2021-08-02T07:07:21.000Z</time>
      </trkpt>
      <trkpt lat="42.62978" lon="2.00605">
        <ele>2316.2</ele>
        <time>2021-08-02T07:07:30.000Z</time>
      </trkpt>
      <trkpt lat="42.62986" lon="2.00598">
        <ele>2317.7</ele>
        <time>2021-08-02T07:07:39.000Z</time>
      </trkpt>
      <trkpt lat="42.62995" lon="2.00593">
        <ele>2318.8</ele>
        <time>2021-08-02T07:07:48.000Z</time>
      </trkpt>
      <trkpt lat="42.63004" lon="2.0059">
        <ele>2319.9</ele>
        <time>2021-08-02T07:07:58.000Z</time>
      </trkpt>
      <trkpt lat="42.63013" lon="2.00586">
        <ele>2321</ele>
        <time>2021-08-02T07:08:07.000Z</time>
      </trkpt>
      <trkpt lat="42.63023" lon="2.00583">
        <ele>2321.8</ele>
        <time>2021-08-02T07:08:16.000Z</time>
      </trkpt>
      <trkpt lat="42.63031" lon="2.00576">
        <ele>2322.7</ele>
        <time>2021-08-02T07:08:24.000Z</time>
      </trkpt>
      <trkpt lat="42.63039" lon="2.0057">
        <ele>2323.4</ele>
        <time>2021-08-02T07:08:32.000Z</time>
      </trkpt>
      <trkpt lat="42.63049" lon="2.00564">
        <ele>2324.1</ele>
        <time>2021-08-02T07:08:41.000Z</time>
      </trkpt>
      <trkpt lat="42.63058" lon="2.0056">
        <ele>2324.6</ele>
        <time>2021-08-02T07:08:49.000Z</time>
      </trkpt>
      <trkpt lat="42.63066" lon="2.00555">
        <ele>2325.1</ele>
        <time>2021-08-02T07:08:57.000Z</time>
      </trkpt>
      <trkpt lat="42.63074" lon="2.0055">
        <ele>2325.7</ele>
        <time>2021-08-02T07:09:05.000Z</time>
      </trkpt>
      <trkpt lat="42.63082" lon="2.00544">
        <ele>2326.4</ele>
        <time>2021-08-02T07:09:13.000Z</time>
      </trkpt>
      <trkpt lat="42.6309" lon="2.00536">
        <ele>2327</ele>
        <time>2021-08-02T07:09:21.000Z</time>
      </trkpt>
      <trkpt lat="42.63098" lon="2.00528">
        <ele>2327.2</ele>
        <time>2021-08-02T07:09:29.000Z</time>
      </trkpt>
      <trkpt lat="42.63104" lon="2.0052">
        <ele>2327.9</ele>
        <time>2021-08-02T07:09:38.000Z</time>
      </trkpt>
      <trkpt lat="42.63108" lon="2.00508">
        <ele>2330.1</ele>
        <time>2021-08-02T07:09:49.000Z</time>
      </trkpt>
      <trkpt lat="42.63113" lon="2.00498">
        <ele>2331.7</ele>
        <time>2021-08-02T07:09:58.000Z</time>
      </trkpt>
      <trkpt lat="42.63118" lon="2.00487">
        <ele>2332.4</ele>
        <time>2021-08-02T07:10:06.000Z</time>
      </trkpt>
      <trkpt lat="42.63124" lon="2.00477">
        <ele>2332.7</ele>
        <time>2021-08-02T07:10:14.000Z</time>
      </trkpt>
      <trkpt lat="42.63129" lon="2.00467">
        <ele>2333.1</ele>
        <time>2021-08-02T07:10:22.000Z</time>
      </trkpt>
      <trkpt lat="42.63135" lon="2.00457">
        <ele>2333.3</ele>
        <time>2021-08-02T07:10:30.000Z</time>
      </trkpt>
      <trkpt lat="42.63142" lon="2.00448">
        <ele>2333.8</ele>
        <time>2021-08-02T07:10:38.000Z</time>
      </trkpt>
      <trkpt lat="42.63149" lon="2.00438">
        <ele>2334</ele>
        <time>2021-08-02T07:10:47.000Z</time>
      </trkpt>
      <trkpt lat="42.63153" lon="2.00426">
        <ele>2335.1</ele>
        <time>2021-08-02T07:10:56.000Z</time>
      </trkpt>
      <trkpt lat="42.6316" lon="2.00418">
        <ele>2337</ele>
        <time>2021-08-02T07:11:07.000Z</time>
      </trkpt>
      <trkpt lat="42.63165" lon="2.00407">
        <ele>2340</ele>
        <time>2021-08-02T07:11:21.000Z</time>
      </trkpt>
      <trkpt lat="42.63168" lon="2.00403">
        <ele>2341.8</ele>
        <time>2021-08-02T07:11:29.000Z</time>
      </trkpt>
      <trkpt lat="42.63168" lon="2.00403">
        <ele>2342.1</ele>
        <time>2021-08-02T07:11:35.000Z</time>
      </trkpt>
      <trkpt lat="42.63168" lon="2.00403">
        <ele>2342.1</ele>
        <time>2021-08-02T07:11:36.000Z</time>
      </trkpt>
      <trkpt lat="42.63168" lon="2.00403">
        <ele>2342.9</ele>
        <time>2021-08-02T07:11:46.000Z</time>
      </trkpt>
      <trkpt lat="42.63168" lon="2.00403">
        <ele>2342.9</ele>
        <time>2021-08-02T07:11:47.000Z</time>
      </trkpt>
      <trkpt lat="42.63169" lon="2.00403">
        <ele>2342.9</ele>
        <time>2021-08-02T07:11:59.000Z</time>
      </trkpt>
      <trkpt lat="42.63169" lon="2.00403">
        <ele>2342.9</ele>
        <time>2021-08-02T07:12:00.000Z</time>
      </trkpt>
      <trkpt lat="42.63168" lon="2.00403">
        <ele>2343.4</ele>
        <time>2021-08-02T07:12:46.000Z</time>
      </trkpt>
      <trkpt lat="42.63168" lon="2.00403">
        <ele>2343.2</ele>
        <time>2021-08-02T07:12:48.000Z</time>
      </trkpt>
      <trkpt lat="42.63168" lon="2.00403">
        <ele>2343.5</ele>
        <time>2021-08-02T07:12:50.000Z</time>
      </trkpt>
      <trkpt lat="42.63168" lon="2.00404">
        <ele>2343.8</ele>
        <time>2021-08-02T07:12:54.000Z</time>
      </trkpt>
      <trkpt lat="42.63168" lon="2.00404">
        <ele>2344</ele>
        <time>2021-08-02T07:12:58.000Z</time>
      </trkpt>
      <trkpt lat="42.63168" lon="2.00404">
        <ele>2343.7</ele>
        <time>2021-08-02T07:13:01.000Z</time>
      </trkpt>
      <trkpt lat="42.63168" lon="2.00404">
        <ele>2343.7</ele>
        <time>2021-08-02T07:13:02.000Z</time>
      </trkpt>
      <trkpt lat="42.63168" lon="2.00404">
        <ele>2343.6</ele>
        <time>2021-08-02T07:13:05.000Z</time>
      </trkpt>
      <trkpt lat="42.63168" lon="2.00404">
        <ele>2343.4</ele>
        <time>2021-08-02T07:13:58.000Z</time>
      </trkpt>
      <trkpt lat="42.63168" lon="2.00404">
        <ele>2343.3</ele>
        <time>2021-08-02T07:13:59.000Z</time>
      </trkpt>
      <trkpt lat="42.63168" lon="2.00404">
        <ele>2342.9</ele>
        <time>2021-08-02T07:15:08.000Z</time>
      </trkpt>
      <trkpt lat="42.63168" lon="2.00404">
        <ele>2342.7</ele>
        <time>2021-08-02T07:15:10.000Z</time>
      </trkpt>
      <trkpt lat="42.63168" lon="2.00404">
        <ele>2342.8</ele>
        <time>2021-08-02T07:15:14.000Z</time>
      </trkpt>
      <trkpt lat="42.63168" lon="2.00404">
        <ele>2342.7</ele>
        <time>2021-08-02T07:15:15.000Z</time>
      </trkpt>
      <trkpt lat="42.63168" lon="2.00404">
        <ele>2342.7</ele>
        <time>2021-08-02T07:15:17.000Z</time>
      </trkpt>
      <trkpt lat="42.63168" lon="2.00404">
        <ele>2343</ele>
        <time>2021-08-02T07:15:20.000Z</time>
      </trkpt>
      <trkpt lat="42.63168" lon="2.00404">
        <ele>2342.8</ele>
        <time>2021-08-02T07:15:23.000Z</time>
      </trkpt>
      <trkpt lat="42.63168" lon="2.00404">
        <ele>2342.8</ele>
        <time>2021-08-02T07:15:25.000Z</time>
      </trkpt>
      <trkpt lat="42.63168" lon="2.00404">
        <ele>2342.5</ele>
        <time>2021-08-02T07:15:27.000Z</time>
      </trkpt>
      <trkpt lat="42.63168" lon="2.00404">
        <ele>2342.6</ele>
        <time>2021-08-02T07:15:28.000Z</time>
      </trkpt>
      <trkpt lat="42.63168" lon="2.00405">
        <ele>2342.4</ele>
        <time>2021-08-02T07:15:37.000Z</time>
      </trkpt>
      <trkpt lat="42.63168" lon="2.00406">
        <ele>2342.4</ele>
        <time>2021-08-02T07:15:40.000Z</time>
      </trkpt>
      <trkpt lat="42.63168" lon="2.00406">
        <ele>2342.5</ele>
        <time>2021-08-02T07:16:04.000Z</time>
      </trkpt>
      <trkpt lat="42.63168" lon="2.00406">
        <ele>2342.5</ele>
        <time>2021-08-02T07:16:05.000Z</time>
      </trkpt>
      <trkpt lat="42.63168" lon="2.00406">
        <ele>2341.7</ele>
        <time>2021-08-02T07:17:11.000Z</time>
      </trkpt>
      <trkpt lat="42.63168" lon="2.00406">
        <ele>2341.7</ele>
        <time>2021-08-02T07:17:12.000Z</time>
      </trkpt>
      <trkpt lat="42.63168" lon="2.00406">
        <ele>2341.6</ele>
        <time>2021-08-02T07:17:34.000Z</time>
      </trkpt>
      <trkpt lat="42.63168" lon="2.00406">
        <ele>2341.7</ele>
        <time>2021-08-02T07:17:36.000Z</time>
      </trkpt>
      <trkpt lat="42.63168" lon="2.00406">
        <ele>2341.3</ele>
        <time>2021-08-02T07:17:41.000Z</time>
      </trkpt>
      <trkpt lat="42.63168" lon="2.00406">
        <ele>2341.5</ele>
        <time>2021-08-02T07:17:45.000Z</time>
      </trkpt>
      <trkpt lat="42.63168" lon="2.00405">
        <ele>2341</ele>
        <time>2021-08-02T07:17:47.000Z</time>
      </trkpt>
      <trkpt lat="42.63169" lon="2.00402">
        <ele>2341.4</ele>
        <time>2021-08-02T07:17:52.000Z</time>
      </trkpt>
      <trkpt lat="42.63169" lon="2.00402">
        <ele>2342.1</ele>
        <time>2021-08-02T07:17:58.000Z</time>
      </trkpt>
      <trkpt lat="42.6317" lon="2.00404">
        <ele>2342</ele>
        <time>2021-08-02T07:18:01.000Z</time>
      </trkpt>
      <trkpt lat="42.6317" lon="2.00404">
        <ele>2342</ele>
        <time>2021-08-02T07:18:02.000Z</time>
      </trkpt>
      <trkpt lat="42.6317" lon="2.00404">
        <ele>2342</ele>
        <time>2021-08-02T07:18:03.000Z</time>
      </trkpt>
      <trkpt lat="42.6317" lon="2.00404">
        <ele>2342.2</ele>
        <time>2021-08-02T07:18:05.000Z</time>
      </trkpt>
      <trkpt lat="42.63169" lon="2.00404">
        <ele>2342</ele>
        <time>2021-08-02T07:18:10.000Z</time>
      </trkpt>
      <trkpt lat="42.63169" lon="2.00404">
        <ele>2342.1</ele>
        <time>2021-08-02T07:18:11.000Z</time>
      </trkpt>
      <trkpt lat="42.63169" lon="2.00404">
        <ele>2342.1</ele>
        <time>2021-08-02T07:18:12.000Z</time>
      </trkpt>
      <trkpt lat="42.63169" lon="2.00404">
        <ele>2341.9</ele>
        <time>2021-08-02T07:18:18.000Z</time>
      </trkpt>
      <trkpt lat="42.63169" lon="2.00399">
        <ele>2342</ele>
        <time>2021-08-02T07:18:24.000Z</time>
      </trkpt>
      <trkpt lat="42.6317" lon="2.00399">
        <ele>2342.1</ele>
        <time>2021-08-02T07:18:26.000Z</time>
      </trkpt>
      <trkpt lat="42.6317" lon="2.00398">
        <ele>2341.9</ele>
        <time>2021-08-02T07:18:30.000Z</time>
      </trkpt>
      <trkpt lat="42.6317" lon="2.00398">
        <ele>2342</ele>
        <time>2021-08-02T07:18:31.000Z</time>
      </trkpt>
      <trkpt lat="42.63171" lon="2.00395">
        <ele>2342.5</ele>
        <time>2021-08-02T07:18:35.000Z</time>
      </trkpt>
      <trkpt lat="42.63171" lon="2.00394">
        <ele>2342.6</ele>
        <time>2021-08-02T07:18:37.000Z</time>
      </trkpt>
      <trkpt lat="42.63172" lon="2.00389">
        <ele>2342.8</ele>
        <time>2021-08-02T07:18:43.000Z</time>
      </trkpt>
      <trkpt lat="42.63172" lon="2.00389">
        <ele>2343</ele>
        <time>2021-08-02T07:18:45.000Z</time>
      </trkpt>
      <trkpt lat="42.63174" lon="2.00377">
        <ele>2343.7</ele>
        <time>2021-08-02T07:18:54.000Z</time>
      </trkpt>
      <trkpt lat="42.63179" lon="2.00365">
        <ele>2345</ele>
        <time>2021-08-02T07:19:04.000Z</time>
      </trkpt>
      <trkpt lat="42.63183" lon="2.00353">
        <ele>2346</ele>
        <time>2021-08-02T07:19:14.000Z</time>
      </trkpt>
      <trkpt lat="42.63189" lon="2.00342">
        <ele>2347.3</ele>
        <time>2021-08-02T07:19:24.000Z</time>
      </trkpt>
      <trkpt lat="42.63194" lon="2.00332">
        <ele>2347.8</ele>
        <time>2021-08-02T07:19:33.000Z</time>
      </trkpt>
      <trkpt lat="42.63201" lon="2.00322">
        <ele>2348.3</ele>
        <time>2021-08-02T07:19:43.000Z</time>
      </trkpt>
      <trkpt lat="42.63207" lon="2.00312">
        <ele>2348.5</ele>
        <time>2021-08-02T07:19:52.000Z</time>
      </trkpt>
      <trkpt lat="42.63213" lon="2.00302">
        <ele>2348.9</ele>
        <time>2021-08-02T07:20:01.000Z</time>
      </trkpt>
      <trkpt lat="42.63219" lon="2.00291">
        <ele>2349.4</ele>
        <time>2021-08-02T07:20:10.000Z</time>
      </trkpt>
      <trkpt lat="42.63224" lon="2.0028">
        <ele>2350.1</ele>
        <time>2021-08-02T07:20:19.000Z</time>
      </trkpt>
      <trkpt lat="42.6323" lon="2.0027">
        <ele>2350.7</ele>
        <time>2021-08-02T07:20:28.000Z</time>
      </trkpt>
      <trkpt lat="42.63234" lon="2.00258">
        <ele>2351.4</ele>
        <time>2021-08-02T07:20:37.000Z</time>
      </trkpt>
      <trkpt lat="42.63235" lon="2.00245">
        <ele>2352.7</ele>
        <time>2021-08-02T07:20:47.000Z</time>
      </trkpt>
      <trkpt lat="42.63239" lon="2.00234">
        <ele>2354.3</ele>
        <time>2021-08-02T07:20:57.000Z</time>
      </trkpt>
      <trkpt lat="42.63243" lon="2.00228">
        <ele>2355.1</ele>
        <time>2021-08-02T07:21:04.000Z</time>
      </trkpt>
      <trkpt lat="42.63242" lon="2.00228">
        <ele>2355.1</ele>
        <time>2021-08-02T07:21:05.000Z</time>
      </trkpt>
      <trkpt lat="42.63248" lon="2.00217">
        <ele>2356.2</ele>
        <time>2021-08-02T07:21:15.000Z</time>
      </trkpt>
      <trkpt lat="42.63256" lon="2.0021">
        <ele>2358</ele>
        <time>2021-08-02T07:21:25.000Z</time>
      </trkpt>
      <trkpt lat="42.63259" lon="2.00197">
        <ele>2359.6</ele>
        <time>2021-08-02T07:21:36.000Z</time>
      </trkpt>
      <trkpt lat="42.63262" lon="2.00185">
        <ele>2361.3</ele>
        <time>2021-08-02T07:21:46.000Z</time>
      </trkpt>
      <trkpt lat="42.63265" lon="2.00173">
        <ele>2362</ele>
        <time>2021-08-02T07:21:54.000Z</time>
      </trkpt>
      <trkpt lat="42.63269" lon="2.00161">
        <ele>2362.3</ele>
        <time>2021-08-02T07:22:03.000Z</time>
      </trkpt>
      <trkpt lat="42.63276" lon="2.00153">
        <ele>2362.2</ele>
        <time>2021-08-02T07:22:12.000Z</time>
      </trkpt>
      <trkpt lat="42.63285" lon="2.00149">
        <ele>2363.3</ele>
        <time>2021-08-02T07:22:21.000Z</time>
      </trkpt>
      <trkpt lat="42.63294" lon="2.00143">
        <ele>2364</ele>
        <time>2021-08-02T07:22:30.000Z</time>
      </trkpt>
      <trkpt lat="42.633" lon="2.00133">
        <ele>2364.7</ele>
        <time>2021-08-02T07:22:39.000Z</time>
      </trkpt>
      <trkpt lat="42.63307" lon="2.00124">
        <ele>2364.8</ele>
        <time>2021-08-02T07:22:48.000Z</time>
      </trkpt>
      <trkpt lat="42.63314" lon="2.00115">
        <ele>2364.8</ele>
        <time>2021-08-02T07:22:57.000Z</time>
      </trkpt>
      <trkpt lat="42.63322" lon="2.00107">
        <ele>2365.3</ele>
        <time>2021-08-02T07:23:06.000Z</time>
      </trkpt>
      <trkpt lat="42.6333" lon="2.00102">
        <ele>2365.6</ele>
        <time>2021-08-02T07:23:14.000Z</time>
      </trkpt>
      <trkpt lat="42.63338" lon="2.00095">
        <ele>2366.3</ele>
        <time>2021-08-02T07:23:23.000Z</time>
      </trkpt>
      <trkpt lat="42.63344" lon="2.00084">
        <ele>2366.9</ele>
        <time>2021-08-02T07:23:32.000Z</time>
      </trkpt>
      <trkpt lat="42.6335" lon="2.00074">
        <ele>2366.8</ele>
        <time>2021-08-02T07:23:41.000Z</time>
      </trkpt>
      <trkpt lat="42.63356" lon="2.00064">
        <ele>2367.2</ele>
        <time>2021-08-02T07:23:50.000Z</time>
      </trkpt>
      <trkpt lat="42.63362" lon="2.00055">
        <ele>2368.5</ele>
        <time>2021-08-02T07:23:59.000Z</time>
      </trkpt>
      <trkpt lat="42.63368" lon="2.00046">
        <ele>2369.8</ele>
        <time>2021-08-02T07:24:09.000Z</time>
      </trkpt>
      <trkpt lat="42.63374" lon="2.00035">
        <ele>2371</ele>
        <time>2021-08-02T07:24:19.000Z</time>
      </trkpt>
      <trkpt lat="42.63375" lon="2.00024">
        <ele>2371.9</ele>
        <time>2021-08-02T07:24:29.000Z</time>
      </trkpt>
      <trkpt lat="42.63375" lon="2.00024">
        <ele>2372</ele>
        <time>2021-08-02T07:24:32.000Z</time>
      </trkpt>
      <trkpt lat="42.63381" lon="2.00013">
        <ele>2372.3</ele>
        <time>2021-08-02T07:24:41.000Z</time>
      </trkpt>
      <trkpt lat="42.63387" lon="2.00004">
        <ele>2373.3</ele>
        <time>2021-08-02T07:24:50.000Z</time>
      </trkpt>
      <trkpt lat="42.6339" lon="1.99992">
        <ele>2374.7</ele>
        <time>2021-08-02T07:25:00.000Z</time>
      </trkpt>
      <trkpt lat="42.63393" lon="1.99979">
        <ele>2376.4</ele>
        <time>2021-08-02T07:25:11.000Z</time>
      </trkpt>
      <trkpt lat="42.63394" lon="1.99967">
        <ele>2377.4</ele>
        <time>2021-08-02T07:25:20.000Z</time>
      </trkpt>
      <trkpt lat="42.63394" lon="1.99954">
        <ele>2378.1</ele>
        <time>2021-08-02T07:25:30.000Z</time>
      </trkpt>
      <trkpt lat="42.63401" lon="1.99947">
        <ele>2377.9</ele>
        <time>2021-08-02T07:25:41.000Z</time>
      </trkpt>
      <trkpt lat="42.63403" lon="1.99934">
        <ele>2378.5</ele>
        <time>2021-08-02T07:25:51.000Z</time>
      </trkpt>
      <trkpt lat="42.63402" lon="1.99921">
        <ele>2379</ele>
        <time>2021-08-02T07:26:01.000Z</time>
      </trkpt>
      <trkpt lat="42.63401" lon="1.99908">
        <ele>2379.8</ele>
        <time>2021-08-02T07:26:11.000Z</time>
      </trkpt>
      <trkpt lat="42.63403" lon="1.99895">
        <ele>2381.4</ele>
        <time>2021-08-02T07:26:25.000Z</time>
      </trkpt>
      <trkpt lat="42.63407" lon="1.99884">
        <ele>2384</ele>
        <time>2021-08-02T07:26:37.000Z</time>
      </trkpt>
      <trkpt lat="42.6341" lon="1.99872">
        <ele>2386</ele>
        <time>2021-08-02T07:26:50.000Z</time>
      </trkpt>
      <trkpt lat="42.63407" lon="1.9986">
        <ele>2387.4</ele>
        <time>2021-08-02T07:27:02.000Z</time>
      </trkpt>
      <trkpt lat="42.63404" lon="1.99848">
        <ele>2389.8</ele>
        <time>2021-08-02T07:27:16.000Z</time>
      </trkpt>
      <trkpt lat="42.63406" lon="1.99836">
        <ele>2391.9</ele>
        <time>2021-08-02T07:27:29.000Z</time>
      </trkpt>
      <trkpt lat="42.63407" lon="1.99823">
        <ele>2393</ele>
        <time>2021-08-02T07:27:40.000Z</time>
      </trkpt>
      <trkpt lat="42.63406" lon="1.99819">
        <ele>2393.4</ele>
        <time>2021-08-02T07:27:46.000Z</time>
      </trkpt>
      <trkpt lat="42.63406" lon="1.99819">
        <ele>2393.5</ele>
        <time>2021-08-02T07:27:47.000Z</time>
      </trkpt>
      <trkpt lat="42.63405" lon="1.99819">
        <ele>2393.3</ele>
        <time>2021-08-02T07:27:49.000Z</time>
      </trkpt>
      <trkpt lat="42.63405" lon="1.99819">
        <ele>2393</ele>
        <time>2021-08-02T07:27:51.000Z</time>
      </trkpt>
      <trkpt lat="42.63401" lon="1.99809">
        <ele>2394.4</ele>
        <time>2021-08-02T07:28:02.000Z</time>
      </trkpt>
      <trkpt lat="42.634" lon="1.99796">
        <ele>2395.6</ele>
        <time>2021-08-02T07:28:12.000Z</time>
      </trkpt>
      <trkpt lat="42.634" lon="1.99783">
        <ele>2397.8</ele>
        <time>2021-08-02T07:28:26.000Z</time>
      </trkpt>
      <trkpt lat="42.63397" lon="1.99771">
        <ele>2400.4</ele>
        <time>2021-08-02T07:28:39.000Z</time>
      </trkpt>
      <trkpt lat="42.63393" lon="1.9976">
        <ele>2402</ele>
        <time>2021-08-02T07:28:50.000Z</time>
      </trkpt>
      <trkpt lat="42.6339" lon="1.99748">
        <ele>2404.2</ele>
        <time>2021-08-02T07:29:04.000Z</time>
      </trkpt>
      <trkpt lat="42.63389" lon="1.99735">
        <ele>2406.3</ele>
        <time>2021-08-02T07:29:19.000Z</time>
      </trkpt>
      <trkpt lat="42.63387" lon="1.99723">
        <ele>2408.6</ele>
        <time>2021-08-02T07:29:34.000Z</time>
      </trkpt>
      <trkpt lat="42.63386" lon="1.9971">
        <ele>2412.2</ele>
        <time>2021-08-02T07:29:51.000Z</time>
      </trkpt>
      <trkpt lat="42.63384" lon="1.99698">
        <ele>2415.4</ele>
        <time>2021-08-02T07:30:09.000Z</time>
      </trkpt>
      <trkpt lat="42.63383" lon="1.99685">
        <ele>2418.1</ele>
        <time>2021-08-02T07:30:22.000Z</time>
      </trkpt>
      <trkpt lat="42.63381" lon="1.99673">
        <ele>2421.1</ele>
        <time>2021-08-02T07:30:39.000Z</time>
      </trkpt>
      <trkpt lat="42.63383" lon="1.99661">
        <ele>2423.8</ele>
        <time>2021-08-02T07:30:54.000Z</time>
      </trkpt>
      <trkpt lat="42.63382" lon="1.99648">
        <ele>2425.7</ele>
        <time>2021-08-02T07:31:06.000Z</time>
      </trkpt>
      <trkpt lat="42.6338" lon="1.99636">
        <ele>2428.1</ele>
        <time>2021-08-02T07:31:22.000Z</time>
      </trkpt>
      <trkpt lat="42.63379" lon="1.99623">
        <ele>2430.1</ele>
        <time>2021-08-02T07:31:35.000Z</time>
      </trkpt>
      <trkpt lat="42.63377" lon="1.99611">
        <ele>2432.6</ele>
        <time>2021-08-02T07:31:50.000Z</time>
      </trkpt>
      <trkpt lat="42.63375" lon="1.99599">
        <ele>2435.3</ele>
        <time>2021-08-02T07:32:06.000Z</time>
      </trkpt>
      <trkpt lat="42.63379" lon="1.99595">
        <ele>2436.9</ele>
        <time>2021-08-02T07:32:20.000Z</time>
      </trkpt>
      <trkpt lat="42.63379" lon="1.99595">
        <ele>2436.9</ele>
        <time>2021-08-02T07:32:46.000Z</time>
      </trkpt>
      <trkpt lat="42.6338" lon="1.99596">
        <ele>2437</ele>
        <time>2021-08-02T07:32:49.000Z</time>
      </trkpt>
      <trkpt lat="42.6338" lon="1.99596">
        <ele>2436.9</ele>
        <time>2021-08-02T07:34:08.000Z</time>
      </trkpt>
      <trkpt lat="42.6338" lon="1.99596">
        <ele>2437</ele>
        <time>2021-08-02T07:34:09.000Z</time>
      </trkpt>
      <trkpt lat="42.6338" lon="1.99596">
        <ele>2436.5</ele>
        <time>2021-08-02T07:37:52.000Z</time>
      </trkpt>
      <trkpt lat="42.63384" lon="1.99593">
        <ele>2437.3</ele>
        <time>2021-08-02T07:38:07.000Z</time>
      </trkpt>
      <trkpt lat="42.63384" lon="1.99593">
        <ele>2437.3</ele>
        <time>2021-08-02T07:38:08.000Z</time>
      </trkpt>
      <trkpt lat="42.63389" lon="1.99581">
        <ele>2440.9</ele>
        <time>2021-08-02T07:38:18.000Z</time>
      </trkpt>
      <trkpt lat="42.63394" lon="1.99571">
        <ele>2443.9</ele>
        <time>2021-08-02T07:38:27.000Z</time>
      </trkpt>
      <trkpt lat="42.63399" lon="1.9956">
        <ele>2445.6</ele>
        <time>2021-08-02T07:38:40.000Z</time>
      </trkpt>
      <trkpt lat="42.63403" lon="1.99548">
        <ele>2447.2</ele>
        <time>2021-08-02T07:38:52.000Z</time>
      </trkpt>
      <trkpt lat="42.63404" lon="1.99535">
        <ele>2449.2</ele>
        <time>2021-08-02T07:39:05.000Z</time>
      </trkpt>
      <trkpt lat="42.63404" lon="1.99522">
        <ele>2450.6</ele>
        <time>2021-08-02T07:39:16.000Z</time>
      </trkpt>
      <trkpt lat="42.63405" lon="1.99509">
        <ele>2451.9</ele>
        <time>2021-08-02T07:39:26.000Z</time>
      </trkpt>
      <trkpt lat="42.6341" lon="1.99498">
        <ele>2452.7</ele>
        <time>2021-08-02T07:39:37.000Z</time>
      </trkpt>
      <trkpt lat="42.63411" lon="1.99488">
        <ele>2453.4</ele>
        <time>2021-08-02T07:39:47.000Z</time>
      </trkpt>
      <trkpt lat="42.63411" lon="1.99488">
        <ele>2453.4</ele>
        <time>2021-08-02T07:39:52.000Z</time>
      </trkpt>
      <trkpt lat="42.63409" lon="1.99476">
        <ele>2455</ele>
        <time>2021-08-02T07:40:04.000Z</time>
      </trkpt>
      <trkpt lat="42.63408" lon="1.99464">
        <ele>2457.3</ele>
        <time>2021-08-02T07:40:15.000Z</time>
      </trkpt>
      <trkpt lat="42.63404" lon="1.99452">
        <ele>2458.5</ele>
        <time>2021-08-02T07:40:27.000Z</time>
      </trkpt>
      <trkpt lat="42.63402" lon="1.9944">
        <ele>2460.4</ele>
        <time>2021-08-02T07:40:39.000Z</time>
      </trkpt>
      <trkpt lat="42.634" lon="1.99428">
        <ele>2462.5</ele>
        <time>2021-08-02T07:40:51.000Z</time>
      </trkpt>
      <trkpt lat="42.63397" lon="1.99416">
        <ele>2464.2</ele>
        <time>2021-08-02T07:41:02.000Z</time>
      </trkpt>
      <trkpt lat="42.63397" lon="1.99403">
        <ele>2466</ele>
        <time>2021-08-02T07:41:13.000Z</time>
      </trkpt>
      <trkpt lat="42.63399" lon="1.9939">
        <ele>2468.1</ele>
        <time>2021-08-02T07:41:24.000Z</time>
      </trkpt>
      <trkpt lat="42.63401" lon="1.99378">
        <ele>2469.7</ele>
        <time>2021-08-02T07:41:35.000Z</time>
      </trkpt>
      <trkpt lat="42.63405" lon="1.99366">
        <ele>2470.5</ele>
        <time>2021-08-02T07:41:45.000Z</time>
      </trkpt>
      <trkpt lat="42.6341" lon="1.99355">
        <ele>2471.5</ele>
        <time>2021-08-02T07:41:55.000Z</time>
      </trkpt>
      <trkpt lat="42.63413" lon="1.99342">
        <ele>2472.5</ele>
        <time>2021-08-02T07:42:05.000Z</time>
      </trkpt>
      <trkpt lat="42.63417" lon="1.99331">
        <ele>2473.1</ele>
        <time>2021-08-02T07:42:14.000Z</time>
      </trkpt>
      <trkpt lat="42.63422" lon="1.99319">
        <ele>2473.8</ele>
        <time>2021-08-02T07:42:24.000Z</time>
      </trkpt>
      <trkpt lat="42.63427" lon="1.99309">
        <ele>2475.5</ele>
        <time>2021-08-02T07:42:35.000Z</time>
      </trkpt>
      <trkpt lat="42.63431" lon="1.99297">
        <ele>2477.2</ele>
        <time>2021-08-02T07:42:46.000Z</time>
      </trkpt>
      <trkpt lat="42.63434" lon="1.99284">
        <ele>2478</ele>
        <time>2021-08-02T07:42:57.000Z</time>
      </trkpt>
      <trkpt lat="42.63436" lon="1.99271">
        <ele>2479.2</ele>
        <time>2021-08-02T07:43:07.000Z</time>
      </trkpt>
      <trkpt lat="42.63439" lon="1.99259">
        <ele>2480.9</ele>
        <time>2021-08-02T07:43:18.000Z</time>
      </trkpt>
      <trkpt lat="42.6344" lon="1.99247">
        <ele>2483.1</ele>
        <time>2021-08-02T07:43:31.000Z</time>
      </trkpt>
      <trkpt lat="42.63439" lon="1.99234">
        <ele>2485.5</ele>
        <time>2021-08-02T07:43:44.000Z</time>
      </trkpt>
      <trkpt lat="42.63441" lon="1.99221">
        <ele>2487.4</ele>
        <time>2021-08-02T07:43:57.000Z</time>
      </trkpt>
      <trkpt lat="42.63441" lon="1.99221">
        <ele>2487.5</ele>
        <time>2021-08-02T07:43:58.000Z</time>
      </trkpt>
      <trkpt lat="42.63441" lon="1.99221">
        <ele>2487.5</ele>
        <time>2021-08-02T07:44:01.000Z</time>
      </trkpt>
      <trkpt lat="42.63441" lon="1.99221">
        <ele>2487.7</ele>
        <time>2021-08-02T07:44:02.000Z</time>
      </trkpt>
      <trkpt lat="42.63441" lon="1.99221">
        <ele>2487.5</ele>
        <time>2021-08-02T07:44:11.000Z</time>
      </trkpt>
      <trkpt lat="42.63443" lon="1.99209">
        <ele>2489.7</ele>
        <time>2021-08-02T07:44:23.000Z</time>
      </trkpt>
      <trkpt lat="42.63443" lon="1.99196">
        <ele>2491.7</ele>
        <time>2021-08-02T07:44:35.000Z</time>
      </trkpt>
      <trkpt lat="42.63443" lon="1.99186">
        <ele>2493.7</ele>
        <time>2021-08-02T07:44:46.000Z</time>
      </trkpt>
      <trkpt lat="42.63443" lon="1.99186">
        <ele>2493.9</ele>
        <time>2021-08-02T07:44:51.000Z</time>
      </trkpt>
      <trkpt lat="42.63443" lon="1.99186">
        <ele>2494</ele>
        <time>2021-08-02T07:44:52.000Z</time>
      </trkpt>
      <trkpt lat="42.63443" lon="1.99186">
        <ele>2493.7</ele>
        <time>2021-08-02T07:45:10.000Z</time>
      </trkpt>
      <trkpt lat="42.63443" lon="1.99186">
        <ele>2493.8</ele>
        <time>2021-08-02T07:45:11.000Z</time>
      </trkpt>
      <trkpt lat="42.63443" lon="1.99185">
        <ele>2493.9</ele>
        <time>2021-08-02T07:45:16.000Z</time>
      </trkpt>
      <trkpt lat="42.63442" lon="1.99172">
        <ele>2495.1</ele>
        <time>2021-08-02T07:45:26.000Z</time>
      </trkpt>
      <trkpt lat="42.6344" lon="1.99159">
        <ele>2496.8</ele>
        <time>2021-08-02T07:45:36.000Z</time>
      </trkpt>
      <trkpt lat="42.63438" lon="1.99147">
        <ele>2497.9</ele>
        <time>2021-08-02T07:45:46.000Z</time>
      </trkpt>
      <trkpt lat="42.63434" lon="1.99135">
        <ele>2499.6</ele>
        <time>2021-08-02T07:45:56.000Z</time>
      </trkpt>
      <trkpt lat="42.6343" lon="1.99123">
        <ele>2501</ele>
        <time>2021-08-02T07:46:06.000Z</time>
      </trkpt>
      <trkpt lat="42.63426" lon="1.99111">
        <ele>2502.7</ele>
        <time>2021-08-02T07:46:18.000Z</time>
      </trkpt>
      <trkpt lat="42.63425" lon="1.99098">
        <ele>2505</ele>
        <time>2021-08-02T07:46:29.000Z</time>
      </trkpt>
      <trkpt lat="42.63422" lon="1.99085">
        <ele>2505.3</ele>
        <time>2021-08-02T07:46:39.000Z</time>
      </trkpt>
      <trkpt lat="42.63419" lon="1.99074">
        <ele>2506.2</ele>
        <time>2021-08-02T07:46:49.000Z</time>
      </trkpt>
      <trkpt lat="42.63415" lon="1.99061">
        <ele>2507.1</ele>
        <time>2021-08-02T07:46:59.000Z</time>
      </trkpt>
      <trkpt lat="42.63412" lon="1.99049">
        <ele>2508</ele>
        <time>2021-08-02T07:47:08.000Z</time>
      </trkpt>
      <trkpt lat="42.63409" lon="1.99037">
        <ele>2508.4</ele>
        <time>2021-08-02T07:47:16.000Z</time>
      </trkpt>
      <trkpt lat="42.63404" lon="1.99025">
        <ele>2508.7</ele>
        <time>2021-08-02T07:47:25.000Z</time>
      </trkpt>
      <trkpt lat="42.63403" lon="1.99012">
        <ele>2510.6</ele>
        <time>2021-08-02T07:47:35.000Z</time>
      </trkpt>
      <trkpt lat="42.63402" lon="1.98999">
        <ele>2511.7</ele>
        <time>2021-08-02T07:47:44.000Z</time>
      </trkpt>
      <trkpt lat="42.63401" lon="1.98985">
        <ele>2512.2</ele>
        <time>2021-08-02T07:47:53.000Z</time>
      </trkpt>
      <trkpt lat="42.634" lon="1.98972">
        <ele>2512.2</ele>
        <time>2021-08-02T07:48:02.000Z</time>
      </trkpt>
      <trkpt lat="42.634" lon="1.98959">
        <ele>2512.4</ele>
        <time>2021-08-02T07:48:11.000Z</time>
      </trkpt>
      <trkpt lat="42.63401" lon="1.98946">
        <ele>2514.2</ele>
        <time>2021-08-02T07:48:22.000Z</time>
      </trkpt>
      <trkpt lat="42.63404" lon="1.98933">
        <ele>2516</ele>
        <time>2021-08-02T07:48:33.000Z</time>
      </trkpt>
      <trkpt lat="42.63407" lon="1.98922">
        <ele>2518.3</ele>
        <time>2021-08-02T07:48:45.000Z</time>
      </trkpt>
      <trkpt lat="42.63409" lon="1.98909">
        <ele>2520.5</ele>
        <time>2021-08-02T07:48:56.000Z</time>
      </trkpt>
      <trkpt lat="42.63411" lon="1.98896">
        <ele>2521.9</ele>
        <time>2021-08-02T07:49:07.000Z</time>
      </trkpt>
      <trkpt lat="42.63414" lon="1.98885">
        <ele>2524</ele>
        <time>2021-08-02T07:49:18.000Z</time>
      </trkpt>
      <trkpt lat="42.63418" lon="1.98873">
        <ele>2525.2</ele>
        <time>2021-08-02T07:49:29.000Z</time>
      </trkpt>
      <trkpt lat="42.63421" lon="1.98861">
        <ele>2526.5</ele>
        <time>2021-08-02T07:49:39.000Z</time>
      </trkpt>
      <trkpt lat="42.63418" lon="1.98848">
        <ele>2528.4</ele>
        <time>2021-08-02T07:49:50.000Z</time>
      </trkpt>
      <trkpt lat="42.63414" lon="1.98837">
        <ele>2529.5</ele>
        <time>2021-08-02T07:50:00.000Z</time>
      </trkpt>
      <trkpt lat="42.63409" lon="1.98826">
        <ele>2529.6</ele>
        <time>2021-08-02T07:50:09.000Z</time>
      </trkpt>
      <trkpt lat="42.63404" lon="1.98814">
        <ele>2529.5</ele>
        <time>2021-08-02T07:50:18.000Z</time>
      </trkpt>
      <trkpt lat="42.63401" lon="1.98802">
        <ele>2529.5</ele>
        <time>2021-08-02T07:50:27.000Z</time>
      </trkpt>
      <trkpt lat="42.63399" lon="1.98789">
        <ele>2529.2</ele>
        <time>2021-08-02T07:50:36.000Z</time>
      </trkpt>
      <trkpt lat="42.63399" lon="1.98777">
        <ele>2528.1</ele>
        <time>2021-08-02T07:50:44.000Z</time>
      </trkpt>
      <trkpt lat="42.634" lon="1.98764">
        <ele>2528.4</ele>
        <time>2021-08-02T07:50:53.000Z</time>
      </trkpt>
      <trkpt lat="42.63401" lon="1.98752">
        <ele>2529.3</ele>
        <time>2021-08-02T07:51:01.000Z</time>
      </trkpt>
      <trkpt lat="42.63403" lon="1.9874">
        <ele>2529.1</ele>
        <time>2021-08-02T07:51:09.000Z</time>
      </trkpt>
      <trkpt lat="42.63405" lon="1.98726">
        <ele>2529.3</ele>
        <time>2021-08-02T07:51:18.000Z</time>
      </trkpt>
      <trkpt lat="42.63407" lon="1.98713">
        <ele>2529.6</ele>
        <time>2021-08-02T07:51:27.000Z</time>
      </trkpt>
      <trkpt lat="42.63412" lon="1.98702">
        <ele>2531.2</ele>
        <time>2021-08-02T07:51:36.000Z</time>
      </trkpt>
      <trkpt lat="42.63415" lon="1.98691">
        <ele>2532.5</ele>
        <time>2021-08-02T07:51:45.000Z</time>
      </trkpt>
      <trkpt lat="42.63418" lon="1.98678">
        <ele>2534.5</ele>
        <time>2021-08-02T07:51:55.000Z</time>
      </trkpt>
      <trkpt lat="42.63421" lon="1.98666">
        <ele>2536.2</ele>
        <time>2021-08-02T07:52:05.000Z</time>
      </trkpt>
      <trkpt lat="42.63423" lon="1.98653">
        <ele>2537.6</ele>
        <time>2021-08-02T07:52:16.000Z</time>
      </trkpt>
      <trkpt lat="42.63427" lon="1.98642">
        <ele>2539.3</ele>
        <time>2021-08-02T07:52:27.000Z</time>
      </trkpt>
      <trkpt lat="42.63432" lon="1.98631">
        <ele>2540.9</ele>
        <time>2021-08-02T07:52:37.000Z</time>
      </trkpt>
      <trkpt lat="42.63436" lon="1.98619">
        <ele>2541.8</ele>
        <time>2021-08-02T07:52:47.000Z</time>
      </trkpt>
      <trkpt lat="42.63442" lon="1.98608">
        <ele>2543.2</ele>
        <time>2021-08-02T07:52:58.000Z</time>
      </trkpt>
      <trkpt lat="42.63447" lon="1.98598">
        <ele>2545.9</ele>
        <time>2021-08-02T07:53:09.000Z</time>
      </trkpt>
      <trkpt lat="42.63451" lon="1.98588">
        <ele>2547.6</ele>
        <time>2021-08-02T07:53:20.000Z</time>
      </trkpt>
      <trkpt lat="42.63457" lon="1.98578">
        <ele>2549.5</ele>
        <time>2021-08-02T07:53:30.000Z</time>
      </trkpt>
      <trkpt lat="42.63461" lon="1.98566">
        <ele>2551.3</ele>
        <time>2021-08-02T07:53:40.000Z</time>
      </trkpt>
      <trkpt lat="42.63465" lon="1.98554">
        <ele>2552.4</ele>
        <time>2021-08-02T07:53:49.000Z</time>
      </trkpt>
      <trkpt lat="42.63469" lon="1.98542">
        <ele>2552.5</ele>
        <time>2021-08-02T07:53:58.000Z</time>
      </trkpt>
      <trkpt lat="42.63474" lon="1.9853">
        <ele>2552.6</ele>
        <time>2021-08-02T07:54:07.000Z</time>
      </trkpt>
      <trkpt lat="42.6348" lon="1.98519">
        <ele>2552.7</ele>
        <time>2021-08-02T07:54:16.000Z</time>
      </trkpt>
      <trkpt lat="42.63485" lon="1.98509">
        <ele>2552.7</ele>
        <time>2021-08-02T07:54:24.000Z</time>
      </trkpt>
      <trkpt lat="42.63492" lon="1.985">
        <ele>2553.1</ele>
        <time>2021-08-02T07:54:33.000Z</time>
      </trkpt>
      <trkpt lat="42.635" lon="1.98491">
        <ele>2554.8</ele>
        <time>2021-08-02T07:54:46.000Z</time>
      </trkpt>
      <trkpt lat="42.63507" lon="1.98483">
        <ele>2556.2</ele>
        <time>2021-08-02T07:54:56.000Z</time>
      </trkpt>
      <trkpt lat="42.63516" lon="1.98479">
        <ele>2558.1</ele>
        <time>2021-08-02T07:55:06.000Z</time>
      </trkpt>
      <trkpt lat="42.63526" lon="1.98476">
        <ele>2559.6</ele>
        <time>2021-08-02T07:55:16.000Z</time>
      </trkpt>
      <trkpt lat="42.63535" lon="1.98472">
        <ele>2561.2</ele>
        <time>2021-08-02T07:55:27.000Z</time>
      </trkpt>
      <trkpt lat="42.63544" lon="1.9847">
        <ele>2563.1</ele>
        <time>2021-08-02T07:55:38.000Z</time>
      </trkpt>
      <trkpt lat="42.63553" lon="1.98469">
        <ele>2564.7</ele>
        <time>2021-08-02T07:55:49.000Z</time>
      </trkpt>
      <trkpt lat="42.63562" lon="1.98468">
        <ele>2566.3</ele>
        <time>2021-08-02T07:55:59.000Z</time>
      </trkpt>
      <trkpt lat="42.63572" lon="1.98472">
        <ele>2567.6</ele>
        <time>2021-08-02T07:56:10.000Z</time>
      </trkpt>
      <trkpt lat="42.63581" lon="1.98476">
        <ele>2569.2</ele>
        <time>2021-08-02T07:56:21.000Z</time>
      </trkpt>
      <trkpt lat="42.63586" lon="1.98476">
        <ele>2571.3</ele>
        <time>2021-08-02T07:56:31.000Z</time>
      </trkpt>
      <trkpt lat="42.63586" lon="1.98476">
        <ele>2571.5</ele>
        <time>2021-08-02T07:57:21.000Z</time>
      </trkpt>
      <trkpt lat="42.63586" lon="1.98476">
        <ele>2571.7</ele>
        <time>2021-08-02T07:57:22.000Z</time>
      </trkpt>
      <trkpt lat="42.63586" lon="1.98477">
        <ele>2571.2</ele>
        <time>2021-08-02T07:58:32.000Z</time>
      </trkpt>
      <trkpt lat="42.63586" lon="1.98477">
        <ele>2571.3</ele>
        <time>2021-08-02T07:58:34.000Z</time>
      </trkpt>
      <trkpt lat="42.63586" lon="1.98476">
        <ele>2571.2</ele>
        <time>2021-08-02T07:58:35.000Z</time>
      </trkpt>
      <trkpt lat="42.63586" lon="1.98463">
        <ele>2572.2</ele>
        <time>2021-08-02T07:58:48.000Z</time>
      </trkpt>
      <trkpt lat="42.63586" lon="1.98451">
        <ele>2574.9</ele>
        <time>2021-08-02T07:59:02.000Z</time>
      </trkpt>
      <trkpt lat="42.63595" lon="1.98449">
        <ele>2577.1</ele>
        <time>2021-08-02T07:59:15.000Z</time>
      </trkpt>
      <trkpt lat="42.63602" lon="1.98441">
        <ele>2578.9</ele>
        <time>2021-08-02T07:59:27.000Z</time>
      </trkpt>
      <trkpt lat="42.6361" lon="1.98435">
        <ele>2581.2</ele>
        <time>2021-08-02T07:59:39.000Z</time>
      </trkpt>
      <trkpt lat="42.63618" lon="1.98428">
        <ele>2581.2</ele>
        <time>2021-08-02T07:59:50.000Z</time>
      </trkpt>
      <trkpt lat="42.63625" lon="1.9842">
        <ele>2581.8</ele>
        <time>2021-08-02T08:00:01.000Z</time>
      </trkpt>
      <trkpt lat="42.6363" lon="1.98408">
        <ele>2583.8</ele>
        <time>2021-08-02T08:00:13.000Z</time>
      </trkpt>
      <trkpt lat="42.63636" lon="1.98399">
        <ele>2585.3</ele>
        <time>2021-08-02T08:00:25.000Z</time>
      </trkpt>
      <trkpt lat="42.63643" lon="1.9839">
        <ele>2587.6</ele>
        <time>2021-08-02T08:00:37.000Z</time>
      </trkpt>
      <trkpt lat="42.63649" lon="1.98386">
        <ele>2589.3</ele>
        <time>2021-08-02T08:00:51.000Z</time>
      </trkpt>
      <trkpt lat="42.63649" lon="1.98386">
        <ele>2589.3</ele>
        <time>2021-08-02T08:00:52.000Z</time>
      </trkpt>
      <trkpt lat="42.6365" lon="1.98398">
        <ele>2589.1</ele>
        <time>2021-08-02T08:01:02.000Z</time>
      </trkpt>
      <trkpt lat="42.63653" lon="1.9841">
        <ele>2589.8</ele>
        <time>2021-08-02T08:01:12.000Z</time>
      </trkpt>
      <trkpt lat="42.6366" lon="1.98419">
        <ele>2592.9</ele>
        <time>2021-08-02T08:01:23.000Z</time>
      </trkpt>
      <trkpt lat="42.63666" lon="1.98429">
        <ele>2594.5</ele>
        <time>2021-08-02T08:01:36.000Z</time>
      </trkpt>
      <trkpt lat="42.63672" lon="1.98439">
        <ele>2596.3</ele>
        <time>2021-08-02T08:01:48.000Z</time>
      </trkpt>
      <trkpt lat="42.63679" lon="1.98446">
        <ele>2598.4</ele>
        <time>2021-08-02T08:02:03.000Z</time>
      </trkpt>
      <trkpt lat="42.63688" lon="1.98451">
        <ele>2601.4</ele>
        <time>2021-08-02T08:02:18.000Z</time>
      </trkpt>
      <trkpt lat="42.63695" lon="1.9846">
        <ele>2603.9</ele>
        <time>2021-08-02T08:02:32.000Z</time>
      </trkpt>
      <trkpt lat="42.63702" lon="1.98469">
        <ele>2606.6</ele>
        <time>2021-08-02T08:02:49.000Z</time>
      </trkpt>
      <trkpt lat="42.63707" lon="1.98478">
        <ele>2609</ele>
        <time>2021-08-02T08:03:05.000Z</time>
      </trkpt>
      <trkpt lat="42.63716" lon="1.98483">
        <ele>2611.8</ele>
        <time>2021-08-02T08:03:21.000Z</time>
      </trkpt>
      <trkpt lat="42.63724" lon="1.98489">
        <ele>2613.4</ele>
        <time>2021-08-02T08:03:34.000Z</time>
      </trkpt>
      <trkpt lat="42.63726" lon="1.98491">
        <ele>2613.5</ele>
        <time>2021-08-02T08:03:39.000Z</time>
      </trkpt>
      <trkpt lat="42.63726" lon="1.98491">
        <ele>2613.7</ele>
        <time>2021-08-02T08:03:43.000Z</time>
      </trkpt>
      <trkpt lat="42.63727" lon="1.98493">
        <ele>2614.1</ele>
        <time>2021-08-02T08:03:48.000Z</time>
      </trkpt>
      <trkpt lat="42.63727" lon="1.98493">
        <ele>2614</ele>
        <time>2021-08-02T08:03:52.000Z</time>
      </trkpt>
      <trkpt lat="42.63727" lon="1.98493">
        <ele>2614</ele>
        <time>2021-08-02T08:03:53.000Z</time>
      </trkpt>
      <trkpt lat="42.63727" lon="1.98493">
        <ele>2613.8</ele>
        <time>2021-08-02T08:04:00.000Z</time>
      </trkpt>
      <trkpt lat="42.63727" lon="1.98493">
        <ele>2613.8</ele>
        <time>2021-08-02T08:04:01.000Z</time>
      </trkpt>
      <trkpt lat="42.63727" lon="1.98493">
        <ele>2613.9</ele>
        <time>2021-08-02T08:04:06.000Z</time>
      </trkpt>
      <trkpt lat="42.63727" lon="1.98493">
        <ele>2614.1</ele>
        <time>2021-08-02T08:04:07.000Z</time>
      </trkpt>
      <trkpt lat="42.63727" lon="1.98493">
        <ele>2614</ele>
        <time>2021-08-02T08:04:39.000Z</time>
      </trkpt>
      <trkpt lat="42.63727" lon="1.98493">
        <ele>2613.8</ele>
        <time>2021-08-02T08:04:40.000Z</time>
      </trkpt>
      <trkpt lat="42.63727" lon="1.98493">
        <ele>2613.7</ele>
        <time>2021-08-02T08:04:52.000Z</time>
      </trkpt>
      <trkpt lat="42.63729" lon="1.98506">
        <ele>2615.2</ele>
        <time>2021-08-02T08:05:03.000Z</time>
      </trkpt>
      <trkpt lat="42.63732" lon="1.98519">
        <ele>2616.2</ele>
        <time>2021-08-02T08:05:12.000Z</time>
      </trkpt>
      <trkpt lat="42.63736" lon="1.9853">
        <ele>2615.9</ele>
        <time>2021-08-02T08:05:21.000Z</time>
      </trkpt>
      <trkpt lat="42.63739" lon="1.98543">
        <ele>2616.1</ele>
        <time>2021-08-02T08:05:31.000Z</time>
      </trkpt>
      <trkpt lat="42.63739" lon="1.98554">
        <ele>2615.8</ele>
        <time>2021-08-02T08:05:48.000Z</time>
      </trkpt>
      <trkpt lat="42.63739" lon="1.98554">
        <ele>2615.8</ele>
        <time>2021-08-02T08:05:53.000Z</time>
      </trkpt>
      <trkpt lat="42.63739" lon="1.98554">
        <ele>2615.7</ele>
        <time>2021-08-02T08:05:56.000Z</time>
      </trkpt>
      <trkpt lat="42.63739" lon="1.98554">
        <ele>2615.5</ele>
        <time>2021-08-02T08:05:58.000Z</time>
      </trkpt>
      <trkpt lat="42.63739" lon="1.98554">
        <ele>2615.5</ele>
        <time>2021-08-02T08:05:59.000Z</time>
      </trkpt>
      <trkpt lat="42.6374" lon="1.98554">
        <ele>2615.5</ele>
        <time>2021-08-02T08:06:13.000Z</time>
      </trkpt>
      <trkpt lat="42.6374" lon="1.98554">
        <ele>2615.4</ele>
        <time>2021-08-02T08:06:14.000Z</time>
      </trkpt>
      <trkpt lat="42.63739" lon="1.98554">
        <ele>2615.4</ele>
        <time>2021-08-02T08:06:22.000Z</time>
      </trkpt>
      <trkpt lat="42.63739" lon="1.98554">
        <ele>2615.3</ele>
        <time>2021-08-02T08:06:23.000Z</time>
      </trkpt>
      <trkpt lat="42.6374" lon="1.98554">
        <ele>2615.2</ele>
        <time>2021-08-02T08:06:34.000Z</time>
      </trkpt>
      <trkpt lat="42.63739" lon="1.98554">
        <ele>2615.1</ele>
        <time>2021-08-02T08:06:36.000Z</time>
      </trkpt>
      <trkpt lat="42.6374" lon="1.98555">
        <ele>2615.4</ele>
        <time>2021-08-02T08:06:38.000Z</time>
      </trkpt>
      <trkpt lat="42.6374" lon="1.98556">
        <ele>2615.2</ele>
        <time>2021-08-02T08:06:41.000Z</time>
      </trkpt>
      <trkpt lat="42.6374" lon="1.98556">
        <ele>2615.3</ele>
        <time>2021-08-02T08:06:58.000Z</time>
      </trkpt>
      <trkpt lat="42.6374" lon="1.98556">
        <ele>2615.3</ele>
        <time>2021-08-02T08:07:00.000Z</time>
      </trkpt>
      <trkpt lat="42.6374" lon="1.98556">
        <ele>2615.3</ele>
        <time>2021-08-02T08:07:02.000Z</time>
      </trkpt>
      <trkpt lat="42.6374" lon="1.98556">
        <ele>2615.2</ele>
        <time>2021-08-02T08:07:03.000Z</time>
      </trkpt>
      <trkpt lat="42.6374" lon="1.98556">
        <ele>2615.5</ele>
        <time>2021-08-02T08:07:21.000Z</time>
      </trkpt>
      <trkpt lat="42.6374" lon="1.98556">
        <ele>2615.5</ele>
        <time>2021-08-02T08:07:23.000Z</time>
      </trkpt>
      <trkpt lat="42.63741" lon="1.98556">
        <ele>2615.2</ele>
        <time>2021-08-02T08:07:26.000Z</time>
      </trkpt>
      <trkpt lat="42.63741" lon="1.98556">
        <ele>2615.3</ele>
        <time>2021-08-02T08:07:29.000Z</time>
      </trkpt>
      <trkpt lat="42.63741" lon="1.98556">
        <ele>2615.1</ele>
        <time>2021-08-02T08:07:33.000Z</time>
      </trkpt>
      <trkpt lat="42.63741" lon="1.98556">
        <ele>2615.1</ele>
        <time>2021-08-02T08:07:34.000Z</time>
      </trkpt>
      <trkpt lat="42.63741" lon="1.98556">
        <ele>2615.4</ele>
        <time>2021-08-02T08:07:48.000Z</time>
      </trkpt>
      <trkpt lat="42.63741" lon="1.98556">
        <ele>2615.2</ele>
        <time>2021-08-02T08:07:50.000Z</time>
      </trkpt>
      <trkpt lat="42.63741" lon="1.98556">
        <ele>2615.3</ele>
        <time>2021-08-02T08:08:07.000Z</time>
      </trkpt>
      <trkpt lat="42.63741" lon="1.98557">
        <ele>2615.1</ele>
        <time>2021-08-02T08:08:10.000Z</time>
      </trkpt>
      <trkpt lat="42.6374" lon="1.98558">
        <ele>2615</ele>
        <time>2021-08-02T08:08:11.000Z</time>
      </trkpt>
      <trkpt lat="42.6374" lon="1.98558">
        <ele>2614.6</ele>
        <time>2021-08-02T08:08:13.000Z</time>
      </trkpt>
      <trkpt lat="42.6374" lon="1.98558">
        <ele>2614.6</ele>
        <time>2021-08-02T08:08:14.000Z</time>
      </trkpt>
      <trkpt lat="42.6374" lon="1.98558">
        <ele>2614.7</ele>
        <time>2021-08-02T08:08:15.000Z</time>
      </trkpt>
      <trkpt lat="42.6374" lon="1.98558">
        <ele>2614.8</ele>
        <time>2021-08-02T08:08:18.000Z</time>
      </trkpt>
      <trkpt lat="42.6374" lon="1.98558">
        <ele>2614.7</ele>
        <time>2021-08-02T08:08:19.000Z</time>
      </trkpt>
      <trkpt lat="42.6374" lon="1.98558">
        <ele>2614.6</ele>
        <time>2021-08-02T08:08:27.000Z</time>
      </trkpt>
      <trkpt lat="42.6374" lon="1.98558">
        <ele>2614.9</ele>
        <time>2021-08-02T08:08:28.000Z</time>
      </trkpt>
      <trkpt lat="42.6374" lon="1.98558">
        <ele>2614.6</ele>
        <time>2021-08-02T08:09:17.000Z</time>
      </trkpt>
      <trkpt lat="42.6374" lon="1.98559">
        <ele>2614.4</ele>
        <time>2021-08-02T08:09:20.000Z</time>
      </trkpt>
      <trkpt lat="42.6374" lon="1.98558">
        <ele>2614.2</ele>
        <time>2021-08-02T08:09:33.000Z</time>
      </trkpt>
      <trkpt lat="42.63742" lon="1.98555">
        <ele>2614.7</ele>
        <time>2021-08-02T08:09:40.000Z</time>
      </trkpt>
      <trkpt lat="42.63742" lon="1.98555">
        <ele>2614.5</ele>
        <time>2021-08-02T08:09:41.000Z</time>
      </trkpt>
      <trkpt lat="42.63741" lon="1.98554">
        <ele>2614.7</ele>
        <time>2021-08-02T08:09:45.000Z</time>
      </trkpt>
      <trkpt lat="42.63741" lon="1.98554">
        <ele>2614.9</ele>
        <time>2021-08-02T08:09:59.000Z</time>
      </trkpt>
      <trkpt lat="42.63741" lon="1.98554">
        <ele>2614.8</ele>
        <time>2021-08-02T08:10:01.000Z</time>
      </trkpt>
      <trkpt lat="42.63741" lon="1.98554">
        <ele>2614.7</ele>
        <time>2021-08-02T08:10:18.000Z</time>
      </trkpt>
      <trkpt lat="42.6374" lon="1.98553">
        <ele>2614.8</ele>
        <time>2021-08-02T08:10:20.000Z</time>
      </trkpt>
      <trkpt lat="42.6374" lon="1.98553">
        <ele>2614.9</ele>
        <time>2021-08-02T08:10:33.000Z</time>
      </trkpt>
      <trkpt lat="42.6374" lon="1.98553">
        <ele>2615</ele>
        <time>2021-08-02T08:10:35.000Z</time>
      </trkpt>
      <trkpt lat="42.6374" lon="1.98553">
        <ele>2615.1</ele>
        <time>2021-08-02T08:10:36.000Z</time>
      </trkpt>
      <trkpt lat="42.6374" lon="1.98553">
        <ele>2615.1</ele>
        <time>2021-08-02T08:10:37.000Z</time>
      </trkpt>
      <trkpt lat="42.6374" lon="1.98553">
        <ele>2614.8</ele>
        <time>2021-08-02T08:11:04.000Z</time>
      </trkpt>
      <trkpt lat="42.6374" lon="1.98552">
        <ele>2614.4</ele>
        <time>2021-08-02T08:11:07.000Z</time>
      </trkpt>
      <trkpt lat="42.6374" lon="1.98552">
        <ele>2615.1</ele>
        <time>2021-08-02T08:12:25.000Z</time>
      </trkpt>
      <trkpt lat="42.6374" lon="1.98552">
        <ele>2615.2</ele>
        <time>2021-08-02T08:12:26.000Z</time>
      </trkpt>
      <trkpt lat="42.6374" lon="1.98553">
        <ele>2615.3</ele>
        <time>2021-08-02T08:12:27.000Z</time>
      </trkpt>
      <trkpt lat="42.6374" lon="1.98552">
        <ele>2615.6</ele>
        <time>2021-08-02T08:12:28.000Z</time>
      </trkpt>
      <trkpt lat="42.6374" lon="1.98552">
        <ele>2615.7</ele>
        <time>2021-08-02T08:12:29.000Z</time>
      </trkpt>
      <trkpt lat="42.6374" lon="1.98552">
        <ele>2615.8</ele>
        <time>2021-08-02T08:12:30.000Z</time>
      </trkpt>
      <trkpt lat="42.6374" lon="1.98552">
        <ele>2615.3</ele>
        <time>2021-08-02T08:12:36.000Z</time>
      </trkpt>
      <trkpt lat="42.63738" lon="1.98552">
        <ele>2614.8</ele>
        <time>2021-08-02T08:12:46.000Z</time>
      </trkpt>
      <trkpt lat="42.63738" lon="1.98552">
        <ele>2615</ele>
        <time>2021-08-02T08:12:47.000Z</time>
      </trkpt>
      <trkpt lat="42.63738" lon="1.98552">
        <ele>2615.3</ele>
        <time>2021-08-02T08:12:49.000Z</time>
      </trkpt>
      <trkpt lat="42.63738" lon="1.98552">
        <ele>2615.1</ele>
        <time>2021-08-02T08:12:55.000Z</time>
      </trkpt>
      <trkpt lat="42.63738" lon="1.98552">
        <ele>2615</ele>
        <time>2021-08-02T08:12:57.000Z</time>
      </trkpt>
      <trkpt lat="42.63738" lon="1.98552">
        <ele>2614.5</ele>
        <time>2021-08-02T08:12:59.000Z</time>
      </trkpt>
      <trkpt lat="42.63738" lon="1.98552">
        <ele>2614.3</ele>
        <time>2021-08-02T08:13:01.000Z</time>
      </trkpt>
      <trkpt lat="42.63738" lon="1.98552">
        <ele>2614.5</ele>
        <time>2021-08-02T08:13:02.000Z</time>
      </trkpt>
      <trkpt lat="42.63738" lon="1.98552">
        <ele>2614.5</ele>
        <time>2021-08-02T08:13:03.000Z</time>
      </trkpt>
      <trkpt lat="42.63737" lon="1.98552">
        <ele>2614.4</ele>
        <time>2021-08-02T08:13:07.000Z</time>
      </trkpt>
      <trkpt lat="42.63737" lon="1.98552">
        <ele>2614.3</ele>
        <time>2021-08-02T08:13:08.000Z</time>
      </trkpt>
      <trkpt lat="42.63738" lon="1.98552">
        <ele>2614.1</ele>
        <time>2021-08-02T08:13:17.000Z</time>
      </trkpt>
      <trkpt lat="42.63739" lon="1.98551">
        <ele>2614.7</ele>
        <time>2021-08-02T08:13:25.000Z</time>
      </trkpt>
      <trkpt lat="42.63739" lon="1.98551">
        <ele>2614.6</ele>
        <time>2021-08-02T08:13:40.000Z</time>
      </trkpt>
      <trkpt lat="42.63739" lon="1.98551">
        <ele>2614.4</ele>
        <time>2021-08-02T08:13:41.000Z</time>
      </trkpt>
      <trkpt lat="42.63739" lon="1.98551">
        <ele>2614.5</ele>
        <time>2021-08-02T08:13:42.000Z</time>
      </trkpt>
      <trkpt lat="42.63738" lon="1.98552">
        <ele>2614.9</ele>
        <time>2021-08-02T08:13:45.000Z</time>
      </trkpt>
      <trkpt lat="42.63739" lon="1.98552">
        <ele>2615.3</ele>
        <time>2021-08-02T08:13:52.000Z</time>
      </trkpt>
      <trkpt lat="42.63739" lon="1.98551">
        <ele>2615.5</ele>
        <time>2021-08-02T08:13:57.000Z</time>
      </trkpt>
      <trkpt lat="42.63739" lon="1.98551">
        <ele>2614.7</ele>
        <time>2021-08-02T08:13:59.000Z</time>
      </trkpt>
      <trkpt lat="42.63739" lon="1.98551">
        <ele>2614.5</ele>
        <time>2021-08-02T08:14:00.000Z</time>
      </trkpt>
      <trkpt lat="42.63739" lon="1.98552">
        <ele>2614.4</ele>
        <time>2021-08-02T08:14:04.000Z</time>
      </trkpt>
      <trkpt lat="42.63739" lon="1.98552">
        <ele>2614.4</ele>
        <time>2021-08-02T08:14:06.000Z</time>
      </trkpt>
      <trkpt lat="42.63739" lon="1.98552">
        <ele>2614.6</ele>
        <time>2021-08-02T08:14:10.000Z</time>
      </trkpt>
      <trkpt lat="42.63739" lon="1.98552">
        <ele>2614.5</ele>
        <time>2021-08-02T08:14:11.000Z</time>
      </trkpt>
      <trkpt lat="42.63739" lon="1.98552">
        <ele>2614.4</ele>
        <time>2021-08-02T08:14:14.000Z</time>
      </trkpt>
      <trkpt lat="42.63739" lon="1.98553">
        <ele>2614.7</ele>
        <time>2021-08-02T08:14:18.000Z</time>
      </trkpt>
      <trkpt lat="42.63739" lon="1.98553">
        <ele>2614.9</ele>
        <time>2021-08-02T08:14:50.000Z</time>
      </trkpt>
      <trkpt lat="42.63739" lon="1.98552">
        <ele>2614.9</ele>
        <time>2021-08-02T08:14:51.000Z</time>
      </trkpt>
      <trkpt lat="42.63739" lon="1.98552">
        <ele>2615.3</ele>
        <time>2021-08-02T08:14:57.000Z</time>
      </trkpt>
      <trkpt lat="42.63739" lon="1.98552">
        <ele>2614.9</ele>
        <time>2021-08-02T08:14:58.000Z</time>
      </trkpt>
      <trkpt lat="42.63739" lon="1.98552">
        <ele>2614.5</ele>
        <time>2021-08-02T08:15:43.000Z</time>
      </trkpt>
      <trkpt lat="42.63737" lon="1.98552">
        <ele>2614.2</ele>
        <time>2021-08-02T08:15:49.000Z</time>
      </trkpt>
      <trkpt lat="42.63737" lon="1.98552">
        <ele>2614.1</ele>
        <time>2021-08-02T08:15:50.000Z</time>
      </trkpt>
      <trkpt lat="42.63737" lon="1.98552">
        <ele>2614.2</ele>
        <time>2021-08-02T08:15:51.000Z</time>
      </trkpt>
      <trkpt lat="42.63737" lon="1.98553">
        <ele>2612.7</ele>
        <time>2021-08-02T08:15:58.000Z</time>
      </trkpt>
      <trkpt lat="42.63736" lon="1.98552">
        <ele>2613.5</ele>
        <time>2021-08-02T08:16:01.000Z</time>
      </trkpt>
      <trkpt lat="42.63736" lon="1.98552">
        <ele>2613.5</ele>
        <time>2021-08-02T08:16:02.000Z</time>
      </trkpt>
      <trkpt lat="42.63736" lon="1.98552">
        <ele>2613.3</ele>
        <time>2021-08-02T08:16:03.000Z</time>
      </trkpt>
      <trkpt lat="42.63737" lon="1.98552">
        <ele>2613.1</ele>
        <time>2021-08-02T08:16:08.000Z</time>
      </trkpt>
      <trkpt lat="42.63737" lon="1.98552">
        <ele>2613.1</ele>
        <time>2021-08-02T08:16:09.000Z</time>
      </trkpt>
      <trkpt lat="42.63737" lon="1.98552">
        <ele>2613.2</ele>
        <time>2021-08-02T08:16:32.000Z</time>
      </trkpt>
      <trkpt lat="42.63737" lon="1.98552">
        <ele>2612.8</ele>
        <time>2021-08-02T08:16:34.000Z</time>
      </trkpt>
      <trkpt lat="42.63737" lon="1.98552">
        <ele>2612.6</ele>
        <time>2021-08-02T08:16:35.000Z</time>
      </trkpt>
      <trkpt lat="42.63738" lon="1.98551">
        <ele>2612.6</ele>
        <time>2021-08-02T08:16:38.000Z</time>
      </trkpt>
      <trkpt lat="42.63738" lon="1.98551">
        <ele>2613.1</ele>
        <time>2021-08-02T08:17:21.000Z</time>
      </trkpt>
      <trkpt lat="42.63738" lon="1.98551">
        <ele>2613.1</ele>
        <time>2021-08-02T08:17:22.000Z</time>
      </trkpt>
      <trkpt lat="42.63738" lon="1.98551">
        <ele>2611.7</ele>
        <time>2021-08-02T08:19:23.000Z</time>
      </trkpt>
      <trkpt lat="42.63738" lon="1.98551">
        <ele>2611.8</ele>
        <time>2021-08-02T08:19:24.000Z</time>
      </trkpt>
      <trkpt lat="42.63738" lon="1.98551">
        <ele>2609.7</ele>
        <time>2021-08-02T08:20:18.000Z</time>
      </trkpt>
      <trkpt lat="42.63738" lon="1.98551">
        <ele>2607.2</ele>
        <time>2021-08-02T08:20:21.000Z</time>
      </trkpt>
      <trkpt lat="42.63738" lon="1.98552">
        <ele>2611.5</ele>
        <time>2021-08-02T08:20:25.000Z</time>
      </trkpt>
      <trkpt lat="42.63738" lon="1.98551">
        <ele>2612</ele>
        <time>2021-08-02T08:20:26.000Z</time>
      </trkpt>
      <trkpt lat="42.63738" lon="1.98551">
        <ele>2612.1</ele>
        <time>2021-08-02T08:21:05.000Z</time>
      </trkpt>
      <trkpt lat="42.63738" lon="1.98551">
        <ele>2612</ele>
        <time>2021-08-02T08:21:06.000Z</time>
      </trkpt>
      <trkpt lat="42.63739" lon="1.98551">
        <ele>2611.3</ele>
        <time>2021-08-02T08:21:21.000Z</time>
      </trkpt>
      <trkpt lat="42.63739" lon="1.98551">
        <ele>2611.4</ele>
        <time>2021-08-02T08:21:22.000Z</time>
      </trkpt>
      <trkpt lat="42.63738" lon="1.98551">
        <ele>2612.1</ele>
        <time>2021-08-02T08:24:03.000Z</time>
      </trkpt>
      <trkpt lat="42.63738" lon="1.98551">
        <ele>2612</ele>
        <time>2021-08-02T08:24:04.000Z</time>
      </trkpt>
      <trkpt lat="42.63738" lon="1.98551">
        <ele>2611.4</ele>
        <time>2021-08-02T08:25:26.000Z</time>
      </trkpt>
      <trkpt lat="42.63738" lon="1.98551">
        <ele>2611.4</ele>
        <time>2021-08-02T08:25:27.000Z</time>
      </trkpt>
      <trkpt lat="42.63738" lon="1.98551">
        <ele>2590.8</ele>
        <time>2021-08-02T08:26:00.000Z</time>
      </trkpt>
      <trkpt lat="42.63738" lon="1.98552">
        <ele>2615.6</ele>
        <time>2021-08-02T08:26:07.000Z</time>
      </trkpt>
      <trkpt lat="42.63738" lon="1.98552">
        <ele>2612.1</ele>
        <time>2021-08-02T08:26:24.000Z</time>
      </trkpt>
      <trkpt lat="42.63738" lon="1.98553">
        <ele>2612.1</ele>
        <time>2021-08-02T08:26:27.000Z</time>
      </trkpt>
      <trkpt lat="42.63738" lon="1.98552">
        <ele>2612.3</ele>
        <time>2021-08-02T08:26:49.000Z</time>
      </trkpt>
      <trkpt lat="42.63738" lon="1.98552">
        <ele>2612.2</ele>
        <time>2021-08-02T08:26:50.000Z</time>
      </trkpt>
      <trkpt lat="42.63738" lon="1.98552">
        <ele>2612.6</ele>
        <time>2021-08-02T08:26:55.000Z</time>
      </trkpt>
      <trkpt lat="42.63738" lon="1.98552">
        <ele>2612.9</ele>
        <time>2021-08-02T08:26:57.000Z</time>
      </trkpt>
      <trkpt lat="42.63738" lon="1.98552">
        <ele>2612.9</ele>
        <time>2021-08-02T08:26:58.000Z</time>
      </trkpt>
      <trkpt lat="42.63738" lon="1.98552">
        <ele>2612.9</ele>
        <time>2021-08-02T08:26:59.000Z</time>
      </trkpt>
      <trkpt lat="42.63738" lon="1.98552">
        <ele>2613.6</ele>
        <time>2021-08-02T08:27:15.000Z</time>
      </trkpt>
      <trkpt lat="42.63738" lon="1.98553">
        <ele>2613.6</ele>
        <time>2021-08-02T08:27:16.000Z</time>
      </trkpt>
      <trkpt lat="42.63738" lon="1.98553">
        <ele>2613.6</ele>
        <time>2021-08-02T08:27:17.000Z</time>
      </trkpt>
      <trkpt lat="42.63741" lon="1.98565">
        <ele>2611.7</ele>
        <time>2021-08-02T08:27:38.000Z</time>
      </trkpt>
      <trkpt lat="42.63748" lon="1.98573">
        <ele>2610.2</ele>
        <time>2021-08-02T08:27:57.000Z</time>
      </trkpt>
      <trkpt lat="42.6375" lon="1.98577">
        <ele>2608.4</ele>
        <time>2021-08-02T08:28:05.000Z</time>
      </trkpt>
      <trkpt lat="42.6375" lon="1.98578">
        <ele>2607.9</ele>
        <time>2021-08-02T08:28:07.000Z</time>
      </trkpt>
      <trkpt lat="42.63752" lon="1.98583">
        <ele>2606.4</ele>
        <time>2021-08-02T08:28:17.000Z</time>
      </trkpt>
      <trkpt lat="42.63752" lon="1.98583">
        <ele>2606.2</ele>
        <time>2021-08-02T08:28:23.000Z</time>
      </trkpt>
      <trkpt lat="42.63752" lon="1.98596">
        <ele>2603.3</ele>
        <time>2021-08-02T08:28:42.000Z</time>
      </trkpt>
      <trkpt lat="42.63754" lon="1.98608">
        <ele>2602.1</ele>
        <time>2021-08-02T08:28:56.000Z</time>
      </trkpt>
      <trkpt lat="42.63754" lon="1.9862">
        <ele>2598.5</ele>
        <time>2021-08-02T08:29:08.000Z</time>
      </trkpt>
      <trkpt lat="42.63756" lon="1.98632">
        <ele>2596.1</ele>
        <time>2021-08-02T08:29:20.000Z</time>
      </trkpt>
      <trkpt lat="42.6376" lon="1.98634">
        <ele>2594.5</ele>
        <time>2021-08-02T08:29:28.000Z</time>
      </trkpt>
      <trkpt lat="42.63761" lon="1.98633">
        <ele>2593.9</ele>
        <time>2021-08-02T08:29:44.000Z</time>
      </trkpt>
      <trkpt lat="42.63768" lon="1.98625">
        <ele>2590.3</ele>
        <time>2021-08-02T08:30:01.000Z</time>
      </trkpt>
      <trkpt lat="42.63774" lon="1.98614">
        <ele>2590</ele>
        <time>2021-08-02T08:30:11.000Z</time>
      </trkpt>
      <trkpt lat="42.6378" lon="1.98606">
        <ele>2588.2</ele>
        <time>2021-08-02T08:30:21.000Z</time>
      </trkpt>
      <trkpt lat="42.63789" lon="1.98599">
        <ele>2587.5</ele>
        <time>2021-08-02T08:30:32.000Z</time>
      </trkpt>
      <trkpt lat="42.63798" lon="1.98596">
        <ele>2586.6</ele>
        <time>2021-08-02T08:30:43.000Z</time>
      </trkpt>
      <trkpt lat="42.63807" lon="1.98593">
        <ele>2584.9</ele>
        <time>2021-08-02T08:30:54.000Z</time>
      </trkpt>
      <trkpt lat="42.63816" lon="1.98593">
        <ele>2584.6</ele>
        <time>2021-08-02T08:31:04.000Z</time>
      </trkpt>
      <trkpt lat="42.63826" lon="1.98592">
        <ele>2583.8</ele>
        <time>2021-08-02T08:31:15.000Z</time>
      </trkpt>
      <trkpt lat="42.63836" lon="1.98593">
        <ele>2581.8</ele>
        <time>2021-08-02T08:31:26.000Z</time>
      </trkpt>
      <trkpt lat="42.63839" lon="1.98593">
        <ele>2581.8</ele>
        <time>2021-08-02T08:31:31.000Z</time>
      </trkpt>
      <trkpt lat="42.63839" lon="1.98593">
        <ele>2581.3</ele>
        <time>2021-08-02T08:31:34.000Z</time>
      </trkpt>
      <trkpt lat="42.63848" lon="1.98595">
        <ele>2580.3</ele>
        <time>2021-08-02T08:31:45.000Z</time>
      </trkpt>
      <trkpt lat="42.63857" lon="1.986">
        <ele>2578.5</ele>
        <time>2021-08-02T08:31:54.000Z</time>
      </trkpt>
      <trkpt lat="42.63867" lon="1.98602">
        <ele>2575.8</ele>
        <time>2021-08-02T08:32:05.000Z</time>
      </trkpt>
      <trkpt lat="42.63876" lon="1.98599">
        <ele>2572.4</ele>
        <time>2021-08-02T08:32:18.000Z</time>
      </trkpt>
      <trkpt lat="42.63883" lon="1.98591">
        <ele>2569.7</ele>
        <time>2021-08-02T08:32:31.000Z</time>
      </trkpt>
      <trkpt lat="42.63892" lon="1.98586">
        <ele>2566.4</ele>
        <time>2021-08-02T08:32:43.000Z</time>
      </trkpt>
      <trkpt lat="42.639" lon="1.9858">
        <ele>2561.9</ele>
        <time>2021-08-02T08:32:59.000Z</time>
      </trkpt>
      <trkpt lat="42.63901" lon="1.98575">
        <ele>2560.3</ele>
        <time>2021-08-02T08:33:07.000Z</time>
      </trkpt>
      <trkpt lat="42.63901" lon="1.98575">
        <ele>2559.8</ele>
        <time>2021-08-02T08:33:10.000Z</time>
      </trkpt>
      <trkpt lat="42.63902" lon="1.98572">
        <ele>2558.9</ele>
        <time>2021-08-02T08:33:16.000Z</time>
      </trkpt>
      <trkpt lat="42.63902" lon="1.98572">
        <ele>2558.6</ele>
        <time>2021-08-02T08:33:18.000Z</time>
      </trkpt>
      <trkpt lat="42.63911" lon="1.98578">
        <ele>2555.5</ele>
        <time>2021-08-02T08:33:34.000Z</time>
      </trkpt>
      <trkpt lat="42.63917" lon="1.98588">
        <ele>2553.2</ele>
        <time>2021-08-02T08:33:46.000Z</time>
      </trkpt>
      <trkpt lat="42.63924" lon="1.98597">
        <ele>2550.5</ele>
        <time>2021-08-02T08:33:57.000Z</time>
      </trkpt>
      <trkpt lat="42.63932" lon="1.98602">
        <ele>2546.7</ele>
        <time>2021-08-02T08:34:13.000Z</time>
      </trkpt>
      <trkpt lat="42.63941" lon="1.98602">
        <ele>2544.8</ele>
        <time>2021-08-02T08:34:24.000Z</time>
      </trkpt>
      <trkpt lat="42.63951" lon="1.98602">
        <ele>2542.6</ele>
        <time>2021-08-02T08:34:34.000Z</time>
      </trkpt>
      <trkpt lat="42.63959" lon="1.98606">
        <ele>2541.2</ele>
        <time>2021-08-02T08:34:43.000Z</time>
      </trkpt>
      <trkpt lat="42.63968" lon="1.9861">
        <ele>2538.8</ele>
        <time>2021-08-02T08:34:53.000Z</time>
      </trkpt>
      <trkpt lat="42.63977" lon="1.98615">
        <ele>2537.1</ele>
        <time>2021-08-02T08:35:03.000Z</time>
      </trkpt>
      <trkpt lat="42.63985" lon="1.98619">
        <ele>2535.6</ele>
        <time>2021-08-02T08:35:12.000Z</time>
      </trkpt>
      <trkpt lat="42.63994" lon="1.98622">
        <ele>2533.9</ele>
        <time>2021-08-02T08:35:22.000Z</time>
      </trkpt>
      <trkpt lat="42.64002" lon="1.98627">
        <ele>2531.7</ele>
        <time>2021-08-02T08:35:34.000Z</time>
      </trkpt>
      <trkpt lat="42.64011" lon="1.98631">
        <ele>2530.1</ele>
        <time>2021-08-02T08:35:44.000Z</time>
      </trkpt>
      <trkpt lat="42.6402" lon="1.98633">
        <ele>2529.5</ele>
        <time>2021-08-02T08:35:53.000Z</time>
      </trkpt>
      <trkpt lat="42.6403" lon="1.98636">
        <ele>2528.7</ele>
        <time>2021-08-02T08:36:02.000Z</time>
      </trkpt>
      <trkpt lat="42.64039" lon="1.9864">
        <ele>2528.6</ele>
        <time>2021-08-02T08:36:11.000Z</time>
      </trkpt>
      <trkpt lat="42.64048" lon="1.98647">
        <ele>2527.2</ele>
        <time>2021-08-02T08:36:21.000Z</time>
      </trkpt>
      <trkpt lat="42.64051" lon="1.98659">
        <ele>2526.3</ele>
        <time>2021-08-02T08:36:33.000Z</time>
      </trkpt>
      <trkpt lat="42.64055" lon="1.98671">
        <ele>2525.6</ele>
        <time>2021-08-02T08:36:44.000Z</time>
      </trkpt>
      <trkpt lat="42.64057" lon="1.98673">
        <ele>2525.7</ele>
        <time>2021-08-02T08:36:49.000Z</time>
      </trkpt>
      <trkpt lat="42.64057" lon="1.98673">
        <ele>2524.7</ele>
        <time>2021-08-02T08:37:25.000Z</time>
      </trkpt>
      <trkpt lat="42.64057" lon="1.98673">
        <ele>2524.7</ele>
        <time>2021-08-02T08:37:26.000Z</time>
      </trkpt>
      <trkpt lat="42.64057" lon="1.98673">
        <ele>2524.7</ele>
        <time>2021-08-02T08:38:12.000Z</time>
      </trkpt>
      <trkpt lat="42.64057" lon="1.98673">
        <ele>2524.4</ele>
        <time>2021-08-02T08:38:16.000Z</time>
      </trkpt>
      <trkpt lat="42.64057" lon="1.98673">
        <ele>2524.6</ele>
        <time>2021-08-02T08:38:18.000Z</time>
      </trkpt>
      <trkpt lat="42.64057" lon="1.98673">
        <ele>2524.7</ele>
        <time>2021-08-02T08:38:19.000Z</time>
      </trkpt>
      <trkpt lat="42.64057" lon="1.98672">
        <ele>2524.6</ele>
        <time>2021-08-02T08:38:22.000Z</time>
      </trkpt>
      <trkpt lat="42.64063" lon="1.98663">
        <ele>2523.3</ele>
        <time>2021-08-02T08:38:31.000Z</time>
      </trkpt>
      <trkpt lat="42.64072" lon="1.98659">
        <ele>2522.6</ele>
        <time>2021-08-02T08:38:41.000Z</time>
      </trkpt>
      <trkpt lat="42.64081" lon="1.98662">
        <ele>2521.5</ele>
        <time>2021-08-02T08:38:50.000Z</time>
      </trkpt>
      <trkpt lat="42.64091" lon="1.98664">
        <ele>2520.6</ele>
        <time>2021-08-02T08:38:59.000Z</time>
      </trkpt>
      <trkpt lat="42.641" lon="1.98666">
        <ele>2520.5</ele>
        <time>2021-08-02T08:39:08.000Z</time>
      </trkpt>
      <trkpt lat="42.64109" lon="1.98668">
        <ele>2520.4</ele>
        <time>2021-08-02T08:39:16.000Z</time>
      </trkpt>
      <trkpt lat="42.64119" lon="1.98667">
        <ele>2519.9</ele>
        <time>2021-08-02T08:39:25.000Z</time>
      </trkpt>
      <trkpt lat="42.64129" lon="1.98668">
        <ele>2520.4</ele>
        <time>2021-08-02T08:39:34.000Z</time>
      </trkpt>
      <trkpt lat="42.64139" lon="1.9867">
        <ele>2519.9</ele>
        <time>2021-08-02T08:39:43.000Z</time>
      </trkpt>
      <trkpt lat="42.64148" lon="1.98674">
        <ele>2519</ele>
        <time>2021-08-02T08:39:52.000Z</time>
      </trkpt>
      <trkpt lat="42.64158" lon="1.98676">
        <ele>2518.1</ele>
        <time>2021-08-02T08:40:01.000Z</time>
      </trkpt>
      <trkpt lat="42.64167" lon="1.98675">
        <ele>2517.2</ele>
        <time>2021-08-02T08:40:10.000Z</time>
      </trkpt>
      <trkpt lat="42.64176" lon="1.98672">
        <ele>2516.1</ele>
        <time>2021-08-02T08:40:19.000Z</time>
      </trkpt>
      <trkpt lat="42.64178" lon="1.98671">
        <ele>2515.6</ele>
        <time>2021-08-02T08:40:24.000Z</time>
      </trkpt>
      <trkpt lat="42.64179" lon="1.98671">
        <ele>2516</ele>
        <time>2021-08-02T08:41:05.000Z</time>
      </trkpt>
      <trkpt lat="42.64188" lon="1.98669">
        <ele>2515.9</ele>
        <time>2021-08-02T08:41:14.000Z</time>
      </trkpt>
      <trkpt lat="42.64198" lon="1.98669">
        <ele>2514.9</ele>
        <time>2021-08-02T08:41:23.000Z</time>
      </trkpt>
      <trkpt lat="42.64207" lon="1.98669">
        <ele>2514.3</ele>
        <time>2021-08-02T08:41:31.000Z</time>
      </trkpt>
      <trkpt lat="42.64215" lon="1.98673">
        <ele>2514.3</ele>
        <time>2021-08-02T08:41:39.000Z</time>
      </trkpt>
      <trkpt lat="42.64225" lon="1.98676">
        <ele>2513.9</ele>
        <time>2021-08-02T08:41:48.000Z</time>
      </trkpt>
      <trkpt lat="42.64235" lon="1.98679">
        <ele>2512.8</ele>
        <time>2021-08-02T08:41:57.000Z</time>
      </trkpt>
      <trkpt lat="42.64244" lon="1.98685">
        <ele>2511.8</ele>
        <time>2021-08-02T08:42:06.000Z</time>
      </trkpt>
      <trkpt lat="42.64252" lon="1.98689">
        <ele>2511.3</ele>
        <time>2021-08-02T08:42:14.000Z</time>
      </trkpt>
      <trkpt lat="42.64261" lon="1.98694">
        <ele>2511.2</ele>
        <time>2021-08-02T08:42:22.000Z</time>
      </trkpt>
      <trkpt lat="42.64269" lon="1.98701">
        <ele>2510.6</ele>
        <time>2021-08-02T08:42:31.000Z</time>
      </trkpt>
      <trkpt lat="42.64276" lon="1.98709">
        <ele>2510.3</ele>
        <time>2021-08-02T08:42:39.000Z</time>
      </trkpt>
      <trkpt lat="42.64283" lon="1.98718">
        <ele>2510.3</ele>
        <time>2021-08-02T08:42:47.000Z</time>
      </trkpt>
      <trkpt lat="42.64291" lon="1.98722">
        <ele>2510.4</ele>
        <time>2021-08-02T08:42:55.000Z</time>
      </trkpt>
      <trkpt lat="42.64301" lon="1.98728">
        <ele>2510.4</ele>
        <time>2021-08-02T08:43:04.000Z</time>
      </trkpt>
      <trkpt lat="42.64309" lon="1.98734">
        <ele>2510.6</ele>
        <time>2021-08-02T08:43:12.000Z</time>
      </trkpt>
      <trkpt lat="42.64318" lon="1.98739">
        <ele>2510.2</ele>
        <time>2021-08-02T08:43:21.000Z</time>
      </trkpt>
      <trkpt lat="42.64327" lon="1.98741">
        <ele>2509.4</ele>
        <time>2021-08-02T08:43:30.000Z</time>
      </trkpt>
      <trkpt lat="42.64336" lon="1.98743">
        <ele>2509.1</ele>
        <time>2021-08-02T08:43:38.000Z</time>
      </trkpt>
      <trkpt lat="42.64346" lon="1.98746">
        <ele>2508.7</ele>
        <time>2021-08-02T08:43:46.000Z</time>
      </trkpt>
      <trkpt lat="42.64354" lon="1.98752">
        <ele>2508.7</ele>
        <time>2021-08-02T08:43:54.000Z</time>
      </trkpt>
      <trkpt lat="42.64362" lon="1.98759">
        <ele>2509.1</ele>
        <time>2021-08-02T08:44:02.000Z</time>
      </trkpt>
      <trkpt lat="42.64371" lon="1.98763">
        <ele>2508.5</ele>
        <time>2021-08-02T08:44:11.000Z</time>
      </trkpt>
      <trkpt lat="42.64379" lon="1.98769">
        <ele>2508.8</ele>
        <time>2021-08-02T08:44:19.000Z</time>
      </trkpt>
      <trkpt lat="42.64387" lon="1.98776">
        <ele>2509.5</ele>
        <time>2021-08-02T08:44:28.000Z</time>
      </trkpt>
      <trkpt lat="42.64396" lon="1.98783">
        <ele>2510.7</ele>
        <time>2021-08-02T08:44:38.000Z</time>
      </trkpt>
      <trkpt lat="42.64403" lon="1.9879">
        <ele>2511.4</ele>
        <time>2021-08-02T08:44:47.000Z</time>
      </trkpt>
      <trkpt lat="42.64412" lon="1.98794">
        <ele>2512.2</ele>
        <time>2021-08-02T08:44:58.000Z</time>
      </trkpt>
      <trkpt lat="42.64421" lon="1.98798">
        <ele>2513.1</ele>
        <time>2021-08-02T08:45:11.000Z</time>
      </trkpt>
      <trkpt lat="42.64431" lon="1.988">
        <ele>2512.1</ele>
        <time>2021-08-02T08:45:21.000Z</time>
      </trkpt>
      <trkpt lat="42.64439" lon="1.98805">
        <ele>2513.1</ele>
        <time>2021-08-02T08:45:32.000Z</time>
      </trkpt>
      <trkpt lat="42.64445" lon="1.98815">
        <ele>2515</ele>
        <time>2021-08-02T08:45:48.000Z</time>
      </trkpt>
      <trkpt lat="42.64452" lon="1.98823">
        <ele>2514.4</ele>
        <time>2021-08-02T08:45:59.000Z</time>
      </trkpt>
      <trkpt lat="42.6446" lon="1.9883">
        <ele>2513.3</ele>
        <time>2021-08-02T08:46:10.000Z</time>
      </trkpt>
      <trkpt lat="42.64467" lon="1.98841">
        <ele>2511.5</ele>
        <time>2021-08-02T08:46:20.000Z</time>
      </trkpt>
      <trkpt lat="42.64473" lon="1.9885">
        <ele>2510.2</ele>
        <time>2021-08-02T08:46:30.000Z</time>
      </trkpt>
      <trkpt lat="42.64481" lon="1.98857">
        <ele>2509.9</ele>
        <time>2021-08-02T08:46:39.000Z</time>
      </trkpt>
      <trkpt lat="42.64489" lon="1.98864">
        <ele>2510.4</ele>
        <time>2021-08-02T08:46:48.000Z</time>
      </trkpt>
      <trkpt lat="42.64496" lon="1.98872">
        <ele>2512</ele>
        <time>2021-08-02T08:46:58.000Z</time>
      </trkpt>
      <trkpt lat="42.64504" lon="1.98879">
        <ele>2514</ele>
        <time>2021-08-02T08:47:10.000Z</time>
      </trkpt>
      <trkpt lat="42.6451" lon="1.98887">
        <ele>2516.4</ele>
        <time>2021-08-02T08:47:23.000Z</time>
      </trkpt>
      <trkpt lat="42.64517" lon="1.98896">
        <ele>2517.8</ele>
        <time>2021-08-02T08:47:33.000Z</time>
      </trkpt>
      <trkpt lat="42.64524" lon="1.98905">
        <ele>2517.6</ele>
        <time>2021-08-02T08:47:43.000Z</time>
      </trkpt>
      <trkpt lat="42.64531" lon="1.98913">
        <ele>2517.7</ele>
        <time>2021-08-02T08:47:52.000Z</time>
      </trkpt>
      <trkpt lat="42.64537" lon="1.98923">
        <ele>2517.5</ele>
        <time>2021-08-02T08:48:01.000Z</time>
      </trkpt>
      <trkpt lat="42.64545" lon="1.98932">
        <ele>2518.6</ele>
        <time>2021-08-02T08:48:11.000Z</time>
      </trkpt>
      <trkpt lat="42.64548" lon="1.98944">
        <ele>2519.1</ele>
        <time>2021-08-02T08:48:20.000Z</time>
      </trkpt>
      <trkpt lat="42.64551" lon="1.98956">
        <ele>2520.8</ele>
        <time>2021-08-02T08:48:30.000Z</time>
      </trkpt>
      <trkpt lat="42.64555" lon="1.98968">
        <ele>2521.8</ele>
        <time>2021-08-02T08:48:40.000Z</time>
      </trkpt>
      <trkpt lat="42.64558" lon="1.9898">
        <ele>2522.6</ele>
        <time>2021-08-02T08:48:50.000Z</time>
      </trkpt>
      <trkpt lat="42.64561" lon="1.98992">
        <ele>2523.9</ele>
        <time>2021-08-02T08:49:01.000Z</time>
      </trkpt>
      <trkpt lat="42.64565" lon="1.99004">
        <ele>2525.1</ele>
        <time>2021-08-02T08:49:11.000Z</time>
      </trkpt>
      <trkpt lat="42.64567" lon="1.99017">
        <ele>2526.3</ele>
        <time>2021-08-02T08:49:21.000Z</time>
      </trkpt>
      <trkpt lat="42.64571" lon="1.99028">
        <ele>2526.9</ele>
        <time>2021-08-02T08:49:30.000Z</time>
      </trkpt>
      <trkpt lat="42.64576" lon="1.99039">
        <ele>2528.2</ele>
        <time>2021-08-02T08:49:40.000Z</time>
      </trkpt>
      <trkpt lat="42.64581" lon="1.99051">
        <ele>2529.7</ele>
        <time>2021-08-02T08:49:51.000Z</time>
      </trkpt>
      <trkpt lat="42.64585" lon="1.99062">
        <ele>2530.7</ele>
        <time>2021-08-02T08:50:01.000Z</time>
      </trkpt>
      <trkpt lat="42.64589" lon="1.99074">
        <ele>2531.7</ele>
        <time>2021-08-02T08:50:11.000Z</time>
      </trkpt>
      <trkpt lat="42.64594" lon="1.99085">
        <ele>2532.5</ele>
        <time>2021-08-02T08:50:21.000Z</time>
      </trkpt>
      <trkpt lat="42.646" lon="1.99094">
        <ele>2533.4</ele>
        <time>2021-08-02T08:50:32.000Z</time>
      </trkpt>
      <trkpt lat="42.64606" lon="1.99105">
        <ele>2534.6</ele>
        <time>2021-08-02T08:50:42.000Z</time>
      </trkpt>
      <trkpt lat="42.64611" lon="1.99115">
        <ele>2535.3</ele>
        <time>2021-08-02T08:50:51.000Z</time>
      </trkpt>
      <trkpt lat="42.64614" lon="1.99127">
        <ele>2536.3</ele>
        <time>2021-08-02T08:51:00.000Z</time>
      </trkpt>
      <trkpt lat="42.64617" lon="1.99139">
        <ele>2537.5</ele>
        <time>2021-08-02T08:51:10.000Z</time>
      </trkpt>
      <trkpt lat="42.64621" lon="1.9915">
        <ele>2538.7</ele>
        <time>2021-08-02T08:51:20.000Z</time>
      </trkpt>
      <trkpt lat="42.64626" lon="1.99161">
        <ele>2540.2</ele>
        <time>2021-08-02T08:51:31.000Z</time>
      </trkpt>
      <trkpt lat="42.64632" lon="1.99172">
        <ele>2541.1</ele>
        <time>2021-08-02T08:51:41.000Z</time>
      </trkpt>
      <trkpt lat="42.64636" lon="1.99183">
        <ele>2541.9</ele>
        <time>2021-08-02T08:51:50.000Z</time>
      </trkpt>
      <trkpt lat="42.64642" lon="1.99193">
        <ele>2543.7</ele>
        <time>2021-08-02T08:52:01.000Z</time>
      </trkpt>
      <trkpt lat="42.64646" lon="1.99204">
        <ele>2545.3</ele>
        <time>2021-08-02T08:52:12.000Z</time>
      </trkpt>
      <trkpt lat="42.6465" lon="1.99215">
        <ele>2546.5</ele>
        <time>2021-08-02T08:52:22.000Z</time>
      </trkpt>
      <trkpt lat="42.6465" lon="1.99228">
        <ele>2546.4</ele>
        <time>2021-08-02T08:52:33.000Z</time>
      </trkpt>
      <trkpt lat="42.64647" lon="1.99235">
        <ele>2545.5</ele>
        <time>2021-08-02T08:52:42.000Z</time>
      </trkpt>
      <trkpt lat="42.64647" lon="1.99235">
        <ele>2545.8</ele>
        <time>2021-08-02T08:53:12.000Z</time>
      </trkpt>
      <trkpt lat="42.64649" lon="1.99232">
        <ele>2545</ele>
        <time>2021-08-02T08:53:19.000Z</time>
      </trkpt>
      <trkpt lat="42.64649" lon="1.99232">
        <ele>2545.2</ele>
        <time>2021-08-02T08:53:20.000Z</time>
      </trkpt>
      <trkpt lat="42.64649" lon="1.99232">
        <ele>2545.4</ele>
        <time>2021-08-02T08:53:21.000Z</time>
      </trkpt>
      <trkpt lat="42.64649" lon="1.99232">
        <ele>2545.5</ele>
        <time>2021-08-02T08:53:31.000Z</time>
      </trkpt>
      <trkpt lat="42.6465" lon="1.9923">
        <ele>2545.5</ele>
        <time>2021-08-02T08:53:36.000Z</time>
      </trkpt>
      <trkpt lat="42.64651" lon="1.9923">
        <ele>2545.4</ele>
        <time>2021-08-02T08:53:57.000Z</time>
      </trkpt>
      <trkpt lat="42.64659" lon="1.99223">
        <ele>2545.4</ele>
        <time>2021-08-02T08:54:07.000Z</time>
      </trkpt>
      <trkpt lat="42.64661" lon="1.99222">
        <ele>2545.1</ele>
        <time>2021-08-02T08:54:11.000Z</time>
      </trkpt>
      <trkpt lat="42.64661" lon="1.99221">
        <ele>2545.2</ele>
        <time>2021-08-02T08:54:16.000Z</time>
      </trkpt>
      <trkpt lat="42.64658" lon="1.99215">
        <ele>2545.1</ele>
        <time>2021-08-02T08:54:25.000Z</time>
      </trkpt>
      <trkpt lat="42.64657" lon="1.99215">
        <ele>2545.2</ele>
        <time>2021-08-02T08:54:30.000Z</time>
      </trkpt>
      <trkpt lat="42.64654" lon="1.99222">
        <ele>2546.2</ele>
        <time>2021-08-02T08:54:40.000Z</time>
      </trkpt>
      <trkpt lat="42.64654" lon="1.99221">
        <ele>2546</ele>
        <time>2021-08-02T08:54:42.000Z</time>
      </trkpt>
      <trkpt lat="42.64654" lon="1.99221">
        <ele>2546</ele>
        <time>2021-08-02T08:54:43.000Z</time>
      </trkpt>
      <trkpt lat="42.64654" lon="1.99221">
        <ele>2545.7</ele>
        <time>2021-08-02T08:54:58.000Z</time>
      </trkpt>
      <trkpt lat="42.64654" lon="1.99221">
        <ele>2545.8</ele>
        <time>2021-08-02T08:54:59.000Z</time>
      </trkpt>
      <trkpt lat="42.64654" lon="1.99222">
        <ele>2546.2</ele>
        <time>2021-08-02T08:55:42.000Z</time>
      </trkpt>
      <trkpt lat="42.64653" lon="1.99223">
        <ele>2546.3</ele>
        <time>2021-08-02T08:55:45.000Z</time>
      </trkpt>
      <trkpt lat="42.64653" lon="1.99223">
        <ele>2546.3</ele>
        <time>2021-08-02T08:55:58.000Z</time>
      </trkpt>
      <trkpt lat="42.64653" lon="1.99223">
        <ele>2546.3</ele>
        <time>2021-08-02T08:55:59.000Z</time>
      </trkpt>
      <trkpt lat="42.64653" lon="1.99223">
        <ele>2546.3</ele>
        <time>2021-08-02T08:56:05.000Z</time>
      </trkpt>
      <trkpt lat="42.64653" lon="1.99223">
        <ele>2546.4</ele>
        <time>2021-08-02T08:56:07.000Z</time>
      </trkpt>
      <trkpt lat="42.64653" lon="1.99223">
        <ele>2546.4</ele>
        <time>2021-08-02T08:56:24.000Z</time>
      </trkpt>
      <trkpt lat="42.64654" lon="1.99232">
        <ele>2544.9</ele>
        <time>2021-08-02T08:56:34.000Z</time>
      </trkpt>
      <trkpt lat="42.64654" lon="1.99232">
        <ele>2544.9</ele>
        <time>2021-08-02T08:56:37.000Z</time>
      </trkpt>
      <trkpt lat="42.6466" lon="1.99242">
        <ele>2542.6</ele>
        <time>2021-08-02T08:56:50.000Z</time>
      </trkpt>
      <trkpt lat="42.64667" lon="1.99251">
        <ele>2539.2</ele>
        <time>2021-08-02T08:57:04.000Z</time>
      </trkpt>
      <trkpt lat="42.64672" lon="1.99262">
        <ele>2536.2</ele>
        <time>2021-08-02T08:57:17.000Z</time>
      </trkpt>
      <trkpt lat="42.64675" lon="1.99273">
        <ele>2532.3</ele>
        <time>2021-08-02T08:57:30.000Z</time>
      </trkpt>
      <trkpt lat="42.64679" lon="1.99285">
        <ele>2528.9</ele>
        <time>2021-08-02T08:57:42.000Z</time>
      </trkpt>
      <trkpt lat="42.64688" lon="1.99281">
        <ele>2525.5</ele>
        <time>2021-08-02T08:57:57.000Z</time>
      </trkpt>
      <trkpt lat="42.64689" lon="1.9928">
        <ele>2524.4</ele>
        <time>2021-08-02T08:58:00.000Z</time>
      </trkpt>
      <trkpt lat="42.64689" lon="1.9928">
        <ele>2524.4</ele>
        <time>2021-08-02T08:58:01.000Z</time>
      </trkpt>
      <trkpt lat="42.64696" lon="1.99274">
        <ele>2521.8</ele>
        <time>2021-08-02T08:58:16.000Z</time>
      </trkpt>
      <trkpt lat="42.64696" lon="1.99274">
        <ele>2521.2</ele>
        <time>2021-08-02T08:58:26.000Z</time>
      </trkpt>
      <trkpt lat="42.64705" lon="1.99273">
        <ele>2518.3</ele>
        <time>2021-08-02T08:58:43.000Z</time>
      </trkpt>
      <trkpt lat="42.6471" lon="1.99271">
        <ele>2516.1</ele>
        <time>2021-08-02T08:58:53.000Z</time>
      </trkpt>
      <trkpt lat="42.6471" lon="1.99271">
        <ele>2515.7</ele>
        <time>2021-08-02T08:59:09.000Z</time>
      </trkpt>
      <trkpt lat="42.64717" lon="1.99263">
        <ele>2513.9</ele>
        <time>2021-08-02T08:59:22.000Z</time>
      </trkpt>
      <trkpt lat="42.64725" lon="1.99258">
        <ele>2510.5</ele>
        <time>2021-08-02T08:59:37.000Z</time>
      </trkpt>
      <trkpt lat="42.64734" lon="1.99253">
        <ele>2507</ele>
        <time>2021-08-02T08:59:51.000Z</time>
      </trkpt>
      <trkpt lat="42.64743" lon="1.99249">
        <ele>2503.1</ele>
        <time>2021-08-02T09:00:05.000Z</time>
      </trkpt>
      <trkpt lat="42.64752" lon="1.99247">
        <ele>2499.2</ele>
        <time>2021-08-02T09:00:19.000Z</time>
      </trkpt>
      <trkpt lat="42.64761" lon="1.99246">
        <ele>2495.6</ele>
        <time>2021-08-02T09:00:33.000Z</time>
      </trkpt>
      <trkpt lat="42.6477" lon="1.99242">
        <ele>2492.7</ele>
        <time>2021-08-02T09:00:46.000Z</time>
      </trkpt>
      <trkpt lat="42.64779" lon="1.99238">
        <ele>2489.5</ele>
        <time>2021-08-02T09:00:58.000Z</time>
      </trkpt>
      <trkpt lat="42.64788" lon="1.99236">
        <ele>2485.6</ele>
        <time>2021-08-02T09:01:13.000Z</time>
      </trkpt>
      <trkpt lat="42.64797" lon="1.99231">
        <ele>2482.3</ele>
        <time>2021-08-02T09:01:27.000Z</time>
      </trkpt>
      <trkpt lat="42.64806" lon="1.99229">
        <ele>2478.4</ele>
        <time>2021-08-02T09:01:41.000Z</time>
      </trkpt>
      <trkpt lat="42.64815" lon="1.99226">
        <ele>2474.6</ele>
        <time>2021-08-02T09:01:55.000Z</time>
      </trkpt>
      <trkpt lat="42.64824" lon="1.99223">
        <ele>2470.6</ele>
        <time>2021-08-02T09:02:11.000Z</time>
      </trkpt>
      <trkpt lat="42.64832" lon="1.99218">
        <ele>2466.7</ele>
        <time>2021-08-02T09:02:26.000Z</time>
      </trkpt>
      <trkpt lat="42.64841" lon="1.99215">
        <ele>2461.8</ele>
        <time>2021-08-02T09:02:46.000Z</time>
      </trkpt>
      <trkpt lat="42.6485" lon="1.99213">
        <ele>2457.8</ele>
        <time>2021-08-02T09:03:01.000Z</time>
      </trkpt>
      <trkpt lat="42.64859" lon="1.9921">
        <ele>2454</ele>
        <time>2021-08-02T09:03:13.000Z</time>
      </trkpt>
      <trkpt lat="42.64868" lon="1.9921">
        <ele>2450.4</ele>
        <time>2021-08-02T09:03:27.000Z</time>
      </trkpt>
      <trkpt lat="42.6487" lon="1.9921">
        <ele>2449.3</ele>
        <time>2021-08-02T09:03:31.000Z</time>
      </trkpt>
      <trkpt lat="42.6487" lon="1.99211">
        <ele>2449.6</ele>
        <time>2021-08-02T09:03:46.000Z</time>
      </trkpt>
      <trkpt lat="42.64879" lon="1.99206">
        <ele>2445.8</ele>
        <time>2021-08-02T09:04:04.000Z</time>
      </trkpt>
      <trkpt lat="42.64888" lon="1.99208">
        <ele>2442.6</ele>
        <time>2021-08-02T09:04:18.000Z</time>
      </trkpt>
      <trkpt lat="42.64896" lon="1.99202">
        <ele>2438.8</ele>
        <time>2021-08-02T09:04:31.000Z</time>
      </trkpt>
      <trkpt lat="42.64905" lon="1.99197">
        <ele>2436.1</ele>
        <time>2021-08-02T09:04:42.000Z</time>
      </trkpt>
      <trkpt lat="42.64914" lon="1.99196">
        <ele>2434.1</ele>
        <time>2021-08-02T09:04:52.000Z</time>
      </trkpt>
      <trkpt lat="42.64923" lon="1.99198">
        <ele>2431.9</ele>
        <time>2021-08-02T09:05:02.000Z</time>
      </trkpt>
      <trkpt lat="42.64932" lon="1.99194">
        <ele>2430.2</ele>
        <time>2021-08-02T09:05:12.000Z</time>
      </trkpt>
      <trkpt lat="42.64934" lon="1.99191">
        <ele>2429.1</ele>
        <time>2021-08-02T09:05:19.000Z</time>
      </trkpt>
      <trkpt lat="42.64934" lon="1.99191">
        <ele>2429.1</ele>
        <time>2021-08-02T09:05:20.000Z</time>
      </trkpt>
      <trkpt lat="42.64934" lon="1.99191">
        <ele>2429</ele>
        <time>2021-08-02T09:05:21.000Z</time>
      </trkpt>
      <trkpt lat="42.64934" lon="1.99191">
        <ele>2429</ele>
        <time>2021-08-02T09:05:23.000Z</time>
      </trkpt>
      <trkpt lat="42.64934" lon="1.99191">
        <ele>2429</ele>
        <time>2021-08-02T09:05:25.000Z</time>
      </trkpt>
      <trkpt lat="42.64934" lon="1.99191">
        <ele>2428.6</ele>
        <time>2021-08-02T09:05:48.000Z</time>
      </trkpt>
      <trkpt lat="42.64934" lon="1.99191">
        <ele>2428.5</ele>
        <time>2021-08-02T09:05:49.000Z</time>
      </trkpt>
      <trkpt lat="42.64934" lon="1.99191">
        <ele>2428.5</ele>
        <time>2021-08-02T09:06:25.000Z</time>
      </trkpt>
      <trkpt lat="42.64934" lon="1.99191">
        <ele>2428.7</ele>
        <time>2021-08-02T09:06:26.000Z</time>
      </trkpt>
      <trkpt lat="42.64934" lon="1.99192">
        <ele>2428.6</ele>
        <time>2021-08-02T09:06:42.000Z</time>
      </trkpt>
      <trkpt lat="42.64934" lon="1.99192">
        <ele>2428.3</ele>
        <time>2021-08-02T09:06:44.000Z</time>
      </trkpt>
      <trkpt lat="42.64933" lon="1.99192">
        <ele>2428.5</ele>
        <time>2021-08-02T09:06:45.000Z</time>
      </trkpt>
      <trkpt lat="42.64933" lon="1.99192">
        <ele>2428.6</ele>
        <time>2021-08-02T09:06:46.000Z</time>
      </trkpt>
      <trkpt lat="42.64933" lon="1.99192">
        <ele>2428.7</ele>
        <time>2021-08-02T09:08:34.000Z</time>
      </trkpt>
      <trkpt lat="42.64933" lon="1.99192">
        <ele>2428.8</ele>
        <time>2021-08-02T09:08:35.000Z</time>
      </trkpt>
      <trkpt lat="42.64933" lon="1.99193">
        <ele>2428.8</ele>
        <time>2021-08-02T09:08:36.000Z</time>
      </trkpt>
      <trkpt lat="42.64933" lon="1.99193">
        <ele>2428.4</ele>
        <time>2021-08-02T09:08:38.000Z</time>
      </trkpt>
      <trkpt lat="42.64933" lon="1.99193">
        <ele>2428.2</ele>
        <time>2021-08-02T09:09:09.000Z</time>
      </trkpt>
      <trkpt lat="42.64933" lon="1.99194">
        <ele>2428.9</ele>
        <time>2021-08-02T09:09:13.000Z</time>
      </trkpt>
      <trkpt lat="42.64933" lon="1.99194">
        <ele>2428.8</ele>
        <time>2021-08-02T09:09:28.000Z</time>
      </trkpt>
      <trkpt lat="42.64933" lon="1.99194">
        <ele>2428.8</ele>
        <time>2021-08-02T09:09:29.000Z</time>
      </trkpt>
      <trkpt lat="42.64933" lon="1.99194">
        <ele>2428.6</ele>
        <time>2021-08-02T09:09:41.000Z</time>
      </trkpt>
      <trkpt lat="42.64933" lon="1.99194">
        <ele>2428.5</ele>
        <time>2021-08-02T09:09:42.000Z</time>
      </trkpt>
      <trkpt lat="42.64933" lon="1.99194">
        <ele>2428.7</ele>
        <time>2021-08-02T09:09:43.000Z</time>
      </trkpt>
      <trkpt lat="42.64933" lon="1.99194">
        <ele>2428.8</ele>
        <time>2021-08-02T09:09:44.000Z</time>
      </trkpt>
      <trkpt lat="42.64933" lon="1.99194">
        <ele>2428.7</ele>
        <time>2021-08-02T09:10:01.000Z</time>
      </trkpt>
      <trkpt lat="42.64933" lon="1.99194">
        <ele>2428.8</ele>
        <time>2021-08-02T09:10:02.000Z</time>
      </trkpt>
      <trkpt lat="42.64933" lon="1.99194">
        <ele>2429.1</ele>
        <time>2021-08-02T09:10:04.000Z</time>
      </trkpt>
      <trkpt lat="42.64942" lon="1.99193">
        <ele>2425.9</ele>
        <time>2021-08-02T09:10:17.000Z</time>
      </trkpt>
      <trkpt lat="42.64951" lon="1.99195">
        <ele>2423.3</ele>
        <time>2021-08-02T09:10:27.000Z</time>
      </trkpt>
      <trkpt lat="42.64961" lon="1.99192">
        <ele>2421.6</ele>
        <time>2021-08-02T09:10:37.000Z</time>
      </trkpt>
      <trkpt lat="42.64968" lon="1.99184">
        <ele>2419.5</ele>
        <time>2021-08-02T09:10:47.000Z</time>
      </trkpt>
      <trkpt lat="42.64976" lon="1.99177">
        <ele>2417.9</ele>
        <time>2021-08-02T09:10:57.000Z</time>
      </trkpt>
      <trkpt lat="42.64984" lon="1.9917">
        <ele>2416.1</ele>
        <time>2021-08-02T09:11:07.000Z</time>
      </trkpt>
      <trkpt lat="42.64992" lon="1.99163">
        <ele>2414.9</ele>
        <time>2021-08-02T09:11:17.000Z</time>
      </trkpt>
      <trkpt lat="42.64997" lon="1.99152">
        <ele>2412.8</ele>
        <time>2021-08-02T09:11:30.000Z</time>
      </trkpt>
      <trkpt lat="42.64997" lon="1.99142">
        <ele>2411</ele>
        <time>2021-08-02T09:11:40.000Z</time>
      </trkpt>
      <trkpt lat="42.64996" lon="1.99142">
        <ele>2411.1</ele>
        <time>2021-08-02T09:11:48.000Z</time>
      </trkpt>
      <trkpt lat="42.64996" lon="1.99142">
        <ele>2411</ele>
        <time>2021-08-02T09:11:49.000Z</time>
      </trkpt>
      <trkpt lat="42.64996" lon="1.99142">
        <ele>2411.1</ele>
        <time>2021-08-02T09:11:59.000Z</time>
      </trkpt>
      <trkpt lat="42.64996" lon="1.99133">
        <ele>2409.3</ele>
        <time>2021-08-02T09:12:08.000Z</time>
      </trkpt>
      <trkpt lat="42.64996" lon="1.99133">
        <ele>2409.3</ele>
        <time>2021-08-02T09:12:09.000Z</time>
      </trkpt>
      <trkpt lat="42.64996" lon="1.99133">
        <ele>2409.2</ele>
        <time>2021-08-02T09:12:11.000Z</time>
      </trkpt>
      <trkpt lat="42.64996" lon="1.99133">
        <ele>2409</ele>
        <time>2021-08-02T09:12:14.000Z</time>
      </trkpt>
      <trkpt lat="42.64996" lon="1.99133">
        <ele>2408.9</ele>
        <time>2021-08-02T09:12:15.000Z</time>
      </trkpt>
      <trkpt lat="42.64996" lon="1.99133">
        <ele>2408.4</ele>
        <time>2021-08-02T09:12:39.000Z</time>
      </trkpt>
      <trkpt lat="42.64995" lon="1.99132">
        <ele>2409.2</ele>
        <time>2021-08-02T09:12:42.000Z</time>
      </trkpt>
      <trkpt lat="42.64995" lon="1.99132">
        <ele>2409.3</ele>
        <time>2021-08-02T09:12:50.000Z</time>
      </trkpt>
      <trkpt lat="42.64995" lon="1.99119">
        <ele>2405.8</ele>
        <time>2021-08-02T09:13:03.000Z</time>
      </trkpt>
      <trkpt lat="42.64995" lon="1.99106">
        <ele>2403.1</ele>
        <time>2021-08-02T09:13:16.000Z</time>
      </trkpt>
      <trkpt lat="42.64993" lon="1.99093">
        <ele>2400</ele>
        <time>2021-08-02T09:13:30.000Z</time>
      </trkpt>
      <trkpt lat="42.64989" lon="1.99081">
        <ele>2396.3</ele>
        <time>2021-08-02T09:13:42.000Z</time>
      </trkpt>
      <trkpt lat="42.64984" lon="1.99071">
        <ele>2393.5</ele>
        <time>2021-08-02T09:13:54.000Z</time>
      </trkpt>
      <trkpt lat="42.64982" lon="1.99059">
        <ele>2390.3</ele>
        <time>2021-08-02T09:14:07.000Z</time>
      </trkpt>
      <trkpt lat="42.64977" lon="1.99048">
        <ele>2387.4</ele>
        <time>2021-08-02T09:14:19.000Z</time>
      </trkpt>
      <trkpt lat="42.64975" lon="1.99035">
        <ele>2384.7</ele>
        <time>2021-08-02T09:14:31.000Z</time>
      </trkpt>
      <trkpt lat="42.64973" lon="1.99022">
        <ele>2381.5</ele>
        <time>2021-08-02T09:14:42.000Z</time>
      </trkpt>
      <trkpt lat="42.64973" lon="1.9902">
        <ele>2380.7</ele>
        <time>2021-08-02T09:14:46.000Z</time>
      </trkpt>
      <trkpt lat="42.64973" lon="1.9902">
        <ele>2380.7</ele>
        <time>2021-08-02T09:15:03.000Z</time>
      </trkpt>
      <trkpt lat="42.64973" lon="1.9902">
        <ele>2380.7</ele>
        <time>2021-08-02T09:15:04.000Z</time>
      </trkpt>
      <trkpt lat="42.64973" lon="1.9902">
        <ele>2380.8</ele>
        <time>2021-08-02T09:15:17.000Z</time>
      </trkpt>
      <trkpt lat="42.6497" lon="1.99008">
        <ele>2379.1</ele>
        <time>2021-08-02T09:15:28.000Z</time>
      </trkpt>
      <trkpt lat="42.64966" lon="1.98996">
        <ele>2376.5</ele>
        <time>2021-08-02T09:15:39.000Z</time>
      </trkpt>
      <trkpt lat="42.64962" lon="1.98985">
        <ele>2374.6</ele>
        <time>2021-08-02T09:15:49.000Z</time>
      </trkpt>
      <trkpt lat="42.64959" lon="1.98973">
        <ele>2370.6</ele>
        <time>2021-08-02T09:16:02.000Z</time>
      </trkpt>
      <trkpt lat="42.64953" lon="1.98964">
        <ele>2367.9</ele>
        <time>2021-08-02T09:16:14.000Z</time>
      </trkpt>
      <trkpt lat="42.64949" lon="1.98952">
        <ele>2364.6</ele>
        <time>2021-08-02T09:16:27.000Z</time>
      </trkpt>
      <trkpt lat="42.64946" lon="1.98939">
        <ele>2362</ele>
        <time>2021-08-02T09:16:39.000Z</time>
      </trkpt>
      <trkpt lat="42.6494" lon="1.98929">
        <ele>2360.5</ele>
        <time>2021-08-02T09:16:49.000Z</time>
      </trkpt>
      <trkpt lat="42.64937" lon="1.98917">
        <ele>2358</ele>
        <time>2021-08-02T09:17:02.000Z</time>
      </trkpt>
      <trkpt lat="42.64936" lon="1.98904">
        <ele>2353.3</ele>
        <time>2021-08-02T09:17:16.000Z</time>
      </trkpt>
      <trkpt lat="42.64935" lon="1.98903">
        <ele>2352.6</ele>
        <time>2021-08-02T09:17:22.000Z</time>
      </trkpt>
      <trkpt lat="42.64935" lon="1.98902">
        <ele>2352.7</ele>
        <time>2021-08-02T09:17:30.000Z</time>
      </trkpt>
      <trkpt lat="42.64933" lon="1.9889">
        <ele>2348.4</ele>
        <time>2021-08-02T09:17:45.000Z</time>
      </trkpt>
      <trkpt lat="42.64928" lon="1.98879">
        <ele>2343.2</ele>
        <time>2021-08-02T09:17:59.000Z</time>
      </trkpt>
      <trkpt lat="42.64924" lon="1.98868">
        <ele>2340.7</ele>
        <time>2021-08-02T09:18:09.000Z</time>
      </trkpt>
      <trkpt lat="42.64921" lon="1.98855">
        <ele>2338.2</ele>
        <time>2021-08-02T09:18:21.000Z</time>
      </trkpt>
      <trkpt lat="42.6492" lon="1.98852">
        <ele>2337.5</ele>
        <time>2021-08-02T09:18:26.000Z</time>
      </trkpt>
      <trkpt lat="42.6492" lon="1.98852">
        <ele>2337.3</ele>
        <time>2021-08-02T09:18:38.000Z</time>
      </trkpt>
      <trkpt lat="42.64916" lon="1.9884">
        <ele>2334.9</ele>
        <time>2021-08-02T09:18:49.000Z</time>
      </trkpt>
      <trkpt lat="42.64912" lon="1.98829">
        <ele>2331.4</ele>
        <time>2021-08-02T09:19:01.000Z</time>
      </trkpt>
      <trkpt lat="42.64921" lon="1.98833">
        <ele>2329.4</ele>
        <time>2021-08-02T09:19:12.000Z</time>
      </trkpt>
      <trkpt lat="42.64929" lon="1.9884">
        <ele>2327.9</ele>
        <time>2021-08-02T09:19:21.000Z</time>
      </trkpt>
      <trkpt lat="42.64929" lon="1.9884">
        <ele>2328.2</ele>
        <time>2021-08-02T09:19:23.000Z</time>
      </trkpt>
      <trkpt lat="42.64929" lon="1.9884">
        <ele>2328.2</ele>
        <time>2021-08-02T09:19:29.000Z</time>
      </trkpt>
      <trkpt lat="42.64938" lon="1.98845">
        <ele>2325.6</ele>
        <time>2021-08-02T09:19:40.000Z</time>
      </trkpt>
      <trkpt lat="42.64944" lon="1.98835">
        <ele>2319.7</ele>
        <time>2021-08-02T09:20:13.000Z</time>
      </trkpt>
      <trkpt lat="42.64939" lon="1.98824">
        <ele>2315.3</ele>
        <time>2021-08-02T09:20:34.000Z</time>
      </trkpt>
      <trkpt lat="42.64949" lon="1.98826">
        <ele>2314</ele>
        <time>2021-08-02T09:20:49.000Z</time>
      </trkpt>
      <trkpt lat="42.64946" lon="1.98814">
        <ele>2308.7</ele>
        <time>2021-08-02T09:21:18.000Z</time>
      </trkpt>
      <trkpt lat="42.64942" lon="1.98807">
        <ele>2306.2</ele>
        <time>2021-08-02T09:21:29.000Z</time>
      </trkpt>
      <trkpt lat="42.64942" lon="1.98807">
        <ele>2306.3</ele>
        <time>2021-08-02T09:21:32.000Z</time>
      </trkpt>
      <trkpt lat="42.64942" lon="1.98807">
        <ele>2306.1</ele>
        <time>2021-08-02T09:21:33.000Z</time>
      </trkpt>
      <trkpt lat="42.64941" lon="1.98806">
        <ele>2306</ele>
        <time>2021-08-02T09:21:42.000Z</time>
      </trkpt>
      <trkpt lat="42.64948" lon="1.98798">
        <ele>2300.9</ele>
        <time>2021-08-02T09:22:06.000Z</time>
      </trkpt>
      <trkpt lat="42.64958" lon="1.98799">
        <ele>2299</ele>
        <time>2021-08-02T09:22:17.000Z</time>
      </trkpt>
      <trkpt lat="42.64951" lon="1.9879">
        <ele>2296.6</ele>
        <time>2021-08-02T09:22:28.000Z</time>
      </trkpt>
      <trkpt lat="42.64945" lon="1.98781">
        <ele>2295.1</ele>
        <time>2021-08-02T09:22:38.000Z</time>
      </trkpt>
      <trkpt lat="42.64941" lon="1.98769">
        <ele>2292.5</ele>
        <time>2021-08-02T09:22:49.000Z</time>
      </trkpt>
      <trkpt lat="42.64937" lon="1.98759">
        <ele>2291</ele>
        <time>2021-08-02T09:22:59.000Z</time>
      </trkpt>
      <trkpt lat="42.64933" lon="1.98748">
        <ele>2288.2</ele>
        <time>2021-08-02T09:23:11.000Z</time>
      </trkpt>
      <trkpt lat="42.64928" lon="1.98737">
        <ele>2284.9</ele>
        <time>2021-08-02T09:23:24.000Z</time>
      </trkpt>
      <trkpt lat="42.64921" lon="1.98728">
        <ele>2281.6</ele>
        <time>2021-08-02T09:23:37.000Z</time>
      </trkpt>
      <trkpt lat="42.64914" lon="1.9872">
        <ele>2279.2</ele>
        <time>2021-08-02T09:23:49.000Z</time>
      </trkpt>
      <trkpt lat="42.64905" lon="1.98715">
        <ele>2277.3</ele>
        <time>2021-08-02T09:24:00.000Z</time>
      </trkpt>
      <trkpt lat="42.649" lon="1.98709">
        <ele>2274.3</ele>
        <time>2021-08-02T09:24:12.000Z</time>
      </trkpt>
      <trkpt lat="42.649" lon="1.98709">
        <ele>2274.1</ele>
        <time>2021-08-02T09:24:26.000Z</time>
      </trkpt>
      <trkpt lat="42.6491" lon="1.98708">
        <ele>2273.1</ele>
        <time>2021-08-02T09:24:36.000Z</time>
      </trkpt>
      <trkpt lat="42.64904" lon="1.98698">
        <ele>2267.6</ele>
        <time>2021-08-02T09:25:03.000Z</time>
      </trkpt>
      <trkpt lat="42.64898" lon="1.98688">
        <ele>2265.2</ele>
        <time>2021-08-02T09:25:16.000Z</time>
      </trkpt>
      <trkpt lat="42.64893" lon="1.98677">
        <ele>2260.9</ele>
        <time>2021-08-02T09:25:30.000Z</time>
      </trkpt>
      <trkpt lat="42.64885" lon="1.98669">
        <ele>2259.4</ele>
        <time>2021-08-02T09:25:42.000Z</time>
      </trkpt>
      <trkpt lat="42.64881" lon="1.98657">
        <ele>2256.7</ele>
        <time>2021-08-02T09:25:55.000Z</time>
      </trkpt>
      <trkpt lat="42.64876" lon="1.98647">
        <ele>2253.8</ele>
        <time>2021-08-02T09:26:09.000Z</time>
      </trkpt>
      <trkpt lat="42.64872" lon="1.98635">
        <ele>2250.8</ele>
        <time>2021-08-02T09:26:22.000Z</time>
      </trkpt>
      <trkpt lat="42.64872" lon="1.98635">
        <ele>2250.8</ele>
        <time>2021-08-02T09:26:24.000Z</time>
      </trkpt>
      <trkpt lat="42.64871" lon="1.98635">
        <ele>2250.1</ele>
        <time>2021-08-02T09:26:28.000Z</time>
      </trkpt>
      <trkpt lat="42.64871" lon="1.98636">
        <ele>2249.5</ele>
        <time>2021-08-02T09:26:31.000Z</time>
      </trkpt>
      <trkpt lat="42.64871" lon="1.98636">
        <ele>2250.8</ele>
        <time>2021-08-02T09:27:24.000Z</time>
      </trkpt>
      <trkpt lat="42.64872" lon="1.98636">
        <ele>2250.4</ele>
        <time>2021-08-02T09:27:27.000Z</time>
      </trkpt>
      <trkpt lat="42.64872" lon="1.98636">
        <ele>2250.6</ele>
        <time>2021-08-02T09:27:37.000Z</time>
      </trkpt>
      <trkpt lat="42.64872" lon="1.98636">
        <ele>2250.5</ele>
        <time>2021-08-02T09:27:38.000Z</time>
      </trkpt>
      <trkpt lat="42.64872" lon="1.98635">
        <ele>2250.8</ele>
        <time>2021-08-02T09:27:55.000Z</time>
      </trkpt>
      <trkpt lat="42.64865" lon="1.98626">
        <ele>2247.3</ele>
        <time>2021-08-02T09:28:08.000Z</time>
      </trkpt>
      <trkpt lat="42.64862" lon="1.98614">
        <ele>2245.2</ele>
        <time>2021-08-02T09:28:19.000Z</time>
      </trkpt>
      <trkpt lat="42.64861" lon="1.98601">
        <ele>2243.7</ele>
        <time>2021-08-02T09:28:29.000Z</time>
      </trkpt>
      <trkpt lat="42.64859" lon="1.98588">
        <ele>2240</ele>
        <time>2021-08-02T09:28:41.000Z</time>
      </trkpt>
      <trkpt lat="42.64854" lon="1.98578">
        <ele>2237.6</ele>
        <time>2021-08-02T09:28:53.000Z</time>
      </trkpt>
      <trkpt lat="42.64847" lon="1.98569">
        <ele>2235.2</ele>
        <time>2021-08-02T09:29:04.000Z</time>
      </trkpt>
      <trkpt lat="42.64855" lon="1.98561">
        <ele>2228.4</ele>
        <time>2021-08-02T09:29:29.000Z</time>
      </trkpt>
      <trkpt lat="42.64864" lon="1.98565">
        <ele>2226.6</ele>
        <time>2021-08-02T09:29:38.000Z</time>
      </trkpt>
      <trkpt lat="42.64873" lon="1.98569">
        <ele>2224.5</ele>
        <time>2021-08-02T09:29:48.000Z</time>
      </trkpt>
      <trkpt lat="42.64882" lon="1.98571">
        <ele>2220.8</ele>
        <time>2021-08-02T09:29:59.000Z</time>
      </trkpt>
      <trkpt lat="42.6489" lon="1.98577">
        <ele>2216.5</ele>
        <time>2021-08-02T09:30:11.000Z</time>
      </trkpt>
      <trkpt lat="42.64893" lon="1.98565">
        <ele>2210.6</ele>
        <time>2021-08-02T09:30:35.000Z</time>
      </trkpt>
      <trkpt lat="42.64891" lon="1.98552">
        <ele>2207.1</ele>
        <time>2021-08-02T09:30:47.000Z</time>
      </trkpt>
      <trkpt lat="42.649" lon="1.98553">
        <ele>2201.5</ele>
        <time>2021-08-02T09:31:15.000Z</time>
      </trkpt>
      <trkpt lat="42.64901" lon="1.9854">
        <ele>2195.6</ele>
        <time>2021-08-02T09:31:38.000Z</time>
      </trkpt>
      <trkpt lat="42.649" lon="1.98535">
        <ele>2194.7</ele>
        <time>2021-08-02T09:31:44.000Z</time>
      </trkpt>
      <trkpt lat="42.649" lon="1.98535">
        <ele>2194.4</ele>
        <time>2021-08-02T09:31:59.000Z</time>
      </trkpt>
      <trkpt lat="42.64898" lon="1.98522">
        <ele>2191.4</ele>
        <time>2021-08-02T09:32:14.000Z</time>
      </trkpt>
      <trkpt lat="42.64893" lon="1.98511">
        <ele>2187.9</ele>
        <time>2021-08-02T09:32:30.000Z</time>
      </trkpt>
      <trkpt lat="42.64886" lon="1.98502">
        <ele>2183.7</ele>
        <time>2021-08-02T09:32:46.000Z</time>
      </trkpt>
      <trkpt lat="42.64879" lon="1.98494">
        <ele>2180.5</ele>
        <time>2021-08-02T09:33:00.000Z</time>
      </trkpt>
      <trkpt lat="42.64874" lon="1.98484">
        <ele>2177.3</ele>
        <time>2021-08-02T09:33:16.000Z</time>
      </trkpt>
      <trkpt lat="42.64869" lon="1.98472">
        <ele>2174.2</ele>
        <time>2021-08-02T09:33:29.000Z</time>
      </trkpt>
      <trkpt lat="42.64864" lon="1.98462">
        <ele>2173</ele>
        <time>2021-08-02T09:33:41.000Z</time>
      </trkpt>
      <trkpt lat="42.6486" lon="1.9845">
        <ele>2170</ele>
        <time>2021-08-02T09:33:55.000Z</time>
      </trkpt>
      <trkpt lat="42.64859" lon="1.98438">
        <ele>2167.5</ele>
        <time>2021-08-02T09:34:07.000Z</time>
      </trkpt>
      <trkpt lat="42.64855" lon="1.98427">
        <ele>2165.2</ele>
        <time>2021-08-02T09:34:20.000Z</time>
      </trkpt>
      <trkpt lat="42.64853" lon="1.98419">
        <ele>2162.8</ele>
        <time>2021-08-02T09:34:31.000Z</time>
      </trkpt>
      <trkpt lat="42.64853" lon="1.98418">
        <ele>2162.2</ele>
        <time>2021-08-02T09:34:43.000Z</time>
      </trkpt>
      <trkpt lat="42.64849" lon="1.98407">
        <ele>2160.7</ele>
        <time>2021-08-02T09:34:54.000Z</time>
      </trkpt>
      <trkpt lat="42.64849" lon="1.98394">
        <ele>2160.8</ele>
        <time>2021-08-02T09:35:06.000Z</time>
      </trkpt>
      <trkpt lat="42.64843" lon="1.98383">
        <ele>2159.5</ele>
        <time>2021-08-02T09:35:17.000Z</time>
      </trkpt>
      <trkpt lat="42.64838" lon="1.98373">
        <ele>2159.4</ele>
        <time>2021-08-02T09:35:25.000Z</time>
      </trkpt>
      <trkpt lat="42.64834" lon="1.98362">
        <ele>2158.9</ele>
        <time>2021-08-02T09:35:34.000Z</time>
      </trkpt>
      <trkpt lat="42.64828" lon="1.98352">
        <ele>2159.8</ele>
        <time>2021-08-02T09:35:45.000Z</time>
      </trkpt>
      <trkpt lat="42.64828" lon="1.98352">
        <ele>2159.9</ele>
        <time>2021-08-02T09:35:46.000Z</time>
      </trkpt>
      <trkpt lat="42.64828" lon="1.98352">
        <ele>2159.8</ele>
        <time>2021-08-02T09:35:47.000Z</time>
      </trkpt>
      <trkpt lat="42.64828" lon="1.98352">
        <ele>2159.8</ele>
        <time>2021-08-02T09:35:48.000Z</time>
      </trkpt>
      <trkpt lat="42.64828" lon="1.98352">
        <ele>2160</ele>
        <time>2021-08-02T09:36:01.000Z</time>
      </trkpt>
      <trkpt lat="42.64828" lon="1.98352">
        <ele>2159.9</ele>
        <time>2021-08-02T09:36:02.000Z</time>
      </trkpt>
      <trkpt lat="42.64828" lon="1.98352">
        <ele>2159.8</ele>
        <time>2021-08-02T09:36:03.000Z</time>
      </trkpt>
      <trkpt lat="42.64828" lon="1.98352">
        <ele>2159.8</ele>
        <time>2021-08-02T09:36:04.000Z</time>
      </trkpt>
      <trkpt lat="42.64828" lon="1.98352">
        <ele>2159.7</ele>
        <time>2021-08-02T09:36:18.000Z</time>
      </trkpt>
      <trkpt lat="42.64829" lon="1.98353">
        <ele>2159.7</ele>
        <time>2021-08-02T09:36:23.000Z</time>
      </trkpt>
      <trkpt lat="42.64829" lon="1.98353">
        <ele>2159.5</ele>
        <time>2021-08-02T09:38:25.000Z</time>
      </trkpt>
      <trkpt lat="42.64829" lon="1.98353">
        <ele>2159.5</ele>
        <time>2021-08-02T09:38:26.000Z</time>
      </trkpt>
      <trkpt lat="42.64829" lon="1.98353">
        <ele>2159.4</ele>
        <time>2021-08-02T09:39:47.000Z</time>
      </trkpt>
      <trkpt lat="42.64829" lon="1.98353">
        <ele>2159.5</ele>
        <time>2021-08-02T09:39:49.000Z</time>
      </trkpt>
      <trkpt lat="42.64829" lon="1.98353">
        <ele>2159.3</ele>
        <time>2021-08-02T09:39:51.000Z</time>
      </trkpt>
      <trkpt lat="42.64829" lon="1.98353">
        <ele>2159.4</ele>
        <time>2021-08-02T09:39:52.000Z</time>
      </trkpt>
      <trkpt lat="42.64829" lon="1.98353">
        <ele>2159.6</ele>
        <time>2021-08-02T09:40:33.000Z</time>
      </trkpt>
      <trkpt lat="42.64829" lon="1.98353">
        <ele>2159.6</ele>
        <time>2021-08-02T09:40:34.000Z</time>
      </trkpt>
      <trkpt lat="42.6483" lon="1.98353">
        <ele>2159.1</ele>
        <time>2021-08-02T09:40:55.000Z</time>
      </trkpt>
      <trkpt lat="42.6483" lon="1.98353">
        <ele>2159.2</ele>
        <time>2021-08-02T09:40:56.000Z</time>
      </trkpt>
      <trkpt lat="42.6483" lon="1.98353">
        <ele>2159.2</ele>
        <time>2021-08-02T09:40:57.000Z</time>
      </trkpt>
      <trkpt lat="42.6483" lon="1.98353">
        <ele>2159.2</ele>
        <time>2021-08-02T09:41:00.000Z</time>
      </trkpt>
      <trkpt lat="42.6483" lon="1.98353">
        <ele>2159.4</ele>
        <time>2021-08-02T09:41:25.000Z</time>
      </trkpt>
      <trkpt lat="42.6483" lon="1.98353">
        <ele>2159.4</ele>
        <time>2021-08-02T09:41:27.000Z</time>
      </trkpt>
      <trkpt lat="42.6483" lon="1.98353">
        <ele>2159.4</ele>
        <time>2021-08-02T09:41:31.000Z</time>
      </trkpt>
      <trkpt lat="42.6483" lon="1.98353">
        <ele>2159.2</ele>
        <time>2021-08-02T09:41:33.000Z</time>
      </trkpt>
      <trkpt lat="42.6483" lon="1.98353">
        <ele>2159.4</ele>
        <time>2021-08-02T09:41:42.000Z</time>
      </trkpt>
      <trkpt lat="42.6483" lon="1.98353">
        <ele>2159.3</ele>
        <time>2021-08-02T09:41:43.000Z</time>
      </trkpt>
      <trkpt lat="42.6483" lon="1.98353">
        <ele>2159.5</ele>
        <time>2021-08-02T09:41:50.000Z</time>
      </trkpt>
      <trkpt lat="42.6483" lon="1.98353">
        <ele>2159.3</ele>
        <time>2021-08-02T09:41:51.000Z</time>
      </trkpt>
      <trkpt lat="42.6483" lon="1.98353">
        <ele>2159</ele>
        <time>2021-08-02T09:41:53.000Z</time>
      </trkpt>
      <trkpt lat="42.6483" lon="1.98353">
        <ele>2159.1</ele>
        <time>2021-08-02T09:41:55.000Z</time>
      </trkpt>
      <trkpt lat="42.6483" lon="1.98353">
        <ele>2159.2</ele>
        <time>2021-08-02T09:42:43.000Z</time>
      </trkpt>
      <trkpt lat="42.64821" lon="1.98346">
        <ele>2157.1</ele>
        <time>2021-08-02T09:42:55.000Z</time>
      </trkpt>
      <trkpt lat="42.64813" lon="1.98341">
        <ele>2155.2</ele>
        <time>2021-08-02T09:43:05.000Z</time>
      </trkpt>
      <trkpt lat="42.64805" lon="1.98334">
        <ele>2154.2</ele>
        <time>2021-08-02T09:43:14.000Z</time>
      </trkpt>
      <trkpt lat="42.64797" lon="1.98327">
        <ele>2153.7</ele>
        <time>2021-08-02T09:43:24.000Z</time>
      </trkpt>
      <trkpt lat="42.64787" lon="1.98323">
        <ele>2153</ele>
        <time>2021-08-02T09:43:33.000Z</time>
      </trkpt>
      <trkpt lat="42.64779" lon="1.98319">
        <ele>2152.4</ele>
        <time>2021-08-02T09:43:42.000Z</time>
      </trkpt>
      <trkpt lat="42.6477" lon="1.98314">
        <ele>2151.4</ele>
        <time>2021-08-02T09:43:51.000Z</time>
      </trkpt>
      <trkpt lat="42.64762" lon="1.98307">
        <ele>2150.6</ele>
        <time>2021-08-02T09:44:00.000Z</time>
      </trkpt>
      <trkpt lat="42.64754" lon="1.98301">
        <ele>2148.9</ele>
        <time>2021-08-02T09:44:09.000Z</time>
      </trkpt>
      <trkpt lat="42.64746" lon="1.98293">
        <ele>2148.4</ele>
        <time>2021-08-02T09:44:19.000Z</time>
      </trkpt>
      <trkpt lat="42.64739" lon="1.98284">
        <ele>2147.7</ele>
        <time>2021-08-02T09:44:29.000Z</time>
      </trkpt>
      <trkpt lat="42.64739" lon="1.98284">
        <ele>2147.3</ele>
        <time>2021-08-02T09:44:32.000Z</time>
      </trkpt>
      <trkpt lat="42.64739" lon="1.98284">
        <ele>2147.6</ele>
        <time>2021-08-02T09:44:40.000Z</time>
      </trkpt>
      <trkpt lat="42.64734" lon="1.98272">
        <ele>2147.1</ele>
        <time>2021-08-02T09:44:51.000Z</time>
      </trkpt>
      <trkpt lat="42.64731" lon="1.98259">
        <ele>2145.1</ele>
        <time>2021-08-02T09:45:01.000Z</time>
      </trkpt>
      <trkpt lat="42.64729" lon="1.98246">
        <ele>2144.1</ele>
        <time>2021-08-02T09:45:10.000Z</time>
      </trkpt>
      <trkpt lat="42.64728" lon="1.98233">
        <ele>2143.1</ele>
        <time>2021-08-02T09:45:20.000Z</time>
      </trkpt>
      <trkpt lat="42.64726" lon="1.98221">
        <ele>2144.9</ele>
        <time>2021-08-02T09:45:32.000Z</time>
      </trkpt>
      <trkpt lat="42.64723" lon="1.98209">
        <ele>2146.1</ele>
        <time>2021-08-02T09:45:43.000Z</time>
      </trkpt>
      <trkpt lat="42.64717" lon="1.98199">
        <ele>2143.1</ele>
        <time>2021-08-02T09:45:56.000Z</time>
      </trkpt>
      <trkpt lat="42.64709" lon="1.98191">
        <ele>2141.8</ele>
        <time>2021-08-02T09:46:06.000Z</time>
      </trkpt>
      <trkpt lat="42.64701" lon="1.98185">
        <ele>2140.6</ele>
        <time>2021-08-02T09:46:15.000Z</time>
      </trkpt>
      <trkpt lat="42.64693" lon="1.98179">
        <ele>2140.3</ele>
        <time>2021-08-02T09:46:24.000Z</time>
      </trkpt>
      <trkpt lat="42.64685" lon="1.98173">
        <ele>2138.3</ele>
        <time>2021-08-02T09:46:34.000Z</time>
      </trkpt>
      <trkpt lat="42.64678" lon="1.98164">
        <ele>2135</ele>
        <time>2021-08-02T09:46:45.000Z</time>
      </trkpt>
      <trkpt lat="42.6467" lon="1.9816">
        <ele>2133.2</ele>
        <time>2021-08-02T09:46:55.000Z</time>
      </trkpt>
      <trkpt lat="42.64662" lon="1.98153">
        <ele>2130</ele>
        <time>2021-08-02T09:47:08.000Z</time>
      </trkpt>
      <trkpt lat="42.64654" lon="1.98146">
        <ele>2126.8</ele>
        <time>2021-08-02T09:47:21.000Z</time>
      </trkpt>
      <trkpt lat="42.64646" lon="1.98138">
        <ele>2123.3</ele>
        <time>2021-08-02T09:47:33.000Z</time>
      </trkpt>
      <trkpt lat="42.64644" lon="1.98126">
        <ele>2122.4</ele>
        <time>2021-08-02T09:47:43.000Z</time>
      </trkpt>
      <trkpt lat="42.64642" lon="1.98114">
        <ele>2120.6</ele>
        <time>2021-08-02T09:47:54.000Z</time>
      </trkpt>
      <trkpt lat="42.64639" lon="1.98102">
        <ele>2120.5</ele>
        <time>2021-08-02T09:48:05.000Z</time>
      </trkpt>
      <trkpt lat="42.64634" lon="1.98091">
        <ele>2121.1</ele>
        <time>2021-08-02T09:48:17.000Z</time>
      </trkpt>
      <trkpt lat="42.6463" lon="1.9808">
        <ele>2121.2</ele>
        <time>2021-08-02T09:48:27.000Z</time>
      </trkpt>
      <trkpt lat="42.64624" lon="1.98069">
        <ele>2122.8</ele>
        <time>2021-08-02T09:48:39.000Z</time>
      </trkpt>
      <trkpt lat="42.64623" lon="1.98056">
        <ele>2121.6</ele>
        <time>2021-08-02T09:48:49.000Z</time>
      </trkpt>
      <trkpt lat="42.64622" lon="1.98044">
        <ele>2120.1</ele>
        <time>2021-08-02T09:48:59.000Z</time>
      </trkpt>
      <trkpt lat="42.6462" lon="1.98032">
        <ele>2118.6</ele>
        <time>2021-08-02T09:49:10.000Z</time>
      </trkpt>
      <trkpt lat="42.64617" lon="1.98019">
        <ele>2117.2</ele>
        <time>2021-08-02T09:49:20.000Z</time>
      </trkpt>
      <trkpt lat="42.64613" lon="1.98007">
        <ele>2116.8</ele>
        <time>2021-08-02T09:49:30.000Z</time>
      </trkpt>
      <trkpt lat="42.6461" lon="1.97994">
        <ele>2117.1</ele>
        <time>2021-08-02T09:49:40.000Z</time>
      </trkpt>
      <trkpt lat="42.64609" lon="1.97982">
        <ele>2116.5</ele>
        <time>2021-08-02T09:49:49.000Z</time>
      </trkpt>
      <trkpt lat="42.64606" lon="1.9797">
        <ele>2116.9</ele>
        <time>2021-08-02T09:50:00.000Z</time>
      </trkpt>
      <trkpt lat="42.64601" lon="1.97958">
        <ele>2113.9</ele>
        <time>2021-08-02T09:50:12.000Z</time>
      </trkpt>
      <trkpt lat="42.64594" lon="1.97951">
        <ele>2111.9</ele>
        <time>2021-08-02T09:50:24.000Z</time>
      </trkpt>
      <trkpt lat="42.64588" lon="1.97942">
        <ele>2106.4</ele>
        <time>2021-08-02T09:50:42.000Z</time>
      </trkpt>
      <trkpt lat="42.64587" lon="1.97942">
        <ele>2106.4</ele>
        <time>2021-08-02T09:50:44.000Z</time>
      </trkpt>
      <trkpt lat="42.64587" lon="1.97942">
        <ele>2106.6</ele>
        <time>2021-08-02T09:50:50.000Z</time>
      </trkpt>
      <trkpt lat="42.64587" lon="1.97942">
        <ele>2106.6</ele>
        <time>2021-08-02T09:50:51.000Z</time>
      </trkpt>
      <trkpt lat="42.64587" lon="1.97942">
        <ele>2106.5</ele>
        <time>2021-08-02T09:50:55.000Z</time>
      </trkpt>
      <trkpt lat="42.64578" lon="1.9794">
        <ele>2102.1</ele>
        <time>2021-08-02T09:51:13.000Z</time>
      </trkpt>
      <trkpt lat="42.64576" lon="1.97938">
        <ele>2100.3</ele>
        <time>2021-08-02T09:51:23.000Z</time>
      </trkpt>
      <trkpt lat="42.64576" lon="1.97938">
        <ele>2100.2</ele>
        <time>2021-08-02T09:51:25.000Z</time>
      </trkpt>
      <trkpt lat="42.6457" lon="1.9794">
        <ele>2098.5</ele>
        <time>2021-08-02T09:51:39.000Z</time>
      </trkpt>
      <trkpt lat="42.6457" lon="1.97939">
        <ele>2098.1</ele>
        <time>2021-08-02T09:52:17.000Z</time>
      </trkpt>
      <trkpt lat="42.64564" lon="1.97938">
        <ele>2095.9</ele>
        <time>2021-08-02T09:52:33.000Z</time>
      </trkpt>
      <trkpt lat="42.64564" lon="1.97938">
        <ele>2095.7</ele>
        <time>2021-08-02T09:52:39.000Z</time>
      </trkpt>
      <trkpt lat="42.64561" lon="1.97938">
        <ele>2094.2</ele>
        <time>2021-08-02T09:52:51.000Z</time>
      </trkpt>
      <trkpt lat="42.6456" lon="1.97938">
        <ele>2094</ele>
        <time>2021-08-02T09:52:56.000Z</time>
      </trkpt>
      <trkpt lat="42.64559" lon="1.97938">
        <ele>2093.7</ele>
        <time>2021-08-02T09:53:00.000Z</time>
      </trkpt>
      <trkpt lat="42.64559" lon="1.97938">
        <ele>2093.8</ele>
        <time>2021-08-02T09:53:01.000Z</time>
      </trkpt>
      <trkpt lat="42.64559" lon="1.97938">
        <ele>2093.6</ele>
        <time>2021-08-02T09:53:02.000Z</time>
      </trkpt>
      <trkpt lat="42.64559" lon="1.97938">
        <ele>2093.5</ele>
        <time>2021-08-02T09:53:04.000Z</time>
      </trkpt>
      <trkpt lat="42.6455" lon="1.97941">
        <ele>2091.5</ele>
        <time>2021-08-02T09:53:23.000Z</time>
      </trkpt>
      <trkpt lat="42.64541" lon="1.97943">
        <ele>2090.8</ele>
        <time>2021-08-02T09:53:36.000Z</time>
      </trkpt>
      <trkpt lat="42.64532" lon="1.9794">
        <ele>2088.5</ele>
        <time>2021-08-02T09:53:45.000Z</time>
      </trkpt>
      <trkpt lat="42.64523" lon="1.97936">
        <ele>2086.5</ele>
        <time>2021-08-02T09:53:58.000Z</time>
      </trkpt>
      <trkpt lat="42.64514" lon="1.97931">
        <ele>2084</ele>
        <time>2021-08-02T09:54:10.000Z</time>
      </trkpt>
      <trkpt lat="42.64505" lon="1.97929">
        <ele>2081</ele>
        <time>2021-08-02T09:54:23.000Z</time>
      </trkpt>
      <trkpt lat="42.64496" lon="1.97929">
        <ele>2078.4</ele>
        <time>2021-08-02T09:54:33.000Z</time>
      </trkpt>
      <trkpt lat="42.64487" lon="1.97929">
        <ele>2076</ele>
        <time>2021-08-02T09:54:43.000Z</time>
      </trkpt>
      <trkpt lat="42.64478" lon="1.97925">
        <ele>2074.1</ele>
        <time>2021-08-02T09:54:56.000Z</time>
      </trkpt>
      <trkpt lat="42.6447" lon="1.97917">
        <ele>2074.6</ele>
        <time>2021-08-02T09:55:06.000Z</time>
      </trkpt>
      <trkpt lat="42.64466" lon="1.97906">
        <ele>2073.7</ele>
        <time>2021-08-02T09:55:17.000Z</time>
      </trkpt>
      <trkpt lat="42.64463" lon="1.97894">
        <ele>2072.3</ele>
        <time>2021-08-02T09:55:29.000Z</time>
      </trkpt>
      <trkpt lat="42.64459" lon="1.97883">
        <ele>2071.1</ele>
        <time>2021-08-02T09:55:41.000Z</time>
      </trkpt>
      <trkpt lat="42.64455" lon="1.97873">
        <ele>2068.5</ele>
        <time>2021-08-02T09:55:53.000Z</time>
      </trkpt>
      <trkpt lat="42.6445" lon="1.97861">
        <ele>2066.4</ele>
        <time>2021-08-02T09:56:07.000Z</time>
      </trkpt>
      <trkpt lat="42.64446" lon="1.9785">
        <ele>2062.5</ele>
        <time>2021-08-02T09:56:22.000Z</time>
      </trkpt>
      <trkpt lat="42.64442" lon="1.97838">
        <ele>2060.1</ele>
        <time>2021-08-02T09:56:34.000Z</time>
      </trkpt>
      <trkpt lat="42.64438" lon="1.97826">
        <ele>2057.1</ele>
        <time>2021-08-02T09:56:46.000Z</time>
      </trkpt>
      <trkpt lat="42.64435" lon="1.97821">
        <ele>2055.6</ele>
        <time>2021-08-02T09:56:55.000Z</time>
      </trkpt>
      <trkpt lat="42.64435" lon="1.97821">
        <ele>2055.6</ele>
        <time>2021-08-02T09:56:56.000Z</time>
      </trkpt>
      <trkpt lat="42.64431" lon="1.9781">
        <ele>2052.5</ele>
        <time>2021-08-02T09:57:12.000Z</time>
      </trkpt>
      <trkpt lat="42.64429" lon="1.97798">
        <ele>2049.6</ele>
        <time>2021-08-02T09:57:25.000Z</time>
      </trkpt>
      <trkpt lat="42.64425" lon="1.97786">
        <ele>2046.5</ele>
        <time>2021-08-02T09:57:39.000Z</time>
      </trkpt>
      <trkpt lat="42.64422" lon="1.97774">
        <ele>2043.6</ele>
        <time>2021-08-02T09:57:53.000Z</time>
      </trkpt>
      <trkpt lat="42.64424" lon="1.97762">
        <ele>2040.2</ele>
        <time>2021-08-02T09:58:09.000Z</time>
      </trkpt>
      <trkpt lat="42.64427" lon="1.97749">
        <ele>2037</ele>
        <time>2021-08-02T09:58:23.000Z</time>
      </trkpt>
      <trkpt lat="42.64424" lon="1.97737">
        <ele>2034.1</ele>
        <time>2021-08-02T09:58:36.000Z</time>
      </trkpt>
      <trkpt lat="42.64422" lon="1.97725">
        <ele>2031.4</ele>
        <time>2021-08-02T09:58:49.000Z</time>
      </trkpt>
      <trkpt lat="42.64421" lon="1.97712">
        <ele>2028.1</ele>
        <time>2021-08-02T09:59:03.000Z</time>
      </trkpt>
      <trkpt lat="42.64418" lon="1.97699">
        <ele>2026</ele>
        <time>2021-08-02T09:59:13.000Z</time>
      </trkpt>
      <trkpt lat="42.64416" lon="1.97687">
        <ele>2025.1</ele>
        <time>2021-08-02T09:59:23.000Z</time>
      </trkpt>
      <trkpt lat="42.64411" lon="1.97676">
        <ele>2024.4</ele>
        <time>2021-08-02T09:59:33.000Z</time>
      </trkpt>
      <trkpt lat="42.64409" lon="1.97663">
        <ele>2024.3</ele>
        <time>2021-08-02T09:59:43.000Z</time>
      </trkpt>
      <trkpt lat="42.64411" lon="1.97651">
        <ele>2024.8</ele>
        <time>2021-08-02T09:59:53.000Z</time>
      </trkpt>
      <trkpt lat="42.64415" lon="1.97639">
        <ele>2023.3</ele>
        <time>2021-08-02T10:00:05.000Z</time>
      </trkpt>
      <trkpt lat="42.64422" lon="1.97631">
        <ele>2021.4</ele>
        <time>2021-08-02T10:00:18.000Z</time>
      </trkpt>
      <trkpt lat="42.64425" lon="1.97628">
        <ele>2021</ele>
        <time>2021-08-02T10:00:25.000Z</time>
      </trkpt>
      <trkpt lat="42.64425" lon="1.97628">
        <ele>2021</ele>
        <time>2021-08-02T10:00:30.000Z</time>
      </trkpt>
      <trkpt lat="42.64425" lon="1.97628">
        <ele>2021.1</ele>
        <time>2021-08-02T10:00:32.000Z</time>
      </trkpt>
      <trkpt lat="42.64425" lon="1.97628">
        <ele>2021.1</ele>
        <time>2021-08-02T10:00:34.000Z</time>
      </trkpt>
      <trkpt lat="42.64425" lon="1.97628">
        <ele>2021.2</ele>
        <time>2021-08-02T10:00:35.000Z</time>
      </trkpt>
      <trkpt lat="42.64425" lon="1.97628">
        <ele>2021</ele>
        <time>2021-08-02T10:00:36.000Z</time>
      </trkpt>
      <trkpt lat="42.64433" lon="1.97622">
        <ele>2020.2</ele>
        <time>2021-08-02T10:00:47.000Z</time>
      </trkpt>
      <trkpt lat="42.64443" lon="1.9762">
        <ele>2018.9</ele>
        <time>2021-08-02T10:00:56.000Z</time>
      </trkpt>
      <trkpt lat="42.64448" lon="1.97616">
        <ele>2017.8</ele>
        <time>2021-08-02T10:01:03.000Z</time>
      </trkpt>
      <trkpt lat="42.64447" lon="1.97615">
        <ele>2017.9</ele>
        <time>2021-08-02T10:01:45.000Z</time>
      </trkpt>
      <trkpt lat="42.64446" lon="1.97603">
        <ele>2017</ele>
        <time>2021-08-02T10:01:55.000Z</time>
      </trkpt>
      <trkpt lat="42.64447" lon="1.97602">
        <ele>2016.9</ele>
        <time>2021-08-02T10:01:57.000Z</time>
      </trkpt>
      <trkpt lat="42.64446" lon="1.97602">
        <ele>2017</ele>
        <time>2021-08-02T10:01:59.000Z</time>
      </trkpt>
      <trkpt lat="42.64446" lon="1.97602">
        <ele>2016.9</ele>
        <time>2021-08-02T10:02:00.000Z</time>
      </trkpt>
      <trkpt lat="42.64447" lon="1.97602">
        <ele>2017.3</ele>
        <time>2021-08-02T10:02:02.000Z</time>
      </trkpt>
      <trkpt lat="42.64446" lon="1.97602">
        <ele>2017.1</ele>
        <time>2021-08-02T10:02:04.000Z</time>
      </trkpt>
      <trkpt lat="42.64446" lon="1.97602">
        <ele>2017.4</ele>
        <time>2021-08-02T10:02:46.000Z</time>
      </trkpt>
      <trkpt lat="42.64446" lon="1.97602">
        <ele>2017.4</ele>
        <time>2021-08-02T10:02:47.000Z</time>
      </trkpt>
      <trkpt lat="42.64446" lon="1.97602">
        <ele>2017.1</ele>
        <time>2021-08-02T10:03:11.000Z</time>
      </trkpt>
      <trkpt lat="42.64446" lon="1.97602">
        <ele>2017.3</ele>
        <time>2021-08-02T10:03:12.000Z</time>
      </trkpt>
      <trkpt lat="42.64446" lon="1.97602">
        <ele>2017.4</ele>
        <time>2021-08-02T10:03:20.000Z</time>
      </trkpt>
      <trkpt lat="42.64446" lon="1.97602">
        <ele>2017.6</ele>
        <time>2021-08-02T10:03:22.000Z</time>
      </trkpt>
      <trkpt lat="42.64446" lon="1.97602">
        <ele>2017.1</ele>
        <time>2021-08-02T10:04:10.000Z</time>
      </trkpt>
      <trkpt lat="42.64446" lon="1.97602">
        <ele>2017.1</ele>
        <time>2021-08-02T10:04:11.000Z</time>
      </trkpt>
      <trkpt lat="42.64446" lon="1.97602">
        <ele>2016.9</ele>
        <time>2021-08-02T10:04:20.000Z</time>
      </trkpt>
      <trkpt lat="42.64446" lon="1.97602">
        <ele>2016.9</ele>
        <time>2021-08-02T10:04:22.000Z</time>
      </trkpt>
      <trkpt lat="42.64446" lon="1.97602">
        <ele>2016.7</ele>
        <time>2021-08-02T10:05:32.000Z</time>
      </trkpt>
      <trkpt lat="42.64446" lon="1.97602">
        <ele>2016.9</ele>
        <time>2021-08-02T10:05:34.000Z</time>
      </trkpt>
      <trkpt lat="42.64446" lon="1.97602">
        <ele>2016.9</ele>
        <time>2021-08-02T10:05:50.000Z</time>
      </trkpt>
      <trkpt lat="42.64446" lon="1.97602">
        <ele>2017</ele>
        <time>2021-08-02T10:05:51.000Z</time>
      </trkpt>
      <trkpt lat="42.64446" lon="1.97602">
        <ele>2017</ele>
        <time>2021-08-02T10:05:52.000Z</time>
      </trkpt>
      <trkpt lat="42.64446" lon="1.97602">
        <ele>2017.2</ele>
        <time>2021-08-02T10:05:53.000Z</time>
      </trkpt>
      <trkpt lat="42.64446" lon="1.97602">
        <ele>2017.1</ele>
        <time>2021-08-02T10:06:17.000Z</time>
      </trkpt>
      <trkpt lat="42.64446" lon="1.97602">
        <ele>2017.3</ele>
        <time>2021-08-02T10:06:18.000Z</time>
      </trkpt>
      <trkpt lat="42.64446" lon="1.97602">
        <ele>2017.4</ele>
        <time>2021-08-02T10:06:36.000Z</time>
      </trkpt>
      <trkpt lat="42.64446" lon="1.97602">
        <ele>2017.2</ele>
        <time>2021-08-02T10:06:38.000Z</time>
      </trkpt>
      <trkpt lat="42.64446" lon="1.97602">
        <ele>2016.8</ele>
        <time>2021-08-02T10:07:09.000Z</time>
      </trkpt>
      <trkpt lat="42.64446" lon="1.97602">
        <ele>2016.7</ele>
        <time>2021-08-02T10:07:10.000Z</time>
      </trkpt>
      <trkpt lat="42.64446" lon="1.97602">
        <ele>2016.8</ele>
        <time>2021-08-02T10:09:59.000Z</time>
      </trkpt>
      <trkpt lat="42.64446" lon="1.97602">
        <ele>2016.9</ele>
        <time>2021-08-02T10:10:00.000Z</time>
      </trkpt>
      <trkpt lat="42.64446" lon="1.97602">
        <ele>2017</ele>
        <time>2021-08-02T10:10:39.000Z</time>
      </trkpt>
      <trkpt lat="42.64446" lon="1.97602">
        <ele>2017.1</ele>
        <time>2021-08-02T10:10:41.000Z</time>
      </trkpt>
      <trkpt lat="42.64446" lon="1.97602">
        <ele>2016.8</ele>
        <time>2021-08-02T10:10:46.000Z</time>
      </trkpt>
      <trkpt lat="42.64446" lon="1.97602">
        <ele>2016.9</ele>
        <time>2021-08-02T10:10:47.000Z</time>
      </trkpt>
      <trkpt lat="42.64446" lon="1.97602">
        <ele>2017.2</ele>
        <time>2021-08-02T10:11:11.000Z</time>
      </trkpt>
      <trkpt lat="42.64455" lon="1.97608">
        <ele>2017.1</ele>
        <time>2021-08-02T10:11:23.000Z</time>
      </trkpt>
      <trkpt lat="42.64459" lon="1.97608">
        <ele>2016.3</ele>
        <time>2021-08-02T10:11:31.000Z</time>
      </trkpt>
      <trkpt lat="42.64459" lon="1.97609">
        <ele>2016.3</ele>
        <time>2021-08-02T10:11:40.000Z</time>
      </trkpt>
      <trkpt lat="42.64469" lon="1.97607">
        <ele>2013.4</ele>
        <time>2021-08-02T10:11:57.000Z</time>
      </trkpt>
      <trkpt lat="42.64475" lon="1.97605">
        <ele>2012.4</ele>
        <time>2021-08-02T10:12:07.000Z</time>
      </trkpt>
      <trkpt lat="42.64475" lon="1.97605">
        <ele>2012.2</ele>
        <time>2021-08-02T10:12:11.000Z</time>
      </trkpt>
      <trkpt lat="42.64484" lon="1.976">
        <ele>2011.4</ele>
        <time>2021-08-02T10:12:20.000Z</time>
      </trkpt>
      <trkpt lat="42.6449" lon="1.9759">
        <ele>2009.9</ele>
        <time>2021-08-02T10:12:31.000Z</time>
      </trkpt>
      <trkpt lat="42.64486" lon="1.97579">
        <ele>2010.6</ele>
        <time>2021-08-02T10:12:41.000Z</time>
      </trkpt>
      <trkpt lat="42.64481" lon="1.97567">
        <ele>2010.7</ele>
        <time>2021-08-02T10:12:50.000Z</time>
      </trkpt>
      <trkpt lat="42.64476" lon="1.97555">
        <ele>2010.8</ele>
        <time>2021-08-02T10:12:59.000Z</time>
      </trkpt>
      <trkpt lat="42.64473" lon="1.97542">
        <ele>2008.6</ele>
        <time>2021-08-02T10:13:09.000Z</time>
      </trkpt>
      <trkpt lat="42.64468" lon="1.97532">
        <ele>2006.3</ele>
        <time>2021-08-02T10:13:19.000Z</time>
      </trkpt>
      <trkpt lat="42.64464" lon="1.97521">
        <ele>2004.4</ele>
        <time>2021-08-02T10:13:29.000Z</time>
      </trkpt>
      <trkpt lat="42.64458" lon="1.9751">
        <ele>2003.7</ele>
        <time>2021-08-02T10:13:39.000Z</time>
      </trkpt>
      <trkpt lat="42.64459" lon="1.97498">
        <ele>2003.2</ele>
        <time>2021-08-02T10:13:49.000Z</time>
      </trkpt>
      <trkpt lat="42.64457" lon="1.97485">
        <ele>2004.2</ele>
        <time>2021-08-02T10:13:58.000Z</time>
      </trkpt>
      <trkpt lat="42.64453" lon="1.97474">
        <ele>2004.9</ele>
        <time>2021-08-02T10:14:08.000Z</time>
      </trkpt>
      <trkpt lat="42.64446" lon="1.97465">
        <ele>2005.5</ele>
        <time>2021-08-02T10:14:18.000Z</time>
      </trkpt>
      <trkpt lat="42.64438" lon="1.97458">
        <ele>2006.1</ele>
        <time>2021-08-02T10:14:28.000Z</time>
      </trkpt>
      <trkpt lat="42.6443" lon="1.97452">
        <ele>2005.8</ele>
        <time>2021-08-02T10:14:39.000Z</time>
      </trkpt>
      <trkpt lat="42.64425" lon="1.97441">
        <ele>2004.7</ele>
        <time>2021-08-02T10:14:49.000Z</time>
      </trkpt>
      <trkpt lat="42.64423" lon="1.97429">
        <ele>2004.5</ele>
        <time>2021-08-02T10:15:02.000Z</time>
      </trkpt>
      <trkpt lat="42.64426" lon="1.97417">
        <ele>2002.8</ele>
        <time>2021-08-02T10:15:14.000Z</time>
      </trkpt>
      <trkpt lat="42.64425" lon="1.97404">
        <ele>2003</ele>
        <time>2021-08-02T10:15:24.000Z</time>
      </trkpt>
      <trkpt lat="42.64424" lon="1.97391">
        <ele>2003.3</ele>
        <time>2021-08-02T10:15:34.000Z</time>
      </trkpt>
      <trkpt lat="42.64429" lon="1.97381">
        <ele>2003.7</ele>
        <time>2021-08-02T10:15:43.000Z</time>
      </trkpt>
      <trkpt lat="42.64432" lon="1.97368">
        <ele>2005.2</ele>
        <time>2021-08-02T10:15:53.000Z</time>
      </trkpt>
      <trkpt lat="42.64436" lon="1.97357">
        <ele>2005.2</ele>
        <time>2021-08-02T10:16:02.000Z</time>
      </trkpt>
      <trkpt lat="42.64439" lon="1.97345">
        <ele>2005.8</ele>
        <time>2021-08-02T10:16:11.000Z</time>
      </trkpt>
      <trkpt lat="42.64441" lon="1.97333">
        <ele>2007.2</ele>
        <time>2021-08-02T10:16:20.000Z</time>
      </trkpt>
      <trkpt lat="42.64441" lon="1.97319">
        <ele>2007.9</ele>
        <time>2021-08-02T10:16:30.000Z</time>
      </trkpt>
      <trkpt lat="42.64442" lon="1.97318">
        <ele>2008.1</ele>
        <time>2021-08-02T10:16:32.000Z</time>
      </trkpt>
      <trkpt lat="42.64441" lon="1.97318">
        <ele>2008.1</ele>
        <time>2021-08-02T10:16:33.000Z</time>
      </trkpt>
      <trkpt lat="42.64441" lon="1.97318">
        <ele>2008.2</ele>
        <time>2021-08-02T10:16:34.000Z</time>
      </trkpt>
      <trkpt lat="42.64441" lon="1.97318">
        <ele>2008.1</ele>
        <time>2021-08-02T10:16:36.000Z</time>
      </trkpt>
      <trkpt lat="42.64433" lon="1.97313">
        <ele>2008.8</ele>
        <time>2021-08-02T10:16:48.000Z</time>
      </trkpt>
      <trkpt lat="42.64425" lon="1.9732">
        <ele>2012.9</ele>
        <time>2021-08-02T10:17:06.000Z</time>
      </trkpt>
      <trkpt lat="42.64416" lon="1.97325">
        <ele>2015.5</ele>
        <time>2021-08-02T10:17:21.000Z</time>
      </trkpt>
      <trkpt lat="42.64407" lon="1.97328">
        <ele>2017.5</ele>
        <time>2021-08-02T10:17:35.000Z</time>
      </trkpt>
      <trkpt lat="42.64398" lon="1.97331">
        <ele>2019.5</ele>
        <time>2021-08-02T10:17:50.000Z</time>
      </trkpt>
      <trkpt lat="42.64388" lon="1.97331">
        <ele>2019.3</ele>
        <time>2021-08-02T10:17:59.000Z</time>
      </trkpt>
      <trkpt lat="42.64378" lon="1.9733">
        <ele>2018.6</ele>
        <time>2021-08-02T10:18:08.000Z</time>
      </trkpt>
      <trkpt lat="42.64369" lon="1.9733">
        <ele>2018.7</ele>
        <time>2021-08-02T10:18:19.000Z</time>
      </trkpt>
      <trkpt lat="42.6436" lon="1.97326">
        <ele>2019.1</ele>
        <time>2021-08-02T10:18:30.000Z</time>
      </trkpt>
      <trkpt lat="42.6436" lon="1.97325">
        <ele>2018.7</ele>
        <time>2021-08-02T10:18:32.000Z</time>
      </trkpt>
      <trkpt lat="42.6436" lon="1.97325">
        <ele>2018.8</ele>
        <time>2021-08-02T10:18:33.000Z</time>
      </trkpt>
      <trkpt lat="42.6436" lon="1.97325">
        <ele>2018.9</ele>
        <time>2021-08-02T10:18:34.000Z</time>
      </trkpt>
      <trkpt lat="42.6436" lon="1.97325">
        <ele>2018.9</ele>
        <time>2021-08-02T10:18:42.000Z</time>
      </trkpt>
      <trkpt lat="42.64351" lon="1.9732">
        <ele>2017.6</ele>
        <time>2021-08-02T10:18:53.000Z</time>
      </trkpt>
      <trkpt lat="42.64351" lon="1.9732">
        <ele>2017.6</ele>
        <time>2021-08-02T10:18:54.000Z</time>
      </trkpt>
      <trkpt lat="42.64351" lon="1.9732">
        <ele>2017.5</ele>
        <time>2021-08-02T10:19:02.000Z</time>
      </trkpt>
      <trkpt lat="42.64351" lon="1.9732">
        <ele>2017.3</ele>
        <time>2021-08-02T10:19:03.000Z</time>
      </trkpt>
      <trkpt lat="42.64352" lon="1.9732">
        <ele>2017.5</ele>
        <time>2021-08-02T10:20:35.000Z</time>
      </trkpt>
      <trkpt lat="42.64352" lon="1.9732">
        <ele>2017.6</ele>
        <time>2021-08-02T10:20:36.000Z</time>
      </trkpt>
      <trkpt lat="42.64352" lon="1.97319">
        <ele>2017.7</ele>
        <time>2021-08-02T10:21:29.000Z</time>
      </trkpt>
      <trkpt lat="42.64352" lon="1.97319">
        <ele>2017.8</ele>
        <time>2021-08-02T10:21:30.000Z</time>
      </trkpt>
      <trkpt lat="42.64351" lon="1.97319">
        <ele>2017.9</ele>
        <time>2021-08-02T10:21:31.000Z</time>
      </trkpt>
      <trkpt lat="42.64342" lon="1.97315">
        <ele>2017.1</ele>
        <time>2021-08-02T10:21:40.000Z</time>
      </trkpt>
      <trkpt lat="42.64333" lon="1.97312">
        <ele>2015.7</ele>
        <time>2021-08-02T10:21:49.000Z</time>
      </trkpt>
      <trkpt lat="42.64323" lon="1.97308">
        <ele>2014.8</ele>
        <time>2021-08-02T10:21:58.000Z</time>
      </trkpt>
      <trkpt lat="42.64314" lon="1.97305">
        <ele>2013.9</ele>
        <time>2021-08-02T10:22:07.000Z</time>
      </trkpt>
      <trkpt lat="42.64304" lon="1.97305">
        <ele>2012.9</ele>
        <time>2021-08-02T10:22:16.000Z</time>
      </trkpt>
      <trkpt lat="42.64295" lon="1.97304">
        <ele>2011.8</ele>
        <time>2021-08-02T10:22:25.000Z</time>
      </trkpt>
      <trkpt lat="42.64285" lon="1.97303">
        <ele>2011</ele>
        <time>2021-08-02T10:22:34.000Z</time>
      </trkpt>
      <trkpt lat="42.64276" lon="1.97301">
        <ele>2009.9</ele>
        <time>2021-08-02T10:22:43.000Z</time>
      </trkpt>
      <trkpt lat="42.64267" lon="1.97301">
        <ele>2008.2</ele>
        <time>2021-08-02T10:22:52.000Z</time>
      </trkpt>
      <trkpt lat="42.64257" lon="1.973">
        <ele>2006.5</ele>
        <time>2021-08-02T10:23:02.000Z</time>
      </trkpt>
      <trkpt lat="42.64247" lon="1.973">
        <ele>2005.7</ele>
        <time>2021-08-02T10:23:11.000Z</time>
      </trkpt>
      <trkpt lat="42.64238" lon="1.97304">
        <ele>2004.8</ele>
        <time>2021-08-02T10:23:20.000Z</time>
      </trkpt>
      <trkpt lat="42.64229" lon="1.97304">
        <ele>2003.4</ele>
        <time>2021-08-02T10:23:29.000Z</time>
      </trkpt>
      <trkpt lat="42.6422" lon="1.97301">
        <ele>2003.4</ele>
        <time>2021-08-02T10:23:40.000Z</time>
      </trkpt>
      <trkpt lat="42.64211" lon="1.97299">
        <ele>2002.2</ele>
        <time>2021-08-02T10:23:49.000Z</time>
      </trkpt>
      <trkpt lat="42.64203" lon="1.97303">
        <ele>2000.6</ele>
        <time>2021-08-02T10:24:00.000Z</time>
      </trkpt>
      <trkpt lat="42.64203" lon="1.97303">
        <ele>2000.6</ele>
        <time>2021-08-02T10:24:01.000Z</time>
      </trkpt>
      <trkpt lat="42.64203" lon="1.97303">
        <ele>2000.6</ele>
        <time>2021-08-02T10:24:02.000Z</time>
      </trkpt>
      <trkpt lat="42.64203" lon="1.97303">
        <ele>2000.5</ele>
        <time>2021-08-02T10:24:07.000Z</time>
      </trkpt>
      <trkpt lat="42.64193" lon="1.97302">
        <ele>1998.7</ele>
        <time>2021-08-02T10:24:20.000Z</time>
      </trkpt>
      <trkpt lat="42.64189" lon="1.97302">
        <ele>1999.2</ele>
        <time>2021-08-02T10:24:29.000Z</time>
      </trkpt>
      <trkpt lat="42.64189" lon="1.97302">
        <ele>1999.1</ele>
        <time>2021-08-02T10:24:50.000Z</time>
      </trkpt>
      <trkpt lat="42.6418" lon="1.973">
        <ele>1998.2</ele>
        <time>2021-08-02T10:25:01.000Z</time>
      </trkpt>
      <trkpt lat="42.6417" lon="1.97297">
        <ele>1997.5</ele>
        <time>2021-08-02T10:25:12.000Z</time>
      </trkpt>
      <trkpt lat="42.64161" lon="1.97299">
        <ele>1996.4</ele>
        <time>2021-08-02T10:25:22.000Z</time>
      </trkpt>
      <trkpt lat="42.64151" lon="1.97299">
        <ele>1995</ele>
        <time>2021-08-02T10:25:34.000Z</time>
      </trkpt>
      <trkpt lat="42.64143" lon="1.97293">
        <ele>1994.8</ele>
        <time>2021-08-02T10:25:45.000Z</time>
      </trkpt>
      <trkpt lat="42.6414" lon="1.97281">
        <ele>1995.3</ele>
        <time>2021-08-02T10:25:54.000Z</time>
      </trkpt>
      <trkpt lat="42.64132" lon="1.97274">
        <ele>1996</ele>
        <time>2021-08-02T10:26:04.000Z</time>
      </trkpt>
      <trkpt lat="42.64123" lon="1.97268">
        <ele>1995.7</ele>
        <time>2021-08-02T10:26:13.000Z</time>
      </trkpt>
      <trkpt lat="42.64115" lon="1.97261">
        <ele>1995.9</ele>
        <time>2021-08-02T10:26:22.000Z</time>
      </trkpt>
      <trkpt lat="42.64107" lon="1.97255">
        <ele>1996.7</ele>
        <time>2021-08-02T10:26:32.000Z</time>
      </trkpt>
      <trkpt lat="42.64098" lon="1.97251">
        <ele>1997.1</ele>
        <time>2021-08-02T10:26:42.000Z</time>
      </trkpt>
      <trkpt lat="42.64088" lon="1.97247">
        <ele>1997</ele>
        <time>2021-08-02T10:26:51.000Z</time>
      </trkpt>
      <trkpt lat="42.6408" lon="1.97241">
        <ele>1997</ele>
        <time>2021-08-02T10:27:00.000Z</time>
      </trkpt>
      <trkpt lat="42.64073" lon="1.97232">
        <ele>1996.8</ele>
        <time>2021-08-02T10:27:10.000Z</time>
      </trkpt>
      <trkpt lat="42.64067" lon="1.97224">
        <ele>1995.9</ele>
        <time>2021-08-02T10:27:19.000Z</time>
      </trkpt>
      <trkpt lat="42.64062" lon="1.9722">
        <ele>1995.9</ele>
        <time>2021-08-02T10:27:26.000Z</time>
      </trkpt>
      <trkpt lat="42.64062" lon="1.97219">
        <ele>1996.2</ele>
        <time>2021-08-02T10:27:34.000Z</time>
      </trkpt>
      <trkpt lat="42.6406" lon="1.97207">
        <ele>1997.9</ele>
        <time>2021-08-02T10:27:44.000Z</time>
      </trkpt>
      <trkpt lat="42.64058" lon="1.97195">
        <ele>2000.7</ele>
        <time>2021-08-02T10:27:57.000Z</time>
      </trkpt>
      <trkpt lat="42.64058" lon="1.97183">
        <ele>2003.4</ele>
        <time>2021-08-02T10:28:11.000Z</time>
      </trkpt>
      <trkpt lat="42.64055" lon="1.97171">
        <ele>2003.4</ele>
        <time>2021-08-02T10:28:23.000Z</time>
      </trkpt>
      <trkpt lat="42.64048" lon="1.97163">
        <ele>2002.3</ele>
        <time>2021-08-02T10:28:36.000Z</time>
      </trkpt>
      <trkpt lat="42.6404" lon="1.97166">
        <ele>2002.2</ele>
        <time>2021-08-02T10:28:52.000Z</time>
      </trkpt>
      <trkpt lat="42.6404" lon="1.97165">
        <ele>2002.1</ele>
        <time>2021-08-02T10:28:56.000Z</time>
      </trkpt>
      <trkpt lat="42.6404" lon="1.97165">
        <ele>2001.8</ele>
        <time>2021-08-02T10:28:57.000Z</time>
      </trkpt>
      <trkpt lat="42.6404" lon="1.97165">
        <ele>2000.2</ele>
        <time>2021-08-02T10:29:01.000Z</time>
      </trkpt>
      <trkpt lat="42.6404" lon="1.97165">
        <ele>2001.8</ele>
        <time>2021-08-02T10:29:02.000Z</time>
      </trkpt>
      <trkpt lat="42.6404" lon="1.97165">
        <ele>2002</ele>
        <time>2021-08-02T10:30:05.000Z</time>
      </trkpt>
      <trkpt lat="42.64039" lon="1.97165">
        <ele>2001.6</ele>
        <time>2021-08-02T10:30:07.000Z</time>
      </trkpt>
      <trkpt lat="42.6404" lon="1.97165">
        <ele>2001.3</ele>
        <time>2021-08-02T10:31:38.000Z</time>
      </trkpt>
      <trkpt lat="42.6404" lon="1.97165">
        <ele>2001.3</ele>
        <time>2021-08-02T10:31:39.000Z</time>
      </trkpt>
      <trkpt lat="42.6404" lon="1.97165">
        <ele>2000.9</ele>
        <time>2021-08-02T10:33:59.000Z</time>
      </trkpt>
      <trkpt lat="42.6404" lon="1.97165">
        <ele>2000.8</ele>
        <time>2021-08-02T10:34:00.000Z</time>
      </trkpt>
      <trkpt lat="42.6404" lon="1.97165">
        <ele>2001.3</ele>
        <time>2021-08-02T10:39:46.000Z</time>
      </trkpt>
      <trkpt lat="42.6404" lon="1.97165">
        <ele>2001.4</ele>
        <time>2021-08-02T10:39:47.000Z</time>
      </trkpt>
      <trkpt lat="42.6404" lon="1.97165">
        <ele>2000.9</ele>
        <time>2021-08-02T10:45:40.000Z</time>
      </trkpt>
      <trkpt lat="42.6404" lon="1.97165">
        <ele>2000.8</ele>
        <time>2021-08-02T10:45:41.000Z</time>
      </trkpt>
      <trkpt lat="42.6404" lon="1.97165">
        <ele>2000.4</ele>
        <time>2021-08-02T10:52:49.000Z</time>
      </trkpt>
      <trkpt lat="42.6404" lon="1.97165">
        <ele>2000.4</ele>
        <time>2021-08-02T10:52:50.000Z</time>
      </trkpt>
      <trkpt lat="42.6404" lon="1.97165">
        <ele>2000.5</ele>
        <time>2021-08-02T10:56:45.000Z</time>
      </trkpt>
      <trkpt lat="42.6404" lon="1.97165">
        <ele>2000.5</ele>
        <time>2021-08-02T10:56:46.000Z</time>
      </trkpt>
      <trkpt lat="42.6404" lon="1.97165">
        <ele>2000.3</ele>
        <time>2021-08-02T10:57:32.000Z</time>
      </trkpt>
      <trkpt lat="42.64044" lon="1.97157">
        <ele>1999.2</ele>
        <time>2021-08-02T10:57:50.000Z</time>
      </trkpt>
      <trkpt lat="42.64044" lon="1.97157">
        <ele>1999.4</ele>
        <time>2021-08-02T10:57:51.000Z</time>
      </trkpt>
      <trkpt lat="42.64044" lon="1.97157">
        <ele>1999.7</ele>
        <time>2021-08-02T10:57:52.000Z</time>
      </trkpt>
      <trkpt lat="42.64044" lon="1.97157">
        <ele>2000.8</ele>
        <time>2021-08-02T10:58:00.000Z</time>
      </trkpt>
      <trkpt lat="42.64044" lon="1.97157">
        <ele>2000.4</ele>
        <time>2021-08-02T10:58:02.000Z</time>
      </trkpt>
      <trkpt lat="42.64043" lon="1.97157">
        <ele>2001</ele>
        <time>2021-08-02T11:00:36.000Z</time>
      </trkpt>
      <trkpt lat="42.64043" lon="1.97157">
        <ele>2000.2</ele>
        <time>2021-08-02T11:00:38.000Z</time>
      </trkpt>
      <trkpt lat="42.64043" lon="1.97157">
        <ele>2000.1</ele>
        <time>2021-08-02T11:00:49.000Z</time>
      </trkpt>
      <trkpt lat="42.64043" lon="1.97157">
        <ele>2000.3</ele>
        <time>2021-08-02T11:00:51.000Z</time>
      </trkpt>
      <trkpt lat="42.64043" lon="1.97157">
        <ele>1999.9</ele>
        <time>2021-08-02T11:03:10.000Z</time>
      </trkpt>
      <trkpt lat="42.64043" lon="1.97157">
        <ele>1999.9</ele>
        <time>2021-08-02T11:03:11.000Z</time>
      </trkpt>
      <trkpt lat="42.64043" lon="1.97158">
        <ele>2000</ele>
        <time>2021-08-02T11:04:24.000Z</time>
      </trkpt>
      <trkpt lat="42.64043" lon="1.97158">
        <ele>2000.1</ele>
        <time>2021-08-02T11:04:26.000Z</time>
      </trkpt>
      <trkpt lat="42.64043" lon="1.97158">
        <ele>1999.9</ele>
        <time>2021-08-02T11:04:30.000Z</time>
      </trkpt>
      <trkpt lat="42.64043" lon="1.97158">
        <ele>1999.9</ele>
        <time>2021-08-02T11:04:31.000Z</time>
      </trkpt>
      <trkpt lat="42.64043" lon="1.97158">
        <ele>2000</ele>
        <time>2021-08-02T11:06:12.000Z</time>
      </trkpt>
      <trkpt lat="42.64043" lon="1.97158">
        <ele>1999.9</ele>
        <time>2021-08-02T11:06:13.000Z</time>
      </trkpt>
      <trkpt lat="42.64044" lon="1.97158">
        <ele>2002.1</ele>
        <time>2021-08-02T11:06:18.000Z</time>
      </trkpt>
      <trkpt lat="42.64044" lon="1.97158">
        <ele>2000.7</ele>
        <time>2021-08-02T11:06:22.000Z</time>
      </trkpt>
      <trkpt lat="42.64043" lon="1.97158">
        <ele>2000.9</ele>
        <time>2021-08-02T11:06:23.000Z</time>
      </trkpt>
      <trkpt lat="42.64043" lon="1.97158">
        <ele>2001.1</ele>
        <time>2021-08-02T11:06:25.000Z</time>
      </trkpt>
      <trkpt lat="42.64043" lon="1.97158">
        <ele>2000.6</ele>
        <time>2021-08-02T11:06:34.000Z</time>
      </trkpt>
      <trkpt lat="42.64041" lon="1.97146">
        <ele>2001.6</ele>
        <time>2021-08-02T11:06:46.000Z</time>
      </trkpt>
      <trkpt lat="42.64034" lon="1.97137">
        <ele>2001.9</ele>
        <time>2021-08-02T11:06:57.000Z</time>
      </trkpt>
      <trkpt lat="42.6403" lon="1.97125">
        <ele>2001.4</ele>
        <time>2021-08-02T11:07:07.000Z</time>
      </trkpt>
      <trkpt lat="42.64028" lon="1.97113">
        <ele>2000.8</ele>
        <time>2021-08-02T11:07:15.000Z</time>
      </trkpt>
      <trkpt lat="42.64019" lon="1.97105">
        <ele>1998.8</ele>
        <time>2021-08-02T11:07:27.000Z</time>
      </trkpt>
      <trkpt lat="42.64011" lon="1.971">
        <ele>1997.1</ele>
        <time>2021-08-02T11:07:37.000Z</time>
      </trkpt>
      <trkpt lat="42.64002" lon="1.97097">
        <ele>1997.9</ele>
        <time>2021-08-02T11:07:47.000Z</time>
      </trkpt>
      <trkpt lat="42.63996" lon="1.97088">
        <ele>1998.5</ele>
        <time>2021-08-02T11:07:58.000Z</time>
      </trkpt>
      <trkpt lat="42.63991" lon="1.97077">
        <ele>1998.3</ele>
        <time>2021-08-02T11:08:08.000Z</time>
      </trkpt>
      <trkpt lat="42.63982" lon="1.97072">
        <ele>1998.8</ele>
        <time>2021-08-02T11:08:19.000Z</time>
      </trkpt>
      <trkpt lat="42.63974" lon="1.97067">
        <ele>1999.3</ele>
        <time>2021-08-02T11:08:31.000Z</time>
      </trkpt>
      <trkpt lat="42.63966" lon="1.97061">
        <ele>1997.4</ele>
        <time>2021-08-02T11:08:47.000Z</time>
      </trkpt>
      <trkpt lat="42.63957" lon="1.97055">
        <ele>1994.7</ele>
        <time>2021-08-02T11:09:02.000Z</time>
      </trkpt>
      <trkpt lat="42.63948" lon="1.97053">
        <ele>1992.3</ele>
        <time>2021-08-02T11:09:14.000Z</time>
      </trkpt>
      <trkpt lat="42.63939" lon="1.97049">
        <ele>1988.4</ele>
        <time>2021-08-02T11:09:30.000Z</time>
      </trkpt>
      <trkpt lat="42.63935" lon="1.97046">
        <ele>1986.2</ele>
        <time>2021-08-02T11:09:41.000Z</time>
      </trkpt>
      <trkpt lat="42.63934" lon="1.97046">
        <ele>1986</ele>
        <time>2021-08-02T11:09:49.000Z</time>
      </trkpt>
      <trkpt lat="42.63934" lon="1.97046">
        <ele>1985.7</ele>
        <time>2021-08-02T11:09:53.000Z</time>
      </trkpt>
      <trkpt lat="42.63933" lon="1.97046">
        <ele>1985.7</ele>
        <time>2021-08-02T11:09:58.000Z</time>
      </trkpt>
      <trkpt lat="42.63929" lon="1.97046">
        <ele>1984.3</ele>
        <time>2021-08-02T11:10:07.000Z</time>
      </trkpt>
      <trkpt lat="42.63929" lon="1.97046">
        <ele>1984.4</ele>
        <time>2021-08-02T11:10:08.000Z</time>
      </trkpt>
      <trkpt lat="42.63929" lon="1.97046">
        <ele>1984.4</ele>
        <time>2021-08-02T11:10:09.000Z</time>
      </trkpt>
      <trkpt lat="42.63928" lon="1.97046">
        <ele>1983.8</ele>
        <time>2021-08-02T11:10:11.000Z</time>
      </trkpt>
      <trkpt lat="42.63928" lon="1.97046">
        <ele>1983.7</ele>
        <time>2021-08-02T11:10:14.000Z</time>
      </trkpt>
      <trkpt lat="42.63928" lon="1.97046">
        <ele>1983.7</ele>
        <time>2021-08-02T11:10:15.000Z</time>
      </trkpt>
      <trkpt lat="42.63918" lon="1.97049">
        <ele>1982.1</ele>
        <time>2021-08-02T11:10:26.000Z</time>
      </trkpt>
      <trkpt lat="42.63908" lon="1.97049">
        <ele>1980.8</ele>
        <time>2021-08-02T11:10:36.000Z</time>
      </trkpt>
      <trkpt lat="42.63899" lon="1.97044">
        <ele>1979.5</ele>
        <time>2021-08-02T11:10:46.000Z</time>
      </trkpt>
      <trkpt lat="42.63892" lon="1.97038">
        <ele>1978.4</ele>
        <time>2021-08-02T11:10:54.000Z</time>
      </trkpt>
      <trkpt lat="42.63883" lon="1.97032">
        <ele>1978.9</ele>
        <time>2021-08-02T11:11:03.000Z</time>
      </trkpt>
      <trkpt lat="42.63877" lon="1.97023">
        <ele>1977.4</ele>
        <time>2021-08-02T11:11:13.000Z</time>
      </trkpt>
      <trkpt lat="42.63868" lon="1.97017">
        <ele>1976.1</ele>
        <time>2021-08-02T11:11:23.000Z</time>
      </trkpt>
      <trkpt lat="42.63859" lon="1.97015">
        <ele>1975</ele>
        <time>2021-08-02T11:11:32.000Z</time>
      </trkpt>
      <trkpt lat="42.6385" lon="1.9701">
        <ele>1973.9</ele>
        <time>2021-08-02T11:11:42.000Z</time>
      </trkpt>
      <trkpt lat="42.63841" lon="1.97006">
        <ele>1972.7</ele>
        <time>2021-08-02T11:11:51.000Z</time>
      </trkpt>
      <trkpt lat="42.63832" lon="1.97005">
        <ele>1972.2</ele>
        <time>2021-08-02T11:11:58.000Z</time>
      </trkpt>
      <trkpt lat="42.63822" lon="1.97005">
        <ele>1972.6</ele>
        <time>2021-08-02T11:12:07.000Z</time>
      </trkpt>
      <trkpt lat="42.63813" lon="1.97005">
        <ele>1973.2</ele>
        <time>2021-08-02T11:12:16.000Z</time>
      </trkpt>
      <trkpt lat="42.63804" lon="1.97006">
        <ele>1973.5</ele>
        <time>2021-08-02T11:12:25.000Z</time>
      </trkpt>
      <trkpt lat="42.63796" lon="1.96998">
        <ele>1971</ele>
        <time>2021-08-02T11:12:38.000Z</time>
      </trkpt>
      <trkpt lat="42.63787" lon="1.96993">
        <ele>1970.2</ele>
        <time>2021-08-02T11:12:48.000Z</time>
      </trkpt>
      <trkpt lat="42.63778" lon="1.96989">
        <ele>1970</ele>
        <time>2021-08-02T11:12:57.000Z</time>
      </trkpt>
      <trkpt lat="42.63769" lon="1.96986">
        <ele>1971.1</ele>
        <time>2021-08-02T11:13:06.000Z</time>
      </trkpt>
      <trkpt lat="42.6376" lon="1.96982">
        <ele>1970.4</ele>
        <time>2021-08-02T11:13:15.000Z</time>
      </trkpt>
      <trkpt lat="42.63754" lon="1.96972">
        <ele>1969.9</ele>
        <time>2021-08-02T11:13:24.000Z</time>
      </trkpt>
      <trkpt lat="42.63747" lon="1.96963">
        <ele>1969.3</ele>
        <time>2021-08-02T11:13:33.000Z</time>
      </trkpt>
      <trkpt lat="42.63739" lon="1.96955">
        <ele>1968.9</ele>
        <time>2021-08-02T11:13:42.000Z</time>
      </trkpt>
      <trkpt lat="42.6373" lon="1.96951">
        <ele>1968.8</ele>
        <time>2021-08-02T11:13:51.000Z</time>
      </trkpt>
      <trkpt lat="42.63723" lon="1.96942">
        <ele>1969.1</ele>
        <time>2021-08-02T11:14:00.000Z</time>
      </trkpt>
      <trkpt lat="42.63718" lon="1.96931">
        <ele>1970</ele>
        <time>2021-08-02T11:14:08.000Z</time>
      </trkpt>
      <trkpt lat="42.63714" lon="1.96918">
        <ele>1970.7</ele>
        <time>2021-08-02T11:14:17.000Z</time>
      </trkpt>
      <trkpt lat="42.63711" lon="1.96906">
        <ele>1972.7</ele>
        <time>2021-08-02T11:14:27.000Z</time>
      </trkpt>
      <trkpt lat="42.63707" lon="1.96895">
        <ele>1973.3</ele>
        <time>2021-08-02T11:14:36.000Z</time>
      </trkpt>
      <trkpt lat="42.63705" lon="1.96883">
        <ele>1974.2</ele>
        <time>2021-08-02T11:14:45.000Z</time>
      </trkpt>
      <trkpt lat="42.63702" lon="1.9687">
        <ele>1975.7</ele>
        <time>2021-08-02T11:14:55.000Z</time>
      </trkpt>
      <trkpt lat="42.63697" lon="1.96859">
        <ele>1976.5</ele>
        <time>2021-08-02T11:15:05.000Z</time>
      </trkpt>
      <trkpt lat="42.63695" lon="1.96846">
        <ele>1976.5</ele>
        <time>2021-08-02T11:15:15.000Z</time>
      </trkpt>
      <trkpt lat="42.63703" lon="1.96838">
        <ele>1976.8</ele>
        <time>2021-08-02T11:15:23.000Z</time>
      </trkpt>
      <trkpt lat="42.63702" lon="1.96825">
        <ele>1975.7</ele>
        <time>2021-08-02T11:15:37.000Z</time>
      </trkpt>
      <trkpt lat="42.63697" lon="1.96814">
        <ele>1975</ele>
        <time>2021-08-02T11:15:47.000Z</time>
      </trkpt>
      <trkpt lat="42.63695" lon="1.96802">
        <ele>1974.5</ele>
        <time>2021-08-02T11:15:56.000Z</time>
      </trkpt>
      <trkpt lat="42.63696" lon="1.96789">
        <ele>1974.5</ele>
        <time>2021-08-02T11:16:05.000Z</time>
      </trkpt>
      <trkpt lat="42.63704" lon="1.96781">
        <ele>1974.6</ele>
        <time>2021-08-02T11:16:15.000Z</time>
      </trkpt>
      <trkpt lat="42.63712" lon="1.96777">
        <ele>1973.2</ele>
        <time>2021-08-02T11:16:23.000Z</time>
      </trkpt>
      <trkpt lat="42.63716" lon="1.96776">
        <ele>1973.1</ele>
        <time>2021-08-02T11:16:29.000Z</time>
      </trkpt>
      <trkpt lat="42.63716" lon="1.96776">
        <ele>1972.8</ele>
        <time>2021-08-02T11:16:35.000Z</time>
      </trkpt>
      <trkpt lat="42.63714" lon="1.96775">
        <ele>1971</ele>
        <time>2021-08-02T11:16:40.000Z</time>
      </trkpt>
      <trkpt lat="42.63714" lon="1.96776">
        <ele>1972.7</ele>
        <time>2021-08-02T11:16:50.000Z</time>
      </trkpt>
      <trkpt lat="42.63714" lon="1.96776">
        <ele>1972.8</ele>
        <time>2021-08-02T11:16:51.000Z</time>
      </trkpt>
      <trkpt lat="42.63714" lon="1.96775">
        <ele>1972.8</ele>
        <time>2021-08-02T11:17:01.000Z</time>
      </trkpt>
      <trkpt lat="42.63714" lon="1.96775">
        <ele>1972.6</ele>
        <time>2021-08-02T11:17:04.000Z</time>
      </trkpt>
      <trkpt lat="42.63714" lon="1.96775">
        <ele>1972.8</ele>
        <time>2021-08-02T11:17:33.000Z</time>
      </trkpt>
      <trkpt lat="42.63714" lon="1.96776">
        <ele>1972.4</ele>
        <time>2021-08-02T11:17:38.000Z</time>
      </trkpt>
      <trkpt lat="42.63714" lon="1.96776">
        <ele>1971.7</ele>
        <time>2021-08-02T11:17:39.000Z</time>
      </trkpt>
      <trkpt lat="42.63713" lon="1.96775">
        <ele>1972.8</ele>
        <time>2021-08-02T11:17:46.000Z</time>
      </trkpt>
      <trkpt lat="42.63713" lon="1.96774">
        <ele>1972.8</ele>
        <time>2021-08-02T11:17:48.000Z</time>
      </trkpt>
      <trkpt lat="42.63713" lon="1.96761">
        <ele>1971.5</ele>
        <time>2021-08-02T11:17:59.000Z</time>
      </trkpt>
      <trkpt lat="42.63712" lon="1.96752">
        <ele>1969.7</ele>
        <time>2021-08-02T11:18:09.000Z</time>
      </trkpt>
      <trkpt lat="42.63712" lon="1.96751">
        <ele>1969.5</ele>
        <time>2021-08-02T11:18:10.000Z</time>
      </trkpt>
      <trkpt lat="42.63712" lon="1.96738">
        <ele>1966.1</ele>
        <time>2021-08-02T11:18:23.000Z</time>
      </trkpt>
      <trkpt lat="42.63717" lon="1.96728">
        <ele>1964.6</ele>
        <time>2021-08-02T11:18:33.000Z</time>
      </trkpt>
      <trkpt lat="42.63717" lon="1.96728">
        <ele>1964.7</ele>
        <time>2021-08-02T11:18:36.000Z</time>
      </trkpt>
      <trkpt lat="42.63717" lon="1.96728">
        <ele>1964.8</ele>
        <time>2021-08-02T11:18:37.000Z</time>
      </trkpt>
      <trkpt lat="42.63716" lon="1.96728">
        <ele>1964.9</ele>
        <time>2021-08-02T11:18:41.000Z</time>
      </trkpt>
      <trkpt lat="42.63716" lon="1.96728">
        <ele>1965</ele>
        <time>2021-08-02T11:18:42.000Z</time>
      </trkpt>
      <trkpt lat="42.63716" lon="1.96728">
        <ele>1965.1</ele>
        <time>2021-08-02T11:18:45.000Z</time>
      </trkpt>
      <trkpt lat="42.63717" lon="1.96729">
        <ele>1964.4</ele>
        <time>2021-08-02T11:18:49.000Z</time>
      </trkpt>
      <trkpt lat="42.63716" lon="1.96729">
        <ele>1964.4</ele>
        <time>2021-08-02T11:18:51.000Z</time>
      </trkpt>
      <trkpt lat="42.63716" lon="1.96729">
        <ele>1964.6</ele>
        <time>2021-08-02T11:18:52.000Z</time>
      </trkpt>
      <trkpt lat="42.63716" lon="1.96729">
        <ele>1964.9</ele>
        <time>2021-08-02T11:18:53.000Z</time>
      </trkpt>
      <trkpt lat="42.63717" lon="1.9673">
        <ele>1964.7</ele>
        <time>2021-08-02T11:18:57.000Z</time>
      </trkpt>
      <trkpt lat="42.63717" lon="1.9673">
        <ele>1964.7</ele>
        <time>2021-08-02T11:18:58.000Z</time>
      </trkpt>
      <trkpt lat="42.63717" lon="1.9673">
        <ele>1964.6</ele>
        <time>2021-08-02T11:18:59.000Z</time>
      </trkpt>
      <trkpt lat="42.63717" lon="1.9673">
        <ele>1964.6</ele>
        <time>2021-08-02T11:19:00.000Z</time>
      </trkpt>
      <trkpt lat="42.63717" lon="1.9673">
        <ele>1964.8</ele>
        <time>2021-08-02T11:19:01.000Z</time>
      </trkpt>
      <trkpt lat="42.63717" lon="1.9673">
        <ele>1964.8</ele>
        <time>2021-08-02T11:19:02.000Z</time>
      </trkpt>
      <trkpt lat="42.63715" lon="1.96729">
        <ele>1964.5</ele>
        <time>2021-08-02T11:19:11.000Z</time>
      </trkpt>
      <trkpt lat="42.63715" lon="1.96728">
        <ele>1964.9</ele>
        <time>2021-08-02T11:19:14.000Z</time>
      </trkpt>
      <trkpt lat="42.63715" lon="1.96729">
        <ele>1964.4</ele>
        <time>2021-08-02T11:19:19.000Z</time>
      </trkpt>
      <trkpt lat="42.63715" lon="1.96729">
        <ele>1964.3</ele>
        <time>2021-08-02T11:19:21.000Z</time>
      </trkpt>
      <trkpt lat="42.63714" lon="1.96729">
        <ele>1965.2</ele>
        <time>2021-08-02T11:19:24.000Z</time>
      </trkpt>
      <trkpt lat="42.63714" lon="1.96729">
        <ele>1965.6</ele>
        <time>2021-08-02T11:19:30.000Z</time>
      </trkpt>
      <trkpt lat="42.63714" lon="1.9673">
        <ele>1964.8</ele>
        <time>2021-08-02T11:19:34.000Z</time>
      </trkpt>
      <trkpt lat="42.63714" lon="1.9673">
        <ele>1964.8</ele>
        <time>2021-08-02T11:19:37.000Z</time>
      </trkpt>
      <trkpt lat="42.63714" lon="1.96731">
        <ele>1964.7</ele>
        <time>2021-08-02T11:19:39.000Z</time>
      </trkpt>
      <trkpt lat="42.63714" lon="1.9673">
        <ele>1963.8</ele>
        <time>2021-08-02T11:19:44.000Z</time>
      </trkpt>
      <trkpt lat="42.63714" lon="1.9673">
        <ele>1964.6</ele>
        <time>2021-08-02T11:19:46.000Z</time>
      </trkpt>
      <trkpt lat="42.63714" lon="1.9673">
        <ele>1963.7</ele>
        <time>2021-08-02T11:20:09.000Z</time>
      </trkpt>
      <trkpt lat="42.63714" lon="1.9673">
        <ele>1964</ele>
        <time>2021-08-02T11:20:10.000Z</time>
      </trkpt>
      <trkpt lat="42.63714" lon="1.96731">
        <ele>1964.5</ele>
        <time>2021-08-02T11:20:19.000Z</time>
      </trkpt>
      <trkpt lat="42.63713" lon="1.96731">
        <ele>1964.5</ele>
        <time>2021-08-02T11:20:21.000Z</time>
      </trkpt>
      <trkpt lat="42.63713" lon="1.96731">
        <ele>1963.6</ele>
        <time>2021-08-02T11:20:56.000Z</time>
      </trkpt>
      <trkpt lat="42.63713" lon="1.96731">
        <ele>1963.6</ele>
        <time>2021-08-02T11:20:57.000Z</time>
      </trkpt>
      <trkpt lat="42.63713" lon="1.96731">
        <ele>1963.9</ele>
        <time>2021-08-02T11:20:58.000Z</time>
      </trkpt>
      <trkpt lat="42.63713" lon="1.96731">
        <ele>1964.3</ele>
        <time>2021-08-02T11:20:59.000Z</time>
      </trkpt>
      <trkpt lat="42.63713" lon="1.96731">
        <ele>1964.6</ele>
        <time>2021-08-02T11:21:09.000Z</time>
      </trkpt>
      <trkpt lat="42.63713" lon="1.9673">
        <ele>1963.8</ele>
        <time>2021-08-02T11:21:14.000Z</time>
      </trkpt>
      <trkpt lat="42.63714" lon="1.9673">
        <ele>1964</ele>
        <time>2021-08-02T11:21:32.000Z</time>
      </trkpt>
      <trkpt lat="42.63714" lon="1.9673">
        <ele>1964.2</ele>
        <time>2021-08-02T11:21:34.000Z</time>
      </trkpt>
      <trkpt lat="42.63714" lon="1.9673">
        <ele>1964.3</ele>
        <time>2021-08-02T11:21:38.000Z</time>
      </trkpt>
      <trkpt lat="42.63714" lon="1.9673">
        <ele>1964.5</ele>
        <time>2021-08-02T11:21:40.000Z</time>
      </trkpt>
      <trkpt lat="42.63714" lon="1.9673">
        <ele>1964.4</ele>
        <time>2021-08-02T11:21:54.000Z</time>
      </trkpt>
      <trkpt lat="42.63714" lon="1.9673">
        <ele>1964.4</ele>
        <time>2021-08-02T11:21:55.000Z</time>
      </trkpt>
      <trkpt lat="42.63714" lon="1.96729">
        <ele>1964.5</ele>
        <time>2021-08-02T11:22:04.000Z</time>
      </trkpt>
      <trkpt lat="42.63705" lon="1.96722">
        <ele>1965.6</ele>
        <time>2021-08-02T11:22:15.000Z</time>
      </trkpt>
      <trkpt lat="42.63696" lon="1.96721">
        <ele>1967.5</ele>
        <time>2021-08-02T11:22:27.000Z</time>
      </trkpt>
      <trkpt lat="42.63696" lon="1.96721">
        <ele>1967.9</ele>
        <time>2021-08-02T11:22:28.000Z</time>
      </trkpt>
      <trkpt lat="42.63696" lon="1.96721">
        <ele>1968.1</ele>
        <time>2021-08-02T11:22:29.000Z</time>
      </trkpt>
      <trkpt lat="42.63696" lon="1.96721">
        <ele>1968</ele>
        <time>2021-08-02T11:22:30.000Z</time>
      </trkpt>
      <trkpt lat="42.63696" lon="1.96721">
        <ele>1968</ele>
        <time>2021-08-02T11:22:37.000Z</time>
      </trkpt>
      <trkpt lat="42.63696" lon="1.96734">
        <ele>1968.9</ele>
        <time>2021-08-02T11:22:49.000Z</time>
      </trkpt>
      <trkpt lat="42.63696" lon="1.96738">
        <ele>1969.6</ele>
        <time>2021-08-02T11:22:54.000Z</time>
      </trkpt>
      <trkpt lat="42.63696" lon="1.96739">
        <ele>1969.4</ele>
        <time>2021-08-02T11:22:59.000Z</time>
      </trkpt>
      <trkpt lat="42.63697" lon="1.96752">
        <ele>1970.8</ele>
        <time>2021-08-02T11:23:08.000Z</time>
      </trkpt>
      <trkpt lat="42.63697" lon="1.96766">
        <ele>1971.8</ele>
        <time>2021-08-02T11:23:18.000Z</time>
      </trkpt>
      <trkpt lat="42.63698" lon="1.96778">
        <ele>1973.3</ele>
        <time>2021-08-02T11:23:27.000Z</time>
      </trkpt>
      <trkpt lat="42.63697" lon="1.96791">
        <ele>1974.1</ele>
        <time>2021-08-02T11:23:37.000Z</time>
      </trkpt>
      <trkpt lat="42.63696" lon="1.96805">
        <ele>1974.1</ele>
        <time>2021-08-02T11:23:47.000Z</time>
      </trkpt>
      <trkpt lat="42.63695" lon="1.96818">
        <ele>1974.2</ele>
        <time>2021-08-02T11:23:56.000Z</time>
      </trkpt>
      <trkpt lat="42.63694" lon="1.9683">
        <ele>1975</ele>
        <time>2021-08-02T11:24:05.000Z</time>
      </trkpt>
      <trkpt lat="42.63697" lon="1.9684">
        <ele>1976.1</ele>
        <time>2021-08-02T11:24:17.000Z</time>
      </trkpt>
      <trkpt lat="42.63697" lon="1.9684">
        <ele>1975.4</ele>
        <time>2021-08-02T11:24:18.000Z</time>
      </trkpt>
      <trkpt lat="42.63697" lon="1.9684">
        <ele>1975.3</ele>
        <time>2021-08-02T11:24:20.000Z</time>
      </trkpt>
      <trkpt lat="42.63697" lon="1.9684">
        <ele>1975</ele>
        <time>2021-08-02T11:24:27.000Z</time>
      </trkpt>
      <trkpt lat="42.63697" lon="1.9684">
        <ele>1975.2</ele>
        <time>2021-08-02T11:24:28.000Z</time>
      </trkpt>
      <trkpt lat="42.63697" lon="1.9684">
        <ele>1974.8</ele>
        <time>2021-08-02T11:25:00.000Z</time>
      </trkpt>
      <trkpt lat="42.63697" lon="1.9684">
        <ele>1976.1</ele>
        <time>2021-08-02T11:25:02.000Z</time>
      </trkpt>
      <trkpt lat="42.63697" lon="1.9684">
        <ele>1976.1</ele>
        <time>2021-08-02T11:25:07.000Z</time>
      </trkpt>
      <trkpt lat="42.63697" lon="1.9684">
        <ele>1976.3</ele>
        <time>2021-08-02T11:25:08.000Z</time>
      </trkpt>
      <trkpt lat="42.63697" lon="1.9684">
        <ele>1976.3</ele>
        <time>2021-08-02T11:25:34.000Z</time>
      </trkpt>
      <trkpt lat="42.63697" lon="1.9684">
        <ele>1976.1</ele>
        <time>2021-08-02T11:25:35.000Z</time>
      </trkpt>
      <trkpt lat="42.63697" lon="1.9684">
        <ele>1976.2</ele>
        <time>2021-08-02T11:25:36.000Z</time>
      </trkpt>
      <trkpt lat="42.63697" lon="1.9684">
        <ele>1976.2</ele>
        <time>2021-08-02T11:25:37.000Z</time>
      </trkpt>
      <trkpt lat="42.63697" lon="1.9684">
        <ele>1976.2</ele>
        <time>2021-08-02T11:25:58.000Z</time>
      </trkpt>
      <trkpt lat="42.63697" lon="1.9684">
        <ele>1976.2</ele>
        <time>2021-08-02T11:25:59.000Z</time>
      </trkpt>
      <trkpt lat="42.63698" lon="1.9684">
        <ele>1976.2</ele>
        <time>2021-08-02T11:26:28.000Z</time>
      </trkpt>
      <trkpt lat="42.63698" lon="1.9684">
        <ele>1976.1</ele>
        <time>2021-08-02T11:26:29.000Z</time>
      </trkpt>
      <trkpt lat="42.63697" lon="1.9684">
        <ele>1976.2</ele>
        <time>2021-08-02T11:26:50.000Z</time>
      </trkpt>
      <trkpt lat="42.63697" lon="1.9684">
        <ele>1976.2</ele>
        <time>2021-08-02T11:26:51.000Z</time>
      </trkpt>
      <trkpt lat="42.63698" lon="1.9684">
        <ele>1976.4</ele>
        <time>2021-08-02T11:27:10.000Z</time>
      </trkpt>
      <trkpt lat="42.63698" lon="1.9684">
        <ele>1976.3</ele>
        <time>2021-08-02T11:27:11.000Z</time>
      </trkpt>
      <trkpt lat="42.63698" lon="1.9684">
        <ele>1976.2</ele>
        <time>2021-08-02T11:27:15.000Z</time>
      </trkpt>
      <trkpt lat="42.63698" lon="1.9684">
        <ele>1976.2</ele>
        <time>2021-08-02T11:27:16.000Z</time>
      </trkpt>
      <trkpt lat="42.63698" lon="1.96839">
        <ele>1976.3</ele>
        <time>2021-08-02T11:27:40.000Z</time>
      </trkpt>
      <trkpt lat="42.63692" lon="1.96829">
        <ele>1974.6</ele>
        <time>2021-08-02T11:27:54.000Z</time>
      </trkpt>
      <trkpt lat="42.63689" lon="1.96817">
        <ele>1973.1</ele>
        <time>2021-08-02T11:28:05.000Z</time>
      </trkpt>
      <trkpt lat="42.63686" lon="1.96805">
        <ele>1973.2</ele>
        <time>2021-08-02T11:28:15.000Z</time>
      </trkpt>
      <trkpt lat="42.63682" lon="1.96794">
        <ele>1972.5</ele>
        <time>2021-08-02T11:28:25.000Z</time>
      </trkpt>
      <trkpt lat="42.63676" lon="1.96784">
        <ele>1972.8</ele>
        <time>2021-08-02T11:28:37.000Z</time>
      </trkpt>
      <trkpt lat="42.63672" lon="1.96773">
        <ele>1974.1</ele>
        <time>2021-08-02T11:28:49.000Z</time>
      </trkpt>
      <trkpt lat="42.63669" lon="1.96761">
        <ele>1973.9</ele>
        <time>2021-08-02T11:28:59.000Z</time>
      </trkpt>
      <trkpt lat="42.63664" lon="1.9675">
        <ele>1973.8</ele>
        <time>2021-08-02T11:29:09.000Z</time>
      </trkpt>
      <trkpt lat="42.63658" lon="1.9674">
        <ele>1973.4</ele>
        <time>2021-08-02T11:29:20.000Z</time>
      </trkpt>
      <trkpt lat="42.63652" lon="1.96731">
        <ele>1972.8</ele>
        <time>2021-08-02T11:29:30.000Z</time>
      </trkpt>
      <trkpt lat="42.63642" lon="1.96729">
        <ele>1973.3</ele>
        <time>2021-08-02T11:29:39.000Z</time>
      </trkpt>
      <trkpt lat="42.63634" lon="1.96723">
        <ele>1973.6</ele>
        <time>2021-08-02T11:29:52.000Z</time>
      </trkpt>
      <trkpt lat="42.63624" lon="1.96723">
        <ele>1974.4</ele>
        <time>2021-08-02T11:30:08.000Z</time>
      </trkpt>
      <trkpt lat="42.63615" lon="1.96721">
        <ele>1975.2</ele>
        <time>2021-08-02T11:30:22.000Z</time>
      </trkpt>
      <trkpt lat="42.63606" lon="1.96721">
        <ele>1974.7</ele>
        <time>2021-08-02T11:30:34.000Z</time>
      </trkpt>
      <trkpt lat="42.63596" lon="1.96722">
        <ele>1973.4</ele>
        <time>2021-08-02T11:30:48.000Z</time>
      </trkpt>
      <trkpt lat="42.63587" lon="1.96723">
        <ele>1971.8</ele>
        <time>2021-08-02T11:31:00.000Z</time>
      </trkpt>
      <trkpt lat="42.63585" lon="1.96724">
        <ele>1972</ele>
        <time>2021-08-02T11:31:06.000Z</time>
      </trkpt>
      <trkpt lat="42.63585" lon="1.96724">
        <ele>1971.9</ele>
        <time>2021-08-02T11:31:16.000Z</time>
      </trkpt>
      <trkpt lat="42.63576" lon="1.96723">
        <ele>1970.7</ele>
        <time>2021-08-02T11:31:26.000Z</time>
      </trkpt>
      <trkpt lat="42.63567" lon="1.96721">
        <ele>1969.4</ele>
        <time>2021-08-02T11:31:35.000Z</time>
      </trkpt>
      <trkpt lat="42.63558" lon="1.96714">
        <ele>1969.1</ele>
        <time>2021-08-02T11:31:45.000Z</time>
      </trkpt>
      <trkpt lat="42.63552" lon="1.96705">
        <ele>1969</ele>
        <time>2021-08-02T11:31:54.000Z</time>
      </trkpt>
      <trkpt lat="42.63544" lon="1.96698">
        <ele>1968.9</ele>
        <time>2021-08-02T11:32:06.000Z</time>
      </trkpt>
      <trkpt lat="42.63543" lon="1.96686">
        <ele>1970.4</ele>
        <time>2021-08-02T11:32:17.000Z</time>
      </trkpt>
      <trkpt lat="42.63548" lon="1.96675">
        <ele>1973.5</ele>
        <time>2021-08-02T11:32:36.000Z</time>
      </trkpt>
      <trkpt lat="42.63548" lon="1.96675">
        <ele>1973.9</ele>
        <time>2021-08-02T11:32:38.000Z</time>
      </trkpt>
      <trkpt lat="42.63548" lon="1.96675">
        <ele>1973.9</ele>
        <time>2021-08-02T11:32:39.000Z</time>
      </trkpt>
      <trkpt lat="42.63555" lon="1.96666">
        <ele>1974.5</ele>
        <time>2021-08-02T11:32:53.000Z</time>
      </trkpt>
      <trkpt lat="42.63562" lon="1.96657">
        <ele>1971.5</ele>
        <time>2021-08-02T11:33:06.000Z</time>
      </trkpt>
      <trkpt lat="42.6357" lon="1.96649">
        <ele>1969.1</ele>
        <time>2021-08-02T11:33:16.000Z</time>
      </trkpt>
      <trkpt lat="42.63574" lon="1.96637">
        <ele>1969.7</ele>
        <time>2021-08-02T11:33:27.000Z</time>
      </trkpt>
      <trkpt lat="42.63574" lon="1.96625">
        <ele>1971.2</ele>
        <time>2021-08-02T11:33:39.000Z</time>
      </trkpt>
      <trkpt lat="42.63572" lon="1.96613">
        <ele>1971.7</ele>
        <time>2021-08-02T11:33:50.000Z</time>
      </trkpt>
      <trkpt lat="42.63568" lon="1.96602">
        <ele>1973.6</ele>
        <time>2021-08-02T11:34:03.000Z</time>
      </trkpt>
      <trkpt lat="42.63563" lon="1.9659">
        <ele>1975</ele>
        <time>2021-08-02T11:34:14.000Z</time>
      </trkpt>
      <trkpt lat="42.63558" lon="1.9658">
        <ele>1975.2</ele>
        <time>2021-08-02T11:34:24.000Z</time>
      </trkpt>
      <trkpt lat="42.63558" lon="1.96568">
        <ele>1975.6</ele>
        <time>2021-08-02T11:34:34.000Z</time>
      </trkpt>
      <trkpt lat="42.63558" lon="1.96555">
        <ele>1976</ele>
        <time>2021-08-02T11:34:44.000Z</time>
      </trkpt>
      <trkpt lat="42.63559" lon="1.96542">
        <ele>1976.3</ele>
        <time>2021-08-02T11:34:54.000Z</time>
      </trkpt>
      <trkpt lat="42.63561" lon="1.9653">
        <ele>1977.6</ele>
        <time>2021-08-02T11:35:04.000Z</time>
      </trkpt>
      <trkpt lat="42.63565" lon="1.96518">
        <ele>1979.4</ele>
        <time>2021-08-02T11:35:19.000Z</time>
      </trkpt>
      <trkpt lat="42.63567" lon="1.96506">
        <ele>1982.3</ele>
        <time>2021-08-02T11:35:37.000Z</time>
      </trkpt>
      <trkpt lat="42.63567" lon="1.96493">
        <ele>1983.4</ele>
        <time>2021-08-02T11:35:48.000Z</time>
      </trkpt>
      <trkpt lat="42.63566" lon="1.9648">
        <ele>1984.4</ele>
        <time>2021-08-02T11:36:00.000Z</time>
      </trkpt>
      <trkpt lat="42.63568" lon="1.96468">
        <ele>1986.5</ele>
        <time>2021-08-02T11:36:16.000Z</time>
      </trkpt>
      <trkpt lat="42.63569" lon="1.96455">
        <ele>1988.3</ele>
        <time>2021-08-02T11:36:29.000Z</time>
      </trkpt>
      <trkpt lat="42.63574" lon="1.96445">
        <ele>1989</ele>
        <time>2021-08-02T11:36:41.000Z</time>
      </trkpt>
      <trkpt lat="42.63579" lon="1.96435">
        <ele>1988.3</ele>
        <time>2021-08-02T11:36:51.000Z</time>
      </trkpt>
      <trkpt lat="42.63582" lon="1.96423">
        <ele>1987</ele>
        <time>2021-08-02T11:37:04.000Z</time>
      </trkpt>
      <trkpt lat="42.63588" lon="1.96412">
        <ele>1985.8</ele>
        <time>2021-08-02T11:37:15.000Z</time>
      </trkpt>
      <trkpt lat="42.63591" lon="1.96399">
        <ele>1984.3</ele>
        <time>2021-08-02T11:37:26.000Z</time>
      </trkpt>
      <trkpt lat="42.63594" lon="1.96387">
        <ele>1984.5</ele>
        <time>2021-08-02T11:37:38.000Z</time>
      </trkpt>
      <trkpt lat="42.636" lon="1.96378">
        <ele>1985.3</ele>
        <time>2021-08-02T11:37:48.000Z</time>
      </trkpt>
      <trkpt lat="42.63606" lon="1.96369">
        <ele>1985.7</ele>
        <time>2021-08-02T11:37:59.000Z</time>
      </trkpt>
      <trkpt lat="42.6361" lon="1.96358">
        <ele>1988</ele>
        <time>2021-08-02T11:38:12.000Z</time>
      </trkpt>
      <trkpt lat="42.63615" lon="1.96347">
        <ele>1988.6</ele>
        <time>2021-08-02T11:38:25.000Z</time>
      </trkpt>
      <trkpt lat="42.63614" lon="1.96335">
        <ele>1988.1</ele>
        <time>2021-08-02T11:38:37.000Z</time>
      </trkpt>
      <trkpt lat="42.6361" lon="1.96323">
        <ele>1988.1</ele>
        <time>2021-08-02T11:38:48.000Z</time>
      </trkpt>
      <trkpt lat="42.63614" lon="1.96311">
        <ele>1988.7</ele>
        <time>2021-08-02T11:39:02.000Z</time>
      </trkpt>
      <trkpt lat="42.63621" lon="1.96302">
        <ele>1986.8</ele>
        <time>2021-08-02T11:39:15.000Z</time>
      </trkpt>
      <trkpt lat="42.63623" lon="1.96289">
        <ele>1987.6</ele>
        <time>2021-08-02T11:39:26.000Z</time>
      </trkpt>
      <trkpt lat="42.63625" lon="1.96286">
        <ele>1987.5</ele>
        <time>2021-08-02T11:39:32.000Z</time>
      </trkpt>
      <trkpt lat="42.63625" lon="1.96285">
        <ele>1987.8</ele>
        <time>2021-08-02T11:39:34.000Z</time>
      </trkpt>
      <trkpt lat="42.6363" lon="1.96274">
        <ele>1989</ele>
        <time>2021-08-02T11:39:49.000Z</time>
      </trkpt>
      <trkpt lat="42.63637" lon="1.96265">
        <ele>1990.7</ele>
        <time>2021-08-02T11:40:03.000Z</time>
      </trkpt>
      <trkpt lat="42.6364" lon="1.9626">
        <ele>1990.9</ele>
        <time>2021-08-02T11:40:10.000Z</time>
      </trkpt>
      <trkpt lat="42.6364" lon="1.9626">
        <ele>1990.8</ele>
        <time>2021-08-02T11:40:27.000Z</time>
      </trkpt>
      <trkpt lat="42.6364" lon="1.9626">
        <ele>1990.8</ele>
        <time>2021-08-02T11:40:28.000Z</time>
      </trkpt>
      <trkpt lat="42.63639" lon="1.9626">
        <ele>1990.6</ele>
        <time>2021-08-02T11:40:50.000Z</time>
      </trkpt>
      <trkpt lat="42.6364" lon="1.9626">
        <ele>1991.1</ele>
        <time>2021-08-02T11:40:54.000Z</time>
      </trkpt>
      <trkpt lat="42.6364" lon="1.96259">
        <ele>1991</ele>
        <time>2021-08-02T11:40:56.000Z</time>
      </trkpt>
      <trkpt lat="42.6364" lon="1.96259">
        <ele>1991.1</ele>
        <time>2021-08-02T11:40:57.000Z</time>
      </trkpt>
      <trkpt lat="42.6364" lon="1.96259">
        <ele>1991</ele>
        <time>2021-08-02T11:41:01.000Z</time>
      </trkpt>
      <trkpt lat="42.6364" lon="1.96259">
        <ele>1990.9</ele>
        <time>2021-08-02T11:41:03.000Z</time>
      </trkpt>
      <trkpt lat="42.6364" lon="1.96259">
        <ele>1990.9</ele>
        <time>2021-08-02T11:41:28.000Z</time>
      </trkpt>
      <trkpt lat="42.63639" lon="1.96246">
        <ele>1987.8</ele>
        <time>2021-08-02T11:41:44.000Z</time>
      </trkpt>
      <trkpt lat="42.63638" lon="1.96238">
        <ele>1985.3</ele>
        <time>2021-08-02T11:41:58.000Z</time>
      </trkpt>
      <trkpt lat="42.63639" lon="1.96239">
        <ele>1985.3</ele>
        <time>2021-08-02T11:41:59.000Z</time>
      </trkpt>
      <trkpt lat="42.63639" lon="1.96239">
        <ele>1984.6</ele>
        <time>2021-08-02T11:42:02.000Z</time>
      </trkpt>
      <trkpt lat="42.63639" lon="1.96239">
        <ele>1984.3</ele>
        <time>2021-08-02T11:42:03.000Z</time>
      </trkpt>
      <trkpt lat="42.63642" lon="1.96233">
        <ele>1981.3</ele>
        <time>2021-08-02T11:42:19.000Z</time>
      </trkpt>
      <trkpt lat="42.63642" lon="1.96233">
        <ele>1981.4</ele>
        <time>2021-08-02T11:42:23.000Z</time>
      </trkpt>
      <trkpt lat="42.63641" lon="1.96232">
        <ele>1981.5</ele>
        <time>2021-08-02T11:42:27.000Z</time>
      </trkpt>
      <trkpt lat="42.63641" lon="1.96231">
        <ele>1981.6</ele>
        <time>2021-08-02T11:42:32.000Z</time>
      </trkpt>
      <trkpt lat="42.63644" lon="1.96224">
        <ele>1977.5</ele>
        <time>2021-08-02T11:42:52.000Z</time>
      </trkpt>
      <trkpt lat="42.63644" lon="1.96224">
        <ele>1977.3</ele>
        <time>2021-08-02T11:42:53.000Z</time>
      </trkpt>
      <trkpt lat="42.63639" lon="1.96215">
        <ele>1974.7</ele>
        <time>2021-08-02T11:43:13.000Z</time>
      </trkpt>
      <trkpt lat="42.63639" lon="1.96215">
        <ele>1974.7</ele>
        <time>2021-08-02T11:43:14.000Z</time>
      </trkpt>
      <trkpt lat="42.63641" lon="1.96202">
        <ele>1971</ele>
        <time>2021-08-02T11:43:29.000Z</time>
      </trkpt>
      <trkpt lat="42.63642" lon="1.96198">
        <ele>1970.6</ele>
        <time>2021-08-02T11:43:35.000Z</time>
      </trkpt>
      <trkpt lat="42.63642" lon="1.96198">
        <ele>1970.1</ele>
        <time>2021-08-02T11:44:23.000Z</time>
      </trkpt>
      <trkpt lat="42.63642" lon="1.96198">
        <ele>1970.1</ele>
        <time>2021-08-02T11:44:24.000Z</time>
      </trkpt>
      <trkpt lat="42.63642" lon="1.96198">
        <ele>1970.4</ele>
        <time>2021-08-02T11:44:59.000Z</time>
      </trkpt>
      <trkpt lat="42.63642" lon="1.96198">
        <ele>1970.3</ele>
        <time>2021-08-02T11:45:00.000Z</time>
      </trkpt>
      <trkpt lat="42.63642" lon="1.96198">
        <ele>1970</ele>
        <time>2021-08-02T11:45:36.000Z</time>
      </trkpt>
      <trkpt lat="42.63648" lon="1.96198">
        <ele>1965.9</ele>
        <time>2021-08-02T11:45:57.000Z</time>
      </trkpt>
      <trkpt lat="42.63648" lon="1.96197">
        <ele>1965.4</ele>
        <time>2021-08-02T11:46:03.000Z</time>
      </trkpt>
      <trkpt lat="42.63654" lon="1.96189">
        <ele>1961.9</ele>
        <time>2021-08-02T11:46:22.000Z</time>
      </trkpt>
      <trkpt lat="42.63658" lon="1.96176">
        <ele>1961.7</ele>
        <time>2021-08-02T11:46:33.000Z</time>
      </trkpt>
      <trkpt lat="42.63663" lon="1.96166">
        <ele>1960.1</ele>
        <time>2021-08-02T11:46:48.000Z</time>
      </trkpt>
      <trkpt lat="42.6367" lon="1.96158">
        <ele>1957.7</ele>
        <time>2021-08-02T11:47:07.000Z</time>
      </trkpt>
      <trkpt lat="42.63676" lon="1.9615">
        <ele>1956.5</ele>
        <time>2021-08-02T11:47:20.000Z</time>
      </trkpt>
      <trkpt lat="42.63676" lon="1.9615">
        <ele>1956.6</ele>
        <time>2021-08-02T11:47:56.000Z</time>
      </trkpt>
      <trkpt lat="42.63681" lon="1.96138">
        <ele>1953.2</ele>
        <time>2021-08-02T11:48:11.000Z</time>
      </trkpt>
      <trkpt lat="42.63682" lon="1.96136">
        <ele>1952.5</ele>
        <time>2021-08-02T11:48:16.000Z</time>
      </trkpt>
      <trkpt lat="42.63682" lon="1.96136">
        <ele>1952.5</ele>
        <time>2021-08-02T11:48:24.000Z</time>
      </trkpt>
      <trkpt lat="42.63683" lon="1.96123">
        <ele>1951.3</ele>
        <time>2021-08-02T11:48:36.000Z</time>
      </trkpt>
      <trkpt lat="42.63679" lon="1.96111">
        <ele>1949.3</ele>
        <time>2021-08-02T11:48:52.000Z</time>
      </trkpt>
      <trkpt lat="42.63679" lon="1.96099">
        <ele>1946.9</ele>
        <time>2021-08-02T11:49:09.000Z</time>
      </trkpt>
      <trkpt lat="42.63685" lon="1.9609">
        <ele>1941.9</ele>
        <time>2021-08-02T11:49:36.000Z</time>
      </trkpt>
      <trkpt lat="42.63684" lon="1.96078">
        <ele>1940</ele>
        <time>2021-08-02T11:49:48.000Z</time>
      </trkpt>
      <trkpt lat="42.63686" lon="1.96065">
        <ele>1938.3</ele>
        <time>2021-08-02T11:50:03.000Z</time>
      </trkpt>
      <trkpt lat="42.63687" lon="1.96052">
        <ele>1938.5</ele>
        <time>2021-08-02T11:50:17.000Z</time>
      </trkpt>
      <trkpt lat="42.6369" lon="1.9604">
        <ele>1938.7</ele>
        <time>2021-08-02T11:50:28.000Z</time>
      </trkpt>
      <trkpt lat="42.63692" lon="1.96027">
        <ele>1938.7</ele>
        <time>2021-08-02T11:50:41.000Z</time>
      </trkpt>
      <trkpt lat="42.63695" lon="1.96014">
        <ele>1938.1</ele>
        <time>2021-08-02T11:50:53.000Z</time>
      </trkpt>
      <trkpt lat="42.63699" lon="1.96003">
        <ele>1938.2</ele>
        <time>2021-08-02T11:51:01.000Z</time>
      </trkpt>
      <trkpt lat="42.63704" lon="1.95992">
        <ele>1938.3</ele>
        <time>2021-08-02T11:51:09.000Z</time>
      </trkpt>
      <trkpt lat="42.63708" lon="1.95981">
        <ele>1938</ele>
        <time>2021-08-02T11:51:17.000Z</time>
      </trkpt>
      <trkpt lat="42.6371" lon="1.95969">
        <ele>1938</ele>
        <time>2021-08-02T11:51:25.000Z</time>
      </trkpt>
      <trkpt lat="42.63713" lon="1.95956">
        <ele>1937.9</ele>
        <time>2021-08-02T11:51:34.000Z</time>
      </trkpt>
      <trkpt lat="42.63717" lon="1.95944">
        <ele>1938.4</ele>
        <time>2021-08-02T11:51:44.000Z</time>
      </trkpt>
      <trkpt lat="42.63717" lon="1.95931">
        <ele>1939.4</ele>
        <time>2021-08-02T11:51:56.000Z</time>
      </trkpt>
      <trkpt lat="42.63714" lon="1.95918">
        <ele>1942.2</ele>
        <time>2021-08-02T11:52:11.000Z</time>
      </trkpt>
      <trkpt lat="42.63713" lon="1.95906">
        <ele>1941.8</ele>
        <time>2021-08-02T11:52:23.000Z</time>
      </trkpt>
      <trkpt lat="42.63708" lon="1.95895">
        <ele>1939.5</ele>
        <time>2021-08-02T11:52:40.000Z</time>
      </trkpt>
      <trkpt lat="42.63707" lon="1.95887">
        <ele>1936.4</ele>
        <time>2021-08-02T11:52:59.000Z</time>
      </trkpt>
      <trkpt lat="42.63706" lon="1.95887">
        <ele>1936.2</ele>
        <time>2021-08-02T11:53:00.000Z</time>
      </trkpt>
      <trkpt lat="42.63706" lon="1.95888">
        <ele>1936</ele>
        <time>2021-08-02T11:53:04.000Z</time>
      </trkpt>
      <trkpt lat="42.63706" lon="1.95888">
        <ele>1935.5</ele>
        <time>2021-08-02T11:53:17.000Z</time>
      </trkpt>
      <trkpt lat="42.63702" lon="1.95879">
        <ele>1930.6</ele>
        <time>2021-08-02T11:53:39.000Z</time>
      </trkpt>
      <trkpt lat="42.63702" lon="1.95878">
        <ele>1930.3</ele>
        <time>2021-08-02T11:53:41.000Z</time>
      </trkpt>
      <trkpt lat="42.63697" lon="1.95867">
        <ele>1927.7</ele>
        <time>2021-08-02T11:53:52.000Z</time>
      </trkpt>
      <trkpt lat="42.63693" lon="1.95855">
        <ele>1927.3</ele>
        <time>2021-08-02T11:54:01.000Z</time>
      </trkpt>
      <trkpt lat="42.6369" lon="1.95842">
        <ele>1927.5</ele>
        <time>2021-08-02T11:54:10.000Z</time>
      </trkpt>
      <trkpt lat="42.63689" lon="1.95829">
        <ele>1928.4</ele>
        <time>2021-08-02T11:54:20.000Z</time>
      </trkpt>
      <trkpt lat="42.63689" lon="1.95824">
        <ele>1929.8</ele>
        <time>2021-08-02T11:54:27.000Z</time>
      </trkpt>
      <trkpt lat="42.63689" lon="1.95824">
        <ele>1929.7</ele>
        <time>2021-08-02T11:54:28.000Z</time>
      </trkpt>
      <trkpt lat="42.63689" lon="1.95824">
        <ele>1929.6</ele>
        <time>2021-08-02T11:54:29.000Z</time>
      </trkpt>
      <trkpt lat="42.63689" lon="1.95824">
        <ele>1930</ele>
        <time>2021-08-02T11:54:45.000Z</time>
      </trkpt>
      <trkpt lat="42.63693" lon="1.95812">
        <ele>1931.6</ele>
        <time>2021-08-02T11:54:57.000Z</time>
      </trkpt>
      <trkpt lat="42.63693" lon="1.95799">
        <ele>1932.6</ele>
        <time>2021-08-02T11:55:07.000Z</time>
      </trkpt>
      <trkpt lat="42.6369" lon="1.95787">
        <ele>1933.3</ele>
        <time>2021-08-02T11:55:17.000Z</time>
      </trkpt>
      <trkpt lat="42.63684" lon="1.95777">
        <ele>1933.5</ele>
        <time>2021-08-02T11:55:26.000Z</time>
      </trkpt>
      <trkpt lat="42.63676" lon="1.9577">
        <ele>1932.3</ele>
        <time>2021-08-02T11:55:36.000Z</time>
      </trkpt>
      <trkpt lat="42.63667" lon="1.95766">
        <ele>1934.6</ele>
        <time>2021-08-02T11:55:50.000Z</time>
      </trkpt>
      <trkpt lat="42.63661" lon="1.95757">
        <ele>1935</ele>
        <time>2021-08-02T11:56:05.000Z</time>
      </trkpt>
      <trkpt lat="42.63663" lon="1.95744">
        <ele>1930.1</ele>
        <time>2021-08-02T11:56:29.000Z</time>
      </trkpt>
      <trkpt lat="42.6366" lon="1.95732">
        <ele>1928.1</ele>
        <time>2021-08-02T11:56:41.000Z</time>
      </trkpt>
      <trkpt lat="42.63657" lon="1.9572">
        <ele>1925.6</ele>
        <time>2021-08-02T11:56:53.000Z</time>
      </trkpt>
      <trkpt lat="42.63651" lon="1.95711">
        <ele>1923.7</ele>
        <time>2021-08-02T11:57:05.000Z</time>
      </trkpt>
      <trkpt lat="42.63644" lon="1.95701">
        <ele>1920.8</ele>
        <time>2021-08-02T11:57:19.000Z</time>
      </trkpt>
      <trkpt lat="42.6364" lon="1.95691">
        <ele>1918.3</ele>
        <time>2021-08-02T11:57:33.000Z</time>
      </trkpt>
      <trkpt lat="42.63637" lon="1.95679">
        <ele>1916.8</ele>
        <time>2021-08-02T11:57:45.000Z</time>
      </trkpt>
      <trkpt lat="42.63636" lon="1.95666">
        <ele>1916.1</ele>
        <time>2021-08-02T11:57:57.000Z</time>
      </trkpt>
      <trkpt lat="42.63635" lon="1.95653">
        <ele>1915.7</ele>
        <time>2021-08-02T11:58:07.000Z</time>
      </trkpt>
      <trkpt lat="42.63631" lon="1.9564">
        <ele>1915.1</ele>
        <time>2021-08-02T11:58:18.000Z</time>
      </trkpt>
      <trkpt lat="42.63626" lon="1.9563">
        <ele>1916.3</ele>
        <time>2021-08-02T11:58:29.000Z</time>
      </trkpt>
      <trkpt lat="42.6362" lon="1.95618">
        <ele>1916.8</ele>
        <time>2021-08-02T11:58:39.000Z</time>
      </trkpt>
      <trkpt lat="42.63615" lon="1.95609">
        <ele>1916.2</ele>
        <time>2021-08-02T11:58:49.000Z</time>
      </trkpt>
      <trkpt lat="42.6361" lon="1.95598">
        <ele>1915.6</ele>
        <time>2021-08-02T11:58:58.000Z</time>
      </trkpt>
      <trkpt lat="42.63604" lon="1.95588">
        <ele>1916.3</ele>
        <time>2021-08-02T11:59:07.000Z</time>
      </trkpt>
      <trkpt lat="42.63598" lon="1.95579">
        <ele>1915.6</ele>
        <time>2021-08-02T11:59:17.000Z</time>
      </trkpt>
      <trkpt lat="42.63593" lon="1.95568">
        <ele>1914.7</ele>
        <time>2021-08-02T11:59:26.000Z</time>
      </trkpt>
      <trkpt lat="42.63587" lon="1.95559">
        <ele>1914.2</ele>
        <time>2021-08-02T11:59:35.000Z</time>
      </trkpt>
      <trkpt lat="42.6358" lon="1.95551">
        <ele>1915.4</ele>
        <time>2021-08-02T11:59:45.000Z</time>
      </trkpt>
      <trkpt lat="42.63572" lon="1.95544">
        <ele>1917</ele>
        <time>2021-08-02T11:59:56.000Z</time>
      </trkpt>
      <trkpt lat="42.63564" lon="1.95536">
        <ele>1918</ele>
        <time>2021-08-02T12:00:06.000Z</time>
      </trkpt>
      <trkpt lat="42.63556" lon="1.9553">
        <ele>1919.7</ele>
        <time>2021-08-02T12:00:17.000Z</time>
      </trkpt>
      <trkpt lat="42.63552" lon="1.95519">
        <ele>1917</ele>
        <time>2021-08-02T12:00:31.000Z</time>
      </trkpt>
      <trkpt lat="42.63546" lon="1.95509">
        <ele>1914.5</ele>
        <time>2021-08-02T12:00:44.000Z</time>
      </trkpt>
      <trkpt lat="42.63539" lon="1.955">
        <ele>1912.9</ele>
        <time>2021-08-02T12:00:54.000Z</time>
      </trkpt>
      <trkpt lat="42.63532" lon="1.9549">
        <ele>1911.2</ele>
        <time>2021-08-02T12:01:04.000Z</time>
      </trkpt>
      <trkpt lat="42.63527" lon="1.95487">
        <ele>1910.7</ele>
        <time>2021-08-02T12:01:11.000Z</time>
      </trkpt>
      <trkpt lat="42.63527" lon="1.95487">
        <ele>1910.4</ele>
        <time>2021-08-02T12:01:12.000Z</time>
      </trkpt>
      <trkpt lat="42.63521" lon="1.95476">
        <ele>1908.2</ele>
        <time>2021-08-02T12:01:25.000Z</time>
      </trkpt>
      <trkpt lat="42.63515" lon="1.95466">
        <ele>1906.1</ele>
        <time>2021-08-02T12:01:35.000Z</time>
      </trkpt>
      <trkpt lat="42.63509" lon="1.95458">
        <ele>1904.3</ele>
        <time>2021-08-02T12:01:44.000Z</time>
      </trkpt>
      <trkpt lat="42.63502" lon="1.95449">
        <ele>1904</ele>
        <time>2021-08-02T12:01:53.000Z</time>
      </trkpt>
      <trkpt lat="42.63497" lon="1.95438">
        <ele>1901.2</ele>
        <time>2021-08-02T12:02:05.000Z</time>
      </trkpt>
      <trkpt lat="42.6349" lon="1.95429">
        <ele>1898.7</ele>
        <time>2021-08-02T12:02:16.000Z</time>
      </trkpt>
      <trkpt lat="42.63484" lon="1.9542">
        <ele>1897.7</ele>
        <time>2021-08-02T12:02:25.000Z</time>
      </trkpt>
      <trkpt lat="42.63476" lon="1.95413">
        <ele>1897.8</ele>
        <time>2021-08-02T12:02:34.000Z</time>
      </trkpt>
      <trkpt lat="42.63469" lon="1.95404">
        <ele>1898</ele>
        <time>2021-08-02T12:02:44.000Z</time>
      </trkpt>
      <trkpt lat="42.63468" lon="1.95404">
        <ele>1898.3</ele>
        <time>2021-08-02T12:02:48.000Z</time>
      </trkpt>
      <trkpt lat="42.63468" lon="1.95403">
        <ele>1898.2</ele>
        <time>2021-08-02T12:03:03.000Z</time>
      </trkpt>
      <trkpt lat="42.63458" lon="1.95401">
        <ele>1896.9</ele>
        <time>2021-08-02T12:03:13.000Z</time>
      </trkpt>
      <trkpt lat="42.6345" lon="1.95393">
        <ele>1897.4</ele>
        <time>2021-08-02T12:03:21.000Z</time>
      </trkpt>
      <trkpt lat="42.63442" lon="1.95388">
        <ele>1899</ele>
        <time>2021-08-02T12:03:30.000Z</time>
      </trkpt>
      <trkpt lat="42.63434" lon="1.95381">
        <ele>1900.7</ele>
        <time>2021-08-02T12:03:42.000Z</time>
      </trkpt>
      <trkpt lat="42.63427" lon="1.95372">
        <ele>1903.1</ele>
        <time>2021-08-02T12:03:56.000Z</time>
      </trkpt>
      <trkpt lat="42.63421" lon="1.95368">
        <ele>1903.2</ele>
        <time>2021-08-02T12:04:05.000Z</time>
      </trkpt>
      <trkpt lat="42.63421" lon="1.95367">
        <ele>1903.2</ele>
        <time>2021-08-02T12:04:40.000Z</time>
      </trkpt>
      <trkpt lat="42.63413" lon="1.95362">
        <ele>1902</ele>
        <time>2021-08-02T12:04:53.000Z</time>
      </trkpt>
      <trkpt lat="42.63407" lon="1.95358">
        <ele>1902.3</ele>
        <time>2021-08-02T12:05:05.000Z</time>
      </trkpt>
      <trkpt lat="42.63407" lon="1.95358">
        <ele>1902.4</ele>
        <time>2021-08-02T12:05:06.000Z</time>
      </trkpt>
      <trkpt lat="42.63399" lon="1.95353">
        <ele>1905.2</ele>
        <time>2021-08-02T12:05:22.000Z</time>
      </trkpt>
      <trkpt lat="42.63396" lon="1.9535">
        <ele>1906.1</ele>
        <time>2021-08-02T12:05:31.000Z</time>
      </trkpt>
      <trkpt lat="42.63396" lon="1.95349">
        <ele>1906.3</ele>
        <time>2021-08-02T12:05:32.000Z</time>
      </trkpt>
      <trkpt lat="42.63388" lon="1.95343">
        <ele>1908.9</ele>
        <time>2021-08-02T12:05:46.000Z</time>
      </trkpt>
      <trkpt lat="42.63383" lon="1.95332">
        <ele>1909.2</ele>
        <time>2021-08-02T12:05:59.000Z</time>
      </trkpt>
      <trkpt lat="42.63381" lon="1.95326">
        <ele>1908.8</ele>
        <time>2021-08-02T12:06:15.000Z</time>
      </trkpt>
      <trkpt lat="42.6338" lon="1.95326">
        <ele>1908.7</ele>
        <time>2021-08-02T12:06:23.000Z</time>
      </trkpt>
      <trkpt lat="42.63372" lon="1.95321">
        <ele>1907.3</ele>
        <time>2021-08-02T12:06:43.000Z</time>
      </trkpt>
      <trkpt lat="42.63371" lon="1.9532">
        <ele>1907.2</ele>
        <time>2021-08-02T12:06:47.000Z</time>
      </trkpt>
      <trkpt lat="42.6337" lon="1.9532">
        <ele>1907.4</ele>
        <time>2021-08-02T12:06:54.000Z</time>
      </trkpt>
      <trkpt lat="42.63362" lon="1.95313">
        <ele>1906.7</ele>
        <time>2021-08-02T12:07:06.000Z</time>
      </trkpt>
      <trkpt lat="42.63355" lon="1.95305">
        <ele>1905.1</ele>
        <time>2021-08-02T12:07:18.000Z</time>
      </trkpt>
      <trkpt lat="42.63346" lon="1.95299">
        <ele>1903.8</ele>
        <time>2021-08-02T12:07:30.000Z</time>
      </trkpt>
      <trkpt lat="42.6334" lon="1.95291">
        <ele>1902.6</ele>
        <time>2021-08-02T12:07:45.000Z</time>
      </trkpt>
      <trkpt lat="42.63339" lon="1.95291">
        <ele>1902.5</ele>
        <time>2021-08-02T12:07:46.000Z</time>
      </trkpt>
      <trkpt lat="42.63331" lon="1.95284">
        <ele>1899.2</ele>
        <time>2021-08-02T12:08:03.000Z</time>
      </trkpt>
      <trkpt lat="42.63323" lon="1.95281">
        <ele>1896.2</ele>
        <time>2021-08-02T12:08:18.000Z</time>
      </trkpt>
      <trkpt lat="42.63314" lon="1.95277">
        <ele>1894.6</ele>
        <time>2021-08-02T12:08:30.000Z</time>
      </trkpt>
      <trkpt lat="42.63305" lon="1.95276">
        <ele>1893.9</ele>
        <time>2021-08-02T12:08:40.000Z</time>
      </trkpt>
      <trkpt lat="42.63296" lon="1.95273">
        <ele>1893.3</ele>
        <time>2021-08-02T12:08:49.000Z</time>
      </trkpt>
      <trkpt lat="42.63291" lon="1.95271">
        <ele>1893.8</ele>
        <time>2021-08-02T12:08:57.000Z</time>
      </trkpt>
      <trkpt lat="42.6329" lon="1.95271">
        <ele>1894</ele>
        <time>2021-08-02T12:08:58.000Z</time>
      </trkpt>
      <trkpt lat="42.63282" lon="1.95267">
        <ele>1895.9</ele>
        <time>2021-08-02T12:09:10.000Z</time>
      </trkpt>
      <trkpt lat="42.63277" lon="1.95267">
        <ele>1899</ele>
        <time>2021-08-02T12:09:34.000Z</time>
      </trkpt>
      <trkpt lat="42.63277" lon="1.95267">
        <ele>1899.3</ele>
        <time>2021-08-02T12:09:39.000Z</time>
      </trkpt>
      <trkpt lat="42.63268" lon="1.95272">
        <ele>1903</ele>
        <time>2021-08-02T12:10:02.000Z</time>
      </trkpt>
      <trkpt lat="42.63259" lon="1.95274">
        <ele>1904.8</ele>
        <time>2021-08-02T12:10:15.000Z</time>
      </trkpt>
      <trkpt lat="42.63249" lon="1.95271">
        <ele>1906.1</ele>
        <time>2021-08-02T12:10:27.000Z</time>
      </trkpt>
      <trkpt lat="42.63239" lon="1.95271">
        <ele>1908.1</ele>
        <time>2021-08-02T12:10:40.000Z</time>
      </trkpt>
      <trkpt lat="42.63235" lon="1.95269">
        <ele>1908.7</ele>
        <time>2021-08-02T12:10:48.000Z</time>
      </trkpt>
      <trkpt lat="42.63235" lon="1.95269">
        <ele>1908.5</ele>
        <time>2021-08-02T12:10:50.000Z</time>
      </trkpt>
      <trkpt lat="42.63234" lon="1.95268">
        <ele>1908.6</ele>
        <time>2021-08-02T12:10:54.000Z</time>
      </trkpt>
      <trkpt lat="42.63234" lon="1.95268">
        <ele>1908.8</ele>
        <time>2021-08-02T12:10:55.000Z</time>
      </trkpt>
      <trkpt lat="42.63226" lon="1.95265">
        <ele>1908.8</ele>
        <time>2021-08-02T12:11:15.000Z</time>
      </trkpt>
      <trkpt lat="42.63226" lon="1.95265">
        <ele>1909</ele>
        <time>2021-08-02T12:11:18.000Z</time>
      </trkpt>
      <trkpt lat="42.63217" lon="1.95261">
        <ele>1909.8</ele>
        <time>2021-08-02T12:11:34.000Z</time>
      </trkpt>
      <trkpt lat="42.63208" lon="1.95257">
        <ele>1910.8</ele>
        <time>2021-08-02T12:11:45.000Z</time>
      </trkpt>
      <trkpt lat="42.632" lon="1.95251">
        <ele>1910.9</ele>
        <time>2021-08-02T12:11:57.000Z</time>
      </trkpt>
      <trkpt lat="42.6319" lon="1.95247">
        <ele>1911.6</ele>
        <time>2021-08-02T12:12:07.000Z</time>
      </trkpt>
      <trkpt lat="42.63188" lon="1.95245">
        <ele>1912.3</ele>
        <time>2021-08-02T12:12:12.000Z</time>
      </trkpt>
      <trkpt lat="42.63188" lon="1.95245">
        <ele>1912.2</ele>
        <time>2021-08-02T12:12:14.000Z</time>
      </trkpt>
      <trkpt lat="42.63188" lon="1.95245">
        <ele>1912.2</ele>
        <time>2021-08-02T12:12:15.000Z</time>
      </trkpt>
      <trkpt lat="42.63188" lon="1.95245">
        <ele>1912.3</ele>
        <time>2021-08-02T12:12:21.000Z</time>
      </trkpt>
      <trkpt lat="42.63187" lon="1.95245">
        <ele>1912.3</ele>
        <time>2021-08-02T12:12:24.000Z</time>
      </trkpt>
      <trkpt lat="42.63187" lon="1.95245">
        <ele>1912.4</ele>
        <time>2021-08-02T12:13:02.000Z</time>
      </trkpt>
      <trkpt lat="42.63187" lon="1.95245">
        <ele>1912.5</ele>
        <time>2021-08-02T12:13:03.000Z</time>
      </trkpt>
      <trkpt lat="42.63187" lon="1.95244">
        <ele>1912.6</ele>
        <time>2021-08-02T12:14:27.000Z</time>
      </trkpt>
      <trkpt lat="42.63187" lon="1.95244">
        <ele>1912.6</ele>
        <time>2021-08-02T12:14:28.000Z</time>
      </trkpt>
      <trkpt lat="42.63187" lon="1.95244">
        <ele>1912.4</ele>
        <time>2021-08-02T12:14:43.000Z</time>
      </trkpt>
      <trkpt lat="42.63187" lon="1.95244">
        <ele>1912.4</ele>
        <time>2021-08-02T12:14:44.000Z</time>
      </trkpt>
      <trkpt lat="42.63187" lon="1.95243">
        <ele>1912.4</ele>
        <time>2021-08-02T12:14:52.000Z</time>
      </trkpt>
      <trkpt lat="42.63187" lon="1.95243">
        <ele>1912.4</ele>
        <time>2021-08-02T12:14:53.000Z</time>
      </trkpt>
      <trkpt lat="42.63187" lon="1.95243">
        <ele>1912.2</ele>
        <time>2021-08-02T12:15:05.000Z</time>
      </trkpt>
      <trkpt lat="42.63187" lon="1.95243">
        <ele>1912.3</ele>
        <time>2021-08-02T12:15:06.000Z</time>
      </trkpt>
      <trkpt lat="42.63187" lon="1.95243">
        <ele>1912.3</ele>
        <time>2021-08-02T12:15:09.000Z</time>
      </trkpt>
      <trkpt lat="42.63179" lon="1.95236">
        <ele>1913.1</ele>
        <time>2021-08-02T12:15:19.000Z</time>
      </trkpt>
      <trkpt lat="42.63177" lon="1.95234">
        <ele>1912.8</ele>
        <time>2021-08-02T12:15:24.000Z</time>
      </trkpt>
      <trkpt lat="42.63177" lon="1.95234">
        <ele>1912.8</ele>
        <time>2021-08-02T12:15:29.000Z</time>
      </trkpt>
      <trkpt lat="42.63177" lon="1.95234">
        <ele>1912.8</ele>
        <time>2021-08-02T12:15:30.000Z</time>
      </trkpt>
      <trkpt lat="42.63176" lon="1.95234">
        <ele>1912.7</ele>
        <time>2021-08-02T12:15:31.000Z</time>
      </trkpt>
      <trkpt lat="42.63167" lon="1.95229">
        <ele>1914.4</ele>
        <time>2021-08-02T12:15:42.000Z</time>
      </trkpt>
      <trkpt lat="42.63159" lon="1.95223">
        <ele>1915</ele>
        <time>2021-08-02T12:15:51.000Z</time>
      </trkpt>
      <trkpt lat="42.63151" lon="1.95216">
        <ele>1915.7</ele>
        <time>2021-08-02T12:16:00.000Z</time>
      </trkpt>
      <trkpt lat="42.63143" lon="1.95209">
        <ele>1916</ele>
        <time>2021-08-02T12:16:10.000Z</time>
      </trkpt>
      <trkpt lat="42.63134" lon="1.95204">
        <ele>1917.6</ele>
        <time>2021-08-02T12:16:21.000Z</time>
      </trkpt>
      <trkpt lat="42.63126" lon="1.95197">
        <ele>1918.8</ele>
        <time>2021-08-02T12:16:33.000Z</time>
      </trkpt>
      <trkpt lat="42.63117" lon="1.95193">
        <ele>1920.8</ele>
        <time>2021-08-02T12:16:46.000Z</time>
      </trkpt>
      <trkpt lat="42.63109" lon="1.95186">
        <ele>1920.8</ele>
        <time>2021-08-02T12:16:57.000Z</time>
      </trkpt>
      <trkpt lat="42.63101" lon="1.95178">
        <ele>1920.5</ele>
        <time>2021-08-02T12:17:07.000Z</time>
      </trkpt>
      <trkpt lat="42.63093" lon="1.95171">
        <ele>1919.3</ele>
        <time>2021-08-02T12:17:17.000Z</time>
      </trkpt>
      <trkpt lat="42.63087" lon="1.95162">
        <ele>1918.2</ele>
        <time>2021-08-02T12:17:27.000Z</time>
      </trkpt>
      <trkpt lat="42.63084" lon="1.95157">
        <ele>1918.3</ele>
        <time>2021-08-02T12:17:35.000Z</time>
      </trkpt>
      <trkpt lat="42.63084" lon="1.95157">
        <ele>1918.1</ele>
        <time>2021-08-02T12:18:01.000Z</time>
      </trkpt>
      <trkpt lat="42.63078" lon="1.95146">
        <ele>1917.4</ele>
        <time>2021-08-02T12:18:12.000Z</time>
      </trkpt>
      <trkpt lat="42.63073" lon="1.95135">
        <ele>1915.9</ele>
        <time>2021-08-02T12:18:21.000Z</time>
      </trkpt>
      <trkpt lat="42.63067" lon="1.95126">
        <ele>1916.8</ele>
        <time>2021-08-02T12:18:34.000Z</time>
      </trkpt>
      <trkpt lat="42.63059" lon="1.95121">
        <ele>1919.1</ele>
        <time>2021-08-02T12:18:49.000Z</time>
      </trkpt>
      <trkpt lat="42.63049" lon="1.95119">
        <ele>1922.2</ele>
        <time>2021-08-02T12:19:09.000Z</time>
      </trkpt>
      <trkpt lat="42.63041" lon="1.95113">
        <ele>1923.5</ele>
        <time>2021-08-02T12:19:23.000Z</time>
      </trkpt>
      <trkpt lat="42.63032" lon="1.95109">
        <ele>1926</ele>
        <time>2021-08-02T12:19:41.000Z</time>
      </trkpt>
      <trkpt lat="42.63024" lon="1.95102">
        <ele>1926.9</ele>
        <time>2021-08-02T12:19:58.000Z</time>
      </trkpt>
      <trkpt lat="42.63017" lon="1.95093">
        <ele>1927.9</ele>
        <time>2021-08-02T12:20:17.000Z</time>
      </trkpt>
      <trkpt lat="42.63011" lon="1.95084">
        <ele>1929.1</ele>
        <time>2021-08-02T12:20:30.000Z</time>
      </trkpt>
      <trkpt lat="42.63003" lon="1.95079">
        <ele>1931.7</ele>
        <time>2021-08-02T12:20:49.000Z</time>
      </trkpt>
      <trkpt lat="42.62994" lon="1.95078">
        <ele>1935.1</ele>
        <time>2021-08-02T12:21:10.000Z</time>
      </trkpt>
      <trkpt lat="42.62985" lon="1.95075">
        <ele>1938.1</ele>
        <time>2021-08-02T12:21:31.000Z</time>
      </trkpt>
      <trkpt lat="42.62982" lon="1.95075">
        <ele>1939</ele>
        <time>2021-08-02T12:21:38.000Z</time>
      </trkpt>
      <trkpt lat="42.62982" lon="1.95075">
        <ele>1939.1</ele>
        <time>2021-08-02T12:21:42.000Z</time>
      </trkpt>
      <trkpt lat="42.62974" lon="1.95082">
        <ele>1943</ele>
        <time>2021-08-02T12:22:13.000Z</time>
      </trkpt>
      <trkpt lat="42.62965" lon="1.9508">
        <ele>1945.4</ele>
        <time>2021-08-02T12:22:32.000Z</time>
      </trkpt>
      <trkpt lat="42.62957" lon="1.95072">
        <ele>1945.6</ele>
        <time>2021-08-02T12:22:45.000Z</time>
      </trkpt>
      <trkpt lat="42.62948" lon="1.95072">
        <ele>1946.9</ele>
        <time>2021-08-02T12:22:57.000Z</time>
      </trkpt>
      <trkpt lat="42.62939" lon="1.95071">
        <ele>1948.7</ele>
        <time>2021-08-02T12:23:13.000Z</time>
      </trkpt>
      <trkpt lat="42.62929" lon="1.95071">
        <ele>1950.3</ele>
        <time>2021-08-02T12:23:28.000Z</time>
      </trkpt>
      <trkpt lat="42.6292" lon="1.95067">
        <ele>1952.3</ele>
        <time>2021-08-02T12:23:42.000Z</time>
      </trkpt>
      <trkpt lat="42.62911" lon="1.95068">
        <ele>1954.4</ele>
        <time>2021-08-02T12:23:58.000Z</time>
      </trkpt>
      <trkpt lat="42.62902" lon="1.95069">
        <ele>1955</ele>
        <time>2021-08-02T12:24:11.000Z</time>
      </trkpt>
      <trkpt lat="42.62892" lon="1.95067">
        <ele>1954.9</ele>
        <time>2021-08-02T12:24:25.000Z</time>
      </trkpt>
      <trkpt lat="42.62883" lon="1.95066">
        <ele>1956.9</ele>
        <time>2021-08-02T12:24:40.000Z</time>
      </trkpt>
      <trkpt lat="42.62874" lon="1.95065">
        <ele>1958.6</ele>
        <time>2021-08-02T12:24:57.000Z</time>
      </trkpt>
      <trkpt lat="42.62866" lon="1.95058">
        <ele>1959.1</ele>
        <time>2021-08-02T12:25:11.000Z</time>
      </trkpt>
      <trkpt lat="42.6286" lon="1.95049">
        <ele>1958.1</ele>
        <time>2021-08-02T12:25:25.000Z</time>
      </trkpt>
      <trkpt lat="42.62859" lon="1.95046">
        <ele>1957.4</ele>
        <time>2021-08-02T12:25:30.000Z</time>
      </trkpt>
      <trkpt lat="42.62859" lon="1.95046">
        <ele>1957.3</ele>
        <time>2021-08-02T12:25:33.000Z</time>
      </trkpt>
      <trkpt lat="42.62859" lon="1.95046">
        <ele>1957.3</ele>
        <time>2021-08-02T12:25:35.000Z</time>
      </trkpt>
      <trkpt lat="42.62859" lon="1.95046">
        <ele>1957.2</ele>
        <time>2021-08-02T12:25:39.000Z</time>
      </trkpt>
      <trkpt lat="42.62859" lon="1.95046">
        <ele>1957.5</ele>
        <time>2021-08-02T12:25:40.000Z</time>
      </trkpt>
      <trkpt lat="42.62859" lon="1.95046">
        <ele>1957.4</ele>
        <time>2021-08-02T12:26:11.000Z</time>
      </trkpt>
      <trkpt lat="42.62859" lon="1.95048">
        <ele>1957.7</ele>
        <time>2021-08-02T12:26:15.000Z</time>
      </trkpt>
      <trkpt lat="42.62859" lon="1.95048">
        <ele>1957.5</ele>
        <time>2021-08-02T12:27:01.000Z</time>
      </trkpt>
      <trkpt lat="42.62859" lon="1.95048">
        <ele>1957.3</ele>
        <time>2021-08-02T12:27:02.000Z</time>
      </trkpt>
      <trkpt lat="42.62859" lon="1.95047">
        <ele>1957.3</ele>
        <time>2021-08-02T12:30:59.000Z</time>
      </trkpt>
      <trkpt lat="42.62852" lon="1.95039">
        <ele>1957.7</ele>
        <time>2021-08-02T12:31:11.000Z</time>
      </trkpt>
      <trkpt lat="42.62844" lon="1.95033">
        <ele>1960.5</ele>
        <time>2021-08-02T12:31:30.000Z</time>
      </trkpt>
      <trkpt lat="42.62837" lon="1.95025">
        <ele>1962.6</ele>
        <time>2021-08-02T12:31:45.000Z</time>
      </trkpt>
      <trkpt lat="42.6283" lon="1.95017">
        <ele>1966.5</ele>
        <time>2021-08-02T12:32:10.000Z</time>
      </trkpt>
      <trkpt lat="42.62824" lon="1.95013">
        <ele>1968.7</ele>
        <time>2021-08-02T12:32:28.000Z</time>
      </trkpt>
      <trkpt lat="42.62824" lon="1.95013">
        <ele>1968.8</ele>
        <time>2021-08-02T12:32:30.000Z</time>
      </trkpt>
      <trkpt lat="42.62823" lon="1.95021">
        <ele>1971.7</ele>
        <time>2021-08-02T12:32:50.000Z</time>
      </trkpt>
      <trkpt lat="42.62823" lon="1.95021">
        <ele>1971.7</ele>
        <time>2021-08-02T12:32:51.000Z</time>
      </trkpt>
      <trkpt lat="42.62823" lon="1.95021">
        <ele>1971.6</ele>
        <time>2021-08-02T12:32:52.000Z</time>
      </trkpt>
      <trkpt lat="42.62823" lon="1.95021">
        <ele>1971.5</ele>
        <time>2021-08-02T12:32:57.000Z</time>
      </trkpt>
      <trkpt lat="42.62815" lon="1.95017">
        <ele>1974.4</ele>
        <time>2021-08-02T12:33:16.000Z</time>
      </trkpt>
      <trkpt lat="42.62808" lon="1.95008">
        <ele>1977.6</ele>
        <time>2021-08-02T12:33:33.000Z</time>
      </trkpt>
      <trkpt lat="42.62807" lon="1.95006">
        <ele>1977.9</ele>
        <time>2021-08-02T12:33:38.000Z</time>
      </trkpt>
      <trkpt lat="42.62807" lon="1.95006">
        <ele>1977.9</ele>
        <time>2021-08-02T12:33:40.000Z</time>
      </trkpt>
      <trkpt lat="42.62805" lon="1.94994">
        <ele>1977.6</ele>
        <time>2021-08-02T12:33:54.000Z</time>
      </trkpt>
      <trkpt lat="42.62803" lon="1.94981">
        <ele>1977.4</ele>
        <time>2021-08-02T12:34:06.000Z</time>
      </trkpt>
      <trkpt lat="42.62801" lon="1.94967">
        <ele>1977.3</ele>
        <time>2021-08-02T12:34:15.000Z</time>
      </trkpt>
      <trkpt lat="42.62798" lon="1.94955">
        <ele>1977.5</ele>
        <time>2021-08-02T12:34:24.000Z</time>
      </trkpt>
      <trkpt lat="42.62794" lon="1.94943">
        <ele>1977.1</ele>
        <time>2021-08-02T12:34:34.000Z</time>
      </trkpt>
      <trkpt lat="42.6279" lon="1.94931">
        <ele>1977.1</ele>
        <time>2021-08-02T12:34:43.000Z</time>
      </trkpt>
      <trkpt lat="42.6279" lon="1.9493">
        <ele>1976.9</ele>
        <time>2021-08-02T12:34:46.000Z</time>
      </trkpt>
      <trkpt lat="42.62789" lon="1.94929">
        <ele>1977</ele>
        <time>2021-08-02T12:34:53.000Z</time>
      </trkpt>
      <trkpt lat="42.62786" lon="1.94917">
        <ele>1977</ele>
        <time>2021-08-02T12:35:01.000Z</time>
      </trkpt>
      <trkpt lat="42.62785" lon="1.94904">
        <ele>1977</ele>
        <time>2021-08-02T12:35:10.000Z</time>
      </trkpt>
      <trkpt lat="42.62782" lon="1.94891">
        <ele>1976.8</ele>
        <time>2021-08-02T12:35:19.000Z</time>
      </trkpt>
      <trkpt lat="42.6278" lon="1.94878">
        <ele>1977</ele>
        <time>2021-08-02T12:35:28.000Z</time>
      </trkpt>
      <trkpt lat="42.62777" lon="1.94866">
        <ele>1976.9</ele>
        <time>2021-08-02T12:35:36.000Z</time>
      </trkpt>
      <trkpt lat="42.62775" lon="1.94853">
        <ele>1976.9</ele>
        <time>2021-08-02T12:35:45.000Z</time>
      </trkpt>
      <trkpt lat="42.62771" lon="1.94841">
        <ele>1976.7</ele>
        <time>2021-08-02T12:35:54.000Z</time>
      </trkpt>
      <trkpt lat="42.62766" lon="1.94831">
        <ele>1976.7</ele>
        <time>2021-08-02T12:36:02.000Z</time>
      </trkpt>
      <trkpt lat="42.62762" lon="1.94819">
        <ele>1976.6</ele>
        <time>2021-08-02T12:36:11.000Z</time>
      </trkpt>
      <trkpt lat="42.6276" lon="1.94806">
        <ele>1976.9</ele>
        <time>2021-08-02T12:36:20.000Z</time>
      </trkpt>
      <trkpt lat="42.62757" lon="1.94794">
        <ele>1976.8</ele>
        <time>2021-08-02T12:36:30.000Z</time>
      </trkpt>
      <trkpt lat="42.6275" lon="1.94785">
        <ele>1976.4</ele>
        <time>2021-08-02T12:36:43.000Z</time>
      </trkpt>
      <trkpt lat="42.62743" lon="1.94777">
        <ele>1974.4</ele>
        <time>2021-08-02T12:37:00.000Z</time>
      </trkpt>
      <trkpt lat="42.62742" lon="1.94777">
        <ele>1974.1</ele>
        <time>2021-08-02T12:37:03.000Z</time>
      </trkpt>
      <trkpt lat="42.62742" lon="1.94777">
        <ele>1974.3</ele>
        <time>2021-08-02T12:37:09.000Z</time>
      </trkpt>
      <trkpt lat="42.62734" lon="1.9477">
        <ele>1971.3</ele>
        <time>2021-08-02T12:37:31.000Z</time>
      </trkpt>
      <trkpt lat="42.62731" lon="1.94768">
        <ele>1970.7</ele>
        <time>2021-08-02T12:37:40.000Z</time>
      </trkpt>
      <trkpt lat="42.62731" lon="1.94768">
        <ele>1970.8</ele>
        <time>2021-08-02T12:37:42.000Z</time>
      </trkpt>
      <trkpt lat="42.62728" lon="1.94756">
        <ele>1967.1</ele>
        <time>2021-08-02T12:38:05.000Z</time>
      </trkpt>
      <trkpt lat="42.62723" lon="1.94747">
        <ele>1965.5</ele>
        <time>2021-08-02T12:38:17.000Z</time>
      </trkpt>
      <trkpt lat="42.62723" lon="1.94747">
        <ele>1965.4</ele>
        <time>2021-08-02T12:38:33.000Z</time>
      </trkpt>
      <trkpt lat="42.6272" lon="1.94735">
        <ele>1964.8</ele>
        <time>2021-08-02T12:38:42.000Z</time>
      </trkpt>
      <trkpt lat="42.62715" lon="1.94724">
        <ele>1964.3</ele>
        <time>2021-08-02T12:38:52.000Z</time>
      </trkpt>
      <trkpt lat="42.62713" lon="1.94719">
        <ele>1964.1</ele>
        <time>2021-08-02T12:38:59.000Z</time>
      </trkpt>
      <trkpt lat="42.62713" lon="1.94719">
        <ele>1964.1</ele>
        <time>2021-08-02T12:39:00.000Z</time>
      </trkpt>
      <trkpt lat="42.62713" lon="1.94719">
        <ele>1964.2</ele>
        <time>2021-08-02T12:39:01.000Z</time>
      </trkpt>
      <trkpt lat="42.62713" lon="1.94719">
        <ele>1964.1</ele>
        <time>2021-08-02T12:39:03.000Z</time>
      </trkpt>
      <trkpt lat="42.62712" lon="1.94707">
        <ele>1963.3</ele>
        <time>2021-08-02T12:39:16.000Z</time>
      </trkpt>
      <trkpt lat="42.62711" lon="1.94694">
        <ele>1963.9</ele>
        <time>2021-08-02T12:39:28.000Z</time>
      </trkpt>
      <trkpt lat="42.62707" lon="1.94682">
        <ele>1964.9</ele>
        <time>2021-08-02T12:39:41.000Z</time>
      </trkpt>
      <trkpt lat="42.62704" lon="1.9467">
        <ele>1964.8</ele>
        <time>2021-08-02T12:39:53.000Z</time>
      </trkpt>
      <trkpt lat="42.627" lon="1.94658">
        <ele>1965.2</ele>
        <time>2021-08-02T12:40:06.000Z</time>
      </trkpt>
      <trkpt lat="42.62699" lon="1.94645">
        <ele>1966.6</ele>
        <time>2021-08-02T12:40:17.000Z</time>
      </trkpt>
      <trkpt lat="42.62693" lon="1.94635">
        <ele>1967.9</ele>
        <time>2021-08-02T12:40:29.000Z</time>
      </trkpt>
      <trkpt lat="42.62689" lon="1.94624">
        <ele>1969.2</ele>
        <time>2021-08-02T12:40:40.000Z</time>
      </trkpt>
      <trkpt lat="42.62682" lon="1.94614">
        <ele>1971</ele>
        <time>2021-08-02T12:40:53.000Z</time>
      </trkpt>
      <trkpt lat="42.62683" lon="1.94601">
        <ele>1972.2</ele>
        <time>2021-08-02T12:41:06.000Z</time>
      </trkpt>
      <trkpt lat="42.62684" lon="1.94588">
        <ele>1973.2</ele>
        <time>2021-08-02T12:41:17.000Z</time>
      </trkpt>
      <trkpt lat="42.62685" lon="1.94576">
        <ele>1974.4</ele>
        <time>2021-08-02T12:41:28.000Z</time>
      </trkpt>
      <trkpt lat="42.62686" lon="1.94563">
        <ele>1973.5</ele>
        <time>2021-08-02T12:41:40.000Z</time>
      </trkpt>
      <trkpt lat="42.62687" lon="1.94559">
        <ele>1972.2</ele>
        <time>2021-08-02T12:41:48.000Z</time>
      </trkpt>
      <trkpt lat="42.62687" lon="1.94558">
        <ele>1972.2</ele>
        <time>2021-08-02T12:41:49.000Z</time>
      </trkpt>
      <trkpt lat="42.62694" lon="1.94549">
        <ele>1969.6</ele>
        <time>2021-08-02T12:42:05.000Z</time>
      </trkpt>
      <trkpt lat="42.62697" lon="1.94537">
        <ele>1968.4</ele>
        <time>2021-08-02T12:42:14.000Z</time>
      </trkpt>
      <trkpt lat="42.62691" lon="1.94527">
        <ele>1968.5</ele>
        <time>2021-08-02T12:42:26.000Z</time>
      </trkpt>
      <trkpt lat="42.62682" lon="1.94523">
        <ele>1970</ele>
        <time>2021-08-02T12:42:37.000Z</time>
      </trkpt>
      <trkpt lat="42.62675" lon="1.94514">
        <ele>1973.3</ele>
        <time>2021-08-02T12:42:54.000Z</time>
      </trkpt>
      <trkpt lat="42.62672" lon="1.94503">
        <ele>1972.4</ele>
        <time>2021-08-02T12:43:04.000Z</time>
      </trkpt>
      <trkpt lat="42.62667" lon="1.94491">
        <ele>1972.7</ele>
        <time>2021-08-02T12:43:14.000Z</time>
      </trkpt>
      <trkpt lat="42.62664" lon="1.94479">
        <ele>1973.7</ele>
        <time>2021-08-02T12:43:30.000Z</time>
      </trkpt>
      <trkpt lat="42.62664" lon="1.94478">
        <ele>1973.7</ele>
        <time>2021-08-02T12:43:33.000Z</time>
      </trkpt>
      <trkpt lat="42.62664" lon="1.94478">
        <ele>1974.1</ele>
        <time>2021-08-02T12:43:37.000Z</time>
      </trkpt>
      <trkpt lat="42.62667" lon="1.94466">
        <ele>1974</ele>
        <time>2021-08-02T12:43:47.000Z</time>
      </trkpt>
      <trkpt lat="42.62672" lon="1.94455">
        <ele>1972.9</ele>
        <time>2021-08-02T12:43:56.000Z</time>
      </trkpt>
      <trkpt lat="42.62671" lon="1.94442">
        <ele>1974</ele>
        <time>2021-08-02T12:44:05.000Z</time>
      </trkpt>
      <trkpt lat="42.62669" lon="1.94429">
        <ele>1975</ele>
        <time>2021-08-02T12:44:15.000Z</time>
      </trkpt>
      <trkpt lat="42.62665" lon="1.94417">
        <ele>1976.3</ele>
        <time>2021-08-02T12:44:25.000Z</time>
      </trkpt>
      <trkpt lat="42.62664" lon="1.94412">
        <ele>1976.8</ele>
        <time>2021-08-02T12:44:34.000Z</time>
      </trkpt>
      <trkpt lat="42.62664" lon="1.94412">
        <ele>1976.4</ele>
        <time>2021-08-02T12:44:38.000Z</time>
      </trkpt>
      <trkpt lat="42.62665" lon="1.94414">
        <ele>1975.8</ele>
        <time>2021-08-02T12:44:48.000Z</time>
      </trkpt>
      <trkpt lat="42.62665" lon="1.94414">
        <ele>1975.7</ele>
        <time>2021-08-02T12:44:50.000Z</time>
      </trkpt>
      <trkpt lat="42.62665" lon="1.94414">
        <ele>1975.7</ele>
        <time>2021-08-02T12:44:51.000Z</time>
      </trkpt>
      <trkpt lat="42.62664" lon="1.94414">
        <ele>1976.1</ele>
        <time>2021-08-02T12:44:59.000Z</time>
      </trkpt>
      <trkpt lat="42.62664" lon="1.94414">
        <ele>1976.1</ele>
        <time>2021-08-02T12:45:00.000Z</time>
      </trkpt>
      <trkpt lat="42.62664" lon="1.94414">
        <ele>1976.1</ele>
        <time>2021-08-02T12:45:07.000Z</time>
      </trkpt>
      <trkpt lat="42.62664" lon="1.94414">
        <ele>1976.2</ele>
        <time>2021-08-02T12:45:08.000Z</time>
      </trkpt>
      <trkpt lat="42.62664" lon="1.94414">
        <ele>1976.3</ele>
        <time>2021-08-02T12:45:09.000Z</time>
      </trkpt>
      <trkpt lat="42.62664" lon="1.94414">
        <ele>1976.4</ele>
        <time>2021-08-02T12:45:10.000Z</time>
      </trkpt>
      <trkpt lat="42.62664" lon="1.94414">
        <ele>1976.5</ele>
        <time>2021-08-02T12:45:11.000Z</time>
      </trkpt>
      <trkpt lat="42.6266" lon="1.94416">
        <ele>1976.2</ele>
        <time>2021-08-02T12:45:27.000Z</time>
      </trkpt>
      <trkpt lat="42.6266" lon="1.94416">
        <ele>1976.1</ele>
        <time>2021-08-02T12:45:29.000Z</time>
      </trkpt>
      <trkpt lat="42.6266" lon="1.94416">
        <ele>1976.2</ele>
        <time>2021-08-02T12:45:30.000Z</time>
      </trkpt>
      <trkpt lat="42.6266" lon="1.94417">
        <ele>1976.1</ele>
        <time>2021-08-02T12:45:35.000Z</time>
      </trkpt>
      <trkpt lat="42.6266" lon="1.94416">
        <ele>1976.2</ele>
        <time>2021-08-02T12:45:36.000Z</time>
      </trkpt>
      <trkpt lat="42.6266" lon="1.94415">
        <ele>1976.1</ele>
        <time>2021-08-02T12:45:37.000Z</time>
      </trkpt>
      <trkpt lat="42.6266" lon="1.94415">
        <ele>1976.1</ele>
        <time>2021-08-02T12:45:39.000Z</time>
      </trkpt>
      <trkpt lat="42.6266" lon="1.94415">
        <ele>1976.1</ele>
        <time>2021-08-02T12:45:42.000Z</time>
      </trkpt>
      <trkpt lat="42.6266" lon="1.94415">
        <ele>1976.1</ele>
        <time>2021-08-02T12:45:43.000Z</time>
      </trkpt>
      <trkpt lat="42.6266" lon="1.94414">
        <ele>1976.4</ele>
        <time>2021-08-02T12:45:52.000Z</time>
      </trkpt>
      <trkpt lat="42.6266" lon="1.94414">
        <ele>1976.6</ele>
        <time>2021-08-02T12:45:53.000Z</time>
      </trkpt>
      <trkpt lat="42.6266" lon="1.94414">
        <ele>1976.5</ele>
        <time>2021-08-02T12:46:03.000Z</time>
      </trkpt>
      <trkpt lat="42.6266" lon="1.94414">
        <ele>1976.7</ele>
        <time>2021-08-02T12:46:05.000Z</time>
      </trkpt>
      <trkpt lat="42.6266" lon="1.94414">
        <ele>1976.3</ele>
        <time>2021-08-02T12:46:13.000Z</time>
      </trkpt>
      <trkpt lat="42.62659" lon="1.94413">
        <ele>1976.3</ele>
        <time>2021-08-02T12:46:19.000Z</time>
      </trkpt>
      <trkpt lat="42.62659" lon="1.94413">
        <ele>1976.3</ele>
        <time>2021-08-02T12:46:29.000Z</time>
      </trkpt>
      <trkpt lat="42.62659" lon="1.94413">
        <ele>1976.2</ele>
        <time>2021-08-02T12:46:30.000Z</time>
      </trkpt>
      <trkpt lat="42.62659" lon="1.94413">
        <ele>1976.3</ele>
        <time>2021-08-02T12:46:31.000Z</time>
      </trkpt>
      <trkpt lat="42.62659" lon="1.94413">
        <ele>1976.2</ele>
        <time>2021-08-02T12:46:33.000Z</time>
      </trkpt>
      <trkpt lat="42.62659" lon="1.94413">
        <ele>1976.1</ele>
        <time>2021-08-02T12:46:36.000Z</time>
      </trkpt>
      <trkpt lat="42.62659" lon="1.94413">
        <ele>1976.1</ele>
        <time>2021-08-02T12:46:37.000Z</time>
      </trkpt>
      <trkpt lat="42.62659" lon="1.94413">
        <ele>1976</ele>
        <time>2021-08-02T12:46:41.000Z</time>
      </trkpt>
      <trkpt lat="42.62658" lon="1.94412">
        <ele>1976.3</ele>
        <time>2021-08-02T12:46:45.000Z</time>
      </trkpt>
      <trkpt lat="42.62658" lon="1.94412">
        <ele>1976.3</ele>
        <time>2021-08-02T12:46:46.000Z</time>
      </trkpt>
      <trkpt lat="42.62658" lon="1.94412">
        <ele>1976.4</ele>
        <time>2021-08-02T12:46:48.000Z</time>
      </trkpt>
      <trkpt lat="42.62658" lon="1.94412">
        <ele>1976.4</ele>
        <time>2021-08-02T12:46:49.000Z</time>
      </trkpt>
      <trkpt lat="42.62658" lon="1.94412">
        <ele>1976.3</ele>
        <time>2021-08-02T12:46:51.000Z</time>
      </trkpt>
      <trkpt lat="42.62658" lon="1.94412">
        <ele>1976.2</ele>
        <time>2021-08-02T12:46:53.000Z</time>
      </trkpt>
      <trkpt lat="42.62657" lon="1.94412">
        <ele>1976.2</ele>
        <time>2021-08-02T12:46:55.000Z</time>
      </trkpt>
      <trkpt lat="42.62657" lon="1.94412">
        <ele>1976.3</ele>
        <time>2021-08-02T12:46:57.000Z</time>
      </trkpt>
      <trkpt lat="42.62657" lon="1.94412">
        <ele>1976.2</ele>
        <time>2021-08-02T12:46:58.000Z</time>
      </trkpt>
      <trkpt lat="42.62657" lon="1.94411">
        <ele>1976.3</ele>
        <time>2021-08-02T12:47:02.000Z</time>
      </trkpt>
      <trkpt lat="42.62657" lon="1.94411">
        <ele>1976.3</ele>
        <time>2021-08-02T12:47:03.000Z</time>
      </trkpt>
      <trkpt lat="42.62657" lon="1.94411">
        <ele>1976.3</ele>
        <time>2021-08-02T12:47:08.000Z</time>
      </trkpt>
      <trkpt lat="42.62657" lon="1.94411">
        <ele>1976.3</ele>
        <time>2021-08-02T12:47:09.000Z</time>
      </trkpt>
      <trkpt lat="42.62656" lon="1.94411">
        <ele>1976.2</ele>
        <time>2021-08-02T12:47:10.000Z</time>
      </trkpt>
      <trkpt lat="42.62656" lon="1.94411">
        <ele>1976</ele>
        <time>2021-08-02T12:47:11.000Z</time>
      </trkpt>
      <trkpt lat="42.62656" lon="1.94412">
        <ele>1976.2</ele>
        <time>2021-08-02T12:47:26.000Z</time>
      </trkpt>
      <trkpt lat="42.62656" lon="1.94412">
        <ele>1976.1</ele>
        <time>2021-08-02T12:47:27.000Z</time>
      </trkpt>
      <trkpt lat="42.62656" lon="1.94412">
        <ele>1976.1</ele>
        <time>2021-08-02T12:47:29.000Z</time>
      </trkpt>
      <trkpt lat="42.62656" lon="1.94413">
        <ele>1976.1</ele>
        <time>2021-08-02T12:47:32.000Z</time>
      </trkpt>
      <trkpt lat="42.62656" lon="1.94413">
        <ele>1976.3</ele>
        <time>2021-08-02T12:47:35.000Z</time>
      </trkpt>
      <trkpt lat="42.62656" lon="1.94413">
        <ele>1976.4</ele>
        <time>2021-08-02T12:47:36.000Z</time>
      </trkpt>
      <trkpt lat="42.62656" lon="1.94413">
        <ele>1976.3</ele>
        <time>2021-08-02T12:47:38.000Z</time>
      </trkpt>
      <trkpt lat="42.62656" lon="1.94413">
        <ele>1976.3</ele>
        <time>2021-08-02T12:47:39.000Z</time>
      </trkpt>
      <trkpt lat="42.62656" lon="1.94412">
        <ele>1976.2</ele>
        <time>2021-08-02T12:48:08.000Z</time>
      </trkpt>
      <trkpt lat="42.62656" lon="1.94412">
        <ele>1976.1</ele>
        <time>2021-08-02T12:48:09.000Z</time>
      </trkpt>
      <trkpt lat="42.62657" lon="1.94412">
        <ele>1976.2</ele>
        <time>2021-08-02T12:48:16.000Z</time>
      </trkpt>
      <trkpt lat="42.62657" lon="1.94412">
        <ele>1976</ele>
        <time>2021-08-02T12:48:18.000Z</time>
      </trkpt>
      <trkpt lat="42.62657" lon="1.94411">
        <ele>1975.8</ele>
        <time>2021-08-02T12:48:41.000Z</time>
      </trkpt>
      <trkpt lat="42.62657" lon="1.94411">
        <ele>1976</ele>
        <time>2021-08-02T12:48:42.000Z</time>
      </trkpt>
      <trkpt lat="42.62657" lon="1.94411">
        <ele>1975.7</ele>
        <time>2021-08-02T12:48:54.000Z</time>
      </trkpt>
      <trkpt lat="42.62657" lon="1.94411">
        <ele>1975.9</ele>
        <time>2021-08-02T12:48:55.000Z</time>
      </trkpt>
      <trkpt lat="42.62657" lon="1.94411">
        <ele>1976</ele>
        <time>2021-08-02T12:48:56.000Z</time>
      </trkpt>
      <trkpt lat="42.62657" lon="1.94411">
        <ele>1976.1</ele>
        <time>2021-08-02T12:48:58.000Z</time>
      </trkpt>
      <trkpt lat="42.62658" lon="1.94412">
        <ele>1976.1</ele>
        <time>2021-08-02T12:48:59.000Z</time>
      </trkpt>
      <trkpt lat="42.62658" lon="1.94412">
        <ele>1976.1</ele>
        <time>2021-08-02T12:49:00.000Z</time>
      </trkpt>
      <trkpt lat="42.62658" lon="1.94412">
        <ele>1976.3</ele>
        <time>2021-08-02T12:49:01.000Z</time>
      </trkpt>
      <trkpt lat="42.62658" lon="1.94412">
        <ele>1976.1</ele>
        <time>2021-08-02T12:49:03.000Z</time>
      </trkpt>
      <trkpt lat="42.62658" lon="1.94412">
        <ele>1976.1</ele>
        <time>2021-08-02T12:49:04.000Z</time>
      </trkpt>
      <trkpt lat="42.62658" lon="1.94413">
        <ele>1976.2</ele>
        <time>2021-08-02T12:49:06.000Z</time>
      </trkpt>
      <trkpt lat="42.62658" lon="1.94414">
        <ele>1976.1</ele>
        <time>2021-08-02T12:49:08.000Z</time>
      </trkpt>
      <trkpt lat="42.62658" lon="1.94414">
        <ele>1976</ele>
        <time>2021-08-02T12:49:10.000Z</time>
      </trkpt>
      <trkpt lat="42.62658" lon="1.94415">
        <ele>1976</ele>
        <time>2021-08-02T12:49:12.000Z</time>
      </trkpt>
      <trkpt lat="42.62658" lon="1.94415">
        <ele>1976.1</ele>
        <time>2021-08-02T12:49:13.000Z</time>
      </trkpt>
      <trkpt lat="42.62658" lon="1.94415">
        <ele>1976.2</ele>
        <time>2021-08-02T12:49:14.000Z</time>
      </trkpt>
      <trkpt lat="42.62657" lon="1.94418">
        <ele>1976</ele>
        <time>2021-08-02T12:49:20.000Z</time>
      </trkpt>
      <trkpt lat="42.62657" lon="1.94418">
        <ele>1976.1</ele>
        <time>2021-08-02T12:49:23.000Z</time>
      </trkpt>
      <trkpt lat="42.62657" lon="1.94418">
        <ele>1976.1</ele>
        <time>2021-08-02T12:49:25.000Z</time>
      </trkpt>
      <trkpt lat="42.62657" lon="1.94418">
        <ele>1975.7</ele>
        <time>2021-08-02T12:49:44.000Z</time>
      </trkpt>
      <trkpt lat="42.62656" lon="1.94418">
        <ele>1975.8</ele>
        <time>2021-08-02T12:49:46.000Z</time>
      </trkpt>
      <trkpt lat="42.62657" lon="1.94418">
        <ele>1975.8</ele>
        <time>2021-08-02T12:49:50.000Z</time>
      </trkpt>
      <trkpt lat="42.62657" lon="1.94417">
        <ele>1975.9</ele>
        <time>2021-08-02T12:49:52.000Z</time>
      </trkpt>
      <trkpt lat="42.62657" lon="1.94417">
        <ele>1975.9</ele>
        <time>2021-08-02T12:50:14.000Z</time>
      </trkpt>
      <trkpt lat="42.62657" lon="1.94417">
        <ele>1975.9</ele>
        <time>2021-08-02T12:50:15.000Z</time>
      </trkpt>
      <trkpt lat="42.62657" lon="1.94417">
        <ele>1976.1</ele>
        <time>2021-08-02T12:50:18.000Z</time>
      </trkpt>
      <trkpt lat="42.62657" lon="1.94417">
        <ele>1976.1</ele>
        <time>2021-08-02T12:50:19.000Z</time>
      </trkpt>
      <trkpt lat="42.62657" lon="1.94417">
        <ele>1975.9</ele>
        <time>2021-08-02T12:50:28.000Z</time>
      </trkpt>
      <trkpt lat="42.62657" lon="1.94417">
        <ele>1975.9</ele>
        <time>2021-08-02T12:50:29.000Z</time>
      </trkpt>
      <trkpt lat="42.62658" lon="1.94416">
        <ele>1975.9</ele>
        <time>2021-08-02T12:50:32.000Z</time>
      </trkpt>
      <trkpt lat="42.62658" lon="1.94416">
        <ele>1976.2</ele>
        <time>2021-08-02T12:50:34.000Z</time>
      </trkpt>
      <trkpt lat="42.62658" lon="1.94416">
        <ele>1976.1</ele>
        <time>2021-08-02T12:50:45.000Z</time>
      </trkpt>
      <trkpt lat="42.62658" lon="1.94416">
        <ele>1976.1</ele>
        <time>2021-08-02T12:50:46.000Z</time>
      </trkpt>
      <trkpt lat="42.62658" lon="1.94416">
        <ele>1975.9</ele>
        <time>2021-08-02T12:50:50.000Z</time>
      </trkpt>
      <trkpt lat="42.62658" lon="1.94416">
        <ele>1976</ele>
        <time>2021-08-02T12:50:51.000Z</time>
      </trkpt>
      <trkpt lat="42.62658" lon="1.94416">
        <ele>1975.9</ele>
        <time>2021-08-02T12:51:00.000Z</time>
      </trkpt>
      <trkpt lat="42.62658" lon="1.94416">
        <ele>1976.1</ele>
        <time>2021-08-02T12:51:02.000Z</time>
      </trkpt>
      <trkpt lat="42.62658" lon="1.94416">
        <ele>1976</ele>
        <time>2021-08-02T12:51:05.000Z</time>
      </trkpt>
      <trkpt lat="42.62658" lon="1.94416">
        <ele>1976</ele>
        <time>2021-08-02T12:51:06.000Z</time>
      </trkpt>
      <trkpt lat="42.62659" lon="1.94416">
        <ele>1976.1</ele>
        <time>2021-08-02T12:51:09.000Z</time>
      </trkpt>
      <trkpt lat="42.62659" lon="1.94416">
        <ele>1975.9</ele>
        <time>2021-08-02T12:51:11.000Z</time>
      </trkpt>
      <trkpt lat="42.62659" lon="1.94417">
        <ele>1975.8</ele>
        <time>2021-08-02T12:51:15.000Z</time>
      </trkpt>
      <trkpt lat="42.62659" lon="1.94417">
        <ele>1975.7</ele>
        <time>2021-08-02T12:51:16.000Z</time>
      </trkpt>
      <trkpt lat="42.62659" lon="1.94417">
        <ele>1975.7</ele>
        <time>2021-08-02T12:51:17.000Z</time>
      </trkpt>
      <trkpt lat="42.6266" lon="1.94417">
        <ele>1975.7</ele>
        <time>2021-08-02T12:51:23.000Z</time>
      </trkpt>
      <trkpt lat="42.6266" lon="1.94416">
        <ele>1975.7</ele>
        <time>2021-08-02T12:51:24.000Z</time>
      </trkpt>
      <trkpt lat="42.62659" lon="1.94418">
        <ele>1976</ele>
        <time>2021-08-02T12:51:33.000Z</time>
      </trkpt>
      <trkpt lat="42.62659" lon="1.94418">
        <ele>1975.9</ele>
        <time>2021-08-02T12:51:42.000Z</time>
      </trkpt>
      <trkpt lat="42.62659" lon="1.94417">
        <ele>1975.9</ele>
        <time>2021-08-02T12:51:45.000Z</time>
      </trkpt>
      <trkpt lat="42.62659" lon="1.94417">
        <ele>1975.9</ele>
        <time>2021-08-02T12:51:46.000Z</time>
      </trkpt>
      <trkpt lat="42.62659" lon="1.94417">
        <ele>1975.9</ele>
        <time>2021-08-02T12:51:47.000Z</time>
      </trkpt>
      <trkpt lat="42.62659" lon="1.94417">
        <ele>1975.8</ele>
        <time>2021-08-02T12:51:57.000Z</time>
      </trkpt>
      <trkpt lat="42.62658" lon="1.94416">
        <ele>1975.7</ele>
        <time>2021-08-02T12:51:59.000Z</time>
      </trkpt>
      <trkpt lat="42.62658" lon="1.94416">
        <ele>1975.8</ele>
        <time>2021-08-02T12:52:04.000Z</time>
      </trkpt>
      <trkpt lat="42.62657" lon="1.94416">
        <ele>1976</ele>
        <time>2021-08-02T12:52:11.000Z</time>
      </trkpt>
      <trkpt lat="42.62656" lon="1.94416">
        <ele>1975.6</ele>
        <time>2021-08-02T12:52:13.000Z</time>
      </trkpt>
      <trkpt lat="42.62656" lon="1.94416">
        <ele>1975.8</ele>
        <time>2021-08-02T12:52:17.000Z</time>
      </trkpt>
      <trkpt lat="42.62656" lon="1.94415">
        <ele>1975.7</ele>
        <time>2021-08-02T12:52:19.000Z</time>
      </trkpt>
      <trkpt lat="42.62656" lon="1.94415">
        <ele>1975.6</ele>
        <time>2021-08-02T12:52:20.000Z</time>
      </trkpt>
      <trkpt lat="42.62656" lon="1.94415">
        <ele>1975.6</ele>
        <time>2021-08-02T12:52:21.000Z</time>
      </trkpt>
      <trkpt lat="42.62656" lon="1.94415">
        <ele>1975.6</ele>
        <time>2021-08-02T12:52:22.000Z</time>
      </trkpt>
      <trkpt lat="42.62656" lon="1.94414">
        <ele>1975.6</ele>
        <time>2021-08-02T12:52:23.000Z</time>
      </trkpt>
      <trkpt lat="42.62656" lon="1.94414">
        <ele>1975.6</ele>
        <time>2021-08-02T12:52:24.000Z</time>
      </trkpt>
      <trkpt lat="42.62656" lon="1.94415">
        <ele>1979.3</ele>
        <time>2021-08-02T12:52:32.000Z</time>
      </trkpt>
      <trkpt lat="42.62656" lon="1.94415">
        <ele>1976.2</ele>
        <time>2021-08-02T12:52:33.000Z</time>
      </trkpt>
      <trkpt lat="42.62656" lon="1.94414">
        <ele>1975.6</ele>
        <time>2021-08-02T12:52:35.000Z</time>
      </trkpt>
      <trkpt lat="42.62657" lon="1.94412">
        <ele>1976.2</ele>
        <time>2021-08-02T12:52:39.000Z</time>
      </trkpt>
      <trkpt lat="42.62657" lon="1.94412">
        <ele>1975.8</ele>
        <time>2021-08-02T12:52:40.000Z</time>
      </trkpt>
      <trkpt lat="42.62657" lon="1.94412">
        <ele>1975.5</ele>
        <time>2021-08-02T12:52:44.000Z</time>
      </trkpt>
      <trkpt lat="42.62657" lon="1.94413">
        <ele>1975.2</ele>
        <time>2021-08-02T12:52:52.000Z</time>
      </trkpt>
      <trkpt lat="42.62657" lon="1.94413">
        <ele>1975.3</ele>
        <time>2021-08-02T12:52:53.000Z</time>
      </trkpt>
      <trkpt lat="42.62657" lon="1.94413">
        <ele>1975.4</ele>
        <time>2021-08-02T12:53:23.000Z</time>
      </trkpt>
      <trkpt lat="42.62657" lon="1.94413">
        <ele>1975.3</ele>
        <time>2021-08-02T12:53:24.000Z</time>
      </trkpt>
      <trkpt lat="42.62657" lon="1.94413">
        <ele>1975.3</ele>
        <time>2021-08-02T12:53:49.000Z</time>
      </trkpt>
      <trkpt lat="42.62657" lon="1.94413">
        <ele>1975.2</ele>
        <time>2021-08-02T12:53:50.000Z</time>
      </trkpt>
      <trkpt lat="42.62657" lon="1.94413">
        <ele>1975.2</ele>
        <time>2021-08-02T12:54:33.000Z</time>
      </trkpt>
      <trkpt lat="42.62657" lon="1.94413">
        <ele>1975.2</ele>
        <time>2021-08-02T12:54:34.000Z</time>
      </trkpt>
      <trkpt lat="42.62658" lon="1.94413">
        <ele>1975.4</ele>
        <time>2021-08-02T12:55:13.000Z</time>
      </trkpt>
      <trkpt lat="42.62658" lon="1.94413">
        <ele>1975.4</ele>
        <time>2021-08-02T12:55:14.000Z</time>
      </trkpt>
      <trkpt lat="42.62658" lon="1.94413">
        <ele>1974.8</ele>
        <time>2021-08-02T12:55:54.000Z</time>
      </trkpt>
      <trkpt lat="42.62658" lon="1.94413">
        <ele>1974.9</ele>
        <time>2021-08-02T12:55:55.000Z</time>
      </trkpt>
      <trkpt lat="42.62658" lon="1.94413">
        <ele>1975</ele>
        <time>2021-08-02T12:56:41.000Z</time>
      </trkpt>
      <trkpt lat="42.62658" lon="1.94413">
        <ele>1975</ele>
        <time>2021-08-02T12:56:42.000Z</time>
      </trkpt>
      <trkpt lat="42.62658" lon="1.94413">
        <ele>1974.7</ele>
        <time>2021-08-02T12:57:20.000Z</time>
      </trkpt>
      <trkpt lat="42.62658" lon="1.94413">
        <ele>1974.9</ele>
        <time>2021-08-02T12:57:21.000Z</time>
      </trkpt>
      <trkpt lat="42.62658" lon="1.94413">
        <ele>1974.8</ele>
        <time>2021-08-02T12:58:16.000Z</time>
      </trkpt>
      <trkpt lat="42.62658" lon="1.94413">
        <ele>1974.8</ele>
        <time>2021-08-02T12:58:17.000Z</time>
      </trkpt>
      <trkpt lat="42.62658" lon="1.94413">
        <ele>1974.4</ele>
        <time>2021-08-02T12:59:19.000Z</time>
      </trkpt>
      <trkpt lat="42.62658" lon="1.94413">
        <ele>1974.5</ele>
        <time>2021-08-02T12:59:20.000Z</time>
      </trkpt>
      <trkpt lat="42.62659" lon="1.94413">
        <ele>1974.2</ele>
        <time>2021-08-02T13:00:12.000Z</time>
      </trkpt>
      <trkpt lat="42.62659" lon="1.94413">
        <ele>1974.3</ele>
        <time>2021-08-02T13:00:13.000Z</time>
      </trkpt>
      <trkpt lat="42.62659" lon="1.94414">
        <ele>1973.8</ele>
        <time>2021-08-02T13:00:57.000Z</time>
      </trkpt>
      <trkpt lat="42.62659" lon="1.94414">
        <ele>1973.7</ele>
        <time>2021-08-02T13:00:58.000Z</time>
      </trkpt>
      <trkpt lat="42.62659" lon="1.94414">
        <ele>1973.9</ele>
        <time>2021-08-02T13:01:58.000Z</time>
      </trkpt>
      <trkpt lat="42.62659" lon="1.94414">
        <ele>1974</ele>
        <time>2021-08-02T13:01:59.000Z</time>
      </trkpt>
      <trkpt lat="42.62659" lon="1.94414">
        <ele>1973.3</ele>
        <time>2021-08-02T13:03:12.000Z</time>
      </trkpt>
      <trkpt lat="42.62659" lon="1.94414">
        <ele>1973.3</ele>
        <time>2021-08-02T13:03:13.000Z</time>
      </trkpt>
      <trkpt lat="42.62659" lon="1.94414">
        <ele>1973</ele>
        <time>2021-08-02T13:04:42.000Z</time>
      </trkpt>
      <trkpt lat="42.62659" lon="1.94414">
        <ele>1972.9</ele>
        <time>2021-08-02T13:04:43.000Z</time>
      </trkpt>
      <trkpt lat="42.62659" lon="1.94414">
        <ele>1972.8</ele>
        <time>2021-08-02T13:05:50.000Z</time>
      </trkpt>
      <trkpt lat="42.62659" lon="1.94414">
        <ele>1972.9</ele>
        <time>2021-08-02T13:05:51.000Z</time>
      </trkpt>
      <trkpt lat="42.6266" lon="1.94413">
        <ele>1972.6</ele>
        <time>2021-08-02T13:07:17.000Z</time>
      </trkpt>
      <trkpt lat="42.6266" lon="1.94413">
        <ele>1971.9</ele>
        <time>2021-08-02T13:07:18.000Z</time>
      </trkpt>
      <trkpt lat="42.6266" lon="1.94413">
        <ele>1972.3</ele>
        <time>2021-08-02T13:07:21.000Z</time>
      </trkpt>
      <trkpt lat="42.6266" lon="1.94413">
        <ele>1972.5</ele>
        <time>2021-08-02T13:07:23.000Z</time>
      </trkpt>
      <trkpt lat="42.6266" lon="1.94414">
        <ele>1972.5</ele>
        <time>2021-08-02T13:07:30.000Z</time>
      </trkpt>
      <trkpt lat="42.6266" lon="1.94414">
        <ele>1972.6</ele>
        <time>2021-08-02T13:07:31.000Z</time>
      </trkpt>
      <trkpt lat="42.6266" lon="1.94414">
        <ele>1972.2</ele>
        <time>2021-08-02T13:08:11.000Z</time>
      </trkpt>
      <trkpt lat="42.6266" lon="1.94414">
        <ele>1972</ele>
        <time>2021-08-02T13:08:12.000Z</time>
      </trkpt>
      <trkpt lat="42.6266" lon="1.94414">
        <ele>1972</ele>
        <time>2021-08-02T13:08:14.000Z</time>
      </trkpt>
      <trkpt lat="42.6266" lon="1.94414">
        <ele>1972</ele>
        <time>2021-08-02T13:08:16.000Z</time>
      </trkpt>
      <trkpt lat="42.6266" lon="1.94414">
        <ele>1972.1</ele>
        <time>2021-08-02T13:08:17.000Z</time>
      </trkpt>
      <trkpt lat="42.6266" lon="1.94414">
        <ele>1972</ele>
        <time>2021-08-02T13:08:18.000Z</time>
      </trkpt>
      <trkpt lat="42.6266" lon="1.94415">
        <ele>1972.3</ele>
        <time>2021-08-02T13:08:20.000Z</time>
      </trkpt>
      <trkpt lat="42.62667" lon="1.94424">
        <ele>1971.2</ele>
        <time>2021-08-02T13:08:37.000Z</time>
      </trkpt>
      <trkpt lat="42.62676" lon="1.94428">
        <ele>1971.8</ele>
        <time>2021-08-02T13:08:48.000Z</time>
      </trkpt>
      <trkpt lat="42.62685" lon="1.94426">
        <ele>1973.3</ele>
        <time>2021-08-02T13:09:04.000Z</time>
      </trkpt>
      <trkpt lat="42.62685" lon="1.94427">
        <ele>1973.4</ele>
        <time>2021-08-02T13:09:10.000Z</time>
      </trkpt>
      <trkpt lat="42.62685" lon="1.94428">
        <ele>1972.3</ele>
        <time>2021-08-02T13:09:14.000Z</time>
      </trkpt>
      <trkpt lat="42.62685" lon="1.94428">
        <ele>1972.4</ele>
        <time>2021-08-02T13:09:54.000Z</time>
      </trkpt>
      <trkpt lat="42.62685" lon="1.94428">
        <ele>1972.4</ele>
        <time>2021-08-02T13:09:55.000Z</time>
      </trkpt>
      <trkpt lat="42.62686" lon="1.94428">
        <ele>1972</ele>
        <time>2021-08-02T13:11:55.000Z</time>
      </trkpt>
      <trkpt lat="42.62694" lon="1.94434">
        <ele>1972.3</ele>
        <time>2021-08-02T13:12:05.000Z</time>
      </trkpt>
      <trkpt lat="42.62702" lon="1.94441">
        <ele>1972.2</ele>
        <time>2021-08-02T13:12:13.000Z</time>
      </trkpt>
      <trkpt lat="42.6271" lon="1.94447">
        <ele>1972.3</ele>
        <time>2021-08-02T13:12:21.000Z</time>
      </trkpt>
      <trkpt lat="42.62719" lon="1.94453">
        <ele>1972.3</ele>
        <time>2021-08-02T13:12:30.000Z</time>
      </trkpt>
      <trkpt lat="42.62727" lon="1.94459">
        <ele>1971.3</ele>
        <time>2021-08-02T13:12:39.000Z</time>
      </trkpt>
      <trkpt lat="42.62736" lon="1.94463">
        <ele>1970.8</ele>
        <time>2021-08-02T13:12:48.000Z</time>
      </trkpt>
      <trkpt lat="42.62745" lon="1.94461">
        <ele>1970.8</ele>
        <time>2021-08-02T13:13:01.000Z</time>
      </trkpt>
      <trkpt lat="42.62753" lon="1.94456">
        <ele>1971.6</ele>
        <time>2021-08-02T13:13:10.000Z</time>
      </trkpt>
      <trkpt lat="42.62763" lon="1.94458">
        <ele>1971.9</ele>
        <time>2021-08-02T13:13:20.000Z</time>
      </trkpt>
      <trkpt lat="42.62772" lon="1.94457">
        <ele>1970.9</ele>
        <time>2021-08-02T13:13:29.000Z</time>
      </trkpt>
      <trkpt lat="42.62781" lon="1.94456">
        <ele>1970.1</ele>
        <time>2021-08-02T13:13:39.000Z</time>
      </trkpt>
      <trkpt lat="42.6279" lon="1.94453">
        <ele>1969.6</ele>
        <time>2021-08-02T13:13:50.000Z</time>
      </trkpt>
      <trkpt lat="42.628" lon="1.9445">
        <ele>1969.8</ele>
        <time>2021-08-02T13:14:01.000Z</time>
      </trkpt>
      <trkpt lat="42.62808" lon="1.94445">
        <ele>1970.3</ele>
        <time>2021-08-02T13:14:12.000Z</time>
      </trkpt>
      <trkpt lat="42.62817" lon="1.94442">
        <ele>1966.6</ele>
        <time>2021-08-02T13:14:30.000Z</time>
      </trkpt>
      <trkpt lat="42.62826" lon="1.94438">
        <ele>1963.5</ele>
        <time>2021-08-02T13:14:42.000Z</time>
      </trkpt>
      <trkpt lat="42.62835" lon="1.94434">
        <ele>1961.5</ele>
        <time>2021-08-02T13:14:57.000Z</time>
      </trkpt>
      <trkpt lat="42.62845" lon="1.94432">
        <ele>1959.8</ele>
        <time>2021-08-02T13:15:10.000Z</time>
      </trkpt>
      <trkpt lat="42.62854" lon="1.94429">
        <ele>1958</ele>
        <time>2021-08-02T13:15:22.000Z</time>
      </trkpt>
      <trkpt lat="42.62861" lon="1.94421">
        <ele>1953.4</ele>
        <time>2021-08-02T13:15:48.000Z</time>
      </trkpt>
      <trkpt lat="42.62854" lon="1.94413">
        <ele>1950</ele>
        <time>2021-08-02T13:16:04.000Z</time>
      </trkpt>
      <trkpt lat="42.62848" lon="1.94403">
        <ele>1947.2</ele>
        <time>2021-08-02T13:16:22.000Z</time>
      </trkpt>
      <trkpt lat="42.6285" lon="1.94394">
        <ele>1946.1</ele>
        <time>2021-08-02T13:16:39.000Z</time>
      </trkpt>
      <trkpt lat="42.6285" lon="1.94394">
        <ele>1946.2</ele>
        <time>2021-08-02T13:18:18.000Z</time>
      </trkpt>
      <trkpt lat="42.6285" lon="1.94394">
        <ele>1946.2</ele>
        <time>2021-08-02T13:18:19.000Z</time>
      </trkpt>
      <trkpt lat="42.62851" lon="1.94393">
        <ele>1945.7</ele>
        <time>2021-08-02T13:22:00.000Z</time>
      </trkpt>
      <trkpt lat="42.62851" lon="1.94393">
        <ele>1945.7</ele>
        <time>2021-08-02T13:22:01.000Z</time>
      </trkpt>
      <trkpt lat="42.62851" lon="1.94393">
        <ele>1944.7</ele>
        <time>2021-08-02T13:24:16.000Z</time>
      </trkpt>
      <trkpt lat="42.62851" lon="1.94393">
        <ele>1944.8</ele>
        <time>2021-08-02T13:24:17.000Z</time>
      </trkpt>
      <trkpt lat="42.62851" lon="1.94393">
        <ele>1944</ele>
        <time>2021-08-02T13:26:28.000Z</time>
      </trkpt>
      <trkpt lat="42.62851" lon="1.94393">
        <ele>1943.9</ele>
        <time>2021-08-02T13:26:29.000Z</time>
      </trkpt>
      <trkpt lat="42.62851" lon="1.94392">
        <ele>1943.2</ele>
        <time>2021-08-02T13:30:15.000Z</time>
      </trkpt>
      <trkpt lat="42.62851" lon="1.94392">
        <ele>1943.2</ele>
        <time>2021-08-02T13:30:16.000Z</time>
      </trkpt>
      <trkpt lat="42.62851" lon="1.94392">
        <ele>1943.4</ele>
        <time>2021-08-02T13:33:47.000Z</time>
      </trkpt>
      <trkpt lat="42.62851" lon="1.94392">
        <ele>1943.4</ele>
        <time>2021-08-02T13:33:48.000Z</time>
      </trkpt>
      <trkpt lat="42.62851" lon="1.94392">
        <ele>1943</ele>
        <time>2021-08-02T13:38:21.000Z</time>
      </trkpt>
      <trkpt lat="42.62851" lon="1.94392">
        <ele>1943</ele>
        <time>2021-08-02T13:38:22.000Z</time>
      </trkpt>
      <trkpt lat="42.62852" lon="1.94392">
        <ele>1942.7</ele>
        <time>2021-08-02T13:44:17.000Z</time>
      </trkpt>
      <trkpt lat="42.62852" lon="1.94392">
        <ele>1942.5</ele>
        <time>2021-08-02T13:44:18.000Z</time>
      </trkpt>
      <trkpt lat="42.62852" lon="1.94392">
        <ele>1942.3</ele>
        <time>2021-08-02T13:47:46.000Z</time>
      </trkpt>
      <trkpt lat="42.62852" lon="1.94392">
        <ele>1942.2</ele>
        <time>2021-08-02T13:47:47.000Z</time>
      </trkpt>
      <trkpt lat="42.62852" lon="1.94391">
        <ele>1941.6</ele>
        <time>2021-08-02T13:52:51.000Z</time>
      </trkpt>
      <trkpt lat="42.62852" lon="1.94391">
        <ele>1941.5</ele>
        <time>2021-08-02T13:52:52.000Z</time>
      </trkpt>
      <trkpt lat="42.62852" lon="1.94391">
        <ele>1942.1</ele>
        <time>2021-08-02T13:54:07.000Z</time>
      </trkpt>
      <trkpt lat="42.62851" lon="1.94392">
        <ele>1942.6</ele>
        <time>2021-08-02T13:54:11.000Z</time>
      </trkpt>
      <trkpt lat="42.62851" lon="1.94392">
        <ele>1942.7</ele>
        <time>2021-08-02T13:54:14.000Z</time>
      </trkpt>
      <trkpt lat="42.62851" lon="1.94392">
        <ele>1942.8</ele>
        <time>2021-08-02T13:54:16.000Z</time>
      </trkpt>
      <trkpt lat="42.62851" lon="1.94392">
        <ele>1942.1</ele>
        <time>2021-08-02T13:54:19.000Z</time>
      </trkpt>
      <trkpt lat="42.62851" lon="1.94392">
        <ele>1942.4</ele>
        <time>2021-08-02T13:54:22.000Z</time>
      </trkpt>
      <trkpt lat="42.62851" lon="1.94391">
        <ele>1942.5</ele>
        <time>2021-08-02T13:54:24.000Z</time>
      </trkpt>
      <trkpt lat="42.62851" lon="1.94392">
        <ele>1942</ele>
        <time>2021-08-02T13:54:28.000Z</time>
      </trkpt>
      <trkpt lat="42.62851" lon="1.94392">
        <ele>1942.2</ele>
        <time>2021-08-02T13:54:30.000Z</time>
      </trkpt>
      <trkpt lat="42.62849" lon="1.94393">
        <ele>1943</ele>
        <time>2021-08-02T13:54:35.000Z</time>
      </trkpt>
      <trkpt lat="42.62849" lon="1.94393">
        <ele>1942.9</ele>
        <time>2021-08-02T13:54:43.000Z</time>
      </trkpt>
      <trkpt lat="42.62849" lon="1.94395">
        <ele>1942.8</ele>
        <time>2021-08-02T13:54:48.000Z</time>
      </trkpt>
      <trkpt lat="42.62849" lon="1.94395">
        <ele>1942.8</ele>
        <time>2021-08-02T13:54:56.000Z</time>
      </trkpt>
      <trkpt lat="42.62851" lon="1.94401">
        <ele>1942.8</ele>
        <time>2021-08-02T13:55:07.000Z</time>
      </trkpt>
      <trkpt lat="42.62851" lon="1.94402">
        <ele>1942.6</ele>
        <time>2021-08-02T13:55:10.000Z</time>
      </trkpt>
      <trkpt lat="42.62856" lon="1.94412">
        <ele>1945.2</ele>
        <time>2021-08-02T13:55:33.000Z</time>
      </trkpt>
      <trkpt lat="42.62863" lon="1.9442">
        <ele>1948.5</ele>
        <time>2021-08-02T13:55:51.000Z</time>
      </trkpt>
      <trkpt lat="42.62866" lon="1.94428">
        <ele>1952.3</ele>
        <time>2021-08-02T13:56:11.000Z</time>
      </trkpt>
      <trkpt lat="42.62866" lon="1.94428">
        <ele>1952.9</ele>
        <time>2021-08-02T13:56:13.000Z</time>
      </trkpt>
      <trkpt lat="42.62856" lon="1.94428">
        <ele>1953.7</ele>
        <time>2021-08-02T13:56:27.000Z</time>
      </trkpt>
      <trkpt lat="42.62847" lon="1.9443">
        <ele>1955.2</ele>
        <time>2021-08-02T13:56:44.000Z</time>
      </trkpt>
      <trkpt lat="42.62838" lon="1.94432">
        <ele>1957.1</ele>
        <time>2021-08-02T13:56:59.000Z</time>
      </trkpt>
      <trkpt lat="42.62829" lon="1.94436">
        <ele>1958.6</ele>
        <time>2021-08-02T13:57:14.000Z</time>
      </trkpt>
      <trkpt lat="42.62824" lon="1.94444">
        <ele>1961.9</ele>
        <time>2021-08-02T13:57:32.000Z</time>
      </trkpt>
      <trkpt lat="42.62824" lon="1.94444">
        <ele>1962.2</ele>
        <time>2021-08-02T13:57:33.000Z</time>
      </trkpt>
      <trkpt lat="42.62825" lon="1.94447">
        <ele>1962.6</ele>
        <time>2021-08-02T13:57:39.000Z</time>
      </trkpt>
      <trkpt lat="42.62825" lon="1.94446">
        <ele>1962.6</ele>
        <time>2021-08-02T13:57:41.000Z</time>
      </trkpt>
      <trkpt lat="42.62826" lon="1.94447">
        <ele>1962.2</ele>
        <time>2021-08-02T13:57:45.000Z</time>
      </trkpt>
      <trkpt lat="42.62826" lon="1.94447">
        <ele>1962.1</ele>
        <time>2021-08-02T13:57:48.000Z</time>
      </trkpt>
      <trkpt lat="42.62826" lon="1.94447">
        <ele>1962.2</ele>
        <time>2021-08-02T13:57:49.000Z</time>
      </trkpt>
      <trkpt lat="42.62826" lon="1.94447">
        <ele>1962.2</ele>
        <time>2021-08-02T13:57:55.000Z</time>
      </trkpt>
      <trkpt lat="42.62826" lon="1.94447">
        <ele>1962.2</ele>
        <time>2021-08-02T13:57:57.000Z</time>
      </trkpt>
      <trkpt lat="42.62826" lon="1.94446">
        <ele>1962.4</ele>
        <time>2021-08-02T13:58:00.000Z</time>
      </trkpt>
      <trkpt lat="42.62825" lon="1.94446">
        <ele>1961.6</ele>
        <time>2021-08-02T13:58:07.000Z</time>
      </trkpt>
      <trkpt lat="42.62825" lon="1.94446">
        <ele>1961.6</ele>
        <time>2021-08-02T13:58:50.000Z</time>
      </trkpt>
      <trkpt lat="42.62825" lon="1.94446">
        <ele>1961.6</ele>
        <time>2021-08-02T13:58:51.000Z</time>
      </trkpt>
      <trkpt lat="42.62825" lon="1.94446">
        <ele>1961.7</ele>
        <time>2021-08-02T13:59:19.000Z</time>
      </trkpt>
      <trkpt lat="42.62823" lon="1.94448">
        <ele>1961.6</ele>
        <time>2021-08-02T13:59:28.000Z</time>
      </trkpt>
      <trkpt lat="42.62824" lon="1.94448">
        <ele>1960.7</ele>
        <time>2021-08-02T14:00:26.000Z</time>
      </trkpt>
      <trkpt lat="42.62824" lon="1.94448">
        <ele>1960.7</ele>
        <time>2021-08-02T14:00:27.000Z</time>
      </trkpt>
      <trkpt lat="42.62824" lon="1.94448">
        <ele>1961.5</ele>
        <time>2021-08-02T14:02:10.000Z</time>
      </trkpt>
      <trkpt lat="42.62824" lon="1.94448">
        <ele>1961.1</ele>
        <time>2021-08-02T14:02:11.000Z</time>
      </trkpt>
      <trkpt lat="42.62824" lon="1.94448">
        <ele>1961.6</ele>
        <time>2021-08-02T14:02:13.000Z</time>
      </trkpt>
      <trkpt lat="42.62824" lon="1.94448">
        <ele>1961.8</ele>
        <time>2021-08-02T14:02:14.000Z</time>
      </trkpt>
      <trkpt lat="42.62824" lon="1.94448">
        <ele>1961.1</ele>
        <time>2021-08-02T14:02:18.000Z</time>
      </trkpt>
      <trkpt lat="42.62824" lon="1.94447">
        <ele>1963.2</ele>
        <time>2021-08-02T14:02:21.000Z</time>
      </trkpt>
      <trkpt lat="42.62824" lon="1.94447">
        <ele>1962.4</ele>
        <time>2021-08-02T14:02:23.000Z</time>
      </trkpt>
      <trkpt lat="42.62824" lon="1.94447">
        <ele>1962.3</ele>
        <time>2021-08-02T14:02:24.000Z</time>
      </trkpt>
      <trkpt lat="42.62824" lon="1.94447">
        <ele>1962.3</ele>
        <time>2021-08-02T14:02:31.000Z</time>
      </trkpt>
      <trkpt lat="42.62824" lon="1.94447">
        <ele>1962.3</ele>
        <time>2021-08-02T14:02:32.000Z</time>
      </trkpt>
      <trkpt lat="42.62824" lon="1.94447">
        <ele>1962.3</ele>
        <time>2021-08-02T14:02:32.000Z</time>
      </trkpt>
      <trkpt lat="42.62658" lon="1.94416">
        <ele>2006.8</ele>
        <time>2021-08-03T05:53:26.000Z</time>
      </trkpt>
      <trkpt lat="42.62658" lon="1.94416">
        <ele>2007</ele>
        <time>2021-08-03T05:53:27.000Z</time>
      </trkpt>
      <trkpt lat="42.62659" lon="1.94416">
        <ele>2007.2</ele>
        <time>2021-08-03T05:53:29.000Z</time>
      </trkpt>
      <trkpt lat="42.62658" lon="1.94416">
        <ele>2007.6</ele>
        <time>2021-08-03T05:53:31.000Z</time>
      </trkpt>
      <trkpt lat="42.62659" lon="1.94415">
        <ele>2007.4</ele>
        <time>2021-08-03T05:53:34.000Z</time>
      </trkpt>
      <trkpt lat="42.62659" lon="1.94414">
        <ele>2008.4</ele>
        <time>2021-08-03T05:53:37.000Z</time>
      </trkpt>
      <trkpt lat="42.62659" lon="1.94414">
        <ele>2008.8</ele>
        <time>2021-08-03T05:53:38.000Z</time>
      </trkpt>
      <trkpt lat="42.62659" lon="1.94414">
        <ele>2008.8</ele>
        <time>2021-08-03T05:53:39.000Z</time>
      </trkpt>
      <trkpt lat="42.62659" lon="1.94414">
        <ele>2007.9</ele>
        <time>2021-08-03T05:53:41.000Z</time>
      </trkpt>
      <trkpt lat="42.62659" lon="1.94414">
        <ele>2007.6</ele>
        <time>2021-08-03T05:53:42.000Z</time>
      </trkpt>
      <trkpt lat="42.6266" lon="1.94414">
        <ele>2006.5</ele>
        <time>2021-08-03T05:53:53.000Z</time>
      </trkpt>
      <trkpt lat="42.6266" lon="1.94414">
        <ele>2006.6</ele>
        <time>2021-08-03T05:53:54.000Z</time>
      </trkpt>
      <trkpt lat="42.6266" lon="1.94414">
        <ele>2006.4</ele>
        <time>2021-08-03T05:53:57.000Z</time>
      </trkpt>
      <trkpt lat="42.6266" lon="1.94414">
        <ele>2006.5</ele>
        <time>2021-08-03T05:53:58.000Z</time>
      </trkpt>
      <trkpt lat="42.6266" lon="1.94414">
        <ele>2006.8</ele>
        <time>2021-08-03T05:54:03.000Z</time>
      </trkpt>
      <trkpt lat="42.6266" lon="1.94413">
        <ele>2006.6</ele>
        <time>2021-08-03T05:54:04.000Z</time>
      </trkpt>
      <trkpt lat="42.6266" lon="1.94414">
        <ele>2006.4</ele>
        <time>2021-08-03T05:54:05.000Z</time>
      </trkpt>
      <trkpt lat="42.62664" lon="1.94417">
        <ele>2006.5</ele>
        <time>2021-08-03T05:54:13.000Z</time>
      </trkpt>
      <trkpt lat="42.62664" lon="1.94417">
        <ele>2006.5</ele>
        <time>2021-08-03T05:54:13.000Z</time>
      </trkpt>
      <trkpt lat="42.62664" lon="1.94417">
        <ele>2008</ele>
        <time>2021-08-03T05:54:24.000Z</time>
      </trkpt>
      <trkpt lat="42.62664" lon="1.94417">
        <ele>2008.4</ele>
        <time>2021-08-03T05:54:25.000Z</time>
      </trkpt>
      <trkpt lat="42.62664" lon="1.94417">
        <ele>2013.2</ele>
        <time>2021-08-03T05:55:17.000Z</time>
      </trkpt>
      <trkpt lat="42.62664" lon="1.94417">
        <ele>2013.4</ele>
        <time>2021-08-03T05:55:18.000Z</time>
      </trkpt>
      <trkpt lat="42.62664" lon="1.94417">
        <ele>2013.7</ele>
        <time>2021-08-03T05:55:38.000Z</time>
      </trkpt>
      <trkpt lat="42.62664" lon="1.94417">
        <ele>2013.8</ele>
        <time>2021-08-03T05:55:39.000Z</time>
      </trkpt>
      <trkpt lat="42.62664" lon="1.94417">
        <ele>2013.2</ele>
        <time>2021-08-03T06:00:54.000Z</time>
      </trkpt>
      <trkpt lat="42.62664" lon="1.94417">
        <ele>2013.2</ele>
        <time>2021-08-03T06:00:55.000Z</time>
      </trkpt>
      <trkpt lat="42.62664" lon="1.94417">
        <ele>2012.6</ele>
        <time>2021-08-03T06:01:45.000Z</time>
      </trkpt>
      <trkpt lat="42.62664" lon="1.94417">
        <ele>2012.6</ele>
        <time>2021-08-03T06:01:46.000Z</time>
      </trkpt>
      <trkpt lat="42.62664" lon="1.94416">
        <ele>2002.7</ele>
        <time>2021-08-03T06:03:25.000Z</time>
      </trkpt>
      <trkpt lat="42.62664" lon="1.94416">
        <ele>2008.7</ele>
        <time>2021-08-03T06:03:26.000Z</time>
      </trkpt>
      <trkpt lat="42.62664" lon="1.94415">
        <ele>2010.7</ele>
        <time>2021-08-03T06:03:29.000Z</time>
      </trkpt>
      <trkpt lat="42.62664" lon="1.94415">
        <ele>2010.4</ele>
        <time>2021-08-03T06:03:30.000Z</time>
      </trkpt>
      <trkpt lat="42.62664" lon="1.94415">
        <ele>2010.6</ele>
        <time>2021-08-03T06:03:31.000Z</time>
      </trkpt>
      <trkpt lat="42.62664" lon="1.94415">
        <ele>2011.9</ele>
        <time>2021-08-03T06:03:33.000Z</time>
      </trkpt>
      <trkpt lat="42.62664" lon="1.94415">
        <ele>2010.5</ele>
        <time>2021-08-03T06:03:34.000Z</time>
      </trkpt>
      <trkpt lat="42.62664" lon="1.94415">
        <ele>2005.7</ele>
        <time>2021-08-03T06:03:36.000Z</time>
      </trkpt>
      <trkpt lat="42.62664" lon="1.94415">
        <ele>2005</ele>
        <time>2021-08-03T06:03:38.000Z</time>
      </trkpt>
      <trkpt lat="42.62664" lon="1.94415">
        <ele>2006.6</ele>
        <time>2021-08-03T06:03:39.000Z</time>
      </trkpt>
      <trkpt lat="42.62664" lon="1.94415">
        <ele>2010.5</ele>
        <time>2021-08-03T06:03:44.000Z</time>
      </trkpt>
      <trkpt lat="42.62664" lon="1.94415">
        <ele>2010.7</ele>
        <time>2021-08-03T06:03:45.000Z</time>
      </trkpt>
      <trkpt lat="42.62664" lon="1.94414">
        <ele>2011.4</ele>
        <time>2021-08-03T06:03:47.000Z</time>
      </trkpt>
      <trkpt lat="42.62664" lon="1.94414">
        <ele>2011.4</ele>
        <time>2021-08-03T06:03:48.000Z</time>
      </trkpt>
      <trkpt lat="42.62664" lon="1.94414">
        <ele>2011.1</ele>
        <time>2021-08-03T06:03:49.000Z</time>
      </trkpt>
      <trkpt lat="42.62664" lon="1.94414">
        <ele>2010</ele>
        <time>2021-08-03T06:03:51.000Z</time>
      </trkpt>
      <trkpt lat="42.62664" lon="1.94414">
        <ele>2009.6</ele>
        <time>2021-08-03T06:04:48.000Z</time>
      </trkpt>
      <trkpt lat="42.62664" lon="1.94414">
        <ele>2009.9</ele>
        <time>2021-08-03T06:04:49.000Z</time>
      </trkpt>
      <trkpt lat="42.62664" lon="1.94414">
        <ele>2010.5</ele>
        <time>2021-08-03T06:04:57.000Z</time>
      </trkpt>
      <trkpt lat="42.62664" lon="1.94414">
        <ele>2010.6</ele>
        <time>2021-08-03T06:05:00.000Z</time>
      </trkpt>
      <trkpt lat="42.62663" lon="1.94414">
        <ele>2010.1</ele>
        <time>2021-08-03T06:05:02.000Z</time>
      </trkpt>
      <trkpt lat="42.62665" lon="1.94412">
        <ele>2009.8</ele>
        <time>2021-08-03T06:05:08.000Z</time>
      </trkpt>
      <trkpt lat="42.62665" lon="1.94412">
        <ele>2009.8</ele>
        <time>2021-08-03T06:05:09.000Z</time>
      </trkpt>
      <trkpt lat="42.62665" lon="1.94412">
        <ele>2009.8</ele>
        <time>2021-08-03T06:05:10.000Z</time>
      </trkpt>
      <trkpt lat="42.62665" lon="1.94412">
        <ele>2009.8</ele>
        <time>2021-08-03T06:05:13.000Z</time>
      </trkpt>
      <trkpt lat="42.62665" lon="1.94412">
        <ele>2009.9</ele>
        <time>2021-08-03T06:05:14.000Z</time>
      </trkpt>
      <trkpt lat="42.62665" lon="1.94412">
        <ele>2010.1</ele>
        <time>2021-08-03T06:05:16.000Z</time>
      </trkpt>
      <trkpt lat="42.62665" lon="1.94412">
        <ele>2010</ele>
        <time>2021-08-03T06:05:17.000Z</time>
      </trkpt>
      <trkpt lat="42.62665" lon="1.94413">
        <ele>2009.8</ele>
        <time>2021-08-03T06:05:18.000Z</time>
      </trkpt>
      <trkpt lat="42.62665" lon="1.94413">
        <ele>2010.1</ele>
        <time>2021-08-03T06:05:20.000Z</time>
      </trkpt>
      <trkpt lat="42.62665" lon="1.94413">
        <ele>2009.6</ele>
        <time>2021-08-03T06:05:22.000Z</time>
      </trkpt>
      <trkpt lat="42.62665" lon="1.94413">
        <ele>2010.3</ele>
        <time>2021-08-03T06:05:25.000Z</time>
      </trkpt>
      <trkpt lat="42.62665" lon="1.94413">
        <ele>2010.1</ele>
        <time>2021-08-03T06:05:26.000Z</time>
      </trkpt>
      <trkpt lat="42.62663" lon="1.94416">
        <ele>2009.8</ele>
        <time>2021-08-03T06:05:38.000Z</time>
      </trkpt>
      <trkpt lat="42.62663" lon="1.94416">
        <ele>2009.9</ele>
        <time>2021-08-03T06:05:41.000Z</time>
      </trkpt>
      <trkpt lat="42.62663" lon="1.94416">
        <ele>2009.9</ele>
        <time>2021-08-03T06:05:42.000Z</time>
      </trkpt>
      <trkpt lat="42.62663" lon="1.94416">
        <ele>2009.3</ele>
        <time>2021-08-03T06:06:18.000Z</time>
      </trkpt>
      <trkpt lat="42.62663" lon="1.94416">
        <ele>2009.2</ele>
        <time>2021-08-03T06:06:19.000Z</time>
      </trkpt>
      <trkpt lat="42.62663" lon="1.94415">
        <ele>2009.1</ele>
        <time>2021-08-03T06:06:21.000Z</time>
      </trkpt>
      <trkpt lat="42.62662" lon="1.94415">
        <ele>2009.2</ele>
        <time>2021-08-03T06:06:24.000Z</time>
      </trkpt>
      <trkpt lat="42.62662" lon="1.94415">
        <ele>2009.2</ele>
        <time>2021-08-03T06:06:26.000Z</time>
      </trkpt>
      <trkpt lat="42.62662" lon="1.94415">
        <ele>2009.2</ele>
        <time>2021-08-03T06:06:27.000Z</time>
      </trkpt>
      <trkpt lat="42.62662" lon="1.94415">
        <ele>2009.1</ele>
        <time>2021-08-03T06:06:31.000Z</time>
      </trkpt>
      <trkpt lat="42.62662" lon="1.94415">
        <ele>2009.1</ele>
        <time>2021-08-03T06:06:32.000Z</time>
      </trkpt>
      <trkpt lat="42.62662" lon="1.94415">
        <ele>2008.8</ele>
        <time>2021-08-03T06:06:40.000Z</time>
      </trkpt>
      <trkpt lat="42.62662" lon="1.94415">
        <ele>2008.8</ele>
        <time>2021-08-03T06:06:43.000Z</time>
      </trkpt>
      <trkpt lat="42.62661" lon="1.94414">
        <ele>2008.6</ele>
        <time>2021-08-03T06:07:03.000Z</time>
      </trkpt>
      <trkpt lat="42.62661" lon="1.94414">
        <ele>2008.6</ele>
        <time>2021-08-03T06:07:04.000Z</time>
      </trkpt>
      <trkpt lat="42.62662" lon="1.94414">
        <ele>2008.6</ele>
        <time>2021-08-03T06:07:05.000Z</time>
      </trkpt>
      <trkpt lat="42.62662" lon="1.94414">
        <ele>2008.4</ele>
        <time>2021-08-03T06:07:06.000Z</time>
      </trkpt>
      <trkpt lat="42.62661" lon="1.94414">
        <ele>2008.6</ele>
        <time>2021-08-03T06:07:08.000Z</time>
      </trkpt>
      <trkpt lat="42.62662" lon="1.94414">
        <ele>2008.5</ele>
        <time>2021-08-03T06:07:10.000Z</time>
      </trkpt>
      <trkpt lat="42.62661" lon="1.94414">
        <ele>2007.2</ele>
        <time>2021-08-03T06:08:20.000Z</time>
      </trkpt>
      <trkpt lat="42.62661" lon="1.94414">
        <ele>2007.3</ele>
        <time>2021-08-03T06:08:21.000Z</time>
      </trkpt>
      <trkpt lat="42.62661" lon="1.94414">
        <ele>2007.3</ele>
        <time>2021-08-03T06:08:29.000Z</time>
      </trkpt>
      <trkpt lat="42.62654" lon="1.94406">
        <ele>2007.3</ele>
        <time>2021-08-03T06:08:46.000Z</time>
      </trkpt>
      <trkpt lat="42.62646" lon="1.94398">
        <ele>2007</ele>
        <time>2021-08-03T06:08:57.000Z</time>
      </trkpt>
      <trkpt lat="42.62637" lon="1.94396">
        <ele>2007.4</ele>
        <time>2021-08-03T06:09:12.000Z</time>
      </trkpt>
      <trkpt lat="42.62628" lon="1.94392">
        <ele>2007.7</ele>
        <time>2021-08-03T06:09:26.000Z</time>
      </trkpt>
      <trkpt lat="42.62626" lon="1.94379">
        <ele>2008</ele>
        <time>2021-08-03T06:09:35.000Z</time>
      </trkpt>
      <trkpt lat="42.62623" lon="1.94367">
        <ele>2008.3</ele>
        <time>2021-08-03T06:09:45.000Z</time>
      </trkpt>
      <trkpt lat="42.62619" lon="1.94356">
        <ele>2008.5</ele>
        <time>2021-08-03T06:09:56.000Z</time>
      </trkpt>
      <trkpt lat="42.62613" lon="1.94346">
        <ele>2008.2</ele>
        <time>2021-08-03T06:10:06.000Z</time>
      </trkpt>
      <trkpt lat="42.6261" lon="1.94335">
        <ele>2007.8</ele>
        <time>2021-08-03T06:10:16.000Z</time>
      </trkpt>
      <trkpt lat="42.62603" lon="1.94325">
        <ele>2007</ele>
        <time>2021-08-03T06:10:29.000Z</time>
      </trkpt>
      <trkpt lat="42.62596" lon="1.94316">
        <ele>2006.5</ele>
        <time>2021-08-03T06:10:40.000Z</time>
      </trkpt>
      <trkpt lat="42.62591" lon="1.94306">
        <ele>2006.1</ele>
        <time>2021-08-03T06:10:50.000Z</time>
      </trkpt>
      <trkpt lat="42.62586" lon="1.94296">
        <ele>2005.4</ele>
        <time>2021-08-03T06:11:00.000Z</time>
      </trkpt>
      <trkpt lat="42.62582" lon="1.94284">
        <ele>2004.9</ele>
        <time>2021-08-03T06:11:10.000Z</time>
      </trkpt>
      <trkpt lat="42.62578" lon="1.94273">
        <ele>2004.3</ele>
        <time>2021-08-03T06:11:22.000Z</time>
      </trkpt>
      <trkpt lat="42.62573" lon="1.94263">
        <ele>2003.3</ele>
        <time>2021-08-03T06:11:32.000Z</time>
      </trkpt>
      <trkpt lat="42.62569" lon="1.94252">
        <ele>2002.9</ele>
        <time>2021-08-03T06:11:41.000Z</time>
      </trkpt>
      <trkpt lat="42.62567" lon="1.9424">
        <ele>2002.1</ele>
        <time>2021-08-03T06:11:51.000Z</time>
      </trkpt>
      <trkpt lat="42.62567" lon="1.94239">
        <ele>2002.1</ele>
        <time>2021-08-03T06:11:53.000Z</time>
      </trkpt>
      <trkpt lat="42.62567" lon="1.94239">
        <ele>2002</ele>
        <time>2021-08-03T06:12:01.000Z</time>
      </trkpt>
      <trkpt lat="42.62565" lon="1.94227">
        <ele>2002.1</ele>
        <time>2021-08-03T06:12:15.000Z</time>
      </trkpt>
      <trkpt lat="42.62562" lon="1.94215">
        <ele>2001.1</ele>
        <time>2021-08-03T06:12:26.000Z</time>
      </trkpt>
      <trkpt lat="42.6256" lon="1.94202">
        <ele>2000.1</ele>
        <time>2021-08-03T06:12:38.000Z</time>
      </trkpt>
      <trkpt lat="42.62561" lon="1.94188">
        <ele>1999.3</ele>
        <time>2021-08-03T06:12:49.000Z</time>
      </trkpt>
      <trkpt lat="42.62561" lon="1.94176">
        <ele>1998</ele>
        <time>2021-08-03T06:13:00.000Z</time>
      </trkpt>
      <trkpt lat="42.62561" lon="1.94162">
        <ele>1997.7</ele>
        <time>2021-08-03T06:13:10.000Z</time>
      </trkpt>
      <trkpt lat="42.6256" lon="1.94149">
        <ele>1996.9</ele>
        <time>2021-08-03T06:13:20.000Z</time>
      </trkpt>
      <trkpt lat="42.62561" lon="1.94136">
        <ele>1996.2</ele>
        <time>2021-08-03T06:13:31.000Z</time>
      </trkpt>
      <trkpt lat="42.62562" lon="1.94123">
        <ele>1996.3</ele>
        <time>2021-08-03T06:13:43.000Z</time>
      </trkpt>
      <trkpt lat="42.62559" lon="1.94112">
        <ele>1995.9</ele>
        <time>2021-08-03T06:13:54.000Z</time>
      </trkpt>
      <trkpt lat="42.62561" lon="1.94099">
        <ele>1995.8</ele>
        <time>2021-08-03T06:14:07.000Z</time>
      </trkpt>
      <trkpt lat="42.62559" lon="1.94087">
        <ele>1995</ele>
        <time>2021-08-03T06:14:25.000Z</time>
      </trkpt>
      <trkpt lat="42.62558" lon="1.94074">
        <ele>1995.2</ele>
        <time>2021-08-03T06:14:39.000Z</time>
      </trkpt>
      <trkpt lat="42.62555" lon="1.94062">
        <ele>1995.8</ele>
        <time>2021-08-03T06:14:53.000Z</time>
      </trkpt>
      <trkpt lat="42.62554" lon="1.94058">
        <ele>1996</ele>
        <time>2021-08-03T06:14:58.000Z</time>
      </trkpt>
      <trkpt lat="42.62554" lon="1.94058">
        <ele>1996.6</ele>
        <time>2021-08-03T06:15:13.000Z</time>
      </trkpt>
      <trkpt lat="42.62548" lon="1.94049">
        <ele>1996.9</ele>
        <time>2021-08-03T06:15:26.000Z</time>
      </trkpt>
      <trkpt lat="42.62546" lon="1.94036">
        <ele>1997.8</ele>
        <time>2021-08-03T06:15:39.000Z</time>
      </trkpt>
      <trkpt lat="42.62546" lon="1.94023">
        <ele>1998.4</ele>
        <time>2021-08-03T06:15:51.000Z</time>
      </trkpt>
      <trkpt lat="42.62542" lon="1.94011">
        <ele>1998.7</ele>
        <time>2021-08-03T06:16:01.000Z</time>
      </trkpt>
      <trkpt lat="42.62539" lon="1.93998">
        <ele>1998.7</ele>
        <time>2021-08-03T06:16:11.000Z</time>
      </trkpt>
      <trkpt lat="42.62535" lon="1.93987">
        <ele>1998.9</ele>
        <time>2021-08-03T06:16:21.000Z</time>
      </trkpt>
      <trkpt lat="42.62532" lon="1.93975">
        <ele>1998.8</ele>
        <time>2021-08-03T06:16:31.000Z</time>
      </trkpt>
      <trkpt lat="42.62528" lon="1.93963">
        <ele>1998.8</ele>
        <time>2021-08-03T06:16:41.000Z</time>
      </trkpt>
      <trkpt lat="42.62527" lon="1.93951">
        <ele>1998.8</ele>
        <time>2021-08-03T06:16:51.000Z</time>
      </trkpt>
      <trkpt lat="42.62524" lon="1.93938">
        <ele>1998.7</ele>
        <time>2021-08-03T06:17:03.000Z</time>
      </trkpt>
      <trkpt lat="42.62521" lon="1.93926">
        <ele>1998.5</ele>
        <time>2021-08-03T06:17:17.000Z</time>
      </trkpt>
      <trkpt lat="42.62515" lon="1.93917">
        <ele>1997.8</ele>
        <time>2021-08-03T06:17:32.000Z</time>
      </trkpt>
      <trkpt lat="42.62509" lon="1.93906">
        <ele>1997</ele>
        <time>2021-08-03T06:17:49.000Z</time>
      </trkpt>
      <trkpt lat="42.62504" lon="1.93896">
        <ele>1995.6</ele>
        <time>2021-08-03T06:18:02.000Z</time>
      </trkpt>
      <trkpt lat="42.62499" lon="1.93885">
        <ele>1994.2</ele>
        <time>2021-08-03T06:18:14.000Z</time>
      </trkpt>
      <trkpt lat="42.62494" lon="1.93875">
        <ele>1992.9</ele>
        <time>2021-08-03T06:18:25.000Z</time>
      </trkpt>
      <trkpt lat="42.62488" lon="1.93864">
        <ele>1991.7</ele>
        <time>2021-08-03T06:18:37.000Z</time>
      </trkpt>
      <trkpt lat="42.62483" lon="1.93853">
        <ele>1990.6</ele>
        <time>2021-08-03T06:18:49.000Z</time>
      </trkpt>
      <trkpt lat="42.62478" lon="1.93843">
        <ele>1989.5</ele>
        <time>2021-08-03T06:19:02.000Z</time>
      </trkpt>
      <trkpt lat="42.62472" lon="1.93834">
        <ele>1987.9</ele>
        <time>2021-08-03T06:19:17.000Z</time>
      </trkpt>
      <trkpt lat="42.62466" lon="1.93829">
        <ele>1988.1</ele>
        <time>2021-08-03T06:19:30.000Z</time>
      </trkpt>
      <trkpt lat="42.62466" lon="1.93829">
        <ele>1983.9</ele>
        <time>2021-08-03T06:20:24.000Z</time>
      </trkpt>
      <trkpt lat="42.62465" lon="1.93829">
        <ele>1984.1</ele>
        <time>2021-08-03T06:20:28.000Z</time>
      </trkpt>
      <trkpt lat="42.62465" lon="1.93829">
        <ele>1984</ele>
        <time>2021-08-03T06:20:37.000Z</time>
      </trkpt>
      <trkpt lat="42.62465" lon="1.93829">
        <ele>1983.9</ele>
        <time>2021-08-03T06:20:39.000Z</time>
      </trkpt>
      <trkpt lat="42.62465" lon="1.93829">
        <ele>1983.9</ele>
        <time>2021-08-03T06:20:42.000Z</time>
      </trkpt>
      <trkpt lat="42.62465" lon="1.93829">
        <ele>1983.9</ele>
        <time>2021-08-03T06:20:43.000Z</time>
      </trkpt>
      <trkpt lat="42.62465" lon="1.93829">
        <ele>1983.8</ele>
        <time>2021-08-03T06:20:52.000Z</time>
      </trkpt>
      <trkpt lat="42.62465" lon="1.93829">
        <ele>1983.9</ele>
        <time>2021-08-03T06:20:53.000Z</time>
      </trkpt>
      <trkpt lat="42.62465" lon="1.93829">
        <ele>1983.4</ele>
        <time>2021-08-03T06:21:39.000Z</time>
      </trkpt>
      <trkpt lat="42.62465" lon="1.93829">
        <ele>1983.4</ele>
        <time>2021-08-03T06:21:40.000Z</time>
      </trkpt>
      <trkpt lat="42.62465" lon="1.93829">
        <ele>1983.6</ele>
        <time>2021-08-03T06:22:15.000Z</time>
      </trkpt>
      <trkpt lat="42.62465" lon="1.93829">
        <ele>1983.4</ele>
        <time>2021-08-03T06:22:16.000Z</time>
      </trkpt>
      <trkpt lat="42.62464" lon="1.93829">
        <ele>1983.2</ele>
        <time>2021-08-03T06:22:23.000Z</time>
      </trkpt>
      <trkpt lat="42.62462" lon="1.93824">
        <ele>1982.9</ele>
        <time>2021-08-03T06:22:31.000Z</time>
      </trkpt>
      <trkpt lat="42.62462" lon="1.93824">
        <ele>1982.1</ele>
        <time>2021-08-03T06:23:12.000Z</time>
      </trkpt>
      <trkpt lat="42.62462" lon="1.93824">
        <ele>1982</ele>
        <time>2021-08-03T06:23:15.000Z</time>
      </trkpt>
      <trkpt lat="42.62462" lon="1.93824">
        <ele>1981.7</ele>
        <time>2021-08-03T06:23:21.000Z</time>
      </trkpt>
      <trkpt lat="42.6246" lon="1.93821">
        <ele>1981.6</ele>
        <time>2021-08-03T06:23:29.000Z</time>
      </trkpt>
      <trkpt lat="42.6246" lon="1.93821">
        <ele>1981.8</ele>
        <time>2021-08-03T06:23:34.000Z</time>
      </trkpt>
      <trkpt lat="42.62459" lon="1.93821">
        <ele>1981.3</ele>
        <time>2021-08-03T06:23:38.000Z</time>
      </trkpt>
      <trkpt lat="42.62459" lon="1.93821">
        <ele>1981.3</ele>
        <time>2021-08-03T06:23:40.000Z</time>
      </trkpt>
      <trkpt lat="42.62459" lon="1.9382">
        <ele>1981.4</ele>
        <time>2021-08-03T06:23:41.000Z</time>
      </trkpt>
      <trkpt lat="42.62459" lon="1.9382">
        <ele>1981.4</ele>
        <time>2021-08-03T06:23:42.000Z</time>
      </trkpt>
      <trkpt lat="42.62459" lon="1.9382">
        <ele>1981.3</ele>
        <time>2021-08-03T06:23:43.000Z</time>
      </trkpt>
      <trkpt lat="42.62458" lon="1.9382">
        <ele>1981.3</ele>
        <time>2021-08-03T06:23:44.000Z</time>
      </trkpt>
      <trkpt lat="42.62454" lon="1.93809">
        <ele>1980.6</ele>
        <time>2021-08-03T06:23:59.000Z</time>
      </trkpt>
      <trkpt lat="42.62448" lon="1.93799">
        <ele>1980.1</ele>
        <time>2021-08-03T06:24:14.000Z</time>
      </trkpt>
      <trkpt lat="42.62445" lon="1.93786">
        <ele>1980.1</ele>
        <time>2021-08-03T06:24:23.000Z</time>
      </trkpt>
      <trkpt lat="42.62441" lon="1.93775">
        <ele>1979.9</ele>
        <time>2021-08-03T06:24:32.000Z</time>
      </trkpt>
      <trkpt lat="42.62436" lon="1.93764">
        <ele>1979.9</ele>
        <time>2021-08-03T06:24:41.000Z</time>
      </trkpt>
      <trkpt lat="42.62431" lon="1.93753">
        <ele>1980.1</ele>
        <time>2021-08-03T06:24:50.000Z</time>
      </trkpt>
      <trkpt lat="42.62426" lon="1.93743">
        <ele>1980.1</ele>
        <time>2021-08-03T06:25:01.000Z</time>
      </trkpt>
      <trkpt lat="42.62418" lon="1.93735">
        <ele>1978.5</ele>
        <time>2021-08-03T06:25:14.000Z</time>
      </trkpt>
      <trkpt lat="42.62412" lon="1.93725">
        <ele>1976.9</ele>
        <time>2021-08-03T06:25:24.000Z</time>
      </trkpt>
      <trkpt lat="42.62407" lon="1.93715">
        <ele>1975.7</ele>
        <time>2021-08-03T06:25:33.000Z</time>
      </trkpt>
      <trkpt lat="42.62402" lon="1.93704">
        <ele>1975.4</ele>
        <time>2021-08-03T06:25:42.000Z</time>
      </trkpt>
      <trkpt lat="42.62394" lon="1.93695">
        <ele>1975.2</ele>
        <time>2021-08-03T06:25:51.000Z</time>
      </trkpt>
      <trkpt lat="42.62387" lon="1.93687">
        <ele>1974.8</ele>
        <time>2021-08-03T06:26:02.000Z</time>
      </trkpt>
      <trkpt lat="42.62387" lon="1.93687">
        <ele>1974.6</ele>
        <time>2021-08-03T06:26:04.000Z</time>
      </trkpt>
      <trkpt lat="42.62386" lon="1.93687">
        <ele>1974.7</ele>
        <time>2021-08-03T06:26:05.000Z</time>
      </trkpt>
      <trkpt lat="42.62377" lon="1.93682">
        <ele>1974.5</ele>
        <time>2021-08-03T06:26:17.000Z</time>
      </trkpt>
      <trkpt lat="42.62369" lon="1.93676">
        <ele>1975</ele>
        <time>2021-08-03T06:26:28.000Z</time>
      </trkpt>
      <trkpt lat="42.62363" lon="1.93666">
        <ele>1975.4</ele>
        <time>2021-08-03T06:26:40.000Z</time>
      </trkpt>
      <trkpt lat="42.62356" lon="1.93656">
        <ele>1976.1</ele>
        <time>2021-08-03T06:26:50.000Z</time>
      </trkpt>
      <trkpt lat="42.62355" lon="1.93644">
        <ele>1978.5</ele>
        <time>2021-08-03T06:27:00.000Z</time>
      </trkpt>
      <trkpt lat="42.62354" lon="1.93632">
        <ele>1980.2</ele>
        <time>2021-08-03T06:27:11.000Z</time>
      </trkpt>
      <trkpt lat="42.62346" lon="1.93624">
        <ele>1981.9</ele>
        <time>2021-08-03T06:27:24.000Z</time>
      </trkpt>
      <trkpt lat="42.62344" lon="1.93611">
        <ele>1983.3</ele>
        <time>2021-08-03T06:27:35.000Z</time>
      </trkpt>
      <trkpt lat="42.6234" lon="1.936">
        <ele>1985.1</ele>
        <time>2021-08-03T06:27:50.000Z</time>
      </trkpt>
      <trkpt lat="42.62334" lon="1.93589">
        <ele>1986.1</ele>
        <time>2021-08-03T06:28:02.000Z</time>
      </trkpt>
      <trkpt lat="42.62331" lon="1.93577">
        <ele>1986.7</ele>
        <time>2021-08-03T06:28:13.000Z</time>
      </trkpt>
      <trkpt lat="42.62327" lon="1.93566">
        <ele>1988.1</ele>
        <time>2021-08-03T06:28:26.000Z</time>
      </trkpt>
      <trkpt lat="42.6232" lon="1.93557">
        <ele>1988.8</ele>
        <time>2021-08-03T06:28:38.000Z</time>
      </trkpt>
      <trkpt lat="42.62314" lon="1.93548">
        <ele>1989.5</ele>
        <time>2021-08-03T06:28:50.000Z</time>
      </trkpt>
      <trkpt lat="42.62307" lon="1.9354">
        <ele>1990.3</ele>
        <time>2021-08-03T06:29:00.000Z</time>
      </trkpt>
      <trkpt lat="42.62304" lon="1.93527">
        <ele>1990.5</ele>
        <time>2021-08-03T06:29:10.000Z</time>
      </trkpt>
      <trkpt lat="42.623" lon="1.93517">
        <ele>1991</ele>
        <time>2021-08-03T06:29:23.000Z</time>
      </trkpt>
      <trkpt lat="42.623" lon="1.93517">
        <ele>1991.2</ele>
        <time>2021-08-03T06:29:26.000Z</time>
      </trkpt>
      <trkpt lat="42.62297" lon="1.93505">
        <ele>1991.8</ele>
        <time>2021-08-03T06:29:37.000Z</time>
      </trkpt>
      <trkpt lat="42.62295" lon="1.93493">
        <ele>1993</ele>
        <time>2021-08-03T06:29:51.000Z</time>
      </trkpt>
      <trkpt lat="42.62297" lon="1.9348">
        <ele>1994.2</ele>
        <time>2021-08-03T06:30:05.000Z</time>
      </trkpt>
      <trkpt lat="42.62297" lon="1.9348">
        <ele>1994.2</ele>
        <time>2021-08-03T06:30:07.000Z</time>
      </trkpt>
      <trkpt lat="42.62297" lon="1.9348">
        <ele>1994.6</ele>
        <time>2021-08-03T06:30:15.000Z</time>
      </trkpt>
      <trkpt lat="42.62297" lon="1.9348">
        <ele>1994.6</ele>
        <time>2021-08-03T06:30:16.000Z</time>
      </trkpt>
      <trkpt lat="42.62296" lon="1.9348">
        <ele>1994.7</ele>
        <time>2021-08-03T06:30:20.000Z</time>
      </trkpt>
      <trkpt lat="42.62289" lon="1.93474">
        <ele>1994.9</ele>
        <time>2021-08-03T06:30:36.000Z</time>
      </trkpt>
      <trkpt lat="42.62289" lon="1.93474">
        <ele>1994.9</ele>
        <time>2021-08-03T06:30:38.000Z</time>
      </trkpt>
      <trkpt lat="42.62289" lon="1.93474">
        <ele>1995</ele>
        <time>2021-08-03T06:30:44.000Z</time>
      </trkpt>
      <trkpt lat="42.62289" lon="1.93474">
        <ele>1995.1</ele>
        <time>2021-08-03T06:30:45.000Z</time>
      </trkpt>
      <trkpt lat="42.62288" lon="1.93474">
        <ele>1995</ele>
        <time>2021-08-03T06:30:48.000Z</time>
      </trkpt>
      <trkpt lat="42.62283" lon="1.93464">
        <ele>1995.6</ele>
        <time>2021-08-03T06:30:57.000Z</time>
      </trkpt>
      <trkpt lat="42.62277" lon="1.93453">
        <ele>1995.5</ele>
        <time>2021-08-03T06:31:06.000Z</time>
      </trkpt>
      <trkpt lat="42.6227" lon="1.93444">
        <ele>1996</ele>
        <time>2021-08-03T06:31:16.000Z</time>
      </trkpt>
      <trkpt lat="42.6226" lon="1.93444">
        <ele>1996.5</ele>
        <time>2021-08-03T06:31:25.000Z</time>
      </trkpt>
      <trkpt lat="42.62251" lon="1.9344">
        <ele>1996.6</ele>
        <time>2021-08-03T06:31:35.000Z</time>
      </trkpt>
      <trkpt lat="42.62243" lon="1.93433">
        <ele>1996.6</ele>
        <time>2021-08-03T06:31:45.000Z</time>
      </trkpt>
      <trkpt lat="42.62242" lon="1.93429">
        <ele>1996.2</ele>
        <time>2021-08-03T06:31:53.000Z</time>
      </trkpt>
      <trkpt lat="42.62241" lon="1.93429">
        <ele>1996.3</ele>
        <time>2021-08-03T06:31:58.000Z</time>
      </trkpt>
      <trkpt lat="42.62241" lon="1.93429">
        <ele>1996.1</ele>
        <time>2021-08-03T06:32:00.000Z</time>
      </trkpt>
      <trkpt lat="42.62241" lon="1.9343">
        <ele>1994.7</ele>
        <time>2021-08-03T06:32:49.000Z</time>
      </trkpt>
      <trkpt lat="42.62241" lon="1.9343">
        <ele>1994.8</ele>
        <time>2021-08-03T06:32:50.000Z</time>
      </trkpt>
      <trkpt lat="42.62241" lon="1.9343">
        <ele>1994.4</ele>
        <time>2021-08-03T06:32:55.000Z</time>
      </trkpt>
      <trkpt lat="42.62248" lon="1.93439">
        <ele>1994.7</ele>
        <time>2021-08-03T06:33:03.000Z</time>
      </trkpt>
      <trkpt lat="42.62252" lon="1.93442">
        <ele>1995</ele>
        <time>2021-08-03T06:33:10.000Z</time>
      </trkpt>
      <trkpt lat="42.62251" lon="1.93442">
        <ele>1995</ele>
        <time>2021-08-03T06:33:16.000Z</time>
      </trkpt>
      <trkpt lat="42.62244" lon="1.93434">
        <ele>1994.9</ele>
        <time>2021-08-03T06:33:28.000Z</time>
      </trkpt>
      <trkpt lat="42.62239" lon="1.93423">
        <ele>1994.6</ele>
        <time>2021-08-03T06:33:38.000Z</time>
      </trkpt>
      <trkpt lat="42.62235" lon="1.93411">
        <ele>1994.2</ele>
        <time>2021-08-03T06:33:47.000Z</time>
      </trkpt>
      <trkpt lat="42.62233" lon="1.93399">
        <ele>1993.5</ele>
        <time>2021-08-03T06:33:58.000Z</time>
      </trkpt>
      <trkpt lat="42.62231" lon="1.93387">
        <ele>1992.9</ele>
        <time>2021-08-03T06:34:08.000Z</time>
      </trkpt>
      <trkpt lat="42.6223" lon="1.93379">
        <ele>1992.3</ele>
        <time>2021-08-03T06:34:16.000Z</time>
      </trkpt>
      <trkpt lat="42.6223" lon="1.93379">
        <ele>1991.7</ele>
        <time>2021-08-03T06:34:25.000Z</time>
      </trkpt>
      <trkpt lat="42.62228" lon="1.93367">
        <ele>1990.7</ele>
        <time>2021-08-03T06:34:35.000Z</time>
      </trkpt>
      <trkpt lat="42.62228" lon="1.93355">
        <ele>1990.2</ele>
        <time>2021-08-03T06:34:44.000Z</time>
      </trkpt>
      <trkpt lat="42.62224" lon="1.93343">
        <ele>1989.9</ele>
        <time>2021-08-03T06:34:54.000Z</time>
      </trkpt>
      <trkpt lat="42.6222" lon="1.93332">
        <ele>1990.1</ele>
        <time>2021-08-03T06:35:06.000Z</time>
      </trkpt>
      <trkpt lat="42.62211" lon="1.93327">
        <ele>1991.2</ele>
        <time>2021-08-03T06:35:22.000Z</time>
      </trkpt>
      <trkpt lat="42.62202" lon="1.93329">
        <ele>1992.3</ele>
        <time>2021-08-03T06:35:35.000Z</time>
      </trkpt>
      <trkpt lat="42.62197" lon="1.9334">
        <ele>1993.6</ele>
        <time>2021-08-03T06:35:47.000Z</time>
      </trkpt>
      <trkpt lat="42.62191" lon="1.93349">
        <ele>1994.6</ele>
        <time>2021-08-03T06:35:58.000Z</time>
      </trkpt>
      <trkpt lat="42.62182" lon="1.93349">
        <ele>1994.9</ele>
        <time>2021-08-03T06:36:08.000Z</time>
      </trkpt>
      <trkpt lat="42.62174" lon="1.93356">
        <ele>1995</ele>
        <time>2021-08-03T06:36:18.000Z</time>
      </trkpt>
      <trkpt lat="42.62164" lon="1.93355">
        <ele>1995.7</ele>
        <time>2021-08-03T06:36:33.000Z</time>
      </trkpt>
      <trkpt lat="42.62156" lon="1.9335">
        <ele>1997</ele>
        <time>2021-08-03T06:36:47.000Z</time>
      </trkpt>
      <trkpt lat="42.62147" lon="1.93351">
        <ele>1997.8</ele>
        <time>2021-08-03T06:36:59.000Z</time>
      </trkpt>
      <trkpt lat="42.62137" lon="1.93353">
        <ele>1998.9</ele>
        <time>2021-08-03T06:37:13.000Z</time>
      </trkpt>
      <trkpt lat="42.62133" lon="1.93364">
        <ele>2001.1</ele>
        <time>2021-08-03T06:37:32.000Z</time>
      </trkpt>
      <trkpt lat="42.62132" lon="1.93376">
        <ele>2005</ele>
        <time>2021-08-03T06:37:59.000Z</time>
      </trkpt>
      <trkpt lat="42.62126" lon="1.93376">
        <ele>2008.6</ele>
        <time>2021-08-03T06:38:21.000Z</time>
      </trkpt>
      <trkpt lat="42.62126" lon="1.93376">
        <ele>2009.4</ele>
        <time>2021-08-03T06:38:28.000Z</time>
      </trkpt>
      <trkpt lat="42.62119" lon="1.93368">
        <ele>2011.3</ele>
        <time>2021-08-03T06:38:44.000Z</time>
      </trkpt>
      <trkpt lat="42.62119" lon="1.9338">
        <ele>2014.9</ele>
        <time>2021-08-03T06:39:12.000Z</time>
      </trkpt>
      <trkpt lat="42.6211" lon="1.93378">
        <ele>2017.8</ele>
        <time>2021-08-03T06:39:34.000Z</time>
      </trkpt>
      <trkpt lat="42.62109" lon="1.93378">
        <ele>2018.3</ele>
        <time>2021-08-03T06:39:38.000Z</time>
      </trkpt>
      <trkpt lat="42.62109" lon="1.93378">
        <ele>2018.4</ele>
        <time>2021-08-03T06:39:39.000Z</time>
      </trkpt>
      <trkpt lat="42.6211" lon="1.93383">
        <ele>2019.9</ele>
        <time>2021-08-03T06:39:51.000Z</time>
      </trkpt>
      <trkpt lat="42.6211" lon="1.93384">
        <ele>2020</ele>
        <time>2021-08-03T06:39:52.000Z</time>
      </trkpt>
      <trkpt lat="42.62111" lon="1.93385">
        <ele>2020.4</ele>
        <time>2021-08-03T06:39:55.000Z</time>
      </trkpt>
      <trkpt lat="42.62111" lon="1.93385">
        <ele>2020.6</ele>
        <time>2021-08-03T06:39:56.000Z</time>
      </trkpt>
      <trkpt lat="42.62111" lon="1.93387">
        <ele>2021.2</ele>
        <time>2021-08-03T06:40:00.000Z</time>
      </trkpt>
      <trkpt lat="42.62111" lon="1.93387">
        <ele>2021.2</ele>
        <time>2021-08-03T06:40:01.000Z</time>
      </trkpt>
      <trkpt lat="42.62114" lon="1.934">
        <ele>2024.8</ele>
        <time>2021-08-03T06:40:33.000Z</time>
      </trkpt>
      <trkpt lat="42.6211" lon="1.93399">
        <ele>2026.3</ele>
        <time>2021-08-03T06:40:44.000Z</time>
      </trkpt>
      <trkpt lat="42.6211" lon="1.93399">
        <ele>2026.5</ele>
        <time>2021-08-03T06:40:46.000Z</time>
      </trkpt>
      <trkpt lat="42.62101" lon="1.93393">
        <ele>2028.3</ele>
        <time>2021-08-03T06:41:06.000Z</time>
      </trkpt>
      <trkpt lat="42.62096" lon="1.93395">
        <ele>2030.4</ele>
        <time>2021-08-03T06:41:22.000Z</time>
      </trkpt>
      <trkpt lat="42.62096" lon="1.93395">
        <ele>2030.8</ele>
        <time>2021-08-03T06:41:24.000Z</time>
      </trkpt>
      <trkpt lat="42.62093" lon="1.93395">
        <ele>2031.6</ele>
        <time>2021-08-03T06:41:33.000Z</time>
      </trkpt>
      <trkpt lat="42.62093" lon="1.93395">
        <ele>2032.4</ele>
        <time>2021-08-03T06:41:42.000Z</time>
      </trkpt>
      <trkpt lat="42.62093" lon="1.93396">
        <ele>2032.4</ele>
        <time>2021-08-03T06:41:45.000Z</time>
      </trkpt>
      <trkpt lat="42.62094" lon="1.93396">
        <ele>2032.9</ele>
        <time>2021-08-03T06:42:04.000Z</time>
      </trkpt>
      <trkpt lat="42.62092" lon="1.93408">
        <ele>2033.5</ele>
        <time>2021-08-03T06:42:24.000Z</time>
      </trkpt>
      <trkpt lat="42.62087" lon="1.93419">
        <ele>2035.1</ele>
        <time>2021-08-03T06:42:44.000Z</time>
      </trkpt>
      <trkpt lat="42.62078" lon="1.93424">
        <ele>2035.9</ele>
        <time>2021-08-03T06:42:54.000Z</time>
      </trkpt>
      <trkpt lat="42.62069" lon="1.93424">
        <ele>2036.4</ele>
        <time>2021-08-03T06:43:03.000Z</time>
      </trkpt>
      <trkpt lat="42.62065" lon="1.93413">
        <ele>2037.1</ele>
        <time>2021-08-03T06:43:13.000Z</time>
      </trkpt>
      <trkpt lat="42.6206" lon="1.93402">
        <ele>2038.2</ele>
        <time>2021-08-03T06:43:28.000Z</time>
      </trkpt>
      <trkpt lat="42.62054" lon="1.93391">
        <ele>2039.3</ele>
        <time>2021-08-03T06:43:41.000Z</time>
      </trkpt>
      <trkpt lat="42.6205" lon="1.93379">
        <ele>2040.6</ele>
        <time>2021-08-03T06:43:53.000Z</time>
      </trkpt>
      <trkpt lat="42.62047" lon="1.93368">
        <ele>2041.9</ele>
        <time>2021-08-03T06:44:07.000Z</time>
      </trkpt>
      <trkpt lat="42.62046" lon="1.93368">
        <ele>2042.3</ele>
        <time>2021-08-03T06:44:10.000Z</time>
      </trkpt>
      <trkpt lat="42.62039" lon="1.9336">
        <ele>2044.2</ele>
        <time>2021-08-03T06:44:28.000Z</time>
      </trkpt>
      <trkpt lat="42.62036" lon="1.93348">
        <ele>2046</ele>
        <time>2021-08-03T06:44:44.000Z</time>
      </trkpt>
      <trkpt lat="42.62035" lon="1.93335">
        <ele>2048.1</ele>
        <time>2021-08-03T06:44:59.000Z</time>
      </trkpt>
      <trkpt lat="42.62033" lon="1.93323">
        <ele>2050</ele>
        <time>2021-08-03T06:45:13.000Z</time>
      </trkpt>
      <trkpt lat="42.62033" lon="1.93309">
        <ele>2051.8</ele>
        <time>2021-08-03T06:45:27.000Z</time>
      </trkpt>
      <trkpt lat="42.62034" lon="1.93302">
        <ele>2054.4</ele>
        <time>2021-08-03T06:45:49.000Z</time>
      </trkpt>
      <trkpt lat="42.62034" lon="1.93301">
        <ele>2055.5</ele>
        <time>2021-08-03T06:45:56.000Z</time>
      </trkpt>
      <trkpt lat="42.62027" lon="1.93293">
        <ele>2056.8</ele>
        <time>2021-08-03T06:46:11.000Z</time>
      </trkpt>
      <trkpt lat="42.62023" lon="1.93281">
        <ele>2058.3</ele>
        <time>2021-08-03T06:46:25.000Z</time>
      </trkpt>
      <trkpt lat="42.62018" lon="1.93271">
        <ele>2059.9</ele>
        <time>2021-08-03T06:46:38.000Z</time>
      </trkpt>
      <trkpt lat="42.62011" lon="1.93262">
        <ele>2061.3</ele>
        <time>2021-08-03T06:46:50.000Z</time>
      </trkpt>
      <trkpt lat="42.62006" lon="1.93251">
        <ele>2062.1</ele>
        <time>2021-08-03T06:47:02.000Z</time>
      </trkpt>
      <trkpt lat="42.62007" lon="1.93239">
        <ele>2063.6</ele>
        <time>2021-08-03T06:47:14.000Z</time>
      </trkpt>
      <trkpt lat="42.62005" lon="1.93227">
        <ele>2065.2</ele>
        <time>2021-08-03T06:47:31.000Z</time>
      </trkpt>
      <trkpt lat="42.62005" lon="1.93226">
        <ele>2065.4</ele>
        <time>2021-08-03T06:47:32.000Z</time>
      </trkpt>
      <trkpt lat="42.62003" lon="1.93214">
        <ele>2067.5</ele>
        <time>2021-08-03T06:47:50.000Z</time>
      </trkpt>
      <trkpt lat="42.62002" lon="1.93201">
        <ele>2069.5</ele>
        <time>2021-08-03T06:48:05.000Z</time>
      </trkpt>
      <trkpt lat="42.62" lon="1.93194">
        <ele>2071.4</ele>
        <time>2021-08-03T06:48:17.000Z</time>
      </trkpt>
      <trkpt lat="42.62" lon="1.93194">
        <ele>2072.2</ele>
        <time>2021-08-03T06:48:30.000Z</time>
      </trkpt>
      <trkpt lat="42.61995" lon="1.93183">
        <ele>2073.8</ele>
        <time>2021-08-03T06:48:47.000Z</time>
      </trkpt>
      <trkpt lat="42.61992" lon="1.93179">
        <ele>2074.3</ele>
        <time>2021-08-03T06:48:54.000Z</time>
      </trkpt>
      <trkpt lat="42.61992" lon="1.93178">
        <ele>2074.6</ele>
        <time>2021-08-03T06:50:35.000Z</time>
      </trkpt>
      <trkpt lat="42.61992" lon="1.93178">
        <ele>2074.8</ele>
        <time>2021-08-03T06:50:36.000Z</time>
      </trkpt>
      <trkpt lat="42.61992" lon="1.93179">
        <ele>2072.5</ele>
        <time>2021-08-03T06:51:50.000Z</time>
      </trkpt>
      <trkpt lat="42.61985" lon="1.93169">
        <ele>2072.3</ele>
        <time>2021-08-03T06:52:00.000Z</time>
      </trkpt>
      <trkpt lat="42.61976" lon="1.93168">
        <ele>2072.6</ele>
        <time>2021-08-03T06:52:13.000Z</time>
      </trkpt>
      <trkpt lat="42.61977" lon="1.93168">
        <ele>2072.6</ele>
        <time>2021-08-03T06:52:15.000Z</time>
      </trkpt>
      <trkpt lat="42.61976" lon="1.93168">
        <ele>2073.3</ele>
        <time>2021-08-03T06:52:38.000Z</time>
      </trkpt>
      <trkpt lat="42.61976" lon="1.93168">
        <ele>2073.3</ele>
        <time>2021-08-03T06:52:39.000Z</time>
      </trkpt>
      <trkpt lat="42.61976" lon="1.93168">
        <ele>2074.4</ele>
        <time>2021-08-03T06:53:15.000Z</time>
      </trkpt>
      <trkpt lat="42.61976" lon="1.93168">
        <ele>2074.3</ele>
        <time>2021-08-03T06:53:16.000Z</time>
      </trkpt>
      <trkpt lat="42.61976" lon="1.93168">
        <ele>2074.8</ele>
        <time>2021-08-03T06:53:44.000Z</time>
      </trkpt>
      <trkpt lat="42.61976" lon="1.93168">
        <ele>2075</ele>
        <time>2021-08-03T06:53:46.000Z</time>
      </trkpt>
      <trkpt lat="42.61976" lon="1.93167">
        <ele>2074.9</ele>
        <time>2021-08-03T06:53:53.000Z</time>
      </trkpt>
      <trkpt lat="42.61976" lon="1.93167">
        <ele>2074.9</ele>
        <time>2021-08-03T06:53:55.000Z</time>
      </trkpt>
      <trkpt lat="42.61977" lon="1.93167">
        <ele>2074.9</ele>
        <time>2021-08-03T06:54:01.000Z</time>
      </trkpt>
      <trkpt lat="42.61978" lon="1.93167">
        <ele>2075</ele>
        <time>2021-08-03T06:54:06.000Z</time>
      </trkpt>
      <trkpt lat="42.61978" lon="1.93167">
        <ele>2076.1</ele>
        <time>2021-08-03T06:54:49.000Z</time>
      </trkpt>
      <trkpt lat="42.61978" lon="1.93167">
        <ele>2076.2</ele>
        <time>2021-08-03T06:54:50.000Z</time>
      </trkpt>
      <trkpt lat="42.61978" lon="1.93167">
        <ele>2076.4</ele>
        <time>2021-08-03T06:54:52.000Z</time>
      </trkpt>
      <trkpt lat="42.61981" lon="1.93167">
        <ele>2076.7</ele>
        <time>2021-08-03T06:54:58.000Z</time>
      </trkpt>
      <trkpt lat="42.61981" lon="1.93167">
        <ele>2076.5</ele>
        <time>2021-08-03T06:55:00.000Z</time>
      </trkpt>
      <trkpt lat="42.61989" lon="1.93172">
        <ele>2076.2</ele>
        <time>2021-08-03T06:55:11.000Z</time>
      </trkpt>
      <trkpt lat="42.61991" lon="1.93159">
        <ele>2075.8</ele>
        <time>2021-08-03T06:55:25.000Z</time>
      </trkpt>
      <trkpt lat="42.61989" lon="1.93145">
        <ele>2075.5</ele>
        <time>2021-08-03T06:55:35.000Z</time>
      </trkpt>
      <trkpt lat="42.61989" lon="1.93133">
        <ele>2075.2</ele>
        <time>2021-08-03T06:55:46.000Z</time>
      </trkpt>
      <trkpt lat="42.61988" lon="1.93124">
        <ele>2075.8</ele>
        <time>2021-08-03T06:56:00.000Z</time>
      </trkpt>
      <trkpt lat="42.61988" lon="1.93124">
        <ele>2076.3</ele>
        <time>2021-08-03T06:56:06.000Z</time>
      </trkpt>
      <trkpt lat="42.61991" lon="1.93111">
        <ele>2077.3</ele>
        <time>2021-08-03T06:56:22.000Z</time>
      </trkpt>
      <trkpt lat="42.61985" lon="1.93103">
        <ele>2079.7</ele>
        <time>2021-08-03T06:56:44.000Z</time>
      </trkpt>
      <trkpt lat="42.61984" lon="1.9309">
        <ele>2081.8</ele>
        <time>2021-08-03T06:57:01.000Z</time>
      </trkpt>
      <trkpt lat="42.61985" lon="1.93078">
        <ele>2083.1</ele>
        <time>2021-08-03T06:57:15.000Z</time>
      </trkpt>
      <trkpt lat="42.61985" lon="1.93065">
        <ele>2084</ele>
        <time>2021-08-03T06:57:31.000Z</time>
      </trkpt>
      <trkpt lat="42.61985" lon="1.93052">
        <ele>2085.1</ele>
        <time>2021-08-03T06:57:43.000Z</time>
      </trkpt>
      <trkpt lat="42.61981" lon="1.93042">
        <ele>2086.2</ele>
        <time>2021-08-03T06:57:57.000Z</time>
      </trkpt>
      <trkpt lat="42.61977" lon="1.9303">
        <ele>2086.7</ele>
        <time>2021-08-03T06:58:08.000Z</time>
      </trkpt>
      <trkpt lat="42.61971" lon="1.9302">
        <ele>2086.5</ele>
        <time>2021-08-03T06:58:18.000Z</time>
      </trkpt>
      <trkpt lat="42.61968" lon="1.93009">
        <ele>2086.3</ele>
        <time>2021-08-03T06:58:31.000Z</time>
      </trkpt>
      <trkpt lat="42.61967" lon="1.92997">
        <ele>2085.2</ele>
        <time>2021-08-03T06:58:42.000Z</time>
      </trkpt>
      <trkpt lat="42.61965" lon="1.92984">
        <ele>2084.9</ele>
        <time>2021-08-03T06:58:52.000Z</time>
      </trkpt>
      <trkpt lat="42.6196" lon="1.92975">
        <ele>2084.4</ele>
        <time>2021-08-03T06:59:02.000Z</time>
      </trkpt>
      <trkpt lat="42.61956" lon="1.92963">
        <ele>2084.7</ele>
        <time>2021-08-03T06:59:13.000Z</time>
      </trkpt>
      <trkpt lat="42.61955" lon="1.92951">
        <ele>2084.7</ele>
        <time>2021-08-03T06:59:24.000Z</time>
      </trkpt>
      <trkpt lat="42.61951" lon="1.9294">
        <ele>2085.5</ele>
        <time>2021-08-03T06:59:38.000Z</time>
      </trkpt>
      <trkpt lat="42.6195" lon="1.92936">
        <ele>2086.3</ele>
        <time>2021-08-03T06:59:45.000Z</time>
      </trkpt>
      <trkpt lat="42.61951" lon="1.92936">
        <ele>2086.9</ele>
        <time>2021-08-03T06:59:55.000Z</time>
      </trkpt>
      <trkpt lat="42.61949" lon="1.92923">
        <ele>2087.8</ele>
        <time>2021-08-03T07:00:10.000Z</time>
      </trkpt>
      <trkpt lat="42.61945" lon="1.92912">
        <ele>2088.6</ele>
        <time>2021-08-03T07:00:21.000Z</time>
      </trkpt>
      <trkpt lat="42.61941" lon="1.929">
        <ele>2088.8</ele>
        <time>2021-08-03T07:00:32.000Z</time>
      </trkpt>
      <trkpt lat="42.61936" lon="1.92889">
        <ele>2090</ele>
        <time>2021-08-03T07:00:47.000Z</time>
      </trkpt>
      <trkpt lat="42.61932" lon="1.92877">
        <ele>2091.8</ele>
        <time>2021-08-03T07:01:09.000Z</time>
      </trkpt>
      <trkpt lat="42.6193" lon="1.92874">
        <ele>2092.8</ele>
        <time>2021-08-03T07:01:19.000Z</time>
      </trkpt>
      <trkpt lat="42.6193" lon="1.92873">
        <ele>2093.7</ele>
        <time>2021-08-03T07:01:28.000Z</time>
      </trkpt>
      <trkpt lat="42.61925" lon="1.92866">
        <ele>2094.9</ele>
        <time>2021-08-03T07:01:44.000Z</time>
      </trkpt>
      <trkpt lat="42.61925" lon="1.92866">
        <ele>2094.9</ele>
        <time>2021-08-03T07:01:45.000Z</time>
      </trkpt>
      <trkpt lat="42.61925" lon="1.92854">
        <ele>2097.4</ele>
        <time>2021-08-03T07:02:11.000Z</time>
      </trkpt>
      <trkpt lat="42.61925" lon="1.92852">
        <ele>2098.1</ele>
        <time>2021-08-03T07:02:16.000Z</time>
      </trkpt>
      <trkpt lat="42.61925" lon="1.92851">
        <ele>2098.2</ele>
        <time>2021-08-03T07:02:18.000Z</time>
      </trkpt>
      <trkpt lat="42.61926" lon="1.9285">
        <ele>2098.9</ele>
        <time>2021-08-03T07:02:23.000Z</time>
      </trkpt>
      <trkpt lat="42.61926" lon="1.9285">
        <ele>2099.1</ele>
        <time>2021-08-03T07:02:25.000Z</time>
      </trkpt>
      <trkpt lat="42.61918" lon="1.92843">
        <ele>2101.4</ele>
        <time>2021-08-03T07:02:44.000Z</time>
      </trkpt>
      <trkpt lat="42.61917" lon="1.92831">
        <ele>2104.1</ele>
        <time>2021-08-03T07:03:04.000Z</time>
      </trkpt>
      <trkpt lat="42.61914" lon="1.92819">
        <ele>2106.2</ele>
        <time>2021-08-03T07:03:20.000Z</time>
      </trkpt>
      <trkpt lat="42.61909" lon="1.92808">
        <ele>2107.9</ele>
        <time>2021-08-03T07:03:33.000Z</time>
      </trkpt>
      <trkpt lat="42.61905" lon="1.92798">
        <ele>2109.7</ele>
        <time>2021-08-03T07:03:51.000Z</time>
      </trkpt>
      <trkpt lat="42.61904" lon="1.92798">
        <ele>2110.1</ele>
        <time>2021-08-03T07:03:53.000Z</time>
      </trkpt>
      <trkpt lat="42.61902" lon="1.92785">
        <ele>2110.6</ele>
        <time>2021-08-03T07:04:06.000Z</time>
      </trkpt>
      <trkpt lat="42.61897" lon="1.92774">
        <ele>2111.2</ele>
        <time>2021-08-03T07:04:19.000Z</time>
      </trkpt>
      <trkpt lat="42.61897" lon="1.92767">
        <ele>2111.3</ele>
        <time>2021-08-03T07:04:27.000Z</time>
      </trkpt>
      <trkpt lat="42.61897" lon="1.92767">
        <ele>2111.6</ele>
        <time>2021-08-03T07:04:50.000Z</time>
      </trkpt>
      <trkpt lat="42.61896" lon="1.92754">
        <ele>2111.3</ele>
        <time>2021-08-03T07:05:04.000Z</time>
      </trkpt>
      <trkpt lat="42.61893" lon="1.92742">
        <ele>2110.5</ele>
        <time>2021-08-03T07:05:16.000Z</time>
      </trkpt>
      <trkpt lat="42.6189" lon="1.9273">
        <ele>2108.7</ele>
        <time>2021-08-03T07:05:31.000Z</time>
      </trkpt>
      <trkpt lat="42.61888" lon="1.92718">
        <ele>2107.5</ele>
        <time>2021-08-03T07:05:43.000Z</time>
      </trkpt>
      <trkpt lat="42.61885" lon="1.92706">
        <ele>2105.7</ele>
        <time>2021-08-03T07:05:56.000Z</time>
      </trkpt>
      <trkpt lat="42.61879" lon="1.92695">
        <ele>2102.6</ele>
        <time>2021-08-03T07:06:23.000Z</time>
      </trkpt>
      <trkpt lat="42.61876" lon="1.92684">
        <ele>2100</ele>
        <time>2021-08-03T07:06:36.000Z</time>
      </trkpt>
      <trkpt lat="42.61871" lon="1.92674">
        <ele>2098.4</ele>
        <time>2021-08-03T07:06:49.000Z</time>
      </trkpt>
      <trkpt lat="42.61866" lon="1.92662">
        <ele>2096.8</ele>
        <time>2021-08-03T07:07:01.000Z</time>
      </trkpt>
      <trkpt lat="42.61862" lon="1.9265">
        <ele>2095.4</ele>
        <time>2021-08-03T07:07:12.000Z</time>
      </trkpt>
      <trkpt lat="42.6186" lon="1.92637">
        <ele>2094</ele>
        <time>2021-08-03T07:07:22.000Z</time>
      </trkpt>
      <trkpt lat="42.61854" lon="1.92627">
        <ele>2092.6</ele>
        <time>2021-08-03T07:07:36.000Z</time>
      </trkpt>
      <trkpt lat="42.61846" lon="1.92621">
        <ele>2089.3</ele>
        <time>2021-08-03T07:07:57.000Z</time>
      </trkpt>
      <trkpt lat="42.61837" lon="1.92616">
        <ele>2087.4</ele>
        <time>2021-08-03T07:08:10.000Z</time>
      </trkpt>
      <trkpt lat="42.61829" lon="1.92609">
        <ele>2085.7</ele>
        <time>2021-08-03T07:08:24.000Z</time>
      </trkpt>
      <trkpt lat="42.61829" lon="1.92608">
        <ele>2085.7</ele>
        <time>2021-08-03T07:08:26.000Z</time>
      </trkpt>
      <trkpt lat="42.61829" lon="1.92608">
        <ele>2085.1</ele>
        <time>2021-08-03T07:08:31.000Z</time>
      </trkpt>
      <trkpt lat="42.61819" lon="1.92604">
        <ele>2084</ele>
        <time>2021-08-03T07:08:41.000Z</time>
      </trkpt>
      <trkpt lat="42.6181" lon="1.92603">
        <ele>2083.9</ele>
        <time>2021-08-03T07:08:50.000Z</time>
      </trkpt>
      <trkpt lat="42.61801" lon="1.92597">
        <ele>2083.5</ele>
        <time>2021-08-03T07:09:00.000Z</time>
      </trkpt>
      <trkpt lat="42.61793" lon="1.92594">
        <ele>2083.2</ele>
        <time>2021-08-03T07:09:09.000Z</time>
      </trkpt>
      <trkpt lat="42.61787" lon="1.92583">
        <ele>2083.1</ele>
        <time>2021-08-03T07:09:20.000Z</time>
      </trkpt>
      <trkpt lat="42.61787" lon="1.92583">
        <ele>2083</ele>
        <time>2021-08-03T07:09:21.000Z</time>
      </trkpt>
      <trkpt lat="42.61788" lon="1.92583">
        <ele>2083</ele>
        <time>2021-08-03T07:09:22.000Z</time>
      </trkpt>
      <trkpt lat="42.61788" lon="1.92583">
        <ele>2083.1</ele>
        <time>2021-08-03T07:09:23.000Z</time>
      </trkpt>
      <trkpt lat="42.61788" lon="1.92582">
        <ele>2083.2</ele>
        <time>2021-08-03T07:09:26.000Z</time>
      </trkpt>
      <trkpt lat="42.61783" lon="1.92572">
        <ele>2083.6</ele>
        <time>2021-08-03T07:09:41.000Z</time>
      </trkpt>
      <trkpt lat="42.61779" lon="1.9256">
        <ele>2084.1</ele>
        <time>2021-08-03T07:09:54.000Z</time>
      </trkpt>
      <trkpt lat="42.61774" lon="1.92549">
        <ele>2084.7</ele>
        <time>2021-08-03T07:10:08.000Z</time>
      </trkpt>
      <trkpt lat="42.6177" lon="1.92538">
        <ele>2085.9</ele>
        <time>2021-08-03T07:10:24.000Z</time>
      </trkpt>
      <trkpt lat="42.61765" lon="1.92528">
        <ele>2087.9</ele>
        <time>2021-08-03T07:10:45.000Z</time>
      </trkpt>
      <trkpt lat="42.61765" lon="1.92528">
        <ele>2088.1</ele>
        <time>2021-08-03T07:10:46.000Z</time>
      </trkpt>
      <trkpt lat="42.61765" lon="1.92528">
        <ele>2088.3</ele>
        <time>2021-08-03T07:10:50.000Z</time>
      </trkpt>
      <trkpt lat="42.61762" lon="1.92517">
        <ele>2089.6</ele>
        <time>2021-08-03T07:11:04.000Z</time>
      </trkpt>
      <trkpt lat="42.61754" lon="1.9251">
        <ele>2090.7</ele>
        <time>2021-08-03T07:11:17.000Z</time>
      </trkpt>
      <trkpt lat="42.61753" lon="1.92497">
        <ele>2092.1</ele>
        <time>2021-08-03T07:11:36.000Z</time>
      </trkpt>
      <trkpt lat="42.61752" lon="1.92485">
        <ele>2094.8</ele>
        <time>2021-08-03T07:12:03.000Z</time>
      </trkpt>
      <trkpt lat="42.61752" lon="1.92481">
        <ele>2096.1</ele>
        <time>2021-08-03T07:12:13.000Z</time>
      </trkpt>
      <trkpt lat="42.61751" lon="1.92481">
        <ele>2096.3</ele>
        <time>2021-08-03T07:12:15.000Z</time>
      </trkpt>
      <trkpt lat="42.61745" lon="1.92471">
        <ele>2098.3</ele>
        <time>2021-08-03T07:12:31.000Z</time>
      </trkpt>
      <trkpt lat="42.61742" lon="1.92459">
        <ele>2100</ele>
        <time>2021-08-03T07:12:48.000Z</time>
      </trkpt>
      <trkpt lat="42.61738" lon="1.92448">
        <ele>2102.4</ele>
        <time>2021-08-03T07:13:08.000Z</time>
      </trkpt>
      <trkpt lat="42.61734" lon="1.92437">
        <ele>2104.6</ele>
        <time>2021-08-03T07:13:26.000Z</time>
      </trkpt>
      <trkpt lat="42.61728" lon="1.92427">
        <ele>2106.7</ele>
        <time>2021-08-03T07:13:43.000Z</time>
      </trkpt>
      <trkpt lat="42.61721" lon="1.92419">
        <ele>2107.9</ele>
        <time>2021-08-03T07:13:59.000Z</time>
      </trkpt>
      <trkpt lat="42.61721" lon="1.92423">
        <ele>2108.5</ele>
        <time>2021-08-03T07:14:09.000Z</time>
      </trkpt>
      <trkpt lat="42.61721" lon="1.92423">
        <ele>2110.7</ele>
        <time>2021-08-03T07:15:47.000Z</time>
      </trkpt>
      <trkpt lat="42.61721" lon="1.92423">
        <ele>2110.8</ele>
        <time>2021-08-03T07:15:49.000Z</time>
      </trkpt>
      <trkpt lat="42.61721" lon="1.92423">
        <ele>2111</ele>
        <time>2021-08-03T07:15:55.000Z</time>
      </trkpt>
      <trkpt lat="42.61721" lon="1.92423">
        <ele>2110.9</ele>
        <time>2021-08-03T07:15:56.000Z</time>
      </trkpt>
      <trkpt lat="42.61721" lon="1.92422">
        <ele>2111.1</ele>
        <time>2021-08-03T07:16:05.000Z</time>
      </trkpt>
      <trkpt lat="42.61719" lon="1.92424">
        <ele>2111.5</ele>
        <time>2021-08-03T07:16:17.000Z</time>
      </trkpt>
      <trkpt lat="42.61719" lon="1.92424">
        <ele>2111.4</ele>
        <time>2021-08-03T07:16:18.000Z</time>
      </trkpt>
      <trkpt lat="42.61715" lon="1.92422">
        <ele>2112.7</ele>
        <time>2021-08-03T07:16:34.000Z</time>
      </trkpt>
      <trkpt lat="42.61715" lon="1.92422">
        <ele>2113.5</ele>
        <time>2021-08-03T07:16:43.000Z</time>
      </trkpt>
      <trkpt lat="42.61715" lon="1.92422">
        <ele>2113.4</ele>
        <time>2021-08-03T07:16:44.000Z</time>
      </trkpt>
      <trkpt lat="42.61716" lon="1.92422">
        <ele>2113.8</ele>
        <time>2021-08-03T07:16:46.000Z</time>
      </trkpt>
      <trkpt lat="42.61711" lon="1.92419">
        <ele>2115.1</ele>
        <time>2021-08-03T07:17:04.000Z</time>
      </trkpt>
      <trkpt lat="42.6171" lon="1.92419">
        <ele>2115.1</ele>
        <time>2021-08-03T07:17:05.000Z</time>
      </trkpt>
      <trkpt lat="42.61701" lon="1.92419">
        <ele>2116.5</ele>
        <time>2021-08-03T07:17:20.000Z</time>
      </trkpt>
      <trkpt lat="42.61697" lon="1.9242">
        <ele>2116.9</ele>
        <time>2021-08-03T07:17:34.000Z</time>
      </trkpt>
      <trkpt lat="42.61697" lon="1.9242">
        <ele>2116.9</ele>
        <time>2021-08-03T07:17:35.000Z</time>
      </trkpt>
      <trkpt lat="42.61697" lon="1.9242">
        <ele>2117</ele>
        <time>2021-08-03T07:17:36.000Z</time>
      </trkpt>
      <trkpt lat="42.61697" lon="1.92421">
        <ele>2117</ele>
        <time>2021-08-03T07:17:42.000Z</time>
      </trkpt>
      <trkpt lat="42.61695" lon="1.9242">
        <ele>2116.1</ele>
        <time>2021-08-03T07:17:50.000Z</time>
      </trkpt>
      <trkpt lat="42.61696" lon="1.9242">
        <ele>2116</ele>
        <time>2021-08-03T07:17:51.000Z</time>
      </trkpt>
      <trkpt lat="42.61696" lon="1.9242">
        <ele>2116.1</ele>
        <time>2021-08-03T07:17:52.000Z</time>
      </trkpt>
      <trkpt lat="42.61696" lon="1.9242">
        <ele>2115.2</ele>
        <time>2021-08-03T07:19:39.000Z</time>
      </trkpt>
      <trkpt lat="42.61696" lon="1.9242">
        <ele>2114.1</ele>
        <time>2021-08-03T07:19:42.000Z</time>
      </trkpt>
      <trkpt lat="42.61696" lon="1.9242">
        <ele>2116.2</ele>
        <time>2021-08-03T07:19:43.000Z</time>
      </trkpt>
      <trkpt lat="42.61696" lon="1.9242">
        <ele>2117</ele>
        <time>2021-08-03T07:19:44.000Z</time>
      </trkpt>
      <trkpt lat="42.61696" lon="1.9242">
        <ele>2117.5</ele>
        <time>2021-08-03T07:19:54.000Z</time>
      </trkpt>
      <trkpt lat="42.61696" lon="1.9242">
        <ele>2117.4</ele>
        <time>2021-08-03T07:19:55.000Z</time>
      </trkpt>
      <trkpt lat="42.61696" lon="1.9242">
        <ele>2117.1</ele>
        <time>2021-08-03T07:20:10.000Z</time>
      </trkpt>
      <trkpt lat="42.61695" lon="1.9242">
        <ele>2117.8</ele>
        <time>2021-08-03T07:20:16.000Z</time>
      </trkpt>
      <trkpt lat="42.61695" lon="1.9242">
        <ele>2117.8</ele>
        <time>2021-08-03T07:21:24.000Z</time>
      </trkpt>
      <trkpt lat="42.61695" lon="1.9242">
        <ele>2117.8</ele>
        <time>2021-08-03T07:21:25.000Z</time>
      </trkpt>
      <trkpt lat="42.61695" lon="1.9242">
        <ele>2117.6</ele>
        <time>2021-08-03T07:23:15.000Z</time>
      </trkpt>
      <trkpt lat="42.61695" lon="1.9242">
        <ele>2117.5</ele>
        <time>2021-08-03T07:23:16.000Z</time>
      </trkpt>
      <trkpt lat="42.61695" lon="1.9242">
        <ele>2117.9</ele>
        <time>2021-08-03T07:23:47.000Z</time>
      </trkpt>
      <trkpt lat="42.61695" lon="1.9242">
        <ele>2118.7</ele>
        <time>2021-08-03T07:23:48.000Z</time>
      </trkpt>
      <trkpt lat="42.61695" lon="1.92419">
        <ele>2115.9</ele>
        <time>2021-08-03T07:24:04.000Z</time>
      </trkpt>
      <trkpt lat="42.61695" lon="1.92419">
        <ele>2116.4</ele>
        <time>2021-08-03T07:24:05.000Z</time>
      </trkpt>
      <trkpt lat="42.61695" lon="1.92419">
        <ele>2118.5</ele>
        <time>2021-08-03T07:24:31.000Z</time>
      </trkpt>
      <trkpt lat="42.61694" lon="1.9242">
        <ele>2118.4</ele>
        <time>2021-08-03T07:24:37.000Z</time>
      </trkpt>
      <trkpt lat="42.61694" lon="1.9242">
        <ele>2118.3</ele>
        <time>2021-08-03T07:24:42.000Z</time>
      </trkpt>
      <trkpt lat="42.61694" lon="1.9242">
        <ele>2118.4</ele>
        <time>2021-08-03T07:24:43.000Z</time>
      </trkpt>
      <trkpt lat="42.61693" lon="1.9242">
        <ele>2118.2</ele>
        <time>2021-08-03T07:25:18.000Z</time>
      </trkpt>
      <trkpt lat="42.6169" lon="1.9242">
        <ele>2116.6</ele>
        <time>2021-08-03T07:25:25.000Z</time>
      </trkpt>
      <trkpt lat="42.61689" lon="1.9242">
        <ele>2117.1</ele>
        <time>2021-08-03T07:25:27.000Z</time>
      </trkpt>
      <trkpt lat="42.61682" lon="1.92413">
        <ele>2118.8</ele>
        <time>2021-08-03T07:25:41.000Z</time>
      </trkpt>
      <trkpt lat="42.6168" lon="1.924">
        <ele>2122.3</ele>
        <time>2021-08-03T07:25:59.000Z</time>
      </trkpt>
      <trkpt lat="42.61675" lon="1.9239">
        <ele>2124.6</ele>
        <time>2021-08-03T07:26:15.000Z</time>
      </trkpt>
      <trkpt lat="42.6167" lon="1.9238">
        <ele>2126.6</ele>
        <time>2021-08-03T07:26:34.000Z</time>
      </trkpt>
      <trkpt lat="42.61663" lon="1.92371">
        <ele>2127.8</ele>
        <time>2021-08-03T07:26:51.000Z</time>
      </trkpt>
      <trkpt lat="42.61663" lon="1.92371">
        <ele>2127.8</ele>
        <time>2021-08-03T07:26:55.000Z</time>
      </trkpt>
      <trkpt lat="42.61663" lon="1.9237">
        <ele>2128.1</ele>
        <time>2021-08-03T07:26:57.000Z</time>
      </trkpt>
      <trkpt lat="42.61658" lon="1.92359">
        <ele>2129</ele>
        <time>2021-08-03T07:27:15.000Z</time>
      </trkpt>
      <trkpt lat="42.61655" lon="1.92348">
        <ele>2130.6</ele>
        <time>2021-08-03T07:27:35.000Z</time>
      </trkpt>
      <trkpt lat="42.61655" lon="1.92348">
        <ele>2130.6</ele>
        <time>2021-08-03T07:27:36.000Z</time>
      </trkpt>
      <trkpt lat="42.61649" lon="1.92338">
        <ele>2132.1</ele>
        <time>2021-08-03T07:28:05.000Z</time>
      </trkpt>
      <trkpt lat="42.61644" lon="1.92328">
        <ele>2134.3</ele>
        <time>2021-08-03T07:28:30.000Z</time>
      </trkpt>
      <trkpt lat="42.61635" lon="1.92328">
        <ele>2134.9</ele>
        <time>2021-08-03T07:28:53.000Z</time>
      </trkpt>
      <trkpt lat="42.61631" lon="1.92325">
        <ele>2135.1</ele>
        <time>2021-08-03T07:29:04.000Z</time>
      </trkpt>
      <trkpt lat="42.61631" lon="1.92324">
        <ele>2135.3</ele>
        <time>2021-08-03T07:29:05.000Z</time>
      </trkpt>
      <trkpt lat="42.61631" lon="1.92324">
        <ele>2135.5</ele>
        <time>2021-08-03T07:29:06.000Z</time>
      </trkpt>
      <trkpt lat="42.61631" lon="1.92324">
        <ele>2138.6</ele>
        <time>2021-08-03T07:29:38.000Z</time>
      </trkpt>
      <trkpt lat="42.61631" lon="1.92324">
        <ele>2138.7</ele>
        <time>2021-08-03T07:29:39.000Z</time>
      </trkpt>
      <trkpt lat="42.61631" lon="1.92324">
        <ele>2138.8</ele>
        <time>2021-08-03T07:29:42.000Z</time>
      </trkpt>
      <trkpt lat="42.61631" lon="1.92324">
        <ele>2138.9</ele>
        <time>2021-08-03T07:29:43.000Z</time>
      </trkpt>
      <trkpt lat="42.61631" lon="1.92324">
        <ele>2139.4</ele>
        <time>2021-08-03T07:29:49.000Z</time>
      </trkpt>
      <trkpt lat="42.61631" lon="1.92324">
        <ele>2139.4</ele>
        <time>2021-08-03T07:29:50.000Z</time>
      </trkpt>
      <trkpt lat="42.61631" lon="1.92324">
        <ele>2139.8</ele>
        <time>2021-08-03T07:29:56.000Z</time>
      </trkpt>
      <trkpt lat="42.61631" lon="1.92324">
        <ele>2139.8</ele>
        <time>2021-08-03T07:29:57.000Z</time>
      </trkpt>
      <trkpt lat="42.61631" lon="1.92324">
        <ele>2140.4</ele>
        <time>2021-08-03T07:31:18.000Z</time>
      </trkpt>
      <trkpt lat="42.61631" lon="1.92324">
        <ele>2140.3</ele>
        <time>2021-08-03T07:31:19.000Z</time>
      </trkpt>
      <trkpt lat="42.61631" lon="1.92324">
        <ele>2140</ele>
        <time>2021-08-03T07:31:32.000Z</time>
      </trkpt>
      <trkpt lat="42.61631" lon="1.92324">
        <ele>2139.6</ele>
        <time>2021-08-03T07:31:37.000Z</time>
      </trkpt>
      <trkpt lat="42.61632" lon="1.92324">
        <ele>2139.1</ele>
        <time>2021-08-03T07:31:39.000Z</time>
      </trkpt>
      <trkpt lat="42.61631" lon="1.92325">
        <ele>2112.9</ele>
        <time>2021-08-03T07:31:41.000Z</time>
      </trkpt>
      <trkpt lat="42.61632" lon="1.92325">
        <ele>2106.4</ele>
        <time>2021-08-03T07:31:43.000Z</time>
      </trkpt>
      <trkpt lat="42.61632" lon="1.92325">
        <ele>2108.1</ele>
        <time>2021-08-03T07:31:45.000Z</time>
      </trkpt>
      <trkpt lat="42.61632" lon="1.92325">
        <ele>2122.9</ele>
        <time>2021-08-03T07:31:56.000Z</time>
      </trkpt>
      <trkpt lat="42.61632" lon="1.92325">
        <ele>2123.9</ele>
        <time>2021-08-03T07:31:57.000Z</time>
      </trkpt>
      <trkpt lat="42.61632" lon="1.92325">
        <ele>2129.7</ele>
        <time>2021-08-03T07:32:06.000Z</time>
      </trkpt>
      <trkpt lat="42.61633" lon="1.92325">
        <ele>2133</ele>
        <time>2021-08-03T07:32:09.000Z</time>
      </trkpt>
      <trkpt lat="42.61633" lon="1.92325">
        <ele>2133.6</ele>
        <time>2021-08-03T07:32:10.000Z</time>
      </trkpt>
      <trkpt lat="42.61633" lon="1.92325">
        <ele>2131.8</ele>
        <time>2021-08-03T07:32:11.000Z</time>
      </trkpt>
      <trkpt lat="42.61633" lon="1.92325">
        <ele>2143.8</ele>
        <time>2021-08-03T07:32:19.000Z</time>
      </trkpt>
      <trkpt lat="42.61633" lon="1.92326">
        <ele>2136.8</ele>
        <time>2021-08-03T07:32:21.000Z</time>
      </trkpt>
      <trkpt lat="42.61633" lon="1.92326">
        <ele>2134.1</ele>
        <time>2021-08-03T07:32:22.000Z</time>
      </trkpt>
      <trkpt lat="42.61632" lon="1.92325">
        <ele>2150.6</ele>
        <time>2021-08-03T07:32:28.000Z</time>
      </trkpt>
      <trkpt lat="42.61632" lon="1.92325">
        <ele>2150.7</ele>
        <time>2021-08-03T07:32:29.000Z</time>
      </trkpt>
      <trkpt lat="42.61632" lon="1.92324">
        <ele>2150.3</ele>
        <time>2021-08-03T07:32:32.000Z</time>
      </trkpt>
      <trkpt lat="42.61633" lon="1.92323">
        <ele>2148</ele>
        <time>2021-08-03T07:32:40.000Z</time>
      </trkpt>
      <trkpt lat="42.61632" lon="1.92323">
        <ele>2147.5</ele>
        <time>2021-08-03T07:32:42.000Z</time>
      </trkpt>
      <trkpt lat="42.61633" lon="1.92323">
        <ele>2147.3</ele>
        <time>2021-08-03T07:32:43.000Z</time>
      </trkpt>
      <trkpt lat="42.61628" lon="1.92313">
        <ele>2145</ele>
        <time>2021-08-03T07:32:53.000Z</time>
      </trkpt>
      <trkpt lat="42.6163" lon="1.92301">
        <ele>2144.1</ele>
        <time>2021-08-03T07:33:04.000Z</time>
      </trkpt>
      <trkpt lat="42.61628" lon="1.92288">
        <ele>2143.5</ele>
        <time>2021-08-03T07:33:16.000Z</time>
      </trkpt>
      <trkpt lat="42.61638" lon="1.92289">
        <ele>2144</ele>
        <time>2021-08-03T07:33:45.000Z</time>
      </trkpt>
      <trkpt lat="42.61646" lon="1.92292">
        <ele>2144.7</ele>
        <time>2021-08-03T07:34:01.000Z</time>
      </trkpt>
      <trkpt lat="42.61655" lon="1.92292">
        <ele>2145.4</ele>
        <time>2021-08-03T07:34:14.000Z</time>
      </trkpt>
      <trkpt lat="42.61656" lon="1.92283">
        <ele>2147.8</ele>
        <time>2021-08-03T07:34:37.000Z</time>
      </trkpt>
      <trkpt lat="42.61655" lon="1.92283">
        <ele>2147.9</ele>
        <time>2021-08-03T07:34:38.000Z</time>
      </trkpt>
      <trkpt lat="42.61652" lon="1.92271">
        <ele>2150.2</ele>
        <time>2021-08-03T07:35:02.000Z</time>
      </trkpt>
      <trkpt lat="42.61646" lon="1.92265">
        <ele>2154.7</ele>
        <time>2021-08-03T07:35:36.000Z</time>
      </trkpt>
      <trkpt lat="42.61646" lon="1.92264">
        <ele>2154.8</ele>
        <time>2021-08-03T07:35:37.000Z</time>
      </trkpt>
      <trkpt lat="42.61645" lon="1.92264">
        <ele>2154.6</ele>
        <time>2021-08-03T07:35:39.000Z</time>
      </trkpt>
      <trkpt lat="42.61646" lon="1.92264">
        <ele>2155.6</ele>
        <time>2021-08-03T07:35:47.000Z</time>
      </trkpt>
      <trkpt lat="42.61647" lon="1.92257">
        <ele>2158.1</ele>
        <time>2021-08-03T07:36:07.000Z</time>
      </trkpt>
      <trkpt lat="42.61647" lon="1.92257">
        <ele>2158.7</ele>
        <time>2021-08-03T07:36:15.000Z</time>
      </trkpt>
      <trkpt lat="42.61647" lon="1.92257">
        <ele>2158.9</ele>
        <time>2021-08-03T07:36:16.000Z</time>
      </trkpt>
      <trkpt lat="42.61647" lon="1.92257">
        <ele>2159.3</ele>
        <time>2021-08-03T07:36:55.000Z</time>
      </trkpt>
      <trkpt lat="42.61647" lon="1.92257">
        <ele>2159.4</ele>
        <time>2021-08-03T07:36:56.000Z</time>
      </trkpt>
      <trkpt lat="42.61647" lon="1.92256">
        <ele>2159.3</ele>
        <time>2021-08-03T07:36:57.000Z</time>
      </trkpt>
      <trkpt lat="42.61649" lon="1.92244">
        <ele>2162.3</ele>
        <time>2021-08-03T07:37:25.000Z</time>
      </trkpt>
      <trkpt lat="42.61649" lon="1.92231">
        <ele>2164.8</ele>
        <time>2021-08-03T07:37:42.000Z</time>
      </trkpt>
      <trkpt lat="42.61642" lon="1.92222">
        <ele>2166.8</ele>
        <time>2021-08-03T07:37:56.000Z</time>
      </trkpt>
      <trkpt lat="42.6164" lon="1.92209">
        <ele>2167.6</ele>
        <time>2021-08-03T07:38:08.000Z</time>
      </trkpt>
      <trkpt lat="42.61636" lon="1.92198">
        <ele>2168.1</ele>
        <time>2021-08-03T07:38:20.000Z</time>
      </trkpt>
      <trkpt lat="42.61632" lon="1.92187">
        <ele>2170.3</ele>
        <time>2021-08-03T07:38:42.000Z</time>
      </trkpt>
      <trkpt lat="42.61634" lon="1.92185">
        <ele>2171.1</ele>
        <time>2021-08-03T07:38:49.000Z</time>
      </trkpt>
      <trkpt lat="42.61634" lon="1.92185">
        <ele>2171.4</ele>
        <time>2021-08-03T07:38:59.000Z</time>
      </trkpt>
      <trkpt lat="42.61631" lon="1.92173">
        <ele>2172.5</ele>
        <time>2021-08-03T07:39:18.000Z</time>
      </trkpt>
      <trkpt lat="42.61628" lon="1.92161">
        <ele>2175.7</ele>
        <time>2021-08-03T07:39:40.000Z</time>
      </trkpt>
      <trkpt lat="42.61622" lon="1.92151">
        <ele>2177.7</ele>
        <time>2021-08-03T07:39:54.000Z</time>
      </trkpt>
      <trkpt lat="42.61615" lon="1.92141">
        <ele>2179.2</ele>
        <time>2021-08-03T07:40:07.000Z</time>
      </trkpt>
      <trkpt lat="42.61611" lon="1.9213">
        <ele>2181.4</ele>
        <time>2021-08-03T07:40:23.000Z</time>
      </trkpt>
      <trkpt lat="42.61608" lon="1.92122">
        <ele>2182.4</ele>
        <time>2021-08-03T07:40:37.000Z</time>
      </trkpt>
      <trkpt lat="42.61608" lon="1.92121">
        <ele>2182.8</ele>
        <time>2021-08-03T07:40:39.000Z</time>
      </trkpt>
      <trkpt lat="42.61602" lon="1.92112">
        <ele>2183.6</ele>
        <time>2021-08-03T07:40:53.000Z</time>
      </trkpt>
      <trkpt lat="42.61597" lon="1.921">
        <ele>2183.2</ele>
        <time>2021-08-03T07:41:08.000Z</time>
      </trkpt>
      <trkpt lat="42.61595" lon="1.92088">
        <ele>2183.7</ele>
        <time>2021-08-03T07:41:21.000Z</time>
      </trkpt>
      <trkpt lat="42.61595" lon="1.92075">
        <ele>2183.7</ele>
        <time>2021-08-03T07:41:36.000Z</time>
      </trkpt>
      <trkpt lat="42.61596" lon="1.92062">
        <ele>2182.5</ele>
        <time>2021-08-03T07:41:47.000Z</time>
      </trkpt>
      <trkpt lat="42.61594" lon="1.92049">
        <ele>2182.8</ele>
        <time>2021-08-03T07:42:00.000Z</time>
      </trkpt>
      <trkpt lat="42.61592" lon="1.92037">
        <ele>2182.3</ele>
        <time>2021-08-03T07:42:12.000Z</time>
      </trkpt>
      <trkpt lat="42.61589" lon="1.92025">
        <ele>2182.5</ele>
        <time>2021-08-03T07:42:24.000Z</time>
      </trkpt>
      <trkpt lat="42.61584" lon="1.92015">
        <ele>2182.3</ele>
        <time>2021-08-03T07:42:36.000Z</time>
      </trkpt>
      <trkpt lat="42.61584" lon="1.92014">
        <ele>2182.2</ele>
        <time>2021-08-03T07:42:39.000Z</time>
      </trkpt>
      <trkpt lat="42.61584" lon="1.92013">
        <ele>2182.2</ele>
        <time>2021-08-03T07:42:42.000Z</time>
      </trkpt>
      <trkpt lat="42.61576" lon="1.92006">
        <ele>2181.4</ele>
        <time>2021-08-03T07:42:55.000Z</time>
      </trkpt>
      <trkpt lat="42.61573" lon="1.92003">
        <ele>2181.1</ele>
        <time>2021-08-03T07:43:06.000Z</time>
      </trkpt>
      <trkpt lat="42.61573" lon="1.92003">
        <ele>2178</ele>
        <time>2021-08-03T07:43:41.000Z</time>
      </trkpt>
      <trkpt lat="42.61573" lon="1.92003">
        <ele>2177.9</ele>
        <time>2021-08-03T07:43:42.000Z</time>
      </trkpt>
      <trkpt lat="42.61572" lon="1.92003">
        <ele>2177.7</ele>
        <time>2021-08-03T07:43:43.000Z</time>
      </trkpt>
      <trkpt lat="42.61573" lon="1.92003">
        <ele>2177.5</ele>
        <time>2021-08-03T07:43:45.000Z</time>
      </trkpt>
      <trkpt lat="42.61573" lon="1.92003">
        <ele>2177.5</ele>
        <time>2021-08-03T07:44:26.000Z</time>
      </trkpt>
      <trkpt lat="42.61573" lon="1.92003">
        <ele>2177.5</ele>
        <time>2021-08-03T07:44:27.000Z</time>
      </trkpt>
      <trkpt lat="42.61573" lon="1.92003">
        <ele>2176</ele>
        <time>2021-08-03T07:44:49.000Z</time>
      </trkpt>
      <trkpt lat="42.61573" lon="1.92003">
        <ele>2175.1</ele>
        <time>2021-08-03T07:44:53.000Z</time>
      </trkpt>
      <trkpt lat="42.61573" lon="1.92003">
        <ele>2175.2</ele>
        <time>2021-08-03T07:45:03.000Z</time>
      </trkpt>
      <trkpt lat="42.61573" lon="1.92003">
        <ele>2175.5</ele>
        <time>2021-08-03T07:45:04.000Z</time>
      </trkpt>
      <trkpt lat="42.61573" lon="1.92003">
        <ele>2178</ele>
        <time>2021-08-03T07:45:51.000Z</time>
      </trkpt>
      <trkpt lat="42.61573" lon="1.92003">
        <ele>2177.6</ele>
        <time>2021-08-03T07:45:52.000Z</time>
      </trkpt>
      <trkpt lat="42.61573" lon="1.92003">
        <ele>2178.7</ele>
        <time>2021-08-03T07:46:06.000Z</time>
      </trkpt>
      <trkpt lat="42.61574" lon="1.9199">
        <ele>2179.4</ele>
        <time>2021-08-03T07:46:23.000Z</time>
      </trkpt>
      <trkpt lat="42.61568" lon="1.9198">
        <ele>2181</ele>
        <time>2021-08-03T07:46:37.000Z</time>
      </trkpt>
      <trkpt lat="42.61567" lon="1.91966">
        <ele>2182.1</ele>
        <time>2021-08-03T07:46:49.000Z</time>
      </trkpt>
      <trkpt lat="42.61564" lon="1.91958">
        <ele>2183</ele>
        <time>2021-08-03T07:47:01.000Z</time>
      </trkpt>
      <trkpt lat="42.61563" lon="1.91958">
        <ele>2183.1</ele>
        <time>2021-08-03T07:47:03.000Z</time>
      </trkpt>
      <trkpt lat="42.61559" lon="1.91947">
        <ele>2184.2</ele>
        <time>2021-08-03T07:47:22.000Z</time>
      </trkpt>
      <trkpt lat="42.61553" lon="1.91937">
        <ele>2184.6</ele>
        <time>2021-08-03T07:47:34.000Z</time>
      </trkpt>
      <trkpt lat="42.6155" lon="1.91924">
        <ele>2185.9</ele>
        <time>2021-08-03T07:47:48.000Z</time>
      </trkpt>
      <trkpt lat="42.61547" lon="1.91912">
        <ele>2187.1</ele>
        <time>2021-08-03T07:48:01.000Z</time>
      </trkpt>
      <trkpt lat="42.61546" lon="1.919">
        <ele>2187.8</ele>
        <time>2021-08-03T07:48:14.000Z</time>
      </trkpt>
      <trkpt lat="42.61545" lon="1.91887">
        <ele>2188.5</ele>
        <time>2021-08-03T07:48:27.000Z</time>
      </trkpt>
      <trkpt lat="42.61547" lon="1.91874">
        <ele>2189.3</ele>
        <time>2021-08-03T07:48:41.000Z</time>
      </trkpt>
      <trkpt lat="42.61548" lon="1.91862">
        <ele>2191</ele>
        <time>2021-08-03T07:49:06.000Z</time>
      </trkpt>
      <trkpt lat="42.61548" lon="1.91862">
        <ele>2191.8</ele>
        <time>2021-08-03T07:49:20.000Z</time>
      </trkpt>
      <trkpt lat="42.61548" lon="1.91862">
        <ele>2191.7</ele>
        <time>2021-08-03T07:49:22.000Z</time>
      </trkpt>
      <trkpt lat="42.61549" lon="1.91861">
        <ele>2191.7</ele>
        <time>2021-08-03T07:49:23.000Z</time>
      </trkpt>
      <trkpt lat="42.61549" lon="1.91861">
        <ele>2191.8</ele>
        <time>2021-08-03T07:49:24.000Z</time>
      </trkpt>
      <trkpt lat="42.61549" lon="1.91861">
        <ele>2192.4</ele>
        <time>2021-08-03T07:49:45.000Z</time>
      </trkpt>
      <trkpt lat="42.61549" lon="1.9186">
        <ele>2192.8</ele>
        <time>2021-08-03T07:49:47.000Z</time>
      </trkpt>
      <trkpt lat="42.61549" lon="1.91859">
        <ele>2192.7</ele>
        <time>2021-08-03T07:49:48.000Z</time>
      </trkpt>
      <trkpt lat="42.61549" lon="1.91859">
        <ele>2192.7</ele>
        <time>2021-08-03T07:49:49.000Z</time>
      </trkpt>
      <trkpt lat="42.61549" lon="1.91858">
        <ele>2192.6</ele>
        <time>2021-08-03T07:49:50.000Z</time>
      </trkpt>
      <trkpt lat="42.61547" lon="1.91846">
        <ele>2192.6</ele>
        <time>2021-08-03T07:50:00.000Z</time>
      </trkpt>
      <trkpt lat="42.61548" lon="1.91842">
        <ele>2193.4</ele>
        <time>2021-08-03T07:50:08.000Z</time>
      </trkpt>
      <trkpt lat="42.61548" lon="1.91842">
        <ele>2193.4</ele>
        <time>2021-08-03T07:50:10.000Z</time>
      </trkpt>
      <trkpt lat="42.6155" lon="1.91842">
        <ele>2193.9</ele>
        <time>2021-08-03T07:50:15.000Z</time>
      </trkpt>
      <trkpt lat="42.6155" lon="1.91842">
        <ele>2193.9</ele>
        <time>2021-08-03T07:50:16.000Z</time>
      </trkpt>
      <trkpt lat="42.61552" lon="1.91834">
        <ele>2194.5</ele>
        <time>2021-08-03T07:50:32.000Z</time>
      </trkpt>
      <trkpt lat="42.61552" lon="1.91834">
        <ele>2194.6</ele>
        <time>2021-08-03T07:50:33.000Z</time>
      </trkpt>
      <trkpt lat="42.61552" lon="1.91828">
        <ele>2195.6</ele>
        <time>2021-08-03T07:50:42.000Z</time>
      </trkpt>
      <trkpt lat="42.61552" lon="1.91828">
        <ele>2195.7</ele>
        <time>2021-08-03T07:50:43.000Z</time>
      </trkpt>
      <trkpt lat="42.61554" lon="1.91816">
        <ele>2198.3</ele>
        <time>2021-08-03T07:51:09.000Z</time>
      </trkpt>
      <trkpt lat="42.61552" lon="1.9181">
        <ele>2199.6</ele>
        <time>2021-08-03T07:51:20.000Z</time>
      </trkpt>
      <trkpt lat="42.61552" lon="1.91809">
        <ele>2199.9</ele>
        <time>2021-08-03T07:51:21.000Z</time>
      </trkpt>
      <trkpt lat="42.6155" lon="1.91797">
        <ele>2202.5</ele>
        <time>2021-08-03T07:51:46.000Z</time>
      </trkpt>
      <trkpt lat="42.61549" lon="1.91796">
        <ele>2203.1</ele>
        <time>2021-08-03T07:51:51.000Z</time>
      </trkpt>
      <trkpt lat="42.61549" lon="1.91796">
        <ele>2203.2</ele>
        <time>2021-08-03T07:51:52.000Z</time>
      </trkpt>
      <trkpt lat="42.61551" lon="1.91783">
        <ele>2205.9</ele>
        <time>2021-08-03T07:52:14.000Z</time>
      </trkpt>
      <trkpt lat="42.61547" lon="1.91781">
        <ele>2206.8</ele>
        <time>2021-08-03T07:52:25.000Z</time>
      </trkpt>
      <trkpt lat="42.61546" lon="1.91781">
        <ele>2206.8</ele>
        <time>2021-08-03T07:52:26.000Z</time>
      </trkpt>
      <trkpt lat="42.61545" lon="1.91776">
        <ele>2207.5</ele>
        <time>2021-08-03T07:52:33.000Z</time>
      </trkpt>
      <trkpt lat="42.61546" lon="1.91776">
        <ele>2207.6</ele>
        <time>2021-08-03T07:52:34.000Z</time>
      </trkpt>
      <trkpt lat="42.61549" lon="1.91765">
        <ele>2208.7</ele>
        <time>2021-08-03T07:52:48.000Z</time>
      </trkpt>
      <trkpt lat="42.61549" lon="1.91752">
        <ele>2209.9</ele>
        <time>2021-08-03T07:53:05.000Z</time>
      </trkpt>
      <trkpt lat="42.61547" lon="1.91741">
        <ele>2211.1</ele>
        <time>2021-08-03T07:53:22.000Z</time>
      </trkpt>
      <trkpt lat="42.61544" lon="1.91729">
        <ele>2212.4</ele>
        <time>2021-08-03T07:53:41.000Z</time>
      </trkpt>
      <trkpt lat="42.61541" lon="1.91726">
        <ele>2212.9</ele>
        <time>2021-08-03T07:53:50.000Z</time>
      </trkpt>
      <trkpt lat="42.61541" lon="1.91726">
        <ele>2212.8</ele>
        <time>2021-08-03T07:53:51.000Z</time>
      </trkpt>
      <trkpt lat="42.61537" lon="1.91723">
        <ele>2211.7</ele>
        <time>2021-08-03T07:54:03.000Z</time>
      </trkpt>
      <trkpt lat="42.61536" lon="1.91723">
        <ele>2211.7</ele>
        <time>2021-08-03T07:54:04.000Z</time>
      </trkpt>
      <trkpt lat="42.61531" lon="1.91713">
        <ele>2211.7</ele>
        <time>2021-08-03T07:54:15.000Z</time>
      </trkpt>
      <trkpt lat="42.61527" lon="1.91704">
        <ele>2211.8</ele>
        <time>2021-08-03T07:54:27.000Z</time>
      </trkpt>
      <trkpt lat="42.61528" lon="1.91704">
        <ele>2206</ele>
        <time>2021-08-03T07:55:20.000Z</time>
      </trkpt>
      <trkpt lat="42.61528" lon="1.91704">
        <ele>2205.5</ele>
        <time>2021-08-03T07:55:22.000Z</time>
      </trkpt>
      <trkpt lat="42.61527" lon="1.91704">
        <ele>2206.8</ele>
        <time>2021-08-03T07:56:46.000Z</time>
      </trkpt>
      <trkpt lat="42.61527" lon="1.91706">
        <ele>2206.8</ele>
        <time>2021-08-03T07:56:52.000Z</time>
      </trkpt>
      <trkpt lat="42.61528" lon="1.91706">
        <ele>2206.8</ele>
        <time>2021-08-03T07:56:53.000Z</time>
      </trkpt>
      <trkpt lat="42.61528" lon="1.91706">
        <ele>2206.7</ele>
        <time>2021-08-03T07:56:55.000Z</time>
      </trkpt>
      <trkpt lat="42.61527" lon="1.91705">
        <ele>2206.7</ele>
        <time>2021-08-03T07:56:58.000Z</time>
      </trkpt>
      <trkpt lat="42.61527" lon="1.91705">
        <ele>2206.9</ele>
        <time>2021-08-03T07:57:00.000Z</time>
      </trkpt>
      <trkpt lat="42.61527" lon="1.91705">
        <ele>2209.5</ele>
        <time>2021-08-03T07:57:36.000Z</time>
      </trkpt>
      <trkpt lat="42.61527" lon="1.91705">
        <ele>2209.7</ele>
        <time>2021-08-03T07:57:38.000Z</time>
      </trkpt>
      <trkpt lat="42.61527" lon="1.91705">
        <ele>2211.6</ele>
        <time>2021-08-03T07:58:19.000Z</time>
      </trkpt>
      <trkpt lat="42.61527" lon="1.91705">
        <ele>2211.7</ele>
        <time>2021-08-03T07:58:21.000Z</time>
      </trkpt>
      <trkpt lat="42.61527" lon="1.91705">
        <ele>2211.7</ele>
        <time>2021-08-03T07:58:28.000Z</time>
      </trkpt>
      <trkpt lat="42.61527" lon="1.91705">
        <ele>2211.9</ele>
        <time>2021-08-03T07:58:29.000Z</time>
      </trkpt>
      <trkpt lat="42.61527" lon="1.91705">
        <ele>2210.6</ele>
        <time>2021-08-03T07:58:47.000Z</time>
      </trkpt>
      <trkpt lat="42.61527" lon="1.91705">
        <ele>2210.3</ele>
        <time>2021-08-03T07:58:48.000Z</time>
      </trkpt>
      <trkpt lat="42.61527" lon="1.91705">
        <ele>2209.8</ele>
        <time>2021-08-03T07:58:57.000Z</time>
      </trkpt>
      <trkpt lat="42.61527" lon="1.91705">
        <ele>2209.6</ele>
        <time>2021-08-03T07:58:58.000Z</time>
      </trkpt>
      <trkpt lat="42.61527" lon="1.91705">
        <ele>2210</ele>
        <time>2021-08-03T07:59:08.000Z</time>
      </trkpt>
      <trkpt lat="42.61527" lon="1.91705">
        <ele>2209.9</ele>
        <time>2021-08-03T07:59:09.000Z</time>
      </trkpt>
      <trkpt lat="42.61526" lon="1.91705">
        <ele>2210.1</ele>
        <time>2021-08-03T07:59:12.000Z</time>
      </trkpt>
      <trkpt lat="42.61526" lon="1.91705">
        <ele>2210.2</ele>
        <time>2021-08-03T07:59:13.000Z</time>
      </trkpt>
      <trkpt lat="42.61526" lon="1.91706">
        <ele>2210.3</ele>
        <time>2021-08-03T07:59:18.000Z</time>
      </trkpt>
      <trkpt lat="42.61526" lon="1.91706">
        <ele>2210.3</ele>
        <time>2021-08-03T07:59:19.000Z</time>
      </trkpt>
      <trkpt lat="42.61526" lon="1.91706">
        <ele>2210.2</ele>
        <time>2021-08-03T07:59:26.000Z</time>
      </trkpt>
      <trkpt lat="42.61526" lon="1.91706">
        <ele>2209.9</ele>
        <time>2021-08-03T07:59:29.000Z</time>
      </trkpt>
      <trkpt lat="42.61525" lon="1.91706">
        <ele>2209.9</ele>
        <time>2021-08-03T07:59:30.000Z</time>
      </trkpt>
      <trkpt lat="42.61525" lon="1.91706">
        <ele>2209.9</ele>
        <time>2021-08-03T07:59:31.000Z</time>
      </trkpt>
      <trkpt lat="42.61525" lon="1.91706">
        <ele>2210.6</ele>
        <time>2021-08-03T07:59:46.000Z</time>
      </trkpt>
      <trkpt lat="42.61525" lon="1.91706">
        <ele>2210.5</ele>
        <time>2021-08-03T07:59:47.000Z</time>
      </trkpt>
      <trkpt lat="42.61525" lon="1.91706">
        <ele>2210.8</ele>
        <time>2021-08-03T07:59:53.000Z</time>
      </trkpt>
      <trkpt lat="42.61525" lon="1.91706">
        <ele>2210.9</ele>
        <time>2021-08-03T07:59:54.000Z</time>
      </trkpt>
      <trkpt lat="42.61525" lon="1.91706">
        <ele>2213.1</ele>
        <time>2021-08-03T08:00:40.000Z</time>
      </trkpt>
      <trkpt lat="42.61525" lon="1.91706">
        <ele>2213.1</ele>
        <time>2021-08-03T08:00:41.000Z</time>
      </trkpt>
      <trkpt lat="42.61525" lon="1.91706">
        <ele>2213.5</ele>
        <time>2021-08-03T08:01:16.000Z</time>
      </trkpt>
      <trkpt lat="42.61525" lon="1.91706">
        <ele>2213.5</ele>
        <time>2021-08-03T08:01:17.000Z</time>
      </trkpt>
      <trkpt lat="42.61525" lon="1.91706">
        <ele>2213.6</ele>
        <time>2021-08-03T08:01:47.000Z</time>
      </trkpt>
      <trkpt lat="42.61527" lon="1.91693">
        <ele>2213.6</ele>
        <time>2021-08-03T08:02:01.000Z</time>
      </trkpt>
      <trkpt lat="42.61527" lon="1.91681">
        <ele>2213.4</ele>
        <time>2021-08-03T08:02:12.000Z</time>
      </trkpt>
      <trkpt lat="42.6152" lon="1.91671">
        <ele>2213.2</ele>
        <time>2021-08-03T08:02:25.000Z</time>
      </trkpt>
      <trkpt lat="42.6152" lon="1.91659">
        <ele>2213.1</ele>
        <time>2021-08-03T08:02:38.000Z</time>
      </trkpt>
      <trkpt lat="42.61516" lon="1.91647">
        <ele>2212.9</ele>
        <time>2021-08-03T08:02:57.000Z</time>
      </trkpt>
      <trkpt lat="42.6151" lon="1.91637">
        <ele>2212.1</ele>
        <time>2021-08-03T08:03:11.000Z</time>
      </trkpt>
      <trkpt lat="42.61504" lon="1.91627">
        <ele>2212.1</ele>
        <time>2021-08-03T08:03:23.000Z</time>
      </trkpt>
      <trkpt lat="42.61504" lon="1.91624">
        <ele>2212</ele>
        <time>2021-08-03T08:03:28.000Z</time>
      </trkpt>
      <trkpt lat="42.61503" lon="1.91624">
        <ele>2212</ele>
        <time>2021-08-03T08:03:29.000Z</time>
      </trkpt>
      <trkpt lat="42.61498" lon="1.91613">
        <ele>2211.6</ele>
        <time>2021-08-03T08:03:39.000Z</time>
      </trkpt>
      <trkpt lat="42.61496" lon="1.91606">
        <ele>2211.9</ele>
        <time>2021-08-03T08:03:47.000Z</time>
      </trkpt>
      <trkpt lat="42.61495" lon="1.91606">
        <ele>2212.2</ele>
        <time>2021-08-03T08:03:54.000Z</time>
      </trkpt>
      <trkpt lat="42.61491" lon="1.91594">
        <ele>2212</ele>
        <time>2021-08-03T08:04:04.000Z</time>
      </trkpt>
      <trkpt lat="42.61485" lon="1.91585">
        <ele>2212.9</ele>
        <time>2021-08-03T08:04:22.000Z</time>
      </trkpt>
      <trkpt lat="42.6148" lon="1.91573">
        <ele>2213.4</ele>
        <time>2021-08-03T08:04:35.000Z</time>
      </trkpt>
      <trkpt lat="42.61474" lon="1.91563">
        <ele>2213.6</ele>
        <time>2021-08-03T08:04:47.000Z</time>
      </trkpt>
      <trkpt lat="42.61471" lon="1.91551">
        <ele>2214</ele>
        <time>2021-08-03T08:04:59.000Z</time>
      </trkpt>
      <trkpt lat="42.61464" lon="1.91543">
        <ele>2214</ele>
        <time>2021-08-03T08:05:13.000Z</time>
      </trkpt>
      <trkpt lat="42.61458" lon="1.91533">
        <ele>2213.7</ele>
        <time>2021-08-03T08:05:24.000Z</time>
      </trkpt>
      <trkpt lat="42.61453" lon="1.91522">
        <ele>2213.6</ele>
        <time>2021-08-03T08:05:36.000Z</time>
      </trkpt>
      <trkpt lat="42.61453" lon="1.91515">
        <ele>2213.5</ele>
        <time>2021-08-03T08:05:45.000Z</time>
      </trkpt>
      <trkpt lat="42.61452" lon="1.91515">
        <ele>2213.6</ele>
        <time>2021-08-03T08:05:50.000Z</time>
      </trkpt>
      <trkpt lat="42.61453" lon="1.91502">
        <ele>2214.2</ele>
        <time>2021-08-03T08:06:13.000Z</time>
      </trkpt>
      <trkpt lat="42.61455" lon="1.91493">
        <ele>2215.4</ele>
        <time>2021-08-03T08:06:31.000Z</time>
      </trkpt>
      <trkpt lat="42.61455" lon="1.91493">
        <ele>2215.5</ele>
        <time>2021-08-03T08:06:32.000Z</time>
      </trkpt>
      <trkpt lat="42.61452" lon="1.91481">
        <ele>2217</ele>
        <time>2021-08-03T08:06:58.000Z</time>
      </trkpt>
      <trkpt lat="42.61445" lon="1.91472">
        <ele>2217.2</ele>
        <time>2021-08-03T08:07:15.000Z</time>
      </trkpt>
      <trkpt lat="42.61436" lon="1.91469">
        <ele>2217</ele>
        <time>2021-08-03T08:07:31.000Z</time>
      </trkpt>
      <trkpt lat="42.61427" lon="1.91468">
        <ele>2216.4</ele>
        <time>2021-08-03T08:07:42.000Z</time>
      </trkpt>
      <trkpt lat="42.61417" lon="1.91464">
        <ele>2215.6</ele>
        <time>2021-08-03T08:07:54.000Z</time>
      </trkpt>
      <trkpt lat="42.61416" lon="1.91461">
        <ele>2215</ele>
        <time>2021-08-03T08:07:59.000Z</time>
      </trkpt>
      <trkpt lat="42.61416" lon="1.91461">
        <ele>2215.1</ele>
        <time>2021-08-03T08:08:12.000Z</time>
      </trkpt>
      <trkpt lat="42.61411" lon="1.91451">
        <ele>2215.9</ele>
        <time>2021-08-03T08:08:33.000Z</time>
      </trkpt>
      <trkpt lat="42.61405" lon="1.91441">
        <ele>2216.2</ele>
        <time>2021-08-03T08:08:46.000Z</time>
      </trkpt>
      <trkpt lat="42.61408" lon="1.91436">
        <ele>2217</ele>
        <time>2021-08-03T08:08:57.000Z</time>
      </trkpt>
      <trkpt lat="42.61408" lon="1.91436">
        <ele>2217.2</ele>
        <time>2021-08-03T08:09:00.000Z</time>
      </trkpt>
      <trkpt lat="42.61408" lon="1.91434">
        <ele>2217.1</ele>
        <time>2021-08-03T08:09:05.000Z</time>
      </trkpt>
      <trkpt lat="42.61409" lon="1.91434">
        <ele>2217.2</ele>
        <time>2021-08-03T08:09:06.000Z</time>
      </trkpt>
      <trkpt lat="42.61409" lon="1.91434">
        <ele>2217.2</ele>
        <time>2021-08-03T08:09:07.000Z</time>
      </trkpt>
      <trkpt lat="42.61409" lon="1.91434">
        <ele>2217</ele>
        <time>2021-08-03T08:09:10.000Z</time>
      </trkpt>
      <trkpt lat="42.61409" lon="1.91434">
        <ele>2217.2</ele>
        <time>2021-08-03T08:09:11.000Z</time>
      </trkpt>
      <trkpt lat="42.61409" lon="1.91433">
        <ele>2217.5</ele>
        <time>2021-08-03T08:09:14.000Z</time>
      </trkpt>
      <trkpt lat="42.61407" lon="1.91423">
        <ele>2218</ele>
        <time>2021-08-03T08:09:32.000Z</time>
      </trkpt>
      <trkpt lat="42.61407" lon="1.91423">
        <ele>2217.4</ele>
        <time>2021-08-03T08:09:58.000Z</time>
      </trkpt>
      <trkpt lat="42.61408" lon="1.91413">
        <ele>2217.9</ele>
        <time>2021-08-03T08:10:15.000Z</time>
      </trkpt>
      <trkpt lat="42.61408" lon="1.91413">
        <ele>2218</ele>
        <time>2021-08-03T08:10:16.000Z</time>
      </trkpt>
      <trkpt lat="42.61408" lon="1.91407">
        <ele>2220.1</ele>
        <time>2021-08-03T08:10:30.000Z</time>
      </trkpt>
      <trkpt lat="42.61409" lon="1.91407">
        <ele>2220.7</ele>
        <time>2021-08-03T08:10:34.000Z</time>
      </trkpt>
      <trkpt lat="42.6141" lon="1.91407">
        <ele>2221</ele>
        <time>2021-08-03T08:10:38.000Z</time>
      </trkpt>
      <trkpt lat="42.6141" lon="1.91406">
        <ele>2221</ele>
        <time>2021-08-03T08:10:39.000Z</time>
      </trkpt>
      <trkpt lat="42.61409" lon="1.91404">
        <ele>2221.6</ele>
        <time>2021-08-03T08:10:45.000Z</time>
      </trkpt>
      <trkpt lat="42.6141" lon="1.91404">
        <ele>2221.8</ele>
        <time>2021-08-03T08:10:46.000Z</time>
      </trkpt>
      <trkpt lat="42.6141" lon="1.91403">
        <ele>2222</ele>
        <time>2021-08-03T08:10:48.000Z</time>
      </trkpt>
      <trkpt lat="42.61409" lon="1.91403">
        <ele>2222.1</ele>
        <time>2021-08-03T08:10:49.000Z</time>
      </trkpt>
      <trkpt lat="42.61409" lon="1.91402">
        <ele>2223.4</ele>
        <time>2021-08-03T08:10:56.000Z</time>
      </trkpt>
      <trkpt lat="42.61409" lon="1.91402">
        <ele>2223.5</ele>
        <time>2021-08-03T08:10:57.000Z</time>
      </trkpt>
      <trkpt lat="42.61408" lon="1.91391">
        <ele>2227.4</ele>
        <time>2021-08-03T08:11:25.000Z</time>
      </trkpt>
      <trkpt lat="42.61408" lon="1.91391">
        <ele>2227.7</ele>
        <time>2021-08-03T08:11:29.000Z</time>
      </trkpt>
      <trkpt lat="42.61408" lon="1.91391">
        <ele>2227.8</ele>
        <time>2021-08-03T08:11:30.000Z</time>
      </trkpt>
      <trkpt lat="42.61407" lon="1.91391">
        <ele>2228</ele>
        <time>2021-08-03T08:11:40.000Z</time>
      </trkpt>
      <trkpt lat="42.61401" lon="1.91381">
        <ele>2228.5</ele>
        <time>2021-08-03T08:11:55.000Z</time>
      </trkpt>
      <trkpt lat="42.61396" lon="1.91371">
        <ele>2230.2</ele>
        <time>2021-08-03T08:12:14.000Z</time>
      </trkpt>
      <trkpt lat="42.61396" lon="1.91371">
        <ele>2230.3</ele>
        <time>2021-08-03T08:12:15.000Z</time>
      </trkpt>
      <trkpt lat="42.61394" lon="1.91359">
        <ele>2232.3</ele>
        <time>2021-08-03T08:12:33.000Z</time>
      </trkpt>
      <trkpt lat="42.61393" lon="1.91347">
        <ele>2236.2</ele>
        <time>2021-08-03T08:13:03.000Z</time>
      </trkpt>
      <trkpt lat="42.61389" lon="1.91336">
        <ele>2237.6</ele>
        <time>2021-08-03T08:13:20.000Z</time>
      </trkpt>
      <trkpt lat="42.61387" lon="1.91324">
        <ele>2238.3</ele>
        <time>2021-08-03T08:13:42.000Z</time>
      </trkpt>
      <trkpt lat="42.61387" lon="1.91324">
        <ele>2238.6</ele>
        <time>2021-08-03T08:13:44.000Z</time>
      </trkpt>
      <trkpt lat="42.61387" lon="1.91318">
        <ele>2239.5</ele>
        <time>2021-08-03T08:13:59.000Z</time>
      </trkpt>
      <trkpt lat="42.61387" lon="1.91318">
        <ele>2238.9</ele>
        <time>2021-08-03T08:14:17.000Z</time>
      </trkpt>
      <trkpt lat="42.61387" lon="1.91318">
        <ele>2238.8</ele>
        <time>2021-08-03T08:14:18.000Z</time>
      </trkpt>
      <trkpt lat="42.61387" lon="1.91318">
        <ele>2238.2</ele>
        <time>2021-08-03T08:14:34.000Z</time>
      </trkpt>
      <trkpt lat="42.61387" lon="1.91318">
        <ele>2238.2</ele>
        <time>2021-08-03T08:14:35.000Z</time>
      </trkpt>
      <trkpt lat="42.61387" lon="1.91318">
        <ele>2232.1</ele>
        <time>2021-08-03T08:16:10.000Z</time>
      </trkpt>
      <trkpt lat="42.61387" lon="1.91318">
        <ele>2232.1</ele>
        <time>2021-08-03T08:16:11.000Z</time>
      </trkpt>
      <trkpt lat="42.61387" lon="1.91319">
        <ele>2232.1</ele>
        <time>2021-08-03T08:16:13.000Z</time>
      </trkpt>
      <trkpt lat="42.61387" lon="1.91319">
        <ele>2232.1</ele>
        <time>2021-08-03T08:16:14.000Z</time>
      </trkpt>
      <trkpt lat="42.61386" lon="1.91319">
        <ele>2231.9</ele>
        <time>2021-08-03T08:16:29.000Z</time>
      </trkpt>
      <trkpt lat="42.61384" lon="1.91312">
        <ele>2233.2</ele>
        <time>2021-08-03T08:16:43.000Z</time>
      </trkpt>
      <trkpt lat="42.61384" lon="1.91311">
        <ele>2232.7</ele>
        <time>2021-08-03T08:18:28.000Z</time>
      </trkpt>
      <trkpt lat="42.6138" lon="1.913">
        <ele>2235.2</ele>
        <time>2021-08-03T08:18:51.000Z</time>
      </trkpt>
      <trkpt lat="42.6138" lon="1.91295">
        <ele>2237</ele>
        <time>2021-08-03T08:19:01.000Z</time>
      </trkpt>
      <trkpt lat="42.61379" lon="1.91295">
        <ele>2237.4</ele>
        <time>2021-08-03T08:19:03.000Z</time>
      </trkpt>
      <trkpt lat="42.61378" lon="1.91285">
        <ele>2243.6</ele>
        <time>2021-08-03T08:19:27.000Z</time>
      </trkpt>
      <trkpt lat="42.61378" lon="1.91284">
        <ele>2243.7</ele>
        <time>2021-08-03T08:19:28.000Z</time>
      </trkpt>
      <trkpt lat="42.61377" lon="1.91276">
        <ele>2245.2</ele>
        <time>2021-08-03T08:19:42.000Z</time>
      </trkpt>
      <trkpt lat="42.61377" lon="1.91275">
        <ele>2245.6</ele>
        <time>2021-08-03T08:19:43.000Z</time>
      </trkpt>
      <trkpt lat="42.61374" lon="1.91264">
        <ele>2248.1</ele>
        <time>2021-08-03T08:19:57.000Z</time>
      </trkpt>
      <trkpt lat="42.6137" lon="1.91253">
        <ele>2250.6</ele>
        <time>2021-08-03T08:20:13.000Z</time>
      </trkpt>
      <trkpt lat="42.61367" lon="1.91248">
        <ele>2252.4</ele>
        <time>2021-08-03T08:20:28.000Z</time>
      </trkpt>
      <trkpt lat="42.61366" lon="1.91247">
        <ele>2252.7</ele>
        <time>2021-08-03T08:20:29.000Z</time>
      </trkpt>
      <trkpt lat="42.61366" lon="1.91241">
        <ele>2254.4</ele>
        <time>2021-08-03T08:20:43.000Z</time>
      </trkpt>
      <trkpt lat="42.61366" lon="1.91241">
        <ele>2254.6</ele>
        <time>2021-08-03T08:20:44.000Z</time>
      </trkpt>
      <trkpt lat="42.61363" lon="1.91238">
        <ele>2256.1</ele>
        <time>2021-08-03T08:20:58.000Z</time>
      </trkpt>
      <trkpt lat="42.61363" lon="1.91237">
        <ele>2256.3</ele>
        <time>2021-08-03T08:20:59.000Z</time>
      </trkpt>
      <trkpt lat="42.61364" lon="1.91237">
        <ele>2256.7</ele>
        <time>2021-08-03T08:21:02.000Z</time>
      </trkpt>
      <trkpt lat="42.61363" lon="1.91237">
        <ele>2256.8</ele>
        <time>2021-08-03T08:21:05.000Z</time>
      </trkpt>
      <trkpt lat="42.61363" lon="1.91237">
        <ele>2256.9</ele>
        <time>2021-08-03T08:21:06.000Z</time>
      </trkpt>
      <trkpt lat="42.61364" lon="1.91237">
        <ele>2256.9</ele>
        <time>2021-08-03T08:21:07.000Z</time>
      </trkpt>
      <trkpt lat="42.61364" lon="1.91237">
        <ele>2257.5</ele>
        <time>2021-08-03T08:21:10.000Z</time>
      </trkpt>
      <trkpt lat="42.61364" lon="1.91237">
        <ele>2257.8</ele>
        <time>2021-08-03T08:21:12.000Z</time>
      </trkpt>
      <trkpt lat="42.61363" lon="1.91236">
        <ele>2258.3</ele>
        <time>2021-08-03T08:21:17.000Z</time>
      </trkpt>
      <trkpt lat="42.61363" lon="1.91235">
        <ele>2258.4</ele>
        <time>2021-08-03T08:21:18.000Z</time>
      </trkpt>
      <trkpt lat="42.6136" lon="1.91228">
        <ele>2260.3</ele>
        <time>2021-08-03T08:21:34.000Z</time>
      </trkpt>
      <trkpt lat="42.6136" lon="1.91228">
        <ele>2260.4</ele>
        <time>2021-08-03T08:21:35.000Z</time>
      </trkpt>
      <trkpt lat="42.6136" lon="1.91225">
        <ele>2261.4</ele>
        <time>2021-08-03T08:21:43.000Z</time>
      </trkpt>
      <trkpt lat="42.6136" lon="1.91224">
        <ele>2261.6</ele>
        <time>2021-08-03T08:21:44.000Z</time>
      </trkpt>
      <trkpt lat="42.61358" lon="1.91222">
        <ele>2262.9</ele>
        <time>2021-08-03T08:21:54.000Z</time>
      </trkpt>
      <trkpt lat="42.61358" lon="1.91222">
        <ele>2263.4</ele>
        <time>2021-08-03T08:21:57.000Z</time>
      </trkpt>
      <trkpt lat="42.61357" lon="1.91218">
        <ele>2264.5</ele>
        <time>2021-08-03T08:22:08.000Z</time>
      </trkpt>
      <trkpt lat="42.61356" lon="1.91218">
        <ele>2264.7</ele>
        <time>2021-08-03T08:22:09.000Z</time>
      </trkpt>
      <trkpt lat="42.61353" lon="1.91215">
        <ele>2266.4</ele>
        <time>2021-08-03T08:22:23.000Z</time>
      </trkpt>
      <trkpt lat="42.61353" lon="1.91215">
        <ele>2266.4</ele>
        <time>2021-08-03T08:22:24.000Z</time>
      </trkpt>
      <trkpt lat="42.61353" lon="1.91215">
        <ele>2266.5</ele>
        <time>2021-08-03T08:22:25.000Z</time>
      </trkpt>
      <trkpt lat="42.61352" lon="1.91215">
        <ele>2266.6</ele>
        <time>2021-08-03T08:22:26.000Z</time>
      </trkpt>
      <trkpt lat="42.61352" lon="1.91215">
        <ele>2266.7</ele>
        <time>2021-08-03T08:22:27.000Z</time>
      </trkpt>
      <trkpt lat="42.61353" lon="1.91215">
        <ele>2265.8</ele>
        <time>2021-08-03T08:23:08.000Z</time>
      </trkpt>
      <trkpt lat="42.61353" lon="1.91215">
        <ele>2265.8</ele>
        <time>2021-08-03T08:23:09.000Z</time>
      </trkpt>
      <trkpt lat="42.61353" lon="1.91215">
        <ele>2265.9</ele>
        <time>2021-08-03T08:23:11.000Z</time>
      </trkpt>
      <trkpt lat="42.61353" lon="1.91214">
        <ele>2265.8</ele>
        <time>2021-08-03T08:23:13.000Z</time>
      </trkpt>
      <trkpt lat="42.61352" lon="1.91214">
        <ele>2265.9</ele>
        <time>2021-08-03T08:23:14.000Z</time>
      </trkpt>
      <trkpt lat="42.61354" lon="1.91212">
        <ele>2266.8</ele>
        <time>2021-08-03T08:23:24.000Z</time>
      </trkpt>
      <trkpt lat="42.61354" lon="1.91212">
        <ele>2266.9</ele>
        <time>2021-08-03T08:23:26.000Z</time>
      </trkpt>
      <trkpt lat="42.61354" lon="1.91212">
        <ele>2267</ele>
        <time>2021-08-03T08:23:27.000Z</time>
      </trkpt>
      <trkpt lat="42.61354" lon="1.91212">
        <ele>2267.3</ele>
        <time>2021-08-03T08:23:29.000Z</time>
      </trkpt>
      <trkpt lat="42.6135" lon="1.91201">
        <ele>2271.5</ele>
        <time>2021-08-03T08:23:55.000Z</time>
      </trkpt>
      <trkpt lat="42.6135" lon="1.912">
        <ele>2272</ele>
        <time>2021-08-03T08:23:58.000Z</time>
      </trkpt>
      <trkpt lat="42.61354" lon="1.9119">
        <ele>2277</ele>
        <time>2021-08-03T08:24:29.000Z</time>
      </trkpt>
      <trkpt lat="42.61354" lon="1.9119">
        <ele>2277.5</ele>
        <time>2021-08-03T08:24:32.000Z</time>
      </trkpt>
      <trkpt lat="42.61354" lon="1.91191">
        <ele>2277.8</ele>
        <time>2021-08-03T08:24:33.000Z</time>
      </trkpt>
      <trkpt lat="42.61354" lon="1.9119">
        <ele>2278.7</ele>
        <time>2021-08-03T08:24:48.000Z</time>
      </trkpt>
      <trkpt lat="42.61361" lon="1.91185">
        <ele>2281.9</ele>
        <time>2021-08-03T08:25:18.000Z</time>
      </trkpt>
      <trkpt lat="42.61361" lon="1.91185">
        <ele>2281.9</ele>
        <time>2021-08-03T08:25:19.000Z</time>
      </trkpt>
      <trkpt lat="42.61361" lon="1.91177">
        <ele>2284.5</ele>
        <time>2021-08-03T08:25:34.000Z</time>
      </trkpt>
      <trkpt lat="42.6136" lon="1.91176">
        <ele>2285.1</ele>
        <time>2021-08-03T08:25:37.000Z</time>
      </trkpt>
      <trkpt lat="42.61364" lon="1.91172">
        <ele>2288</ele>
        <time>2021-08-03T08:25:57.000Z</time>
      </trkpt>
      <trkpt lat="42.61364" lon="1.91172">
        <ele>2288</ele>
        <time>2021-08-03T08:25:58.000Z</time>
      </trkpt>
      <trkpt lat="42.61362" lon="1.91167">
        <ele>2290.2</ele>
        <time>2021-08-03T08:26:15.000Z</time>
      </trkpt>
      <trkpt lat="42.61362" lon="1.91167">
        <ele>2290.5</ele>
        <time>2021-08-03T08:26:20.000Z</time>
      </trkpt>
      <trkpt lat="42.61361" lon="1.91165">
        <ele>2290.9</ele>
        <time>2021-08-03T08:26:28.000Z</time>
      </trkpt>
      <trkpt lat="42.61361" lon="1.91165">
        <ele>2291</ele>
        <time>2021-08-03T08:26:29.000Z</time>
      </trkpt>
      <trkpt lat="42.61361" lon="1.91164">
        <ele>2291.3</ele>
        <time>2021-08-03T08:26:31.000Z</time>
      </trkpt>
      <trkpt lat="42.61361" lon="1.91164">
        <ele>2291.4</ele>
        <time>2021-08-03T08:26:32.000Z</time>
      </trkpt>
      <trkpt lat="42.61361" lon="1.91163">
        <ele>2292</ele>
        <time>2021-08-03T08:26:37.000Z</time>
      </trkpt>
      <trkpt lat="42.61361" lon="1.91162">
        <ele>2292.2</ele>
        <time>2021-08-03T08:26:38.000Z</time>
      </trkpt>
      <trkpt lat="42.61361" lon="1.91162">
        <ele>2292.4</ele>
        <time>2021-08-03T08:26:39.000Z</time>
      </trkpt>
      <trkpt lat="42.61361" lon="1.91162">
        <ele>2292.7</ele>
        <time>2021-08-03T08:26:41.000Z</time>
      </trkpt>
      <trkpt lat="42.61362" lon="1.9116">
        <ele>2293.9</ele>
        <time>2021-08-03T08:26:50.000Z</time>
      </trkpt>
      <trkpt lat="42.61362" lon="1.9116">
        <ele>2295.1</ele>
        <time>2021-08-03T08:27:02.000Z</time>
      </trkpt>
      <trkpt lat="42.61362" lon="1.9116">
        <ele>2295.2</ele>
        <time>2021-08-03T08:27:03.000Z</time>
      </trkpt>
      <trkpt lat="42.61362" lon="1.9116">
        <ele>2297.5</ele>
        <time>2021-08-03T08:27:40.000Z</time>
      </trkpt>
      <trkpt lat="42.61362" lon="1.9116">
        <ele>2297.5</ele>
        <time>2021-08-03T08:27:41.000Z</time>
      </trkpt>
      <trkpt lat="42.61362" lon="1.9116">
        <ele>2297.7</ele>
        <time>2021-08-03T08:28:03.000Z</time>
      </trkpt>
      <trkpt lat="42.61362" lon="1.9116">
        <ele>2297.5</ele>
        <time>2021-08-03T08:28:06.000Z</time>
      </trkpt>
      <trkpt lat="42.61363" lon="1.9116">
        <ele>2297.4</ele>
        <time>2021-08-03T08:28:07.000Z</time>
      </trkpt>
      <trkpt lat="42.61363" lon="1.9116">
        <ele>2297.5</ele>
        <time>2021-08-03T08:28:08.000Z</time>
      </trkpt>
      <trkpt lat="42.61363" lon="1.9116">
        <ele>2297.8</ele>
        <time>2021-08-03T08:28:09.000Z</time>
      </trkpt>
      <trkpt lat="42.61363" lon="1.9116">
        <ele>2297.7</ele>
        <time>2021-08-03T08:28:10.000Z</time>
      </trkpt>
      <trkpt lat="42.61363" lon="1.9116">
        <ele>2297.7</ele>
        <time>2021-08-03T08:28:13.000Z</time>
      </trkpt>
      <trkpt lat="42.61363" lon="1.9116">
        <ele>2297.8</ele>
        <time>2021-08-03T08:28:14.000Z</time>
      </trkpt>
      <trkpt lat="42.61363" lon="1.9116">
        <ele>2297.6</ele>
        <time>2021-08-03T08:28:21.000Z</time>
      </trkpt>
      <trkpt lat="42.61363" lon="1.9116">
        <ele>2297.6</ele>
        <time>2021-08-03T08:28:22.000Z</time>
      </trkpt>
      <trkpt lat="42.61363" lon="1.91161">
        <ele>2297.5</ele>
        <time>2021-08-03T08:28:24.000Z</time>
      </trkpt>
      <trkpt lat="42.61363" lon="1.91161">
        <ele>2297.5</ele>
        <time>2021-08-03T08:28:26.000Z</time>
      </trkpt>
      <trkpt lat="42.61363" lon="1.91161">
        <ele>2297.3</ele>
        <time>2021-08-03T08:28:56.000Z</time>
      </trkpt>
      <trkpt lat="42.61363" lon="1.91161">
        <ele>2297</ele>
        <time>2021-08-03T08:28:58.000Z</time>
      </trkpt>
      <trkpt lat="42.61363" lon="1.91161">
        <ele>2296.8</ele>
        <time>2021-08-03T08:29:08.000Z</time>
      </trkpt>
      <trkpt lat="42.61363" lon="1.91161">
        <ele>2296.8</ele>
        <time>2021-08-03T08:29:09.000Z</time>
      </trkpt>
      <trkpt lat="42.61363" lon="1.91162">
        <ele>2297</ele>
        <time>2021-08-03T08:29:45.000Z</time>
      </trkpt>
      <trkpt lat="42.61362" lon="1.91162">
        <ele>2297</ele>
        <time>2021-08-03T08:29:47.000Z</time>
      </trkpt>
      <trkpt lat="42.61362" lon="1.91162">
        <ele>2297</ele>
        <time>2021-08-03T08:29:48.000Z</time>
      </trkpt>
      <trkpt lat="42.61362" lon="1.91162">
        <ele>2296.9</ele>
        <time>2021-08-03T08:29:49.000Z</time>
      </trkpt>
      <trkpt lat="42.61363" lon="1.91162">
        <ele>2297</ele>
        <time>2021-08-03T08:30:01.000Z</time>
      </trkpt>
      <trkpt lat="42.61363" lon="1.91162">
        <ele>2297</ele>
        <time>2021-08-03T08:30:02.000Z</time>
      </trkpt>
      <trkpt lat="42.61362" lon="1.91163">
        <ele>2296.8</ele>
        <time>2021-08-03T08:31:00.000Z</time>
      </trkpt>
      <trkpt lat="42.61362" lon="1.91164">
        <ele>2296.9</ele>
        <time>2021-08-03T08:31:01.000Z</time>
      </trkpt>
      <trkpt lat="42.61363" lon="1.91164">
        <ele>2297</ele>
        <time>2021-08-03T08:31:03.000Z</time>
      </trkpt>
      <trkpt lat="42.61363" lon="1.91164">
        <ele>2296.7</ele>
        <time>2021-08-03T08:31:06.000Z</time>
      </trkpt>
      <trkpt lat="42.61363" lon="1.91164">
        <ele>2296.9</ele>
        <time>2021-08-03T08:31:10.000Z</time>
      </trkpt>
      <trkpt lat="42.61363" lon="1.91162">
        <ele>2297.2</ele>
        <time>2021-08-03T08:31:14.000Z</time>
      </trkpt>
      <trkpt lat="42.61363" lon="1.91162">
        <ele>2297.2</ele>
        <time>2021-08-03T08:31:15.000Z</time>
      </trkpt>
      <trkpt lat="42.61363" lon="1.91161">
        <ele>2297.5</ele>
        <time>2021-08-03T08:31:18.000Z</time>
      </trkpt>
      <trkpt lat="42.61363" lon="1.91161">
        <ele>2298</ele>
        <time>2021-08-03T08:31:22.000Z</time>
      </trkpt>
      <trkpt lat="42.61361" lon="1.91157">
        <ele>2298.3</ele>
        <time>2021-08-03T08:31:31.000Z</time>
      </trkpt>
      <trkpt lat="42.61361" lon="1.91156">
        <ele>2298.4</ele>
        <time>2021-08-03T08:31:35.000Z</time>
      </trkpt>
      <trkpt lat="42.61366" lon="1.91146">
        <ele>2302.3</ele>
        <time>2021-08-03T08:32:02.000Z</time>
      </trkpt>
      <trkpt lat="42.61366" lon="1.91146">
        <ele>2302.6</ele>
        <time>2021-08-03T08:32:06.000Z</time>
      </trkpt>
      <trkpt lat="42.61366" lon="1.91146">
        <ele>2302.7</ele>
        <time>2021-08-03T08:32:07.000Z</time>
      </trkpt>
      <trkpt lat="42.61366" lon="1.91146">
        <ele>2302.7</ele>
        <time>2021-08-03T08:32:08.000Z</time>
      </trkpt>
      <trkpt lat="42.61367" lon="1.91146">
        <ele>2303.1</ele>
        <time>2021-08-03T08:32:11.000Z</time>
      </trkpt>
      <trkpt lat="42.61371" lon="1.91134">
        <ele>2306.3</ele>
        <time>2021-08-03T08:32:33.000Z</time>
      </trkpt>
      <trkpt lat="42.61371" lon="1.91121">
        <ele>2307.7</ele>
        <time>2021-08-03T08:32:49.000Z</time>
      </trkpt>
      <trkpt lat="42.61371" lon="1.91108">
        <ele>2308.3</ele>
        <time>2021-08-03T08:33:02.000Z</time>
      </trkpt>
      <trkpt lat="42.61365" lon="1.91099">
        <ele>2309.2</ele>
        <time>2021-08-03T08:33:16.000Z</time>
      </trkpt>
      <trkpt lat="42.61359" lon="1.9109">
        <ele>2310.4</ele>
        <time>2021-08-03T08:33:28.000Z</time>
      </trkpt>
      <trkpt lat="42.61354" lon="1.91079">
        <ele>2311.3</ele>
        <time>2021-08-03T08:33:40.000Z</time>
      </trkpt>
      <trkpt lat="42.61347" lon="1.91071">
        <ele>2312.1</ele>
        <time>2021-08-03T08:33:51.000Z</time>
      </trkpt>
      <trkpt lat="42.61339" lon="1.91064">
        <ele>2312.6</ele>
        <time>2021-08-03T08:34:05.000Z</time>
      </trkpt>
      <trkpt lat="42.61334" lon="1.91053">
        <ele>2313.3</ele>
        <time>2021-08-03T08:34:17.000Z</time>
      </trkpt>
      <trkpt lat="42.61328" lon="1.91043">
        <ele>2313.8</ele>
        <time>2021-08-03T08:34:30.000Z</time>
      </trkpt>
      <trkpt lat="42.6132" lon="1.91035">
        <ele>2314.1</ele>
        <time>2021-08-03T08:34:42.000Z</time>
      </trkpt>
      <trkpt lat="42.61319" lon="1.91022">
        <ele>2314.4</ele>
        <time>2021-08-03T08:34:54.000Z</time>
      </trkpt>
      <trkpt lat="42.61326" lon="1.91013">
        <ele>2314.3</ele>
        <time>2021-08-03T08:35:06.000Z</time>
      </trkpt>
      <trkpt lat="42.61326" lon="1.91008">
        <ele>2313.8</ele>
        <time>2021-08-03T08:35:14.000Z</time>
      </trkpt>
      <trkpt lat="42.61326" lon="1.91008">
        <ele>2314</ele>
        <time>2021-08-03T08:35:22.000Z</time>
      </trkpt>
      <trkpt lat="42.61325" lon="1.91009">
        <ele>2312.3</ele>
        <time>2021-08-03T08:35:27.000Z</time>
      </trkpt>
      <trkpt lat="42.61326" lon="1.91009">
        <ele>2308.6</ele>
        <time>2021-08-03T08:35:53.000Z</time>
      </trkpt>
      <trkpt lat="42.61326" lon="1.91009">
        <ele>2308.6</ele>
        <time>2021-08-03T08:35:54.000Z</time>
      </trkpt>
      <trkpt lat="42.61326" lon="1.91008">
        <ele>2302.9</ele>
        <time>2021-08-03T08:40:33.000Z</time>
      </trkpt>
      <trkpt lat="42.61326" lon="1.91008">
        <ele>2303.3</ele>
        <time>2021-08-03T08:40:34.000Z</time>
      </trkpt>
      <trkpt lat="42.61326" lon="1.91008">
        <ele>2311.2</ele>
        <time>2021-08-03T08:41:42.000Z</time>
      </trkpt>
      <trkpt lat="42.61326" lon="1.91008">
        <ele>2311.3</ele>
        <time>2021-08-03T08:41:43.000Z</time>
      </trkpt>
      <trkpt lat="42.61326" lon="1.91008">
        <ele>2309.2</ele>
        <time>2021-08-03T08:45:23.000Z</time>
      </trkpt>
      <trkpt lat="42.61326" lon="1.91008">
        <ele>2309.2</ele>
        <time>2021-08-03T08:45:24.000Z</time>
      </trkpt>
      <trkpt lat="42.61326" lon="1.91007">
        <ele>2310.1</ele>
        <time>2021-08-03T08:54:10.000Z</time>
      </trkpt>
      <trkpt lat="42.61326" lon="1.91007">
        <ele>2310</ele>
        <time>2021-08-03T08:54:11.000Z</time>
      </trkpt>
      <trkpt lat="42.61326" lon="1.91007">
        <ele>2309.4</ele>
        <time>2021-08-03T08:56:47.000Z</time>
      </trkpt>
      <trkpt lat="42.61326" lon="1.91007">
        <ele>2309.4</ele>
        <time>2021-08-03T08:56:48.000Z</time>
      </trkpt>
      <trkpt lat="42.61326" lon="1.91006">
        <ele>2310.9</ele>
        <time>2021-08-03T08:57:19.000Z</time>
      </trkpt>
      <trkpt lat="42.61326" lon="1.91006">
        <ele>2310.8</ele>
        <time>2021-08-03T08:57:20.000Z</time>
      </trkpt>
      <trkpt lat="42.61326" lon="1.91006">
        <ele>2310</ele>
        <time>2021-08-03T08:57:43.000Z</time>
      </trkpt>
      <trkpt lat="42.61326" lon="1.91006">
        <ele>2310.2</ele>
        <time>2021-08-03T08:57:44.000Z</time>
      </trkpt>
      <trkpt lat="42.61326" lon="1.91006">
        <ele>2310.6</ele>
        <time>2021-08-03T08:58:44.000Z</time>
      </trkpt>
      <trkpt lat="42.61326" lon="1.91006">
        <ele>2310.7</ele>
        <time>2021-08-03T08:58:45.000Z</time>
      </trkpt>
      <trkpt lat="42.61326" lon="1.91006">
        <ele>2310.1</ele>
        <time>2021-08-03T08:59:22.000Z</time>
      </trkpt>
      <trkpt lat="42.61326" lon="1.91006">
        <ele>2310.1</ele>
        <time>2021-08-03T08:59:23.000Z</time>
      </trkpt>
      <trkpt lat="42.61326" lon="1.91006">
        <ele>2310.3</ele>
        <time>2021-08-03T08:59:59.000Z</time>
      </trkpt>
      <trkpt lat="42.61326" lon="1.91006">
        <ele>2310.1</ele>
        <time>2021-08-03T09:00:00.000Z</time>
      </trkpt>
      <trkpt lat="42.61326" lon="1.91006">
        <ele>2309.7</ele>
        <time>2021-08-03T09:00:20.000Z</time>
      </trkpt>
      <trkpt lat="42.61326" lon="1.91006">
        <ele>2309.7</ele>
        <time>2021-08-03T09:00:21.000Z</time>
      </trkpt>
      <trkpt lat="42.61326" lon="1.91006">
        <ele>2309.5</ele>
        <time>2021-08-03T09:00:35.000Z</time>
      </trkpt>
      <trkpt lat="42.61326" lon="1.91006">
        <ele>2310</ele>
        <time>2021-08-03T09:00:36.000Z</time>
      </trkpt>
      <trkpt lat="42.61326" lon="1.91006">
        <ele>2309.9</ele>
        <time>2021-08-03T09:00:37.000Z</time>
      </trkpt>
      <trkpt lat="42.61326" lon="1.91006">
        <ele>2310</ele>
        <time>2021-08-03T09:00:38.000Z</time>
      </trkpt>
      <trkpt lat="42.61326" lon="1.91007">
        <ele>2310</ele>
        <time>2021-08-03T09:00:44.000Z</time>
      </trkpt>
      <trkpt lat="42.61326" lon="1.91007">
        <ele>2307.5</ele>
        <time>2021-08-03T09:00:46.000Z</time>
      </trkpt>
      <trkpt lat="42.61325" lon="1.91007">
        <ele>2313.7</ele>
        <time>2021-08-03T09:00:53.000Z</time>
      </trkpt>
      <trkpt lat="42.61325" lon="1.91007">
        <ele>2313.2</ele>
        <time>2021-08-03T09:00:54.000Z</time>
      </trkpt>
      <trkpt lat="42.61326" lon="1.91007">
        <ele>2312.2</ele>
        <time>2021-08-03T09:00:55.000Z</time>
      </trkpt>
      <trkpt lat="42.61326" lon="1.91007">
        <ele>2310.3</ele>
        <time>2021-08-03T09:00:56.000Z</time>
      </trkpt>
      <trkpt lat="42.61325" lon="1.91007">
        <ele>2310</ele>
        <time>2021-08-03T09:00:57.000Z</time>
      </trkpt>
      <trkpt lat="42.61325" lon="1.91007">
        <ele>2310.4</ele>
        <time>2021-08-03T09:00:58.000Z</time>
      </trkpt>
      <trkpt lat="42.61326" lon="1.91007">
        <ele>2309.9</ele>
        <time>2021-08-03T09:01:06.000Z</time>
      </trkpt>
      <trkpt lat="42.61326" lon="1.91007">
        <ele>2309.8</ele>
        <time>2021-08-03T09:01:07.000Z</time>
      </trkpt>
      <trkpt lat="42.61326" lon="1.91007">
        <ele>2309.1</ele>
        <time>2021-08-03T09:01:11.000Z</time>
      </trkpt>
      <trkpt lat="42.61326" lon="1.91007">
        <ele>2308</ele>
        <time>2021-08-03T09:01:12.000Z</time>
      </trkpt>
      <trkpt lat="42.61326" lon="1.91007">
        <ele>2309.9</ele>
        <time>2021-08-03T09:01:26.000Z</time>
      </trkpt>
      <trkpt lat="42.61326" lon="1.91007">
        <ele>2309.5</ele>
        <time>2021-08-03T09:01:27.000Z</time>
      </trkpt>
      <trkpt lat="42.61326" lon="1.91007">
        <ele>2308.5</ele>
        <time>2021-08-03T09:01:29.000Z</time>
      </trkpt>
      <trkpt lat="42.61326" lon="1.91007">
        <ele>2310.8</ele>
        <time>2021-08-03T09:01:30.000Z</time>
      </trkpt>
      <trkpt lat="42.61326" lon="1.91007">
        <ele>2311.8</ele>
        <time>2021-08-03T09:01:41.000Z</time>
      </trkpt>
      <trkpt lat="42.61326" lon="1.91008">
        <ele>2311.3</ele>
        <time>2021-08-03T09:01:43.000Z</time>
      </trkpt>
      <trkpt lat="42.61326" lon="1.91008">
        <ele>2310.9</ele>
        <time>2021-08-03T09:01:44.000Z</time>
      </trkpt>
      <trkpt lat="42.61326" lon="1.91008">
        <ele>2310.4</ele>
        <time>2021-08-03T09:01:45.000Z</time>
      </trkpt>
      <trkpt lat="42.61326" lon="1.91008">
        <ele>2310.3</ele>
        <time>2021-08-03T09:01:46.000Z</time>
      </trkpt>
      <trkpt lat="42.61326" lon="1.91008">
        <ele>2310.2</ele>
        <time>2021-08-03T09:01:47.000Z</time>
      </trkpt>
      <trkpt lat="42.61326" lon="1.91008">
        <ele>2310</ele>
        <time>2021-08-03T09:02:12.000Z</time>
      </trkpt>
      <trkpt lat="42.61326" lon="1.91008">
        <ele>2309.8</ele>
        <time>2021-08-03T09:02:13.000Z</time>
      </trkpt>
      <trkpt lat="42.61326" lon="1.91008">
        <ele>2309.9</ele>
        <time>2021-08-03T09:04:14.000Z</time>
      </trkpt>
      <trkpt lat="42.61326" lon="1.91008">
        <ele>2310.3</ele>
        <time>2021-08-03T09:04:15.000Z</time>
      </trkpt>
      <trkpt lat="42.61326" lon="1.91008">
        <ele>2311.3</ele>
        <time>2021-08-03T09:04:17.000Z</time>
      </trkpt>
      <trkpt lat="42.61327" lon="1.91009">
        <ele>2311.1</ele>
        <time>2021-08-03T09:04:20.000Z</time>
      </trkpt>
      <trkpt lat="42.61327" lon="1.91009">
        <ele>2311.2</ele>
        <time>2021-08-03T09:04:21.000Z</time>
      </trkpt>
      <trkpt lat="42.61327" lon="1.91009">
        <ele>2311.1</ele>
        <time>2021-08-03T09:04:22.000Z</time>
      </trkpt>
      <trkpt lat="42.61327" lon="1.91009">
        <ele>2310.9</ele>
        <time>2021-08-03T09:04:24.000Z</time>
      </trkpt>
      <trkpt lat="42.61321" lon="1.91019">
        <ele>2311.1</ele>
        <time>2021-08-03T09:04:41.000Z</time>
      </trkpt>
      <trkpt lat="42.61318" lon="1.91031">
        <ele>2312.1</ele>
        <time>2021-08-03T09:04:54.000Z</time>
      </trkpt>
      <trkpt lat="42.61311" lon="1.91039">
        <ele>2310.8</ele>
        <time>2021-08-03T09:05:08.000Z</time>
      </trkpt>
      <trkpt lat="42.61308" lon="1.91044">
        <ele>2310.7</ele>
        <time>2021-08-03T09:05:17.000Z</time>
      </trkpt>
      <trkpt lat="42.61308" lon="1.91044">
        <ele>2310.9</ele>
        <time>2021-08-03T09:05:18.000Z</time>
      </trkpt>
      <trkpt lat="42.61306" lon="1.91051">
        <ele>2311.7</ele>
        <time>2021-08-03T09:05:29.000Z</time>
      </trkpt>
      <trkpt lat="42.61306" lon="1.91051">
        <ele>2311.5</ele>
        <time>2021-08-03T09:05:36.000Z</time>
      </trkpt>
      <trkpt lat="42.61305" lon="1.91052">
        <ele>2311.8</ele>
        <time>2021-08-03T09:05:40.000Z</time>
      </trkpt>
      <trkpt lat="42.61305" lon="1.91052">
        <ele>2311.8</ele>
        <time>2021-08-03T09:05:42.000Z</time>
      </trkpt>
      <trkpt lat="42.613" lon="1.91056">
        <ele>2313.4</ele>
        <time>2021-08-03T09:05:55.000Z</time>
      </trkpt>
      <trkpt lat="42.613" lon="1.91056">
        <ele>2313.8</ele>
        <time>2021-08-03T09:05:59.000Z</time>
      </trkpt>
      <trkpt lat="42.61294" lon="1.91046">
        <ele>2318.7</ele>
        <time>2021-08-03T09:06:31.000Z</time>
      </trkpt>
      <trkpt lat="42.61294" lon="1.91046">
        <ele>2319.2</ele>
        <time>2021-08-03T09:06:34.000Z</time>
      </trkpt>
      <trkpt lat="42.61293" lon="1.91046">
        <ele>2319.3</ele>
        <time>2021-08-03T09:06:35.000Z</time>
      </trkpt>
      <trkpt lat="42.6129" lon="1.91034">
        <ele>2320.9</ele>
        <time>2021-08-03T09:06:55.000Z</time>
      </trkpt>
      <trkpt lat="42.61286" lon="1.91022">
        <ele>2320.8</ele>
        <time>2021-08-03T09:07:10.000Z</time>
      </trkpt>
      <trkpt lat="42.6128" lon="1.91012">
        <ele>2321</ele>
        <time>2021-08-03T09:07:21.000Z</time>
      </trkpt>
      <trkpt lat="42.61279" lon="1.9101">
        <ele>2321.3</ele>
        <time>2021-08-03T09:07:27.000Z</time>
      </trkpt>
      <trkpt lat="42.61279" lon="1.9101">
        <ele>2321.4</ele>
        <time>2021-08-03T09:07:28.000Z</time>
      </trkpt>
      <trkpt lat="42.61279" lon="1.9101">
        <ele>2321.4</ele>
        <time>2021-08-03T09:07:29.000Z</time>
      </trkpt>
      <trkpt lat="42.61279" lon="1.91009">
        <ele>2321.6</ele>
        <time>2021-08-03T09:07:31.000Z</time>
      </trkpt>
      <trkpt lat="42.61277" lon="1.90996">
        <ele>2319.7</ele>
        <time>2021-08-03T09:07:51.000Z</time>
      </trkpt>
      <trkpt lat="42.61273" lon="1.90993">
        <ele>2321.3</ele>
        <time>2021-08-03T09:08:00.000Z</time>
      </trkpt>
      <trkpt lat="42.61273" lon="1.90993">
        <ele>2321</ele>
        <time>2021-08-03T09:08:18.000Z</time>
      </trkpt>
      <trkpt lat="42.61269" lon="1.90981">
        <ele>2322.4</ele>
        <time>2021-08-03T09:08:31.000Z</time>
      </trkpt>
      <trkpt lat="42.61263" lon="1.90971">
        <ele>2324.2</ele>
        <time>2021-08-03T09:08:46.000Z</time>
      </trkpt>
      <trkpt lat="42.61262" lon="1.90965">
        <ele>2327</ele>
        <time>2021-08-03T09:09:00.000Z</time>
      </trkpt>
      <trkpt lat="42.61262" lon="1.90965">
        <ele>2326</ele>
        <time>2021-08-03T09:09:34.000Z</time>
      </trkpt>
      <trkpt lat="42.61262" lon="1.90965">
        <ele>2326</ele>
        <time>2021-08-03T09:09:35.000Z</time>
      </trkpt>
      <trkpt lat="42.61262" lon="1.90965">
        <ele>2325.8</ele>
        <time>2021-08-03T09:09:37.000Z</time>
      </trkpt>
      <trkpt lat="42.61262" lon="1.90965">
        <ele>2325.8</ele>
        <time>2021-08-03T09:09:38.000Z</time>
      </trkpt>
      <trkpt lat="42.61262" lon="1.90965">
        <ele>2325.4</ele>
        <time>2021-08-03T09:10:06.000Z</time>
      </trkpt>
      <trkpt lat="42.61262" lon="1.90966">
        <ele>2325.6</ele>
        <time>2021-08-03T09:10:08.000Z</time>
      </trkpt>
      <trkpt lat="42.61262" lon="1.90966">
        <ele>2325.6</ele>
        <time>2021-08-03T09:10:13.000Z</time>
      </trkpt>
      <trkpt lat="42.61262" lon="1.90966">
        <ele>2325.2</ele>
        <time>2021-08-03T09:10:15.000Z</time>
      </trkpt>
      <trkpt lat="42.61262" lon="1.90965">
        <ele>2325.5</ele>
        <time>2021-08-03T09:10:25.000Z</time>
      </trkpt>
      <trkpt lat="42.61262" lon="1.90965">
        <ele>2325.5</ele>
        <time>2021-08-03T09:10:26.000Z</time>
      </trkpt>
      <trkpt lat="42.61263" lon="1.90965">
        <ele>2325.5</ele>
        <time>2021-08-03T09:11:37.000Z</time>
      </trkpt>
      <trkpt lat="42.61263" lon="1.90965">
        <ele>2325.6</ele>
        <time>2021-08-03T09:11:38.000Z</time>
      </trkpt>
      <trkpt lat="42.61263" lon="1.90965">
        <ele>2325.5</ele>
        <time>2021-08-03T09:11:40.000Z</time>
      </trkpt>
      <trkpt lat="42.61263" lon="1.90965">
        <ele>2325.5</ele>
        <time>2021-08-03T09:11:41.000Z</time>
      </trkpt>
      <trkpt lat="42.61263" lon="1.90965">
        <ele>2326.1</ele>
        <time>2021-08-03T09:12:05.000Z</time>
      </trkpt>
      <trkpt lat="42.61263" lon="1.90965">
        <ele>2326.4</ele>
        <time>2021-08-03T09:12:06.000Z</time>
      </trkpt>
      <trkpt lat="42.61263" lon="1.90965">
        <ele>2326.8</ele>
        <time>2021-08-03T09:12:11.000Z</time>
      </trkpt>
      <trkpt lat="42.61263" lon="1.90965">
        <ele>2326.7</ele>
        <time>2021-08-03T09:12:12.000Z</time>
      </trkpt>
      <trkpt lat="42.61263" lon="1.90964">
        <ele>2326.8</ele>
        <time>2021-08-03T09:12:13.000Z</time>
      </trkpt>
      <trkpt lat="42.61263" lon="1.90964">
        <ele>2326.9</ele>
        <time>2021-08-03T09:12:14.000Z</time>
      </trkpt>
      <trkpt lat="42.61262" lon="1.90964">
        <ele>2327.2</ele>
        <time>2021-08-03T09:12:16.000Z</time>
      </trkpt>
      <trkpt lat="42.61262" lon="1.90964">
        <ele>2327.2</ele>
        <time>2021-08-03T09:12:18.000Z</time>
      </trkpt>
      <trkpt lat="42.61262" lon="1.90964">
        <ele>2327.5</ele>
        <time>2021-08-03T09:12:20.000Z</time>
      </trkpt>
      <trkpt lat="42.61259" lon="1.90959">
        <ele>2327.8</ele>
        <time>2021-08-03T09:12:32.000Z</time>
      </trkpt>
      <trkpt lat="42.61259" lon="1.90958">
        <ele>2328.2</ele>
        <time>2021-08-03T09:12:37.000Z</time>
      </trkpt>
      <trkpt lat="42.61259" lon="1.90957">
        <ele>2327.9</ele>
        <time>2021-08-03T09:12:41.000Z</time>
      </trkpt>
      <trkpt lat="42.61259" lon="1.90957">
        <ele>2327.9</ele>
        <time>2021-08-03T09:12:42.000Z</time>
      </trkpt>
      <trkpt lat="42.61259" lon="1.90957">
        <ele>2327.9</ele>
        <time>2021-08-03T09:12:43.000Z</time>
      </trkpt>
      <trkpt lat="42.61259" lon="1.90956">
        <ele>2327.2</ele>
        <time>2021-08-03T09:13:01.000Z</time>
      </trkpt>
      <trkpt lat="42.61258" lon="1.90956">
        <ele>2327.7</ele>
        <time>2021-08-03T09:13:05.000Z</time>
      </trkpt>
      <trkpt lat="42.61258" lon="1.90955">
        <ele>2327.9</ele>
        <time>2021-08-03T09:13:07.000Z</time>
      </trkpt>
      <trkpt lat="42.61258" lon="1.90955">
        <ele>2327.6</ele>
        <time>2021-08-03T09:13:08.000Z</time>
      </trkpt>
      <trkpt lat="42.61258" lon="1.90955">
        <ele>2326.9</ele>
        <time>2021-08-03T09:13:10.000Z</time>
      </trkpt>
      <trkpt lat="42.61258" lon="1.90955">
        <ele>2326.7</ele>
        <time>2021-08-03T09:13:11.000Z</time>
      </trkpt>
      <trkpt lat="42.61258" lon="1.90956">
        <ele>2327.2</ele>
        <time>2021-08-03T09:13:31.000Z</time>
      </trkpt>
      <trkpt lat="42.61258" lon="1.90956">
        <ele>2327.3</ele>
        <time>2021-08-03T09:13:34.000Z</time>
      </trkpt>
      <trkpt lat="42.61258" lon="1.90956">
        <ele>2327</ele>
        <time>2021-08-03T09:13:36.000Z</time>
      </trkpt>
      <trkpt lat="42.61258" lon="1.90956">
        <ele>2327</ele>
        <time>2021-08-03T09:13:38.000Z</time>
      </trkpt>
      <trkpt lat="42.61258" lon="1.90956">
        <ele>2327.6</ele>
        <time>2021-08-03T09:13:46.000Z</time>
      </trkpt>
      <trkpt lat="42.61254" lon="1.90946">
        <ele>2330.5</ele>
        <time>2021-08-03T09:14:03.000Z</time>
      </trkpt>
      <trkpt lat="42.61245" lon="1.90943">
        <ele>2332.2</ele>
        <time>2021-08-03T09:14:14.000Z</time>
      </trkpt>
      <trkpt lat="42.61235" lon="1.90943">
        <ele>2334.3</ele>
        <time>2021-08-03T09:14:29.000Z</time>
      </trkpt>
      <trkpt lat="42.61228" lon="1.90943">
        <ele>2335.6</ele>
        <time>2021-08-03T09:14:43.000Z</time>
      </trkpt>
      <trkpt lat="42.61228" lon="1.90943">
        <ele>2335.4</ele>
        <time>2021-08-03T09:14:44.000Z</time>
      </trkpt>
      <trkpt lat="42.61221" lon="1.90934">
        <ele>2337.2</ele>
        <time>2021-08-03T09:14:59.000Z</time>
      </trkpt>
      <trkpt lat="42.61214" lon="1.90924">
        <ele>2339.9</ele>
        <time>2021-08-03T09:15:16.000Z</time>
      </trkpt>
      <trkpt lat="42.61207" lon="1.90915">
        <ele>2341.3</ele>
        <time>2021-08-03T09:15:31.000Z</time>
      </trkpt>
      <trkpt lat="42.61198" lon="1.90918">
        <ele>2340.5</ele>
        <time>2021-08-03T09:15:48.000Z</time>
      </trkpt>
      <trkpt lat="42.61195" lon="1.9092">
        <ele>2341.9</ele>
        <time>2021-08-03T09:15:56.000Z</time>
      </trkpt>
      <trkpt lat="42.61195" lon="1.9092">
        <ele>2341.9</ele>
        <time>2021-08-03T09:15:57.000Z</time>
      </trkpt>
      <trkpt lat="42.61195" lon="1.90919">
        <ele>2342.3</ele>
        <time>2021-08-03T09:16:00.000Z</time>
      </trkpt>
      <trkpt lat="42.61195" lon="1.90919">
        <ele>2342</ele>
        <time>2021-08-03T09:16:02.000Z</time>
      </trkpt>
      <trkpt lat="42.61192" lon="1.90907">
        <ele>2344</ele>
        <time>2021-08-03T09:16:18.000Z</time>
      </trkpt>
      <trkpt lat="42.61193" lon="1.90901">
        <ele>2344.4</ele>
        <time>2021-08-03T09:16:29.000Z</time>
      </trkpt>
      <trkpt lat="42.61193" lon="1.909">
        <ele>2344.3</ele>
        <time>2021-08-03T09:16:42.000Z</time>
      </trkpt>
      <trkpt lat="42.61193" lon="1.909">
        <ele>2344.6</ele>
        <time>2021-08-03T09:16:44.000Z</time>
      </trkpt>
      <trkpt lat="42.61193" lon="1.909">
        <ele>2344.1</ele>
        <time>2021-08-03T09:16:55.000Z</time>
      </trkpt>
      <trkpt lat="42.61193" lon="1.90901">
        <ele>2343.8</ele>
        <time>2021-08-03T09:16:56.000Z</time>
      </trkpt>
      <trkpt lat="42.61193" lon="1.90901">
        <ele>2343.8</ele>
        <time>2021-08-03T09:17:00.000Z</time>
      </trkpt>
      <trkpt lat="42.61193" lon="1.909">
        <ele>2344</ele>
        <time>2021-08-03T09:17:01.000Z</time>
      </trkpt>
      <trkpt lat="42.61193" lon="1.909">
        <ele>2344.9</ele>
        <time>2021-08-03T09:17:05.000Z</time>
      </trkpt>
      <trkpt lat="42.61193" lon="1.909">
        <ele>2345</ele>
        <time>2021-08-03T09:17:07.000Z</time>
      </trkpt>
      <trkpt lat="42.61193" lon="1.909">
        <ele>2344.7</ele>
        <time>2021-08-03T09:17:12.000Z</time>
      </trkpt>
      <trkpt lat="42.61192" lon="1.90899">
        <ele>2345.9</ele>
        <time>2021-08-03T09:17:17.000Z</time>
      </trkpt>
      <trkpt lat="42.61192" lon="1.909">
        <ele>2346.1</ele>
        <time>2021-08-03T09:17:23.000Z</time>
      </trkpt>
      <trkpt lat="42.6119" lon="1.90893">
        <ele>2348.9</ele>
        <time>2021-08-03T09:17:44.000Z</time>
      </trkpt>
      <trkpt lat="42.61191" lon="1.90893">
        <ele>2349.1</ele>
        <time>2021-08-03T09:17:45.000Z</time>
      </trkpt>
      <trkpt lat="42.61191" lon="1.90892">
        <ele>2349</ele>
        <time>2021-08-03T09:17:48.000Z</time>
      </trkpt>
      <trkpt lat="42.61191" lon="1.90892">
        <ele>2348.8</ele>
        <time>2021-08-03T09:17:51.000Z</time>
      </trkpt>
      <trkpt lat="42.61191" lon="1.9089">
        <ele>2348.8</ele>
        <time>2021-08-03T09:17:58.000Z</time>
      </trkpt>
      <trkpt lat="42.61191" lon="1.9089">
        <ele>2348.8</ele>
        <time>2021-08-03T09:17:59.000Z</time>
      </trkpt>
      <trkpt lat="42.6119" lon="1.90889">
        <ele>2350.2</ele>
        <time>2021-08-03T09:18:04.000Z</time>
      </trkpt>
      <trkpt lat="42.61191" lon="1.90888">
        <ele>2350.4</ele>
        <time>2021-08-03T09:18:07.000Z</time>
      </trkpt>
      <trkpt lat="42.61191" lon="1.90888">
        <ele>2350.5</ele>
        <time>2021-08-03T09:18:08.000Z</time>
      </trkpt>
      <trkpt lat="42.61191" lon="1.90888">
        <ele>2350.5</ele>
        <time>2021-08-03T09:18:09.000Z</time>
      </trkpt>
      <trkpt lat="42.61192" lon="1.90884">
        <ele>2351.7</ele>
        <time>2021-08-03T09:18:18.000Z</time>
      </trkpt>
      <trkpt lat="42.61191" lon="1.90884">
        <ele>2353.6</ele>
        <time>2021-08-03T09:18:24.000Z</time>
      </trkpt>
      <trkpt lat="42.61191" lon="1.90884">
        <ele>2353.4</ele>
        <time>2021-08-03T09:18:25.000Z</time>
      </trkpt>
      <trkpt lat="42.61191" lon="1.90884">
        <ele>2353.2</ele>
        <time>2021-08-03T09:18:26.000Z</time>
      </trkpt>
      <trkpt lat="42.61191" lon="1.90883">
        <ele>2353.2</ele>
        <time>2021-08-03T09:18:28.000Z</time>
      </trkpt>
      <trkpt lat="42.61192" lon="1.90883">
        <ele>2353.3</ele>
        <time>2021-08-03T09:18:29.000Z</time>
      </trkpt>
      <trkpt lat="42.61192" lon="1.90883">
        <ele>2353.5</ele>
        <time>2021-08-03T09:18:31.000Z</time>
      </trkpt>
      <trkpt lat="42.61192" lon="1.90883">
        <ele>2353.5</ele>
        <time>2021-08-03T09:18:47.000Z</time>
      </trkpt>
      <trkpt lat="42.61192" lon="1.90883">
        <ele>2353.2</ele>
        <time>2021-08-03T09:18:49.000Z</time>
      </trkpt>
      <trkpt lat="42.61192" lon="1.90883">
        <ele>2353</ele>
        <time>2021-08-03T09:18:50.000Z</time>
      </trkpt>
      <trkpt lat="42.61191" lon="1.90883">
        <ele>2353.2</ele>
        <time>2021-08-03T09:18:52.000Z</time>
      </trkpt>
      <trkpt lat="42.61191" lon="1.90883">
        <ele>2353.1</ele>
        <time>2021-08-03T09:18:53.000Z</time>
      </trkpt>
      <trkpt lat="42.61191" lon="1.90883">
        <ele>2353.1</ele>
        <time>2021-08-03T09:18:54.000Z</time>
      </trkpt>
      <trkpt lat="42.61191" lon="1.90882">
        <ele>2353.3</ele>
        <time>2021-08-03T09:18:55.000Z</time>
      </trkpt>
      <trkpt lat="42.61192" lon="1.9088">
        <ele>2354</ele>
        <time>2021-08-03T09:19:02.000Z</time>
      </trkpt>
      <trkpt lat="42.61192" lon="1.9088">
        <ele>2354.3</ele>
        <time>2021-08-03T09:19:09.000Z</time>
      </trkpt>
      <trkpt lat="42.61192" lon="1.9088">
        <ele>2354.4</ele>
        <time>2021-08-03T09:19:10.000Z</time>
      </trkpt>
      <trkpt lat="42.61192" lon="1.9088">
        <ele>2354.4</ele>
        <time>2021-08-03T09:19:12.000Z</time>
      </trkpt>
      <trkpt lat="42.61192" lon="1.90878">
        <ele>2355.4</ele>
        <time>2021-08-03T09:19:20.000Z</time>
      </trkpt>
      <trkpt lat="42.61192" lon="1.90877">
        <ele>2355.6</ele>
        <time>2021-08-03T09:19:21.000Z</time>
      </trkpt>
      <trkpt lat="42.61192" lon="1.90875">
        <ele>2355.9</ele>
        <time>2021-08-03T09:19:26.000Z</time>
      </trkpt>
      <trkpt lat="42.61192" lon="1.90874">
        <ele>2356.1</ele>
        <time>2021-08-03T09:19:28.000Z</time>
      </trkpt>
      <trkpt lat="42.61193" lon="1.90873">
        <ele>2356.8</ele>
        <time>2021-08-03T09:19:34.000Z</time>
      </trkpt>
      <trkpt lat="42.61193" lon="1.90873">
        <ele>2357.1</ele>
        <time>2021-08-03T09:19:37.000Z</time>
      </trkpt>
      <trkpt lat="42.61192" lon="1.90871">
        <ele>2357.9</ele>
        <time>2021-08-03T09:19:43.000Z</time>
      </trkpt>
      <trkpt lat="42.61192" lon="1.90871">
        <ele>2358.1</ele>
        <time>2021-08-03T09:19:44.000Z</time>
      </trkpt>
      <trkpt lat="42.61192" lon="1.9087">
        <ele>2358.4</ele>
        <time>2021-08-03T09:19:48.000Z</time>
      </trkpt>
      <trkpt lat="42.61192" lon="1.9087">
        <ele>2358.4</ele>
        <time>2021-08-03T09:19:49.000Z</time>
      </trkpt>
      <trkpt lat="42.61191" lon="1.90861">
        <ele>2362.2</ele>
        <time>2021-08-03T09:20:16.000Z</time>
      </trkpt>
      <trkpt lat="42.61191" lon="1.90861">
        <ele>2362.7</ele>
        <time>2021-08-03T09:20:20.000Z</time>
      </trkpt>
      <trkpt lat="42.61191" lon="1.90861">
        <ele>2362.6</ele>
        <time>2021-08-03T09:20:21.000Z</time>
      </trkpt>
      <trkpt lat="42.61191" lon="1.9086">
        <ele>2362.6</ele>
        <time>2021-08-03T09:20:22.000Z</time>
      </trkpt>
      <trkpt lat="42.61191" lon="1.9086">
        <ele>2362.8</ele>
        <time>2021-08-03T09:20:24.000Z</time>
      </trkpt>
      <trkpt lat="42.61192" lon="1.90859">
        <ele>2363.4</ele>
        <time>2021-08-03T09:20:40.000Z</time>
      </trkpt>
      <trkpt lat="42.61192" lon="1.90857">
        <ele>2364.3</ele>
        <time>2021-08-03T09:20:45.000Z</time>
      </trkpt>
      <trkpt lat="42.61192" lon="1.90857">
        <ele>2364.3</ele>
        <time>2021-08-03T09:20:46.000Z</time>
      </trkpt>
      <trkpt lat="42.61192" lon="1.90857">
        <ele>2364.3</ele>
        <time>2021-08-03T09:20:47.000Z</time>
      </trkpt>
      <trkpt lat="42.61192" lon="1.90857">
        <ele>2364.4</ele>
        <time>2021-08-03T09:20:49.000Z</time>
      </trkpt>
      <trkpt lat="42.61192" lon="1.90857">
        <ele>2364.3</ele>
        <time>2021-08-03T09:20:50.000Z</time>
      </trkpt>
      <trkpt lat="42.61192" lon="1.90857">
        <ele>2363.8</ele>
        <time>2021-08-03T09:21:29.000Z</time>
      </trkpt>
      <trkpt lat="42.61192" lon="1.90857">
        <ele>2363.8</ele>
        <time>2021-08-03T09:21:30.000Z</time>
      </trkpt>
      <trkpt lat="42.61192" lon="1.90857">
        <ele>2363.7</ele>
        <time>2021-08-03T09:21:32.000Z</time>
      </trkpt>
      <trkpt lat="42.61192" lon="1.90854">
        <ele>2365</ele>
        <time>2021-08-03T09:21:40.000Z</time>
      </trkpt>
      <trkpt lat="42.61192" lon="1.90854">
        <ele>2364.9</ele>
        <time>2021-08-03T09:21:57.000Z</time>
      </trkpt>
      <trkpt lat="42.61193" lon="1.90853">
        <ele>2365.8</ele>
        <time>2021-08-03T09:22:02.000Z</time>
      </trkpt>
      <trkpt lat="42.61193" lon="1.90853">
        <ele>2365.9</ele>
        <time>2021-08-03T09:22:47.000Z</time>
      </trkpt>
      <trkpt lat="42.61193" lon="1.90853">
        <ele>2365.8</ele>
        <time>2021-08-03T09:22:48.000Z</time>
      </trkpt>
      <trkpt lat="42.61193" lon="1.90853">
        <ele>2365.7</ele>
        <time>2021-08-03T09:23:00.000Z</time>
      </trkpt>
      <trkpt lat="42.61192" lon="1.90842">
        <ele>2368.3</ele>
        <time>2021-08-03T09:23:17.000Z</time>
      </trkpt>
      <trkpt lat="42.61192" lon="1.90841">
        <ele>2368.7</ele>
        <time>2021-08-03T09:23:20.000Z</time>
      </trkpt>
      <trkpt lat="42.61192" lon="1.9084">
        <ele>2369.4</ele>
        <time>2021-08-03T09:23:23.000Z</time>
      </trkpt>
      <trkpt lat="42.61191" lon="1.9084">
        <ele>2369.5</ele>
        <time>2021-08-03T09:23:24.000Z</time>
      </trkpt>
      <trkpt lat="42.61185" lon="1.9083">
        <ele>2372</ele>
        <time>2021-08-03T09:23:49.000Z</time>
      </trkpt>
      <trkpt lat="42.61182" lon="1.90818">
        <ele>2375.5</ele>
        <time>2021-08-03T09:24:13.000Z</time>
      </trkpt>
      <trkpt lat="42.61181" lon="1.90813">
        <ele>2376.4</ele>
        <time>2021-08-03T09:24:25.000Z</time>
      </trkpt>
      <trkpt lat="42.61181" lon="1.90812">
        <ele>2376.3</ele>
        <time>2021-08-03T09:24:27.000Z</time>
      </trkpt>
      <trkpt lat="42.61184" lon="1.90807">
        <ele>2376.9</ele>
        <time>2021-08-03T09:24:41.000Z</time>
      </trkpt>
      <trkpt lat="42.61184" lon="1.90806">
        <ele>2376.9</ele>
        <time>2021-08-03T09:24:42.000Z</time>
      </trkpt>
      <trkpt lat="42.61184" lon="1.90793">
        <ele>2380.9</ele>
        <time>2021-08-03T09:25:08.000Z</time>
      </trkpt>
      <trkpt lat="42.61177" lon="1.90785">
        <ele>2383.1</ele>
        <time>2021-08-03T09:25:31.000Z</time>
      </trkpt>
      <trkpt lat="42.61177" lon="1.9078">
        <ele>2383.6</ele>
        <time>2021-08-03T09:25:39.000Z</time>
      </trkpt>
      <trkpt lat="42.61176" lon="1.9078">
        <ele>2383.8</ele>
        <time>2021-08-03T09:25:40.000Z</time>
      </trkpt>
      <trkpt lat="42.61176" lon="1.90767">
        <ele>2386</ele>
        <time>2021-08-03T09:25:59.000Z</time>
      </trkpt>
      <trkpt lat="42.61167" lon="1.90768">
        <ele>2389.3</ele>
        <time>2021-08-03T09:26:22.000Z</time>
      </trkpt>
      <trkpt lat="42.61159" lon="1.90771">
        <ele>2390.8</ele>
        <time>2021-08-03T09:26:39.000Z</time>
      </trkpt>
      <trkpt lat="42.61159" lon="1.90771">
        <ele>2391.1</ele>
        <time>2021-08-03T09:26:50.000Z</time>
      </trkpt>
      <trkpt lat="42.61156" lon="1.90772">
        <ele>2391.4</ele>
        <time>2021-08-03T09:27:02.000Z</time>
      </trkpt>
      <trkpt lat="42.61156" lon="1.90772">
        <ele>2390.6</ele>
        <time>2021-08-03T09:27:49.000Z</time>
      </trkpt>
      <trkpt lat="42.61156" lon="1.90772">
        <ele>2390.6</ele>
        <time>2021-08-03T09:27:50.000Z</time>
      </trkpt>
      <trkpt lat="42.61156" lon="1.90772">
        <ele>2391.4</ele>
        <time>2021-08-03T09:27:58.000Z</time>
      </trkpt>
      <trkpt lat="42.61156" lon="1.90773">
        <ele>2391.4</ele>
        <time>2021-08-03T09:28:03.000Z</time>
      </trkpt>
      <trkpt lat="42.61155" lon="1.90773">
        <ele>2391.5</ele>
        <time>2021-08-03T09:29:27.000Z</time>
      </trkpt>
      <trkpt lat="42.61148" lon="1.9078">
        <ele>2391.3</ele>
        <time>2021-08-03T09:29:42.000Z</time>
      </trkpt>
      <trkpt lat="42.61139" lon="1.90783">
        <ele>2390.3</ele>
        <time>2021-08-03T09:29:53.000Z</time>
      </trkpt>
      <trkpt lat="42.61129" lon="1.90782">
        <ele>2389.5</ele>
        <time>2021-08-03T09:30:11.000Z</time>
      </trkpt>
      <trkpt lat="42.61126" lon="1.9078">
        <ele>2389.4</ele>
        <time>2021-08-03T09:30:19.000Z</time>
      </trkpt>
      <trkpt lat="42.61126" lon="1.9078">
        <ele>2389.7</ele>
        <time>2021-08-03T09:30:22.000Z</time>
      </trkpt>
      <trkpt lat="42.61125" lon="1.90786">
        <ele>2388.5</ele>
        <time>2021-08-03T09:30:37.000Z</time>
      </trkpt>
      <trkpt lat="42.61125" lon="1.90786">
        <ele>2388.6</ele>
        <time>2021-08-03T09:30:46.000Z</time>
      </trkpt>
      <trkpt lat="42.61125" lon="1.90785">
        <ele>2388.6</ele>
        <time>2021-08-03T09:30:49.000Z</time>
      </trkpt>
      <trkpt lat="42.61125" lon="1.90785">
        <ele>2388.4</ele>
        <time>2021-08-03T09:30:51.000Z</time>
      </trkpt>
      <trkpt lat="42.61118" lon="1.90776">
        <ele>2390.6</ele>
        <time>2021-08-03T09:31:05.000Z</time>
      </trkpt>
      <trkpt lat="42.61111" lon="1.90767">
        <ele>2392.2</ele>
        <time>2021-08-03T09:31:20.000Z</time>
      </trkpt>
      <trkpt lat="42.61107" lon="1.90756">
        <ele>2394.1</ele>
        <time>2021-08-03T09:31:36.000Z</time>
      </trkpt>
      <trkpt lat="42.61105" lon="1.90743">
        <ele>2396.2</ele>
        <time>2021-08-03T09:31:55.000Z</time>
      </trkpt>
      <trkpt lat="42.61103" lon="1.90732">
        <ele>2398.5</ele>
        <time>2021-08-03T09:32:15.000Z</time>
      </trkpt>
      <trkpt lat="42.61099" lon="1.90721">
        <ele>2402.2</ele>
        <time>2021-08-03T09:32:41.000Z</time>
      </trkpt>
      <trkpt lat="42.61098" lon="1.90714">
        <ele>2405</ele>
        <time>2021-08-03T09:32:58.000Z</time>
      </trkpt>
      <trkpt lat="42.61098" lon="1.90713">
        <ele>2405.4</ele>
        <time>2021-08-03T09:33:01.000Z</time>
      </trkpt>
      <trkpt lat="42.61098" lon="1.90713">
        <ele>2406</ele>
        <time>2021-08-03T09:33:05.000Z</time>
      </trkpt>
      <trkpt lat="42.61098" lon="1.90713">
        <ele>2406.2</ele>
        <time>2021-08-03T09:33:06.000Z</time>
      </trkpt>
      <trkpt lat="42.61099" lon="1.907">
        <ele>2410.5</ele>
        <time>2021-08-03T09:33:37.000Z</time>
      </trkpt>
      <trkpt lat="42.61097" lon="1.90688">
        <ele>2414.2</ele>
        <time>2021-08-03T09:34:00.000Z</time>
      </trkpt>
      <trkpt lat="42.61094" lon="1.90682">
        <ele>2415.8</ele>
        <time>2021-08-03T09:34:15.000Z</time>
      </trkpt>
      <trkpt lat="42.61094" lon="1.90682">
        <ele>2415.8</ele>
        <time>2021-08-03T09:34:18.000Z</time>
      </trkpt>
      <trkpt lat="42.61093" lon="1.90682">
        <ele>2416.1</ele>
        <time>2021-08-03T09:34:21.000Z</time>
      </trkpt>
      <trkpt lat="42.61093" lon="1.90682">
        <ele>2415.8</ele>
        <time>2021-08-03T09:35:16.000Z</time>
      </trkpt>
      <trkpt lat="42.61093" lon="1.90681">
        <ele>2416</ele>
        <time>2021-08-03T09:35:22.000Z</time>
      </trkpt>
      <trkpt lat="42.61093" lon="1.9068">
        <ele>2416.1</ele>
        <time>2021-08-03T09:35:38.000Z</time>
      </trkpt>
      <trkpt lat="42.61093" lon="1.90676">
        <ele>2417.2</ele>
        <time>2021-08-03T09:35:48.000Z</time>
      </trkpt>
      <trkpt lat="42.61093" lon="1.90676">
        <ele>2417.2</ele>
        <time>2021-08-03T09:35:53.000Z</time>
      </trkpt>
      <trkpt lat="42.61093" lon="1.90674">
        <ele>2418.5</ele>
        <time>2021-08-03T09:36:01.000Z</time>
      </trkpt>
      <trkpt lat="42.61093" lon="1.90673">
        <ele>2418.7</ele>
        <time>2021-08-03T09:36:03.000Z</time>
      </trkpt>
      <trkpt lat="42.61092" lon="1.90661">
        <ele>2421.9</ele>
        <time>2021-08-03T09:36:28.000Z</time>
      </trkpt>
      <trkpt lat="42.61092" lon="1.9066">
        <ele>2422.5</ele>
        <time>2021-08-03T09:36:32.000Z</time>
      </trkpt>
      <trkpt lat="42.61092" lon="1.9066">
        <ele>2421.8</ele>
        <time>2021-08-03T09:36:40.000Z</time>
      </trkpt>
      <trkpt lat="42.61091" lon="1.90659">
        <ele>2422.5</ele>
        <time>2021-08-03T09:36:46.000Z</time>
      </trkpt>
      <trkpt lat="42.61091" lon="1.90659">
        <ele>2423.4</ele>
        <time>2021-08-03T09:36:52.000Z</time>
      </trkpt>
      <trkpt lat="42.61091" lon="1.90657">
        <ele>2424.3</ele>
        <time>2021-08-03T09:36:59.000Z</time>
      </trkpt>
      <trkpt lat="42.61091" lon="1.90656">
        <ele>2424.1</ele>
        <time>2021-08-03T09:37:11.000Z</time>
      </trkpt>
      <trkpt lat="42.61089" lon="1.90654">
        <ele>2425.3</ele>
        <time>2021-08-03T09:37:19.000Z</time>
      </trkpt>
      <trkpt lat="42.61089" lon="1.90654">
        <ele>2425.4</ele>
        <time>2021-08-03T09:37:29.000Z</time>
      </trkpt>
      <trkpt lat="42.61086" lon="1.90642">
        <ele>2429.4</ele>
        <time>2021-08-03T09:37:52.000Z</time>
      </trkpt>
      <trkpt lat="42.61084" lon="1.9063">
        <ele>2433</ele>
        <time>2021-08-03T09:38:13.000Z</time>
      </trkpt>
      <trkpt lat="42.61077" lon="1.90621">
        <ele>2436.5</ele>
        <time>2021-08-03T09:38:36.000Z</time>
      </trkpt>
      <trkpt lat="42.61073" lon="1.9061">
        <ele>2439.6</ele>
        <time>2021-08-03T09:38:56.000Z</time>
      </trkpt>
      <trkpt lat="42.61072" lon="1.90598">
        <ele>2442.1</ele>
        <time>2021-08-03T09:39:15.000Z</time>
      </trkpt>
      <trkpt lat="42.61069" lon="1.90586">
        <ele>2444.1</ele>
        <time>2021-08-03T09:39:33.000Z</time>
      </trkpt>
      <trkpt lat="42.61065" lon="1.90575">
        <ele>2446.6</ele>
        <time>2021-08-03T09:39:53.000Z</time>
      </trkpt>
      <trkpt lat="42.61061" lon="1.90564">
        <ele>2447.9</ele>
        <time>2021-08-03T09:40:07.000Z</time>
      </trkpt>
      <trkpt lat="42.61057" lon="1.90553">
        <ele>2450.5</ele>
        <time>2021-08-03T09:40:23.000Z</time>
      </trkpt>
      <trkpt lat="42.61056" lon="1.9054">
        <ele>2451.7</ele>
        <time>2021-08-03T09:40:39.000Z</time>
      </trkpt>
      <trkpt lat="42.61052" lon="1.90535">
        <ele>2453.8</ele>
        <time>2021-08-03T09:40:50.000Z</time>
      </trkpt>
      <trkpt lat="42.61052" lon="1.90535">
        <ele>2453.9</ele>
        <time>2021-08-03T09:40:51.000Z</time>
      </trkpt>
      <trkpt lat="42.61048" lon="1.90523">
        <ele>2455.5</ele>
        <time>2021-08-03T09:41:06.000Z</time>
      </trkpt>
      <trkpt lat="42.61045" lon="1.90511">
        <ele>2456.7</ele>
        <time>2021-08-03T09:41:18.000Z</time>
      </trkpt>
      <trkpt lat="42.61045" lon="1.90509">
        <ele>2456.9</ele>
        <time>2021-08-03T09:41:21.000Z</time>
      </trkpt>
      <trkpt lat="42.61045" lon="1.90508">
        <ele>2458.4</ele>
        <time>2021-08-03T09:41:36.000Z</time>
      </trkpt>
      <trkpt lat="42.61043" lon="1.90496">
        <ele>2459.3</ele>
        <time>2021-08-03T09:41:50.000Z</time>
      </trkpt>
      <trkpt lat="42.61037" lon="1.90487">
        <ele>2459.1</ele>
        <time>2021-08-03T09:42:05.000Z</time>
      </trkpt>
      <trkpt lat="42.61037" lon="1.90487">
        <ele>2459.2</ele>
        <time>2021-08-03T09:42:06.000Z</time>
      </trkpt>
      <trkpt lat="42.61037" lon="1.90486">
        <ele>2459.5</ele>
        <time>2021-08-03T09:42:09.000Z</time>
      </trkpt>
      <trkpt lat="42.61036" lon="1.90481">
        <ele>2457.8</ele>
        <time>2021-08-03T09:42:17.000Z</time>
      </trkpt>
      <trkpt lat="42.61036" lon="1.90481">
        <ele>2457.9</ele>
        <time>2021-08-03T09:42:48.000Z</time>
      </trkpt>
      <trkpt lat="42.61036" lon="1.90481">
        <ele>2457.8</ele>
        <time>2021-08-03T09:42:49.000Z</time>
      </trkpt>
      <trkpt lat="42.61036" lon="1.90481">
        <ele>2457.6</ele>
        <time>2021-08-03T09:42:50.000Z</time>
      </trkpt>
      <trkpt lat="42.61036" lon="1.90481">
        <ele>2454.4</ele>
        <time>2021-08-03T09:42:51.000Z</time>
      </trkpt>
      <trkpt lat="42.61036" lon="1.90481">
        <ele>2458.4</ele>
        <time>2021-08-03T09:42:54.000Z</time>
      </trkpt>
      <trkpt lat="42.61036" lon="1.90481">
        <ele>2458.2</ele>
        <time>2021-08-03T09:42:56.000Z</time>
      </trkpt>
      <trkpt lat="42.61036" lon="1.90481">
        <ele>2458.1</ele>
        <time>2021-08-03T09:43:01.000Z</time>
      </trkpt>
      <trkpt lat="42.61036" lon="1.90481">
        <ele>2457.4</ele>
        <time>2021-08-03T09:43:04.000Z</time>
      </trkpt>
      <trkpt lat="42.61037" lon="1.90481">
        <ele>2458.2</ele>
        <time>2021-08-03T09:43:39.000Z</time>
      </trkpt>
      <trkpt lat="42.61037" lon="1.90481">
        <ele>2457.8</ele>
        <time>2021-08-03T09:43:40.000Z</time>
      </trkpt>
      <trkpt lat="42.61037" lon="1.90481">
        <ele>2457.6</ele>
        <time>2021-08-03T09:44:06.000Z</time>
      </trkpt>
      <trkpt lat="42.61037" lon="1.90481">
        <ele>2457.7</ele>
        <time>2021-08-03T09:44:07.000Z</time>
      </trkpt>
      <trkpt lat="42.61037" lon="1.90481">
        <ele>2457.3</ele>
        <time>2021-08-03T09:44:28.000Z</time>
      </trkpt>
      <trkpt lat="42.61037" lon="1.90481">
        <ele>2457.6</ele>
        <time>2021-08-03T09:44:29.000Z</time>
      </trkpt>
      <trkpt lat="42.61037" lon="1.90481">
        <ele>2457.7</ele>
        <time>2021-08-03T09:44:30.000Z</time>
      </trkpt>
      <trkpt lat="42.61037" lon="1.90481">
        <ele>2457.9</ele>
        <time>2021-08-03T09:44:31.000Z</time>
      </trkpt>
      <trkpt lat="42.61037" lon="1.9048">
        <ele>2458.3</ele>
        <time>2021-08-03T09:44:43.000Z</time>
      </trkpt>
      <trkpt lat="42.61031" lon="1.90469">
        <ele>2456.6</ele>
        <time>2021-08-03T09:44:56.000Z</time>
      </trkpt>
      <trkpt lat="42.61034" lon="1.90458">
        <ele>2455.9</ele>
        <time>2021-08-03T09:45:07.000Z</time>
      </trkpt>
      <trkpt lat="42.61037" lon="1.90445">
        <ele>2458.2</ele>
        <time>2021-08-03T09:45:19.000Z</time>
      </trkpt>
      <trkpt lat="42.61038" lon="1.90432">
        <ele>2458.6</ele>
        <time>2021-08-03T09:45:30.000Z</time>
      </trkpt>
      <trkpt lat="42.61036" lon="1.90419">
        <ele>2456.5</ele>
        <time>2021-08-03T09:45:42.000Z</time>
      </trkpt>
      <trkpt lat="42.61033" lon="1.90407">
        <ele>2455</ele>
        <time>2021-08-03T09:45:54.000Z</time>
      </trkpt>
      <trkpt lat="42.61034" lon="1.90394">
        <ele>2455.4</ele>
        <time>2021-08-03T09:46:05.000Z</time>
      </trkpt>
      <trkpt lat="42.61037" lon="1.90382">
        <ele>2456.8</ele>
        <time>2021-08-03T09:46:17.000Z</time>
      </trkpt>
      <trkpt lat="42.61041" lon="1.90371">
        <ele>2457.4</ele>
        <time>2021-08-03T09:46:29.000Z</time>
      </trkpt>
      <trkpt lat="42.61045" lon="1.90358">
        <ele>2458</ele>
        <time>2021-08-03T09:46:40.000Z</time>
      </trkpt>
      <trkpt lat="42.61047" lon="1.90346">
        <ele>2457.9</ele>
        <time>2021-08-03T09:46:54.000Z</time>
      </trkpt>
      <trkpt lat="42.61051" lon="1.90335">
        <ele>2456.3</ele>
        <time>2021-08-03T09:47:06.000Z</time>
      </trkpt>
      <trkpt lat="42.61057" lon="1.90326">
        <ele>2455.9</ele>
        <time>2021-08-03T09:47:16.000Z</time>
      </trkpt>
      <trkpt lat="42.61061" lon="1.90314">
        <ele>2455.6</ele>
        <time>2021-08-03T09:47:26.000Z</time>
      </trkpt>
      <trkpt lat="42.61063" lon="1.90302">
        <ele>2455.6</ele>
        <time>2021-08-03T09:47:37.000Z</time>
      </trkpt>
      <trkpt lat="42.61067" lon="1.9029">
        <ele>2456.4</ele>
        <time>2021-08-03T09:47:48.000Z</time>
      </trkpt>
      <trkpt lat="42.61068" lon="1.90278">
        <ele>2457.2</ele>
        <time>2021-08-03T09:47:58.000Z</time>
      </trkpt>
      <trkpt lat="42.61069" lon="1.90264">
        <ele>2456.6</ele>
        <time>2021-08-03T09:48:09.000Z</time>
      </trkpt>
      <trkpt lat="42.61067" lon="1.90252">
        <ele>2455.8</ele>
        <time>2021-08-03T09:48:18.000Z</time>
      </trkpt>
      <trkpt lat="42.61066" lon="1.90243">
        <ele>2455.3</ele>
        <time>2021-08-03T09:48:26.000Z</time>
      </trkpt>
      <trkpt lat="42.61066" lon="1.90243">
        <ele>2455.5</ele>
        <time>2021-08-03T09:48:51.000Z</time>
      </trkpt>
      <trkpt lat="42.61066" lon="1.90243">
        <ele>2455.5</ele>
        <time>2021-08-03T09:48:52.000Z</time>
      </trkpt>
      <trkpt lat="42.61066" lon="1.90242">
        <ele>2455.2</ele>
        <time>2021-08-03T09:49:13.000Z</time>
      </trkpt>
      <trkpt lat="42.6107" lon="1.90231">
        <ele>2455.6</ele>
        <time>2021-08-03T09:49:22.000Z</time>
      </trkpt>
      <trkpt lat="42.61073" lon="1.90219">
        <ele>2455.7</ele>
        <time>2021-08-03T09:49:31.000Z</time>
      </trkpt>
      <trkpt lat="42.61075" lon="1.90206">
        <ele>2455.7</ele>
        <time>2021-08-03T09:49:41.000Z</time>
      </trkpt>
      <trkpt lat="42.61078" lon="1.90195">
        <ele>2455.6</ele>
        <time>2021-08-03T09:49:50.000Z</time>
      </trkpt>
      <trkpt lat="42.6108" lon="1.90182">
        <ele>2454.4</ele>
        <time>2021-08-03T09:50:00.000Z</time>
      </trkpt>
      <trkpt lat="42.61081" lon="1.9017">
        <ele>2453.8</ele>
        <time>2021-08-03T09:50:10.000Z</time>
      </trkpt>
      <trkpt lat="42.61079" lon="1.90158">
        <ele>2453.5</ele>
        <time>2021-08-03T09:50:19.000Z</time>
      </trkpt>
      <trkpt lat="42.61078" lon="1.90145">
        <ele>2452.8</ele>
        <time>2021-08-03T09:50:29.000Z</time>
      </trkpt>
      <trkpt lat="42.61079" lon="1.90132">
        <ele>2452.7</ele>
        <time>2021-08-03T09:50:38.000Z</time>
      </trkpt>
      <trkpt lat="42.61082" lon="1.9012">
        <ele>2453.1</ele>
        <time>2021-08-03T09:50:48.000Z</time>
      </trkpt>
      <trkpt lat="42.61084" lon="1.90107">
        <ele>2453.8</ele>
        <time>2021-08-03T09:50:58.000Z</time>
      </trkpt>
      <trkpt lat="42.61088" lon="1.90095">
        <ele>2454.3</ele>
        <time>2021-08-03T09:51:07.000Z</time>
      </trkpt>
      <trkpt lat="42.6109" lon="1.90082">
        <ele>2454.9</ele>
        <time>2021-08-03T09:51:18.000Z</time>
      </trkpt>
      <trkpt lat="42.61092" lon="1.9007">
        <ele>2457.4</ele>
        <time>2021-08-03T09:51:32.000Z</time>
      </trkpt>
      <trkpt lat="42.61091" lon="1.90058">
        <ele>2458.9</ele>
        <time>2021-08-03T09:51:47.000Z</time>
      </trkpt>
      <trkpt lat="42.61095" lon="1.90046">
        <ele>2458.9</ele>
        <time>2021-08-03T09:51:58.000Z</time>
      </trkpt>
      <trkpt lat="42.61097" lon="1.90033">
        <ele>2459.9</ele>
        <time>2021-08-03T09:52:10.000Z</time>
      </trkpt>
      <trkpt lat="42.61095" lon="1.90021">
        <ele>2460.8</ele>
        <time>2021-08-03T09:52:20.000Z</time>
      </trkpt>
      <trkpt lat="42.61093" lon="1.90008">
        <ele>2461.1</ele>
        <time>2021-08-03T09:52:31.000Z</time>
      </trkpt>
      <trkpt lat="42.61092" lon="1.89996">
        <ele>2461.3</ele>
        <time>2021-08-03T09:52:40.000Z</time>
      </trkpt>
      <trkpt lat="42.6109" lon="1.89984">
        <ele>2461.6</ele>
        <time>2021-08-03T09:52:49.000Z</time>
      </trkpt>
      <trkpt lat="42.61087" lon="1.89972">
        <ele>2461.5</ele>
        <time>2021-08-03T09:52:59.000Z</time>
      </trkpt>
      <trkpt lat="42.61083" lon="1.8996">
        <ele>2460.9</ele>
        <time>2021-08-03T09:53:08.000Z</time>
      </trkpt>
      <trkpt lat="42.6108" lon="1.89949">
        <ele>2461.1</ele>
        <time>2021-08-03T09:53:17.000Z</time>
      </trkpt>
      <trkpt lat="42.61076" lon="1.89936">
        <ele>2460.8</ele>
        <time>2021-08-03T09:53:27.000Z</time>
      </trkpt>
      <trkpt lat="42.61071" lon="1.89925">
        <ele>2460.9</ele>
        <time>2021-08-03T09:53:37.000Z</time>
      </trkpt>
      <trkpt lat="42.61068" lon="1.89913">
        <ele>2461.1</ele>
        <time>2021-08-03T09:53:47.000Z</time>
      </trkpt>
      <trkpt lat="42.61067" lon="1.89902">
        <ele>2464.1</ele>
        <time>2021-08-03T09:54:01.000Z</time>
      </trkpt>
      <trkpt lat="42.61067" lon="1.89902">
        <ele>2464.2</ele>
        <time>2021-08-03T09:54:52.000Z</time>
      </trkpt>
      <trkpt lat="42.61067" lon="1.89902">
        <ele>2464.1</ele>
        <time>2021-08-03T09:54:53.000Z</time>
      </trkpt>
      <trkpt lat="42.61067" lon="1.89901">
        <ele>2464.1</ele>
        <time>2021-08-03T09:54:55.000Z</time>
      </trkpt>
      <trkpt lat="42.61067" lon="1.89902">
        <ele>2464.2</ele>
        <time>2021-08-03T09:54:57.000Z</time>
      </trkpt>
      <trkpt lat="42.61067" lon="1.89901">
        <ele>2464.2</ele>
        <time>2021-08-03T09:55:31.000Z</time>
      </trkpt>
      <trkpt lat="42.61069" lon="1.89889">
        <ele>2467.5</ele>
        <time>2021-08-03T09:55:50.000Z</time>
      </trkpt>
      <trkpt lat="42.61066" lon="1.89877">
        <ele>2470.9</ele>
        <time>2021-08-03T09:56:06.000Z</time>
      </trkpt>
      <trkpt lat="42.61063" lon="1.89865">
        <ele>2472.8</ele>
        <time>2021-08-03T09:56:24.000Z</time>
      </trkpt>
      <trkpt lat="42.61061" lon="1.89853">
        <ele>2474.8</ele>
        <time>2021-08-03T09:56:39.000Z</time>
      </trkpt>
      <trkpt lat="42.61059" lon="1.8984">
        <ele>2476.4</ele>
        <time>2021-08-03T09:56:53.000Z</time>
      </trkpt>
      <trkpt lat="42.61057" lon="1.89828">
        <ele>2478.2</ele>
        <time>2021-08-03T09:57:07.000Z</time>
      </trkpt>
      <trkpt lat="42.61054" lon="1.89816">
        <ele>2479</ele>
        <time>2021-08-03T09:57:18.000Z</time>
      </trkpt>
      <trkpt lat="42.61054" lon="1.8981">
        <ele>2479.4</ele>
        <time>2021-08-03T09:57:25.000Z</time>
      </trkpt>
      <trkpt lat="42.61054" lon="1.8981">
        <ele>2479.6</ele>
        <time>2021-08-03T09:57:33.000Z</time>
      </trkpt>
      <trkpt lat="42.61054" lon="1.8981">
        <ele>2479.7</ele>
        <time>2021-08-03T09:57:35.000Z</time>
      </trkpt>
      <trkpt lat="42.61054" lon="1.8981">
        <ele>2479.6</ele>
        <time>2021-08-03T09:57:46.000Z</time>
      </trkpt>
      <trkpt lat="42.61047" lon="1.89809">
        <ele>2479.6</ele>
        <time>2021-08-03T09:57:56.000Z</time>
      </trkpt>
      <trkpt lat="42.61047" lon="1.89809">
        <ele>2479.5</ele>
        <time>2021-08-03T09:57:58.000Z</time>
      </trkpt>
      <trkpt lat="42.61047" lon="1.89809">
        <ele>2479.5</ele>
        <time>2021-08-03T09:57:59.000Z</time>
      </trkpt>
      <trkpt lat="42.61047" lon="1.89809">
        <ele>2479.8</ele>
        <time>2021-08-03T09:58:08.000Z</time>
      </trkpt>
      <trkpt lat="42.61047" lon="1.8981">
        <ele>2479.5</ele>
        <time>2021-08-03T09:58:13.000Z</time>
      </trkpt>
      <trkpt lat="42.61048" lon="1.8981">
        <ele>2479.7</ele>
        <time>2021-08-03T09:58:27.000Z</time>
      </trkpt>
      <trkpt lat="42.6105" lon="1.89798">
        <ele>2479.1</ele>
        <time>2021-08-03T09:58:42.000Z</time>
      </trkpt>
      <trkpt lat="42.6105" lon="1.89794">
        <ele>2479</ele>
        <time>2021-08-03T09:58:48.000Z</time>
      </trkpt>
      <trkpt lat="42.6105" lon="1.89794">
        <ele>2479</ele>
        <time>2021-08-03T09:58:53.000Z</time>
      </trkpt>
      <trkpt lat="42.6105" lon="1.89793">
        <ele>2479.3</ele>
        <time>2021-08-03T09:58:55.000Z</time>
      </trkpt>
      <trkpt lat="42.6105" lon="1.89794">
        <ele>2479.3</ele>
        <time>2021-08-03T09:59:06.000Z</time>
      </trkpt>
      <trkpt lat="42.61051" lon="1.89798">
        <ele>2479.2</ele>
        <time>2021-08-03T09:59:14.000Z</time>
      </trkpt>
      <trkpt lat="42.61051" lon="1.89799">
        <ele>2479.6</ele>
        <time>2021-08-03T09:59:24.000Z</time>
      </trkpt>
      <trkpt lat="42.6105" lon="1.898">
        <ele>2478.7</ele>
        <time>2021-08-03T09:59:30.000Z</time>
      </trkpt>
      <trkpt lat="42.6105" lon="1.898">
        <ele>2478.4</ele>
        <time>2021-08-03T09:59:31.000Z</time>
      </trkpt>
      <trkpt lat="42.6105" lon="1.898">
        <ele>2478.4</ele>
        <time>2021-08-03T09:59:32.000Z</time>
      </trkpt>
      <trkpt lat="42.6105" lon="1.898">
        <ele>2478.5</ele>
        <time>2021-08-03T09:59:33.000Z</time>
      </trkpt>
      <trkpt lat="42.6105" lon="1.898">
        <ele>2478.7</ele>
        <time>2021-08-03T09:59:34.000Z</time>
      </trkpt>
      <trkpt lat="42.6105" lon="1.898">
        <ele>2478.8</ele>
        <time>2021-08-03T09:59:35.000Z</time>
      </trkpt>
      <trkpt lat="42.61042" lon="1.89795">
        <ele>2478.8</ele>
        <time>2021-08-03T09:59:49.000Z</time>
      </trkpt>
      <trkpt lat="42.61037" lon="1.89794">
        <ele>2477.5</ele>
        <time>2021-08-03T09:59:57.000Z</time>
      </trkpt>
      <trkpt lat="42.61037" lon="1.89794">
        <ele>2477.9</ele>
        <time>2021-08-03T10:00:32.000Z</time>
      </trkpt>
      <trkpt lat="42.61037" lon="1.89794">
        <ele>2478</ele>
        <time>2021-08-03T10:00:33.000Z</time>
      </trkpt>
      <trkpt lat="42.61038" lon="1.89794">
        <ele>2477.7</ele>
        <time>2021-08-03T10:00:42.000Z</time>
      </trkpt>
      <trkpt lat="42.61037" lon="1.89794">
        <ele>2477.9</ele>
        <time>2021-08-03T10:00:44.000Z</time>
      </trkpt>
      <trkpt lat="42.61038" lon="1.89794">
        <ele>2478.1</ele>
        <time>2021-08-03T10:00:53.000Z</time>
      </trkpt>
      <trkpt lat="42.61038" lon="1.89794">
        <ele>2478</ele>
        <time>2021-08-03T10:00:54.000Z</time>
      </trkpt>
      <trkpt lat="42.61037" lon="1.89794">
        <ele>2478.3</ele>
        <time>2021-08-03T10:00:55.000Z</time>
      </trkpt>
      <trkpt lat="42.61037" lon="1.89794">
        <ele>2477.9</ele>
        <time>2021-08-03T10:00:56.000Z</time>
      </trkpt>
      <trkpt lat="42.61038" lon="1.89794">
        <ele>2477.9</ele>
        <time>2021-08-03T10:00:57.000Z</time>
      </trkpt>
      <trkpt lat="42.61038" lon="1.89794">
        <ele>2477.1</ele>
        <time>2021-08-03T10:00:58.000Z</time>
      </trkpt>
      <trkpt lat="42.61037" lon="1.89794">
        <ele>2478.2</ele>
        <time>2021-08-03T10:02:11.000Z</time>
      </trkpt>
      <trkpt lat="42.61037" lon="1.89794">
        <ele>2478.6</ele>
        <time>2021-08-03T10:02:12.000Z</time>
      </trkpt>
      <trkpt lat="42.61037" lon="1.89793">
        <ele>2478.5</ele>
        <time>2021-08-03T10:02:37.000Z</time>
      </trkpt>
      <trkpt lat="42.61038" lon="1.89793">
        <ele>2479.6</ele>
        <time>2021-08-03T10:02:42.000Z</time>
      </trkpt>
      <trkpt lat="42.61038" lon="1.89793">
        <ele>2479.7</ele>
        <time>2021-08-03T10:02:46.000Z</time>
      </trkpt>
      <trkpt lat="42.61043" lon="1.89782">
        <ele>2479</ele>
        <time>2021-08-03T10:02:58.000Z</time>
      </trkpt>
      <trkpt lat="42.61036" lon="1.89774">
        <ele>2477</ele>
        <time>2021-08-03T10:03:12.000Z</time>
      </trkpt>
      <trkpt lat="42.61032" lon="1.89762">
        <ele>2475</ele>
        <time>2021-08-03T10:03:23.000Z</time>
      </trkpt>
      <trkpt lat="42.61029" lon="1.8975">
        <ele>2473.8</ele>
        <time>2021-08-03T10:03:33.000Z</time>
      </trkpt>
      <trkpt lat="42.61025" lon="1.89738">
        <ele>2471.8</ele>
        <time>2021-08-03T10:03:44.000Z</time>
      </trkpt>
      <trkpt lat="42.6102" lon="1.89727">
        <ele>2469.6</ele>
        <time>2021-08-03T10:03:56.000Z</time>
      </trkpt>
      <trkpt lat="42.61018" lon="1.89714">
        <ele>2466.9</ele>
        <time>2021-08-03T10:04:09.000Z</time>
      </trkpt>
      <trkpt lat="42.61016" lon="1.89702">
        <ele>2464.3</ele>
        <time>2021-08-03T10:04:23.000Z</time>
      </trkpt>
      <trkpt lat="42.61016" lon="1.89689">
        <ele>2461.1</ele>
        <time>2021-08-03T10:04:36.000Z</time>
      </trkpt>
      <trkpt lat="42.61012" lon="1.89677">
        <ele>2458.4</ele>
        <time>2021-08-03T10:04:48.000Z</time>
      </trkpt>
      <trkpt lat="42.61008" lon="1.89666">
        <ele>2455</ele>
        <time>2021-08-03T10:05:01.000Z</time>
      </trkpt>
      <trkpt lat="42.61005" lon="1.89654">
        <ele>2452</ele>
        <time>2021-08-03T10:05:17.000Z</time>
      </trkpt>
      <trkpt lat="42.61002" lon="1.89645">
        <ele>2449.7</ele>
        <time>2021-08-03T10:05:32.000Z</time>
      </trkpt>
      <trkpt lat="42.61002" lon="1.89645">
        <ele>2449.9</ele>
        <time>2021-08-03T10:06:03.000Z</time>
      </trkpt>
      <trkpt lat="42.61" lon="1.89632">
        <ele>2447.9</ele>
        <time>2021-08-03T10:06:15.000Z</time>
      </trkpt>
      <trkpt lat="42.60997" lon="1.8962">
        <ele>2446.1</ele>
        <time>2021-08-03T10:06:27.000Z</time>
      </trkpt>
      <trkpt lat="42.60997" lon="1.89617">
        <ele>2445.2</ele>
        <time>2021-08-03T10:06:32.000Z</time>
      </trkpt>
      <trkpt lat="42.60997" lon="1.89617">
        <ele>2444.9</ele>
        <time>2021-08-03T10:06:38.000Z</time>
      </trkpt>
      <trkpt lat="42.60997" lon="1.89604">
        <ele>2441.6</ele>
        <time>2021-08-03T10:06:55.000Z</time>
      </trkpt>
      <trkpt lat="42.60994" lon="1.89593">
        <ele>2438.5</ele>
        <time>2021-08-03T10:07:16.000Z</time>
      </trkpt>
      <trkpt lat="42.60991" lon="1.89581">
        <ele>2436.4</ele>
        <time>2021-08-03T10:07:31.000Z</time>
      </trkpt>
      <trkpt lat="42.60991" lon="1.8958">
        <ele>2436.2</ele>
        <time>2021-08-03T10:07:34.000Z</time>
      </trkpt>
      <trkpt lat="42.60991" lon="1.8958">
        <ele>2436</ele>
        <time>2021-08-03T10:07:36.000Z</time>
      </trkpt>
      <trkpt lat="42.60994" lon="1.89568">
        <ele>2433.1</ele>
        <time>2021-08-03T10:07:53.000Z</time>
      </trkpt>
      <trkpt lat="42.60996" lon="1.89555">
        <ele>2429.6</ele>
        <time>2021-08-03T10:08:09.000Z</time>
      </trkpt>
      <trkpt lat="42.60996" lon="1.89542">
        <ele>2427.2</ele>
        <time>2021-08-03T10:08:25.000Z</time>
      </trkpt>
      <trkpt lat="42.60997" lon="1.89541">
        <ele>2426.7</ele>
        <time>2021-08-03T10:08:29.000Z</time>
      </trkpt>
      <trkpt lat="42.60997" lon="1.8954">
        <ele>2426.6</ele>
        <time>2021-08-03T10:08:40.000Z</time>
      </trkpt>
      <trkpt lat="42.60997" lon="1.8954">
        <ele>2426.8</ele>
        <time>2021-08-03T10:08:41.000Z</time>
      </trkpt>
      <trkpt lat="42.60998" lon="1.8954">
        <ele>2426.9</ele>
        <time>2021-08-03T10:08:43.000Z</time>
      </trkpt>
      <trkpt lat="42.61001" lon="1.89538">
        <ele>2425.2</ele>
        <time>2021-08-03T10:08:52.000Z</time>
      </trkpt>
      <trkpt lat="42.61002" lon="1.89537">
        <ele>2425.1</ele>
        <time>2021-08-03T10:08:53.000Z</time>
      </trkpt>
      <trkpt lat="42.61005" lon="1.89525">
        <ele>2422.5</ele>
        <time>2021-08-03T10:09:08.000Z</time>
      </trkpt>
      <trkpt lat="42.61007" lon="1.89513">
        <ele>2418.4</ele>
        <time>2021-08-03T10:09:21.000Z</time>
      </trkpt>
      <trkpt lat="42.61016" lon="1.8951">
        <ele>2415.2</ele>
        <time>2021-08-03T10:09:38.000Z</time>
      </trkpt>
      <trkpt lat="42.61025" lon="1.89512">
        <ele>2411.1</ele>
        <time>2021-08-03T10:10:03.000Z</time>
      </trkpt>
      <trkpt lat="42.61035" lon="1.8951">
        <ele>2407.6</ele>
        <time>2021-08-03T10:10:22.000Z</time>
      </trkpt>
      <trkpt lat="42.61044" lon="1.89508">
        <ele>2406.8</ele>
        <time>2021-08-03T10:10:34.000Z</time>
      </trkpt>
      <trkpt lat="42.61048" lon="1.89502">
        <ele>2406.2</ele>
        <time>2021-08-03T10:10:45.000Z</time>
      </trkpt>
      <trkpt lat="42.61048" lon="1.89502">
        <ele>2406.3</ele>
        <time>2021-08-03T10:11:01.000Z</time>
      </trkpt>
      <trkpt lat="42.61048" lon="1.89502">
        <ele>2406.3</ele>
        <time>2021-08-03T10:11:02.000Z</time>
      </trkpt>
      <trkpt lat="42.61048" lon="1.89502">
        <ele>2406.7</ele>
        <time>2021-08-03T10:11:50.000Z</time>
      </trkpt>
      <trkpt lat="42.61051" lon="1.89489">
        <ele>2406.7</ele>
        <time>2021-08-03T10:12:02.000Z</time>
      </trkpt>
      <trkpt lat="42.61052" lon="1.89477">
        <ele>2406.4</ele>
        <time>2021-08-03T10:12:13.000Z</time>
      </trkpt>
      <trkpt lat="42.61052" lon="1.89464">
        <ele>2403.8</ele>
        <time>2021-08-03T10:12:25.000Z</time>
      </trkpt>
      <trkpt lat="42.61045" lon="1.89456">
        <ele>2402.6</ele>
        <time>2021-08-03T10:12:37.000Z</time>
      </trkpt>
      <trkpt lat="42.61039" lon="1.89447">
        <ele>2401.3</ele>
        <time>2021-08-03T10:12:47.000Z</time>
      </trkpt>
      <trkpt lat="42.61035" lon="1.89437">
        <ele>2400.3</ele>
        <time>2021-08-03T10:13:00.000Z</time>
      </trkpt>
      <trkpt lat="42.61035" lon="1.89437">
        <ele>2400.2</ele>
        <time>2021-08-03T10:13:01.000Z</time>
      </trkpt>
      <trkpt lat="42.6103" lon="1.89426">
        <ele>2399</ele>
        <time>2021-08-03T10:13:14.000Z</time>
      </trkpt>
      <trkpt lat="42.61025" lon="1.89416">
        <ele>2397.4</ele>
        <time>2021-08-03T10:13:26.000Z</time>
      </trkpt>
      <trkpt lat="42.61025" lon="1.89413">
        <ele>2397.2</ele>
        <time>2021-08-03T10:13:30.000Z</time>
      </trkpt>
      <trkpt lat="42.61026" lon="1.89413">
        <ele>2397.1</ele>
        <time>2021-08-03T10:13:35.000Z</time>
      </trkpt>
      <trkpt lat="42.61026" lon="1.89413">
        <ele>2397.1</ele>
        <time>2021-08-03T10:13:36.000Z</time>
      </trkpt>
      <trkpt lat="42.61026" lon="1.89412">
        <ele>2397</ele>
        <time>2021-08-03T10:13:38.000Z</time>
      </trkpt>
      <trkpt lat="42.61026" lon="1.89412">
        <ele>2396.6</ele>
        <time>2021-08-03T10:13:41.000Z</time>
      </trkpt>
      <trkpt lat="42.61026" lon="1.89411">
        <ele>2396.5</ele>
        <time>2021-08-03T10:13:44.000Z</time>
      </trkpt>
      <trkpt lat="42.61026" lon="1.8941">
        <ele>2396.9</ele>
        <time>2021-08-03T10:13:47.000Z</time>
      </trkpt>
      <trkpt lat="42.61025" lon="1.8941">
        <ele>2396.9</ele>
        <time>2021-08-03T10:13:50.000Z</time>
      </trkpt>
      <trkpt lat="42.61024" lon="1.89408">
        <ele>2396.1</ele>
        <time>2021-08-03T10:13:57.000Z</time>
      </trkpt>
      <trkpt lat="42.61024" lon="1.89408">
        <ele>2395.9</ele>
        <time>2021-08-03T10:14:11.000Z</time>
      </trkpt>
      <trkpt lat="42.61024" lon="1.89408">
        <ele>2395.9</ele>
        <time>2021-08-03T10:14:12.000Z</time>
      </trkpt>
      <trkpt lat="42.61024" lon="1.89407">
        <ele>2395.6</ele>
        <time>2021-08-03T10:14:15.000Z</time>
      </trkpt>
      <trkpt lat="42.61023" lon="1.89407">
        <ele>2394.9</ele>
        <time>2021-08-03T10:14:20.000Z</time>
      </trkpt>
      <trkpt lat="42.61023" lon="1.89407">
        <ele>2395.2</ele>
        <time>2021-08-03T10:14:24.000Z</time>
      </trkpt>
      <trkpt lat="42.61023" lon="1.89407">
        <ele>2395.3</ele>
        <time>2021-08-03T10:14:25.000Z</time>
      </trkpt>
      <trkpt lat="42.61023" lon="1.89407">
        <ele>2395</ele>
        <time>2021-08-03T10:15:07.000Z</time>
      </trkpt>
      <trkpt lat="42.61023" lon="1.89407">
        <ele>2395</ele>
        <time>2021-08-03T10:15:08.000Z</time>
      </trkpt>
      <trkpt lat="42.61023" lon="1.89406">
        <ele>2394.7</ele>
        <time>2021-08-03T10:16:08.000Z</time>
      </trkpt>
      <trkpt lat="42.61023" lon="1.89406">
        <ele>2394.9</ele>
        <time>2021-08-03T10:16:11.000Z</time>
      </trkpt>
      <trkpt lat="42.61023" lon="1.89406">
        <ele>2395.1</ele>
        <time>2021-08-03T10:16:13.000Z</time>
      </trkpt>
      <trkpt lat="42.61023" lon="1.89406">
        <ele>2395</ele>
        <time>2021-08-03T10:16:14.000Z</time>
      </trkpt>
      <trkpt lat="42.61023" lon="1.89405">
        <ele>2394.9</ele>
        <time>2021-08-03T10:16:25.000Z</time>
      </trkpt>
      <trkpt lat="42.61023" lon="1.89405">
        <ele>2394.9</ele>
        <time>2021-08-03T10:16:26.000Z</time>
      </trkpt>
      <trkpt lat="42.61023" lon="1.89405">
        <ele>2395.2</ele>
        <time>2021-08-03T10:16:59.000Z</time>
      </trkpt>
      <trkpt lat="42.61023" lon="1.89405">
        <ele>2395.2</ele>
        <time>2021-08-03T10:17:00.000Z</time>
      </trkpt>
      <trkpt lat="42.61023" lon="1.89405">
        <ele>2394.8</ele>
        <time>2021-08-03T10:17:07.000Z</time>
      </trkpt>
      <trkpt lat="42.61023" lon="1.89405">
        <ele>2394.7</ele>
        <time>2021-08-03T10:17:10.000Z</time>
      </trkpt>
      <trkpt lat="42.61023" lon="1.89405">
        <ele>2394.4</ele>
        <time>2021-08-03T10:17:13.000Z</time>
      </trkpt>
      <trkpt lat="42.61023" lon="1.89405">
        <ele>2394.3</ele>
        <time>2021-08-03T10:17:14.000Z</time>
      </trkpt>
      <trkpt lat="42.61023" lon="1.89405">
        <ele>2394.2</ele>
        <time>2021-08-03T10:17:16.000Z</time>
      </trkpt>
      <trkpt lat="42.61023" lon="1.89405">
        <ele>2394.2</ele>
        <time>2021-08-03T10:17:17.000Z</time>
      </trkpt>
      <trkpt lat="42.61023" lon="1.89405">
        <ele>2394.4</ele>
        <time>2021-08-03T10:17:27.000Z</time>
      </trkpt>
      <trkpt lat="42.61023" lon="1.89405">
        <ele>2394.5</ele>
        <time>2021-08-03T10:17:28.000Z</time>
      </trkpt>
      <trkpt lat="42.61023" lon="1.89405">
        <ele>2394.3</ele>
        <time>2021-08-03T10:17:38.000Z</time>
      </trkpt>
      <trkpt lat="42.61023" lon="1.89404">
        <ele>2394</ele>
        <time>2021-08-03T10:17:40.000Z</time>
      </trkpt>
      <trkpt lat="42.61024" lon="1.89404">
        <ele>2393.5</ele>
        <time>2021-08-03T10:17:41.000Z</time>
      </trkpt>
      <trkpt lat="42.61023" lon="1.89403">
        <ele>2393.2</ele>
        <time>2021-08-03T10:17:44.000Z</time>
      </trkpt>
      <trkpt lat="42.61023" lon="1.89402">
        <ele>2393.3</ele>
        <time>2021-08-03T10:17:48.000Z</time>
      </trkpt>
      <trkpt lat="42.61023" lon="1.89402">
        <ele>2393.2</ele>
        <time>2021-08-03T10:17:49.000Z</time>
      </trkpt>
      <trkpt lat="42.61023" lon="1.89402">
        <ele>2393.1</ele>
        <time>2021-08-03T10:17:50.000Z</time>
      </trkpt>
      <trkpt lat="42.61023" lon="1.89402">
        <ele>2392.3</ele>
        <time>2021-08-03T10:17:52.000Z</time>
      </trkpt>
      <trkpt lat="42.61023" lon="1.89401">
        <ele>2392</ele>
        <time>2021-08-03T10:17:53.000Z</time>
      </trkpt>
      <trkpt lat="42.61023" lon="1.89401">
        <ele>2391.9</ele>
        <time>2021-08-03T10:17:55.000Z</time>
      </trkpt>
      <trkpt lat="42.61023" lon="1.89401">
        <ele>2391.7</ele>
        <time>2021-08-03T10:17:56.000Z</time>
      </trkpt>
      <trkpt lat="42.61023" lon="1.89401">
        <ele>2391.7</ele>
        <time>2021-08-03T10:17:57.000Z</time>
      </trkpt>
      <trkpt lat="42.61023" lon="1.89401">
        <ele>2391.7</ele>
        <time>2021-08-03T10:17:59.000Z</time>
      </trkpt>
      <trkpt lat="42.61023" lon="1.894">
        <ele>2391.3</ele>
        <time>2021-08-03T10:18:04.000Z</time>
      </trkpt>
      <trkpt lat="42.61023" lon="1.894">
        <ele>2391.8</ele>
        <time>2021-08-03T10:18:18.000Z</time>
      </trkpt>
      <trkpt lat="42.61018" lon="1.89393">
        <ele>2391.5</ele>
        <time>2021-08-03T10:18:34.000Z</time>
      </trkpt>
      <trkpt lat="42.61018" lon="1.89393">
        <ele>2391.4</ele>
        <time>2021-08-03T10:18:38.000Z</time>
      </trkpt>
      <trkpt lat="42.61016" lon="1.89394">
        <ele>2392</ele>
        <time>2021-08-03T10:18:46.000Z</time>
      </trkpt>
      <trkpt lat="42.61016" lon="1.89393">
        <ele>2391.7</ele>
        <time>2021-08-03T10:18:48.000Z</time>
      </trkpt>
      <trkpt lat="42.61014" lon="1.89389">
        <ele>2390.9</ele>
        <time>2021-08-03T10:18:58.000Z</time>
      </trkpt>
      <trkpt lat="42.61013" lon="1.89389">
        <ele>2390.7</ele>
        <time>2021-08-03T10:19:01.000Z</time>
      </trkpt>
      <trkpt lat="42.61013" lon="1.89386">
        <ele>2390</ele>
        <time>2021-08-03T10:19:07.000Z</time>
      </trkpt>
      <trkpt lat="42.61013" lon="1.89385">
        <ele>2389.8</ele>
        <time>2021-08-03T10:19:11.000Z</time>
      </trkpt>
      <trkpt lat="42.61012" lon="1.89384">
        <ele>2389.3</ele>
        <time>2021-08-03T10:19:17.000Z</time>
      </trkpt>
      <trkpt lat="42.61012" lon="1.89383">
        <ele>2389.4</ele>
        <time>2021-08-03T10:19:18.000Z</time>
      </trkpt>
      <trkpt lat="42.61011" lon="1.89382">
        <ele>2389.1</ele>
        <time>2021-08-03T10:19:22.000Z</time>
      </trkpt>
      <trkpt lat="42.61011" lon="1.89382">
        <ele>2389</ele>
        <time>2021-08-03T10:19:26.000Z</time>
      </trkpt>
      <trkpt lat="42.61011" lon="1.89382">
        <ele>2389.1</ele>
        <time>2021-08-03T10:19:29.000Z</time>
      </trkpt>
      <trkpt lat="42.61011" lon="1.89382">
        <ele>2389.2</ele>
        <time>2021-08-03T10:19:30.000Z</time>
      </trkpt>
      <trkpt lat="42.6101" lon="1.89381">
        <ele>2388.7</ele>
        <time>2021-08-03T10:19:33.000Z</time>
      </trkpt>
      <trkpt lat="42.6101" lon="1.8938">
        <ele>2388.6</ele>
        <time>2021-08-03T10:19:34.000Z</time>
      </trkpt>
      <trkpt lat="42.61007" lon="1.8937">
        <ele>2386.6</ele>
        <time>2021-08-03T10:19:57.000Z</time>
      </trkpt>
      <trkpt lat="42.61007" lon="1.8937">
        <ele>2386.4</ele>
        <time>2021-08-03T10:20:00.000Z</time>
      </trkpt>
      <trkpt lat="42.61011" lon="1.89358">
        <ele>2382.7</ele>
        <time>2021-08-03T10:20:19.000Z</time>
      </trkpt>
      <trkpt lat="42.61015" lon="1.89347">
        <ele>2380.7</ele>
        <time>2021-08-03T10:20:32.000Z</time>
      </trkpt>
      <trkpt lat="42.61018" lon="1.89338">
        <ele>2378.5</ele>
        <time>2021-08-03T10:20:45.000Z</time>
      </trkpt>
      <trkpt lat="42.61017" lon="1.89338">
        <ele>2378.4</ele>
        <time>2021-08-03T10:20:47.000Z</time>
      </trkpt>
      <trkpt lat="42.61017" lon="1.89338">
        <ele>2378.7</ele>
        <time>2021-08-03T10:20:49.000Z</time>
      </trkpt>
      <trkpt lat="42.61017" lon="1.89337">
        <ele>2378.5</ele>
        <time>2021-08-03T10:20:54.000Z</time>
      </trkpt>
      <trkpt lat="42.61016" lon="1.89323">
        <ele>2376.2</ele>
        <time>2021-08-03T10:21:06.000Z</time>
      </trkpt>
      <trkpt lat="42.61016" lon="1.8931">
        <ele>2374.3</ele>
        <time>2021-08-03T10:21:18.000Z</time>
      </trkpt>
      <trkpt lat="42.61023" lon="1.89302">
        <ele>2371.5</ele>
        <time>2021-08-03T10:21:35.000Z</time>
      </trkpt>
      <trkpt lat="42.61029" lon="1.89293">
        <ele>2368</ele>
        <time>2021-08-03T10:21:52.000Z</time>
      </trkpt>
      <trkpt lat="42.6103" lon="1.89285">
        <ele>2365.8</ele>
        <time>2021-08-03T10:22:11.000Z</time>
      </trkpt>
      <trkpt lat="42.6103" lon="1.89285">
        <ele>2365.7</ele>
        <time>2021-08-03T10:22:12.000Z</time>
      </trkpt>
      <trkpt lat="42.61022" lon="1.89279">
        <ele>2363.8</ele>
        <time>2021-08-03T10:22:31.000Z</time>
      </trkpt>
      <trkpt lat="42.61015" lon="1.89271">
        <ele>2363.1</ele>
        <time>2021-08-03T10:22:47.000Z</time>
      </trkpt>
      <trkpt lat="42.61008" lon="1.89262">
        <ele>2363.8</ele>
        <time>2021-08-03T10:23:00.000Z</time>
      </trkpt>
      <trkpt lat="42.61003" lon="1.89252">
        <ele>2362.9</ele>
        <time>2021-08-03T10:23:11.000Z</time>
      </trkpt>
      <trkpt lat="42.60999" lon="1.8924">
        <ele>2362.5</ele>
        <time>2021-08-03T10:23:22.000Z</time>
      </trkpt>
      <trkpt lat="42.60999" lon="1.89237">
        <ele>2362.3</ele>
        <time>2021-08-03T10:23:27.000Z</time>
      </trkpt>
      <trkpt lat="42.60999" lon="1.89237">
        <ele>2362.4</ele>
        <time>2021-08-03T10:23:28.000Z</time>
      </trkpt>
      <trkpt lat="42.60999" lon="1.89237">
        <ele>2362.3</ele>
        <time>2021-08-03T10:23:29.000Z</time>
      </trkpt>
      <trkpt lat="42.60999" lon="1.89237">
        <ele>2362</ele>
        <time>2021-08-03T10:23:37.000Z</time>
      </trkpt>
      <trkpt lat="42.6099" lon="1.89237">
        <ele>2363.1</ele>
        <time>2021-08-03T10:23:48.000Z</time>
      </trkpt>
      <trkpt lat="42.60987" lon="1.89237">
        <ele>2363.3</ele>
        <time>2021-08-03T10:23:54.000Z</time>
      </trkpt>
      <trkpt lat="42.60986" lon="1.89237">
        <ele>2363.2</ele>
        <time>2021-08-03T10:24:02.000Z</time>
      </trkpt>
      <trkpt lat="42.60979" lon="1.89239">
        <ele>2361.7</ele>
        <time>2021-08-03T10:24:16.000Z</time>
      </trkpt>
      <trkpt lat="42.60979" lon="1.89239">
        <ele>2361.7</ele>
        <time>2021-08-03T10:24:21.000Z</time>
      </trkpt>
      <trkpt lat="42.60979" lon="1.89239">
        <ele>2361.6</ele>
        <time>2021-08-03T10:24:22.000Z</time>
      </trkpt>
      <trkpt lat="42.60979" lon="1.89239">
        <ele>2361.8</ele>
        <time>2021-08-03T10:28:28.000Z</time>
      </trkpt>
      <trkpt lat="42.60979" lon="1.89239">
        <ele>2361.7</ele>
        <time>2021-08-03T10:28:30.000Z</time>
      </trkpt>
      <trkpt lat="42.60979" lon="1.89239">
        <ele>2361.4</ele>
        <time>2021-08-03T10:29:51.000Z</time>
      </trkpt>
      <trkpt lat="42.60979" lon="1.89239">
        <ele>2361.5</ele>
        <time>2021-08-03T10:29:52.000Z</time>
      </trkpt>
      <trkpt lat="42.60979" lon="1.89239">
        <ele>2362.2</ele>
        <time>2021-08-03T10:33:56.000Z</time>
      </trkpt>
      <trkpt lat="42.60979" lon="1.89239">
        <ele>2362.3</ele>
        <time>2021-08-03T10:33:57.000Z</time>
      </trkpt>
      <trkpt lat="42.60979" lon="1.89239">
        <ele>2361.5</ele>
        <time>2021-08-03T10:35:08.000Z</time>
      </trkpt>
      <trkpt lat="42.60979" lon="1.89239">
        <ele>2361.8</ele>
        <time>2021-08-03T10:35:09.000Z</time>
      </trkpt>
      <trkpt lat="42.60979" lon="1.89239">
        <ele>2361.9</ele>
        <time>2021-08-03T10:35:10.000Z</time>
      </trkpt>
      <trkpt lat="42.60979" lon="1.89239">
        <ele>2362</ele>
        <time>2021-08-03T10:35:11.000Z</time>
      </trkpt>
      <trkpt lat="42.60979" lon="1.89239">
        <ele>2362.8</ele>
        <time>2021-08-03T10:35:16.000Z</time>
      </trkpt>
      <trkpt lat="42.60979" lon="1.89239">
        <ele>2362.4</ele>
        <time>2021-08-03T10:35:19.000Z</time>
      </trkpt>
      <trkpt lat="42.60979" lon="1.89238">
        <ele>2362.5</ele>
        <time>2021-08-03T10:35:26.000Z</time>
      </trkpt>
      <trkpt lat="42.60979" lon="1.89238">
        <ele>2362.6</ele>
        <time>2021-08-03T10:35:27.000Z</time>
      </trkpt>
      <trkpt lat="42.60979" lon="1.89238">
        <ele>2361.9</ele>
        <time>2021-08-03T10:36:53.000Z</time>
      </trkpt>
      <trkpt lat="42.60979" lon="1.89238">
        <ele>2361.5</ele>
        <time>2021-08-03T10:36:54.000Z</time>
      </trkpt>
      <trkpt lat="42.60979" lon="1.89238">
        <ele>2362.7</ele>
        <time>2021-08-03T10:38:13.000Z</time>
      </trkpt>
      <trkpt lat="42.60979" lon="1.89238">
        <ele>2362.9</ele>
        <time>2021-08-03T10:38:14.000Z</time>
      </trkpt>
      <trkpt lat="42.60979" lon="1.89238">
        <ele>2362.7</ele>
        <time>2021-08-03T10:41:06.000Z</time>
      </trkpt>
      <trkpt lat="42.60979" lon="1.89238">
        <ele>2362.6</ele>
        <time>2021-08-03T10:41:07.000Z</time>
      </trkpt>
      <trkpt lat="42.60979" lon="1.89238">
        <ele>2363.4</ele>
        <time>2021-08-03T10:41:57.000Z</time>
      </trkpt>
      <trkpt lat="42.60979" lon="1.89238">
        <ele>2363.5</ele>
        <time>2021-08-03T10:41:58.000Z</time>
      </trkpt>
      <trkpt lat="42.6098" lon="1.89238">
        <ele>2362.1</ele>
        <time>2021-08-03T10:43:28.000Z</time>
      </trkpt>
      <trkpt lat="42.6098" lon="1.89238">
        <ele>2362.1</ele>
        <time>2021-08-03T10:43:29.000Z</time>
      </trkpt>
      <trkpt lat="42.6098" lon="1.89238">
        <ele>2363</ele>
        <time>2021-08-03T10:47:32.000Z</time>
      </trkpt>
      <trkpt lat="42.6098" lon="1.89238">
        <ele>2363</ele>
        <time>2021-08-03T10:47:33.000Z</time>
      </trkpt>
      <trkpt lat="42.6098" lon="1.89238">
        <ele>2362.9</ele>
        <time>2021-08-03T10:47:34.000Z</time>
      </trkpt>
      <trkpt lat="42.6098" lon="1.89238">
        <ele>2363</ele>
        <time>2021-08-03T10:47:35.000Z</time>
      </trkpt>
      <trkpt lat="42.6098" lon="1.89237">
        <ele>2363.1</ele>
        <time>2021-08-03T10:47:57.000Z</time>
      </trkpt>
      <trkpt lat="42.6098" lon="1.89237">
        <ele>2363.1</ele>
        <time>2021-08-03T10:47:58.000Z</time>
      </trkpt>
      <trkpt lat="42.6098" lon="1.89237">
        <ele>2363.1</ele>
        <time>2021-08-03T10:51:38.000Z</time>
      </trkpt>
      <trkpt lat="42.6098" lon="1.89237">
        <ele>2363.2</ele>
        <time>2021-08-03T10:51:39.000Z</time>
      </trkpt>
      <trkpt lat="42.6098" lon="1.89237">
        <ele>2362.2</ele>
        <time>2021-08-03T10:54:49.000Z</time>
      </trkpt>
      <trkpt lat="42.6098" lon="1.89237">
        <ele>2362.3</ele>
        <time>2021-08-03T10:54:50.000Z</time>
      </trkpt>
      <trkpt lat="42.6098" lon="1.89237">
        <ele>2363</ele>
        <time>2021-08-03T10:55:28.000Z</time>
      </trkpt>
      <trkpt lat="42.6098" lon="1.89237">
        <ele>2363</ele>
        <time>2021-08-03T10:55:29.000Z</time>
      </trkpt>
      <trkpt lat="42.6098" lon="1.89237">
        <ele>2363.1</ele>
        <time>2021-08-03T10:55:30.000Z</time>
      </trkpt>
      <trkpt lat="42.6098" lon="1.89237">
        <ele>2362.7</ele>
        <time>2021-08-03T10:55:32.000Z</time>
      </trkpt>
      <trkpt lat="42.6098" lon="1.89237">
        <ele>2361.6</ele>
        <time>2021-08-03T10:55:34.000Z</time>
      </trkpt>
      <trkpt lat="42.6098" lon="1.89237">
        <ele>2362</ele>
        <time>2021-08-03T10:55:37.000Z</time>
      </trkpt>
      <trkpt lat="42.60981" lon="1.89237">
        <ele>2364</ele>
        <time>2021-08-03T10:55:46.000Z</time>
      </trkpt>
      <trkpt lat="42.6098" lon="1.89237">
        <ele>2362.5</ele>
        <time>2021-08-03T10:55:49.000Z</time>
      </trkpt>
      <trkpt lat="42.6098" lon="1.89237">
        <ele>2363</ele>
        <time>2021-08-03T10:56:59.000Z</time>
      </trkpt>
      <trkpt lat="42.6098" lon="1.89237">
        <ele>2362.8</ele>
        <time>2021-08-03T10:57:00.000Z</time>
      </trkpt>
      <trkpt lat="42.60981" lon="1.89237">
        <ele>2361.9</ele>
        <time>2021-08-03T10:58:53.000Z</time>
      </trkpt>
      <trkpt lat="42.60981" lon="1.89237">
        <ele>2362.2</ele>
        <time>2021-08-03T10:58:54.000Z</time>
      </trkpt>
      <trkpt lat="42.60981" lon="1.89237">
        <ele>2362.8</ele>
        <time>2021-08-03T10:59:22.000Z</time>
      </trkpt>
      <trkpt lat="42.60981" lon="1.89237">
        <ele>2361.2</ele>
        <time>2021-08-03T10:59:25.000Z</time>
      </trkpt>
      <trkpt lat="42.60981" lon="1.89237">
        <ele>2361.6</ele>
        <time>2021-08-03T10:59:39.000Z</time>
      </trkpt>
      <trkpt lat="42.60981" lon="1.89237">
        <ele>2361.3</ele>
        <time>2021-08-03T10:59:40.000Z</time>
      </trkpt>
      <trkpt lat="42.60981" lon="1.89238">
        <ele>2363</ele>
        <time>2021-08-03T10:59:55.000Z</time>
      </trkpt>
      <trkpt lat="42.60981" lon="1.89238">
        <ele>2363.7</ele>
        <time>2021-08-03T10:59:56.000Z</time>
      </trkpt>
      <trkpt lat="42.60981" lon="1.89237">
        <ele>2363.1</ele>
        <time>2021-08-03T11:02:01.000Z</time>
      </trkpt>
      <trkpt lat="42.60982" lon="1.89237">
        <ele>2364.7</ele>
        <time>2021-08-03T11:02:03.000Z</time>
      </trkpt>
      <trkpt lat="42.60982" lon="1.89237">
        <ele>2364.8</ele>
        <time>2021-08-03T11:02:04.000Z</time>
      </trkpt>
      <trkpt lat="42.60983" lon="1.89237">
        <ele>2364.7</ele>
        <time>2021-08-03T11:02:09.000Z</time>
      </trkpt>
      <trkpt lat="42.60982" lon="1.89237">
        <ele>2366.4</ele>
        <time>2021-08-03T11:02:12.000Z</time>
      </trkpt>
      <trkpt lat="42.60983" lon="1.89237">
        <ele>2366.1</ele>
        <time>2021-08-03T11:02:14.000Z</time>
      </trkpt>
      <trkpt lat="42.60982" lon="1.89237">
        <ele>2363.6</ele>
        <time>2021-08-03T11:02:25.000Z</time>
      </trkpt>
      <trkpt lat="42.60982" lon="1.89237">
        <ele>2363.8</ele>
        <time>2021-08-03T11:02:26.000Z</time>
      </trkpt>
      <trkpt lat="42.60983" lon="1.89237">
        <ele>2369.5</ele>
        <time>2021-08-03T11:03:04.000Z</time>
      </trkpt>
      <trkpt lat="42.60982" lon="1.89236">
        <ele>2365.1</ele>
        <time>2021-08-03T11:03:09.000Z</time>
      </trkpt>
      <trkpt lat="42.60982" lon="1.89236">
        <ele>2365</ele>
        <time>2021-08-03T11:03:12.000Z</time>
      </trkpt>
      <trkpt lat="42.60982" lon="1.89236">
        <ele>2365.3</ele>
        <time>2021-08-03T11:03:13.000Z</time>
      </trkpt>
      <trkpt lat="42.60982" lon="1.89236">
        <ele>2364.8</ele>
        <time>2021-08-03T11:03:23.000Z</time>
      </trkpt>
      <trkpt lat="42.60991" lon="1.89232">
        <ele>2364.7</ele>
        <time>2021-08-03T11:03:38.000Z</time>
      </trkpt>
      <trkpt lat="42.60998" lon="1.89223">
        <ele>2362.1</ele>
        <time>2021-08-03T11:04:00.000Z</time>
      </trkpt>
      <trkpt lat="42.60995" lon="1.89211">
        <ele>2361</ele>
        <time>2021-08-03T11:04:11.000Z</time>
      </trkpt>
      <trkpt lat="42.60994" lon="1.89199">
        <ele>2359.4</ele>
        <time>2021-08-03T11:04:26.000Z</time>
      </trkpt>
      <trkpt lat="42.60993" lon="1.89192">
        <ele>2358.3</ele>
        <time>2021-08-03T11:04:39.000Z</time>
      </trkpt>
      <trkpt lat="42.60993" lon="1.89192">
        <ele>2358.2</ele>
        <time>2021-08-03T11:04:45.000Z</time>
      </trkpt>
      <trkpt lat="42.60993" lon="1.89192">
        <ele>2358.3</ele>
        <time>2021-08-03T11:04:48.000Z</time>
      </trkpt>
      <trkpt lat="42.60993" lon="1.89191">
        <ele>2358.5</ele>
        <time>2021-08-03T11:04:51.000Z</time>
      </trkpt>
      <trkpt lat="42.6099" lon="1.89186">
        <ele>2358.2</ele>
        <time>2021-08-03T11:05:04.000Z</time>
      </trkpt>
      <trkpt lat="42.6099" lon="1.89186">
        <ele>2358.2</ele>
        <time>2021-08-03T11:05:05.000Z</time>
      </trkpt>
      <trkpt lat="42.60989" lon="1.8918">
        <ele>2358.5</ele>
        <time>2021-08-03T11:05:18.000Z</time>
      </trkpt>
      <trkpt lat="42.60989" lon="1.8918">
        <ele>2358.6</ele>
        <time>2021-08-03T11:05:19.000Z</time>
      </trkpt>
      <trkpt lat="42.60989" lon="1.8918">
        <ele>2358.6</ele>
        <time>2021-08-03T11:05:20.000Z</time>
      </trkpt>
      <trkpt lat="42.60989" lon="1.8918">
        <ele>2358.4</ele>
        <time>2021-08-03T11:05:22.000Z</time>
      </trkpt>
      <trkpt lat="42.60986" lon="1.89172">
        <ele>2360.8</ele>
        <time>2021-08-03T11:05:36.000Z</time>
      </trkpt>
      <trkpt lat="42.60986" lon="1.89171">
        <ele>2361.1</ele>
        <time>2021-08-03T11:05:38.000Z</time>
      </trkpt>
      <trkpt lat="42.60985" lon="1.89159">
        <ele>2361</ele>
        <time>2021-08-03T11:05:51.000Z</time>
      </trkpt>
      <trkpt lat="42.60982" lon="1.89147">
        <ele>2359.3</ele>
        <time>2021-08-03T11:06:07.000Z</time>
      </trkpt>
      <trkpt lat="42.60977" lon="1.89136">
        <ele>2359.5</ele>
        <time>2021-08-03T11:06:19.000Z</time>
      </trkpt>
      <trkpt lat="42.60972" lon="1.89125">
        <ele>2358.4</ele>
        <time>2021-08-03T11:06:31.000Z</time>
      </trkpt>
      <trkpt lat="42.60967" lon="1.89114">
        <ele>2357.4</ele>
        <time>2021-08-03T11:06:47.000Z</time>
      </trkpt>
      <trkpt lat="42.60963" lon="1.89103">
        <ele>2356.3</ele>
        <time>2021-08-03T11:07:02.000Z</time>
      </trkpt>
      <trkpt lat="42.60962" lon="1.89102">
        <ele>2356.5</ele>
        <time>2021-08-03T11:07:07.000Z</time>
      </trkpt>
      <trkpt lat="42.60962" lon="1.89101">
        <ele>2356.8</ele>
        <time>2021-08-03T11:07:09.000Z</time>
      </trkpt>
      <trkpt lat="42.60956" lon="1.89092">
        <ele>2356.1</ele>
        <time>2021-08-03T11:07:23.000Z</time>
      </trkpt>
      <trkpt lat="42.60952" lon="1.8908">
        <ele>2355.7</ele>
        <time>2021-08-03T11:07:36.000Z</time>
      </trkpt>
      <trkpt lat="42.6095" lon="1.89078">
        <ele>2355.6</ele>
        <time>2021-08-03T11:07:41.000Z</time>
      </trkpt>
      <trkpt lat="42.60949" lon="1.89078">
        <ele>2355.5</ele>
        <time>2021-08-03T11:07:51.000Z</time>
      </trkpt>
      <trkpt lat="42.60949" lon="1.89078">
        <ele>2355.2</ele>
        <time>2021-08-03T11:07:54.000Z</time>
      </trkpt>
      <trkpt lat="42.60949" lon="1.89077">
        <ele>2355.3</ele>
        <time>2021-08-03T11:07:55.000Z</time>
      </trkpt>
      <trkpt lat="42.60946" lon="1.89066">
        <ele>2355.8</ele>
        <time>2021-08-03T11:08:07.000Z</time>
      </trkpt>
      <trkpt lat="42.60943" lon="1.89054">
        <ele>2356.1</ele>
        <time>2021-08-03T11:08:19.000Z</time>
      </trkpt>
      <trkpt lat="42.60938" lon="1.89042">
        <ele>2356.8</ele>
        <time>2021-08-03T11:08:30.000Z</time>
      </trkpt>
      <trkpt lat="42.60935" lon="1.8903">
        <ele>2357.6</ele>
        <time>2021-08-03T11:08:42.000Z</time>
      </trkpt>
      <trkpt lat="42.60937" lon="1.89018">
        <ele>2357.7</ele>
        <time>2021-08-03T11:08:53.000Z</time>
      </trkpt>
      <trkpt lat="42.6094" lon="1.89007">
        <ele>2356.9</ele>
        <time>2021-08-03T11:09:03.000Z</time>
      </trkpt>
      <trkpt lat="42.60942" lon="1.88994">
        <ele>2355.8</ele>
        <time>2021-08-03T11:09:14.000Z</time>
      </trkpt>
      <trkpt lat="42.60939" lon="1.88982">
        <ele>2355.2</ele>
        <time>2021-08-03T11:09:24.000Z</time>
      </trkpt>
      <trkpt lat="42.60935" lon="1.8897">
        <ele>2354</ele>
        <time>2021-08-03T11:09:35.000Z</time>
      </trkpt>
      <trkpt lat="42.60929" lon="1.88959">
        <ele>2353.2</ele>
        <time>2021-08-03T11:09:47.000Z</time>
      </trkpt>
      <trkpt lat="42.60926" lon="1.88948">
        <ele>2352.5</ele>
        <time>2021-08-03T11:09:57.000Z</time>
      </trkpt>
      <trkpt lat="42.6092" lon="1.88937">
        <ele>2352</ele>
        <time>2021-08-03T11:10:08.000Z</time>
      </trkpt>
      <trkpt lat="42.60916" lon="1.88925">
        <ele>2351.4</ele>
        <time>2021-08-03T11:10:18.000Z</time>
      </trkpt>
      <trkpt lat="42.6091" lon="1.88915">
        <ele>2350.2</ele>
        <time>2021-08-03T11:10:30.000Z</time>
      </trkpt>
      <trkpt lat="42.60903" lon="1.88906">
        <ele>2347.8</ele>
        <time>2021-08-03T11:10:45.000Z</time>
      </trkpt>
      <trkpt lat="42.60898" lon="1.88895">
        <ele>2345.1</ele>
        <time>2021-08-03T11:10:59.000Z</time>
      </trkpt>
      <trkpt lat="42.6089" lon="1.88889">
        <ele>2343.6</ele>
        <time>2021-08-03T11:11:13.000Z</time>
      </trkpt>
      <trkpt lat="42.60889" lon="1.88876">
        <ele>2341.1</ele>
        <time>2021-08-03T11:11:32.000Z</time>
      </trkpt>
      <trkpt lat="42.60887" lon="1.88863">
        <ele>2339.7</ele>
        <time>2021-08-03T11:11:45.000Z</time>
      </trkpt>
      <trkpt lat="42.6088" lon="1.88854">
        <ele>2337.6</ele>
        <time>2021-08-03T11:11:56.000Z</time>
      </trkpt>
      <trkpt lat="42.60876" lon="1.88844">
        <ele>2335.8</ele>
        <time>2021-08-03T11:12:10.000Z</time>
      </trkpt>
      <trkpt lat="42.60871" lon="1.88832">
        <ele>2333.4</ele>
        <time>2021-08-03T11:12:23.000Z</time>
      </trkpt>
      <trkpt lat="42.60865" lon="1.88822">
        <ele>2332.9</ele>
        <time>2021-08-03T11:12:34.000Z</time>
      </trkpt>
      <trkpt lat="42.6086" lon="1.88811">
        <ele>2331.3</ele>
        <time>2021-08-03T11:12:45.000Z</time>
      </trkpt>
      <trkpt lat="42.60857" lon="1.88799">
        <ele>2329.7</ele>
        <time>2021-08-03T11:12:58.000Z</time>
      </trkpt>
      <trkpt lat="42.60849" lon="1.88792">
        <ele>2327.3</ele>
        <time>2021-08-03T11:13:13.000Z</time>
      </trkpt>
      <trkpt lat="42.60843" lon="1.88783">
        <ele>2324.4</ele>
        <time>2021-08-03T11:13:27.000Z</time>
      </trkpt>
      <trkpt lat="42.60834" lon="1.88778">
        <ele>2323.5</ele>
        <time>2021-08-03T11:13:45.000Z</time>
      </trkpt>
      <trkpt lat="42.60827" lon="1.8877">
        <ele>2322.5</ele>
        <time>2021-08-03T11:13:58.000Z</time>
      </trkpt>
      <trkpt lat="42.60822" lon="1.88759">
        <ele>2322.1</ele>
        <time>2021-08-03T11:14:10.000Z</time>
      </trkpt>
      <trkpt lat="42.60822" lon="1.88746">
        <ele>2321.5</ele>
        <time>2021-08-03T11:14:24.000Z</time>
      </trkpt>
      <trkpt lat="42.60822" lon="1.88745">
        <ele>2321.3</ele>
        <time>2021-08-03T11:14:26.000Z</time>
      </trkpt>
      <trkpt lat="42.60822" lon="1.88745">
        <ele>2320.9</ele>
        <time>2021-08-03T11:14:31.000Z</time>
      </trkpt>
      <trkpt lat="42.60822" lon="1.88744">
        <ele>2321</ele>
        <time>2021-08-03T11:14:33.000Z</time>
      </trkpt>
      <trkpt lat="42.60822" lon="1.88744">
        <ele>2321</ele>
        <time>2021-08-03T11:14:39.000Z</time>
      </trkpt>
      <trkpt lat="42.60823" lon="1.88732">
        <ele>2318.8</ele>
        <time>2021-08-03T11:14:55.000Z</time>
      </trkpt>
      <trkpt lat="42.60825" lon="1.88726">
        <ele>2317.2</ele>
        <time>2021-08-03T11:15:05.000Z</time>
      </trkpt>
      <trkpt lat="42.60826" lon="1.88726">
        <ele>2316.9</ele>
        <time>2021-08-03T11:15:15.000Z</time>
      </trkpt>
      <trkpt lat="42.60829" lon="1.88714">
        <ele>2314.7</ele>
        <time>2021-08-03T11:15:30.000Z</time>
      </trkpt>
      <trkpt lat="42.60833" lon="1.88704">
        <ele>2312</ele>
        <time>2021-08-03T11:15:45.000Z</time>
      </trkpt>
      <trkpt lat="42.60836" lon="1.88691">
        <ele>2309.8</ele>
        <time>2021-08-03T11:15:59.000Z</time>
      </trkpt>
      <trkpt lat="42.60835" lon="1.88678">
        <ele>2308.2</ele>
        <time>2021-08-03T11:16:12.000Z</time>
      </trkpt>
      <trkpt lat="42.60834" lon="1.88666">
        <ele>2305.3</ele>
        <time>2021-08-03T11:16:28.000Z</time>
      </trkpt>
      <trkpt lat="42.60834" lon="1.88666">
        <ele>2305.2</ele>
        <time>2021-08-03T11:16:29.000Z</time>
      </trkpt>
      <trkpt lat="42.60834" lon="1.88665">
        <ele>2304.8</ele>
        <time>2021-08-03T11:16:37.000Z</time>
      </trkpt>
      <trkpt lat="42.60833" lon="1.88655">
        <ele>2300.8</ele>
        <time>2021-08-03T11:16:56.000Z</time>
      </trkpt>
      <trkpt lat="42.60833" lon="1.88655">
        <ele>2300.5</ele>
        <time>2021-08-03T11:17:02.000Z</time>
      </trkpt>
      <trkpt lat="42.60841" lon="1.88649">
        <ele>2294.8</ele>
        <time>2021-08-03T11:17:32.000Z</time>
      </trkpt>
      <trkpt lat="42.60838" lon="1.88637">
        <ele>2290.2</ele>
        <time>2021-08-03T11:17:57.000Z</time>
      </trkpt>
      <trkpt lat="42.60837" lon="1.88624">
        <ele>2287.1</ele>
        <time>2021-08-03T11:18:15.000Z</time>
      </trkpt>
      <trkpt lat="42.60838" lon="1.88612">
        <ele>2282.8</ele>
        <time>2021-08-03T11:18:34.000Z</time>
      </trkpt>
      <trkpt lat="42.60836" lon="1.88603">
        <ele>2280.4</ele>
        <time>2021-08-03T11:18:48.000Z</time>
      </trkpt>
      <trkpt lat="42.60836" lon="1.88603">
        <ele>2280.4</ele>
        <time>2021-08-03T11:18:54.000Z</time>
      </trkpt>
      <trkpt lat="42.60841" lon="1.88592">
        <ele>2275.7</ele>
        <time>2021-08-03T11:19:15.000Z</time>
      </trkpt>
      <trkpt lat="42.6084" lon="1.8858">
        <ele>2273.1</ele>
        <time>2021-08-03T11:19:32.000Z</time>
      </trkpt>
      <trkpt lat="42.60841" lon="1.88568">
        <ele>2270.8</ele>
        <time>2021-08-03T11:19:45.000Z</time>
      </trkpt>
      <trkpt lat="42.60847" lon="1.88558">
        <ele>2266.8</ele>
        <time>2021-08-03T11:20:05.000Z</time>
      </trkpt>
      <trkpt lat="42.60849" lon="1.88546">
        <ele>2263.2</ele>
        <time>2021-08-03T11:20:28.000Z</time>
      </trkpt>
      <trkpt lat="42.60849" lon="1.88545">
        <ele>2262.5</ele>
        <time>2021-08-03T11:20:30.000Z</time>
      </trkpt>
      <trkpt lat="42.60848" lon="1.88545">
        <ele>2262.4</ele>
        <time>2021-08-03T11:20:37.000Z</time>
      </trkpt>
      <trkpt lat="42.60846" lon="1.88532">
        <ele>2259.2</ele>
        <time>2021-08-03T11:20:56.000Z</time>
      </trkpt>
      <trkpt lat="42.60849" lon="1.8852">
        <ele>2252.8</ele>
        <time>2021-08-03T11:21:30.000Z</time>
      </trkpt>
      <trkpt lat="42.60852" lon="1.88514">
        <ele>2249.1</ele>
        <time>2021-08-03T11:21:53.000Z</time>
      </trkpt>
      <trkpt lat="42.60851" lon="1.88514">
        <ele>2249.2</ele>
        <time>2021-08-03T11:21:58.000Z</time>
      </trkpt>
      <trkpt lat="42.60851" lon="1.88514">
        <ele>2248.2</ele>
        <time>2021-08-03T11:22:03.000Z</time>
      </trkpt>
      <trkpt lat="42.60851" lon="1.88514">
        <ele>2247.6</ele>
        <time>2021-08-03T11:22:35.000Z</time>
      </trkpt>
      <trkpt lat="42.60851" lon="1.88513">
        <ele>2247.7</ele>
        <time>2021-08-03T11:22:36.000Z</time>
      </trkpt>
      <trkpt lat="42.60851" lon="1.88513">
        <ele>2247.6</ele>
        <time>2021-08-03T11:22:40.000Z</time>
      </trkpt>
      <trkpt lat="42.60851" lon="1.88513">
        <ele>2247.7</ele>
        <time>2021-08-03T11:22:41.000Z</time>
      </trkpt>
      <trkpt lat="42.60851" lon="1.88513">
        <ele>2248.1</ele>
        <time>2021-08-03T11:22:44.000Z</time>
      </trkpt>
      <trkpt lat="42.6085" lon="1.88514">
        <ele>2247.8</ele>
        <time>2021-08-03T11:22:49.000Z</time>
      </trkpt>
      <trkpt lat="42.6085" lon="1.88514">
        <ele>2248.2</ele>
        <time>2021-08-03T11:22:50.000Z</time>
      </trkpt>
      <trkpt lat="42.6085" lon="1.88514">
        <ele>2243.7</ele>
        <time>2021-08-03T11:22:56.000Z</time>
      </trkpt>
      <trkpt lat="42.6085" lon="1.88513">
        <ele>2250.3</ele>
        <time>2021-08-03T11:22:59.000Z</time>
      </trkpt>
      <trkpt lat="42.60851" lon="1.88512">
        <ele>2249.1</ele>
        <time>2021-08-03T11:23:03.000Z</time>
      </trkpt>
      <trkpt lat="42.60851" lon="1.88512">
        <ele>2249</ele>
        <time>2021-08-03T11:23:06.000Z</time>
      </trkpt>
      <trkpt lat="42.60851" lon="1.88512">
        <ele>2249</ele>
        <time>2021-08-03T11:23:07.000Z</time>
      </trkpt>
      <trkpt lat="42.60851" lon="1.88512">
        <ele>2249</ele>
        <time>2021-08-03T11:23:10.000Z</time>
      </trkpt>
      <trkpt lat="42.60851" lon="1.88512">
        <ele>2249.1</ele>
        <time>2021-08-03T11:23:11.000Z</time>
      </trkpt>
      <trkpt lat="42.6085" lon="1.88512">
        <ele>2249.5</ele>
        <time>2021-08-03T11:23:24.000Z</time>
      </trkpt>
      <trkpt lat="42.60849" lon="1.88512">
        <ele>2248.7</ele>
        <time>2021-08-03T11:23:27.000Z</time>
      </trkpt>
      <trkpt lat="42.60849" lon="1.88513">
        <ele>2249.4</ele>
        <time>2021-08-03T11:23:32.000Z</time>
      </trkpt>
      <trkpt lat="42.60853" lon="1.88501">
        <ele>2245.9</ele>
        <time>2021-08-03T11:23:50.000Z</time>
      </trkpt>
      <trkpt lat="42.6086" lon="1.88493">
        <ele>2242.9</ele>
        <time>2021-08-03T11:24:04.000Z</time>
      </trkpt>
      <trkpt lat="42.60869" lon="1.88492">
        <ele>2238.6</ele>
        <time>2021-08-03T11:24:25.000Z</time>
      </trkpt>
      <trkpt lat="42.60869" lon="1.88494">
        <ele>2238.4</ele>
        <time>2021-08-03T11:24:28.000Z</time>
      </trkpt>
      <trkpt lat="42.6087" lon="1.88494">
        <ele>2238.5</ele>
        <time>2021-08-03T11:24:29.000Z</time>
      </trkpt>
      <trkpt lat="42.60875" lon="1.88483">
        <ele>2234.6</ele>
        <time>2021-08-03T11:24:47.000Z</time>
      </trkpt>
      <trkpt lat="42.60875" lon="1.88472">
        <ele>2231.5</ele>
        <time>2021-08-03T11:25:04.000Z</time>
      </trkpt>
      <trkpt lat="42.60875" lon="1.88472">
        <ele>2231.2</ele>
        <time>2021-08-03T11:25:07.000Z</time>
      </trkpt>
      <trkpt lat="42.60875" lon="1.88459">
        <ele>2228.7</ele>
        <time>2021-08-03T11:25:21.000Z</time>
      </trkpt>
      <trkpt lat="42.60882" lon="1.88452">
        <ele>2225.4</ele>
        <time>2021-08-03T11:25:43.000Z</time>
      </trkpt>
      <trkpt lat="42.60884" lon="1.8844">
        <ele>2225.9</ele>
        <time>2021-08-03T11:25:58.000Z</time>
      </trkpt>
      <trkpt lat="42.60888" lon="1.88428">
        <ele>2227.5</ele>
        <time>2021-08-03T11:26:15.000Z</time>
      </trkpt>
      <trkpt lat="42.60885" lon="1.88417">
        <ele>2225.3</ele>
        <time>2021-08-03T11:26:30.000Z</time>
      </trkpt>
      <trkpt lat="42.60883" lon="1.88404">
        <ele>2223.9</ele>
        <time>2021-08-03T11:26:43.000Z</time>
      </trkpt>
      <trkpt lat="42.60879" lon="1.88393">
        <ele>2223.5</ele>
        <time>2021-08-03T11:26:57.000Z</time>
      </trkpt>
      <trkpt lat="42.60875" lon="1.88381">
        <ele>2221.2</ele>
        <time>2021-08-03T11:27:15.000Z</time>
      </trkpt>
      <trkpt lat="42.60875" lon="1.88369">
        <ele>2221.6</ele>
        <time>2021-08-03T11:27:32.000Z</time>
      </trkpt>
      <trkpt lat="42.60869" lon="1.8836">
        <ele>2222.2</ele>
        <time>2021-08-03T11:27:44.000Z</time>
      </trkpt>
      <trkpt lat="42.60863" lon="1.8835">
        <ele>2222.5</ele>
        <time>2021-08-03T11:28:01.000Z</time>
      </trkpt>
      <trkpt lat="42.60858" lon="1.8834">
        <ele>2221.2</ele>
        <time>2021-08-03T11:28:18.000Z</time>
      </trkpt>
      <trkpt lat="42.60855" lon="1.88339">
        <ele>2219.6</ele>
        <time>2021-08-03T11:28:28.000Z</time>
      </trkpt>
      <trkpt lat="42.60855" lon="1.88339">
        <ele>2219.6</ele>
        <time>2021-08-03T11:28:29.000Z</time>
      </trkpt>
      <trkpt lat="42.60853" lon="1.88338">
        <ele>2218.6</ele>
        <time>2021-08-03T11:28:37.000Z</time>
      </trkpt>
      <trkpt lat="42.60852" lon="1.88338">
        <ele>2218.5</ele>
        <time>2021-08-03T11:28:41.000Z</time>
      </trkpt>
      <trkpt lat="42.6085" lon="1.8834">
        <ele>2217.3</ele>
        <time>2021-08-03T11:28:50.000Z</time>
      </trkpt>
      <trkpt lat="42.6085" lon="1.88339">
        <ele>2217</ele>
        <time>2021-08-03T11:28:52.000Z</time>
      </trkpt>
      <trkpt lat="42.60842" lon="1.88332">
        <ele>2213.3</ele>
        <time>2021-08-03T11:29:19.000Z</time>
      </trkpt>
      <trkpt lat="42.60839" lon="1.8832">
        <ele>2211.5</ele>
        <time>2021-08-03T11:29:35.000Z</time>
      </trkpt>
      <trkpt lat="42.60838" lon="1.88317">
        <ele>2210.7</ele>
        <time>2021-08-03T11:29:41.000Z</time>
      </trkpt>
      <trkpt lat="42.60838" lon="1.88317">
        <ele>2210.7</ele>
        <time>2021-08-03T11:29:42.000Z</time>
      </trkpt>
      <trkpt lat="42.60831" lon="1.88308">
        <ele>2208.5</ele>
        <time>2021-08-03T11:30:01.000Z</time>
      </trkpt>
      <trkpt lat="42.60828" lon="1.88296">
        <ele>2207.2</ele>
        <time>2021-08-03T11:30:15.000Z</time>
      </trkpt>
      <trkpt lat="42.60824" lon="1.88284">
        <ele>2206.8</ele>
        <time>2021-08-03T11:30:27.000Z</time>
      </trkpt>
      <trkpt lat="42.6082" lon="1.88272">
        <ele>2206.2</ele>
        <time>2021-08-03T11:30:40.000Z</time>
      </trkpt>
      <trkpt lat="42.60821" lon="1.8826">
        <ele>2206.8</ele>
        <time>2021-08-03T11:30:51.000Z</time>
      </trkpt>
      <trkpt lat="42.60821" lon="1.88247">
        <ele>2206.6</ele>
        <time>2021-08-03T11:31:02.000Z</time>
      </trkpt>
      <trkpt lat="42.60819" lon="1.88235">
        <ele>2205.7</ele>
        <time>2021-08-03T11:31:13.000Z</time>
      </trkpt>
      <trkpt lat="42.60818" lon="1.8823">
        <ele>2205.8</ele>
        <time>2021-08-03T11:31:19.000Z</time>
      </trkpt>
      <trkpt lat="42.60818" lon="1.88229">
        <ele>2205.8</ele>
        <time>2021-08-03T11:31:30.000Z</time>
      </trkpt>
      <trkpt lat="42.60815" lon="1.88217">
        <ele>2206.2</ele>
        <time>2021-08-03T11:31:41.000Z</time>
      </trkpt>
      <trkpt lat="42.6081" lon="1.88206">
        <ele>2206.9</ele>
        <time>2021-08-03T11:31:52.000Z</time>
      </trkpt>
      <trkpt lat="42.60807" lon="1.88195">
        <ele>2206.2</ele>
        <time>2021-08-03T11:32:03.000Z</time>
      </trkpt>
      <trkpt lat="42.60803" lon="1.88183">
        <ele>2205.6</ele>
        <time>2021-08-03T11:32:17.000Z</time>
      </trkpt>
      <trkpt lat="42.60801" lon="1.88171">
        <ele>2204.9</ele>
        <time>2021-08-03T11:32:36.000Z</time>
      </trkpt>
      <trkpt lat="42.60799" lon="1.88159">
        <ele>2207.8</ele>
        <time>2021-08-03T11:32:55.000Z</time>
      </trkpt>
      <trkpt lat="42.60798" lon="1.88157">
        <ele>2208.2</ele>
        <time>2021-08-03T11:32:58.000Z</time>
      </trkpt>
      <trkpt lat="42.60798" lon="1.88157">
        <ele>2208.7</ele>
        <time>2021-08-03T11:33:14.000Z</time>
      </trkpt>
      <trkpt lat="42.60789" lon="1.8815">
        <ele>2208.4</ele>
        <time>2021-08-03T11:33:27.000Z</time>
      </trkpt>
      <trkpt lat="42.60782" lon="1.88143">
        <ele>2207.6</ele>
        <time>2021-08-03T11:33:43.000Z</time>
      </trkpt>
      <trkpt lat="42.60773" lon="1.8814">
        <ele>2203.3</ele>
        <time>2021-08-03T11:34:00.000Z</time>
      </trkpt>
      <trkpt lat="42.60766" lon="1.88132">
        <ele>2202.5</ele>
        <time>2021-08-03T11:34:13.000Z</time>
      </trkpt>
      <trkpt lat="42.60758" lon="1.88126">
        <ele>2199.7</ele>
        <time>2021-08-03T11:34:28.000Z</time>
      </trkpt>
      <trkpt lat="42.60751" lon="1.88118">
        <ele>2198.5</ele>
        <time>2021-08-03T11:34:43.000Z</time>
      </trkpt>
      <trkpt lat="42.60742" lon="1.88114">
        <ele>2196.4</ele>
        <time>2021-08-03T11:34:57.000Z</time>
      </trkpt>
      <trkpt lat="42.60734" lon="1.88108">
        <ele>2194.9</ele>
        <time>2021-08-03T11:35:09.000Z</time>
      </trkpt>
      <trkpt lat="42.60734" lon="1.88096">
        <ele>2194</ele>
        <time>2021-08-03T11:35:23.000Z</time>
      </trkpt>
      <trkpt lat="42.60725" lon="1.8809">
        <ele>2191.4</ele>
        <time>2021-08-03T11:35:40.000Z</time>
      </trkpt>
      <trkpt lat="42.60727" lon="1.88078">
        <ele>2189.5</ele>
        <time>2021-08-03T11:35:54.000Z</time>
      </trkpt>
      <trkpt lat="42.60719" lon="1.88071">
        <ele>2187.3</ele>
        <time>2021-08-03T11:36:09.000Z</time>
      </trkpt>
      <trkpt lat="42.60711" lon="1.88065">
        <ele>2185.2</ele>
        <time>2021-08-03T11:36:21.000Z</time>
      </trkpt>
      <trkpt lat="42.60703" lon="1.8806">
        <ele>2183.3</ele>
        <time>2021-08-03T11:36:32.000Z</time>
      </trkpt>
      <trkpt lat="42.60695" lon="1.88054">
        <ele>2182.8</ele>
        <time>2021-08-03T11:36:41.000Z</time>
      </trkpt>
      <trkpt lat="42.60688" lon="1.88046">
        <ele>2182.5</ele>
        <time>2021-08-03T11:36:50.000Z</time>
      </trkpt>
      <trkpt lat="42.60679" lon="1.88043">
        <ele>2182.1</ele>
        <time>2021-08-03T11:36:59.000Z</time>
      </trkpt>
      <trkpt lat="42.60672" lon="1.88034">
        <ele>2182.1</ele>
        <time>2021-08-03T11:37:10.000Z</time>
      </trkpt>
      <trkpt lat="42.60669" lon="1.88022">
        <ele>2181.9</ele>
        <time>2021-08-03T11:37:20.000Z</time>
      </trkpt>
      <trkpt lat="42.60663" lon="1.88012">
        <ele>2182.3</ele>
        <time>2021-08-03T11:37:30.000Z</time>
      </trkpt>
      <trkpt lat="42.60655" lon="1.88004">
        <ele>2181.9</ele>
        <time>2021-08-03T11:37:40.000Z</time>
      </trkpt>
      <trkpt lat="42.60648" lon="1.87995">
        <ele>2182</ele>
        <time>2021-08-03T11:37:50.000Z</time>
      </trkpt>
      <trkpt lat="42.60642" lon="1.87984">
        <ele>2182.5</ele>
        <time>2021-08-03T11:38:00.000Z</time>
      </trkpt>
      <trkpt lat="42.60637" lon="1.87974">
        <ele>2182.4</ele>
        <time>2021-08-03T11:38:10.000Z</time>
      </trkpt>
      <trkpt lat="42.60631" lon="1.87964">
        <ele>2182.1</ele>
        <time>2021-08-03T11:38:20.000Z</time>
      </trkpt>
      <trkpt lat="42.60627" lon="1.87953">
        <ele>2181.8</ele>
        <time>2021-08-03T11:38:30.000Z</time>
      </trkpt>
      <trkpt lat="42.6062" lon="1.87944">
        <ele>2180.7</ele>
        <time>2021-08-03T11:38:39.000Z</time>
      </trkpt>
      <trkpt lat="42.60615" lon="1.87932">
        <ele>2180.5</ele>
        <time>2021-08-03T11:38:49.000Z</time>
      </trkpt>
      <trkpt lat="42.60607" lon="1.87924">
        <ele>2178.9</ele>
        <time>2021-08-03T11:39:00.000Z</time>
      </trkpt>
      <trkpt lat="42.60601" lon="1.87915">
        <ele>2176.7</ele>
        <time>2021-08-03T11:39:11.000Z</time>
      </trkpt>
      <trkpt lat="42.60594" lon="1.87906">
        <ele>2174.7</ele>
        <time>2021-08-03T11:39:24.000Z</time>
      </trkpt>
      <trkpt lat="42.60588" lon="1.87896">
        <ele>2171.9</ele>
        <time>2021-08-03T11:39:38.000Z</time>
      </trkpt>
      <trkpt lat="42.60583" lon="1.87885">
        <ele>2169.1</ele>
        <time>2021-08-03T11:39:55.000Z</time>
      </trkpt>
      <trkpt lat="42.60581" lon="1.87883">
        <ele>2167.9</ele>
        <time>2021-08-03T11:40:01.000Z</time>
      </trkpt>
      <trkpt lat="42.6058" lon="1.87883">
        <ele>2167.7</ele>
        <time>2021-08-03T11:40:07.000Z</time>
      </trkpt>
      <trkpt lat="42.60572" lon="1.87878">
        <ele>2164.9</ele>
        <time>2021-08-03T11:40:24.000Z</time>
      </trkpt>
      <trkpt lat="42.60568" lon="1.87867">
        <ele>2163.1</ele>
        <time>2021-08-03T11:40:40.000Z</time>
      </trkpt>
      <trkpt lat="42.60566" lon="1.87855">
        <ele>2163.1</ele>
        <time>2021-08-03T11:40:51.000Z</time>
      </trkpt>
      <trkpt lat="42.60566" lon="1.87842">
        <ele>2163.3</ele>
        <time>2021-08-03T11:41:03.000Z</time>
      </trkpt>
      <trkpt lat="42.6056" lon="1.87833">
        <ele>2162.3</ele>
        <time>2021-08-03T11:41:17.000Z</time>
      </trkpt>
      <trkpt lat="42.60552" lon="1.87827">
        <ele>2163.3</ele>
        <time>2021-08-03T11:41:29.000Z</time>
      </trkpt>
      <trkpt lat="42.60547" lon="1.87816">
        <ele>2163.5</ele>
        <time>2021-08-03T11:41:42.000Z</time>
      </trkpt>
      <trkpt lat="42.60544" lon="1.87804">
        <ele>2163.1</ele>
        <time>2021-08-03T11:41:55.000Z</time>
      </trkpt>
      <trkpt lat="42.60538" lon="1.87794">
        <ele>2163.2</ele>
        <time>2021-08-03T11:42:06.000Z</time>
      </trkpt>
      <trkpt lat="42.60531" lon="1.87784">
        <ele>2163.9</ele>
        <time>2021-08-03T11:42:16.000Z</time>
      </trkpt>
      <trkpt lat="42.60524" lon="1.87775">
        <ele>2163.6</ele>
        <time>2021-08-03T11:42:26.000Z</time>
      </trkpt>
      <trkpt lat="42.60518" lon="1.87765">
        <ele>2163.3</ele>
        <time>2021-08-03T11:42:37.000Z</time>
      </trkpt>
      <trkpt lat="42.60514" lon="1.87754">
        <ele>2162.4</ele>
        <time>2021-08-03T11:42:51.000Z</time>
      </trkpt>
      <trkpt lat="42.6051" lon="1.87743">
        <ele>2161.6</ele>
        <time>2021-08-03T11:43:03.000Z</time>
      </trkpt>
      <trkpt lat="42.60505" lon="1.87732">
        <ele>2159.1</ele>
        <time>2021-08-03T11:43:18.000Z</time>
      </trkpt>
      <trkpt lat="42.60504" lon="1.87719">
        <ele>2159.4</ele>
        <time>2021-08-03T11:43:30.000Z</time>
      </trkpt>
      <trkpt lat="42.60502" lon="1.87706">
        <ele>2157.9</ele>
        <time>2021-08-03T11:43:42.000Z</time>
      </trkpt>
      <trkpt lat="42.605" lon="1.87694">
        <ele>2156.2</ele>
        <time>2021-08-03T11:43:53.000Z</time>
      </trkpt>
      <trkpt lat="42.60502" lon="1.87682">
        <ele>2156.2</ele>
        <time>2021-08-03T11:44:03.000Z</time>
      </trkpt>
      <trkpt lat="42.60498" lon="1.8767">
        <ele>2155.8</ele>
        <time>2021-08-03T11:44:16.000Z</time>
      </trkpt>
      <trkpt lat="42.60494" lon="1.87659">
        <ele>2155.7</ele>
        <time>2021-08-03T11:44:27.000Z</time>
      </trkpt>
      <trkpt lat="42.60489" lon="1.87647">
        <ele>2154.7</ele>
        <time>2021-08-03T11:44:37.000Z</time>
      </trkpt>
      <trkpt lat="42.60485" lon="1.87636">
        <ele>2154.4</ele>
        <time>2021-08-03T11:44:47.000Z</time>
      </trkpt>
      <trkpt lat="42.60481" lon="1.87625">
        <ele>2154</ele>
        <time>2021-08-03T11:44:58.000Z</time>
      </trkpt>
      <trkpt lat="42.60475" lon="1.87614">
        <ele>2154.1</ele>
        <time>2021-08-03T11:45:08.000Z</time>
      </trkpt>
      <trkpt lat="42.60469" lon="1.87603">
        <ele>2153.6</ele>
        <time>2021-08-03T11:45:18.000Z</time>
      </trkpt>
      <trkpt lat="42.60466" lon="1.87602">
        <ele>2153.7</ele>
        <time>2021-08-03T11:45:24.000Z</time>
      </trkpt>
      <trkpt lat="42.60466" lon="1.87602">
        <ele>2153.1</ele>
        <time>2021-08-03T11:45:35.000Z</time>
      </trkpt>
      <trkpt lat="42.60458" lon="1.87596">
        <ele>2151.8</ele>
        <time>2021-08-03T11:45:46.000Z</time>
      </trkpt>
      <trkpt lat="42.6045" lon="1.8759">
        <ele>2150.7</ele>
        <time>2021-08-03T11:45:57.000Z</time>
      </trkpt>
      <trkpt lat="42.60443" lon="1.87581">
        <ele>2148.2</ele>
        <time>2021-08-03T11:46:12.000Z</time>
      </trkpt>
      <trkpt lat="42.60435" lon="1.87573">
        <ele>2146</ele>
        <time>2021-08-03T11:46:25.000Z</time>
      </trkpt>
      <trkpt lat="42.60433" lon="1.87561">
        <ele>2144.6</ele>
        <time>2021-08-03T11:46:37.000Z</time>
      </trkpt>
      <trkpt lat="42.60432" lon="1.87549">
        <ele>2144.2</ele>
        <time>2021-08-03T11:46:48.000Z</time>
      </trkpt>
      <trkpt lat="42.60427" lon="1.87538">
        <ele>2143.9</ele>
        <time>2021-08-03T11:46:58.000Z</time>
      </trkpt>
      <trkpt lat="42.60423" lon="1.87525">
        <ele>2143.8</ele>
        <time>2021-08-03T11:47:08.000Z</time>
      </trkpt>
      <trkpt lat="42.6042" lon="1.87513">
        <ele>2143.9</ele>
        <time>2021-08-03T11:47:17.000Z</time>
      </trkpt>
      <trkpt lat="42.6042" lon="1.875">
        <ele>2144</ele>
        <time>2021-08-03T11:47:27.000Z</time>
      </trkpt>
      <trkpt lat="42.60418" lon="1.87488">
        <ele>2143.8</ele>
        <time>2021-08-03T11:47:36.000Z</time>
      </trkpt>
      <trkpt lat="42.60416" lon="1.87475">
        <ele>2144.4</ele>
        <time>2021-08-03T11:47:46.000Z</time>
      </trkpt>
      <trkpt lat="42.60411" lon="1.87464">
        <ele>2144.3</ele>
        <time>2021-08-03T11:47:56.000Z</time>
      </trkpt>
      <trkpt lat="42.60406" lon="1.87454">
        <ele>2144.4</ele>
        <time>2021-08-03T11:48:06.000Z</time>
      </trkpt>
      <trkpt lat="42.60406" lon="1.87442">
        <ele>2143.6</ele>
        <time>2021-08-03T11:48:16.000Z</time>
      </trkpt>
      <trkpt lat="42.60403" lon="1.87429">
        <ele>2143.7</ele>
        <time>2021-08-03T11:48:26.000Z</time>
      </trkpt>
      <trkpt lat="42.60398" lon="1.87419">
        <ele>2142.9</ele>
        <time>2021-08-03T11:48:37.000Z</time>
      </trkpt>
      <trkpt lat="42.60393" lon="1.87409">
        <ele>2141.3</ele>
        <time>2021-08-03T11:48:51.000Z</time>
      </trkpt>
      <trkpt lat="42.60393" lon="1.87409">
        <ele>2141</ele>
        <time>2021-08-03T11:48:53.000Z</time>
      </trkpt>
      <trkpt lat="42.60392" lon="1.87409">
        <ele>2141.6</ele>
        <time>2021-08-03T11:48:57.000Z</time>
      </trkpt>
      <trkpt lat="42.60392" lon="1.87409">
        <ele>2141</ele>
        <time>2021-08-03T11:48:58.000Z</time>
      </trkpt>
      <trkpt lat="42.60393" lon="1.8741">
        <ele>2141.3</ele>
        <time>2021-08-03T11:49:05.000Z</time>
      </trkpt>
      <trkpt lat="42.60393" lon="1.8741">
        <ele>2141.3</ele>
        <time>2021-08-03T11:49:06.000Z</time>
      </trkpt>
      <trkpt lat="42.60392" lon="1.8741">
        <ele>2140.4</ele>
        <time>2021-08-03T11:50:26.000Z</time>
      </trkpt>
      <trkpt lat="42.60392" lon="1.8741">
        <ele>2141.9</ele>
        <time>2021-08-03T11:50:27.000Z</time>
      </trkpt>
      <trkpt lat="42.60392" lon="1.8741">
        <ele>2141.3</ele>
        <time>2021-08-03T11:51:21.000Z</time>
      </trkpt>
      <trkpt lat="42.60392" lon="1.8741">
        <ele>2141.2</ele>
        <time>2021-08-03T11:51:22.000Z</time>
      </trkpt>
      <trkpt lat="42.60392" lon="1.8741">
        <ele>2138.9</ele>
        <time>2021-08-03T11:51:28.000Z</time>
      </trkpt>
      <trkpt lat="42.60393" lon="1.8741">
        <ele>2141</ele>
        <time>2021-08-03T11:51:32.000Z</time>
      </trkpt>
      <trkpt lat="42.60393" lon="1.8741">
        <ele>2140.9</ele>
        <time>2021-08-03T11:51:33.000Z</time>
      </trkpt>
      <trkpt lat="42.6039" lon="1.87397">
        <ele>2138.5</ele>
        <time>2021-08-03T11:51:47.000Z</time>
      </trkpt>
      <trkpt lat="42.60385" lon="1.87386">
        <ele>2137.5</ele>
        <time>2021-08-03T11:51:58.000Z</time>
      </trkpt>
      <trkpt lat="42.60384" lon="1.87373">
        <ele>2135.6</ele>
        <time>2021-08-03T11:52:10.000Z</time>
      </trkpt>
      <trkpt lat="42.6038" lon="1.87362">
        <ele>2132.4</ele>
        <time>2021-08-03T11:52:24.000Z</time>
      </trkpt>
      <trkpt lat="42.60377" lon="1.8735">
        <ele>2130.7</ele>
        <time>2021-08-03T11:52:36.000Z</time>
      </trkpt>
      <trkpt lat="42.60376" lon="1.87337">
        <ele>2128.7</ele>
        <time>2021-08-03T11:52:48.000Z</time>
      </trkpt>
      <trkpt lat="42.60373" lon="1.87326">
        <ele>2128.1</ele>
        <time>2021-08-03T11:52:58.000Z</time>
      </trkpt>
      <trkpt lat="42.60369" lon="1.87314">
        <ele>2126.5</ele>
        <time>2021-08-03T11:53:09.000Z</time>
      </trkpt>
      <trkpt lat="42.60365" lon="1.87303">
        <ele>2125.7</ele>
        <time>2021-08-03T11:53:22.000Z</time>
      </trkpt>
      <trkpt lat="42.60359" lon="1.87293">
        <ele>2123</ele>
        <time>2021-08-03T11:53:34.000Z</time>
      </trkpt>
      <trkpt lat="42.60357" lon="1.8728">
        <ele>2122.1</ele>
        <time>2021-08-03T11:53:45.000Z</time>
      </trkpt>
      <trkpt lat="42.60358" lon="1.87267">
        <ele>2121.4</ele>
        <time>2021-08-03T11:53:58.000Z</time>
      </trkpt>
      <trkpt lat="42.60359" lon="1.87254">
        <ele>2118.9</ele>
        <time>2021-08-03T11:54:10.000Z</time>
      </trkpt>
      <trkpt lat="42.60359" lon="1.87241">
        <ele>2117</ele>
        <time>2021-08-03T11:54:21.000Z</time>
      </trkpt>
      <trkpt lat="42.6036" lon="1.87228">
        <ele>2115.7</ele>
        <time>2021-08-03T11:54:34.000Z</time>
      </trkpt>
      <trkpt lat="42.60359" lon="1.87215">
        <ele>2113.8</ele>
        <time>2021-08-03T11:54:48.000Z</time>
      </trkpt>
      <trkpt lat="42.60352" lon="1.87207">
        <ele>2108.2</ele>
        <time>2021-08-03T11:55:07.000Z</time>
      </trkpt>
      <trkpt lat="42.60351" lon="1.87206">
        <ele>2107.7</ele>
        <time>2021-08-03T11:55:13.000Z</time>
      </trkpt>
      <trkpt lat="42.60351" lon="1.87206">
        <ele>2107.6</ele>
        <time>2021-08-03T11:55:17.000Z</time>
      </trkpt>
      <trkpt lat="42.6035" lon="1.87204">
        <ele>2106.3</ele>
        <time>2021-08-03T11:55:23.000Z</time>
      </trkpt>
      <trkpt lat="42.60349" lon="1.87204">
        <ele>2106.6</ele>
        <time>2021-08-03T11:55:31.000Z</time>
      </trkpt>
      <trkpt lat="42.60344" lon="1.87194">
        <ele>2104.5</ele>
        <time>2021-08-03T11:55:44.000Z</time>
      </trkpt>
      <trkpt lat="42.60339" lon="1.87184">
        <ele>2101.5</ele>
        <time>2021-08-03T11:56:02.000Z</time>
      </trkpt>
      <trkpt lat="42.60333" lon="1.87173">
        <ele>2098.3</ele>
        <time>2021-08-03T11:56:19.000Z</time>
      </trkpt>
      <trkpt lat="42.60331" lon="1.87161">
        <ele>2096.7</ele>
        <time>2021-08-03T11:56:32.000Z</time>
      </trkpt>
      <trkpt lat="42.60328" lon="1.87149">
        <ele>2093.6</ele>
        <time>2021-08-03T11:56:49.000Z</time>
      </trkpt>
      <trkpt lat="42.60324" lon="1.87139">
        <ele>2091.9</ele>
        <time>2021-08-03T11:57:03.000Z</time>
      </trkpt>
      <trkpt lat="42.60324" lon="1.87138">
        <ele>2090.5</ele>
        <time>2021-08-03T11:58:25.000Z</time>
      </trkpt>
      <trkpt lat="42.60324" lon="1.87138">
        <ele>2090.3</ele>
        <time>2021-08-03T11:58:26.000Z</time>
      </trkpt>
      <trkpt lat="42.60324" lon="1.87138">
        <ele>2090.3</ele>
        <time>2021-08-03T11:59:12.000Z</time>
      </trkpt>
      <trkpt lat="42.60322" lon="1.87125">
        <ele>2088</ele>
        <time>2021-08-03T11:59:26.000Z</time>
      </trkpt>
      <trkpt lat="42.60319" lon="1.87113">
        <ele>2086.4</ele>
        <time>2021-08-03T11:59:39.000Z</time>
      </trkpt>
      <trkpt lat="42.60312" lon="1.87104">
        <ele>2083.7</ele>
        <time>2021-08-03T11:59:50.000Z</time>
      </trkpt>
      <trkpt lat="42.60308" lon="1.87093">
        <ele>2082.6</ele>
        <time>2021-08-03T12:00:02.000Z</time>
      </trkpt>
      <trkpt lat="42.60302" lon="1.87083">
        <ele>2081.2</ele>
        <time>2021-08-03T12:00:16.000Z</time>
      </trkpt>
      <trkpt lat="42.60299" lon="1.87071">
        <ele>2080.6</ele>
        <time>2021-08-03T12:00:28.000Z</time>
      </trkpt>
      <trkpt lat="42.60296" lon="1.87059">
        <ele>2079.8</ele>
        <time>2021-08-03T12:00:40.000Z</time>
      </trkpt>
      <trkpt lat="42.60292" lon="1.87048">
        <ele>2078.1</ele>
        <time>2021-08-03T12:00:52.000Z</time>
      </trkpt>
      <trkpt lat="42.60292" lon="1.87035">
        <ele>2075</ele>
        <time>2021-08-03T12:01:07.000Z</time>
      </trkpt>
      <trkpt lat="42.60291" lon="1.87023">
        <ele>2072.8</ele>
        <time>2021-08-03T12:01:20.000Z</time>
      </trkpt>
      <trkpt lat="42.60291" lon="1.8701">
        <ele>2070.9</ele>
        <time>2021-08-03T12:01:35.000Z</time>
      </trkpt>
      <trkpt lat="42.60289" lon="1.86998">
        <ele>2068.4</ele>
        <time>2021-08-03T12:01:50.000Z</time>
      </trkpt>
      <trkpt lat="42.60289" lon="1.86985">
        <ele>2067.2</ele>
        <time>2021-08-03T12:02:07.000Z</time>
      </trkpt>
      <trkpt lat="42.60289" lon="1.86971">
        <ele>2066.8</ele>
        <time>2021-08-03T12:02:18.000Z</time>
      </trkpt>
      <trkpt lat="42.60289" lon="1.86958">
        <ele>2065.1</ele>
        <time>2021-08-03T12:02:30.000Z</time>
      </trkpt>
      <trkpt lat="42.60291" lon="1.86946">
        <ele>2063.8</ele>
        <time>2021-08-03T12:02:44.000Z</time>
      </trkpt>
      <trkpt lat="42.60295" lon="1.86935">
        <ele>2063.7</ele>
        <time>2021-08-03T12:02:57.000Z</time>
      </trkpt>
      <trkpt lat="42.60299" lon="1.86923">
        <ele>2063.9</ele>
        <time>2021-08-03T12:03:08.000Z</time>
      </trkpt>
      <trkpt lat="42.60305" lon="1.86914">
        <ele>2066.2</ele>
        <time>2021-08-03T12:03:25.000Z</time>
      </trkpt>
      <trkpt lat="42.60311" lon="1.86904">
        <ele>2069.2</ele>
        <time>2021-08-03T12:03:48.000Z</time>
      </trkpt>
      <trkpt lat="42.60314" lon="1.86892">
        <ele>2071.9</ele>
        <time>2021-08-03T12:04:07.000Z</time>
      </trkpt>
      <trkpt lat="42.60317" lon="1.8688">
        <ele>2073.7</ele>
        <time>2021-08-03T12:04:26.000Z</time>
      </trkpt>
      <trkpt lat="42.60321" lon="1.86869">
        <ele>2076</ele>
        <time>2021-08-03T12:04:48.000Z</time>
      </trkpt>
      <trkpt lat="42.60326" lon="1.86858">
        <ele>2079.2</ele>
        <time>2021-08-03T12:05:07.000Z</time>
      </trkpt>
      <trkpt lat="42.60329" lon="1.86847">
        <ele>2081.2</ele>
        <time>2021-08-03T12:05:23.000Z</time>
      </trkpt>
      <trkpt lat="42.60333" lon="1.86836">
        <ele>2083</ele>
        <time>2021-08-03T12:05:39.000Z</time>
      </trkpt>
      <trkpt lat="42.60335" lon="1.86831">
        <ele>2083.7</ele>
        <time>2021-08-03T12:05:48.000Z</time>
      </trkpt>
      <trkpt lat="42.60335" lon="1.86831">
        <ele>2083.6</ele>
        <time>2021-08-03T12:06:12.000Z</time>
      </trkpt>
      <trkpt lat="42.60335" lon="1.86831">
        <ele>2083.6</ele>
        <time>2021-08-03T12:06:13.000Z</time>
      </trkpt>
      <trkpt lat="42.60336" lon="1.86831">
        <ele>2083.7</ele>
        <time>2021-08-03T12:06:14.000Z</time>
      </trkpt>
      <trkpt lat="42.60344" lon="1.86836">
        <ele>2087.5</ele>
        <time>2021-08-03T12:06:48.000Z</time>
      </trkpt>
      <trkpt lat="42.60348" lon="1.86828">
        <ele>2089.6</ele>
        <time>2021-08-03T12:07:06.000Z</time>
      </trkpt>
      <trkpt lat="42.60349" lon="1.86828">
        <ele>2089.4</ele>
        <time>2021-08-03T12:07:19.000Z</time>
      </trkpt>
      <trkpt lat="42.60355" lon="1.8682">
        <ele>2091.7</ele>
        <time>2021-08-03T12:07:35.000Z</time>
      </trkpt>
      <trkpt lat="42.60362" lon="1.86811">
        <ele>2093.2</ele>
        <time>2021-08-03T12:07:54.000Z</time>
      </trkpt>
      <trkpt lat="42.6037" lon="1.86816">
        <ele>2097.7</ele>
        <time>2021-08-03T12:08:21.000Z</time>
      </trkpt>
      <trkpt lat="42.60376" lon="1.86826">
        <ele>2100.4</ele>
        <time>2021-08-03T12:08:47.000Z</time>
      </trkpt>
      <trkpt lat="42.60384" lon="1.86832">
        <ele>2104.2</ele>
        <time>2021-08-03T12:09:19.000Z</time>
      </trkpt>
      <trkpt lat="42.60385" lon="1.86832">
        <ele>2104.2</ele>
        <time>2021-08-03T12:09:23.000Z</time>
      </trkpt>
      <trkpt lat="42.60385" lon="1.86831">
        <ele>2103.9</ele>
        <time>2021-08-03T12:09:28.000Z</time>
      </trkpt>
      <trkpt lat="42.60391" lon="1.86837">
        <ele>2107.6</ele>
        <time>2021-08-03T12:09:52.000Z</time>
      </trkpt>
      <trkpt lat="42.60391" lon="1.86837">
        <ele>2107.4</ele>
        <time>2021-08-03T12:10:01.000Z</time>
      </trkpt>
      <trkpt lat="42.60391" lon="1.86836">
        <ele>2107.8</ele>
        <time>2021-08-03T12:10:05.000Z</time>
      </trkpt>
      <trkpt lat="42.60391" lon="1.86836">
        <ele>2108</ele>
        <time>2021-08-03T12:10:06.000Z</time>
      </trkpt>
      <trkpt lat="42.60391" lon="1.86835">
        <ele>2108.1</ele>
        <time>2021-08-03T12:10:08.000Z</time>
      </trkpt>
      <trkpt lat="42.60391" lon="1.86835">
        <ele>2108.5</ele>
        <time>2021-08-03T12:10:10.000Z</time>
      </trkpt>
      <trkpt lat="42.60391" lon="1.86835">
        <ele>2108.5</ele>
        <time>2021-08-03T12:10:11.000Z</time>
      </trkpt>
      <trkpt lat="42.60392" lon="1.86835">
        <ele>2108.3</ele>
        <time>2021-08-03T12:10:12.000Z</time>
      </trkpt>
      <trkpt lat="42.60392" lon="1.86835">
        <ele>2108.3</ele>
        <time>2021-08-03T12:10:13.000Z</time>
      </trkpt>
      <trkpt lat="42.60391" lon="1.86836">
        <ele>2109.3</ele>
        <time>2021-08-03T12:10:24.000Z</time>
      </trkpt>
      <trkpt lat="42.60391" lon="1.86836">
        <ele>2109.2</ele>
        <time>2021-08-03T12:10:25.000Z</time>
      </trkpt>
      <trkpt lat="42.60392" lon="1.86836">
        <ele>2109.3</ele>
        <time>2021-08-03T12:10:30.000Z</time>
      </trkpt>
      <trkpt lat="42.60391" lon="1.8684">
        <ele>2110.3</ele>
        <time>2021-08-03T12:10:39.000Z</time>
      </trkpt>
      <trkpt lat="42.60391" lon="1.8684">
        <ele>2110.5</ele>
        <time>2021-08-03T12:10:40.000Z</time>
      </trkpt>
      <trkpt lat="42.60388" lon="1.8684">
        <ele>2110.2</ele>
        <time>2021-08-03T12:10:47.000Z</time>
      </trkpt>
      <trkpt lat="42.60388" lon="1.86839">
        <ele>2110</ele>
        <time>2021-08-03T12:10:52.000Z</time>
      </trkpt>
      <trkpt lat="42.60389" lon="1.86839">
        <ele>2109</ele>
        <time>2021-08-03T12:10:55.000Z</time>
      </trkpt>
      <trkpt lat="42.60389" lon="1.86838">
        <ele>2108.8</ele>
        <time>2021-08-03T12:11:00.000Z</time>
      </trkpt>
      <trkpt lat="42.60389" lon="1.86838">
        <ele>2108.8</ele>
        <time>2021-08-03T12:11:01.000Z</time>
      </trkpt>
      <trkpt lat="42.60389" lon="1.86839">
        <ele>2108.7</ele>
        <time>2021-08-03T12:11:18.000Z</time>
      </trkpt>
      <trkpt lat="42.60386" lon="1.86846">
        <ele>2108.2</ele>
        <time>2021-08-03T12:11:33.000Z</time>
      </trkpt>
      <trkpt lat="42.60386" lon="1.86846">
        <ele>2107</ele>
        <time>2021-08-03T12:12:46.000Z</time>
      </trkpt>
      <trkpt lat="42.60386" lon="1.86846">
        <ele>2107</ele>
        <time>2021-08-03T12:12:47.000Z</time>
      </trkpt>
      <trkpt lat="42.60386" lon="1.86847">
        <ele>2105.8</ele>
        <time>2021-08-03T12:17:40.000Z</time>
      </trkpt>
      <trkpt lat="42.60386" lon="1.86847">
        <ele>2105.7</ele>
        <time>2021-08-03T12:17:41.000Z</time>
      </trkpt>
      <trkpt lat="42.60386" lon="1.86847">
        <ele>2105.5</ele>
        <time>2021-08-03T12:22:34.000Z</time>
      </trkpt>
      <trkpt lat="42.60385" lon="1.86847">
        <ele>2102.9</ele>
        <time>2021-08-03T12:22:39.000Z</time>
      </trkpt>
      <trkpt lat="42.60385" lon="1.86847">
        <ele>2103.8</ele>
        <time>2021-08-03T12:22:41.000Z</time>
      </trkpt>
      <trkpt lat="42.60385" lon="1.86847">
        <ele>2104</ele>
        <time>2021-08-03T12:22:42.000Z</time>
      </trkpt>
      <trkpt lat="42.60385" lon="1.86847">
        <ele>2104.6</ele>
        <time>2021-08-03T12:22:48.000Z</time>
      </trkpt>
      <trkpt lat="42.60385" lon="1.86847">
        <ele>2105.5</ele>
        <time>2021-08-03T12:22:50.000Z</time>
      </trkpt>
      <trkpt lat="42.60386" lon="1.86847">
        <ele>2104.8</ele>
        <time>2021-08-03T12:22:51.000Z</time>
      </trkpt>
      <trkpt lat="42.60385" lon="1.86847">
        <ele>2104.3</ele>
        <time>2021-08-03T12:22:53.000Z</time>
      </trkpt>
      <trkpt lat="42.60386" lon="1.86848">
        <ele>2103.8</ele>
        <time>2021-08-03T12:23:18.000Z</time>
      </trkpt>
      <trkpt lat="42.60386" lon="1.86848">
        <ele>2103.5</ele>
        <time>2021-08-03T12:23:19.000Z</time>
      </trkpt>
      <trkpt lat="42.60386" lon="1.86848">
        <ele>2104.6</ele>
        <time>2021-08-03T12:23:39.000Z</time>
      </trkpt>
      <trkpt lat="42.60386" lon="1.86848">
        <ele>2104.6</ele>
        <time>2021-08-03T12:23:39.000Z</time>
      </trkpt>
      <trkpt lat="42.60377" lon="1.86843">
        <ele>2387.1</ele>
        <time>2021-08-04T05:58:53.000Z</time>
      </trkpt>
      <trkpt lat="42.60379" lon="1.86843">
        <ele>2387.2</ele>
        <time>2021-08-04T05:58:58.000Z</time>
      </trkpt>
      <trkpt lat="42.60379" lon="1.86843">
        <ele>2387</ele>
        <time>2021-08-04T05:59:05.000Z</time>
      </trkpt>
      <trkpt lat="42.6038" lon="1.86843">
        <ele>2387</ele>
        <time>2021-08-04T05:59:08.000Z</time>
      </trkpt>
      <trkpt lat="42.6038" lon="1.86843">
        <ele>2387</ele>
        <time>2021-08-04T05:59:17.000Z</time>
      </trkpt>
      <trkpt lat="42.60387" lon="1.86834">
        <ele>2387</ele>
        <time>2021-08-04T05:59:28.000Z</time>
      </trkpt>
      <trkpt lat="42.6039" lon="1.86832">
        <ele>2387.1</ele>
        <time>2021-08-04T05:59:34.000Z</time>
      </trkpt>
      <trkpt lat="42.6039" lon="1.86832">
        <ele>2386.7</ele>
        <time>2021-08-04T05:59:38.000Z</time>
      </trkpt>
      <trkpt lat="42.6039" lon="1.86832">
        <ele>2386.7</ele>
        <time>2021-08-04T05:59:40.000Z</time>
      </trkpt>
      <trkpt lat="42.60391" lon="1.86832">
        <ele>2386.6</ele>
        <time>2021-08-04T05:59:46.000Z</time>
      </trkpt>
      <trkpt lat="42.60394" lon="1.86832">
        <ele>2386.5</ele>
        <time>2021-08-04T05:59:55.000Z</time>
      </trkpt>
      <trkpt lat="42.60394" lon="1.86833">
        <ele>2386.4</ele>
        <time>2021-08-04T05:59:56.000Z</time>
      </trkpt>
      <trkpt lat="42.60394" lon="1.86833">
        <ele>2386.3</ele>
        <time>2021-08-04T05:59:57.000Z</time>
      </trkpt>
      <trkpt lat="42.60394" lon="1.86833">
        <ele>2386.3</ele>
        <time>2021-08-04T05:59:58.000Z</time>
      </trkpt>
      <trkpt lat="42.60385" lon="1.8683">
        <ele>2385.8</ele>
        <time>2021-08-04T06:00:18.000Z</time>
      </trkpt>
      <trkpt lat="42.60385" lon="1.8683">
        <ele>2385.8</ele>
        <time>2021-08-04T06:00:21.000Z</time>
      </trkpt>
      <trkpt lat="42.60384" lon="1.8683">
        <ele>2385.5</ele>
        <time>2021-08-04T06:00:23.000Z</time>
      </trkpt>
      <trkpt lat="42.60375" lon="1.86827">
        <ele>2382.1</ele>
        <time>2021-08-04T06:00:59.000Z</time>
      </trkpt>
      <trkpt lat="42.60369" lon="1.86818">
        <ele>2379.4</ele>
        <time>2021-08-04T06:01:21.000Z</time>
      </trkpt>
      <trkpt lat="42.60362" lon="1.8681">
        <ele>2375.8</ele>
        <time>2021-08-04T06:01:41.000Z</time>
      </trkpt>
      <trkpt lat="42.60355" lon="1.86819">
        <ele>2372.4</ele>
        <time>2021-08-04T06:02:04.000Z</time>
      </trkpt>
      <trkpt lat="42.60347" lon="1.86814">
        <ele>2369.3</ele>
        <time>2021-08-04T06:02:23.000Z</time>
      </trkpt>
      <trkpt lat="42.60344" lon="1.86801">
        <ele>2367.4</ele>
        <time>2021-08-04T06:02:38.000Z</time>
      </trkpt>
      <trkpt lat="42.60339" lon="1.86791">
        <ele>2365.2</ele>
        <time>2021-08-04T06:02:53.000Z</time>
      </trkpt>
      <trkpt lat="42.60338" lon="1.86778">
        <ele>2362.6</ele>
        <time>2021-08-04T06:03:08.000Z</time>
      </trkpt>
      <trkpt lat="42.60333" lon="1.86768">
        <ele>2359.3</ele>
        <time>2021-08-04T06:03:29.000Z</time>
      </trkpt>
      <trkpt lat="42.60326" lon="1.86761">
        <ele>2356.6</ele>
        <time>2021-08-04T06:03:45.000Z</time>
      </trkpt>
      <trkpt lat="42.60323" lon="1.86749">
        <ele>2355.1</ele>
        <time>2021-08-04T06:03:54.000Z</time>
      </trkpt>
      <trkpt lat="42.60323" lon="1.86737">
        <ele>2353.8</ele>
        <time>2021-08-04T06:04:02.000Z</time>
      </trkpt>
      <trkpt lat="42.60325" lon="1.86724">
        <ele>2352.2</ele>
        <time>2021-08-04T06:04:12.000Z</time>
      </trkpt>
      <trkpt lat="42.60329" lon="1.86712">
        <ele>2350.4</ele>
        <time>2021-08-04T06:04:27.000Z</time>
      </trkpt>
      <trkpt lat="42.60333" lon="1.86702">
        <ele>2348.1</ele>
        <time>2021-08-04T06:04:42.000Z</time>
      </trkpt>
      <trkpt lat="42.60334" lon="1.86698">
        <ele>2347.3</ele>
        <time>2021-08-04T06:04:49.000Z</time>
      </trkpt>
      <trkpt lat="42.60334" lon="1.86698">
        <ele>2347.1</ele>
        <time>2021-08-04T06:04:52.000Z</time>
      </trkpt>
      <trkpt lat="42.60335" lon="1.86694">
        <ele>2346.3</ele>
        <time>2021-08-04T06:04:57.000Z</time>
      </trkpt>
      <trkpt lat="42.60335" lon="1.86694">
        <ele>2345</ele>
        <time>2021-08-04T06:05:08.000Z</time>
      </trkpt>
      <trkpt lat="42.60338" lon="1.86682">
        <ele>2342.6</ele>
        <time>2021-08-04T06:05:28.000Z</time>
      </trkpt>
      <trkpt lat="42.60337" lon="1.8667">
        <ele>2339.2</ele>
        <time>2021-08-04T06:05:50.000Z</time>
      </trkpt>
      <trkpt lat="42.60338" lon="1.86662">
        <ele>2337.3</ele>
        <time>2021-08-04T06:06:04.000Z</time>
      </trkpt>
      <trkpt lat="42.60338" lon="1.86662">
        <ele>2337.2</ele>
        <time>2021-08-04T06:06:05.000Z</time>
      </trkpt>
      <trkpt lat="42.60338" lon="1.86662">
        <ele>2336.4</ele>
        <time>2021-08-04T06:06:08.000Z</time>
      </trkpt>
      <trkpt lat="42.60338" lon="1.86661">
        <ele>2335.8</ele>
        <time>2021-08-04T06:06:11.000Z</time>
      </trkpt>
      <trkpt lat="42.60338" lon="1.86648">
        <ele>2333.3</ele>
        <time>2021-08-04T06:06:30.000Z</time>
      </trkpt>
      <trkpt lat="42.60346" lon="1.86642">
        <ele>2331.9</ele>
        <time>2021-08-04T06:06:40.000Z</time>
      </trkpt>
      <trkpt lat="42.60339" lon="1.86634">
        <ele>2329.4</ele>
        <time>2021-08-04T06:06:56.000Z</time>
      </trkpt>
      <trkpt lat="42.60341" lon="1.86621">
        <ele>2326.3</ele>
        <time>2021-08-04T06:07:10.000Z</time>
      </trkpt>
      <trkpt lat="42.60342" lon="1.8661">
        <ele>2322.3</ele>
        <time>2021-08-04T06:07:33.000Z</time>
      </trkpt>
      <trkpt lat="42.60342" lon="1.86609">
        <ele>2322.2</ele>
        <time>2021-08-04T06:07:34.000Z</time>
      </trkpt>
      <trkpt lat="42.6034" lon="1.866">
        <ele>2318.7</ele>
        <time>2021-08-04T06:07:57.000Z</time>
      </trkpt>
      <trkpt lat="42.6034" lon="1.866">
        <ele>2318.6</ele>
        <time>2021-08-04T06:07:58.000Z</time>
      </trkpt>
      <trkpt lat="42.60337" lon="1.86587">
        <ele>2315.7</ele>
        <time>2021-08-04T06:08:14.000Z</time>
      </trkpt>
      <trkpt lat="42.60329" lon="1.8658">
        <ele>2312.7</ele>
        <time>2021-08-04T06:08:31.000Z</time>
      </trkpt>
      <trkpt lat="42.60325" lon="1.86569">
        <ele>2310.9</ele>
        <time>2021-08-04T06:08:45.000Z</time>
      </trkpt>
      <trkpt lat="42.6032" lon="1.86558">
        <ele>2308.9</ele>
        <time>2021-08-04T06:08:59.000Z</time>
      </trkpt>
      <trkpt lat="42.60314" lon="1.86548">
        <ele>2307</ele>
        <time>2021-08-04T06:09:10.000Z</time>
      </trkpt>
      <trkpt lat="42.60307" lon="1.8654">
        <ele>2305</ele>
        <time>2021-08-04T06:09:23.000Z</time>
      </trkpt>
      <trkpt lat="42.60301" lon="1.8653">
        <ele>2302.7</ele>
        <time>2021-08-04T06:09:36.000Z</time>
      </trkpt>
      <trkpt lat="42.60297" lon="1.86518">
        <ele>2300.7</ele>
        <time>2021-08-04T06:09:49.000Z</time>
      </trkpt>
      <trkpt lat="42.60294" lon="1.86506">
        <ele>2298.3</ele>
        <time>2021-08-04T06:10:02.000Z</time>
      </trkpt>
      <trkpt lat="42.60298" lon="1.86495">
        <ele>2295.2</ele>
        <time>2021-08-04T06:10:18.000Z</time>
      </trkpt>
      <trkpt lat="42.603" lon="1.86494">
        <ele>2294.6</ele>
        <time>2021-08-04T06:10:24.000Z</time>
      </trkpt>
      <trkpt lat="42.603" lon="1.86494">
        <ele>2291.1</ele>
        <time>2021-08-04T06:10:26.000Z</time>
      </trkpt>
      <trkpt lat="42.60301" lon="1.86494">
        <ele>2292.4</ele>
        <time>2021-08-04T06:10:31.000Z</time>
      </trkpt>
      <trkpt lat="42.60301" lon="1.86493">
        <ele>2292.3</ele>
        <time>2021-08-04T06:10:38.000Z</time>
      </trkpt>
      <trkpt lat="42.60301" lon="1.86493">
        <ele>2291.9</ele>
        <time>2021-08-04T06:10:41.000Z</time>
      </trkpt>
      <trkpt lat="42.60301" lon="1.86493">
        <ele>2292.1</ele>
        <time>2021-08-04T06:10:42.000Z</time>
      </trkpt>
      <trkpt lat="42.60301" lon="1.86493">
        <ele>2292.2</ele>
        <time>2021-08-04T06:10:43.000Z</time>
      </trkpt>
      <trkpt lat="42.60301" lon="1.86493">
        <ele>2289.9</ele>
        <time>2021-08-04T06:11:18.000Z</time>
      </trkpt>
      <trkpt lat="42.60301" lon="1.86493">
        <ele>2289.9</ele>
        <time>2021-08-04T06:11:19.000Z</time>
      </trkpt>
      <trkpt lat="42.60301" lon="1.86493">
        <ele>2289.9</ele>
        <time>2021-08-04T06:11:20.000Z</time>
      </trkpt>
      <trkpt lat="42.60301" lon="1.86493">
        <ele>2289.7</ele>
        <time>2021-08-04T06:11:22.000Z</time>
      </trkpt>
      <trkpt lat="42.60301" lon="1.86494">
        <ele>2288.3</ele>
        <time>2021-08-04T06:11:54.000Z</time>
      </trkpt>
      <trkpt lat="42.60301" lon="1.86494">
        <ele>2288.5</ele>
        <time>2021-08-04T06:11:55.000Z</time>
      </trkpt>
      <trkpt lat="42.60301" lon="1.86494">
        <ele>2287</ele>
        <time>2021-08-04T06:12:26.000Z</time>
      </trkpt>
      <trkpt lat="42.60296" lon="1.86483">
        <ele>2286.1</ele>
        <time>2021-08-04T06:12:42.000Z</time>
      </trkpt>
      <trkpt lat="42.60295" lon="1.86471">
        <ele>2284.3</ele>
        <time>2021-08-04T06:12:58.000Z</time>
      </trkpt>
      <trkpt lat="42.60287" lon="1.86463">
        <ele>2281.1</ele>
        <time>2021-08-04T06:13:14.000Z</time>
      </trkpt>
      <trkpt lat="42.60279" lon="1.86467">
        <ele>2279.3</ele>
        <time>2021-08-04T06:13:26.000Z</time>
      </trkpt>
      <trkpt lat="42.6027" lon="1.86472">
        <ele>2276.9</ele>
        <time>2021-08-04T06:13:38.000Z</time>
      </trkpt>
      <trkpt lat="42.6026" lon="1.86472">
        <ele>2274.9</ele>
        <time>2021-08-04T06:13:51.000Z</time>
      </trkpt>
      <trkpt lat="42.60254" lon="1.86463">
        <ele>2274</ele>
        <time>2021-08-04T06:13:59.000Z</time>
      </trkpt>
      <trkpt lat="42.60255" lon="1.8645">
        <ele>2272.1</ele>
        <time>2021-08-04T06:14:13.000Z</time>
      </trkpt>
      <trkpt lat="42.60261" lon="1.86439">
        <ele>2270.8</ele>
        <time>2021-08-04T06:14:23.000Z</time>
      </trkpt>
      <trkpt lat="42.60262" lon="1.86427">
        <ele>2269.6</ele>
        <time>2021-08-04T06:14:34.000Z</time>
      </trkpt>
      <trkpt lat="42.60259" lon="1.86415">
        <ele>2268.8</ele>
        <time>2021-08-04T06:14:45.000Z</time>
      </trkpt>
      <trkpt lat="42.60256" lon="1.86402">
        <ele>2267.7</ele>
        <time>2021-08-04T06:14:56.000Z</time>
      </trkpt>
      <trkpt lat="42.60251" lon="1.86391">
        <ele>2267.3</ele>
        <time>2021-08-04T06:15:07.000Z</time>
      </trkpt>
      <trkpt lat="42.60244" lon="1.86382">
        <ele>2267</ele>
        <time>2021-08-04T06:15:15.000Z</time>
      </trkpt>
      <trkpt lat="42.60238" lon="1.86371">
        <ele>2266.5</ele>
        <time>2021-08-04T06:15:24.000Z</time>
      </trkpt>
      <trkpt lat="42.60232" lon="1.86361">
        <ele>2266.8</ele>
        <time>2021-08-04T06:15:33.000Z</time>
      </trkpt>
      <trkpt lat="42.60233" lon="1.86348">
        <ele>2267.2</ele>
        <time>2021-08-04T06:15:44.000Z</time>
      </trkpt>
      <trkpt lat="42.60232" lon="1.86334">
        <ele>2267</ele>
        <time>2021-08-04T06:15:55.000Z</time>
      </trkpt>
      <trkpt lat="42.60231" lon="1.86322">
        <ele>2266.8</ele>
        <time>2021-08-04T06:16:04.000Z</time>
      </trkpt>
      <trkpt lat="42.60225" lon="1.86311">
        <ele>2267</ele>
        <time>2021-08-04T06:16:14.000Z</time>
      </trkpt>
      <trkpt lat="42.60229" lon="1.863">
        <ele>2267.1</ele>
        <time>2021-08-04T06:16:22.000Z</time>
      </trkpt>
      <trkpt lat="42.60231" lon="1.86287">
        <ele>2266.7</ele>
        <time>2021-08-04T06:16:31.000Z</time>
      </trkpt>
      <trkpt lat="42.60233" lon="1.86275">
        <ele>2266.3</ele>
        <time>2021-08-04T06:16:40.000Z</time>
      </trkpt>
      <trkpt lat="42.60226" lon="1.86267">
        <ele>2266.2</ele>
        <time>2021-08-04T06:16:51.000Z</time>
      </trkpt>
      <trkpt lat="42.60219" lon="1.86259">
        <ele>2266.1</ele>
        <time>2021-08-04T06:16:59.000Z</time>
      </trkpt>
      <trkpt lat="42.60214" lon="1.86249">
        <ele>2265.9</ele>
        <time>2021-08-04T06:17:10.000Z</time>
      </trkpt>
      <trkpt lat="42.60211" lon="1.86238">
        <ele>2266</ele>
        <time>2021-08-04T06:17:32.000Z</time>
      </trkpt>
      <trkpt lat="42.60211" lon="1.86238">
        <ele>2265.8</ele>
        <time>2021-08-04T06:17:33.000Z</time>
      </trkpt>
      <trkpt lat="42.60211" lon="1.86238">
        <ele>2265.8</ele>
        <time>2021-08-04T06:17:34.000Z</time>
      </trkpt>
      <trkpt lat="42.60211" lon="1.86238">
        <ele>2266</ele>
        <time>2021-08-04T06:17:35.000Z</time>
      </trkpt>
      <trkpt lat="42.60211" lon="1.86238">
        <ele>2266</ele>
        <time>2021-08-04T06:17:36.000Z</time>
      </trkpt>
      <trkpt lat="42.60211" lon="1.86237">
        <ele>2265.9</ele>
        <time>2021-08-04T06:17:37.000Z</time>
      </trkpt>
      <trkpt lat="42.60215" lon="1.86226">
        <ele>2264.8</ele>
        <time>2021-08-04T06:17:53.000Z</time>
      </trkpt>
      <trkpt lat="42.60215" lon="1.86226">
        <ele>2264.7</ele>
        <time>2021-08-04T06:17:56.000Z</time>
      </trkpt>
      <trkpt lat="42.60215" lon="1.86226">
        <ele>2264.7</ele>
        <time>2021-08-04T06:17:57.000Z</time>
      </trkpt>
      <trkpt lat="42.60215" lon="1.86227">
        <ele>2264.6</ele>
        <time>2021-08-04T06:17:59.000Z</time>
      </trkpt>
      <trkpt lat="42.60215" lon="1.86227">
        <ele>2264.4</ele>
        <time>2021-08-04T06:18:00.000Z</time>
      </trkpt>
      <trkpt lat="42.60215" lon="1.86227">
        <ele>2264.3</ele>
        <time>2021-08-04T06:18:01.000Z</time>
      </trkpt>
      <trkpt lat="42.60215" lon="1.86227">
        <ele>2264.8</ele>
        <time>2021-08-04T06:18:03.000Z</time>
      </trkpt>
      <trkpt lat="42.60215" lon="1.86227">
        <ele>2263.4</ele>
        <time>2021-08-04T06:18:23.000Z</time>
      </trkpt>
      <trkpt lat="42.60214" lon="1.86226">
        <ele>2263.3</ele>
        <time>2021-08-04T06:18:26.000Z</time>
      </trkpt>
      <trkpt lat="42.60214" lon="1.86226">
        <ele>2263.3</ele>
        <time>2021-08-04T06:18:27.000Z</time>
      </trkpt>
      <trkpt lat="42.60214" lon="1.86226">
        <ele>2263.3</ele>
        <time>2021-08-04T06:18:28.000Z</time>
      </trkpt>
      <trkpt lat="42.60214" lon="1.86226">
        <ele>2263</ele>
        <time>2021-08-04T06:18:43.000Z</time>
      </trkpt>
      <trkpt lat="42.60214" lon="1.86226">
        <ele>2263</ele>
        <time>2021-08-04T06:18:44.000Z</time>
      </trkpt>
      <trkpt lat="42.60214" lon="1.86225">
        <ele>2262.2</ele>
        <time>2021-08-04T06:19:03.000Z</time>
      </trkpt>
      <trkpt lat="42.60215" lon="1.86212">
        <ele>2261.9</ele>
        <time>2021-08-04T06:19:15.000Z</time>
      </trkpt>
      <trkpt lat="42.60212" lon="1.862">
        <ele>2261</ele>
        <time>2021-08-04T06:19:26.000Z</time>
      </trkpt>
      <trkpt lat="42.60209" lon="1.86188">
        <ele>2260</ele>
        <time>2021-08-04T06:19:37.000Z</time>
      </trkpt>
      <trkpt lat="42.60207" lon="1.86176">
        <ele>2259.4</ele>
        <time>2021-08-04T06:19:47.000Z</time>
      </trkpt>
      <trkpt lat="42.60206" lon="1.86163">
        <ele>2258.9</ele>
        <time>2021-08-04T06:19:57.000Z</time>
      </trkpt>
      <trkpt lat="42.60206" lon="1.86149">
        <ele>2258.5</ele>
        <time>2021-08-04T06:20:08.000Z</time>
      </trkpt>
      <trkpt lat="42.60206" lon="1.86137">
        <ele>2258.5</ele>
        <time>2021-08-04T06:20:17.000Z</time>
      </trkpt>
      <trkpt lat="42.60206" lon="1.86123">
        <ele>2258</ele>
        <time>2021-08-04T06:20:27.000Z</time>
      </trkpt>
      <trkpt lat="42.60205" lon="1.8611">
        <ele>2258.3</ele>
        <time>2021-08-04T06:20:37.000Z</time>
      </trkpt>
      <trkpt lat="42.60208" lon="1.86098">
        <ele>2258.4</ele>
        <time>2021-08-04T06:20:46.000Z</time>
      </trkpt>
      <trkpt lat="42.6021" lon="1.86085">
        <ele>2258.7</ele>
        <time>2021-08-04T06:20:55.000Z</time>
      </trkpt>
      <trkpt lat="42.6021" lon="1.86073">
        <ele>2258.6</ele>
        <time>2021-08-04T06:21:04.000Z</time>
      </trkpt>
      <trkpt lat="42.60204" lon="1.86064">
        <ele>2259.2</ele>
        <time>2021-08-04T06:21:13.000Z</time>
      </trkpt>
      <trkpt lat="42.60199" lon="1.86053">
        <ele>2259.2</ele>
        <time>2021-08-04T06:21:21.000Z</time>
      </trkpt>
      <trkpt lat="42.60198" lon="1.8604">
        <ele>2259</ele>
        <time>2021-08-04T06:21:29.000Z</time>
      </trkpt>
      <trkpt lat="42.60194" lon="1.86029">
        <ele>2259.2</ele>
        <time>2021-08-04T06:21:39.000Z</time>
      </trkpt>
      <trkpt lat="42.60191" lon="1.86017">
        <ele>2258.9</ele>
        <time>2021-08-04T06:21:50.000Z</time>
      </trkpt>
      <trkpt lat="42.60187" lon="1.86005">
        <ele>2258.6</ele>
        <time>2021-08-04T06:22:05.000Z</time>
      </trkpt>
      <trkpt lat="42.6018" lon="1.85998">
        <ele>2258.8</ele>
        <time>2021-08-04T06:22:19.000Z</time>
      </trkpt>
      <trkpt lat="42.60175" lon="1.85987">
        <ele>2258.8</ele>
        <time>2021-08-04T06:22:32.000Z</time>
      </trkpt>
      <trkpt lat="42.60168" lon="1.85979">
        <ele>2259.5</ele>
        <time>2021-08-04T06:22:47.000Z</time>
      </trkpt>
      <trkpt lat="42.60169" lon="1.85966">
        <ele>2259.7</ele>
        <time>2021-08-04T06:22:57.000Z</time>
      </trkpt>
      <trkpt lat="42.60164" lon="1.85955">
        <ele>2259.8</ele>
        <time>2021-08-04T06:23:16.000Z</time>
      </trkpt>
      <trkpt lat="42.60164" lon="1.85952">
        <ele>2259.8</ele>
        <time>2021-08-04T06:23:21.000Z</time>
      </trkpt>
      <trkpt lat="42.60164" lon="1.85952">
        <ele>2259.7</ele>
        <time>2021-08-04T06:23:28.000Z</time>
      </trkpt>
      <trkpt lat="42.60164" lon="1.85952">
        <ele>2259.8</ele>
        <time>2021-08-04T06:23:29.000Z</time>
      </trkpt>
      <trkpt lat="42.60165" lon="1.85952">
        <ele>2259.8</ele>
        <time>2021-08-04T06:23:59.000Z</time>
      </trkpt>
      <trkpt lat="42.60165" lon="1.85952">
        <ele>2259.7</ele>
        <time>2021-08-04T06:24:01.000Z</time>
      </trkpt>
      <trkpt lat="42.60165" lon="1.85952">
        <ele>2259.6</ele>
        <time>2021-08-04T06:24:11.000Z</time>
      </trkpt>
      <trkpt lat="42.60165" lon="1.85952">
        <ele>2259.4</ele>
        <time>2021-08-04T06:24:12.000Z</time>
      </trkpt>
      <trkpt lat="42.60165" lon="1.85951">
        <ele>2259</ele>
        <time>2021-08-04T06:24:39.000Z</time>
      </trkpt>
      <trkpt lat="42.60165" lon="1.85951">
        <ele>2259</ele>
        <time>2021-08-04T06:24:40.000Z</time>
      </trkpt>
      <trkpt lat="42.60165" lon="1.85951">
        <ele>2258.7</ele>
        <time>2021-08-04T06:24:46.000Z</time>
      </trkpt>
      <trkpt lat="42.60165" lon="1.85951">
        <ele>2258.9</ele>
        <time>2021-08-04T06:24:47.000Z</time>
      </trkpt>
      <trkpt lat="42.60165" lon="1.85951">
        <ele>2258.8</ele>
        <time>2021-08-04T06:24:48.000Z</time>
      </trkpt>
      <trkpt lat="42.60165" lon="1.85947">
        <ele>2258.9</ele>
        <time>2021-08-04T06:24:56.000Z</time>
      </trkpt>
      <trkpt lat="42.60166" lon="1.85947">
        <ele>2258.9</ele>
        <time>2021-08-04T06:24:58.000Z</time>
      </trkpt>
      <trkpt lat="42.60166" lon="1.85947">
        <ele>2258.8</ele>
        <time>2021-08-04T06:24:59.000Z</time>
      </trkpt>
      <trkpt lat="42.60166" lon="1.85947">
        <ele>2258</ele>
        <time>2021-08-04T06:25:18.000Z</time>
      </trkpt>
      <trkpt lat="42.60158" lon="1.85952">
        <ele>2258.6</ele>
        <time>2021-08-04T06:25:33.000Z</time>
      </trkpt>
      <trkpt lat="42.60148" lon="1.85953">
        <ele>2260.3</ele>
        <time>2021-08-04T06:25:52.000Z</time>
      </trkpt>
      <trkpt lat="42.60139" lon="1.8595">
        <ele>2261.4</ele>
        <time>2021-08-04T06:26:05.000Z</time>
      </trkpt>
      <trkpt lat="42.6013" lon="1.85946">
        <ele>2263.1</ele>
        <time>2021-08-04T06:26:18.000Z</time>
      </trkpt>
      <trkpt lat="42.60126" lon="1.85935">
        <ele>2264.2</ele>
        <time>2021-08-04T06:26:33.000Z</time>
      </trkpt>
      <trkpt lat="42.60123" lon="1.85923">
        <ele>2265.7</ele>
        <time>2021-08-04T06:26:46.000Z</time>
      </trkpt>
      <trkpt lat="42.60118" lon="1.85913">
        <ele>2266.7</ele>
        <time>2021-08-04T06:26:57.000Z</time>
      </trkpt>
      <trkpt lat="42.60112" lon="1.85903">
        <ele>2267.7</ele>
        <time>2021-08-04T06:27:09.000Z</time>
      </trkpt>
      <trkpt lat="42.60104" lon="1.85896">
        <ele>2268.1</ele>
        <time>2021-08-04T06:27:19.000Z</time>
      </trkpt>
      <trkpt lat="42.60097" lon="1.85888">
        <ele>2269.2</ele>
        <time>2021-08-04T06:27:28.000Z</time>
      </trkpt>
      <trkpt lat="42.6009" lon="1.8588">
        <ele>2269.1</ele>
        <time>2021-08-04T06:27:38.000Z</time>
      </trkpt>
      <trkpt lat="42.60082" lon="1.85873">
        <ele>2269.6</ele>
        <time>2021-08-04T06:27:51.000Z</time>
      </trkpt>
      <trkpt lat="42.60072" lon="1.85876">
        <ele>2269.3</ele>
        <time>2021-08-04T06:28:01.000Z</time>
      </trkpt>
      <trkpt lat="42.60064" lon="1.85871">
        <ele>2269.1</ele>
        <time>2021-08-04T06:28:10.000Z</time>
      </trkpt>
      <trkpt lat="42.60062" lon="1.85859">
        <ele>2268.9</ele>
        <time>2021-08-04T06:28:19.000Z</time>
      </trkpt>
      <trkpt lat="42.60061" lon="1.85846">
        <ele>2269.2</ele>
        <time>2021-08-04T06:28:29.000Z</time>
      </trkpt>
      <trkpt lat="42.6006" lon="1.85833">
        <ele>2268.9</ele>
        <time>2021-08-04T06:28:40.000Z</time>
      </trkpt>
      <trkpt lat="42.60057" lon="1.85821">
        <ele>2268.7</ele>
        <time>2021-08-04T06:28:52.000Z</time>
      </trkpt>
      <trkpt lat="42.60057" lon="1.85807">
        <ele>2267.7</ele>
        <time>2021-08-04T06:29:03.000Z</time>
      </trkpt>
      <trkpt lat="42.60058" lon="1.85794">
        <ele>2265.9</ele>
        <time>2021-08-04T06:29:15.000Z</time>
      </trkpt>
      <trkpt lat="42.60054" lon="1.85783">
        <ele>2263.6</ele>
        <time>2021-08-04T06:29:29.000Z</time>
      </trkpt>
      <trkpt lat="42.60052" lon="1.85771">
        <ele>2261.6</ele>
        <time>2021-08-04T06:29:41.000Z</time>
      </trkpt>
      <trkpt lat="42.60045" lon="1.85762">
        <ele>2259.6</ele>
        <time>2021-08-04T06:29:52.000Z</time>
      </trkpt>
      <trkpt lat="42.60037" lon="1.85756">
        <ele>2258.2</ele>
        <time>2021-08-04T06:30:01.000Z</time>
      </trkpt>
      <trkpt lat="42.60032" lon="1.85746">
        <ele>2256.7</ele>
        <time>2021-08-04T06:30:17.000Z</time>
      </trkpt>
      <trkpt lat="42.60025" lon="1.85738">
        <ele>2256.2</ele>
        <time>2021-08-04T06:30:27.000Z</time>
      </trkpt>
      <trkpt lat="42.60023" lon="1.85725">
        <ele>2255.1</ele>
        <time>2021-08-04T06:30:37.000Z</time>
      </trkpt>
      <trkpt lat="42.6002" lon="1.85713">
        <ele>2254.3</ele>
        <time>2021-08-04T06:30:47.000Z</time>
      </trkpt>
      <trkpt lat="42.60019" lon="1.85701">
        <ele>2253.2</ele>
        <time>2021-08-04T06:30:58.000Z</time>
      </trkpt>
      <trkpt lat="42.60014" lon="1.85689">
        <ele>2252.1</ele>
        <time>2021-08-04T06:31:09.000Z</time>
      </trkpt>
      <trkpt lat="42.60008" lon="1.8568">
        <ele>2250.8</ele>
        <time>2021-08-04T06:31:20.000Z</time>
      </trkpt>
      <trkpt lat="42.60004" lon="1.85669">
        <ele>2249.2</ele>
        <time>2021-08-04T06:31:30.000Z</time>
      </trkpt>
      <trkpt lat="42.60001" lon="1.85657">
        <ele>2246.7</ele>
        <time>2021-08-04T06:31:43.000Z</time>
      </trkpt>
      <trkpt lat="42.59998" lon="1.85653">
        <ele>2245.4</ele>
        <time>2021-08-04T06:31:51.000Z</time>
      </trkpt>
      <trkpt lat="42.59998" lon="1.85652">
        <ele>2244.4</ele>
        <time>2021-08-04T06:32:02.000Z</time>
      </trkpt>
      <trkpt lat="42.59995" lon="1.85641">
        <ele>2242.9</ele>
        <time>2021-08-04T06:32:16.000Z</time>
      </trkpt>
      <trkpt lat="42.59988" lon="1.85633">
        <ele>2241.7</ele>
        <time>2021-08-04T06:32:25.000Z</time>
      </trkpt>
      <trkpt lat="42.59983" lon="1.85622">
        <ele>2240.7</ele>
        <time>2021-08-04T06:32:34.000Z</time>
      </trkpt>
      <trkpt lat="42.59976" lon="1.85613">
        <ele>2239.7</ele>
        <time>2021-08-04T06:32:44.000Z</time>
      </trkpt>
      <trkpt lat="42.59975" lon="1.85608">
        <ele>2238.7</ele>
        <time>2021-08-04T06:32:51.000Z</time>
      </trkpt>
      <trkpt lat="42.59975" lon="1.85608">
        <ele>2238.5</ele>
        <time>2021-08-04T06:32:54.000Z</time>
      </trkpt>
      <trkpt lat="42.59975" lon="1.85608">
        <ele>2238.5</ele>
        <time>2021-08-04T06:32:55.000Z</time>
      </trkpt>
      <trkpt lat="42.59975" lon="1.85607">
        <ele>2237.9</ele>
        <time>2021-08-04T06:32:59.000Z</time>
      </trkpt>
      <trkpt lat="42.59969" lon="1.85599">
        <ele>2237</ele>
        <time>2021-08-04T06:33:08.000Z</time>
      </trkpt>
      <trkpt lat="42.59962" lon="1.85589">
        <ele>2236.1</ele>
        <time>2021-08-04T06:33:17.000Z</time>
      </trkpt>
      <trkpt lat="42.59958" lon="1.85578">
        <ele>2235.2</ele>
        <time>2021-08-04T06:33:27.000Z</time>
      </trkpt>
      <trkpt lat="42.59956" lon="1.85565">
        <ele>2234.4</ele>
        <time>2021-08-04T06:33:37.000Z</time>
      </trkpt>
      <trkpt lat="42.59954" lon="1.85552">
        <ele>2233.7</ele>
        <time>2021-08-04T06:33:47.000Z</time>
      </trkpt>
      <trkpt lat="42.59949" lon="1.85542">
        <ele>2232.8</ele>
        <time>2021-08-04T06:33:57.000Z</time>
      </trkpt>
      <trkpt lat="42.59945" lon="1.8553">
        <ele>2232.3</ele>
        <time>2021-08-04T06:34:09.000Z</time>
      </trkpt>
      <trkpt lat="42.59942" lon="1.85518">
        <ele>2230.7</ele>
        <time>2021-08-04T06:34:25.000Z</time>
      </trkpt>
      <trkpt lat="42.5994" lon="1.85506">
        <ele>2229.3</ele>
        <time>2021-08-04T06:34:36.000Z</time>
      </trkpt>
      <trkpt lat="42.59943" lon="1.85494">
        <ele>2228</ele>
        <time>2021-08-04T06:34:47.000Z</time>
      </trkpt>
      <trkpt lat="42.59948" lon="1.85483">
        <ele>2226.8</ele>
        <time>2021-08-04T06:34:56.000Z</time>
      </trkpt>
      <trkpt lat="42.59948" lon="1.8547">
        <ele>2225.8</ele>
        <time>2021-08-04T06:35:06.000Z</time>
      </trkpt>
      <trkpt lat="42.59946" lon="1.85457">
        <ele>2224.5</ele>
        <time>2021-08-04T06:35:15.000Z</time>
      </trkpt>
      <trkpt lat="42.59945" lon="1.85445">
        <ele>2224.1</ele>
        <time>2021-08-04T06:35:23.000Z</time>
      </trkpt>
      <trkpt lat="42.59944" lon="1.85432">
        <ele>2223.1</ele>
        <time>2021-08-04T06:35:34.000Z</time>
      </trkpt>
      <trkpt lat="42.59944" lon="1.8542">
        <ele>2222.3</ele>
        <time>2021-08-04T06:35:44.000Z</time>
      </trkpt>
      <trkpt lat="42.59942" lon="1.85407">
        <ele>2221.6</ele>
        <time>2021-08-04T06:35:57.000Z</time>
      </trkpt>
      <trkpt lat="42.59946" lon="1.85395">
        <ele>2220.7</ele>
        <time>2021-08-04T06:36:09.000Z</time>
      </trkpt>
      <trkpt lat="42.59948" lon="1.85383">
        <ele>2219.8</ele>
        <time>2021-08-04T06:36:20.000Z</time>
      </trkpt>
      <trkpt lat="42.59951" lon="1.8537">
        <ele>2218.8</ele>
        <time>2021-08-04T06:36:34.000Z</time>
      </trkpt>
      <trkpt lat="42.59954" lon="1.85357">
        <ele>2218.3</ele>
        <time>2021-08-04T06:36:45.000Z</time>
      </trkpt>
      <trkpt lat="42.59953" lon="1.85344">
        <ele>2217.6</ele>
        <time>2021-08-04T06:36:57.000Z</time>
      </trkpt>
      <trkpt lat="42.59953" lon="1.85336">
        <ele>2217.3</ele>
        <time>2021-08-04T06:37:09.000Z</time>
      </trkpt>
      <trkpt lat="42.59953" lon="1.85335">
        <ele>2216.6</ele>
        <time>2021-08-04T06:37:14.000Z</time>
      </trkpt>
      <trkpt lat="42.59954" lon="1.85325">
        <ele>2216.1</ele>
        <time>2021-08-04T06:37:27.000Z</time>
      </trkpt>
      <trkpt lat="42.59953" lon="1.85324">
        <ele>2215.9</ele>
        <time>2021-08-04T06:37:31.000Z</time>
      </trkpt>
      <trkpt lat="42.59951" lon="1.85313">
        <ele>2215.5</ele>
        <time>2021-08-04T06:37:46.000Z</time>
      </trkpt>
      <trkpt lat="42.59953" lon="1.853">
        <ele>2215.5</ele>
        <time>2021-08-04T06:37:56.000Z</time>
      </trkpt>
      <trkpt lat="42.59954" lon="1.85288">
        <ele>2215.3</ele>
        <time>2021-08-04T06:38:08.000Z</time>
      </trkpt>
      <trkpt lat="42.59956" lon="1.85276">
        <ele>2215.1</ele>
        <time>2021-08-04T06:38:21.000Z</time>
      </trkpt>
      <trkpt lat="42.59956" lon="1.85263">
        <ele>2214.5</ele>
        <time>2021-08-04T06:38:32.000Z</time>
      </trkpt>
      <trkpt lat="42.5996" lon="1.85252">
        <ele>2214.3</ele>
        <time>2021-08-04T06:38:39.000Z</time>
      </trkpt>
      <trkpt lat="42.59961" lon="1.8524">
        <ele>2213.9</ele>
        <time>2021-08-04T06:38:48.000Z</time>
      </trkpt>
      <trkpt lat="42.59962" lon="1.85227">
        <ele>2213.6</ele>
        <time>2021-08-04T06:38:56.000Z</time>
      </trkpt>
      <trkpt lat="42.59967" lon="1.85218">
        <ele>2212.7</ele>
        <time>2021-08-04T06:39:04.000Z</time>
      </trkpt>
      <trkpt lat="42.59972" lon="1.85206">
        <ele>2211.3</ele>
        <time>2021-08-04T06:39:14.000Z</time>
      </trkpt>
      <trkpt lat="42.59977" lon="1.852">
        <ele>2209.6</ele>
        <time>2021-08-04T06:39:26.000Z</time>
      </trkpt>
      <trkpt lat="42.59977" lon="1.852">
        <ele>2209.6</ele>
        <time>2021-08-04T06:39:29.000Z</time>
      </trkpt>
      <trkpt lat="42.59977" lon="1.852">
        <ele>2209.6</ele>
        <time>2021-08-04T06:39:30.000Z</time>
      </trkpt>
      <trkpt lat="42.59978" lon="1.852">
        <ele>2209.5</ele>
        <time>2021-08-04T06:39:31.000Z</time>
      </trkpt>
      <trkpt lat="42.59978" lon="1.852">
        <ele>2209.1</ele>
        <time>2021-08-04T06:39:32.000Z</time>
      </trkpt>
      <trkpt lat="42.59977" lon="1.852">
        <ele>2208.8</ele>
        <time>2021-08-04T06:39:37.000Z</time>
      </trkpt>
      <trkpt lat="42.59977" lon="1.85188">
        <ele>2207.2</ele>
        <time>2021-08-04T06:39:56.000Z</time>
      </trkpt>
      <trkpt lat="42.59983" lon="1.85177">
        <ele>2206</ele>
        <time>2021-08-04T06:40:08.000Z</time>
      </trkpt>
      <trkpt lat="42.59984" lon="1.85172">
        <ele>2205.3</ele>
        <time>2021-08-04T06:40:13.000Z</time>
      </trkpt>
      <trkpt lat="42.59984" lon="1.85171">
        <ele>2204.3</ele>
        <time>2021-08-04T06:40:21.000Z</time>
      </trkpt>
      <trkpt lat="42.59988" lon="1.85172">
        <ele>2203.6</ele>
        <time>2021-08-04T06:40:27.000Z</time>
      </trkpt>
      <trkpt lat="42.59989" lon="1.85172">
        <ele>2203.3</ele>
        <time>2021-08-04T06:40:30.000Z</time>
      </trkpt>
      <trkpt lat="42.59993" lon="1.85184">
        <ele>2202.3</ele>
        <time>2021-08-04T06:40:39.000Z</time>
      </trkpt>
      <trkpt lat="42.59996" lon="1.85196">
        <ele>2201.2</ele>
        <time>2021-08-04T06:40:48.000Z</time>
      </trkpt>
      <trkpt lat="42.59996" lon="1.85202">
        <ele>2200.8</ele>
        <time>2021-08-04T06:40:56.000Z</time>
      </trkpt>
      <trkpt lat="42.59996" lon="1.85201">
        <ele>2198.2</ele>
        <time>2021-08-04T06:41:34.000Z</time>
      </trkpt>
      <trkpt lat="42.59996" lon="1.85201">
        <ele>2198.2</ele>
        <time>2021-08-04T06:41:35.000Z</time>
      </trkpt>
      <trkpt lat="42.59996" lon="1.85201">
        <ele>2196.9</ele>
        <time>2021-08-04T06:41:46.000Z</time>
      </trkpt>
      <trkpt lat="42.59995" lon="1.85198">
        <ele>2196.7</ele>
        <time>2021-08-04T06:41:53.000Z</time>
      </trkpt>
      <trkpt lat="42.59995" lon="1.85198">
        <ele>2195.8</ele>
        <time>2021-08-04T06:42:03.000Z</time>
      </trkpt>
      <trkpt lat="42.59995" lon="1.85198">
        <ele>2195.7</ele>
        <time>2021-08-04T06:42:04.000Z</time>
      </trkpt>
      <trkpt lat="42.59994" lon="1.85198">
        <ele>2194.3</ele>
        <time>2021-08-04T06:42:21.000Z</time>
      </trkpt>
      <trkpt lat="42.59994" lon="1.85198">
        <ele>2194.4</ele>
        <time>2021-08-04T06:42:22.000Z</time>
      </trkpt>
      <trkpt lat="42.59994" lon="1.85198">
        <ele>2192.8</ele>
        <time>2021-08-04T06:42:46.000Z</time>
      </trkpt>
      <trkpt lat="42.59994" lon="1.85198">
        <ele>2192.5</ele>
        <time>2021-08-04T06:42:48.000Z</time>
      </trkpt>
      <trkpt lat="42.59994" lon="1.85198">
        <ele>2191.9</ele>
        <time>2021-08-04T06:42:53.000Z</time>
      </trkpt>
      <trkpt lat="42.59994" lon="1.85198">
        <ele>2191.8</ele>
        <time>2021-08-04T06:42:54.000Z</time>
      </trkpt>
      <trkpt lat="42.59994" lon="1.85197">
        <ele>2189.9</ele>
        <time>2021-08-04T06:43:18.000Z</time>
      </trkpt>
      <trkpt lat="42.59993" lon="1.85192">
        <ele>2189.5</ele>
        <time>2021-08-04T06:43:29.000Z</time>
      </trkpt>
      <trkpt lat="42.59993" lon="1.85192">
        <ele>2189.1</ele>
        <time>2021-08-04T06:43:31.000Z</time>
      </trkpt>
      <trkpt lat="42.59993" lon="1.85192">
        <ele>2188.5</ele>
        <time>2021-08-04T06:43:35.000Z</time>
      </trkpt>
      <trkpt lat="42.59993" lon="1.85191">
        <ele>2185.6</ele>
        <time>2021-08-04T06:44:14.000Z</time>
      </trkpt>
      <trkpt lat="42.59996" lon="1.85194">
        <ele>2185</ele>
        <time>2021-08-04T06:44:21.000Z</time>
      </trkpt>
      <trkpt lat="42.59996" lon="1.85194">
        <ele>2183.1</ele>
        <time>2021-08-04T06:44:48.000Z</time>
      </trkpt>
      <trkpt lat="42.59996" lon="1.85194">
        <ele>2183</ele>
        <time>2021-08-04T06:44:49.000Z</time>
      </trkpt>
      <trkpt lat="42.59996" lon="1.85194">
        <ele>2180.5</ele>
        <time>2021-08-04T06:45:19.000Z</time>
      </trkpt>
      <trkpt lat="42.59995" lon="1.85194">
        <ele>2180.6</ele>
        <time>2021-08-04T06:45:21.000Z</time>
      </trkpt>
      <trkpt lat="42.59996" lon="1.85194">
        <ele>2180.6</ele>
        <time>2021-08-04T06:45:22.000Z</time>
      </trkpt>
      <trkpt lat="42.59996" lon="1.85194">
        <ele>2180.5</ele>
        <time>2021-08-04T06:45:23.000Z</time>
      </trkpt>
      <trkpt lat="42.59995" lon="1.85194">
        <ele>2178.5</ele>
        <time>2021-08-04T06:45:54.000Z</time>
      </trkpt>
      <trkpt lat="42.59994" lon="1.8519">
        <ele>2178</ele>
        <time>2021-08-04T06:46:03.000Z</time>
      </trkpt>
      <trkpt lat="42.59994" lon="1.8519">
        <ele>2175.7</ele>
        <time>2021-08-04T06:46:32.000Z</time>
      </trkpt>
      <trkpt lat="42.59991" lon="1.85177">
        <ele>2174.6</ele>
        <time>2021-08-04T06:46:41.000Z</time>
      </trkpt>
      <trkpt lat="42.59991" lon="1.85163">
        <ele>2174</ele>
        <time>2021-08-04T06:46:52.000Z</time>
      </trkpt>
      <trkpt lat="42.59991" lon="1.85151">
        <ele>2173.1</ele>
        <time>2021-08-04T06:47:01.000Z</time>
      </trkpt>
      <trkpt lat="42.59991" lon="1.85138">
        <ele>2172.2</ele>
        <time>2021-08-04T06:47:11.000Z</time>
      </trkpt>
      <trkpt lat="42.59988" lon="1.85126">
        <ele>2171.9</ele>
        <time>2021-08-04T06:47:20.000Z</time>
      </trkpt>
      <trkpt lat="42.59986" lon="1.85113">
        <ele>2170.9</ele>
        <time>2021-08-04T06:47:30.000Z</time>
      </trkpt>
      <trkpt lat="42.59986" lon="1.85101">
        <ele>2170.4</ele>
        <time>2021-08-04T06:47:37.000Z</time>
      </trkpt>
      <trkpt lat="42.59986" lon="1.85088">
        <ele>2169.9</ele>
        <time>2021-08-04T06:47:45.000Z</time>
      </trkpt>
      <trkpt lat="42.59986" lon="1.85075">
        <ele>2168.9</ele>
        <time>2021-08-04T06:47:54.000Z</time>
      </trkpt>
      <trkpt lat="42.59986" lon="1.85061">
        <ele>2168.3</ele>
        <time>2021-08-04T06:48:02.000Z</time>
      </trkpt>
      <trkpt lat="42.59983" lon="1.85049">
        <ele>2167.5</ele>
        <time>2021-08-04T06:48:10.000Z</time>
      </trkpt>
      <trkpt lat="42.5998" lon="1.85037">
        <ele>2166.9</ele>
        <time>2021-08-04T06:48:18.000Z</time>
      </trkpt>
      <trkpt lat="42.59977" lon="1.85025">
        <ele>2166.1</ele>
        <time>2021-08-04T06:48:26.000Z</time>
      </trkpt>
      <trkpt lat="42.59973" lon="1.85012">
        <ele>2165.3</ele>
        <time>2021-08-04T06:48:35.000Z</time>
      </trkpt>
      <trkpt lat="42.59969" lon="1.85001">
        <ele>2164.9</ele>
        <time>2021-08-04T06:48:43.000Z</time>
      </trkpt>
      <trkpt lat="42.59968" lon="1.84988">
        <ele>2163.9</ele>
        <time>2021-08-04T06:48:51.000Z</time>
      </trkpt>
      <trkpt lat="42.59967" lon="1.84975">
        <ele>2163.2</ele>
        <time>2021-08-04T06:49:01.000Z</time>
      </trkpt>
      <trkpt lat="42.59963" lon="1.84963">
        <ele>2162.6</ele>
        <time>2021-08-04T06:49:09.000Z</time>
      </trkpt>
      <trkpt lat="42.5996" lon="1.8495">
        <ele>2161.8</ele>
        <time>2021-08-04T06:49:17.000Z</time>
      </trkpt>
      <trkpt lat="42.59958" lon="1.84938">
        <ele>2160.9</ele>
        <time>2021-08-04T06:49:25.000Z</time>
      </trkpt>
      <trkpt lat="42.59957" lon="1.84924">
        <ele>2160.3</ele>
        <time>2021-08-04T06:49:34.000Z</time>
      </trkpt>
      <trkpt lat="42.59956" lon="1.84911">
        <ele>2159.8</ele>
        <time>2021-08-04T06:49:41.000Z</time>
      </trkpt>
      <trkpt lat="42.59954" lon="1.84899">
        <ele>2159.2</ele>
        <time>2021-08-04T06:49:47.000Z</time>
      </trkpt>
      <trkpt lat="42.59952" lon="1.84886">
        <ele>2158.6</ele>
        <time>2021-08-04T06:49:54.000Z</time>
      </trkpt>
      <trkpt lat="42.59952" lon="1.84872">
        <ele>2158</ele>
        <time>2021-08-04T06:50:02.000Z</time>
      </trkpt>
      <trkpt lat="42.5995" lon="1.8486">
        <ele>2157</ele>
        <time>2021-08-04T06:50:10.000Z</time>
      </trkpt>
      <trkpt lat="42.59947" lon="1.84847">
        <ele>2156.5</ele>
        <time>2021-08-04T06:50:18.000Z</time>
      </trkpt>
      <trkpt lat="42.59946" lon="1.84834">
        <ele>2156</ele>
        <time>2021-08-04T06:50:26.000Z</time>
      </trkpt>
      <trkpt lat="42.59945" lon="1.8482">
        <ele>2155.3</ele>
        <time>2021-08-04T06:50:34.000Z</time>
      </trkpt>
      <trkpt lat="42.59945" lon="1.84808">
        <ele>2154.7</ele>
        <time>2021-08-04T06:50:41.000Z</time>
      </trkpt>
      <trkpt lat="42.59945" lon="1.84794">
        <ele>2154</ele>
        <time>2021-08-04T06:50:50.000Z</time>
      </trkpt>
      <trkpt lat="42.59944" lon="1.84781">
        <ele>2153.4</ele>
        <time>2021-08-04T06:50:58.000Z</time>
      </trkpt>
      <trkpt lat="42.59942" lon="1.84769">
        <ele>2152.6</ele>
        <time>2021-08-04T06:51:05.000Z</time>
      </trkpt>
      <trkpt lat="42.59941" lon="1.84756">
        <ele>2151.9</ele>
        <time>2021-08-04T06:51:14.000Z</time>
      </trkpt>
      <trkpt lat="42.59944" lon="1.84742">
        <ele>2151</ele>
        <time>2021-08-04T06:51:23.000Z</time>
      </trkpt>
      <trkpt lat="42.59945" lon="1.8473">
        <ele>2150.3</ele>
        <time>2021-08-04T06:51:30.000Z</time>
      </trkpt>
      <trkpt lat="42.59946" lon="1.84716">
        <ele>2150</ele>
        <time>2021-08-04T06:51:38.000Z</time>
      </trkpt>
      <trkpt lat="42.59946" lon="1.84703">
        <ele>2149.1</ele>
        <time>2021-08-04T06:51:46.000Z</time>
      </trkpt>
      <trkpt lat="42.59945" lon="1.8469">
        <ele>2148.4</ele>
        <time>2021-08-04T06:51:55.000Z</time>
      </trkpt>
      <trkpt lat="42.59944" lon="1.84677">
        <ele>2147.6</ele>
        <time>2021-08-04T06:52:03.000Z</time>
      </trkpt>
      <trkpt lat="42.5994" lon="1.84666">
        <ele>2146.9</ele>
        <time>2021-08-04T06:52:11.000Z</time>
      </trkpt>
      <trkpt lat="42.59936" lon="1.84655">
        <ele>2146</ele>
        <time>2021-08-04T06:52:19.000Z</time>
      </trkpt>
      <trkpt lat="42.59931" lon="1.84643">
        <ele>2145</ele>
        <time>2021-08-04T06:52:29.000Z</time>
      </trkpt>
      <trkpt lat="42.59925" lon="1.84633">
        <ele>2144.4</ele>
        <time>2021-08-04T06:52:38.000Z</time>
      </trkpt>
      <trkpt lat="42.59922" lon="1.8462">
        <ele>2143.6</ele>
        <time>2021-08-04T06:52:47.000Z</time>
      </trkpt>
      <trkpt lat="42.59917" lon="1.84611">
        <ele>2143</ele>
        <time>2021-08-04T06:52:54.000Z</time>
      </trkpt>
      <trkpt lat="42.59912" lon="1.846">
        <ele>2142.3</ele>
        <time>2021-08-04T06:53:02.000Z</time>
      </trkpt>
      <trkpt lat="42.59906" lon="1.8459">
        <ele>2141.6</ele>
        <time>2021-08-04T06:53:10.000Z</time>
      </trkpt>
      <trkpt lat="42.599" lon="1.84579">
        <ele>2140.9</ele>
        <time>2021-08-04T06:53:18.000Z</time>
      </trkpt>
      <trkpt lat="42.59902" lon="1.84566">
        <ele>2140.1</ele>
        <time>2021-08-04T06:53:26.000Z</time>
      </trkpt>
      <trkpt lat="42.59899" lon="1.84554">
        <ele>2139.1</ele>
        <time>2021-08-04T06:53:35.000Z</time>
      </trkpt>
      <trkpt lat="42.59899" lon="1.8454">
        <ele>2138.6</ele>
        <time>2021-08-04T06:53:41.000Z</time>
      </trkpt>
      <trkpt lat="42.59901" lon="1.84527">
        <ele>2137.7</ele>
        <time>2021-08-04T06:53:49.000Z</time>
      </trkpt>
      <trkpt lat="42.599" lon="1.84514">
        <ele>2137.5</ele>
        <time>2021-08-04T06:53:55.000Z</time>
      </trkpt>
      <trkpt lat="42.59897" lon="1.84502">
        <ele>2136.6</ele>
        <time>2021-08-04T06:54:04.000Z</time>
      </trkpt>
      <trkpt lat="42.59895" lon="1.84488">
        <ele>2135.3</ele>
        <time>2021-08-04T06:54:14.000Z</time>
      </trkpt>
      <trkpt lat="42.59897" lon="1.84476">
        <ele>2134.8</ele>
        <time>2021-08-04T06:54:20.000Z</time>
      </trkpt>
      <trkpt lat="42.59896" lon="1.84462">
        <ele>2134.4</ele>
        <time>2021-08-04T06:54:28.000Z</time>
      </trkpt>
      <trkpt lat="42.59898" lon="1.8445">
        <ele>2133.3</ele>
        <time>2021-08-04T06:54:35.000Z</time>
      </trkpt>
      <trkpt lat="42.59898" lon="1.84437">
        <ele>2132.7</ele>
        <time>2021-08-04T06:54:43.000Z</time>
      </trkpt>
      <trkpt lat="42.59897" lon="1.84423">
        <ele>2131.8</ele>
        <time>2021-08-04T06:54:54.000Z</time>
      </trkpt>
      <trkpt lat="42.59893" lon="1.84412">
        <ele>2131</ele>
        <time>2021-08-04T06:55:02.000Z</time>
      </trkpt>
      <trkpt lat="42.59887" lon="1.844">
        <ele>2130.8</ele>
        <time>2021-08-04T06:55:10.000Z</time>
      </trkpt>
      <trkpt lat="42.59881" lon="1.84391">
        <ele>2129.9</ele>
        <time>2021-08-04T06:55:18.000Z</time>
      </trkpt>
      <trkpt lat="42.59877" lon="1.84379">
        <ele>2129.1</ele>
        <time>2021-08-04T06:55:28.000Z</time>
      </trkpt>
      <trkpt lat="42.5987" lon="1.8437">
        <ele>2128.6</ele>
        <time>2021-08-04T06:55:35.000Z</time>
      </trkpt>
      <trkpt lat="42.59865" lon="1.84359">
        <ele>2127.7</ele>
        <time>2021-08-04T06:55:43.000Z</time>
      </trkpt>
      <trkpt lat="42.59863" lon="1.84347">
        <ele>2126.9</ele>
        <time>2021-08-04T06:55:51.000Z</time>
      </trkpt>
      <trkpt lat="42.59862" lon="1.84334">
        <ele>2126.2</ele>
        <time>2021-08-04T06:56:00.000Z</time>
      </trkpt>
      <trkpt lat="42.59864" lon="1.84321">
        <ele>2125.4</ele>
        <time>2021-08-04T06:56:06.000Z</time>
      </trkpt>
      <trkpt lat="42.59863" lon="1.84308">
        <ele>2124.6</ele>
        <time>2021-08-04T06:56:14.000Z</time>
      </trkpt>
      <trkpt lat="42.5986" lon="1.84295">
        <ele>2123.6</ele>
        <time>2021-08-04T06:56:23.000Z</time>
      </trkpt>
      <trkpt lat="42.59856" lon="1.84283">
        <ele>2123</ele>
        <time>2021-08-04T06:56:31.000Z</time>
      </trkpt>
      <trkpt lat="42.59854" lon="1.84271">
        <ele>2122.7</ele>
        <time>2021-08-04T06:56:39.000Z</time>
      </trkpt>
      <trkpt lat="42.59853" lon="1.84258">
        <ele>2121.9</ele>
        <time>2021-08-04T06:56:48.000Z</time>
      </trkpt>
      <trkpt lat="42.59852" lon="1.84244">
        <ele>2120.8</ele>
        <time>2021-08-04T06:56:57.000Z</time>
      </trkpt>
      <trkpt lat="42.5985" lon="1.84232">
        <ele>2119.8</ele>
        <time>2021-08-04T06:57:07.000Z</time>
      </trkpt>
      <trkpt lat="42.59849" lon="1.84219">
        <ele>2118.6</ele>
        <time>2021-08-04T06:57:16.000Z</time>
      </trkpt>
      <trkpt lat="42.59848" lon="1.84206">
        <ele>2118</ele>
        <time>2021-08-04T06:57:25.000Z</time>
      </trkpt>
      <trkpt lat="42.59846" lon="1.84195">
        <ele>2117.2</ele>
        <time>2021-08-04T06:57:34.000Z</time>
      </trkpt>
      <trkpt lat="42.59843" lon="1.84182">
        <ele>2116.4</ele>
        <time>2021-08-04T06:57:43.000Z</time>
      </trkpt>
      <trkpt lat="42.59839" lon="1.84171">
        <ele>2115.6</ele>
        <time>2021-08-04T06:57:53.000Z</time>
      </trkpt>
      <trkpt lat="42.59834" lon="1.8416">
        <ele>2114.9</ele>
        <time>2021-08-04T06:58:03.000Z</time>
      </trkpt>
      <trkpt lat="42.59829" lon="1.84149">
        <ele>2114.2</ele>
        <time>2021-08-04T06:58:12.000Z</time>
      </trkpt>
      <trkpt lat="42.59824" lon="1.84138">
        <ele>2113</ele>
        <time>2021-08-04T06:58:22.000Z</time>
      </trkpt>
      <trkpt lat="42.59823" lon="1.84125">
        <ele>2112</ele>
        <time>2021-08-04T06:58:32.000Z</time>
      </trkpt>
      <trkpt lat="42.59821" lon="1.84111">
        <ele>2111.1</ele>
        <time>2021-08-04T06:58:41.000Z</time>
      </trkpt>
      <trkpt lat="42.59819" lon="1.84098">
        <ele>2110.7</ele>
        <time>2021-08-04T06:58:50.000Z</time>
      </trkpt>
      <trkpt lat="42.59817" lon="1.84086">
        <ele>2109.8</ele>
        <time>2021-08-04T06:58:58.000Z</time>
      </trkpt>
      <trkpt lat="42.59818" lon="1.84074">
        <ele>2109.3</ele>
        <time>2021-08-04T06:59:06.000Z</time>
      </trkpt>
      <trkpt lat="42.59818" lon="1.84061">
        <ele>2109</ele>
        <time>2021-08-04T06:59:13.000Z</time>
      </trkpt>
      <trkpt lat="42.59818" lon="1.84049">
        <ele>2108.6</ele>
        <time>2021-08-04T06:59:22.000Z</time>
      </trkpt>
      <trkpt lat="42.59815" lon="1.84036">
        <ele>2107.8</ele>
        <time>2021-08-04T06:59:30.000Z</time>
      </trkpt>
      <trkpt lat="42.59814" lon="1.84023">
        <ele>2107.1</ele>
        <time>2021-08-04T06:59:40.000Z</time>
      </trkpt>
      <trkpt lat="42.5981" lon="1.84012">
        <ele>2106.9</ele>
        <time>2021-08-04T06:59:48.000Z</time>
      </trkpt>
      <trkpt lat="42.59806" lon="1.84">
        <ele>2106.2</ele>
        <time>2021-08-04T06:59:57.000Z</time>
      </trkpt>
      <trkpt lat="42.59803" lon="1.83992">
        <ele>2105.8</ele>
        <time>2021-08-04T07:00:06.000Z</time>
      </trkpt>
      <trkpt lat="42.59803" lon="1.83992">
        <ele>2105.9</ele>
        <time>2021-08-04T07:00:07.000Z</time>
      </trkpt>
      <trkpt lat="42.59805" lon="1.83991">
        <ele>2105.9</ele>
        <time>2021-08-04T07:00:09.000Z</time>
      </trkpt>
      <trkpt lat="42.59805" lon="1.83991">
        <ele>2104.8</ele>
        <time>2021-08-04T07:00:18.000Z</time>
      </trkpt>
      <trkpt lat="42.59806" lon="1.83989">
        <ele>2104.4</ele>
        <time>2021-08-04T07:00:26.000Z</time>
      </trkpt>
      <trkpt lat="42.59806" lon="1.83989">
        <ele>2103.7</ele>
        <time>2021-08-04T07:00:47.000Z</time>
      </trkpt>
      <trkpt lat="42.59806" lon="1.83989">
        <ele>2103.7</ele>
        <time>2021-08-04T07:00:48.000Z</time>
      </trkpt>
      <trkpt lat="42.59806" lon="1.83989">
        <ele>2103.8</ele>
        <time>2021-08-04T07:00:49.000Z</time>
      </trkpt>
      <trkpt lat="42.59806" lon="1.83989">
        <ele>2103.8</ele>
        <time>2021-08-04T07:00:50.000Z</time>
      </trkpt>
      <trkpt lat="42.59806" lon="1.83989">
        <ele>2103.8</ele>
        <time>2021-08-04T07:00:51.000Z</time>
      </trkpt>
      <trkpt lat="42.59807" lon="1.83988">
        <ele>2103.5</ele>
        <time>2021-08-04T07:00:55.000Z</time>
      </trkpt>
      <trkpt lat="42.59807" lon="1.83987">
        <ele>2102.1</ele>
        <time>2021-08-04T07:01:26.000Z</time>
      </trkpt>
      <trkpt lat="42.59807" lon="1.83974">
        <ele>2100.9</ele>
        <time>2021-08-04T07:01:40.000Z</time>
      </trkpt>
      <trkpt lat="42.59803" lon="1.83963">
        <ele>2099</ele>
        <time>2021-08-04T07:01:52.000Z</time>
      </trkpt>
      <trkpt lat="42.59803" lon="1.8396">
        <ele>2098.4</ele>
        <time>2021-08-04T07:01:57.000Z</time>
      </trkpt>
      <trkpt lat="42.59803" lon="1.8396">
        <ele>2098.2</ele>
        <time>2021-08-04T07:02:00.000Z</time>
      </trkpt>
      <trkpt lat="42.59803" lon="1.8396">
        <ele>2097.9</ele>
        <time>2021-08-04T07:02:01.000Z</time>
      </trkpt>
      <trkpt lat="42.59804" lon="1.8396">
        <ele>2097.7</ele>
        <time>2021-08-04T07:02:02.000Z</time>
      </trkpt>
      <trkpt lat="42.59805" lon="1.83947">
        <ele>2095.3</ele>
        <time>2021-08-04T07:02:17.000Z</time>
      </trkpt>
      <trkpt lat="42.59799" lon="1.83935">
        <ele>2093.9</ele>
        <time>2021-08-04T07:02:27.000Z</time>
      </trkpt>
      <trkpt lat="42.59799" lon="1.83923">
        <ele>2092.3</ele>
        <time>2021-08-04T07:02:35.000Z</time>
      </trkpt>
      <trkpt lat="42.59798" lon="1.8391">
        <ele>2090.4</ele>
        <time>2021-08-04T07:02:46.000Z</time>
      </trkpt>
      <trkpt lat="42.59797" lon="1.83897">
        <ele>2088.4</ele>
        <time>2021-08-04T07:02:57.000Z</time>
      </trkpt>
      <trkpt lat="42.59793" lon="1.83885">
        <ele>2086.2</ele>
        <time>2021-08-04T07:03:09.000Z</time>
      </trkpt>
      <trkpt lat="42.59797" lon="1.83874">
        <ele>2085.2</ele>
        <time>2021-08-04T07:03:16.000Z</time>
      </trkpt>
      <trkpt lat="42.59802" lon="1.83864">
        <ele>2084.2</ele>
        <time>2021-08-04T07:03:24.000Z</time>
      </trkpt>
      <trkpt lat="42.59806" lon="1.83852">
        <ele>2081.9</ele>
        <time>2021-08-04T07:03:36.000Z</time>
      </trkpt>
      <trkpt lat="42.59807" lon="1.83839">
        <ele>2080.2</ele>
        <time>2021-08-04T07:03:46.000Z</time>
      </trkpt>
      <trkpt lat="42.59806" lon="1.83825">
        <ele>2077.6</ele>
        <time>2021-08-04T07:04:00.000Z</time>
      </trkpt>
      <trkpt lat="42.59808" lon="1.83814">
        <ele>2075.9</ele>
        <time>2021-08-04T07:04:10.000Z</time>
      </trkpt>
      <trkpt lat="42.59808" lon="1.83801">
        <ele>2073.8</ele>
        <time>2021-08-04T07:04:22.000Z</time>
      </trkpt>
      <trkpt lat="42.5981" lon="1.83789">
        <ele>2069.3</ele>
        <time>2021-08-04T07:04:44.000Z</time>
      </trkpt>
      <trkpt lat="42.5981" lon="1.83788">
        <ele>2069</ele>
        <time>2021-08-04T07:04:46.000Z</time>
      </trkpt>
      <trkpt lat="42.59811" lon="1.83788">
        <ele>2068.1</ele>
        <time>2021-08-04T07:04:52.000Z</time>
      </trkpt>
      <trkpt lat="42.59808" lon="1.83775">
        <ele>2065.8</ele>
        <time>2021-08-04T07:05:06.000Z</time>
      </trkpt>
      <trkpt lat="42.59804" lon="1.83765">
        <ele>2063.4</ele>
        <time>2021-08-04T07:05:21.000Z</time>
      </trkpt>
      <trkpt lat="42.59804" lon="1.83765">
        <ele>2063</ele>
        <time>2021-08-04T07:05:24.000Z</time>
      </trkpt>
      <trkpt lat="42.5981" lon="1.83756">
        <ele>2060.2</ele>
        <time>2021-08-04T07:05:43.000Z</time>
      </trkpt>
      <trkpt lat="42.59816" lon="1.83746">
        <ele>2058.9</ele>
        <time>2021-08-04T07:05:53.000Z</time>
      </trkpt>
      <trkpt lat="42.59811" lon="1.83739">
        <ele>2057.2</ele>
        <time>2021-08-04T07:06:06.000Z</time>
      </trkpt>
      <trkpt lat="42.59811" lon="1.83739">
        <ele>2057</ele>
        <time>2021-08-04T07:06:07.000Z</time>
      </trkpt>
      <trkpt lat="42.5981" lon="1.8374">
        <ele>2056.8</ele>
        <time>2021-08-04T07:06:11.000Z</time>
      </trkpt>
      <trkpt lat="42.5981" lon="1.8374">
        <ele>2056.3</ele>
        <time>2021-08-04T07:06:16.000Z</time>
      </trkpt>
      <trkpt lat="42.5981" lon="1.8374">
        <ele>2056.3</ele>
        <time>2021-08-04T07:06:18.000Z</time>
      </trkpt>
      <trkpt lat="42.5981" lon="1.8374">
        <ele>2056.3</ele>
        <time>2021-08-04T07:06:19.000Z</time>
      </trkpt>
      <trkpt lat="42.59811" lon="1.83727">
        <ele>2055.2</ele>
        <time>2021-08-04T07:06:30.000Z</time>
      </trkpt>
      <trkpt lat="42.59813" lon="1.83713">
        <ele>2054.4</ele>
        <time>2021-08-04T07:06:39.000Z</time>
      </trkpt>
      <trkpt lat="42.59814" lon="1.837">
        <ele>2053.8</ele>
        <time>2021-08-04T07:06:48.000Z</time>
      </trkpt>
      <trkpt lat="42.59816" lon="1.83689">
        <ele>2053.4</ele>
        <time>2021-08-04T07:06:57.000Z</time>
      </trkpt>
      <trkpt lat="42.59819" lon="1.83677">
        <ele>2052.6</ele>
        <time>2021-08-04T07:07:07.000Z</time>
      </trkpt>
      <trkpt lat="42.59822" lon="1.83665">
        <ele>2052.2</ele>
        <time>2021-08-04T07:07:15.000Z</time>
      </trkpt>
      <trkpt lat="42.59824" lon="1.83652">
        <ele>2051.5</ele>
        <time>2021-08-04T07:07:25.000Z</time>
      </trkpt>
      <trkpt lat="42.59826" lon="1.83639">
        <ele>2051.3</ele>
        <time>2021-08-04T07:07:35.000Z</time>
      </trkpt>
      <trkpt lat="42.59828" lon="1.83626">
        <ele>2051.8</ele>
        <time>2021-08-04T07:07:48.000Z</time>
      </trkpt>
      <trkpt lat="42.59831" lon="1.83615">
        <ele>2051.8</ele>
        <time>2021-08-04T07:07:57.000Z</time>
      </trkpt>
      <trkpt lat="42.59835" lon="1.83602">
        <ele>2051.8</ele>
        <time>2021-08-04T07:08:06.000Z</time>
      </trkpt>
      <trkpt lat="42.59837" lon="1.8359">
        <ele>2051.5</ele>
        <time>2021-08-04T07:08:15.000Z</time>
      </trkpt>
      <trkpt lat="42.59837" lon="1.83577">
        <ele>2051.5</ele>
        <time>2021-08-04T07:08:24.000Z</time>
      </trkpt>
      <trkpt lat="42.59833" lon="1.83565">
        <ele>2051.4</ele>
        <time>2021-08-04T07:08:36.000Z</time>
      </trkpt>
      <trkpt lat="42.59834" lon="1.83552">
        <ele>2050.8</ele>
        <time>2021-08-04T07:08:48.000Z</time>
      </trkpt>
      <trkpt lat="42.59843" lon="1.83548">
        <ele>2048.4</ele>
        <time>2021-08-04T07:09:08.000Z</time>
      </trkpt>
      <trkpt lat="42.59847" lon="1.83536">
        <ele>2046.7</ele>
        <time>2021-08-04T07:09:19.000Z</time>
      </trkpt>
      <trkpt lat="42.59849" lon="1.83524">
        <ele>2045.3</ele>
        <time>2021-08-04T07:09:29.000Z</time>
      </trkpt>
      <trkpt lat="42.59853" lon="1.83512">
        <ele>2043.3</ele>
        <time>2021-08-04T07:09:42.000Z</time>
      </trkpt>
      <trkpt lat="42.59853" lon="1.83499">
        <ele>2040.9</ele>
        <time>2021-08-04T07:09:58.000Z</time>
      </trkpt>
      <trkpt lat="42.59856" lon="1.83486">
        <ele>2038.2</ele>
        <time>2021-08-04T07:10:13.000Z</time>
      </trkpt>
      <trkpt lat="42.59858" lon="1.83473">
        <ele>2036.1</ele>
        <time>2021-08-04T07:10:26.000Z</time>
      </trkpt>
      <trkpt lat="42.59861" lon="1.83462">
        <ele>2034.5</ele>
        <time>2021-08-04T07:10:35.000Z</time>
      </trkpt>
      <trkpt lat="42.59868" lon="1.83453">
        <ele>2032</ele>
        <time>2021-08-04T07:10:49.000Z</time>
      </trkpt>
      <trkpt lat="42.59876" lon="1.83445">
        <ele>2029.5</ele>
        <time>2021-08-04T07:11:03.000Z</time>
      </trkpt>
      <trkpt lat="42.59878" lon="1.83433">
        <ele>2027.3</ele>
        <time>2021-08-04T07:11:16.000Z</time>
      </trkpt>
      <trkpt lat="42.59883" lon="1.83422">
        <ele>2025</ele>
        <time>2021-08-04T07:11:29.000Z</time>
      </trkpt>
      <trkpt lat="42.59885" lon="1.8341">
        <ele>2023.1</ele>
        <time>2021-08-04T07:11:40.000Z</time>
      </trkpt>
      <trkpt lat="42.5989" lon="1.834">
        <ele>2021.4</ele>
        <time>2021-08-04T07:11:50.000Z</time>
      </trkpt>
      <trkpt lat="42.59892" lon="1.83387">
        <ele>2019.4</ele>
        <time>2021-08-04T07:12:02.000Z</time>
      </trkpt>
      <trkpt lat="42.59892" lon="1.83375">
        <ele>2015.9</ele>
        <time>2021-08-04T07:12:22.000Z</time>
      </trkpt>
      <trkpt lat="42.59893" lon="1.83363">
        <ele>2014.3</ele>
        <time>2021-08-04T07:12:34.000Z</time>
      </trkpt>
      <trkpt lat="42.59894" lon="1.83349">
        <ele>2012.6</ele>
        <time>2021-08-04T07:12:46.000Z</time>
      </trkpt>
      <trkpt lat="42.59901" lon="1.8334">
        <ele>2010.6</ele>
        <time>2021-08-04T07:12:56.000Z</time>
      </trkpt>
      <trkpt lat="42.59903" lon="1.83327">
        <ele>2009.2</ele>
        <time>2021-08-04T07:13:07.000Z</time>
      </trkpt>
      <trkpt lat="42.59906" lon="1.83314">
        <ele>2008.3</ele>
        <time>2021-08-04T07:13:20.000Z</time>
      </trkpt>
      <trkpt lat="42.59908" lon="1.83302">
        <ele>2008</ele>
        <time>2021-08-04T07:13:31.000Z</time>
      </trkpt>
      <trkpt lat="42.59912" lon="1.8329">
        <ele>2008</ele>
        <time>2021-08-04T07:13:46.000Z</time>
      </trkpt>
      <trkpt lat="42.59916" lon="1.83284">
        <ele>2008.5</ele>
        <time>2021-08-04T07:13:56.000Z</time>
      </trkpt>
      <trkpt lat="42.59916" lon="1.83284">
        <ele>2008.5</ele>
        <time>2021-08-04T07:13:57.000Z</time>
      </trkpt>
      <trkpt lat="42.59916" lon="1.83284">
        <ele>2008.5</ele>
        <time>2021-08-04T07:13:58.000Z</time>
      </trkpt>
      <trkpt lat="42.59916" lon="1.83284">
        <ele>2008.5</ele>
        <time>2021-08-04T07:14:05.000Z</time>
      </trkpt>
      <trkpt lat="42.59917" lon="1.83285">
        <ele>2008.5</ele>
        <time>2021-08-04T07:14:08.000Z</time>
      </trkpt>
      <trkpt lat="42.59917" lon="1.83284">
        <ele>2008.4</ele>
        <time>2021-08-04T07:14:09.000Z</time>
      </trkpt>
      <trkpt lat="42.59909" lon="1.83279">
        <ele>2009.2</ele>
        <time>2021-08-04T07:14:31.000Z</time>
      </trkpt>
      <trkpt lat="42.59913" lon="1.83268">
        <ele>2010.5</ele>
        <time>2021-08-04T07:14:46.000Z</time>
      </trkpt>
      <trkpt lat="42.59917" lon="1.83257">
        <ele>2011.6</ele>
        <time>2021-08-04T07:14:57.000Z</time>
      </trkpt>
      <trkpt lat="42.59924" lon="1.83247">
        <ele>2012.3</ele>
        <time>2021-08-04T07:15:08.000Z</time>
      </trkpt>
      <trkpt lat="42.59926" lon="1.8324">
        <ele>2012.9</ele>
        <time>2021-08-04T07:15:18.000Z</time>
      </trkpt>
      <trkpt lat="42.59926" lon="1.83241">
        <ele>2012.9</ele>
        <time>2021-08-04T07:15:19.000Z</time>
      </trkpt>
      <trkpt lat="42.59925" lon="1.83241">
        <ele>2013</ele>
        <time>2021-08-04T07:15:21.000Z</time>
      </trkpt>
      <trkpt lat="42.59925" lon="1.83241">
        <ele>2013.1</ele>
        <time>2021-08-04T07:15:22.000Z</time>
      </trkpt>
      <trkpt lat="42.59925" lon="1.83241">
        <ele>2013.2</ele>
        <time>2021-08-04T07:15:24.000Z</time>
      </trkpt>
      <trkpt lat="42.59925" lon="1.8324">
        <ele>2013</ele>
        <time>2021-08-04T07:16:20.000Z</time>
      </trkpt>
      <trkpt lat="42.59925" lon="1.8324">
        <ele>2013</ele>
        <time>2021-08-04T07:16:21.000Z</time>
      </trkpt>
      <trkpt lat="42.59925" lon="1.8324">
        <ele>2012.5</ele>
        <time>2021-08-04T07:16:44.000Z</time>
      </trkpt>
      <trkpt lat="42.59925" lon="1.83239">
        <ele>2012.2</ele>
        <time>2021-08-04T07:16:48.000Z</time>
      </trkpt>
      <trkpt lat="42.59925" lon="1.8324">
        <ele>2012.2</ele>
        <time>2021-08-04T07:16:49.000Z</time>
      </trkpt>
      <trkpt lat="42.59924" lon="1.83241">
        <ele>2012.5</ele>
        <time>2021-08-04T07:16:52.000Z</time>
      </trkpt>
      <trkpt lat="42.59924" lon="1.83241">
        <ele>2012.3</ele>
        <time>2021-08-04T07:16:53.000Z</time>
      </trkpt>
      <trkpt lat="42.59924" lon="1.83241">
        <ele>2012.2</ele>
        <time>2021-08-04T07:16:54.000Z</time>
      </trkpt>
      <trkpt lat="42.59924" lon="1.83241">
        <ele>2012.1</ele>
        <time>2021-08-04T07:16:57.000Z</time>
      </trkpt>
      <trkpt lat="42.59924" lon="1.83241">
        <ele>2012</ele>
        <time>2021-08-04T07:16:58.000Z</time>
      </trkpt>
      <trkpt lat="42.59924" lon="1.8324">
        <ele>2012</ele>
        <time>2021-08-04T07:16:59.000Z</time>
      </trkpt>
      <trkpt lat="42.59924" lon="1.8324">
        <ele>2011.8</ele>
        <time>2021-08-04T07:17:00.000Z</time>
      </trkpt>
      <trkpt lat="42.59924" lon="1.8324">
        <ele>2011.7</ele>
        <time>2021-08-04T07:17:01.000Z</time>
      </trkpt>
      <trkpt lat="42.59922" lon="1.83238">
        <ele>2011.6</ele>
        <time>2021-08-04T07:17:12.000Z</time>
      </trkpt>
      <trkpt lat="42.59921" lon="1.83238">
        <ele>2011.8</ele>
        <time>2021-08-04T07:17:14.000Z</time>
      </trkpt>
      <trkpt lat="42.59921" lon="1.83238">
        <ele>2011.6</ele>
        <time>2021-08-04T07:17:16.000Z</time>
      </trkpt>
      <trkpt lat="42.59921" lon="1.83237">
        <ele>2011.5</ele>
        <time>2021-08-04T07:17:17.000Z</time>
      </trkpt>
      <trkpt lat="42.59921" lon="1.83237">
        <ele>2011.7</ele>
        <time>2021-08-04T07:17:19.000Z</time>
      </trkpt>
      <trkpt lat="42.59921" lon="1.83237">
        <ele>2011.4</ele>
        <time>2021-08-04T07:17:21.000Z</time>
      </trkpt>
      <trkpt lat="42.59921" lon="1.83237">
        <ele>2011.3</ele>
        <time>2021-08-04T07:17:22.000Z</time>
      </trkpt>
      <trkpt lat="42.59921" lon="1.83237">
        <ele>2011.1</ele>
        <time>2021-08-04T07:17:25.000Z</time>
      </trkpt>
      <trkpt lat="42.59921" lon="1.83237">
        <ele>2010.9</ele>
        <time>2021-08-04T07:17:27.000Z</time>
      </trkpt>
      <trkpt lat="42.59921" lon="1.83237">
        <ele>2010.9</ele>
        <time>2021-08-04T07:17:28.000Z</time>
      </trkpt>
      <trkpt lat="42.59922" lon="1.83238">
        <ele>2010.9</ele>
        <time>2021-08-04T07:17:31.000Z</time>
      </trkpt>
      <trkpt lat="42.59922" lon="1.83238">
        <ele>2010.9</ele>
        <time>2021-08-04T07:17:32.000Z</time>
      </trkpt>
      <trkpt lat="42.59923" lon="1.83237">
        <ele>2010.8</ele>
        <time>2021-08-04T07:17:34.000Z</time>
      </trkpt>
      <trkpt lat="42.59923" lon="1.83237">
        <ele>2010.8</ele>
        <time>2021-08-04T07:17:37.000Z</time>
      </trkpt>
      <trkpt lat="42.59923" lon="1.83237">
        <ele>2010.8</ele>
        <time>2021-08-04T07:17:38.000Z</time>
      </trkpt>
      <trkpt lat="42.59923" lon="1.83237">
        <ele>2010.4</ele>
        <time>2021-08-04T07:17:51.000Z</time>
      </trkpt>
      <trkpt lat="42.59923" lon="1.83237">
        <ele>2010.3</ele>
        <time>2021-08-04T07:17:52.000Z</time>
      </trkpt>
      <trkpt lat="42.59923" lon="1.83236">
        <ele>2009.8</ele>
        <time>2021-08-04T07:18:00.000Z</time>
      </trkpt>
      <trkpt lat="42.59923" lon="1.83236">
        <ele>2009.7</ele>
        <time>2021-08-04T07:18:01.000Z</time>
      </trkpt>
      <trkpt lat="42.59924" lon="1.83236">
        <ele>2008.2</ele>
        <time>2021-08-04T07:18:41.000Z</time>
      </trkpt>
      <trkpt lat="42.59925" lon="1.83236">
        <ele>2008.2</ele>
        <time>2021-08-04T07:18:45.000Z</time>
      </trkpt>
      <trkpt lat="42.59925" lon="1.83236">
        <ele>2007.6</ele>
        <time>2021-08-04T07:18:48.000Z</time>
      </trkpt>
      <trkpt lat="42.59925" lon="1.83236">
        <ele>2007.5</ele>
        <time>2021-08-04T07:18:50.000Z</time>
      </trkpt>
      <trkpt lat="42.59925" lon="1.83236">
        <ele>2007.4</ele>
        <time>2021-08-04T07:18:51.000Z</time>
      </trkpt>
      <trkpt lat="42.59925" lon="1.83236">
        <ele>2007.4</ele>
        <time>2021-08-04T07:18:52.000Z</time>
      </trkpt>
      <trkpt lat="42.59926" lon="1.83236">
        <ele>2007.5</ele>
        <time>2021-08-04T07:18:58.000Z</time>
      </trkpt>
      <trkpt lat="42.59926" lon="1.83236">
        <ele>2007.4</ele>
        <time>2021-08-04T07:18:59.000Z</time>
      </trkpt>
      <trkpt lat="42.59926" lon="1.83235">
        <ele>2006.9</ele>
        <time>2021-08-04T07:19:08.000Z</time>
      </trkpt>
      <trkpt lat="42.59926" lon="1.83235">
        <ele>2006.9</ele>
        <time>2021-08-04T07:19:09.000Z</time>
      </trkpt>
      <trkpt lat="42.59926" lon="1.83235">
        <ele>2006.8</ele>
        <time>2021-08-04T07:19:20.000Z</time>
      </trkpt>
      <trkpt lat="42.59926" lon="1.83235">
        <ele>2006.8</ele>
        <time>2021-08-04T07:19:21.000Z</time>
      </trkpt>
      <trkpt lat="42.59925" lon="1.83236">
        <ele>2006.3</ele>
        <time>2021-08-04T07:19:27.000Z</time>
      </trkpt>
      <trkpt lat="42.59925" lon="1.83236">
        <ele>2006</ele>
        <time>2021-08-04T07:19:34.000Z</time>
      </trkpt>
      <trkpt lat="42.59925" lon="1.83236">
        <ele>2004.9</ele>
        <time>2021-08-04T07:20:01.000Z</time>
      </trkpt>
      <trkpt lat="42.59925" lon="1.83236">
        <ele>2004.8</ele>
        <time>2021-08-04T07:20:02.000Z</time>
      </trkpt>
      <trkpt lat="42.59925" lon="1.83236">
        <ele>2003.9</ele>
        <time>2021-08-04T07:20:31.000Z</time>
      </trkpt>
      <trkpt lat="42.59925" lon="1.83236">
        <ele>2003.8</ele>
        <time>2021-08-04T07:20:32.000Z</time>
      </trkpt>
      <trkpt lat="42.59925" lon="1.83236">
        <ele>2002.6</ele>
        <time>2021-08-04T07:21:05.000Z</time>
      </trkpt>
      <trkpt lat="42.59925" lon="1.83236">
        <ele>2002.6</ele>
        <time>2021-08-04T07:21:06.000Z</time>
      </trkpt>
      <trkpt lat="42.59925" lon="1.83235">
        <ele>2001.1</ele>
        <time>2021-08-04T07:21:54.000Z</time>
      </trkpt>
      <trkpt lat="42.59925" lon="1.83235">
        <ele>2001</ele>
        <time>2021-08-04T07:21:55.000Z</time>
      </trkpt>
      <trkpt lat="42.59924" lon="1.83234">
        <ele>1999.9</ele>
        <time>2021-08-04T07:22:25.000Z</time>
      </trkpt>
      <trkpt lat="42.59924" lon="1.83234">
        <ele>1999.9</ele>
        <time>2021-08-04T07:22:26.000Z</time>
      </trkpt>
      <trkpt lat="42.59924" lon="1.83233">
        <ele>2000.1</ele>
        <time>2021-08-04T07:22:29.000Z</time>
      </trkpt>
      <trkpt lat="42.59924" lon="1.83233">
        <ele>2000</ele>
        <time>2021-08-04T07:22:30.000Z</time>
      </trkpt>
      <trkpt lat="42.59924" lon="1.83232">
        <ele>1999.9</ele>
        <time>2021-08-04T07:22:35.000Z</time>
      </trkpt>
      <trkpt lat="42.59924" lon="1.83232">
        <ele>1999.8</ele>
        <time>2021-08-04T07:22:37.000Z</time>
      </trkpt>
      <trkpt lat="42.59924" lon="1.83231">
        <ele>1999.4</ele>
        <time>2021-08-04T07:22:45.000Z</time>
      </trkpt>
      <trkpt lat="42.59924" lon="1.83231">
        <ele>1999.4</ele>
        <time>2021-08-04T07:22:46.000Z</time>
      </trkpt>
      <trkpt lat="42.59924" lon="1.83231">
        <ele>1997</ele>
        <time>2021-08-04T07:24:02.000Z</time>
      </trkpt>
      <trkpt lat="42.59924" lon="1.83231">
        <ele>1997</ele>
        <time>2021-08-04T07:24:03.000Z</time>
      </trkpt>
      <trkpt lat="42.59923" lon="1.83231">
        <ele>1997</ele>
        <time>2021-08-04T07:24:04.000Z</time>
      </trkpt>
      <trkpt lat="42.59923" lon="1.83231">
        <ele>1997</ele>
        <time>2021-08-04T07:24:05.000Z</time>
      </trkpt>
      <trkpt lat="42.59923" lon="1.8323">
        <ele>1996.7</ele>
        <time>2021-08-04T07:24:08.000Z</time>
      </trkpt>
      <trkpt lat="42.59923" lon="1.8323">
        <ele>1996.7</ele>
        <time>2021-08-04T07:24:09.000Z</time>
      </trkpt>
      <trkpt lat="42.59923" lon="1.8323">
        <ele>1991.6</ele>
        <time>2021-08-04T07:26:25.000Z</time>
      </trkpt>
      <trkpt lat="42.59924" lon="1.83231">
        <ele>1991</ele>
        <time>2021-08-04T07:26:30.000Z</time>
      </trkpt>
      <trkpt lat="42.59925" lon="1.83231">
        <ele>1990.5</ele>
        <time>2021-08-04T07:26:42.000Z</time>
      </trkpt>
      <trkpt lat="42.59925" lon="1.83231">
        <ele>1990.6</ele>
        <time>2021-08-04T07:26:45.000Z</time>
      </trkpt>
      <trkpt lat="42.59925" lon="1.83231">
        <ele>1990.7</ele>
        <time>2021-08-04T07:26:47.000Z</time>
      </trkpt>
      <trkpt lat="42.59925" lon="1.8323">
        <ele>1990.6</ele>
        <time>2021-08-04T07:26:52.000Z</time>
      </trkpt>
      <trkpt lat="42.59925" lon="1.83229">
        <ele>1990.6</ele>
        <time>2021-08-04T07:26:53.000Z</time>
      </trkpt>
      <trkpt lat="42.59922" lon="1.83218">
        <ele>1988.6</ele>
        <time>2021-08-04T07:27:11.000Z</time>
      </trkpt>
      <trkpt lat="42.59922" lon="1.83218">
        <ele>1988.5</ele>
        <time>2021-08-04T07:27:12.000Z</time>
      </trkpt>
      <trkpt lat="42.59924" lon="1.83205">
        <ele>1986.6</ele>
        <time>2021-08-04T07:27:31.000Z</time>
      </trkpt>
      <trkpt lat="42.59927" lon="1.83194">
        <ele>1985</ele>
        <time>2021-08-04T07:27:41.000Z</time>
      </trkpt>
      <trkpt lat="42.59934" lon="1.83185">
        <ele>1983.3</ele>
        <time>2021-08-04T07:27:52.000Z</time>
      </trkpt>
      <trkpt lat="42.59936" lon="1.83173">
        <ele>1981.4</ele>
        <time>2021-08-04T07:28:02.000Z</time>
      </trkpt>
      <trkpt lat="42.59938" lon="1.83161">
        <ele>1979.6</ele>
        <time>2021-08-04T07:28:14.000Z</time>
      </trkpt>
      <trkpt lat="42.59936" lon="1.83148">
        <ele>1977.5</ele>
        <time>2021-08-04T07:28:26.000Z</time>
      </trkpt>
      <trkpt lat="42.59938" lon="1.83146">
        <ele>1976.5</ele>
        <time>2021-08-04T07:28:36.000Z</time>
      </trkpt>
      <trkpt lat="42.59938" lon="1.83147">
        <ele>1975.9</ele>
        <time>2021-08-04T07:28:40.000Z</time>
      </trkpt>
      <trkpt lat="42.59939" lon="1.83144">
        <ele>1975</ele>
        <time>2021-08-04T07:28:49.000Z</time>
      </trkpt>
      <trkpt lat="42.59938" lon="1.83143">
        <ele>1974.5</ele>
        <time>2021-08-04T07:28:57.000Z</time>
      </trkpt>
      <trkpt lat="42.59938" lon="1.83143">
        <ele>1974.2</ele>
        <time>2021-08-04T07:28:58.000Z</time>
      </trkpt>
      <trkpt lat="42.59938" lon="1.83144">
        <ele>1973.9</ele>
        <time>2021-08-04T07:29:00.000Z</time>
      </trkpt>
      <trkpt lat="42.59938" lon="1.83144">
        <ele>1973.9</ele>
        <time>2021-08-04T07:29:01.000Z</time>
      </trkpt>
      <trkpt lat="42.59938" lon="1.83144">
        <ele>1973.8</ele>
        <time>2021-08-04T07:29:02.000Z</time>
      </trkpt>
      <trkpt lat="42.59938" lon="1.83144">
        <ele>1973.6</ele>
        <time>2021-08-04T07:29:03.000Z</time>
      </trkpt>
      <trkpt lat="42.59938" lon="1.83144">
        <ele>1973.5</ele>
        <time>2021-08-04T07:29:04.000Z</time>
      </trkpt>
      <trkpt lat="42.59936" lon="1.83132">
        <ele>1971.5</ele>
        <time>2021-08-04T07:29:25.000Z</time>
      </trkpt>
      <trkpt lat="42.59935" lon="1.8312">
        <ele>1969.3</ele>
        <time>2021-08-04T07:29:40.000Z</time>
      </trkpt>
      <trkpt lat="42.59935" lon="1.83107">
        <ele>1966.9</ele>
        <time>2021-08-04T07:29:53.000Z</time>
      </trkpt>
      <trkpt lat="42.59935" lon="1.83095">
        <ele>1964.1</ele>
        <time>2021-08-04T07:30:11.000Z</time>
      </trkpt>
      <trkpt lat="42.59932" lon="1.83083">
        <ele>1961.6</ele>
        <time>2021-08-04T07:30:22.000Z</time>
      </trkpt>
      <trkpt lat="42.59927" lon="1.83072">
        <ele>1959.2</ele>
        <time>2021-08-04T07:30:37.000Z</time>
      </trkpt>
      <trkpt lat="42.59923" lon="1.83061">
        <ele>1955.9</ele>
        <time>2021-08-04T07:30:55.000Z</time>
      </trkpt>
      <trkpt lat="42.59922" lon="1.83048">
        <ele>1954.6</ele>
        <time>2021-08-04T07:31:03.000Z</time>
      </trkpt>
      <trkpt lat="42.59923" lon="1.83035">
        <ele>1953.2</ele>
        <time>2021-08-04T07:31:11.000Z</time>
      </trkpt>
      <trkpt lat="42.59924" lon="1.83022">
        <ele>1951.8</ele>
        <time>2021-08-04T07:31:21.000Z</time>
      </trkpt>
      <trkpt lat="42.59922" lon="1.8301">
        <ele>1950.9</ele>
        <time>2021-08-04T07:31:32.000Z</time>
      </trkpt>
      <trkpt lat="42.59921" lon="1.82997">
        <ele>1949.6</ele>
        <time>2021-08-04T07:31:42.000Z</time>
      </trkpt>
      <trkpt lat="42.5992" lon="1.82984">
        <ele>1948.7</ele>
        <time>2021-08-04T07:31:52.000Z</time>
      </trkpt>
      <trkpt lat="42.59917" lon="1.82973">
        <ele>1947.9</ele>
        <time>2021-08-04T07:32:01.000Z</time>
      </trkpt>
      <trkpt lat="42.59913" lon="1.8296">
        <ele>1946.5</ele>
        <time>2021-08-04T07:32:12.000Z</time>
      </trkpt>
      <trkpt lat="42.59909" lon="1.82949">
        <ele>1945.2</ele>
        <time>2021-08-04T07:32:23.000Z</time>
      </trkpt>
      <trkpt lat="42.59907" lon="1.82937">
        <ele>1942.8</ele>
        <time>2021-08-04T07:32:40.000Z</time>
      </trkpt>
      <trkpt lat="42.59907" lon="1.82924">
        <ele>1940.1</ele>
        <time>2021-08-04T07:32:55.000Z</time>
      </trkpt>
      <trkpt lat="42.59912" lon="1.82914">
        <ele>1938.6</ele>
        <time>2021-08-04T07:33:05.000Z</time>
      </trkpt>
      <trkpt lat="42.59919" lon="1.82906">
        <ele>1936.2</ele>
        <time>2021-08-04T07:33:18.000Z</time>
      </trkpt>
      <trkpt lat="42.59917" lon="1.82905">
        <ele>1934.4</ele>
        <time>2021-08-04T07:33:28.000Z</time>
      </trkpt>
      <trkpt lat="42.59917" lon="1.82905">
        <ele>1934.1</ele>
        <time>2021-08-04T07:33:31.000Z</time>
      </trkpt>
      <trkpt lat="42.59917" lon="1.82904">
        <ele>1934</ele>
        <time>2021-08-04T07:33:32.000Z</time>
      </trkpt>
      <trkpt lat="42.59917" lon="1.82904">
        <ele>1932.7</ele>
        <time>2021-08-04T07:33:39.000Z</time>
      </trkpt>
      <trkpt lat="42.59915" lon="1.82893">
        <ele>1928.6</ele>
        <time>2021-08-04T07:34:04.000Z</time>
      </trkpt>
      <trkpt lat="42.59915" lon="1.82893">
        <ele>1928.3</ele>
        <time>2021-08-04T07:34:06.000Z</time>
      </trkpt>
      <trkpt lat="42.59916" lon="1.82881">
        <ele>1923.8</ele>
        <time>2021-08-04T07:34:30.000Z</time>
      </trkpt>
      <trkpt lat="42.59924" lon="1.82873">
        <ele>1919.8</ele>
        <time>2021-08-04T07:34:54.000Z</time>
      </trkpt>
      <trkpt lat="42.59924" lon="1.82871">
        <ele>1918.7</ele>
        <time>2021-08-04T07:35:00.000Z</time>
      </trkpt>
      <trkpt lat="42.59924" lon="1.8287">
        <ele>1918.5</ele>
        <time>2021-08-04T07:35:01.000Z</time>
      </trkpt>
      <trkpt lat="42.5992" lon="1.82859">
        <ele>1915.3</ele>
        <time>2021-08-04T07:35:17.000Z</time>
      </trkpt>
      <trkpt lat="42.59923" lon="1.82847">
        <ele>1913.1</ele>
        <time>2021-08-04T07:35:30.000Z</time>
      </trkpt>
      <trkpt lat="42.59927" lon="1.82836">
        <ele>1910.8</ele>
        <time>2021-08-04T07:35:43.000Z</time>
      </trkpt>
      <trkpt lat="42.59927" lon="1.82823">
        <ele>1908.3</ele>
        <time>2021-08-04T07:35:59.000Z</time>
      </trkpt>
      <trkpt lat="42.59927" lon="1.8281">
        <ele>1906</ele>
        <time>2021-08-04T07:36:12.000Z</time>
      </trkpt>
      <trkpt lat="42.59933" lon="1.82802">
        <ele>1903.6</ele>
        <time>2021-08-04T07:36:24.000Z</time>
      </trkpt>
      <trkpt lat="42.59938" lon="1.8279">
        <ele>1900.3</ele>
        <time>2021-08-04T07:36:43.000Z</time>
      </trkpt>
      <trkpt lat="42.59938" lon="1.82789">
        <ele>1900</ele>
        <time>2021-08-04T07:36:47.000Z</time>
      </trkpt>
      <trkpt lat="42.59938" lon="1.82788">
        <ele>1898.8</ele>
        <time>2021-08-04T07:36:59.000Z</time>
      </trkpt>
      <trkpt lat="42.59938" lon="1.82787">
        <ele>1898.6</ele>
        <time>2021-08-04T07:37:01.000Z</time>
      </trkpt>
      <trkpt lat="42.59939" lon="1.82787">
        <ele>1898.2</ele>
        <time>2021-08-04T07:37:04.000Z</time>
      </trkpt>
      <trkpt lat="42.59939" lon="1.82787">
        <ele>1898.1</ele>
        <time>2021-08-04T07:37:05.000Z</time>
      </trkpt>
      <trkpt lat="42.59939" lon="1.82786">
        <ele>1897.9</ele>
        <time>2021-08-04T07:37:06.000Z</time>
      </trkpt>
      <trkpt lat="42.59938" lon="1.82786">
        <ele>1897.7</ele>
        <time>2021-08-04T07:37:08.000Z</time>
      </trkpt>
      <trkpt lat="42.59938" lon="1.82786">
        <ele>1897.2</ele>
        <time>2021-08-04T07:37:10.000Z</time>
      </trkpt>
      <trkpt lat="42.59938" lon="1.82786">
        <ele>1896.8</ele>
        <time>2021-08-04T07:37:11.000Z</time>
      </trkpt>
      <trkpt lat="42.59938" lon="1.82786">
        <ele>1896.5</ele>
        <time>2021-08-04T07:37:12.000Z</time>
      </trkpt>
      <trkpt lat="42.59938" lon="1.82786">
        <ele>1896.4</ele>
        <time>2021-08-04T07:37:15.000Z</time>
      </trkpt>
      <trkpt lat="42.59938" lon="1.82786">
        <ele>1896.5</ele>
        <time>2021-08-04T07:37:16.000Z</time>
      </trkpt>
      <trkpt lat="42.59938" lon="1.82786">
        <ele>1896.5</ele>
        <time>2021-08-04T07:37:17.000Z</time>
      </trkpt>
      <trkpt lat="42.59938" lon="1.82786">
        <ele>1895.4</ele>
        <time>2021-08-04T07:37:47.000Z</time>
      </trkpt>
      <trkpt lat="42.59938" lon="1.82786">
        <ele>1895.2</ele>
        <time>2021-08-04T07:37:48.000Z</time>
      </trkpt>
      <trkpt lat="42.59938" lon="1.82786">
        <ele>1894.2</ele>
        <time>2021-08-04T07:38:25.000Z</time>
      </trkpt>
      <trkpt lat="42.59938" lon="1.82786">
        <ele>1894.1</ele>
        <time>2021-08-04T07:38:26.000Z</time>
      </trkpt>
      <trkpt lat="42.59938" lon="1.82786">
        <ele>1893.3</ele>
        <time>2021-08-04T07:38:58.000Z</time>
      </trkpt>
      <trkpt lat="42.59938" lon="1.82787">
        <ele>1893.3</ele>
        <time>2021-08-04T07:39:00.000Z</time>
      </trkpt>
      <trkpt lat="42.59939" lon="1.82787">
        <ele>1893.2</ele>
        <time>2021-08-04T07:39:04.000Z</time>
      </trkpt>
      <trkpt lat="42.59939" lon="1.82787">
        <ele>1893.3</ele>
        <time>2021-08-04T07:39:06.000Z</time>
      </trkpt>
      <trkpt lat="42.59939" lon="1.82787">
        <ele>1893.1</ele>
        <time>2021-08-04T07:39:10.000Z</time>
      </trkpt>
      <trkpt lat="42.59939" lon="1.82787">
        <ele>1893</ele>
        <time>2021-08-04T07:39:11.000Z</time>
      </trkpt>
      <trkpt lat="42.59939" lon="1.82787">
        <ele>1892.8</ele>
        <time>2021-08-04T07:39:14.000Z</time>
      </trkpt>
      <trkpt lat="42.59939" lon="1.82787">
        <ele>1892.8</ele>
        <time>2021-08-04T07:39:15.000Z</time>
      </trkpt>
      <trkpt lat="42.5994" lon="1.82787">
        <ele>1892.9</ele>
        <time>2021-08-04T07:39:24.000Z</time>
      </trkpt>
      <trkpt lat="42.5994" lon="1.82787">
        <ele>1892.9</ele>
        <time>2021-08-04T07:39:27.000Z</time>
      </trkpt>
      <trkpt lat="42.5994" lon="1.82788">
        <ele>1892.8</ele>
        <time>2021-08-04T07:39:33.000Z</time>
      </trkpt>
      <trkpt lat="42.5994" lon="1.82788">
        <ele>1892.6</ele>
        <time>2021-08-04T07:39:36.000Z</time>
      </trkpt>
      <trkpt lat="42.5994" lon="1.82788">
        <ele>1892.7</ele>
        <time>2021-08-04T07:39:37.000Z</time>
      </trkpt>
      <trkpt lat="42.5994" lon="1.82788">
        <ele>1892.8</ele>
        <time>2021-08-04T07:39:38.000Z</time>
      </trkpt>
      <trkpt lat="42.5994" lon="1.82789">
        <ele>1892.1</ele>
        <time>2021-08-04T07:40:11.000Z</time>
      </trkpt>
      <trkpt lat="42.5994" lon="1.82789">
        <ele>1891.8</ele>
        <time>2021-08-04T07:40:13.000Z</time>
      </trkpt>
      <trkpt lat="42.5994" lon="1.82788">
        <ele>1891.6</ele>
        <time>2021-08-04T07:40:15.000Z</time>
      </trkpt>
      <trkpt lat="42.59936" lon="1.82777">
        <ele>1891.5</ele>
        <time>2021-08-04T07:40:28.000Z</time>
      </trkpt>
      <trkpt lat="42.59935" lon="1.82765">
        <ele>1890.9</ele>
        <time>2021-08-04T07:40:37.000Z</time>
      </trkpt>
      <trkpt lat="42.59931" lon="1.82753">
        <ele>1890.8</ele>
        <time>2021-08-04T07:40:46.000Z</time>
      </trkpt>
      <trkpt lat="42.59929" lon="1.82741">
        <ele>1889.8</ele>
        <time>2021-08-04T07:40:55.000Z</time>
      </trkpt>
      <trkpt lat="42.59929" lon="1.82728">
        <ele>1889.2</ele>
        <time>2021-08-04T07:41:04.000Z</time>
      </trkpt>
      <trkpt lat="42.5993" lon="1.82716">
        <ele>1887.8</ele>
        <time>2021-08-04T07:41:15.000Z</time>
      </trkpt>
      <trkpt lat="42.59928" lon="1.82704">
        <ele>1886.5</ele>
        <time>2021-08-04T07:41:26.000Z</time>
      </trkpt>
      <trkpt lat="42.5993" lon="1.82691">
        <ele>1885.3</ele>
        <time>2021-08-04T07:41:35.000Z</time>
      </trkpt>
      <trkpt lat="42.59928" lon="1.82679">
        <ele>1884.1</ele>
        <time>2021-08-04T07:41:45.000Z</time>
      </trkpt>
      <trkpt lat="42.59925" lon="1.82667">
        <ele>1883.8</ele>
        <time>2021-08-04T07:41:56.000Z</time>
      </trkpt>
      <trkpt lat="42.59923" lon="1.8266">
        <ele>1883.4</ele>
        <time>2021-08-04T07:42:04.000Z</time>
      </trkpt>
      <trkpt lat="42.59923" lon="1.8266">
        <ele>1882.9</ele>
        <time>2021-08-04T07:42:15.000Z</time>
      </trkpt>
      <trkpt lat="42.59918" lon="1.82649">
        <ele>1883.1</ele>
        <time>2021-08-04T07:42:24.000Z</time>
      </trkpt>
      <trkpt lat="42.59916" lon="1.82636">
        <ele>1883</ele>
        <time>2021-08-04T07:42:33.000Z</time>
      </trkpt>
      <trkpt lat="42.59916" lon="1.82623">
        <ele>1882.5</ele>
        <time>2021-08-04T07:42:42.000Z</time>
      </trkpt>
      <trkpt lat="42.59913" lon="1.8261">
        <ele>1881.2</ele>
        <time>2021-08-04T07:42:55.000Z</time>
      </trkpt>
      <trkpt lat="42.59908" lon="1.826">
        <ele>1879</ele>
        <time>2021-08-04T07:43:11.000Z</time>
      </trkpt>
      <trkpt lat="42.599" lon="1.82591">
        <ele>1875.9</ele>
        <time>2021-08-04T07:43:29.000Z</time>
      </trkpt>
      <trkpt lat="42.59898" lon="1.82579">
        <ele>1874.1</ele>
        <time>2021-08-04T07:43:38.000Z</time>
      </trkpt>
      <trkpt lat="42.59902" lon="1.82567">
        <ele>1872.7</ele>
        <time>2021-08-04T07:43:47.000Z</time>
      </trkpt>
      <trkpt lat="42.59904" lon="1.82555">
        <ele>1871.6</ele>
        <time>2021-08-04T07:43:55.000Z</time>
      </trkpt>
      <trkpt lat="42.59905" lon="1.82541">
        <ele>1870.4</ele>
        <time>2021-08-04T07:44:04.000Z</time>
      </trkpt>
      <trkpt lat="42.59906" lon="1.82529">
        <ele>1869.4</ele>
        <time>2021-08-04T07:44:13.000Z</time>
      </trkpt>
      <trkpt lat="42.59908" lon="1.82516">
        <ele>1868.1</ele>
        <time>2021-08-04T07:44:22.000Z</time>
      </trkpt>
      <trkpt lat="42.59904" lon="1.82504">
        <ele>1865.4</ele>
        <time>2021-08-04T07:44:39.000Z</time>
      </trkpt>
      <trkpt lat="42.59903" lon="1.82491">
        <ele>1863.1</ele>
        <time>2021-08-04T07:44:51.000Z</time>
      </trkpt>
      <trkpt lat="42.59902" lon="1.82481">
        <ele>1861.2</ele>
        <time>2021-08-04T07:45:02.000Z</time>
      </trkpt>
      <trkpt lat="42.59902" lon="1.82481">
        <ele>1860</ele>
        <time>2021-08-04T07:45:08.000Z</time>
      </trkpt>
      <trkpt lat="42.59902" lon="1.82481">
        <ele>1859.9</ele>
        <time>2021-08-04T07:45:09.000Z</time>
      </trkpt>
      <trkpt lat="42.59902" lon="1.82481">
        <ele>1858.9</ele>
        <time>2021-08-04T07:45:21.000Z</time>
      </trkpt>
      <trkpt lat="42.59903" lon="1.82482">
        <ele>1858.4</ele>
        <time>2021-08-04T07:45:24.000Z</time>
      </trkpt>
      <trkpt lat="42.59903" lon="1.82482">
        <ele>1858.2</ele>
        <time>2021-08-04T07:45:28.000Z</time>
      </trkpt>
      <trkpt lat="42.59903" lon="1.82482">
        <ele>1858.3</ele>
        <time>2021-08-04T07:45:29.000Z</time>
      </trkpt>
      <trkpt lat="42.59903" lon="1.82482">
        <ele>1859.3</ele>
        <time>2021-08-04T07:45:37.000Z</time>
      </trkpt>
      <trkpt lat="42.59904" lon="1.82482">
        <ele>1858</ele>
        <time>2021-08-04T07:45:41.000Z</time>
      </trkpt>
      <trkpt lat="42.59904" lon="1.82482">
        <ele>1856.4</ele>
        <time>2021-08-04T07:45:46.000Z</time>
      </trkpt>
      <trkpt lat="42.59904" lon="1.82482">
        <ele>1856</ele>
        <time>2021-08-04T07:45:47.000Z</time>
      </trkpt>
      <trkpt lat="42.59904" lon="1.82482">
        <ele>1840.3</ele>
        <time>2021-08-04T07:46:57.000Z</time>
      </trkpt>
      <trkpt lat="42.59904" lon="1.82482">
        <ele>1841.8</ele>
        <time>2021-08-04T07:46:58.000Z</time>
      </trkpt>
      <trkpt lat="42.59904" lon="1.82482">
        <ele>1842.2</ele>
        <time>2021-08-04T07:46:59.000Z</time>
      </trkpt>
      <trkpt lat="42.59905" lon="1.82482">
        <ele>1841.3</ele>
        <time>2021-08-04T07:47:01.000Z</time>
      </trkpt>
      <trkpt lat="42.59905" lon="1.82482">
        <ele>1841.2</ele>
        <time>2021-08-04T07:47:05.000Z</time>
      </trkpt>
      <trkpt lat="42.59905" lon="1.82482">
        <ele>1841.7</ele>
        <time>2021-08-04T07:47:06.000Z</time>
      </trkpt>
      <trkpt lat="42.59905" lon="1.82482">
        <ele>1842.3</ele>
        <time>2021-08-04T07:47:08.000Z</time>
      </trkpt>
      <trkpt lat="42.59905" lon="1.82482">
        <ele>1842.3</ele>
        <time>2021-08-04T07:47:09.000Z</time>
      </trkpt>
      <trkpt lat="42.59905" lon="1.82482">
        <ele>1844</ele>
        <time>2021-08-04T07:47:15.000Z</time>
      </trkpt>
      <trkpt lat="42.59907" lon="1.8247">
        <ele>1845.7</ele>
        <time>2021-08-04T07:47:29.000Z</time>
      </trkpt>
      <trkpt lat="42.59909" lon="1.82458">
        <ele>1846.8</ele>
        <time>2021-08-04T07:47:41.000Z</time>
      </trkpt>
      <trkpt lat="42.59911" lon="1.82446">
        <ele>1847.2</ele>
        <time>2021-08-04T07:47:52.000Z</time>
      </trkpt>
      <trkpt lat="42.59912" lon="1.82433">
        <ele>1846.9</ele>
        <time>2021-08-04T07:48:04.000Z</time>
      </trkpt>
      <trkpt lat="42.59911" lon="1.82421">
        <ele>1845.7</ele>
        <time>2021-08-04T07:48:22.000Z</time>
      </trkpt>
      <trkpt lat="42.5991" lon="1.82408">
        <ele>1844.9</ele>
        <time>2021-08-04T07:48:43.000Z</time>
      </trkpt>
      <trkpt lat="42.5991" lon="1.82408">
        <ele>1845.1</ele>
        <time>2021-08-04T07:48:45.000Z</time>
      </trkpt>
      <trkpt lat="42.5991" lon="1.82408">
        <ele>1845</ele>
        <time>2021-08-04T07:48:53.000Z</time>
      </trkpt>
      <trkpt lat="42.5991" lon="1.82408">
        <ele>1845</ele>
        <time>2021-08-04T07:48:54.000Z</time>
      </trkpt>
      <trkpt lat="42.5991" lon="1.82408">
        <ele>1844.5</ele>
        <time>2021-08-04T07:49:02.000Z</time>
      </trkpt>
      <trkpt lat="42.5991" lon="1.82408">
        <ele>1844.4</ele>
        <time>2021-08-04T07:49:03.000Z</time>
      </trkpt>
      <trkpt lat="42.5991" lon="1.82408">
        <ele>1844.4</ele>
        <time>2021-08-04T07:49:13.000Z</time>
      </trkpt>
      <trkpt lat="42.5991" lon="1.82408">
        <ele>1844.4</ele>
        <time>2021-08-04T07:49:14.000Z</time>
      </trkpt>
      <trkpt lat="42.5991" lon="1.82408">
        <ele>1843.4</ele>
        <time>2021-08-04T07:49:41.000Z</time>
      </trkpt>
      <trkpt lat="42.5991" lon="1.82408">
        <ele>1843.3</ele>
        <time>2021-08-04T07:49:43.000Z</time>
      </trkpt>
      <trkpt lat="42.5991" lon="1.82407">
        <ele>1842.9</ele>
        <time>2021-08-04T07:49:50.000Z</time>
      </trkpt>
      <trkpt lat="42.59913" lon="1.82395">
        <ele>1843.1</ele>
        <time>2021-08-04T07:50:00.000Z</time>
      </trkpt>
      <trkpt lat="42.59915" lon="1.82382">
        <ele>1843.1</ele>
        <time>2021-08-04T07:50:09.000Z</time>
      </trkpt>
      <trkpt lat="42.59912" lon="1.82369">
        <ele>1842.9</ele>
        <time>2021-08-04T07:50:18.000Z</time>
      </trkpt>
      <trkpt lat="42.59908" lon="1.82358">
        <ele>1842.6</ele>
        <time>2021-08-04T07:50:26.000Z</time>
      </trkpt>
      <trkpt lat="42.59905" lon="1.82346">
        <ele>1842</ele>
        <time>2021-08-04T07:50:36.000Z</time>
      </trkpt>
      <trkpt lat="42.59898" lon="1.82336">
        <ele>1841.7</ele>
        <time>2021-08-04T07:50:46.000Z</time>
      </trkpt>
      <trkpt lat="42.59893" lon="1.82326">
        <ele>1841.8</ele>
        <time>2021-08-04T07:50:56.000Z</time>
      </trkpt>
      <trkpt lat="42.5989" lon="1.82314">
        <ele>1841.4</ele>
        <time>2021-08-04T07:51:08.000Z</time>
      </trkpt>
      <trkpt lat="42.59886" lon="1.82302">
        <ele>1841.6</ele>
        <time>2021-08-04T07:51:17.000Z</time>
      </trkpt>
      <trkpt lat="42.59885" lon="1.82288">
        <ele>1841.3</ele>
        <time>2021-08-04T07:51:27.000Z</time>
      </trkpt>
      <trkpt lat="42.59882" lon="1.82277">
        <ele>1841.1</ele>
        <time>2021-08-04T07:51:38.000Z</time>
      </trkpt>
      <trkpt lat="42.59881" lon="1.82264">
        <ele>1840.9</ele>
        <time>2021-08-04T07:51:48.000Z</time>
      </trkpt>
      <trkpt lat="42.59882" lon="1.8225">
        <ele>1840.6</ele>
        <time>2021-08-04T07:51:57.000Z</time>
      </trkpt>
      <trkpt lat="42.5988" lon="1.82237">
        <ele>1840.4</ele>
        <time>2021-08-04T07:52:06.000Z</time>
      </trkpt>
      <trkpt lat="42.59874" lon="1.82227">
        <ele>1839.8</ele>
        <time>2021-08-04T07:52:15.000Z</time>
      </trkpt>
      <trkpt lat="42.5987" lon="1.82216">
        <ele>1839.4</ele>
        <time>2021-08-04T07:52:27.000Z</time>
      </trkpt>
      <trkpt lat="42.59871" lon="1.82203">
        <ele>1838.4</ele>
        <time>2021-08-04T07:52:39.000Z</time>
      </trkpt>
      <trkpt lat="42.5987" lon="1.82191">
        <ele>1837.2</ele>
        <time>2021-08-04T07:52:49.000Z</time>
      </trkpt>
      <trkpt lat="42.5987" lon="1.8219">
        <ele>1837</ele>
        <time>2021-08-04T07:52:52.000Z</time>
      </trkpt>
      <trkpt lat="42.5987" lon="1.82189">
        <ele>1836.4</ele>
        <time>2021-08-04T07:53:01.000Z</time>
      </trkpt>
      <trkpt lat="42.59873" lon="1.82177">
        <ele>1835.8</ele>
        <time>2021-08-04T07:53:10.000Z</time>
      </trkpt>
      <trkpt lat="42.59874" lon="1.82164">
        <ele>1835.6</ele>
        <time>2021-08-04T07:53:19.000Z</time>
      </trkpt>
      <trkpt lat="42.59874" lon="1.82152">
        <ele>1834.2</ele>
        <time>2021-08-04T07:53:29.000Z</time>
      </trkpt>
      <trkpt lat="42.59875" lon="1.82139">
        <ele>1832.9</ele>
        <time>2021-08-04T07:53:41.000Z</time>
      </trkpt>
      <trkpt lat="42.59877" lon="1.82127">
        <ele>1832</ele>
        <time>2021-08-04T07:53:51.000Z</time>
      </trkpt>
      <trkpt lat="42.59883" lon="1.82118">
        <ele>1830.8</ele>
        <time>2021-08-04T07:54:03.000Z</time>
      </trkpt>
      <trkpt lat="42.59884" lon="1.82105">
        <ele>1829.9</ele>
        <time>2021-08-04T07:54:12.000Z</time>
      </trkpt>
      <trkpt lat="42.59887" lon="1.82093">
        <ele>1829</ele>
        <time>2021-08-04T07:54:22.000Z</time>
      </trkpt>
      <trkpt lat="42.5989" lon="1.8208">
        <ele>1828.1</ele>
        <time>2021-08-04T07:54:32.000Z</time>
      </trkpt>
      <trkpt lat="42.59896" lon="1.8207">
        <ele>1827.1</ele>
        <time>2021-08-04T07:54:44.000Z</time>
      </trkpt>
      <trkpt lat="42.59897" lon="1.82058">
        <ele>1826.4</ele>
        <time>2021-08-04T07:54:54.000Z</time>
      </trkpt>
      <trkpt lat="42.59902" lon="1.82046">
        <ele>1825.7</ele>
        <time>2021-08-04T07:55:03.000Z</time>
      </trkpt>
      <trkpt lat="42.59906" lon="1.82035">
        <ele>1825</ele>
        <time>2021-08-04T07:55:13.000Z</time>
      </trkpt>
      <trkpt lat="42.5991" lon="1.82024">
        <ele>1824.5</ele>
        <time>2021-08-04T07:55:22.000Z</time>
      </trkpt>
      <trkpt lat="42.5991" lon="1.82011">
        <ele>1823.9</ele>
        <time>2021-08-04T07:55:34.000Z</time>
      </trkpt>
      <trkpt lat="42.59911" lon="1.81998">
        <ele>1824.3</ele>
        <time>2021-08-04T07:55:46.000Z</time>
      </trkpt>
      <trkpt lat="42.59912" lon="1.81985">
        <ele>1824.7</ele>
        <time>2021-08-04T07:56:01.000Z</time>
      </trkpt>
      <trkpt lat="42.5991" lon="1.81973">
        <ele>1825.2</ele>
        <time>2021-08-04T07:56:16.000Z</time>
      </trkpt>
      <trkpt lat="42.5991" lon="1.8196">
        <ele>1826.7</ele>
        <time>2021-08-04T07:56:31.000Z</time>
      </trkpt>
      <trkpt lat="42.59909" lon="1.81947">
        <ele>1828.3</ele>
        <time>2021-08-04T07:56:50.000Z</time>
      </trkpt>
      <trkpt lat="42.59907" lon="1.81935">
        <ele>1830.1</ele>
        <time>2021-08-04T07:57:06.000Z</time>
      </trkpt>
      <trkpt lat="42.59905" lon="1.81922">
        <ele>1831.4</ele>
        <time>2021-08-04T07:57:20.000Z</time>
      </trkpt>
      <trkpt lat="42.59901" lon="1.81911">
        <ele>1832.6</ele>
        <time>2021-08-04T07:57:32.000Z</time>
      </trkpt>
      <trkpt lat="42.59894" lon="1.81907">
        <ele>1834.4</ele>
        <time>2021-08-04T07:57:48.000Z</time>
      </trkpt>
      <trkpt lat="42.59894" lon="1.81907">
        <ele>1835</ele>
        <time>2021-08-04T07:58:09.000Z</time>
      </trkpt>
      <trkpt lat="42.59894" lon="1.81907">
        <ele>1834.8</ele>
        <time>2021-08-04T07:58:13.000Z</time>
      </trkpt>
      <trkpt lat="42.59894" lon="1.81907">
        <ele>1835.3</ele>
        <time>2021-08-04T07:58:14.000Z</time>
      </trkpt>
      <trkpt lat="42.59894" lon="1.81907">
        <ele>1835.6</ele>
        <time>2021-08-04T07:58:15.000Z</time>
      </trkpt>
      <trkpt lat="42.59894" lon="1.81907">
        <ele>1825.8</ele>
        <time>2021-08-04T07:58:52.000Z</time>
      </trkpt>
      <trkpt lat="42.59893" lon="1.81906">
        <ele>1826</ele>
        <time>2021-08-04T07:58:55.000Z</time>
      </trkpt>
      <trkpt lat="42.59894" lon="1.81907">
        <ele>1829.1</ele>
        <time>2021-08-04T07:59:15.000Z</time>
      </trkpt>
      <trkpt lat="42.59894" lon="1.81907">
        <ele>1829.3</ele>
        <time>2021-08-04T07:59:16.000Z</time>
      </trkpt>
      <trkpt lat="42.59894" lon="1.81906">
        <ele>1834.5</ele>
        <time>2021-08-04T08:01:30.000Z</time>
      </trkpt>
      <trkpt lat="42.59885" lon="1.819">
        <ele>1836.6</ele>
        <time>2021-08-04T08:01:44.000Z</time>
      </trkpt>
      <trkpt lat="42.59876" lon="1.81894">
        <ele>1836.6</ele>
        <time>2021-08-04T08:01:56.000Z</time>
      </trkpt>
      <trkpt lat="42.59875" lon="1.81893">
        <ele>1836.8</ele>
        <time>2021-08-04T08:02:00.000Z</time>
      </trkpt>
      <trkpt lat="42.59875" lon="1.81893">
        <ele>1836.9</ele>
        <time>2021-08-04T08:02:01.000Z</time>
      </trkpt>
      <trkpt lat="42.59867" lon="1.81885">
        <ele>1837.5</ele>
        <time>2021-08-04T08:02:13.000Z</time>
      </trkpt>
      <trkpt lat="42.59862" lon="1.81875">
        <ele>1838.2</ele>
        <time>2021-08-04T08:02:25.000Z</time>
      </trkpt>
      <trkpt lat="42.59857" lon="1.81863">
        <ele>1837.5</ele>
        <time>2021-08-04T08:02:38.000Z</time>
      </trkpt>
      <trkpt lat="42.59853" lon="1.81851">
        <ele>1836.6</ele>
        <time>2021-08-04T08:02:50.000Z</time>
      </trkpt>
      <trkpt lat="42.59845" lon="1.81844">
        <ele>1835.9</ele>
        <time>2021-08-04T08:02:59.000Z</time>
      </trkpt>
      <trkpt lat="42.59837" lon="1.81836">
        <ele>1834.5</ele>
        <time>2021-08-04T08:03:10.000Z</time>
      </trkpt>
      <trkpt lat="42.59831" lon="1.81828">
        <ele>1832.7</ele>
        <time>2021-08-04T08:03:21.000Z</time>
      </trkpt>
      <trkpt lat="42.59821" lon="1.81825">
        <ele>1831.2</ele>
        <time>2021-08-04T08:03:31.000Z</time>
      </trkpt>
      <trkpt lat="42.59813" lon="1.81819">
        <ele>1829.7</ele>
        <time>2021-08-04T08:03:40.000Z</time>
      </trkpt>
      <trkpt lat="42.59804" lon="1.81816">
        <ele>1827.8</ele>
        <time>2021-08-04T08:03:52.000Z</time>
      </trkpt>
      <trkpt lat="42.59799" lon="1.81816">
        <ele>1826.3</ele>
        <time>2021-08-04T08:04:02.000Z</time>
      </trkpt>
      <trkpt lat="42.59799" lon="1.81816">
        <ele>1825.8</ele>
        <time>2021-08-04T08:04:04.000Z</time>
      </trkpt>
      <trkpt lat="42.598" lon="1.81815">
        <ele>1825</ele>
        <time>2021-08-04T08:04:10.000Z</time>
      </trkpt>
      <trkpt lat="42.598" lon="1.81815">
        <ele>1824.9</ele>
        <time>2021-08-04T08:04:13.000Z</time>
      </trkpt>
      <trkpt lat="42.598" lon="1.81815">
        <ele>1824.6</ele>
        <time>2021-08-04T08:04:16.000Z</time>
      </trkpt>
      <trkpt lat="42.59801" lon="1.81815">
        <ele>1824.4</ele>
        <time>2021-08-04T08:04:17.000Z</time>
      </trkpt>
      <trkpt lat="42.598" lon="1.81814">
        <ele>1824</ele>
        <time>2021-08-04T08:04:21.000Z</time>
      </trkpt>
      <trkpt lat="42.598" lon="1.81814">
        <ele>1823.7</ele>
        <time>2021-08-04T08:04:24.000Z</time>
      </trkpt>
      <trkpt lat="42.59791" lon="1.81814">
        <ele>1821.8</ele>
        <time>2021-08-04T08:04:37.000Z</time>
      </trkpt>
      <trkpt lat="42.59781" lon="1.81816">
        <ele>1820.9</ele>
        <time>2021-08-04T08:04:45.000Z</time>
      </trkpt>
      <trkpt lat="42.59772" lon="1.81814">
        <ele>1819.2</ele>
        <time>2021-08-04T08:04:57.000Z</time>
      </trkpt>
      <trkpt lat="42.59767" lon="1.81801">
        <ele>1817</ele>
        <time>2021-08-04T08:05:09.000Z</time>
      </trkpt>
      <trkpt lat="42.59763" lon="1.8179">
        <ele>1815.8</ele>
        <time>2021-08-04T08:05:17.000Z</time>
      </trkpt>
      <trkpt lat="42.59755" lon="1.81786">
        <ele>1813.6</ele>
        <time>2021-08-04T08:05:29.000Z</time>
      </trkpt>
      <trkpt lat="42.59746" lon="1.81781">
        <ele>1811.3</ele>
        <time>2021-08-04T08:05:41.000Z</time>
      </trkpt>
      <trkpt lat="42.5974" lon="1.81771">
        <ele>1809.3</ele>
        <time>2021-08-04T08:05:52.000Z</time>
      </trkpt>
      <trkpt lat="42.59732" lon="1.81764">
        <ele>1806.6</ele>
        <time>2021-08-04T08:06:05.000Z</time>
      </trkpt>
      <trkpt lat="42.59725" lon="1.81755">
        <ele>1804.4</ele>
        <time>2021-08-04T08:06:17.000Z</time>
      </trkpt>
      <trkpt lat="42.59717" lon="1.81748">
        <ele>1802.5</ele>
        <time>2021-08-04T08:06:27.000Z</time>
      </trkpt>
      <trkpt lat="42.59712" lon="1.81738">
        <ele>1799.6</ele>
        <time>2021-08-04T08:06:43.000Z</time>
      </trkpt>
      <trkpt lat="42.5971" lon="1.81725">
        <ele>1797.6</ele>
        <time>2021-08-04T08:06:55.000Z</time>
      </trkpt>
      <trkpt lat="42.59705" lon="1.81715">
        <ele>1795.3</ele>
        <time>2021-08-04T08:07:07.000Z</time>
      </trkpt>
      <trkpt lat="42.597" lon="1.81704">
        <ele>1793.7</ele>
        <time>2021-08-04T08:07:18.000Z</time>
      </trkpt>
      <trkpt lat="42.59694" lon="1.81695">
        <ele>1792.8</ele>
        <time>2021-08-04T08:07:28.000Z</time>
      </trkpt>
      <trkpt lat="42.59689" lon="1.81683">
        <ele>1790.9</ele>
        <time>2021-08-04T08:07:42.000Z</time>
      </trkpt>
      <trkpt lat="42.59686" lon="1.81671">
        <ele>1789.9</ele>
        <time>2021-08-04T08:07:52.000Z</time>
      </trkpt>
      <trkpt lat="42.59681" lon="1.8166">
        <ele>1789</ele>
        <time>2021-08-04T08:08:01.000Z</time>
      </trkpt>
      <trkpt lat="42.59673" lon="1.81654">
        <ele>1788.2</ele>
        <time>2021-08-04T08:08:07.000Z</time>
      </trkpt>
      <trkpt lat="42.59666" lon="1.81646">
        <ele>1786.6</ele>
        <time>2021-08-04T08:08:18.000Z</time>
      </trkpt>
      <trkpt lat="42.5966" lon="1.81636">
        <ele>1784.7</ele>
        <time>2021-08-04T08:08:33.000Z</time>
      </trkpt>
      <trkpt lat="42.59656" lon="1.81625">
        <ele>1783.2</ele>
        <time>2021-08-04T08:08:44.000Z</time>
      </trkpt>
      <trkpt lat="42.59651" lon="1.81615">
        <ele>1780.9</ele>
        <time>2021-08-04T08:08:59.000Z</time>
      </trkpt>
      <trkpt lat="42.59644" lon="1.81604">
        <ele>1780</ele>
        <time>2021-08-04T08:09:14.000Z</time>
      </trkpt>
      <trkpt lat="42.59638" lon="1.81594">
        <ele>1778.4</ele>
        <time>2021-08-04T08:09:24.000Z</time>
      </trkpt>
      <trkpt lat="42.5963" lon="1.81588">
        <ele>1777.4</ele>
        <time>2021-08-04T08:09:35.000Z</time>
      </trkpt>
      <trkpt lat="42.59622" lon="1.81581">
        <ele>1776.1</ele>
        <time>2021-08-04T08:09:46.000Z</time>
      </trkpt>
      <trkpt lat="42.5963" lon="1.81575">
        <ele>1774.4</ele>
        <time>2021-08-04T08:09:57.000Z</time>
      </trkpt>
      <trkpt lat="42.59639" lon="1.81573">
        <ele>1771.3</ele>
        <time>2021-08-04T08:10:11.000Z</time>
      </trkpt>
      <trkpt lat="42.59648" lon="1.81576">
        <ele>1769.8</ele>
        <time>2021-08-04T08:10:22.000Z</time>
      </trkpt>
      <trkpt lat="42.59642" lon="1.81566">
        <ele>1766.2</ele>
        <time>2021-08-04T08:10:42.000Z</time>
      </trkpt>
      <trkpt lat="42.5964" lon="1.81563">
        <ele>1765.1</ele>
        <time>2021-08-04T08:10:49.000Z</time>
      </trkpt>
      <trkpt lat="42.59639" lon="1.81563">
        <ele>1764.8</ele>
        <time>2021-08-04T08:10:50.000Z</time>
      </trkpt>
      <trkpt lat="42.5963" lon="1.81556">
        <ele>1762.8</ele>
        <time>2021-08-04T08:11:00.000Z</time>
      </trkpt>
      <trkpt lat="42.59621" lon="1.81554">
        <ele>1760.8</ele>
        <time>2021-08-04T08:11:10.000Z</time>
      </trkpt>
      <trkpt lat="42.59614" lon="1.81546">
        <ele>1758.7</ele>
        <time>2021-08-04T08:11:21.000Z</time>
      </trkpt>
      <trkpt lat="42.59622" lon="1.8154">
        <ele>1756.5</ele>
        <time>2021-08-04T08:11:32.000Z</time>
      </trkpt>
      <trkpt lat="42.59631" lon="1.81536">
        <ele>1754.7</ele>
        <time>2021-08-04T08:11:41.000Z</time>
      </trkpt>
      <trkpt lat="42.59622" lon="1.81536">
        <ele>1748.5</ele>
        <time>2021-08-04T08:12:14.000Z</time>
      </trkpt>
      <trkpt lat="42.59613" lon="1.81536">
        <ele>1746.8</ele>
        <time>2021-08-04T08:12:24.000Z</time>
      </trkpt>
      <trkpt lat="42.5962" lon="1.81529">
        <ele>1744.1</ele>
        <time>2021-08-04T08:12:40.000Z</time>
      </trkpt>
      <trkpt lat="42.59611" lon="1.81525">
        <ele>1738.2</ele>
        <time>2021-08-04T08:13:09.000Z</time>
      </trkpt>
      <trkpt lat="42.59614" lon="1.81513">
        <ele>1735</ele>
        <time>2021-08-04T08:13:26.000Z</time>
      </trkpt>
      <trkpt lat="42.59617" lon="1.81504">
        <ele>1733</ele>
        <time>2021-08-04T08:13:37.000Z</time>
      </trkpt>
      <trkpt lat="42.59617" lon="1.81503">
        <ele>1731.6</ele>
        <time>2021-08-04T08:13:47.000Z</time>
      </trkpt>
      <trkpt lat="42.59609" lon="1.81509">
        <ele>1728.7</ele>
        <time>2021-08-04T08:14:06.000Z</time>
      </trkpt>
      <trkpt lat="42.596" lon="1.81509">
        <ele>1727.1</ele>
        <time>2021-08-04T08:14:15.000Z</time>
      </trkpt>
      <trkpt lat="42.59591" lon="1.81515">
        <ele>1725.8</ele>
        <time>2021-08-04T08:14:23.000Z</time>
      </trkpt>
      <trkpt lat="42.59585" lon="1.81524">
        <ele>1724.5</ele>
        <time>2021-08-04T08:14:36.000Z</time>
      </trkpt>
      <trkpt lat="42.59576" lon="1.81526">
        <ele>1723.8</ele>
        <time>2021-08-04T08:14:45.000Z</time>
      </trkpt>
      <trkpt lat="42.59566" lon="1.81523">
        <ele>1723.7</ele>
        <time>2021-08-04T08:14:56.000Z</time>
      </trkpt>
      <trkpt lat="42.5956" lon="1.81514">
        <ele>1723.6</ele>
        <time>2021-08-04T08:15:11.000Z</time>
      </trkpt>
      <trkpt lat="42.59552" lon="1.81508">
        <ele>1724.2</ele>
        <time>2021-08-04T08:15:27.000Z</time>
      </trkpt>
      <trkpt lat="42.59544" lon="1.815">
        <ele>1724.3</ele>
        <time>2021-08-04T08:15:39.000Z</time>
      </trkpt>
      <trkpt lat="42.59542" lon="1.81488">
        <ele>1724.5</ele>
        <time>2021-08-04T08:15:47.000Z</time>
      </trkpt>
      <trkpt lat="42.59541" lon="1.81476">
        <ele>1724.3</ele>
        <time>2021-08-04T08:15:57.000Z</time>
      </trkpt>
      <trkpt lat="42.59538" lon="1.81464">
        <ele>1724.4</ele>
        <time>2021-08-04T08:16:06.000Z</time>
      </trkpt>
      <trkpt lat="42.59534" lon="1.81451">
        <ele>1724.3</ele>
        <time>2021-08-04T08:16:15.000Z</time>
      </trkpt>
      <trkpt lat="42.59528" lon="1.81442">
        <ele>1724.2</ele>
        <time>2021-08-04T08:16:24.000Z</time>
      </trkpt>
      <trkpt lat="42.59528" lon="1.81441">
        <ele>1724.1</ele>
        <time>2021-08-04T08:16:27.000Z</time>
      </trkpt>
      <trkpt lat="42.59527" lon="1.81441">
        <ele>1724.2</ele>
        <time>2021-08-04T08:16:28.000Z</time>
      </trkpt>
      <trkpt lat="42.5952" lon="1.81433">
        <ele>1724.1</ele>
        <time>2021-08-04T08:16:36.000Z</time>
      </trkpt>
      <trkpt lat="42.59515" lon="1.81422">
        <ele>1724</ele>
        <time>2021-08-04T08:16:44.000Z</time>
      </trkpt>
      <trkpt lat="42.59509" lon="1.81412">
        <ele>1723.5</ele>
        <time>2021-08-04T08:16:53.000Z</time>
      </trkpt>
      <trkpt lat="42.59503" lon="1.81401">
        <ele>1722.8</ele>
        <time>2021-08-04T08:17:01.000Z</time>
      </trkpt>
      <trkpt lat="42.59496" lon="1.81394">
        <ele>1722.2</ele>
        <time>2021-08-04T08:17:11.000Z</time>
      </trkpt>
      <trkpt lat="42.59489" lon="1.81383">
        <ele>1721.3</ele>
        <time>2021-08-04T08:17:20.000Z</time>
      </trkpt>
      <trkpt lat="42.59482" lon="1.81375">
        <ele>1720.5</ele>
        <time>2021-08-04T08:17:29.000Z</time>
      </trkpt>
      <trkpt lat="42.59476" lon="1.81365">
        <ele>1719.5</ele>
        <time>2021-08-04T08:17:39.000Z</time>
      </trkpt>
      <trkpt lat="42.59468" lon="1.81357">
        <ele>1718.7</ele>
        <time>2021-08-04T08:17:48.000Z</time>
      </trkpt>
      <trkpt lat="42.59461" lon="1.81348">
        <ele>1718</ele>
        <time>2021-08-04T08:17:57.000Z</time>
      </trkpt>
      <trkpt lat="42.59461" lon="1.81348">
        <ele>1717.6</ele>
        <time>2021-08-04T08:17:59.000Z</time>
      </trkpt>
      <trkpt lat="42.59461" lon="1.81348">
        <ele>1717.7</ele>
        <time>2021-08-04T08:18:00.000Z</time>
      </trkpt>
      <trkpt lat="42.59453" lon="1.8134">
        <ele>1716.4</ele>
        <time>2021-08-04T08:18:08.000Z</time>
      </trkpt>
      <trkpt lat="42.59445" lon="1.81333">
        <ele>1716.1</ele>
        <time>2021-08-04T08:18:16.000Z</time>
      </trkpt>
      <trkpt lat="42.59436" lon="1.81327">
        <ele>1715.3</ele>
        <time>2021-08-04T08:18:24.000Z</time>
      </trkpt>
      <trkpt lat="42.59429" lon="1.8132">
        <ele>1714.4</ele>
        <time>2021-08-04T08:18:33.000Z</time>
      </trkpt>
      <trkpt lat="42.59422" lon="1.8131">
        <ele>1713.4</ele>
        <time>2021-08-04T08:18:44.000Z</time>
      </trkpt>
      <trkpt lat="42.59415" lon="1.81301">
        <ele>1712.2</ele>
        <time>2021-08-04T08:18:55.000Z</time>
      </trkpt>
      <trkpt lat="42.59408" lon="1.81293">
        <ele>1711.6</ele>
        <time>2021-08-04T08:19:03.000Z</time>
      </trkpt>
      <trkpt lat="42.59402" lon="1.81284">
        <ele>1711.3</ele>
        <time>2021-08-04T08:19:12.000Z</time>
      </trkpt>
      <trkpt lat="42.59395" lon="1.81275">
        <ele>1710.9</ele>
        <time>2021-08-04T08:19:24.000Z</time>
      </trkpt>
      <trkpt lat="42.59387" lon="1.81269">
        <ele>1710.5</ele>
        <time>2021-08-04T08:19:35.000Z</time>
      </trkpt>
      <trkpt lat="42.5938" lon="1.81261">
        <ele>1710.2</ele>
        <time>2021-08-04T08:19:45.000Z</time>
      </trkpt>
      <trkpt lat="42.59373" lon="1.81252">
        <ele>1709.6</ele>
        <time>2021-08-04T08:19:56.000Z</time>
      </trkpt>
      <trkpt lat="42.59368" lon="1.81242">
        <ele>1708.9</ele>
        <time>2021-08-04T08:20:09.000Z</time>
      </trkpt>
      <trkpt lat="42.59359" lon="1.81236">
        <ele>1708.7</ele>
        <time>2021-08-04T08:20:20.000Z</time>
      </trkpt>
      <trkpt lat="42.5935" lon="1.81234">
        <ele>1708</ele>
        <time>2021-08-04T08:20:33.000Z</time>
      </trkpt>
      <trkpt lat="42.59345" lon="1.81231">
        <ele>1706.8</ele>
        <time>2021-08-04T08:20:45.000Z</time>
      </trkpt>
      <trkpt lat="42.59344" lon="1.81231">
        <ele>1706.5</ele>
        <time>2021-08-04T08:20:46.000Z</time>
      </trkpt>
      <trkpt lat="42.59336" lon="1.81224">
        <ele>1705.8</ele>
        <time>2021-08-04T08:20:57.000Z</time>
      </trkpt>
      <trkpt lat="42.59333" lon="1.81222">
        <ele>1704.8</ele>
        <time>2021-08-04T08:21:04.000Z</time>
      </trkpt>
      <trkpt lat="42.59333" lon="1.81222">
        <ele>1704.7</ele>
        <time>2021-08-04T08:21:05.000Z</time>
      </trkpt>
      <trkpt lat="42.59333" lon="1.81222">
        <ele>1704.6</ele>
        <time>2021-08-04T08:21:06.000Z</time>
      </trkpt>
      <trkpt lat="42.59334" lon="1.81223">
        <ele>1704.5</ele>
        <time>2021-08-04T08:21:07.000Z</time>
      </trkpt>
      <trkpt lat="42.59328" lon="1.81211">
        <ele>1701.4</ele>
        <time>2021-08-04T08:21:29.000Z</time>
      </trkpt>
      <trkpt lat="42.59321" lon="1.81204">
        <ele>1699.7</ele>
        <time>2021-08-04T08:21:39.000Z</time>
      </trkpt>
      <trkpt lat="42.59316" lon="1.81192">
        <ele>1698.3</ele>
        <time>2021-08-04T08:21:48.000Z</time>
      </trkpt>
      <trkpt lat="42.59309" lon="1.81184">
        <ele>1696.8</ele>
        <time>2021-08-04T08:21:57.000Z</time>
      </trkpt>
      <trkpt lat="42.59303" lon="1.81173">
        <ele>1694.1</ele>
        <time>2021-08-04T08:22:09.000Z</time>
      </trkpt>
      <trkpt lat="42.59299" lon="1.81169">
        <ele>1692.6</ele>
        <time>2021-08-04T08:22:18.000Z</time>
      </trkpt>
      <trkpt lat="42.59299" lon="1.81169">
        <ele>1692.4</ele>
        <time>2021-08-04T08:22:19.000Z</time>
      </trkpt>
      <trkpt lat="42.59309" lon="1.8117">
        <ele>1688.8</ele>
        <time>2021-08-04T08:22:35.000Z</time>
      </trkpt>
      <trkpt lat="42.59318" lon="1.81173">
        <ele>1686.8</ele>
        <time>2021-08-04T08:22:45.000Z</time>
      </trkpt>
      <trkpt lat="42.59326" lon="1.81181">
        <ele>1684.7</ele>
        <time>2021-08-04T08:22:57.000Z</time>
      </trkpt>
      <trkpt lat="42.59319" lon="1.81172">
        <ele>1680.6</ele>
        <time>2021-08-04T08:23:18.000Z</time>
      </trkpt>
      <trkpt lat="42.59312" lon="1.81165">
        <ele>1678.6</ele>
        <time>2021-08-04T08:23:29.000Z</time>
      </trkpt>
      <trkpt lat="42.59304" lon="1.81156">
        <ele>1677</ele>
        <time>2021-08-04T08:23:39.000Z</time>
      </trkpt>
      <trkpt lat="42.59297" lon="1.81149">
        <ele>1675.1</ele>
        <time>2021-08-04T08:23:49.000Z</time>
      </trkpt>
      <trkpt lat="42.59288" lon="1.81147">
        <ele>1673</ele>
        <time>2021-08-04T08:24:02.000Z</time>
      </trkpt>
      <trkpt lat="42.59278" lon="1.81147">
        <ele>1670.5</ele>
        <time>2021-08-04T08:24:14.000Z</time>
      </trkpt>
      <trkpt lat="42.59269" lon="1.81142">
        <ele>1669</ele>
        <time>2021-08-04T08:24:23.000Z</time>
      </trkpt>
      <trkpt lat="42.5926" lon="1.81145">
        <ele>1666.4</ele>
        <time>2021-08-04T08:24:40.000Z</time>
      </trkpt>
      <trkpt lat="42.59253" lon="1.81136">
        <ele>1664.9</ele>
        <time>2021-08-04T08:24:55.000Z</time>
      </trkpt>
      <trkpt lat="42.5925" lon="1.81125">
        <ele>1664.7</ele>
        <time>2021-08-04T08:25:07.000Z</time>
      </trkpt>
      <trkpt lat="42.59253" lon="1.81113">
        <ele>1664.8</ele>
        <time>2021-08-04T08:25:24.000Z</time>
      </trkpt>
      <trkpt lat="42.59254" lon="1.81113">
        <ele>1664.9</ele>
        <time>2021-08-04T08:25:27.000Z</time>
      </trkpt>
      <trkpt lat="42.59254" lon="1.81113">
        <ele>1664.9</ele>
        <time>2021-08-04T08:25:28.000Z</time>
      </trkpt>
      <trkpt lat="42.59245" lon="1.81107">
        <ele>1665.5</ele>
        <time>2021-08-04T08:25:40.000Z</time>
      </trkpt>
      <trkpt lat="42.59244" lon="1.81106">
        <ele>1666</ele>
        <time>2021-08-04T08:25:44.000Z</time>
      </trkpt>
      <trkpt lat="42.59244" lon="1.81106">
        <ele>1666.1</ele>
        <time>2021-08-04T08:25:47.000Z</time>
      </trkpt>
      <trkpt lat="42.59236" lon="1.81102">
        <ele>1667.3</ele>
        <time>2021-08-04T08:26:01.000Z</time>
      </trkpt>
      <trkpt lat="42.59236" lon="1.81102">
        <ele>1669.3</ele>
        <time>2021-08-04T08:27:14.000Z</time>
      </trkpt>
      <trkpt lat="42.59236" lon="1.81102">
        <ele>1669.2</ele>
        <time>2021-08-04T08:27:15.000Z</time>
      </trkpt>
      <trkpt lat="42.59236" lon="1.81101">
        <ele>1669.2</ele>
        <time>2021-08-04T08:27:17.000Z</time>
      </trkpt>
      <trkpt lat="42.59234" lon="1.811">
        <ele>1669.3</ele>
        <time>2021-08-04T08:27:24.000Z</time>
      </trkpt>
      <trkpt lat="42.59234" lon="1.811">
        <ele>1669.5</ele>
        <time>2021-08-04T08:27:29.000Z</time>
      </trkpt>
      <trkpt lat="42.59234" lon="1.811">
        <ele>1669.4</ele>
        <time>2021-08-04T08:27:30.000Z</time>
      </trkpt>
      <trkpt lat="42.59233" lon="1.811">
        <ele>1669.3</ele>
        <time>2021-08-04T08:27:32.000Z</time>
      </trkpt>
      <trkpt lat="42.59233" lon="1.811">
        <ele>1669.2</ele>
        <time>2021-08-04T08:27:34.000Z</time>
      </trkpt>
      <trkpt lat="42.59233" lon="1.81099">
        <ele>1669.3</ele>
        <time>2021-08-04T08:27:45.000Z</time>
      </trkpt>
      <trkpt lat="42.59233" lon="1.81099">
        <ele>1669.5</ele>
        <time>2021-08-04T08:27:46.000Z</time>
      </trkpt>
      <trkpt lat="42.59233" lon="1.81099">
        <ele>1668.9</ele>
        <time>2021-08-04T08:28:41.000Z</time>
      </trkpt>
      <trkpt lat="42.59233" lon="1.81099">
        <ele>1669</ele>
        <time>2021-08-04T08:28:42.000Z</time>
      </trkpt>
      <trkpt lat="42.59232" lon="1.81099">
        <ele>1668.9</ele>
        <time>2021-08-04T08:29:20.000Z</time>
      </trkpt>
      <trkpt lat="42.59232" lon="1.81099">
        <ele>1668.8</ele>
        <time>2021-08-04T08:29:21.000Z</time>
      </trkpt>
      <trkpt lat="42.59232" lon="1.81099">
        <ele>1668.8</ele>
        <time>2021-08-04T08:29:26.000Z</time>
      </trkpt>
      <trkpt lat="42.59232" lon="1.81099">
        <ele>1668.5</ele>
        <time>2021-08-04T08:29:30.000Z</time>
      </trkpt>
      <trkpt lat="42.59232" lon="1.81099">
        <ele>1668.5</ele>
        <time>2021-08-04T08:29:35.000Z</time>
      </trkpt>
      <trkpt lat="42.59231" lon="1.81099">
        <ele>1668.5</ele>
        <time>2021-08-04T08:29:38.000Z</time>
      </trkpt>
      <trkpt lat="42.59231" lon="1.81099">
        <ele>1668.6</ele>
        <time>2021-08-04T08:29:39.000Z</time>
      </trkpt>
      <trkpt lat="42.59231" lon="1.81099">
        <ele>1668.7</ele>
        <time>2021-08-04T08:29:41.000Z</time>
      </trkpt>
      <trkpt lat="42.59231" lon="1.81099">
        <ele>1668.2</ele>
        <time>2021-08-04T08:29:47.000Z</time>
      </trkpt>
      <trkpt lat="42.59231" lon="1.81098">
        <ele>1668.4</ele>
        <time>2021-08-04T08:29:48.000Z</time>
      </trkpt>
      <trkpt lat="42.59231" lon="1.81098">
        <ele>1668.4</ele>
        <time>2021-08-04T08:29:49.000Z</time>
      </trkpt>
      <trkpt lat="42.59231" lon="1.81098">
        <ele>1668.1</ele>
        <time>2021-08-04T08:29:52.000Z</time>
      </trkpt>
      <trkpt lat="42.59231" lon="1.81099">
        <ele>1668.3</ele>
        <time>2021-08-04T08:30:00.000Z</time>
      </trkpt>
      <trkpt lat="42.59231" lon="1.81099">
        <ele>1668.3</ele>
        <time>2021-08-04T08:30:02.000Z</time>
      </trkpt>
      <trkpt lat="42.59231" lon="1.81099">
        <ele>1668</ele>
        <time>2021-08-04T08:30:09.000Z</time>
      </trkpt>
      <trkpt lat="42.59231" lon="1.81099">
        <ele>1667.9</ele>
        <time>2021-08-04T08:30:10.000Z</time>
      </trkpt>
      <trkpt lat="42.5923" lon="1.81099">
        <ele>1667.9</ele>
        <time>2021-08-04T08:30:11.000Z</time>
      </trkpt>
      <trkpt lat="42.5923" lon="1.81099">
        <ele>1668</ele>
        <time>2021-08-04T08:30:12.000Z</time>
      </trkpt>
      <trkpt lat="42.5923" lon="1.81099">
        <ele>1667.8</ele>
        <time>2021-08-04T08:30:13.000Z</time>
      </trkpt>
      <trkpt lat="42.5923" lon="1.81099">
        <ele>1667.8</ele>
        <time>2021-08-04T08:30:14.000Z</time>
      </trkpt>
      <trkpt lat="42.5923" lon="1.811">
        <ele>1667.8</ele>
        <time>2021-08-04T08:30:41.000Z</time>
      </trkpt>
      <trkpt lat="42.5923" lon="1.811">
        <ele>1667.8</ele>
        <time>2021-08-04T08:30:42.000Z</time>
      </trkpt>
      <trkpt lat="42.5923" lon="1.81099">
        <ele>1667.5</ele>
        <time>2021-08-04T08:31:02.000Z</time>
      </trkpt>
      <trkpt lat="42.5923" lon="1.81099">
        <ele>1667.5</ele>
        <time>2021-08-04T08:31:03.000Z</time>
      </trkpt>
      <trkpt lat="42.5923" lon="1.81099">
        <ele>1667.2</ele>
        <time>2021-08-04T08:31:38.000Z</time>
      </trkpt>
      <trkpt lat="42.59221" lon="1.81098">
        <ele>1666.4</ele>
        <time>2021-08-04T08:31:52.000Z</time>
      </trkpt>
      <trkpt lat="42.59212" lon="1.81095">
        <ele>1665.8</ele>
        <time>2021-08-04T08:32:01.000Z</time>
      </trkpt>
      <trkpt lat="42.59205" lon="1.81087">
        <ele>1665.2</ele>
        <time>2021-08-04T08:32:09.000Z</time>
      </trkpt>
      <trkpt lat="42.59201" lon="1.81075">
        <ele>1663.9</ele>
        <time>2021-08-04T08:32:24.000Z</time>
      </trkpt>
      <trkpt lat="42.59196" lon="1.81065">
        <ele>1662.7</ele>
        <time>2021-08-04T08:32:36.000Z</time>
      </trkpt>
      <trkpt lat="42.5919" lon="1.81055">
        <ele>1661.1</ele>
        <time>2021-08-04T08:32:48.000Z</time>
      </trkpt>
      <trkpt lat="42.59183" lon="1.81045">
        <ele>1660.2</ele>
        <time>2021-08-04T08:32:56.000Z</time>
      </trkpt>
      <trkpt lat="42.59175" lon="1.81037">
        <ele>1659.1</ele>
        <time>2021-08-04T08:33:03.000Z</time>
      </trkpt>
      <trkpt lat="42.5917" lon="1.81027">
        <ele>1658.2</ele>
        <time>2021-08-04T08:33:11.000Z</time>
      </trkpt>
      <trkpt lat="42.59163" lon="1.81018">
        <ele>1656.9</ele>
        <time>2021-08-04T08:33:20.000Z</time>
      </trkpt>
      <trkpt lat="42.59156" lon="1.81008">
        <ele>1655.6</ele>
        <time>2021-08-04T08:33:30.000Z</time>
      </trkpt>
      <trkpt lat="42.59148" lon="1.81">
        <ele>1653.8</ele>
        <time>2021-08-04T08:33:44.000Z</time>
      </trkpt>
      <trkpt lat="42.59139" lon="1.81">
        <ele>1652.6</ele>
        <time>2021-08-04T08:33:55.000Z</time>
      </trkpt>
      <trkpt lat="42.59138" lon="1.80987">
        <ele>1651.7</ele>
        <time>2021-08-04T08:34:04.000Z</time>
      </trkpt>
      <trkpt lat="42.59137" lon="1.80974">
        <ele>1650.2</ele>
        <time>2021-08-04T08:34:16.000Z</time>
      </trkpt>
      <trkpt lat="42.5913" lon="1.80966">
        <ele>1648.7</ele>
        <time>2021-08-04T08:34:27.000Z</time>
      </trkpt>
      <trkpt lat="42.59125" lon="1.80956">
        <ele>1646.9</ele>
        <time>2021-08-04T08:34:41.000Z</time>
      </trkpt>
      <trkpt lat="42.5912" lon="1.80945">
        <ele>1644.4</ele>
        <time>2021-08-04T08:34:55.000Z</time>
      </trkpt>
      <trkpt lat="42.59118" lon="1.80942">
        <ele>1643.4</ele>
        <time>2021-08-04T08:35:02.000Z</time>
      </trkpt>
      <trkpt lat="42.59118" lon="1.80942">
        <ele>1643.2</ele>
        <time>2021-08-04T08:35:03.000Z</time>
      </trkpt>
      <trkpt lat="42.59118" lon="1.80929">
        <ele>1641.3</ele>
        <time>2021-08-04T08:35:17.000Z</time>
      </trkpt>
      <trkpt lat="42.59114" lon="1.80918">
        <ele>1640</ele>
        <time>2021-08-04T08:35:29.000Z</time>
      </trkpt>
      <trkpt lat="42.59108" lon="1.80908">
        <ele>1639.3</ele>
        <time>2021-08-04T08:35:37.000Z</time>
      </trkpt>
      <trkpt lat="42.59103" lon="1.80897">
        <ele>1637.6</ele>
        <time>2021-08-04T08:35:47.000Z</time>
      </trkpt>
      <trkpt lat="42.59099" lon="1.80886">
        <ele>1635.6</ele>
        <time>2021-08-04T08:36:04.000Z</time>
      </trkpt>
      <trkpt lat="42.59091" lon="1.8088">
        <ele>1634.1</ele>
        <time>2021-08-04T08:36:16.000Z</time>
      </trkpt>
      <trkpt lat="42.5909" lon="1.80878">
        <ele>1633.3</ele>
        <time>2021-08-04T08:36:21.000Z</time>
      </trkpt>
      <trkpt lat="42.5909" lon="1.80877">
        <ele>1633</ele>
        <time>2021-08-04T08:36:22.000Z</time>
      </trkpt>
      <trkpt lat="42.59087" lon="1.80864">
        <ele>1632.2</ele>
        <time>2021-08-04T08:36:30.000Z</time>
      </trkpt>
      <trkpt lat="42.59081" lon="1.80854">
        <ele>1630.6</ele>
        <time>2021-08-04T08:36:42.000Z</time>
      </trkpt>
      <trkpt lat="42.59072" lon="1.80849">
        <ele>1629.2</ele>
        <time>2021-08-04T08:36:50.000Z</time>
      </trkpt>
      <trkpt lat="42.59065" lon="1.80842">
        <ele>1628</ele>
        <time>2021-08-04T08:37:00.000Z</time>
      </trkpt>
      <trkpt lat="42.59059" lon="1.80832">
        <ele>1626.3</ele>
        <time>2021-08-04T08:37:10.000Z</time>
      </trkpt>
      <trkpt lat="42.59052" lon="1.80824">
        <ele>1624.6</ele>
        <time>2021-08-04T08:37:21.000Z</time>
      </trkpt>
      <trkpt lat="42.59044" lon="1.80818">
        <ele>1623.2</ele>
        <time>2021-08-04T08:37:31.000Z</time>
      </trkpt>
      <trkpt lat="42.59035" lon="1.80811">
        <ele>1621.4</ele>
        <time>2021-08-04T08:37:40.000Z</time>
      </trkpt>
      <trkpt lat="42.59029" lon="1.80802">
        <ele>1619.4</ele>
        <time>2021-08-04T08:37:53.000Z</time>
      </trkpt>
      <trkpt lat="42.59029" lon="1.80789">
        <ele>1616</ele>
        <time>2021-08-04T08:38:16.000Z</time>
      </trkpt>
      <trkpt lat="42.59023" lon="1.80779">
        <ele>1614.2</ele>
        <time>2021-08-04T08:38:29.000Z</time>
      </trkpt>
      <trkpt lat="42.59017" lon="1.80769">
        <ele>1612.8</ele>
        <time>2021-08-04T08:38:39.000Z</time>
      </trkpt>
      <trkpt lat="42.59014" lon="1.80767">
        <ele>1612.1</ele>
        <time>2021-08-04T08:38:45.000Z</time>
      </trkpt>
      <trkpt lat="42.59014" lon="1.80767">
        <ele>1611.7</ele>
        <time>2021-08-04T08:38:46.000Z</time>
      </trkpt>
      <trkpt lat="42.59008" lon="1.80759">
        <ele>1610.2</ele>
        <time>2021-08-04T08:38:55.000Z</time>
      </trkpt>
      <trkpt lat="42.59001" lon="1.80753">
        <ele>1608.7</ele>
        <time>2021-08-04T08:39:06.000Z</time>
      </trkpt>
      <trkpt lat="42.59001" lon="1.80753">
        <ele>1608</ele>
        <time>2021-08-04T08:39:13.000Z</time>
      </trkpt>
      <trkpt lat="42.59001" lon="1.80753">
        <ele>1607.9</ele>
        <time>2021-08-04T08:39:14.000Z</time>
      </trkpt>
      <trkpt lat="42.59001" lon="1.80753">
        <ele>1606.7</ele>
        <time>2021-08-04T08:39:26.000Z</time>
      </trkpt>
      <trkpt lat="42.58998" lon="1.80751">
        <ele>1606.3</ele>
        <time>2021-08-04T08:39:33.000Z</time>
      </trkpt>
      <trkpt lat="42.58998" lon="1.80751">
        <ele>1605.8</ele>
        <time>2021-08-04T08:39:40.000Z</time>
      </trkpt>
      <trkpt lat="42.58998" lon="1.80751">
        <ele>1605.5</ele>
        <time>2021-08-04T08:39:46.000Z</time>
      </trkpt>
      <trkpt lat="42.58998" lon="1.80751">
        <ele>1605.1</ele>
        <time>2021-08-04T08:39:48.000Z</time>
      </trkpt>
      <trkpt lat="42.58998" lon="1.80751">
        <ele>1605.1</ele>
        <time>2021-08-04T08:39:49.000Z</time>
      </trkpt>
      <trkpt lat="42.58998" lon="1.8075">
        <ele>1604.7</ele>
        <time>2021-08-04T08:39:59.000Z</time>
      </trkpt>
      <trkpt lat="42.58998" lon="1.8075">
        <ele>1604.6</ele>
        <time>2021-08-04T08:40:00.000Z</time>
      </trkpt>
      <trkpt lat="42.58998" lon="1.8075">
        <ele>1604.5</ele>
        <time>2021-08-04T08:40:08.000Z</time>
      </trkpt>
      <trkpt lat="42.58998" lon="1.80749">
        <ele>1604.4</ele>
        <time>2021-08-04T08:40:10.000Z</time>
      </trkpt>
      <trkpt lat="42.58998" lon="1.80749">
        <ele>1604.4</ele>
        <time>2021-08-04T08:40:11.000Z</time>
      </trkpt>
      <trkpt lat="42.59" lon="1.80746">
        <ele>1604.2</ele>
        <time>2021-08-04T08:40:19.000Z</time>
      </trkpt>
      <trkpt lat="42.59" lon="1.80746">
        <ele>1604.1</ele>
        <time>2021-08-04T08:40:21.000Z</time>
      </trkpt>
      <trkpt lat="42.59" lon="1.80746">
        <ele>1603.9</ele>
        <time>2021-08-04T08:40:23.000Z</time>
      </trkpt>
      <trkpt lat="42.59" lon="1.80746">
        <ele>1603.8</ele>
        <time>2021-08-04T08:40:35.000Z</time>
      </trkpt>
      <trkpt lat="42.59" lon="1.80747">
        <ele>1603.6</ele>
        <time>2021-08-04T08:40:39.000Z</time>
      </trkpt>
      <trkpt lat="42.59" lon="1.80747">
        <ele>1603.6</ele>
        <time>2021-08-04T08:40:40.000Z</time>
      </trkpt>
      <trkpt lat="42.59" lon="1.80747">
        <ele>1603.4</ele>
        <time>2021-08-04T08:40:42.000Z</time>
      </trkpt>
      <trkpt lat="42.59" lon="1.80747">
        <ele>1603.5</ele>
        <time>2021-08-04T08:40:43.000Z</time>
      </trkpt>
      <trkpt lat="42.59" lon="1.80747">
        <ele>1603.5</ele>
        <time>2021-08-04T08:40:44.000Z</time>
      </trkpt>
      <trkpt lat="42.59" lon="1.80747">
        <ele>1603.4</ele>
        <time>2021-08-04T08:40:45.000Z</time>
      </trkpt>
      <trkpt lat="42.58999" lon="1.80747">
        <ele>1603.2</ele>
        <time>2021-08-04T08:40:49.000Z</time>
      </trkpt>
      <trkpt lat="42.58999" lon="1.80747">
        <ele>1602.9</ele>
        <time>2021-08-04T08:41:09.000Z</time>
      </trkpt>
      <trkpt lat="42.58999" lon="1.80746">
        <ele>1602.8</ele>
        <time>2021-08-04T08:41:11.000Z</time>
      </trkpt>
      <trkpt lat="42.58999" lon="1.80746">
        <ele>1602.9</ele>
        <time>2021-08-04T08:41:12.000Z</time>
      </trkpt>
      <trkpt lat="42.58999" lon="1.80746">
        <ele>1603</ele>
        <time>2021-08-04T08:41:16.000Z</time>
      </trkpt>
      <trkpt lat="42.58998" lon="1.80746">
        <ele>1602.7</ele>
        <time>2021-08-04T08:41:30.000Z</time>
      </trkpt>
      <trkpt lat="42.58998" lon="1.80746">
        <ele>1602.8</ele>
        <time>2021-08-04T08:41:31.000Z</time>
      </trkpt>
      <trkpt lat="42.58998" lon="1.80746">
        <ele>1602.6</ele>
        <time>2021-08-04T08:41:33.000Z</time>
      </trkpt>
      <trkpt lat="42.58998" lon="1.80746">
        <ele>1602.6</ele>
        <time>2021-08-04T08:41:34.000Z</time>
      </trkpt>
      <trkpt lat="42.58998" lon="1.80746">
        <ele>1602.7</ele>
        <time>2021-08-04T08:41:35.000Z</time>
      </trkpt>
      <trkpt lat="42.58993" lon="1.80736">
        <ele>1602.1</ele>
        <time>2021-08-04T08:41:49.000Z</time>
      </trkpt>
      <trkpt lat="42.58988" lon="1.80725">
        <ele>1601.4</ele>
        <time>2021-08-04T08:42:00.000Z</time>
      </trkpt>
      <trkpt lat="42.58985" lon="1.80713">
        <ele>1600.6</ele>
        <time>2021-08-04T08:42:10.000Z</time>
      </trkpt>
      <trkpt lat="42.5898" lon="1.80702">
        <ele>1599.8</ele>
        <time>2021-08-04T08:42:20.000Z</time>
      </trkpt>
      <trkpt lat="42.58975" lon="1.8069">
        <ele>1599</ele>
        <time>2021-08-04T08:42:29.000Z</time>
      </trkpt>
      <trkpt lat="42.58967" lon="1.80683">
        <ele>1598.5</ele>
        <time>2021-08-04T08:42:37.000Z</time>
      </trkpt>
      <trkpt lat="42.5896" lon="1.80674">
        <ele>1597.7</ele>
        <time>2021-08-04T08:42:45.000Z</time>
      </trkpt>
      <trkpt lat="42.58951" lon="1.80667">
        <ele>1597.3</ele>
        <time>2021-08-04T08:42:53.000Z</time>
      </trkpt>
      <trkpt lat="42.58943" lon="1.80659">
        <ele>1596.4</ele>
        <time>2021-08-04T08:43:01.000Z</time>
      </trkpt>
      <trkpt lat="42.58936" lon="1.80651">
        <ele>1595.3</ele>
        <time>2021-08-04T08:43:12.000Z</time>
      </trkpt>
      <trkpt lat="42.58928" lon="1.80642">
        <ele>1594.6</ele>
        <time>2021-08-04T08:43:19.000Z</time>
      </trkpt>
      <trkpt lat="42.5892" lon="1.80636">
        <ele>1593.5</ele>
        <time>2021-08-04T08:43:26.000Z</time>
      </trkpt>
      <trkpt lat="42.58913" lon="1.80627">
        <ele>1592.5</ele>
        <time>2021-08-04T08:43:37.000Z</time>
      </trkpt>
      <trkpt lat="42.58905" lon="1.8062">
        <ele>1591.6</ele>
        <time>2021-08-04T08:43:45.000Z</time>
      </trkpt>
      <trkpt lat="42.58902" lon="1.80608">
        <ele>1590.2</ele>
        <time>2021-08-04T08:43:54.000Z</time>
      </trkpt>
      <trkpt lat="42.58898" lon="1.80597">
        <ele>1589.5</ele>
        <time>2021-08-04T08:44:01.000Z</time>
      </trkpt>
      <trkpt lat="42.5889" lon="1.80588">
        <ele>1588.4</ele>
        <time>2021-08-04T08:44:11.000Z</time>
      </trkpt>
      <trkpt lat="42.58886" lon="1.80575">
        <ele>1587.2</ele>
        <time>2021-08-04T08:44:21.000Z</time>
      </trkpt>
      <trkpt lat="42.58886" lon="1.80563">
        <ele>1586.1</ele>
        <time>2021-08-04T08:44:30.000Z</time>
      </trkpt>
      <trkpt lat="42.58882" lon="1.80551">
        <ele>1584.9</ele>
        <time>2021-08-04T08:44:39.000Z</time>
      </trkpt>
      <trkpt lat="42.58876" lon="1.80542">
        <ele>1583.9</ele>
        <time>2021-08-04T08:44:48.000Z</time>
      </trkpt>
      <trkpt lat="42.58875" lon="1.80541">
        <ele>1583.5</ele>
        <time>2021-08-04T08:44:53.000Z</time>
      </trkpt>
      <trkpt lat="42.58875" lon="1.8054">
        <ele>1583.4</ele>
        <time>2021-08-04T08:44:55.000Z</time>
      </trkpt>
      <trkpt lat="42.58869" lon="1.80531">
        <ele>1582.4</ele>
        <time>2021-08-04T08:45:04.000Z</time>
      </trkpt>
      <trkpt lat="42.58861" lon="1.80522">
        <ele>1581.7</ele>
        <time>2021-08-04T08:45:13.000Z</time>
      </trkpt>
      <trkpt lat="42.58853" lon="1.80515">
        <ele>1580.9</ele>
        <time>2021-08-04T08:45:22.000Z</time>
      </trkpt>
      <trkpt lat="42.58846" lon="1.80506">
        <ele>1580.1</ele>
        <time>2021-08-04T08:45:31.000Z</time>
      </trkpt>
      <trkpt lat="42.58838" lon="1.80498">
        <ele>1578.8</ele>
        <time>2021-08-04T08:45:40.000Z</time>
      </trkpt>
      <trkpt lat="42.58831" lon="1.80488">
        <ele>1577.7</ele>
        <time>2021-08-04T08:45:49.000Z</time>
      </trkpt>
      <trkpt lat="42.58825" lon="1.80478">
        <ele>1576.5</ele>
        <time>2021-08-04T08:45:58.000Z</time>
      </trkpt>
      <trkpt lat="42.5882" lon="1.80467">
        <ele>1575.7</ele>
        <time>2021-08-04T08:46:07.000Z</time>
      </trkpt>
      <trkpt lat="42.58815" lon="1.80456">
        <ele>1574.5</ele>
        <time>2021-08-04T08:46:16.000Z</time>
      </trkpt>
      <trkpt lat="42.58811" lon="1.80444">
        <ele>1573.4</ele>
        <time>2021-08-04T08:46:25.000Z</time>
      </trkpt>
      <trkpt lat="42.58806" lon="1.80433">
        <ele>1572.2</ele>
        <time>2021-08-04T08:46:34.000Z</time>
      </trkpt>
      <trkpt lat="42.58803" lon="1.80421">
        <ele>1571.6</ele>
        <time>2021-08-04T08:46:42.000Z</time>
      </trkpt>
      <trkpt lat="42.58799" lon="1.80409">
        <ele>1570.2</ele>
        <time>2021-08-04T08:46:51.000Z</time>
      </trkpt>
      <trkpt lat="42.58796" lon="1.80396">
        <ele>1569.1</ele>
        <time>2021-08-04T08:47:00.000Z</time>
      </trkpt>
      <trkpt lat="42.58794" lon="1.80383">
        <ele>1568.1</ele>
        <time>2021-08-04T08:47:09.000Z</time>
      </trkpt>
      <trkpt lat="42.58792" lon="1.80372">
        <ele>1567</ele>
        <time>2021-08-04T08:47:17.000Z</time>
      </trkpt>
      <trkpt lat="42.58789" lon="1.80359">
        <ele>1565.9</ele>
        <time>2021-08-04T08:47:26.000Z</time>
      </trkpt>
      <trkpt lat="42.58797" lon="1.80365">
        <ele>1563.6</ele>
        <time>2021-08-04T08:47:45.000Z</time>
      </trkpt>
      <trkpt lat="42.58804" lon="1.80373">
        <ele>1562.6</ele>
        <time>2021-08-04T08:47:54.000Z</time>
      </trkpt>
      <trkpt lat="42.58809" lon="1.80384">
        <ele>1561.4</ele>
        <time>2021-08-04T08:48:04.000Z</time>
      </trkpt>
      <trkpt lat="42.58808" lon="1.80384">
        <ele>1561</ele>
        <time>2021-08-04T08:48:06.000Z</time>
      </trkpt>
      <trkpt lat="42.58809" lon="1.80384">
        <ele>1560.9</ele>
        <time>2021-08-04T08:48:07.000Z</time>
      </trkpt>
      <trkpt lat="42.58815" lon="1.80395">
        <ele>1559.7</ele>
        <time>2021-08-04T08:48:15.000Z</time>
      </trkpt>
      <trkpt lat="42.58822" lon="1.80404">
        <ele>1558.6</ele>
        <time>2021-08-04T08:48:22.000Z</time>
      </trkpt>
      <trkpt lat="42.58829" lon="1.80413">
        <ele>1557.4</ele>
        <time>2021-08-04T08:48:31.000Z</time>
      </trkpt>
      <trkpt lat="42.58836" lon="1.80422">
        <ele>1555.9</ele>
        <time>2021-08-04T08:48:41.000Z</time>
      </trkpt>
      <trkpt lat="42.58843" lon="1.8043">
        <ele>1554.8</ele>
        <time>2021-08-04T08:48:51.000Z</time>
      </trkpt>
      <trkpt lat="42.58852" lon="1.80436">
        <ele>1553.5</ele>
        <time>2021-08-04T08:49:01.000Z</time>
      </trkpt>
      <trkpt lat="42.5886" lon="1.80442">
        <ele>1551.6</ele>
        <time>2021-08-04T08:49:11.000Z</time>
      </trkpt>
      <trkpt lat="42.58869" lon="1.80447">
        <ele>1550.3</ele>
        <time>2021-08-04T08:49:20.000Z</time>
      </trkpt>
      <trkpt lat="42.58878" lon="1.80452">
        <ele>1549.2</ele>
        <time>2021-08-04T08:49:29.000Z</time>
      </trkpt>
      <trkpt lat="42.58887" lon="1.80457">
        <ele>1547.8</ele>
        <time>2021-08-04T08:49:38.000Z</time>
      </trkpt>
      <trkpt lat="42.58896" lon="1.80462">
        <ele>1546.4</ele>
        <time>2021-08-04T08:49:48.000Z</time>
      </trkpt>
      <trkpt lat="42.58904" lon="1.80468">
        <ele>1545</ele>
        <time>2021-08-04T08:49:57.000Z</time>
      </trkpt>
      <trkpt lat="42.58902" lon="1.80455">
        <ele>1541.7</ele>
        <time>2021-08-04T08:50:21.000Z</time>
      </trkpt>
      <trkpt lat="42.58896" lon="1.80444">
        <ele>1540</ele>
        <time>2021-08-04T08:50:32.000Z</time>
      </trkpt>
      <trkpt lat="42.58891" lon="1.80434">
        <ele>1538.5</ele>
        <time>2021-08-04T08:50:41.000Z</time>
      </trkpt>
      <trkpt lat="42.58885" lon="1.80425">
        <ele>1537</ele>
        <time>2021-08-04T08:50:50.000Z</time>
      </trkpt>
      <trkpt lat="42.58879" lon="1.80415">
        <ele>1535.5</ele>
        <time>2021-08-04T08:51:00.000Z</time>
      </trkpt>
      <trkpt lat="42.58873" lon="1.80405">
        <ele>1533.9</ele>
        <time>2021-08-04T08:51:09.000Z</time>
      </trkpt>
      <trkpt lat="42.58868" lon="1.80394">
        <ele>1532.5</ele>
        <time>2021-08-04T08:51:18.000Z</time>
      </trkpt>
      <trkpt lat="42.58865" lon="1.80382">
        <ele>1531.6</ele>
        <time>2021-08-04T08:51:27.000Z</time>
      </trkpt>
      <trkpt lat="42.58864" lon="1.8037">
        <ele>1530</ele>
        <time>2021-08-04T08:51:37.000Z</time>
      </trkpt>
      <trkpt lat="42.58864" lon="1.80357">
        <ele>1528.6</ele>
        <time>2021-08-04T08:51:47.000Z</time>
      </trkpt>
      <trkpt lat="42.58864" lon="1.80345">
        <ele>1527.2</ele>
        <time>2021-08-04T08:51:58.000Z</time>
      </trkpt>
      <trkpt lat="42.58863" lon="1.80332">
        <ele>1525.8</ele>
        <time>2021-08-04T08:52:08.000Z</time>
      </trkpt>
      <trkpt lat="42.58855" lon="1.80324">
        <ele>1525.1</ele>
        <time>2021-08-04T08:52:18.000Z</time>
      </trkpt>
      <trkpt lat="42.5885" lon="1.80313">
        <ele>1524.8</ele>
        <time>2021-08-04T08:52:31.000Z</time>
      </trkpt>
      <trkpt lat="42.58848" lon="1.803">
        <ele>1525.2</ele>
        <time>2021-08-04T08:52:42.000Z</time>
      </trkpt>
      <trkpt lat="42.58844" lon="1.80289">
        <ele>1524.5</ele>
        <time>2021-08-04T08:52:51.000Z</time>
      </trkpt>
      <trkpt lat="42.58839" lon="1.80277">
        <ele>1524.2</ele>
        <time>2021-08-04T08:53:02.000Z</time>
      </trkpt>
      <trkpt lat="42.58844" lon="1.80267">
        <ele>1522.5</ele>
        <time>2021-08-04T08:53:19.000Z</time>
      </trkpt>
      <trkpt lat="42.58847" lon="1.80255">
        <ele>1520.4</ele>
        <time>2021-08-04T08:53:35.000Z</time>
      </trkpt>
      <trkpt lat="42.58845" lon="1.80243">
        <ele>1518.5</ele>
        <time>2021-08-04T08:53:47.000Z</time>
      </trkpt>
      <trkpt lat="42.58844" lon="1.8023">
        <ele>1516.4</ele>
        <time>2021-08-04T08:53:59.000Z</time>
      </trkpt>
      <trkpt lat="42.5884" lon="1.80218">
        <ele>1514.2</ele>
        <time>2021-08-04T08:54:10.000Z</time>
      </trkpt>
      <trkpt lat="42.58839" lon="1.80205">
        <ele>1512.3</ele>
        <time>2021-08-04T08:54:21.000Z</time>
      </trkpt>
      <trkpt lat="42.58836" lon="1.80193">
        <ele>1510.4</ele>
        <time>2021-08-04T08:54:33.000Z</time>
      </trkpt>
      <trkpt lat="42.58835" lon="1.8018">
        <ele>1508.9</ele>
        <time>2021-08-04T08:54:43.000Z</time>
      </trkpt>
      <trkpt lat="42.58832" lon="1.80168">
        <ele>1507.1</ele>
        <time>2021-08-04T08:54:53.000Z</time>
      </trkpt>
      <trkpt lat="42.58832" lon="1.80155">
        <ele>1504.9</ele>
        <time>2021-08-04T08:55:04.000Z</time>
      </trkpt>
      <trkpt lat="42.58832" lon="1.80142">
        <ele>1502.8</ele>
        <time>2021-08-04T08:55:14.000Z</time>
      </trkpt>
      <trkpt lat="42.58831" lon="1.80129">
        <ele>1501.8</ele>
        <time>2021-08-04T08:55:23.000Z</time>
      </trkpt>
      <trkpt lat="42.5883" lon="1.80117">
        <ele>1500.2</ele>
        <time>2021-08-04T08:55:34.000Z</time>
      </trkpt>
      <trkpt lat="42.58831" lon="1.80104">
        <ele>1498.4</ele>
        <time>2021-08-04T08:55:46.000Z</time>
      </trkpt>
      <trkpt lat="42.58831" lon="1.80092">
        <ele>1497.5</ele>
        <time>2021-08-04T08:55:57.000Z</time>
      </trkpt>
      <trkpt lat="42.58824" lon="1.80082">
        <ele>1495.8</ele>
        <time>2021-08-04T08:56:11.000Z</time>
      </trkpt>
      <trkpt lat="42.58822" lon="1.80069">
        <ele>1494.3</ele>
        <time>2021-08-04T08:56:24.000Z</time>
      </trkpt>
      <trkpt lat="42.5882" lon="1.80056">
        <ele>1493.3</ele>
        <time>2021-08-04T08:56:35.000Z</time>
      </trkpt>
      <trkpt lat="42.58819" lon="1.80043">
        <ele>1492.1</ele>
        <time>2021-08-04T08:56:47.000Z</time>
      </trkpt>
      <trkpt lat="42.58818" lon="1.8003">
        <ele>1490.8</ele>
        <time>2021-08-04T08:56:58.000Z</time>
      </trkpt>
      <trkpt lat="42.58816" lon="1.80018">
        <ele>1489.9</ele>
        <time>2021-08-04T08:57:09.000Z</time>
      </trkpt>
      <trkpt lat="42.58815" lon="1.8001">
        <ele>1489.2</ele>
        <time>2021-08-04T08:57:17.000Z</time>
      </trkpt>
      <trkpt lat="42.58816" lon="1.8001">
        <ele>1489.1</ele>
        <time>2021-08-04T08:57:18.000Z</time>
      </trkpt>
      <trkpt lat="42.58816" lon="1.79997">
        <ele>1487.5</ele>
        <time>2021-08-04T08:57:33.000Z</time>
      </trkpt>
      <trkpt lat="42.58818" lon="1.79984">
        <ele>1486.5</ele>
        <time>2021-08-04T08:57:44.000Z</time>
      </trkpt>
      <trkpt lat="42.58813" lon="1.79974">
        <ele>1485</ele>
        <time>2021-08-04T08:57:56.000Z</time>
      </trkpt>
      <trkpt lat="42.58809" lon="1.79961">
        <ele>1483.2</ele>
        <time>2021-08-04T08:58:09.000Z</time>
      </trkpt>
      <trkpt lat="42.58802" lon="1.79953">
        <ele>1481.2</ele>
        <time>2021-08-04T08:58:20.000Z</time>
      </trkpt>
      <trkpt lat="42.58794" lon="1.79946">
        <ele>1478.9</ele>
        <time>2021-08-04T08:58:35.000Z</time>
      </trkpt>
      <trkpt lat="42.58793" lon="1.79943">
        <ele>1477.9</ele>
        <time>2021-08-04T08:58:41.000Z</time>
      </trkpt>
      <trkpt lat="42.58793" lon="1.79943">
        <ele>1477.5</ele>
        <time>2021-08-04T08:58:43.000Z</time>
      </trkpt>
      <trkpt lat="42.58788" lon="1.79932">
        <ele>1475.2</ele>
        <time>2021-08-04T08:58:56.000Z</time>
      </trkpt>
      <trkpt lat="42.58783" lon="1.79922">
        <ele>1472.5</ele>
        <time>2021-08-04T08:59:09.000Z</time>
      </trkpt>
      <trkpt lat="42.58778" lon="1.79911">
        <ele>1470</ele>
        <time>2021-08-04T08:59:22.000Z</time>
      </trkpt>
      <trkpt lat="42.58771" lon="1.79901">
        <ele>1468.4</ele>
        <time>2021-08-04T08:59:31.000Z</time>
      </trkpt>
      <trkpt lat="42.58764" lon="1.79892">
        <ele>1466</ele>
        <time>2021-08-04T08:59:42.000Z</time>
      </trkpt>
      <trkpt lat="42.58759" lon="1.79882">
        <ele>1463.8</ele>
        <time>2021-08-04T08:59:53.000Z</time>
      </trkpt>
      <trkpt lat="42.58752" lon="1.79873">
        <ele>1461.9</ele>
        <time>2021-08-04T09:00:02.000Z</time>
      </trkpt>
      <trkpt lat="42.58745" lon="1.79865">
        <ele>1460.3</ele>
        <time>2021-08-04T09:00:11.000Z</time>
      </trkpt>
      <trkpt lat="42.58737" lon="1.79858">
        <ele>1459.1</ele>
        <time>2021-08-04T09:00:19.000Z</time>
      </trkpt>
      <trkpt lat="42.58731" lon="1.79848">
        <ele>1458</ele>
        <time>2021-08-04T09:00:28.000Z</time>
      </trkpt>
      <trkpt lat="42.5873" lon="1.79836">
        <ele>1456.2</ele>
        <time>2021-08-04T09:00:41.000Z</time>
      </trkpt>
      <trkpt lat="42.58734" lon="1.79824">
        <ele>1453</ele>
        <time>2021-08-04T09:00:56.000Z</time>
      </trkpt>
      <trkpt lat="42.58738" lon="1.79812">
        <ele>1451.5</ele>
        <time>2021-08-04T09:01:05.000Z</time>
      </trkpt>
      <trkpt lat="42.58743" lon="1.79801">
        <ele>1450.4</ele>
        <time>2021-08-04T09:01:13.000Z</time>
      </trkpt>
      <trkpt lat="42.58745" lon="1.79788">
        <ele>1449.4</ele>
        <time>2021-08-04T09:01:21.000Z</time>
      </trkpt>
      <trkpt lat="42.58745" lon="1.79785">
        <ele>1449</ele>
        <time>2021-08-04T09:01:25.000Z</time>
      </trkpt>
      <trkpt lat="42.58745" lon="1.79786">
        <ele>1449</ele>
        <time>2021-08-04T09:01:26.000Z</time>
      </trkpt>
      <trkpt lat="42.58745" lon="1.79786">
        <ele>1449.1</ele>
        <time>2021-08-04T09:01:27.000Z</time>
      </trkpt>
      <trkpt lat="42.58745" lon="1.79786">
        <ele>1445.5</ele>
        <time>2021-08-04T09:02:46.000Z</time>
      </trkpt>
      <trkpt lat="42.58745" lon="1.79786">
        <ele>1445.7</ele>
        <time>2021-08-04T09:02:47.000Z</time>
      </trkpt>
      <trkpt lat="42.58745" lon="1.79786">
        <ele>1445.3</ele>
        <time>2021-08-04T09:04:08.000Z</time>
      </trkpt>
      <trkpt lat="42.58745" lon="1.79786">
        <ele>1445.5</ele>
        <time>2021-08-04T09:04:09.000Z</time>
      </trkpt>
      <trkpt lat="42.58745" lon="1.79786">
        <ele>1446.8</ele>
        <time>2021-08-04T09:05:41.000Z</time>
      </trkpt>
      <trkpt lat="42.58745" lon="1.79786">
        <ele>1446.8</ele>
        <time>2021-08-04T09:05:42.000Z</time>
      </trkpt>
      <trkpt lat="42.58745" lon="1.79786">
        <ele>1447.8</ele>
        <time>2021-08-04T09:06:26.000Z</time>
      </trkpt>
      <trkpt lat="42.58745" lon="1.79786">
        <ele>1448</ele>
        <time>2021-08-04T09:06:27.000Z</time>
      </trkpt>
      <trkpt lat="42.58745" lon="1.79786">
        <ele>1448.5</ele>
        <time>2021-08-04T09:07:28.000Z</time>
      </trkpt>
      <trkpt lat="42.58745" lon="1.79786">
        <ele>1448.5</ele>
        <time>2021-08-04T09:07:29.000Z</time>
      </trkpt>
      <trkpt lat="42.58744" lon="1.79786">
        <ele>1448.7</ele>
        <time>2021-08-04T09:08:10.000Z</time>
      </trkpt>
      <trkpt lat="42.58744" lon="1.79786">
        <ele>1448.8</ele>
        <time>2021-08-04T09:08:11.000Z</time>
      </trkpt>
      <trkpt lat="42.58744" lon="1.79786">
        <ele>1448.6</ele>
        <time>2021-08-04T09:08:29.000Z</time>
      </trkpt>
      <trkpt lat="42.58744" lon="1.79786">
        <ele>1448.5</ele>
        <time>2021-08-04T09:08:30.000Z</time>
      </trkpt>
      <trkpt lat="42.58744" lon="1.79786">
        <ele>1448.5</ele>
        <time>2021-08-04T09:08:36.000Z</time>
      </trkpt>
      <trkpt lat="42.58744" lon="1.79786">
        <ele>1448.5</ele>
        <time>2021-08-04T09:08:37.000Z</time>
      </trkpt>
      <trkpt lat="42.58744" lon="1.79785">
        <ele>1448.3</ele>
        <time>2021-08-04T09:09:32.000Z</time>
      </trkpt>
      <trkpt lat="42.58744" lon="1.79785">
        <ele>1448.4</ele>
        <time>2021-08-04T09:09:33.000Z</time>
      </trkpt>
      <trkpt lat="42.58744" lon="1.79785">
        <ele>1448.2</ele>
        <time>2021-08-04T09:09:47.000Z</time>
      </trkpt>
      <trkpt lat="42.58743" lon="1.79785">
        <ele>1448</ele>
        <time>2021-08-04T09:09:51.000Z</time>
      </trkpt>
      <trkpt lat="42.58743" lon="1.79785">
        <ele>1448</ele>
        <time>2021-08-04T09:09:52.000Z</time>
      </trkpt>
      <trkpt lat="42.58743" lon="1.79785">
        <ele>1448</ele>
        <time>2021-08-04T09:09:53.000Z</time>
      </trkpt>
      <trkpt lat="42.58743" lon="1.79785">
        <ele>1447.7</ele>
        <time>2021-08-04T09:10:12.000Z</time>
      </trkpt>
      <trkpt lat="42.58743" lon="1.79785">
        <ele>1447.9</ele>
        <time>2021-08-04T09:10:13.000Z</time>
      </trkpt>
      <trkpt lat="42.58743" lon="1.79784">
        <ele>1447.1</ele>
        <time>2021-08-04T09:12:07.000Z</time>
      </trkpt>
      <trkpt lat="42.58743" lon="1.79784">
        <ele>1447.1</ele>
        <time>2021-08-04T09:12:08.000Z</time>
      </trkpt>
      <trkpt lat="42.58743" lon="1.79784">
        <ele>1447.2</ele>
        <time>2021-08-04T09:12:09.000Z</time>
      </trkpt>
      <trkpt lat="42.58743" lon="1.79784">
        <ele>1447.2</ele>
        <time>2021-08-04T09:12:10.000Z</time>
      </trkpt>
      <trkpt lat="42.58743" lon="1.79783">
        <ele>1447.2</ele>
        <time>2021-08-04T09:13:02.000Z</time>
      </trkpt>
      <trkpt lat="42.58743" lon="1.79783">
        <ele>1447.2</ele>
        <time>2021-08-04T09:13:03.000Z</time>
      </trkpt>
      <trkpt lat="42.58743" lon="1.79783">
        <ele>1447.1</ele>
        <time>2021-08-04T09:13:11.000Z</time>
      </trkpt>
      <trkpt lat="42.58743" lon="1.79783">
        <ele>1447</ele>
        <time>2021-08-04T09:13:12.000Z</time>
      </trkpt>
      <trkpt lat="42.58743" lon="1.79783">
        <ele>1446.8</ele>
        <time>2021-08-04T09:13:20.000Z</time>
      </trkpt>
      <trkpt lat="42.58743" lon="1.79783">
        <ele>1446.7</ele>
        <time>2021-08-04T09:13:22.000Z</time>
      </trkpt>
      <trkpt lat="42.58743" lon="1.79783">
        <ele>1446.8</ele>
        <time>2021-08-04T09:13:23.000Z</time>
      </trkpt>
      <trkpt lat="42.58743" lon="1.79786">
        <ele>1446.8</ele>
        <time>2021-08-04T09:13:28.000Z</time>
      </trkpt>
      <trkpt lat="42.58743" lon="1.79786">
        <ele>1446.8</ele>
        <time>2021-08-04T09:13:29.000Z</time>
      </trkpt>
      <trkpt lat="42.58743" lon="1.79786">
        <ele>1446.8</ele>
        <time>2021-08-04T09:13:30.000Z</time>
      </trkpt>
      <trkpt lat="42.58743" lon="1.79786">
        <ele>1446.8</ele>
        <time>2021-08-04T09:13:44.000Z</time>
      </trkpt>
      <trkpt lat="42.58743" lon="1.79786">
        <ele>1446.8</ele>
        <time>2021-08-04T09:13:45.000Z</time>
      </trkpt>
      <trkpt lat="42.58743" lon="1.79786">
        <ele>1446.9</ele>
        <time>2021-08-04T09:14:03.000Z</time>
      </trkpt>
      <trkpt lat="42.58743" lon="1.79787">
        <ele>1446.9</ele>
        <time>2021-08-04T09:14:07.000Z</time>
      </trkpt>
      <trkpt lat="42.58742" lon="1.79788">
        <ele>1446.9</ele>
        <time>2021-08-04T09:14:22.000Z</time>
      </trkpt>
      <trkpt lat="42.58743" lon="1.7979">
        <ele>1447</ele>
        <time>2021-08-04T09:14:28.000Z</time>
      </trkpt>
      <trkpt lat="42.58743" lon="1.7979">
        <ele>1446.4</ele>
        <time>2021-08-04T09:15:03.000Z</time>
      </trkpt>
      <trkpt lat="42.58743" lon="1.7979">
        <ele>1446.3</ele>
        <time>2021-08-04T09:15:05.000Z</time>
      </trkpt>
      <trkpt lat="42.58743" lon="1.79789">
        <ele>1446.8</ele>
        <time>2021-08-04T09:15:17.000Z</time>
      </trkpt>
      <trkpt lat="42.58743" lon="1.79789">
        <ele>1446.6</ele>
        <time>2021-08-04T09:15:18.000Z</time>
      </trkpt>
      <trkpt lat="42.58743" lon="1.79789">
        <ele>1446.9</ele>
        <time>2021-08-04T09:15:29.000Z</time>
      </trkpt>
      <trkpt lat="42.58743" lon="1.79789">
        <ele>1446.8</ele>
        <time>2021-08-04T09:15:30.000Z</time>
      </trkpt>
      <trkpt lat="42.58743" lon="1.79789">
        <ele>1446.7</ele>
        <time>2021-08-04T09:15:51.000Z</time>
      </trkpt>
      <trkpt lat="42.58743" lon="1.79789">
        <ele>1446.8</ele>
        <time>2021-08-04T09:15:52.000Z</time>
      </trkpt>
      <trkpt lat="42.58743" lon="1.79789">
        <ele>1446.7</ele>
        <time>2021-08-04T09:16:06.000Z</time>
      </trkpt>
      <trkpt lat="42.58743" lon="1.79789">
        <ele>1446.6</ele>
        <time>2021-08-04T09:16:08.000Z</time>
      </trkpt>
      <trkpt lat="42.58743" lon="1.7979">
        <ele>1446.8</ele>
        <time>2021-08-04T09:16:17.000Z</time>
      </trkpt>
      <trkpt lat="42.58742" lon="1.79791">
        <ele>1446.8</ele>
        <time>2021-08-04T09:16:21.000Z</time>
      </trkpt>
      <trkpt lat="42.58742" lon="1.79791">
        <ele>1446.7</ele>
        <time>2021-08-04T09:16:34.000Z</time>
      </trkpt>
      <trkpt lat="42.58742" lon="1.7979">
        <ele>1446.8</ele>
        <time>2021-08-04T09:16:40.000Z</time>
      </trkpt>
      <trkpt lat="42.58742" lon="1.7979">
        <ele>1446.7</ele>
        <time>2021-08-04T09:16:41.000Z</time>
      </trkpt>
      <trkpt lat="42.58742" lon="1.7979">
        <ele>1446.7</ele>
        <time>2021-08-04T09:16:42.000Z</time>
      </trkpt>
      <trkpt lat="42.58743" lon="1.7979">
        <ele>1446.7</ele>
        <time>2021-08-04T09:17:05.000Z</time>
      </trkpt>
      <trkpt lat="42.58743" lon="1.79789">
        <ele>1446.5</ele>
        <time>2021-08-04T09:17:08.000Z</time>
      </trkpt>
      <trkpt lat="42.58743" lon="1.79789">
        <ele>1446.6</ele>
        <time>2021-08-04T09:17:09.000Z</time>
      </trkpt>
      <trkpt lat="42.58743" lon="1.79789">
        <ele>1446.7</ele>
        <time>2021-08-04T09:17:10.000Z</time>
      </trkpt>
      <trkpt lat="42.58743" lon="1.79789">
        <ele>1446.3</ele>
        <time>2021-08-04T09:17:38.000Z</time>
      </trkpt>
      <trkpt lat="42.58743" lon="1.7979">
        <ele>1446.7</ele>
        <time>2021-08-04T09:17:43.000Z</time>
      </trkpt>
      <trkpt lat="42.58743" lon="1.7979">
        <ele>1446.9</ele>
        <time>2021-08-04T09:17:51.000Z</time>
      </trkpt>
      <trkpt lat="42.58743" lon="1.79791">
        <ele>1446.5</ele>
        <time>2021-08-04T09:17:53.000Z</time>
      </trkpt>
      <trkpt lat="42.58743" lon="1.79791">
        <ele>1446.5</ele>
        <time>2021-08-04T09:17:56.000Z</time>
      </trkpt>
      <trkpt lat="42.58745" lon="1.79797">
        <ele>1446.6</ele>
        <time>2021-08-04T09:18:05.000Z</time>
      </trkpt>
      <trkpt lat="42.58745" lon="1.79798">
        <ele>1446.7</ele>
        <time>2021-08-04T09:18:07.000Z</time>
      </trkpt>
      <trkpt lat="42.5875" lon="1.79809">
        <ele>1446.6</ele>
        <time>2021-08-04T09:18:17.000Z</time>
      </trkpt>
      <trkpt lat="42.58757" lon="1.79818">
        <ele>1446.3</ele>
        <time>2021-08-04T09:18:26.000Z</time>
      </trkpt>
      <trkpt lat="42.58764" lon="1.79827">
        <ele>1446.4</ele>
        <time>2021-08-04T09:18:35.000Z</time>
      </trkpt>
      <trkpt lat="42.58772" lon="1.79836">
        <ele>1446.2</ele>
        <time>2021-08-04T09:18:44.000Z</time>
      </trkpt>
      <trkpt lat="42.58778" lon="1.79845">
        <ele>1445.8</ele>
        <time>2021-08-04T09:18:52.000Z</time>
      </trkpt>
      <trkpt lat="42.58785" lon="1.79853">
        <ele>1445.7</ele>
        <time>2021-08-04T09:19:01.000Z</time>
      </trkpt>
      <trkpt lat="42.58795" lon="1.79856">
        <ele>1445.3</ele>
        <time>2021-08-04T09:19:10.000Z</time>
      </trkpt>
      <trkpt lat="42.58797" lon="1.79857">
        <ele>1444.9</ele>
        <time>2021-08-04T09:19:14.000Z</time>
      </trkpt>
      <trkpt lat="42.58797" lon="1.79856">
        <ele>1445</ele>
        <time>2021-08-04T09:19:20.000Z</time>
      </trkpt>
      <trkpt lat="42.58807" lon="1.79857">
        <ele>1444.9</ele>
        <time>2021-08-04T09:19:29.000Z</time>
      </trkpt>
      <trkpt lat="42.58816" lon="1.79854">
        <ele>1444.9</ele>
        <time>2021-08-04T09:19:37.000Z</time>
      </trkpt>
      <trkpt lat="42.58824" lon="1.79848">
        <ele>1444.6</ele>
        <time>2021-08-04T09:19:46.000Z</time>
      </trkpt>
      <trkpt lat="42.58831" lon="1.7984">
        <ele>1444.7</ele>
        <time>2021-08-04T09:19:54.000Z</time>
      </trkpt>
      <trkpt lat="42.5884" lon="1.79835">
        <ele>1444.3</ele>
        <time>2021-08-04T09:20:03.000Z</time>
      </trkpt>
      <trkpt lat="42.58842" lon="1.79835">
        <ele>1444.3</ele>
        <time>2021-08-04T09:20:08.000Z</time>
      </trkpt>
      <trkpt lat="42.58842" lon="1.79835">
        <ele>1443.9</ele>
        <time>2021-08-04T09:20:16.000Z</time>
      </trkpt>
      <trkpt lat="42.58849" lon="1.79844">
        <ele>1443.6</ele>
        <time>2021-08-04T09:20:25.000Z</time>
      </trkpt>
      <trkpt lat="42.58851" lon="1.79847">
        <ele>1443.6</ele>
        <time>2021-08-04T09:20:31.000Z</time>
      </trkpt>
      <trkpt lat="42.58852" lon="1.79847">
        <ele>1443.6</ele>
        <time>2021-08-04T09:20:32.000Z</time>
      </trkpt>
      <trkpt lat="42.58852" lon="1.79847">
        <ele>1443.7</ele>
        <time>2021-08-04T09:20:33.000Z</time>
      </trkpt>
      <trkpt lat="42.58852" lon="1.79848">
        <ele>1443.8</ele>
        <time>2021-08-04T09:20:35.000Z</time>
      </trkpt>
      <trkpt lat="42.58853" lon="1.79848">
        <ele>1443.7</ele>
        <time>2021-08-04T09:20:38.000Z</time>
      </trkpt>
      <trkpt lat="42.58852" lon="1.79848">
        <ele>1443.7</ele>
        <time>2021-08-04T09:20:42.000Z</time>
      </trkpt>
      <trkpt lat="42.58852" lon="1.79848">
        <ele>1443.8</ele>
        <time>2021-08-04T09:20:43.000Z</time>
      </trkpt>
      <trkpt lat="42.58852" lon="1.79847">
        <ele>1443.1</ele>
        <time>2021-08-04T09:20:48.000Z</time>
      </trkpt>
      <trkpt lat="42.58853" lon="1.79848">
        <ele>1442.5</ele>
        <time>2021-08-04T09:20:54.000Z</time>
      </trkpt>
      <trkpt lat="42.58853" lon="1.79849">
        <ele>1443.6</ele>
        <time>2021-08-04T09:21:30.000Z</time>
      </trkpt>
      <trkpt lat="42.58853" lon="1.79849">
        <ele>1443.6</ele>
        <time>2021-08-04T09:21:31.000Z</time>
      </trkpt>
      <trkpt lat="42.58853" lon="1.79849">
        <ele>1443.7</ele>
        <time>2021-08-04T09:21:37.000Z</time>
      </trkpt>
      <trkpt lat="42.58852" lon="1.79848">
        <ele>1442.6</ele>
        <time>2021-08-04T09:21:42.000Z</time>
      </trkpt>
      <trkpt lat="42.58851" lon="1.79848">
        <ele>1442.7</ele>
        <time>2021-08-04T09:21:43.000Z</time>
      </trkpt>
      <trkpt lat="42.58852" lon="1.79848">
        <ele>1443.4</ele>
        <time>2021-08-04T09:21:46.000Z</time>
      </trkpt>
      <trkpt lat="42.58852" lon="1.79847">
        <ele>1443.6</ele>
        <time>2021-08-04T09:21:48.000Z</time>
      </trkpt>
      <trkpt lat="42.58855" lon="1.79844">
        <ele>1444.6</ele>
        <time>2021-08-04T09:22:19.000Z</time>
      </trkpt>
      <trkpt lat="42.58855" lon="1.79843">
        <ele>1444.7</ele>
        <time>2021-08-04T09:22:20.000Z</time>
      </trkpt>
      <trkpt lat="42.58855" lon="1.79839">
        <ele>1444.7</ele>
        <time>2021-08-04T09:22:40.000Z</time>
      </trkpt>
      <trkpt lat="42.58855" lon="1.79838">
        <ele>1447</ele>
        <time>2021-08-04T09:22:41.000Z</time>
      </trkpt>
      <trkpt lat="42.58853" lon="1.79834">
        <ele>1452.1</ele>
        <time>2021-08-04T09:22:53.000Z</time>
      </trkpt>
      <trkpt lat="42.58854" lon="1.79834">
        <ele>1453.7</ele>
        <time>2021-08-04T09:22:54.000Z</time>
      </trkpt>
      <trkpt lat="42.58854" lon="1.79834">
        <ele>1453.5</ele>
        <time>2021-08-04T09:22:56.000Z</time>
      </trkpt>
      <trkpt lat="42.58854" lon="1.79834">
        <ele>1453</ele>
        <time>2021-08-04T09:22:57.000Z</time>
      </trkpt>
      <trkpt lat="42.5885" lon="1.79821">
        <ele>1445.7</ele>
        <time>2021-08-04T09:23:14.000Z</time>
      </trkpt>
      <trkpt lat="42.58848" lon="1.79833">
        <ele>1440.7</ele>
        <time>2021-08-04T09:23:36.000Z</time>
      </trkpt>
      <trkpt lat="42.58848" lon="1.79833">
        <ele>1440.7</ele>
        <time>2021-08-04T09:23:36.000Z</time>
      </trkpt>
    </trkseg>
  </trk>
</gpx>